<?xml version="1.0" encoding="UTF-8" standalone="no" ?>
<gpx xmlns="http://www.topografix.com/GPX/1/1" xmlns:xsi="http://www.w3.org/2001/XMLSchema-instance" xsi:schemaLocation="http://www.topografix.com/GPX/1/1 http://www.topografix.com/GPX/1/1/gpx.xsd" version="1.1" creator="VisuGPX - https://www.visugpx.com">
  <metadata>
    <name>2024 05 22 Parcours Total 2024</name>
  </metadata>
  <trk>
    <name><![CDATA[CAP1]]></name>
    <extensions>
      <line xmlns="http://www.topografix.com/GPX/gpx_style/0/2">
        <color>00ff04</color>
        <width>4</width>
      </line>
    </extensions>
    <trkseg>
      <trkpt lat="48.09136" lon="3.26414">
        <ele>98.2</ele>
        <time>2024-03-30T08:43:26.000Z</time>
      </trkpt>
      <trkpt lat="48.09136" lon="3.26414">
        <ele>98.2</ele>
      </trkpt>
      <trkpt lat="48.09135" lon="3.26415">
        <ele>98.2</ele>
      </trkpt>
      <trkpt lat="48.08852" lon="3.26576">
        <ele>106</ele>
      </trkpt>
      <trkpt lat="48.08644" lon="3.26098">
        <ele>108.9</ele>
      </trkpt>
      <trkpt lat="48.08609" lon="3.26023">
        <ele>109.9</ele>
      </trkpt>
      <trkpt lat="48.08586" lon="3.25988">
        <ele>110.8</ele>
      </trkpt>
      <trkpt lat="48.08559" lon="3.25953">
        <ele>112.8</ele>
      </trkpt>
      <trkpt lat="48.08581" lon="3.25844">
        <ele>111.8</ele>
      </trkpt>
      <trkpt lat="48.08591" lon="3.25825">
        <ele>112</ele>
      </trkpt>
      <trkpt lat="48.08618" lon="3.25788">
        <ele>112.9</ele>
      </trkpt>
      <trkpt lat="48.0866" lon="3.25718">
        <ele>116.2</ele>
      </trkpt>
      <trkpt lat="48.08684" lon="3.25669">
        <ele>116.3</ele>
      </trkpt>
      <trkpt lat="48.08709" lon="3.25586">
        <ele>116.4</ele>
      </trkpt>
      <trkpt lat="48.08702" lon="3.25591">
        <ele>116.5</ele>
      </trkpt>
      <trkpt lat="48.08695" lon="3.25588">
        <ele>116.8</ele>
      </trkpt>
      <trkpt lat="48.08602" lon="3.25524">
        <ele>125.8</ele>
      </trkpt>
      <trkpt lat="48.08569" lon="3.25514">
        <ele>129.3</ele>
      </trkpt>
      <trkpt lat="48.08522" lon="3.25487">
        <ele>134.9</ele>
      </trkpt>
      <trkpt lat="48.085" lon="3.2547">
        <ele>138.1</ele>
      </trkpt>
      <trkpt lat="48.08465" lon="3.25422">
        <ele>144.3</ele>
      </trkpt>
      <trkpt lat="48.08388" lon="3.25363">
        <ele>152.1</ele>
      </trkpt>
      <trkpt lat="48.083" lon="3.25302">
        <ele>161.4</ele>
      </trkpt>
      <trkpt lat="48.08289" lon="3.2529">
        <ele>162.5</ele>
      </trkpt>
      <trkpt lat="48.08269" lon="3.25263">
        <ele>164.6</ele>
      </trkpt>
      <trkpt lat="48.08224" lon="3.25186">
        <ele>168.9</ele>
      </trkpt>
      <trkpt lat="48.08175" lon="3.25124">
        <ele>172</ele>
      </trkpt>
      <trkpt lat="48.08096" lon="3.25046">
        <ele>176.5</ele>
      </trkpt>
      <trkpt lat="48.0803" lon="3.24948">
        <ele>178</ele>
      </trkpt>
      <trkpt lat="48.07984" lon="3.24899">
        <ele>179.6</ele>
      </trkpt>
      <trkpt lat="48.07955" lon="3.24989">
        <ele>178.6</ele>
      </trkpt>
      <trkpt lat="48.07946" lon="3.25013">
        <ele>177.6</ele>
      </trkpt>
      <trkpt lat="48.07911" lon="3.25083">
        <ele>174.6</ele>
      </trkpt>
      <trkpt lat="48.07902" lon="3.25096">
        <ele>173.5</ele>
      </trkpt>
      <trkpt lat="48.07902" lon="3.25065">
        <ele>173.9</ele>
      </trkpt>
      <trkpt lat="48.07899" lon="3.25035">
        <ele>174.5</ele>
      </trkpt>
      <trkpt lat="48.07822" lon="3.246">
        <ele>181.6</ele>
      </trkpt>
      <trkpt lat="48.07818" lon="3.24598">
        <ele>181.4</ele>
      </trkpt>
      <trkpt lat="48.07809" lon="3.24561">
        <ele>181.1</ele>
      </trkpt>
      <trkpt lat="48.07792" lon="3.24508">
        <ele>181.5</ele>
        <extensions>
          <visugpx:TrkExtension xmlns:visugpx="https://www.visugpx.com/editgpx/">
            <visugpx:node>1</visugpx:node>
            </visugpx:TrkExtension>
        </extensions>
      </trkpt>
    </trkseg>
  </trk>
  <trk>
    <name><![CDATA[CO normale]]></name>
    <extensions>
      <line xmlns="http://www.topografix.com/GPX/gpx_style/0/2">
        <color>1100ff</color>
        <width>4</width>
      </line>
    </extensions>
    <trkseg>
      <trkpt lat="48.07785" lon="3.245">
        <ele>181.3</ele>
        <time>2024-03-31T08:16:59Z</time>
      </trkpt>
      <trkpt lat="48.07785" lon="3.245">
        <ele>181.3</ele>
        <time>2024-03-31T08:17:00Z</time>
      </trkpt>
      <trkpt lat="48.07784" lon="3.245">
        <ele>181.2</ele>
        <time>2024-03-31T08:17:11Z</time>
      </trkpt>
      <trkpt lat="48.07781" lon="3.24496">
        <ele>181.2</ele>
        <time>2024-03-31T08:17:17Z</time>
      </trkpt>
      <trkpt lat="48.07777" lon="3.24487">
        <ele>181.5</ele>
        <time>2024-03-31T08:17:26Z</time>
      </trkpt>
      <trkpt lat="48.07776" lon="3.24486">
        <ele>181.5</ele>
        <time>2024-03-31T08:17:27Z</time>
      </trkpt>
      <trkpt lat="48.07772" lon="3.24473">
        <ele>181.8</ele>
        <time>2024-03-31T08:17:36Z</time>
      </trkpt>
      <trkpt lat="48.07771" lon="3.24466">
        <ele>181.8</ele>
        <time>2024-03-31T08:17:41Z</time>
      </trkpt>
      <trkpt lat="48.07769" lon="3.24452">
        <ele>181.9</ele>
        <time>2024-03-31T08:17:51Z</time>
      </trkpt>
      <trkpt lat="48.07766" lon="3.24441">
        <ele>182.1</ele>
        <time>2024-03-31T08:18:00Z</time>
      </trkpt>
      <trkpt lat="48.07762" lon="3.24429">
        <ele>182.6</ele>
        <time>2024-03-31T08:18:11Z</time>
      </trkpt>
      <trkpt lat="48.07759" lon="3.2442">
        <ele>182.9</ele>
        <time>2024-03-31T08:18:20Z</time>
      </trkpt>
      <trkpt lat="48.07756" lon="3.24412">
        <ele>183.2</ele>
        <time>2024-03-31T08:18:27Z</time>
      </trkpt>
      <trkpt lat="48.07753" lon="3.24404">
        <ele>183.5</ele>
        <time>2024-03-31T08:18:35Z</time>
      </trkpt>
      <trkpt lat="48.07748" lon="3.24393">
        <ele>183.8</ele>
        <time>2024-03-31T08:18:43Z</time>
      </trkpt>
      <trkpt lat="48.07748" lon="3.2439">
        <ele>183.9</ele>
        <time>2024-03-31T08:18:44Z</time>
      </trkpt>
      <trkpt lat="48.07741" lon="3.24374">
        <ele>183.8</ele>
        <time>2024-03-31T08:18:54Z</time>
      </trkpt>
      <trkpt lat="48.07736" lon="3.24366">
        <ele>183.9</ele>
        <time>2024-03-31T08:19:01Z</time>
      </trkpt>
      <trkpt lat="48.0773" lon="3.24356">
        <ele>184.2</ele>
        <time>2024-03-31T08:19:10Z</time>
      </trkpt>
      <trkpt lat="48.07725" lon="3.24343">
        <ele>184.7</ele>
        <time>2024-03-31T08:19:19Z</time>
      </trkpt>
      <trkpt lat="48.07721" lon="3.24333">
        <ele>185</ele>
        <time>2024-03-31T08:19:27Z</time>
      </trkpt>
      <trkpt lat="48.0772" lon="3.2433">
        <ele>184.9</ele>
        <time>2024-03-31T08:19:34Z</time>
      </trkpt>
      <trkpt lat="48.07717" lon="3.24323">
        <ele>184.9</ele>
        <time>2024-03-31T08:19:49Z</time>
      </trkpt>
      <trkpt lat="48.07705" lon="3.24303">
        <ele>185</ele>
        <time>2024-03-31T08:20:08Z</time>
      </trkpt>
      <trkpt lat="48.07696" lon="3.24286">
        <ele>185</ele>
        <time>2024-03-31T08:20:22Z</time>
      </trkpt>
      <trkpt lat="48.07693" lon="3.24276">
        <ele>185.1</ele>
        <time>2024-03-31T08:20:28Z</time>
      </trkpt>
      <trkpt lat="48.07688" lon="3.24267">
        <ele>185.3</ele>
        <time>2024-03-31T08:20:35Z</time>
      </trkpt>
      <trkpt lat="48.07685" lon="3.24256">
        <ele>185.5</ele>
        <time>2024-03-31T08:20:44Z</time>
      </trkpt>
      <trkpt lat="48.07681" lon="3.24237">
        <ele>185.7</ele>
        <time>2024-03-31T08:20:53Z</time>
      </trkpt>
      <trkpt lat="48.07677" lon="3.24221">
        <ele>186</ele>
        <time>2024-03-31T08:21:02Z</time>
      </trkpt>
      <trkpt lat="48.07677" lon="3.24217">
        <ele>186.2</ele>
        <time>2024-03-31T08:21:04Z</time>
      </trkpt>
      <trkpt lat="48.07674" lon="3.24205">
        <ele>186.6</ele>
        <time>2024-03-31T08:21:11Z</time>
      </trkpt>
      <trkpt lat="48.07672" lon="3.24195">
        <ele>187</ele>
        <time>2024-03-31T08:21:18Z</time>
      </trkpt>
      <trkpt lat="48.0767" lon="3.24181">
        <ele>187</ele>
        <time>2024-03-31T08:21:26Z</time>
      </trkpt>
      <trkpt lat="48.07668" lon="3.24168">
        <ele>187</ele>
        <time>2024-03-31T08:21:33Z</time>
      </trkpt>
      <trkpt lat="48.07664" lon="3.24151">
        <ele>187</ele>
        <time>2024-03-31T08:21:43Z</time>
      </trkpt>
      <trkpt lat="48.07662" lon="3.24144">
        <ele>187</ele>
        <time>2024-03-31T08:21:47Z</time>
      </trkpt>
      <trkpt lat="48.07658" lon="3.24127">
        <ele>187</ele>
        <time>2024-03-31T08:21:56Z</time>
      </trkpt>
      <trkpt lat="48.07654" lon="3.24115">
        <ele>187</ele>
        <time>2024-03-31T08:22:02Z</time>
      </trkpt>
      <trkpt lat="48.0765" lon="3.24097">
        <ele>187.3</ele>
        <time>2024-03-31T08:22:10Z</time>
      </trkpt>
      <trkpt lat="48.0765" lon="3.24085">
        <ele>187.6</ele>
        <time>2024-03-31T08:22:16Z</time>
      </trkpt>
      <trkpt lat="48.07649" lon="3.24079">
        <ele>187.5</ele>
        <time>2024-03-31T08:22:19Z</time>
      </trkpt>
      <trkpt lat="48.07648" lon="3.24061">
        <ele>187.1</ele>
        <time>2024-03-31T08:22:28Z</time>
      </trkpt>
      <trkpt lat="48.07648" lon="3.24057">
        <ele>187</ele>
        <time>2024-03-31T08:22:30Z</time>
      </trkpt>
      <trkpt lat="48.07647" lon="3.24012">
        <ele>186.7</ele>
        <time>2024-03-31T08:23:27Z</time>
      </trkpt>
      <trkpt lat="48.0765" lon="3.24006">
        <ele>186.6</ele>
        <time>2024-03-31T08:23:35Z</time>
      </trkpt>
      <trkpt lat="48.07655" lon="3.23999">
        <ele>186.4</ele>
        <time>2024-03-31T08:23:43Z</time>
      </trkpt>
      <trkpt lat="48.07659" lon="3.23993">
        <ele>186.2</ele>
        <time>2024-03-31T08:23:50Z</time>
      </trkpt>
      <trkpt lat="48.0766" lon="3.23992">
        <ele>186.2</ele>
        <time>2024-03-31T08:23:51Z</time>
      </trkpt>
      <trkpt lat="48.07663" lon="3.23986">
        <ele>186.1</ele>
        <time>2024-03-31T08:23:57Z</time>
      </trkpt>
      <trkpt lat="48.07666" lon="3.23983">
        <ele>186</ele>
        <time>2024-03-31T08:24:00Z</time>
      </trkpt>
      <trkpt lat="48.07669" lon="3.23976">
        <ele>185.9</ele>
        <time>2024-03-31T08:24:07Z</time>
      </trkpt>
      <trkpt lat="48.07673" lon="3.23969">
        <ele>185.7</ele>
        <time>2024-03-31T08:24:13Z</time>
      </trkpt>
      <trkpt lat="48.07679" lon="3.23962">
        <ele>185.2</ele>
        <time>2024-03-31T08:24:20Z</time>
      </trkpt>
      <trkpt lat="48.07684" lon="3.23957">
        <ele>184.8</ele>
        <time>2024-03-31T08:24:27Z</time>
      </trkpt>
      <trkpt lat="48.0769" lon="3.23949">
        <ele>184.3</ele>
        <time>2024-03-31T08:24:37Z</time>
      </trkpt>
      <trkpt lat="48.07697" lon="3.23941">
        <ele>183.9</ele>
        <time>2024-03-31T08:24:45Z</time>
      </trkpt>
      <trkpt lat="48.07702" lon="3.23933">
        <ele>183.7</ele>
        <time>2024-03-31T08:24:53Z</time>
      </trkpt>
      <trkpt lat="48.07704" lon="3.23931">
        <ele>183.7</ele>
        <time>2024-03-31T08:24:55Z</time>
      </trkpt>
      <trkpt lat="48.07708" lon="3.23928">
        <ele>183.5</ele>
        <time>2024-03-31T08:24:58Z</time>
      </trkpt>
      <trkpt lat="48.07715" lon="3.2392">
        <ele>183.3</ele>
        <time>2024-03-31T08:25:06Z</time>
      </trkpt>
      <trkpt lat="48.07721" lon="3.23911">
        <ele>182.8</ele>
        <time>2024-03-31T08:25:14Z</time>
      </trkpt>
      <trkpt lat="48.07728" lon="3.23899">
        <ele>182.1</ele>
        <time>2024-03-31T08:25:23Z</time>
      </trkpt>
      <trkpt lat="48.07733" lon="3.23894">
        <ele>181.7</ele>
        <time>2024-03-31T08:25:32Z</time>
      </trkpt>
      <trkpt lat="48.07736" lon="3.23897">
        <ele>181.7</ele>
        <time>2024-03-31T08:25:40Z</time>
      </trkpt>
      <trkpt lat="48.07664" lon="3.24006">
        <ele>186.1</ele>
        <time>2024-03-31T08:28:18Z</time>
      </trkpt>
      <trkpt lat="48.0766" lon="3.24017">
        <ele>186.2</ele>
        <time>2024-03-31T08:28:27Z</time>
      </trkpt>
      <trkpt lat="48.07663" lon="3.24019">
        <ele>186.1</ele>
        <time>2024-03-31T08:28:34Z</time>
      </trkpt>
      <trkpt lat="48.07666" lon="3.24019">
        <ele>186</ele>
        <time>2024-03-31T08:28:39Z</time>
      </trkpt>
      <trkpt lat="48.07674" lon="3.24018">
        <ele>185.7</ele>
        <time>2024-03-31T08:28:48Z</time>
      </trkpt>
      <trkpt lat="48.07679" lon="3.24018">
        <ele>185.6</ele>
        <time>2024-03-31T08:28:55Z</time>
      </trkpt>
      <trkpt lat="48.07685" lon="3.24014">
        <ele>185.3</ele>
        <time>2024-03-31T08:29:04Z</time>
      </trkpt>
      <trkpt lat="48.0769" lon="3.24014">
        <ele>185.2</ele>
        <time>2024-03-31T08:29:10Z</time>
      </trkpt>
      <trkpt lat="48.07696" lon="3.24014">
        <ele>185</ele>
        <time>2024-03-31T08:29:16Z</time>
      </trkpt>
      <trkpt lat="48.07701" lon="3.24013">
        <ele>184.9</ele>
        <time>2024-03-31T08:29:22Z</time>
      </trkpt>
      <trkpt lat="48.07708" lon="3.24011">
        <ele>184.7</ele>
        <time>2024-03-31T08:29:28Z</time>
      </trkpt>
      <trkpt lat="48.07713" lon="3.2401">
        <ele>184.6</ele>
        <time>2024-03-31T08:29:35Z</time>
      </trkpt>
      <trkpt lat="48.07721" lon="3.24008">
        <ele>184.3</ele>
        <time>2024-03-31T08:29:43Z</time>
      </trkpt>
      <trkpt lat="48.07728" lon="3.24006">
        <ele>184</ele>
        <time>2024-03-31T08:29:50Z</time>
      </trkpt>
      <trkpt lat="48.07736" lon="3.24004">
        <ele>183.6</ele>
        <time>2024-03-31T08:29:58Z</time>
      </trkpt>
      <trkpt lat="48.07744" lon="3.24003">
        <ele>183.3</ele>
        <time>2024-03-31T08:30:07Z</time>
      </trkpt>
      <trkpt lat="48.07749" lon="3.24005">
        <ele>183.2</ele>
        <time>2024-03-31T08:30:17Z</time>
      </trkpt>
      <trkpt lat="48.07754" lon="3.24012">
        <ele>183.3</ele>
        <time>2024-03-31T08:30:25Z</time>
      </trkpt>
      <trkpt lat="48.07761" lon="3.2402">
        <ele>183.3</ele>
        <time>2024-03-31T08:30:32Z</time>
      </trkpt>
      <trkpt lat="48.07769" lon="3.24029">
        <ele>183.3</ele>
        <time>2024-03-31T08:30:41Z</time>
      </trkpt>
      <trkpt lat="48.07773" lon="3.24035">
        <ele>183.2</ele>
        <time>2024-03-31T08:30:52Z</time>
      </trkpt>
      <trkpt lat="48.07777" lon="3.2404">
        <ele>183</ele>
        <time>2024-03-31T08:31:06Z</time>
      </trkpt>
      <trkpt lat="48.0778" lon="3.24037">
        <ele>182.9</ele>
        <time>2024-03-31T08:31:13Z</time>
      </trkpt>
      <trkpt lat="48.07779" lon="3.24033">
        <ele>183</ele>
        <time>2024-03-31T08:31:17Z</time>
      </trkpt>
      <trkpt lat="48.07776" lon="3.24029">
        <ele>183.1</ele>
        <time>2024-03-31T08:31:21Z</time>
      </trkpt>
      <trkpt lat="48.07751" lon="3.24002">
        <ele>183</ele>
        <time>2024-03-31T08:31:27Z</time>
      </trkpt>
      <trkpt lat="48.07784" lon="3.24">
        <ele>181.8</ele>
        <time>2024-03-31T08:31:54Z</time>
      </trkpt>
      <trkpt lat="48.07788" lon="3.24">
        <ele>181.6</ele>
        <time>2024-03-31T08:32:00Z</time>
      </trkpt>
      <trkpt lat="48.07789" lon="3.23999">
        <ele>181.6</ele>
        <time>2024-03-31T08:32:01Z</time>
      </trkpt>
      <trkpt lat="48.07798" lon="3.23993">
        <ele>181.3</ele>
        <time>2024-03-31T08:32:09Z</time>
      </trkpt>
      <trkpt lat="48.07806" lon="3.23989">
        <ele>181</ele>
        <time>2024-03-31T08:32:18Z</time>
      </trkpt>
      <trkpt lat="48.07814" lon="3.23987">
        <ele>180.7</ele>
        <time>2024-03-31T08:32:24Z</time>
      </trkpt>
      <trkpt lat="48.07819" lon="3.23986">
        <ele>180.5</ele>
        <time>2024-03-31T08:32:31Z</time>
      </trkpt>
      <trkpt lat="48.07824" lon="3.23985">
        <ele>180.3</ele>
        <time>2024-03-31T08:32:38Z</time>
      </trkpt>
      <trkpt lat="48.07832" lon="3.23983">
        <ele>180</ele>
        <time>2024-03-31T08:32:47Z</time>
      </trkpt>
      <trkpt lat="48.07843" lon="3.23981">
        <ele>179.7</ele>
        <time>2024-03-31T08:32:56Z</time>
      </trkpt>
      <trkpt lat="48.07851" lon="3.23978">
        <ele>179.4</ele>
        <time>2024-03-31T08:33:04Z</time>
      </trkpt>
      <trkpt lat="48.0786" lon="3.2398">
        <ele>179</ele>
        <time>2024-03-31T08:33:12Z</time>
      </trkpt>
      <trkpt lat="48.07865" lon="3.23979">
        <ele>178.9</ele>
        <time>2024-03-31T08:33:16Z</time>
      </trkpt>
      <trkpt lat="48.07876" lon="3.23974">
        <ele>178.5</ele>
        <time>2024-03-31T08:33:23Z</time>
      </trkpt>
      <trkpt lat="48.07886" lon="3.23972">
        <ele>178.1</ele>
        <time>2024-03-31T08:33:30Z</time>
      </trkpt>
      <trkpt lat="48.07894" lon="3.23969">
        <ele>177.9</ele>
        <time>2024-03-31T08:33:37Z</time>
      </trkpt>
      <trkpt lat="48.07902" lon="3.23966">
        <ele>177.8</ele>
        <time>2024-03-31T08:33:43Z</time>
      </trkpt>
      <trkpt lat="48.07909" lon="3.23965">
        <ele>177.7</ele>
        <time>2024-03-31T08:33:48Z</time>
      </trkpt>
      <trkpt lat="48.07921" lon="3.2396">
        <ele>177.6</ele>
        <time>2024-03-31T08:33:56Z</time>
      </trkpt>
      <trkpt lat="48.07928" lon="3.23959">
        <ele>177.5</ele>
        <time>2024-03-31T08:34:02Z</time>
      </trkpt>
      <trkpt lat="48.07943" lon="3.23955">
        <ele>177.4</ele>
        <time>2024-03-31T08:34:11Z</time>
      </trkpt>
      <trkpt lat="48.07951" lon="3.23952">
        <ele>177.4</ele>
        <time>2024-03-31T08:34:16Z</time>
      </trkpt>
      <trkpt lat="48.07963" lon="3.23949">
        <ele>177.7</ele>
        <time>2024-03-31T08:34:24Z</time>
      </trkpt>
      <trkpt lat="48.07969" lon="3.23947">
        <ele>177.9</ele>
        <time>2024-03-31T08:34:28Z</time>
      </trkpt>
      <trkpt lat="48.07986" lon="3.23941">
        <ele>177.9</ele>
        <time>2024-03-31T08:34:38Z</time>
      </trkpt>
      <trkpt lat="48.07987" lon="3.2394">
        <ele>177.8</ele>
        <time>2024-03-31T08:34:39Z</time>
      </trkpt>
      <trkpt lat="48.07997" lon="3.23935">
        <ele>177.7</ele>
        <time>2024-03-31T08:34:46Z</time>
      </trkpt>
      <trkpt lat="48.08005" lon="3.23933">
        <ele>177.7</ele>
        <time>2024-03-31T08:34:53Z</time>
      </trkpt>
      <trkpt lat="48.08011" lon="3.23933">
        <ele>177.8</ele>
        <time>2024-03-31T08:34:59Z</time>
      </trkpt>
      <trkpt lat="48.08021" lon="3.2393">
        <ele>177.9</ele>
        <time>2024-03-31T08:35:07Z</time>
      </trkpt>
      <trkpt lat="48.08029" lon="3.2393">
        <ele>178</ele>
        <time>2024-03-31T08:35:14Z</time>
      </trkpt>
      <trkpt lat="48.0804" lon="3.23933">
        <ele>178.3</ele>
        <time>2024-03-31T08:35:25Z</time>
      </trkpt>
      <trkpt lat="48.08096" lon="3.23895">
        <ele>179</ele>
        <time>2024-03-31T08:35:32Z</time>
      </trkpt>
      <trkpt lat="48.08044" lon="3.23952">
        <ele>178.7</ele>
        <time>2024-03-31T08:35:45Z</time>
      </trkpt>
      <trkpt lat="48.08044" lon="3.23958">
        <ele>178.8</ele>
        <time>2024-03-31T08:35:52Z</time>
      </trkpt>
      <trkpt lat="48.08044" lon="3.23965">
        <ele>178.9</ele>
        <time>2024-03-31T08:36:00Z</time>
      </trkpt>
      <trkpt lat="48.0804" lon="3.2397">
        <ele>179</ele>
        <time>2024-03-31T08:36:08Z</time>
      </trkpt>
      <trkpt lat="48.08035" lon="3.2398">
        <ele>179</ele>
        <time>2024-03-31T08:36:18Z</time>
      </trkpt>
      <trkpt lat="48.0803" lon="3.23985">
        <ele>179</ele>
        <time>2024-03-31T08:36:25Z</time>
      </trkpt>
      <trkpt lat="48.08021" lon="3.24">
        <ele>179</ele>
        <time>2024-03-31T08:36:36Z</time>
      </trkpt>
      <trkpt lat="48.08013" lon="3.24008">
        <ele>179</ele>
        <time>2024-03-31T08:36:44Z</time>
      </trkpt>
      <trkpt lat="48.08006" lon="3.24021">
        <ele>179</ele>
        <time>2024-03-31T08:36:53Z</time>
      </trkpt>
      <trkpt lat="48.08" lon="3.2403">
        <ele>179.1</ele>
        <time>2024-03-31T08:37:00Z</time>
      </trkpt>
      <trkpt lat="48.07992" lon="3.24042">
        <ele>179.4</ele>
        <time>2024-03-31T08:37:09Z</time>
      </trkpt>
      <trkpt lat="48.07988" lon="3.24051">
        <ele>179.5</ele>
        <time>2024-03-31T08:37:17Z</time>
      </trkpt>
      <trkpt lat="48.0798" lon="3.24065">
        <ele>179.3</ele>
        <time>2024-03-31T08:37:28Z</time>
      </trkpt>
      <trkpt lat="48.07977" lon="3.2408">
        <ele>179.2</ele>
        <time>2024-03-31T08:37:37Z</time>
      </trkpt>
      <trkpt lat="48.07972" lon="3.24087">
        <ele>179.1</ele>
        <time>2024-03-31T08:37:43Z</time>
      </trkpt>
      <trkpt lat="48.07969" lon="3.24089">
        <ele>179.3</ele>
        <time>2024-03-31T08:37:46Z</time>
      </trkpt>
      <trkpt lat="48.0796" lon="3.24098">
        <ele>179.7</ele>
        <time>2024-03-31T08:37:54Z</time>
      </trkpt>
      <trkpt lat="48.07953" lon="3.24109">
        <ele>180</ele>
        <time>2024-03-31T08:38:02Z</time>
      </trkpt>
      <trkpt lat="48.07947" lon="3.2412">
        <ele>180</ele>
        <time>2024-03-31T08:38:11Z</time>
      </trkpt>
      <trkpt lat="48.07953" lon="3.24124">
        <ele>180</ele>
        <time>2024-03-31T08:41:03Z</time>
      </trkpt>
      <trkpt lat="48.07955" lon="3.24123">
        <ele>180</ele>
        <time>2024-03-31T08:41:20Z</time>
      </trkpt>
      <trkpt lat="48.07956" lon="3.24123">
        <ele>180</ele>
        <time>2024-03-31T08:41:26Z</time>
      </trkpt>
      <trkpt lat="48.07959" lon="3.24108">
        <ele>179.9</ele>
        <time>2024-03-31T08:41:34Z</time>
      </trkpt>
      <trkpt lat="48.07963" lon="3.24097">
        <ele>179.7</ele>
        <time>2024-03-31T08:41:41Z</time>
      </trkpt>
      <trkpt lat="48.07969" lon="3.24086">
        <ele>179.2</ele>
        <time>2024-03-31T08:41:49Z</time>
      </trkpt>
      <trkpt lat="48.07971" lon="3.24078">
        <ele>179</ele>
        <time>2024-03-31T08:41:55Z</time>
      </trkpt>
      <trkpt lat="48.07974" lon="3.24072">
        <ele>179.1</ele>
        <time>2024-03-31T08:41:58Z</time>
      </trkpt>
      <trkpt lat="48.07975" lon="3.24065">
        <ele>179.1</ele>
        <time>2024-03-31T08:42:01Z</time>
      </trkpt>
      <trkpt lat="48.0798" lon="3.24057">
        <ele>179.3</ele>
        <time>2024-03-31T08:42:07Z</time>
      </trkpt>
      <trkpt lat="48.07983" lon="3.24053">
        <ele>179.4</ele>
        <time>2024-03-31T08:42:11Z</time>
      </trkpt>
      <trkpt lat="48.07988" lon="3.24044">
        <ele>179.3</ele>
        <time>2024-03-31T08:42:18Z</time>
      </trkpt>
      <trkpt lat="48.07994" lon="3.24032">
        <ele>179.1</ele>
        <time>2024-03-31T08:42:26Z</time>
      </trkpt>
      <trkpt lat="48.08" lon="3.24022">
        <ele>179</ele>
        <time>2024-03-31T08:42:33Z</time>
      </trkpt>
      <trkpt lat="48.08005" lon="3.24013">
        <ele>179</ele>
        <time>2024-03-31T08:42:39Z</time>
      </trkpt>
      <trkpt lat="48.08009" lon="3.24005">
        <ele>179</ele>
        <time>2024-03-31T08:42:45Z</time>
      </trkpt>
      <trkpt lat="48.08014" lon="3.23997">
        <ele>178.9</ele>
        <time>2024-03-31T08:42:52Z</time>
      </trkpt>
      <trkpt lat="48.08023" lon="3.23985">
        <ele>178.9</ele>
        <time>2024-03-31T08:43:00Z</time>
      </trkpt>
      <trkpt lat="48.08028" lon="3.23974">
        <ele>179</ele>
        <time>2024-03-31T08:43:07Z</time>
      </trkpt>
      <trkpt lat="48.08033" lon="3.23964">
        <ele>178.8</ele>
        <time>2024-03-31T08:43:13Z</time>
      </trkpt>
      <trkpt lat="48.08038" lon="3.23957">
        <ele>178.7</ele>
        <time>2024-03-31T08:43:19Z</time>
      </trkpt>
      <trkpt lat="48.0804" lon="3.23955">
        <ele>178.7</ele>
        <time>2024-03-31T08:43:21Z</time>
      </trkpt>
      <trkpt lat="48.08094" lon="3.23888">
        <ele>179</ele>
      </trkpt>
      <trkpt lat="48.08095" lon="3.23883">
        <ele>178.9</ele>
        <time>2024-03-31T09:38:52Z</time>
      </trkpt>
      <trkpt lat="48.08043" lon="3.23757">
        <ele>173.8</ele>
      </trkpt>
      <trkpt lat="48.08013" lon="3.2374">
        <ele>170.6</ele>
      </trkpt>
      <trkpt lat="48.07983" lon="3.23731">
        <ele>168.1</ele>
      </trkpt>
      <trkpt lat="48.07944" lon="3.23649">
        <ele>163.4</ele>
        <time>2024-03-31T09:38:59Z</time>
      </trkpt>
      <trkpt lat="48.0794" lon="3.2364">
        <ele>163</ele>
        <time>2024-03-31T09:39:06Z</time>
      </trkpt>
      <trkpt lat="48.07936" lon="3.23627">
        <ele>162.4</ele>
        <time>2024-03-31T09:39:13Z</time>
      </trkpt>
      <trkpt lat="48.07931" lon="3.23611">
        <ele>161.5</ele>
        <time>2024-03-31T09:39:18Z</time>
      </trkpt>
      <trkpt lat="48.07925" lon="3.23597">
        <ele>160.8</ele>
        <time>2024-03-31T09:39:26Z</time>
      </trkpt>
      <trkpt lat="48.07923" lon="3.23592">
        <ele>160.5</ele>
        <time>2024-03-31T09:39:29Z</time>
      </trkpt>
      <trkpt lat="48.07915" lon="3.23583">
        <ele>160.1</ele>
        <time>2024-03-31T09:39:38Z</time>
      </trkpt>
      <trkpt lat="48.07909" lon="3.23573">
        <ele>160.1</ele>
        <time>2024-03-31T09:39:46Z</time>
      </trkpt>
      <trkpt lat="48.07905" lon="3.23562">
        <ele>159.7</ele>
        <time>2024-03-31T09:39:54Z</time>
      </trkpt>
      <trkpt lat="48.07905" lon="3.23561">
        <ele>159.7</ele>
        <time>2024-03-31T09:39:55Z</time>
      </trkpt>
      <trkpt lat="48.079" lon="3.23548">
        <ele>159.2</ele>
        <time>2024-03-31T09:40:04Z</time>
      </trkpt>
      <trkpt lat="48.07896" lon="3.23537">
        <ele>158.6</ele>
        <time>2024-03-31T09:40:11Z</time>
      </trkpt>
      <trkpt lat="48.07892" lon="3.23527">
        <ele>158</ele>
        <time>2024-03-31T09:40:18Z</time>
      </trkpt>
      <trkpt lat="48.07887" lon="3.23518">
        <ele>157.8</ele>
        <time>2024-03-31T09:40:25Z</time>
      </trkpt>
      <trkpt lat="48.07882" lon="3.2351">
        <ele>157.7</ele>
        <time>2024-03-31T09:40:30Z</time>
      </trkpt>
      <trkpt lat="48.07878" lon="3.23501">
        <ele>157.4</ele>
        <time>2024-03-31T09:40:35Z</time>
      </trkpt>
      <trkpt lat="48.07873" lon="3.23485">
        <ele>156.4</ele>
        <time>2024-03-31T09:40:44Z</time>
      </trkpt>
      <trkpt lat="48.07869" lon="3.23472">
        <ele>155.3</ele>
        <time>2024-03-31T09:40:50Z</time>
      </trkpt>
      <trkpt lat="48.07865" lon="3.23455">
        <ele>154</ele>
        <time>2024-03-31T09:40:58Z</time>
      </trkpt>
      <trkpt lat="48.07862" lon="3.23449">
        <ele>153.4</ele>
        <time>2024-03-31T09:41:02Z</time>
      </trkpt>
      <trkpt lat="48.07855" lon="3.23436">
        <ele>152.8</ele>
        <time>2024-03-31T09:41:11Z</time>
      </trkpt>
      <trkpt lat="48.07849" lon="3.23427">
        <ele>152.3</ele>
        <time>2024-03-31T09:41:18Z</time>
      </trkpt>
      <trkpt lat="48.07848" lon="3.23426">
        <ele>152.2</ele>
        <time>2024-03-31T09:41:19Z</time>
      </trkpt>
      <trkpt lat="48.07845" lon="3.23417">
        <ele>151.4</ele>
        <time>2024-03-31T09:41:25Z</time>
      </trkpt>
      <trkpt lat="48.07841" lon="3.23406">
        <ele>150.6</ele>
        <time>2024-03-31T09:41:32Z</time>
      </trkpt>
      <trkpt lat="48.0784" lon="3.23403">
        <ele>150.4</ele>
        <time>2024-03-31T09:41:35Z</time>
      </trkpt>
      <trkpt lat="48.07838" lon="3.23401">
        <ele>150.1</ele>
        <time>2024-03-31T09:41:38Z</time>
      </trkpt>
      <trkpt lat="48.07828" lon="3.23396">
        <ele>149.5</ele>
        <time>2024-03-31T09:41:47Z</time>
      </trkpt>
      <trkpt lat="48.07828" lon="3.2338">
        <ele>148.7</ele>
        <time>2024-03-31T09:41:55Z</time>
      </trkpt>
      <trkpt lat="48.07828" lon="3.23376">
        <ele>148.6</ele>
        <time>2024-03-31T09:42:08Z</time>
      </trkpt>
      <trkpt lat="48.07825" lon="3.23356">
        <ele>148.2</ele>
        <time>2024-03-31T09:42:15Z</time>
      </trkpt>
      <trkpt lat="48.07826" lon="3.23348">
        <ele>147.9</ele>
        <time>2024-03-31T09:42:24Z</time>
      </trkpt>
      <trkpt lat="48.07826" lon="3.2335">
        <ele>148</ele>
        <time>2024-03-31T09:42:40Z</time>
      </trkpt>
      <trkpt lat="48.07832" lon="3.23348">
        <ele>147.6</ele>
        <time>2024-03-31T09:43:03Z</time>
      </trkpt>
      <trkpt lat="48.07827" lon="3.23347">
        <ele>147.8</ele>
        <time>2024-03-31T09:43:16Z</time>
      </trkpt>
      <trkpt lat="48.07823" lon="3.23347">
        <ele>148.1</ele>
        <time>2024-03-31T09:43:33Z</time>
      </trkpt>
      <trkpt lat="48.07824" lon="3.23341">
        <ele>147.9</ele>
        <time>2024-03-31T09:43:39Z</time>
      </trkpt>
      <trkpt lat="48.07822" lon="3.23336">
        <ele>147.9</ele>
        <time>2024-03-31T09:43:46Z</time>
      </trkpt>
      <trkpt lat="48.07824" lon="3.23332">
        <ele>147.6</ele>
        <time>2024-03-31T09:43:52Z</time>
      </trkpt>
      <trkpt lat="48.07827" lon="3.23329">
        <ele>147.3</ele>
        <time>2024-03-31T09:44:02Z</time>
      </trkpt>
      <trkpt lat="48.07828" lon="3.23322">
        <ele>147</ele>
        <time>2024-03-31T09:44:12Z</time>
      </trkpt>
      <trkpt lat="48.0783" lon="3.23313">
        <ele>146.5</ele>
        <time>2024-03-31T09:44:20Z</time>
      </trkpt>
      <trkpt lat="48.07831" lon="3.23306">
        <ele>146.2</ele>
        <time>2024-03-31T09:44:25Z</time>
      </trkpt>
      <trkpt lat="48.07834" lon="3.23294">
        <ele>145.6</ele>
        <time>2024-03-31T09:44:32Z</time>
      </trkpt>
      <trkpt lat="48.07837" lon="3.23283">
        <ele>145.3</ele>
        <time>2024-03-31T09:44:39Z</time>
      </trkpt>
      <trkpt lat="48.07839" lon="3.23279">
        <ele>145.3</ele>
        <time>2024-03-31T09:44:43Z</time>
      </trkpt>
      <trkpt lat="48.07842" lon="3.23263">
        <ele>144.6</ele>
        <time>2024-03-31T09:44:51Z</time>
      </trkpt>
      <trkpt lat="48.07846" lon="3.23251">
        <ele>144.1</ele>
        <time>2024-03-31T09:44:58Z</time>
      </trkpt>
      <trkpt lat="48.0785" lon="3.2324">
        <ele>143.8</ele>
        <time>2024-03-31T09:45:06Z</time>
      </trkpt>
      <trkpt lat="48.07856" lon="3.23229">
        <ele>143.4</ele>
        <time>2024-03-31T09:45:13Z</time>
      </trkpt>
      <trkpt lat="48.07856" lon="3.23206">
        <ele>142.7</ele>
        <time>2024-03-31T09:45:22Z</time>
      </trkpt>
      <trkpt lat="48.07857" lon="3.23194">
        <ele>142.3</ele>
        <time>2024-03-31T09:45:28Z</time>
      </trkpt>
      <trkpt lat="48.07858" lon="3.23181">
        <ele>141.7</ele>
        <time>2024-03-31T09:45:35Z</time>
      </trkpt>
      <trkpt lat="48.07861" lon="3.23175">
        <ele>141.3</ele>
        <time>2024-03-31T09:45:41Z</time>
      </trkpt>
      <trkpt lat="48.07862" lon="3.2317">
        <ele>141.2</ele>
        <time>2024-03-31T09:45:45Z</time>
      </trkpt>
      <trkpt lat="48.07862" lon="3.23162">
        <ele>141</ele>
        <time>2024-03-31T09:45:49Z</time>
      </trkpt>
      <trkpt lat="48.07864" lon="3.23149">
        <ele>141</ele>
        <time>2024-03-31T09:45:56Z</time>
      </trkpt>
      <trkpt lat="48.07867" lon="3.23131">
        <ele>140.5</ele>
        <time>2024-03-31T09:46:03Z</time>
      </trkpt>
      <trkpt lat="48.07867" lon="3.23112">
        <ele>139.8</ele>
        <time>2024-03-31T09:46:10Z</time>
      </trkpt>
      <trkpt lat="48.07868" lon="3.23102">
        <ele>139.4</ele>
        <time>2024-03-31T09:46:18Z</time>
      </trkpt>
      <trkpt lat="48.07872" lon="3.23086">
        <ele>138.7</ele>
        <time>2024-03-31T09:46:27Z</time>
      </trkpt>
      <trkpt lat="48.07877" lon="3.23095">
        <ele>138.8</ele>
        <time>2024-03-31T09:46:34Z</time>
      </trkpt>
      <trkpt lat="48.07885" lon="3.23095">
        <ele>138.6</ele>
        <time>2024-03-31T09:46:40Z</time>
      </trkpt>
      <trkpt lat="48.0789" lon="3.2309">
        <ele>138.3</ele>
        <time>2024-03-31T09:46:47Z</time>
      </trkpt>
      <trkpt lat="48.07898" lon="3.2309">
        <ele>139</ele>
        <time>2024-03-31T09:47:24Z</time>
      </trkpt>
      <trkpt lat="48.07893" lon="3.23095">
        <ele>138.8</ele>
        <time>2024-03-31T09:47:50Z</time>
      </trkpt>
      <trkpt lat="48.07882" lon="3.23092">
        <ele>138.6</ele>
        <time>2024-03-31T09:47:59Z</time>
      </trkpt>
      <trkpt lat="48.07878" lon="3.23087">
        <ele>138.5</ele>
        <time>2024-03-31T09:48:05Z</time>
      </trkpt>
      <trkpt lat="48.07873" lon="3.23079">
        <ele>138.4</ele>
        <time>2024-03-31T09:48:11Z</time>
      </trkpt>
      <trkpt lat="48.07872" lon="3.23073">
        <ele>138.2</ele>
        <time>2024-03-31T09:48:14Z</time>
      </trkpt>
      <trkpt lat="48.07864" lon="3.23055">
        <ele>137.9</ele>
        <time>2024-03-31T09:48:23Z</time>
      </trkpt>
      <trkpt lat="48.07863" lon="3.23054">
        <ele>137.9</ele>
        <time>2024-03-31T09:48:25Z</time>
      </trkpt>
      <trkpt lat="48.07857" lon="3.23028">
        <ele>138.4</ele>
        <time>2024-03-31T09:48:35Z</time>
      </trkpt>
      <trkpt lat="48.07856" lon="3.23025">
        <ele>138.5</ele>
        <time>2024-03-31T09:48:37Z</time>
      </trkpt>
      <trkpt lat="48.07853" lon="3.23009">
        <ele>138.2</ele>
        <time>2024-03-31T09:48:44Z</time>
      </trkpt>
      <trkpt lat="48.07853" lon="3.23007">
        <ele>138.1</ele>
        <time>2024-03-31T09:48:45Z</time>
      </trkpt>
      <trkpt lat="48.07852" lon="3.23">
        <ele>138</ele>
        <time>2024-03-31T09:48:48Z</time>
      </trkpt>
      <trkpt lat="48.07845" lon="3.2298">
        <ele>137.3</ele>
        <time>2024-03-31T09:48:58Z</time>
      </trkpt>
      <trkpt lat="48.07841" lon="3.22966">
        <ele>136.8</ele>
        <time>2024-03-31T09:49:04Z</time>
      </trkpt>
      <trkpt lat="48.07838" lon="3.22956">
        <ele>136.4</ele>
        <time>2024-03-31T09:49:08Z</time>
      </trkpt>
      <trkpt lat="48.07828" lon="3.22935">
        <ele>135.6</ele>
        <time>2024-03-31T09:49:18Z</time>
      </trkpt>
      <trkpt lat="48.07825" lon="3.22925">
        <ele>135</ele>
        <time>2024-03-31T09:49:23Z</time>
      </trkpt>
      <trkpt lat="48.07823" lon="3.2291">
        <ele>133.8</ele>
        <time>2024-03-31T09:49:32Z</time>
      </trkpt>
      <trkpt lat="48.07818" lon="3.22898">
        <ele>132.8</ele>
        <time>2024-03-31T09:49:40Z</time>
      </trkpt>
      <trkpt lat="48.07813" lon="3.22892">
        <ele>132.3</ele>
        <time>2024-03-31T09:49:47Z</time>
      </trkpt>
      <trkpt lat="48.07805" lon="3.22885">
        <ele>131.9</ele>
        <time>2024-03-31T09:49:56Z</time>
      </trkpt>
      <trkpt lat="48.07804" lon="3.22885">
        <ele>132</ele>
        <time>2024-03-31T09:49:58Z</time>
      </trkpt>
      <trkpt lat="48.07797" lon="3.22887">
        <ele>132.9</ele>
        <time>2024-03-31T09:50:06Z</time>
      </trkpt>
      <trkpt lat="48.07794" lon="3.22891">
        <ele>133.4</ele>
        <time>2024-03-31T09:50:12Z</time>
      </trkpt>
      <trkpt lat="48.07786" lon="3.22897">
        <ele>134.8</ele>
        <time>2024-03-31T09:50:21Z</time>
      </trkpt>
      <trkpt lat="48.0778" lon="3.229">
        <ele>135.6</ele>
        <time>2024-03-31T09:50:27Z</time>
      </trkpt>
      <trkpt lat="48.07771" lon="3.22906">
        <ele>136.8</ele>
        <time>2024-03-31T09:50:34Z</time>
      </trkpt>
      <trkpt lat="48.07761" lon="3.22908">
        <ele>137.8</ele>
        <time>2024-03-31T09:50:43Z</time>
      </trkpt>
      <trkpt lat="48.07755" lon="3.22912">
        <ele>138.4</ele>
        <time>2024-03-31T09:50:55Z</time>
      </trkpt>
      <trkpt lat="48.07751" lon="3.22917">
        <ele>139</ele>
        <time>2024-03-31T09:51:14Z</time>
      </trkpt>
      <trkpt lat="48.07753" lon="3.22909">
        <ele>138.5</ele>
        <time>2024-03-31T09:51:28Z</time>
      </trkpt>
      <trkpt lat="48.07752" lon="3.22905">
        <ele>138.4</ele>
        <time>2024-03-31T09:51:41Z</time>
      </trkpt>
      <trkpt lat="48.07751" lon="3.22901">
        <ele>138.3</ele>
        <time>2024-03-31T09:52:08Z</time>
      </trkpt>
      <trkpt lat="48.07751" lon="3.22905">
        <ele>138.5</ele>
        <time>2024-03-31T09:52:23Z</time>
      </trkpt>
      <trkpt lat="48.07742" lon="3.22899">
        <ele>139.4</ele>
        <time>2024-03-31T09:52:51Z</time>
      </trkpt>
      <trkpt lat="48.07735" lon="3.2289">
        <ele>140.2</ele>
        <time>2024-03-31T09:53:00Z</time>
      </trkpt>
      <trkpt lat="48.07732" lon="3.2289">
        <ele>140.6</ele>
        <time>2024-03-31T09:53:07Z</time>
      </trkpt>
      <trkpt lat="48.07726" lon="3.22883">
        <ele>141.7</ele>
        <time>2024-03-31T09:53:15Z</time>
      </trkpt>
      <trkpt lat="48.07722" lon="3.2288">
        <ele>142.4</ele>
        <time>2024-03-31T09:53:24Z</time>
      </trkpt>
      <trkpt lat="48.07718" lon="3.22873">
        <ele>143.3</ele>
        <time>2024-03-31T09:53:31Z</time>
      </trkpt>
      <trkpt lat="48.07712" lon="3.22869">
        <ele>144.5</ele>
        <time>2024-03-31T09:53:38Z</time>
      </trkpt>
      <trkpt lat="48.07707" lon="3.22863">
        <ele>145.6</ele>
        <time>2024-03-31T09:53:46Z</time>
      </trkpt>
      <trkpt lat="48.07701" lon="3.22856">
        <ele>147</ele>
        <time>2024-03-31T09:53:55Z</time>
      </trkpt>
      <trkpt lat="48.07693" lon="3.22851">
        <ele>148.5</ele>
        <time>2024-03-31T09:54:05Z</time>
      </trkpt>
      <trkpt lat="48.0768" lon="3.22844">
        <ele>150.2</ele>
        <time>2024-03-31T09:54:15Z</time>
      </trkpt>
      <trkpt lat="48.07669" lon="3.22835">
        <ele>151.7</ele>
        <time>2024-03-31T09:54:23Z</time>
      </trkpt>
      <trkpt lat="48.07662" lon="3.2283">
        <ele>152.8</ele>
        <time>2024-03-31T09:54:31Z</time>
      </trkpt>
      <trkpt lat="48.0766" lon="3.22834">
        <ele>152.9</ele>
        <time>2024-03-31T09:54:35Z</time>
      </trkpt>
      <trkpt lat="48.07651" lon="3.22839">
        <ele>154.2</ele>
        <time>2024-03-31T09:54:44Z</time>
      </trkpt>
      <trkpt lat="48.07645" lon="3.22844">
        <ele>155</ele>
        <time>2024-03-31T09:54:50Z</time>
      </trkpt>
      <trkpt lat="48.07638" lon="3.22847">
        <ele>156.1</ele>
        <time>2024-03-31T09:54:56Z</time>
      </trkpt>
      <trkpt lat="48.0763" lon="3.22854">
        <ele>157</ele>
        <time>2024-03-31T09:55:04Z</time>
      </trkpt>
      <trkpt lat="48.07624" lon="3.22854">
        <ele>157.6</ele>
        <time>2024-03-31T09:55:12Z</time>
      </trkpt>
      <trkpt lat="48.07623" lon="3.22855">
        <ele>157.7</ele>
        <time>2024-03-31T09:55:14Z</time>
      </trkpt>
      <trkpt lat="48.07615" lon="3.22859">
        <ele>158.6</ele>
        <time>2024-03-31T09:55:22Z</time>
      </trkpt>
      <trkpt lat="48.0761" lon="3.22866">
        <ele>159.3</ele>
        <time>2024-03-31T09:55:31Z</time>
      </trkpt>
      <trkpt lat="48.07607" lon="3.22867">
        <ele>159.5</ele>
        <time>2024-03-31T09:55:35Z</time>
      </trkpt>
      <trkpt lat="48.07599" lon="3.22865">
        <ele>160</ele>
        <time>2024-03-31T09:55:43Z</time>
      </trkpt>
      <trkpt lat="48.07594" lon="3.22861">
        <ele>160.2</ele>
        <time>2024-03-31T09:55:48Z</time>
      </trkpt>
      <trkpt lat="48.07585" lon="3.22858">
        <ele>160.9</ele>
        <time>2024-03-31T09:55:56Z</time>
      </trkpt>
      <trkpt lat="48.07574" lon="3.22855">
        <ele>161.5</ele>
        <time>2024-03-31T09:56:03Z</time>
      </trkpt>
      <trkpt lat="48.07572" lon="3.22872">
        <ele>162.2</ele>
        <time>2024-03-31T09:56:27Z</time>
      </trkpt>
      <trkpt lat="48.07569" lon="3.2288">
        <ele>162.7</ele>
        <time>2024-03-31T09:56:37Z</time>
      </trkpt>
      <trkpt lat="48.07567" lon="3.22885">
        <ele>163</ele>
        <time>2024-03-31T09:56:45Z</time>
      </trkpt>
      <trkpt lat="48.07563" lon="3.2289">
        <ele>163.5</ele>
        <time>2024-03-31T09:56:52Z</time>
      </trkpt>
      <trkpt lat="48.07564" lon="3.22893">
        <ele>163.5</ele>
        <time>2024-03-31T09:57:05Z</time>
      </trkpt>
      <trkpt lat="48.07567" lon="3.22891">
        <ele>163.3</ele>
        <time>2024-03-31T09:57:16Z</time>
      </trkpt>
      <trkpt lat="48.07569" lon="3.22886">
        <ele>162.9</ele>
        <time>2024-03-31T09:57:26Z</time>
      </trkpt>
      <trkpt lat="48.07572" lon="3.22881">
        <ele>162.5</ele>
        <time>2024-03-31T09:57:34Z</time>
      </trkpt>
      <trkpt lat="48.07574" lon="3.22878">
        <ele>162.3</ele>
        <time>2024-03-31T09:57:38Z</time>
      </trkpt>
      <trkpt lat="48.07577" lon="3.22859">
        <ele>161.4</ele>
        <time>2024-03-31T09:57:46Z</time>
      </trkpt>
      <trkpt lat="48.07576" lon="3.22849">
        <ele>161.3</ele>
        <time>2024-03-31T09:57:59Z</time>
      </trkpt>
      <trkpt lat="48.07565" lon="3.22844">
        <ele>161.5</ele>
        <time>2024-03-31T09:58:06Z</time>
      </trkpt>
      <trkpt lat="48.07554" lon="3.2284">
        <ele>161.5</ele>
        <time>2024-03-31T09:58:14Z</time>
      </trkpt>
      <trkpt lat="48.07544" lon="3.22835">
        <ele>161.1</ele>
        <time>2024-03-31T09:58:22Z</time>
      </trkpt>
      <trkpt lat="48.07532" lon="3.22825">
        <ele>160.4</ele>
        <time>2024-03-31T09:58:31Z</time>
      </trkpt>
      <trkpt lat="48.07522" lon="3.2282">
        <ele>160</ele>
        <time>2024-03-31T09:58:39Z</time>
      </trkpt>
      <trkpt lat="48.07521" lon="3.2282">
        <ele>160</ele>
        <time>2024-03-31T09:58:40Z</time>
      </trkpt>
      <trkpt lat="48.07511" lon="3.22813">
        <ele>159.5</ele>
        <time>2024-03-31T09:58:48Z</time>
      </trkpt>
      <trkpt lat="48.07508" lon="3.2281">
        <ele>159.3</ele>
        <time>2024-03-31T09:58:51Z</time>
      </trkpt>
      <trkpt lat="48.07501" lon="3.22818">
        <ele>159.9</ele>
        <time>2024-03-31T10:23:37Z</time>
      </trkpt>
      <trkpt lat="48.075" lon="3.22833">
        <ele>161</ele>
        <time>2024-03-31T10:23:45Z</time>
      </trkpt>
      <trkpt lat="48.07496" lon="3.22847">
        <ele>162.4</ele>
        <time>2024-03-31T10:23:52Z</time>
      </trkpt>
      <trkpt lat="48.07492" lon="3.22857">
        <ele>163.3</ele>
        <time>2024-03-31T10:23:58Z</time>
      </trkpt>
      <trkpt lat="48.07486" lon="3.22871">
        <ele>163.7</ele>
        <time>2024-03-31T10:24:06Z</time>
      </trkpt>
      <trkpt lat="48.07483" lon="3.22882">
        <ele>163.8</ele>
        <time>2024-03-31T10:24:13Z</time>
      </trkpt>
      <trkpt lat="48.07482" lon="3.22884">
        <ele>163.9</ele>
        <time>2024-03-31T10:24:14Z</time>
      </trkpt>
      <trkpt lat="48.07476" lon="3.229">
        <ele>164.8</ele>
        <time>2024-03-31T10:24:22Z</time>
      </trkpt>
      <trkpt lat="48.07476" lon="3.22902">
        <ele>164.9</ele>
        <time>2024-03-31T10:24:23Z</time>
      </trkpt>
      <trkpt lat="48.07475" lon="3.22905">
        <ele>165.2</ele>
        <time>2024-03-31T10:24:25Z</time>
      </trkpt>
      <trkpt lat="48.07474" lon="3.22918">
        <ele>166</ele>
        <time>2024-03-31T10:24:34Z</time>
      </trkpt>
      <trkpt lat="48.07472" lon="3.22926">
        <ele>166.3</ele>
        <time>2024-03-31T10:24:39Z</time>
      </trkpt>
      <trkpt lat="48.07472" lon="3.22929">
        <ele>166.4</ele>
        <time>2024-03-31T10:24:41Z</time>
      </trkpt>
      <trkpt lat="48.07465" lon="3.22942">
        <ele>166.9</ele>
        <time>2024-03-31T10:24:50Z</time>
      </trkpt>
      <trkpt lat="48.07464" lon="3.22959">
        <ele>167.5</ele>
        <time>2024-03-31T10:24:58Z</time>
      </trkpt>
      <trkpt lat="48.07461" lon="3.22965">
        <ele>167.7</ele>
        <time>2024-03-31T10:25:03Z</time>
      </trkpt>
      <trkpt lat="48.07452" lon="3.22982">
        <ele>168.6</ele>
        <time>2024-03-31T10:25:12Z</time>
      </trkpt>
      <trkpt lat="48.07447" lon="3.23003">
        <ele>169.9</ele>
        <time>2024-03-31T10:25:20Z</time>
      </trkpt>
      <trkpt lat="48.07445" lon="3.23018">
        <ele>170</ele>
        <time>2024-03-31T10:25:27Z</time>
      </trkpt>
      <trkpt lat="48.07447" lon="3.23029">
        <ele>170</ele>
        <time>2024-03-31T10:25:34Z</time>
      </trkpt>
      <trkpt lat="48.07448" lon="3.23037">
        <ele>170.2</ele>
        <time>2024-03-31T10:25:45Z</time>
      </trkpt>
      <trkpt lat="48.07446" lon="3.23041">
        <ele>170.4</ele>
        <time>2024-03-31T10:25:52Z</time>
      </trkpt>
      <trkpt lat="48.07443" lon="3.23045">
        <ele>170.7</ele>
        <time>2024-03-31T10:25:55Z</time>
      </trkpt>
      <trkpt lat="48.07443" lon="3.23052">
        <ele>170.9</ele>
        <time>2024-03-31T10:25:59Z</time>
      </trkpt>
      <trkpt lat="48.07439" lon="3.23065">
        <ele>171.3</ele>
        <time>2024-03-31T10:26:05Z</time>
      </trkpt>
      <trkpt lat="48.07434" lon="3.2308">
        <ele>171.7</ele>
        <time>2024-03-31T10:26:13Z</time>
      </trkpt>
      <trkpt lat="48.07431" lon="3.23092">
        <ele>172.4</ele>
        <time>2024-03-31T10:26:21Z</time>
      </trkpt>
      <trkpt lat="48.07429" lon="3.23098">
        <ele>172.9</ele>
        <time>2024-03-31T10:26:25Z</time>
      </trkpt>
      <trkpt lat="48.07428" lon="3.23116">
        <ele>173.8</ele>
        <time>2024-03-31T10:26:33Z</time>
      </trkpt>
      <trkpt lat="48.07425" lon="3.2313">
        <ele>174.4</ele>
        <time>2024-03-31T10:26:41Z</time>
      </trkpt>
      <trkpt lat="48.07423" lon="3.23149">
        <ele>175.1</ele>
        <time>2024-03-31T10:26:50Z</time>
      </trkpt>
      <trkpt lat="48.07423" lon="3.23155">
        <ele>175.4</ele>
        <time>2024-03-31T10:26:53Z</time>
      </trkpt>
      <trkpt lat="48.07423" lon="3.23159">
        <ele>175.5</ele>
        <time>2024-03-31T10:26:55Z</time>
      </trkpt>
      <trkpt lat="48.07418" lon="3.23173">
        <ele>176.2</ele>
        <time>2024-03-31T10:27:03Z</time>
      </trkpt>
      <trkpt lat="48.07415" lon="3.23186">
        <ele>176.8</ele>
        <time>2024-03-31T10:27:10Z</time>
      </trkpt>
      <trkpt lat="48.07413" lon="3.23196">
        <ele>177.2</ele>
        <time>2024-03-31T10:27:15Z</time>
      </trkpt>
      <trkpt lat="48.0741" lon="3.23209">
        <ele>177.8</ele>
        <time>2024-03-31T10:27:23Z</time>
      </trkpt>
      <trkpt lat="48.07406" lon="3.23219">
        <ele>178.3</ele>
        <time>2024-03-31T10:27:30Z</time>
      </trkpt>
      <trkpt lat="48.07405" lon="3.23221">
        <ele>178.4</ele>
        <time>2024-03-31T10:27:31Z</time>
      </trkpt>
      <trkpt lat="48.07401" lon="3.23234">
        <ele>178.8</ele>
        <time>2024-03-31T10:27:39Z</time>
      </trkpt>
      <trkpt lat="48.07398" lon="3.23236">
        <ele>179</ele>
        <time>2024-03-31T10:27:46Z</time>
      </trkpt>
      <trkpt lat="48.07395" lon="3.23242">
        <ele>179.3</ele>
        <time>2024-03-31T10:27:58Z</time>
      </trkpt>
      <trkpt lat="48.07395" lon="3.23244">
        <ele>179.4</ele>
        <time>2024-03-31T10:27:59Z</time>
      </trkpt>
      <trkpt lat="48.07395" lon="3.2325">
        <ele>179.6</ele>
        <time>2024-03-31T10:29:19Z</time>
      </trkpt>
      <trkpt lat="48.07396" lon="3.23276">
        <ele>180.4</ele>
        <time>2024-03-31T10:29:48Z</time>
      </trkpt>
      <trkpt lat="48.07393" lon="3.23285">
        <ele>181</ele>
        <time>2024-03-31T10:29:53Z</time>
      </trkpt>
      <trkpt lat="48.07389" lon="3.2329">
        <ele>181.4</ele>
        <time>2024-03-31T10:29:57Z</time>
      </trkpt>
      <trkpt lat="48.0738" lon="3.23301">
        <ele>182.5</ele>
        <time>2024-03-31T10:30:06Z</time>
      </trkpt>
      <trkpt lat="48.07377" lon="3.23312">
        <ele>183.1</ele>
        <time>2024-03-31T10:30:12Z</time>
      </trkpt>
      <trkpt lat="48.07373" lon="3.23324">
        <ele>183.8</ele>
        <time>2024-03-31T10:30:18Z</time>
      </trkpt>
      <trkpt lat="48.07363" lon="3.2334">
        <ele>185.1</ele>
        <time>2024-03-31T10:30:28Z</time>
      </trkpt>
      <trkpt lat="48.07359" lon="3.23346">
        <ele>185.6</ele>
        <time>2024-03-31T10:30:35Z</time>
      </trkpt>
      <trkpt lat="48.07359" lon="3.23361">
        <ele>186.1</ele>
        <time>2024-03-31T10:30:44Z</time>
      </trkpt>
      <trkpt lat="48.0736" lon="3.23364">
        <ele>186.3</ele>
        <time>2024-03-31T10:30:45Z</time>
      </trkpt>
      <trkpt lat="48.07358" lon="3.2337">
        <ele>186.8</ele>
        <time>2024-03-31T10:30:48Z</time>
      </trkpt>
      <trkpt lat="48.07356" lon="3.23376">
        <ele>187.3</ele>
        <time>2024-03-31T10:30:51Z</time>
      </trkpt>
      <trkpt lat="48.0735" lon="3.23392">
        <ele>188.4</ele>
        <time>2024-03-31T10:31:00Z</time>
      </trkpt>
      <trkpt lat="48.07348" lon="3.23409">
        <ele>188.8</ele>
        <time>2024-03-31T10:31:08Z</time>
      </trkpt>
      <trkpt lat="48.07348" lon="3.23425">
        <ele>189.1</ele>
        <time>2024-03-31T10:31:16Z</time>
      </trkpt>
      <trkpt lat="48.07345" lon="3.23439">
        <ele>189.5</ele>
        <time>2024-03-31T10:31:24Z</time>
      </trkpt>
      <trkpt lat="48.07345" lon="3.23446">
        <ele>189.6</ele>
        <time>2024-03-31T10:31:28Z</time>
      </trkpt>
      <trkpt lat="48.07344" lon="3.23449">
        <ele>189.7</ele>
        <time>2024-03-31T10:31:30Z</time>
      </trkpt>
      <trkpt lat="48.07343" lon="3.23452">
        <ele>189.8</ele>
        <time>2024-03-31T10:31:32Z</time>
      </trkpt>
      <trkpt lat="48.07341" lon="3.23473">
        <ele>190.5</ele>
        <time>2024-03-31T10:31:40Z</time>
      </trkpt>
      <trkpt lat="48.0734" lon="3.23481">
        <ele>190.6</ele>
        <time>2024-03-31T10:31:43Z</time>
      </trkpt>
      <trkpt lat="48.07341" lon="3.23497">
        <ele>190.7</ele>
        <time>2024-03-31T10:31:50Z</time>
      </trkpt>
      <trkpt lat="48.07338" lon="3.23506">
        <ele>190.8</ele>
        <time>2024-03-31T10:31:55Z</time>
      </trkpt>
      <trkpt lat="48.07333" lon="3.2352">
        <ele>191</ele>
        <time>2024-03-31T10:32:04Z</time>
      </trkpt>
      <trkpt lat="48.07332" lon="3.23524">
        <ele>191</ele>
        <time>2024-03-31T10:32:06Z</time>
      </trkpt>
      <trkpt lat="48.07323" lon="3.23537">
        <ele>191.4</ele>
        <time>2024-03-31T10:32:15Z</time>
      </trkpt>
      <trkpt lat="48.07319" lon="3.23556">
        <ele>191.5</ele>
        <time>2024-03-31T10:32:24Z</time>
      </trkpt>
      <trkpt lat="48.0732" lon="3.2357">
        <ele>191.5</ele>
        <time>2024-03-31T10:32:30Z</time>
      </trkpt>
      <trkpt lat="48.07328" lon="3.23584">
        <ele>191.2</ele>
        <time>2024-03-31T10:32:37Z</time>
      </trkpt>
      <trkpt lat="48.07335" lon="3.23594">
        <ele>191.4</ele>
        <time>2024-03-31T10:32:46Z</time>
      </trkpt>
      <trkpt lat="48.07337" lon="3.23598">
        <ele>191.5</ele>
        <time>2024-03-31T10:32:54Z</time>
      </trkpt>
      <trkpt lat="48.07341" lon="3.23593">
        <ele>191.3</ele>
        <time>2024-03-31T10:33:01Z</time>
      </trkpt>
      <trkpt lat="48.07341" lon="3.23593">
        <ele>191.3</ele>
        <time>2024-03-31T10:33:10Z</time>
      </trkpt>
      <trkpt lat="48.07336" lon="3.23592">
        <ele>191.3</ele>
        <time>2024-03-31T10:33:20Z</time>
      </trkpt>
      <trkpt lat="48.07341" lon="3.23593">
        <ele>191.3</ele>
        <time>2024-03-31T10:33:33Z</time>
      </trkpt>
      <trkpt lat="48.07342" lon="3.23593">
        <ele>191.2</ele>
        <time>2024-03-31T10:33:45Z</time>
      </trkpt>
      <trkpt lat="48.07336" lon="3.23598">
        <ele>191.5</ele>
      </trkpt>
      <trkpt lat="48.0733" lon="3.23592">
        <ele>191.4</ele>
        <time>2024-03-31T10:34:10Z</time>
      </trkpt>
      <trkpt lat="48.07315" lon="3.23608">
        <ele>192</ele>
        <time>2024-03-31T10:34:18Z</time>
      </trkpt>
      <trkpt lat="48.0731" lon="3.23613">
        <ele>191.9</ele>
        <time>2024-03-31T10:34:24Z</time>
      </trkpt>
      <trkpt lat="48.07302" lon="3.23632">
        <ele>191.2</ele>
        <time>2024-03-31T10:34:33Z</time>
      </trkpt>
      <trkpt lat="48.07291" lon="3.23648">
        <ele>190.8</ele>
        <time>2024-03-31T10:34:43Z</time>
      </trkpt>
      <trkpt lat="48.07285" lon="3.23655">
        <ele>190.6</ele>
        <time>2024-03-31T10:34:49Z</time>
      </trkpt>
      <trkpt lat="48.07278" lon="3.23671">
        <ele>189.9</ele>
        <time>2024-03-31T10:34:58Z</time>
      </trkpt>
      <trkpt lat="48.07276" lon="3.23673">
        <ele>189.6</ele>
        <time>2024-03-31T10:35:00Z</time>
      </trkpt>
      <trkpt lat="48.07274" lon="3.23677">
        <ele>189.4</ele>
        <time>2024-03-31T10:35:02Z</time>
      </trkpt>
      <trkpt lat="48.07267" lon="3.23699">
        <ele>188.1</ele>
        <time>2024-03-31T10:35:13Z</time>
      </trkpt>
      <trkpt lat="48.07265" lon="3.23704">
        <ele>187.7</ele>
        <time>2024-03-31T10:35:17Z</time>
      </trkpt>
      <trkpt lat="48.07257" lon="3.23715">
        <ele>186.8</ele>
        <time>2024-03-31T10:35:25Z</time>
      </trkpt>
      <trkpt lat="48.07248" lon="3.23734">
        <ele>185.5</ele>
        <time>2024-03-31T10:35:34Z</time>
      </trkpt>
      <trkpt lat="48.07241" lon="3.23746">
        <ele>184.8</ele>
        <time>2024-03-31T10:35:43Z</time>
      </trkpt>
      <trkpt lat="48.07228" lon="3.23764">
        <ele>183.8</ele>
        <time>2024-03-31T10:35:53Z</time>
      </trkpt>
      <trkpt lat="48.07224" lon="3.23773">
        <ele>183.3</ele>
        <time>2024-03-31T10:36:01Z</time>
      </trkpt>
      <trkpt lat="48.07217" lon="3.23786">
        <ele>182.8</ele>
        <time>2024-03-31T10:36:12Z</time>
      </trkpt>
      <trkpt lat="48.07214" lon="3.23789">
        <ele>182.6</ele>
        <time>2024-03-31T10:36:14Z</time>
      </trkpt>
      <trkpt lat="48.07206" lon="3.23799">
        <ele>182</ele>
        <time>2024-03-31T10:36:24Z</time>
      </trkpt>
      <trkpt lat="48.07195" lon="3.23809">
        <ele>180.9</ele>
        <time>2024-03-31T10:36:32Z</time>
      </trkpt>
      <trkpt lat="48.07178" lon="3.23834">
        <ele>179.4</ele>
        <time>2024-03-31T10:36:42Z</time>
      </trkpt>
      <trkpt lat="48.07174" lon="3.23843">
        <ele>179</ele>
        <time>2024-03-31T10:36:48Z</time>
      </trkpt>
      <trkpt lat="48.07164" lon="3.23858">
        <ele>178</ele>
        <time>2024-03-31T10:36:58Z</time>
      </trkpt>
      <trkpt lat="48.07153" lon="3.2387">
        <ele>177.2</ele>
        <time>2024-03-31T10:37:08Z</time>
      </trkpt>
      <trkpt lat="48.0714" lon="3.23888">
        <ele>176.1</ele>
        <time>2024-03-31T10:37:18Z</time>
      </trkpt>
      <trkpt lat="48.07135" lon="3.23899">
        <ele>175.2</ele>
        <time>2024-03-31T10:37:28Z</time>
      </trkpt>
      <trkpt lat="48.07128" lon="3.23909">
        <ele>174.1</ele>
        <time>2024-03-31T10:37:36Z</time>
      </trkpt>
      <trkpt lat="48.0712" lon="3.2392">
        <ele>172.9</ele>
        <time>2024-03-31T10:37:44Z</time>
      </trkpt>
      <trkpt lat="48.0712" lon="3.23927">
        <ele>172.8</ele>
        <time>2024-03-31T10:37:47Z</time>
      </trkpt>
      <trkpt lat="48.07116" lon="3.23942">
        <ele>172.4</ele>
        <time>2024-03-31T10:37:56Z</time>
      </trkpt>
      <trkpt lat="48.07114" lon="3.23959">
        <ele>171.7</ele>
        <time>2024-03-31T10:38:05Z</time>
      </trkpt>
      <trkpt lat="48.07115" lon="3.23968">
        <ele>171.4</ele>
        <time>2024-03-31T10:38:12Z</time>
      </trkpt>
      <trkpt lat="48.07117" lon="3.23978">
        <ele>171.3</ele>
        <time>2024-03-31T10:38:19Z</time>
      </trkpt>
      <trkpt lat="48.07125" lon="3.23988">
        <ele>171.4</ele>
        <time>2024-03-31T10:38:27Z</time>
      </trkpt>
      <trkpt lat="48.07133" lon="3.23996">
        <ele>171.2</ele>
        <time>2024-03-31T10:38:35Z</time>
      </trkpt>
      <trkpt lat="48.07134" lon="3.24013">
        <ele>170.6</ele>
        <time>2024-03-31T10:38:43Z</time>
      </trkpt>
      <trkpt lat="48.07142" lon="3.24023">
        <ele>170.3</ele>
        <time>2024-03-31T10:38:51Z</time>
      </trkpt>
      <trkpt lat="48.07154" lon="3.24036">
        <ele>170.2</ele>
        <time>2024-03-31T10:39:02Z</time>
      </trkpt>
      <trkpt lat="48.07159" lon="3.24046">
        <ele>169.8</ele>
        <time>2024-03-31T10:39:10Z</time>
      </trkpt>
      <trkpt lat="48.07161" lon="3.24057">
        <ele>169.1</ele>
        <time>2024-03-31T10:39:19Z</time>
      </trkpt>
      <trkpt lat="48.07168" lon="3.24069">
        <ele>168</ele>
        <time>2024-03-31T10:39:27Z</time>
      </trkpt>
      <trkpt lat="48.07168" lon="3.2407">
        <ele>168</ele>
        <time>2024-03-31T10:39:28Z</time>
      </trkpt>
      <trkpt lat="48.07175" lon="3.24083">
        <ele>167</ele>
        <time>2024-03-31T10:39:35Z</time>
      </trkpt>
      <trkpt lat="48.07183" lon="3.24097">
        <ele>166.2</ele>
        <time>2024-03-31T10:39:44Z</time>
      </trkpt>
      <trkpt lat="48.07188" lon="3.24111">
        <ele>165.2</ele>
        <time>2024-03-31T10:39:53Z</time>
      </trkpt>
      <trkpt lat="48.07197" lon="3.2413">
        <ele>164.4</ele>
        <time>2024-03-31T10:40:02Z</time>
      </trkpt>
      <trkpt lat="48.07198" lon="3.24144">
        <ele>163.8</ele>
        <time>2024-03-31T10:40:12Z</time>
      </trkpt>
      <trkpt lat="48.07205" lon="3.24156">
        <ele>163.4</ele>
        <time>2024-03-31T10:40:20Z</time>
      </trkpt>
      <trkpt lat="48.07215" lon="3.24172">
        <ele>162.7</ele>
        <time>2024-03-31T10:40:29Z</time>
      </trkpt>
      <trkpt lat="48.07222" lon="3.24183">
        <ele>161.8</ele>
        <time>2024-03-31T10:40:34Z</time>
      </trkpt>
      <trkpt lat="48.0723" lon="3.24198">
        <ele>161.4</ele>
        <time>2024-03-31T10:40:42Z</time>
      </trkpt>
      <trkpt lat="48.07233" lon="3.24213">
        <ele>161.1</ele>
        <time>2024-03-31T10:40:49Z</time>
      </trkpt>
      <trkpt lat="48.07235" lon="3.2423">
        <ele>160.5</ele>
        <time>2024-03-31T10:40:57Z</time>
      </trkpt>
      <trkpt lat="48.07234" lon="3.24243">
        <ele>159.8</ele>
        <time>2024-03-31T10:41:05Z</time>
      </trkpt>
      <trkpt lat="48.07239" lon="3.24257">
        <ele>159.4</ele>
        <time>2024-03-31T10:41:15Z</time>
      </trkpt>
      <trkpt lat="48.07236" lon="3.24267">
        <ele>158.9</ele>
        <time>2024-03-31T10:41:20Z</time>
      </trkpt>
      <trkpt lat="48.07237" lon="3.24329">
        <ele>156.2</ele>
        <time>2024-03-31T10:41:51Z</time>
      </trkpt>
      <trkpt lat="48.07234" lon="3.24341">
        <ele>155.7</ele>
        <time>2024-03-31T10:41:59Z</time>
      </trkpt>
      <trkpt lat="48.0723" lon="3.24359">
        <ele>155.1</ele>
        <time>2024-03-31T10:42:08Z</time>
      </trkpt>
      <trkpt lat="48.07227" lon="3.2436">
        <ele>155</ele>
        <time>2024-03-31T10:42:10Z</time>
      </trkpt>
      <trkpt lat="48.07224" lon="3.2438">
        <ele>154.4</ele>
        <time>2024-03-31T10:42:20Z</time>
      </trkpt>
      <trkpt lat="48.07225" lon="3.24391">
        <ele>154</ele>
        <time>2024-03-31T10:42:30Z</time>
      </trkpt>
      <trkpt lat="48.07225" lon="3.24403">
        <ele>153.6</ele>
        <time>2024-03-31T10:42:38Z</time>
      </trkpt>
      <trkpt lat="48.07225" lon="3.24404">
        <ele>153.6</ele>
        <time>2024-03-31T10:42:39Z</time>
      </trkpt>
      <trkpt lat="48.07225" lon="3.24418">
        <ele>153.1</ele>
        <time>2024-03-31T10:42:47Z</time>
      </trkpt>
      <trkpt lat="48.07219" lon="3.24431">
        <ele>152.7</ele>
        <time>2024-03-31T10:42:58Z</time>
      </trkpt>
      <trkpt lat="48.07212" lon="3.24442">
        <ele>152.8</ele>
        <time>2024-03-31T10:43:06Z</time>
      </trkpt>
      <trkpt lat="48.07213" lon="3.2445">
        <ele>152.3</ele>
        <time>2024-03-31T10:43:10Z</time>
      </trkpt>
      <trkpt lat="48.07209" lon="3.24464">
        <ele>151.9</ele>
        <time>2024-03-31T10:43:17Z</time>
      </trkpt>
      <trkpt lat="48.07205" lon="3.24476">
        <ele>151.7</ele>
        <time>2024-03-31T10:43:25Z</time>
      </trkpt>
      <trkpt lat="48.07206" lon="3.24489">
        <ele>151</ele>
        <time>2024-03-31T10:43:32Z</time>
      </trkpt>
      <trkpt lat="48.07203" lon="3.24506">
        <ele>150.3</ele>
        <time>2024-03-31T10:43:41Z</time>
      </trkpt>
      <trkpt lat="48.07199" lon="3.24509">
        <ele>150.2</ele>
        <time>2024-03-31T10:43:44Z</time>
      </trkpt>
      <trkpt lat="48.0719" lon="3.24528">
        <ele>149.3</ele>
        <time>2024-03-31T10:43:53Z</time>
      </trkpt>
      <trkpt lat="48.07195" lon="3.24546">
        <ele>147.7</ele>
        <time>2024-03-31T10:43:58Z</time>
      </trkpt>
      <trkpt lat="48.07191" lon="3.24562">
        <ele>147</ele>
        <time>2024-03-31T10:44:07Z</time>
      </trkpt>
      <trkpt lat="48.07198" lon="3.24575">
        <ele>146.3</ele>
        <time>2024-03-31T10:44:14Z</time>
      </trkpt>
      <trkpt lat="48.07204" lon="3.24593">
        <ele>145.8</ele>
        <time>2024-03-31T10:44:21Z</time>
      </trkpt>
      <trkpt lat="48.07205" lon="3.24602">
        <ele>145.6</ele>
        <time>2024-03-31T10:44:30Z</time>
      </trkpt>
      <trkpt lat="48.07207" lon="3.24613">
        <ele>145.5</ele>
        <time>2024-03-31T10:44:38Z</time>
      </trkpt>
      <trkpt lat="48.07211" lon="3.2462">
        <ele>145.5</ele>
        <time>2024-03-31T10:44:45Z</time>
      </trkpt>
      <trkpt lat="48.0721" lon="3.24626">
        <ele>145.5</ele>
        <time>2024-03-31T10:44:50Z</time>
      </trkpt>
      <trkpt lat="48.0722" lon="3.24641">
        <ele>145.2</ele>
        <time>2024-03-31T10:44:59Z</time>
      </trkpt>
      <trkpt lat="48.07222" lon="3.24644">
        <ele>145.2</ele>
        <time>2024-03-31T10:45:01Z</time>
      </trkpt>
      <trkpt lat="48.07233" lon="3.24656">
        <ele>145.9</ele>
        <time>2024-03-31T10:45:10Z</time>
      </trkpt>
      <trkpt lat="48.07241" lon="3.24669">
        <ele>146</ele>
        <time>2024-03-31T10:45:20Z</time>
      </trkpt>
      <trkpt lat="48.07251" lon="3.24681">
        <ele>146.1</ele>
        <time>2024-03-31T10:45:30Z</time>
      </trkpt>
      <trkpt lat="48.07255" lon="3.24687">
        <ele>146.3</ele>
        <time>2024-03-31T10:45:34Z</time>
      </trkpt>
      <trkpt lat="48.07264" lon="3.24698">
        <ele>146.4</ele>
        <time>2024-03-31T10:45:44Z</time>
      </trkpt>
      <trkpt lat="48.07273" lon="3.2471">
        <ele>146</ele>
        <time>2024-03-31T10:45:53Z</time>
      </trkpt>
      <trkpt lat="48.0728" lon="3.24723">
        <ele>145.2</ele>
        <time>2024-03-31T10:46:02Z</time>
      </trkpt>
      <trkpt lat="48.07285" lon="3.24734">
        <ele>145.6</ele>
        <time>2024-03-31T10:46:09Z</time>
      </trkpt>
      <trkpt lat="48.07287" lon="3.24737">
        <ele>145.7</ele>
        <time>2024-03-31T10:46:11Z</time>
      </trkpt>
      <trkpt lat="48.07292" lon="3.24744">
        <ele>145.6</ele>
        <time>2024-03-31T10:46:18Z</time>
      </trkpt>
      <trkpt lat="48.07301" lon="3.24753">
        <ele>145.2</ele>
        <time>2024-03-31T10:46:27Z</time>
      </trkpt>
      <trkpt lat="48.07309" lon="3.2476">
        <ele>145</ele>
        <time>2024-03-31T10:46:34Z</time>
      </trkpt>
      <trkpt lat="48.07319" lon="3.24765">
        <ele>145</ele>
        <time>2024-03-31T10:46:41Z</time>
      </trkpt>
      <trkpt lat="48.07327" lon="3.2477">
        <ele>144.7</ele>
        <time>2024-03-31T10:46:50Z</time>
      </trkpt>
      <trkpt lat="48.07338" lon="3.24775">
        <ele>144.2</ele>
        <time>2024-03-31T10:46:58Z</time>
      </trkpt>
      <trkpt lat="48.0735" lon="3.24785">
        <ele>143.6</ele>
        <time>2024-03-31T10:47:07Z</time>
      </trkpt>
      <trkpt lat="48.07356" lon="3.24789">
        <ele>143.3</ele>
        <time>2024-03-31T10:47:13Z</time>
      </trkpt>
      <trkpt lat="48.07361" lon="3.24796">
        <ele>142.7</ele>
        <time>2024-03-31T10:47:21Z</time>
      </trkpt>
      <trkpt lat="48.07366" lon="3.24802">
        <ele>142.5</ele>
        <time>2024-03-31T10:47:29Z</time>
      </trkpt>
      <trkpt lat="48.07367" lon="3.24806">
        <ele>142.2</ele>
        <time>2024-03-31T10:47:37Z</time>
      </trkpt>
      <trkpt lat="48.07373" lon="3.2481">
        <ele>142.4</ele>
        <time>2024-03-31T10:47:44Z</time>
      </trkpt>
      <trkpt lat="48.07373" lon="3.24807">
        <ele>142.4</ele>
        <time>2024-03-31T10:48:56Z</time>
      </trkpt>
      <trkpt lat="48.0737" lon="3.2483">
        <ele>142.4</ele>
        <time>2024-03-31T10:49:21Z</time>
      </trkpt>
      <trkpt lat="48.07391" lon="3.24824">
        <ele>141.7</ele>
        <time>2024-03-31T10:49:27Z</time>
      </trkpt>
      <trkpt lat="48.07398" lon="3.24829">
        <ele>141.4</ele>
        <time>2024-03-31T10:49:34Z</time>
      </trkpt>
      <trkpt lat="48.07399" lon="3.2483">
        <ele>141.3</ele>
        <time>2024-03-31T10:49:36Z</time>
      </trkpt>
      <trkpt lat="48.07407" lon="3.24841">
        <ele>140.9</ele>
        <time>2024-03-31T10:49:45Z</time>
      </trkpt>
      <trkpt lat="48.07411" lon="3.24849">
        <ele>140.7</ele>
        <time>2024-03-31T10:49:50Z</time>
      </trkpt>
      <trkpt lat="48.0742" lon="3.2486">
        <ele>140</ele>
        <time>2024-03-31T10:49:59Z</time>
      </trkpt>
      <trkpt lat="48.07427" lon="3.24868">
        <ele>139.8</ele>
        <time>2024-03-31T10:50:07Z</time>
      </trkpt>
      <trkpt lat="48.07434" lon="3.24876">
        <ele>139.3</ele>
        <time>2024-03-31T10:50:15Z</time>
      </trkpt>
      <trkpt lat="48.07439" lon="3.24888">
        <ele>138.4</ele>
        <time>2024-03-31T10:50:24Z</time>
      </trkpt>
      <trkpt lat="48.07444" lon="3.24893">
        <ele>137.9</ele>
        <time>2024-03-31T10:50:30Z</time>
      </trkpt>
      <trkpt lat="48.07448" lon="3.24901">
        <ele>137.6</ele>
        <time>2024-03-31T10:50:36Z</time>
      </trkpt>
      <trkpt lat="48.07456" lon="3.24913">
        <ele>136.8</ele>
        <time>2024-03-31T10:50:45Z</time>
      </trkpt>
      <trkpt lat="48.07459" lon="3.24918">
        <ele>136.5</ele>
        <time>2024-03-31T10:50:51Z</time>
      </trkpt>
      <trkpt lat="48.07461" lon="3.24924">
        <ele>136.5</ele>
        <time>2024-03-31T10:50:56Z</time>
      </trkpt>
      <trkpt lat="48.07472" lon="3.24938">
        <ele>135.3</ele>
        <time>2024-03-31T10:51:06Z</time>
      </trkpt>
      <trkpt lat="48.07476" lon="3.2495">
        <ele>135.1</ele>
        <time>2024-03-31T10:51:13Z</time>
      </trkpt>
      <trkpt lat="48.07477" lon="3.24955">
        <ele>135.2</ele>
        <time>2024-03-31T10:51:21Z</time>
      </trkpt>
      <trkpt lat="48.07479" lon="3.24959">
        <ele>135.3</ele>
        <time>2024-03-31T10:51:33Z</time>
      </trkpt>
      <trkpt lat="48.07483" lon="3.24962">
        <ele>135.1</ele>
        <time>2024-03-31T10:51:37Z</time>
      </trkpt>
      <trkpt lat="48.07495" lon="3.24971">
        <ele>134.4</ele>
        <time>2024-03-31T10:51:46Z</time>
      </trkpt>
      <trkpt lat="48.07505" lon="3.24978">
        <ele>134.1</ele>
        <time>2024-03-31T10:51:54Z</time>
      </trkpt>
      <trkpt lat="48.07513" lon="3.24984">
        <ele>134.1</ele>
        <time>2024-03-31T10:52:01Z</time>
      </trkpt>
      <trkpt lat="48.07516" lon="3.24987">
        <ele>134</ele>
        <time>2024-03-31T10:52:05Z</time>
      </trkpt>
      <trkpt lat="48.0752" lon="3.24991">
        <ele>133.7</ele>
        <time>2024-03-31T10:52:12Z</time>
      </trkpt>
      <trkpt lat="48.07523" lon="3.24996">
        <ele>133.4</ele>
        <time>2024-03-31T10:52:16Z</time>
      </trkpt>
      <trkpt lat="48.07525" lon="3.24998">
        <ele>133.2</ele>
        <time>2024-03-31T10:52:18Z</time>
      </trkpt>
      <trkpt lat="48.07529" lon="3.25003">
        <ele>133.1</ele>
        <time>2024-03-31T10:52:22Z</time>
      </trkpt>
      <trkpt lat="48.07534" lon="3.2501">
        <ele>133.4</ele>
        <time>2024-03-31T10:52:26Z</time>
      </trkpt>
      <trkpt lat="48.07541" lon="3.25024">
        <ele>133.2</ele>
        <time>2024-03-31T10:52:35Z</time>
      </trkpt>
      <trkpt lat="48.07547" lon="3.25037">
        <ele>132.5</ele>
        <time>2024-03-31T10:52:43Z</time>
      </trkpt>
      <trkpt lat="48.0755" lon="3.25043">
        <ele>132.1</ele>
        <time>2024-03-31T10:52:47Z</time>
      </trkpt>
      <trkpt lat="48.07558" lon="3.25052">
        <ele>131.5</ele>
        <time>2024-03-31T10:52:54Z</time>
      </trkpt>
      <trkpt lat="48.0756" lon="3.25055">
        <ele>131.5</ele>
        <time>2024-03-31T10:52:56Z</time>
      </trkpt>
      <trkpt lat="48.07564" lon="3.2507">
        <ele>130.6</ele>
        <time>2024-03-31T10:53:04Z</time>
      </trkpt>
      <trkpt lat="48.07562" lon="3.25084">
        <ele>129.2</ele>
        <time>2024-03-31T10:53:11Z</time>
      </trkpt>
      <trkpt lat="48.07561" lon="3.25104">
        <ele>128.6</ele>
        <time>2024-03-31T10:53:21Z</time>
      </trkpt>
      <trkpt lat="48.07563" lon="3.25118">
        <ele>128.1</ele>
        <time>2024-03-31T10:53:30Z</time>
      </trkpt>
      <trkpt lat="48.07565" lon="3.25122">
        <ele>127.8</ele>
        <time>2024-03-31T10:53:38Z</time>
      </trkpt>
      <trkpt lat="48.07569" lon="3.25132">
        <ele>127.2</ele>
        <time>2024-03-31T10:53:46Z</time>
      </trkpt>
      <trkpt lat="48.07576" lon="3.25143">
        <ele>126.2</ele>
        <time>2024-03-31T10:53:54Z</time>
      </trkpt>
      <trkpt lat="48.07576" lon="3.25144">
        <ele>126.3</ele>
        <time>2024-03-31T10:53:55Z</time>
      </trkpt>
      <trkpt lat="48.0758" lon="3.25155">
        <ele>126.1</ele>
        <time>2024-03-31T10:54:02Z</time>
      </trkpt>
      <trkpt lat="48.07586" lon="3.25162">
        <ele>125.9</ele>
        <time>2024-03-31T10:54:10Z</time>
      </trkpt>
      <trkpt lat="48.07591" lon="3.25172">
        <ele>126.2</ele>
        <time>2024-03-31T10:54:17Z</time>
      </trkpt>
      <trkpt lat="48.07593" lon="3.25179">
        <ele>126.4</ele>
        <time>2024-03-31T10:54:23Z</time>
      </trkpt>
      <trkpt lat="48.07597" lon="3.2519">
        <ele>126.4</ele>
        <time>2024-03-31T10:54:30Z</time>
      </trkpt>
      <trkpt lat="48.07603" lon="3.252">
        <ele>126.1</ele>
        <time>2024-03-31T10:54:37Z</time>
      </trkpt>
      <trkpt lat="48.07611" lon="3.2521">
        <ele>125.6</ele>
        <time>2024-03-31T10:54:44Z</time>
      </trkpt>
      <trkpt lat="48.07615" lon="3.25219">
        <ele>125.9</ele>
        <time>2024-03-31T10:54:50Z</time>
      </trkpt>
      <trkpt lat="48.07615" lon="3.2522">
        <ele>125.9</ele>
        <time>2024-03-31T10:54:51Z</time>
      </trkpt>
      <trkpt lat="48.07622" lon="3.25233">
        <ele>126.1</ele>
        <time>2024-03-31T10:54:58Z</time>
      </trkpt>
      <trkpt lat="48.07628" lon="3.25247">
        <ele>125.8</ele>
        <time>2024-03-31T10:55:06Z</time>
      </trkpt>
      <trkpt lat="48.07629" lon="3.25256">
        <ele>125.8</ele>
        <time>2024-03-31T10:55:14Z</time>
      </trkpt>
      <trkpt lat="48.07633" lon="3.25264">
        <ele>125.5</ele>
        <time>2024-03-31T10:55:21Z</time>
      </trkpt>
      <trkpt lat="48.07638" lon="3.25273">
        <ele>125.1</ele>
        <time>2024-03-31T10:55:27Z</time>
      </trkpt>
      <trkpt lat="48.07639" lon="3.25282">
        <ele>125.2</ele>
        <time>2024-03-31T10:55:32Z</time>
      </trkpt>
      <trkpt lat="48.07645" lon="3.25289">
        <ele>125.3</ele>
        <time>2024-03-31T10:55:36Z</time>
      </trkpt>
      <trkpt lat="48.07657" lon="3.25305">
        <ele>125.3</ele>
        <time>2024-03-31T10:55:42Z</time>
      </trkpt>
      <trkpt lat="48.07661" lon="3.25315">
        <ele>125</ele>
        <time>2024-03-31T10:55:48Z</time>
      </trkpt>
      <trkpt lat="48.07662" lon="3.25326">
        <ele>124.7</ele>
        <time>2024-03-31T10:55:56Z</time>
      </trkpt>
      <trkpt lat="48.07663" lon="3.25331">
        <ele>124.5</ele>
        <time>2024-03-31T10:56:01Z</time>
      </trkpt>
      <trkpt lat="48.07666" lon="3.25341">
        <ele>124.1</ele>
        <time>2024-03-31T10:56:09Z</time>
      </trkpt>
      <trkpt lat="48.07668" lon="3.25348">
        <ele>124</ele>
        <time>2024-03-31T10:56:15Z</time>
      </trkpt>
      <trkpt lat="48.07671" lon="3.25357">
        <ele>124</ele>
        <time>2024-03-31T10:56:20Z</time>
      </trkpt>
      <trkpt lat="48.07673" lon="3.25365">
        <ele>123.8</ele>
        <time>2024-03-31T10:56:28Z</time>
      </trkpt>
      <trkpt lat="48.07675" lon="3.2537">
        <ele>123.6</ele>
        <time>2024-03-31T10:56:33Z</time>
      </trkpt>
      <trkpt lat="48.07678" lon="3.25384">
        <ele>122.8</ele>
        <time>2024-03-31T10:56:42Z</time>
      </trkpt>
      <trkpt lat="48.07679" lon="3.25395">
        <ele>122.6</ele>
        <time>2024-03-31T10:56:50Z</time>
      </trkpt>
      <trkpt lat="48.0768" lon="3.25405">
        <ele>122.5</ele>
        <time>2024-03-31T10:56:56Z</time>
      </trkpt>
      <trkpt lat="48.07681" lon="3.25409">
        <ele>122.5</ele>
        <time>2024-03-31T10:56:58Z</time>
      </trkpt>
      <trkpt lat="48.07682" lon="3.25412">
        <ele>122.4</ele>
        <time>2024-03-31T10:57:00Z</time>
      </trkpt>
      <trkpt lat="48.07685" lon="3.25427">
        <ele>122</ele>
        <time>2024-03-31T10:57:07Z</time>
      </trkpt>
      <trkpt lat="48.07687" lon="3.25437">
        <ele>121.8</ele>
        <time>2024-03-31T10:57:14Z</time>
      </trkpt>
      <trkpt lat="48.0769" lon="3.25447">
        <ele>121.5</ele>
        <time>2024-03-31T10:57:21Z</time>
      </trkpt>
      <trkpt lat="48.07688" lon="3.2545">
        <ele>121.7</ele>
        <time>2024-03-31T10:57:24Z</time>
      </trkpt>
      <trkpt lat="48.07688" lon="3.25455">
        <ele>121.8</ele>
        <time>2024-03-31T10:57:27Z</time>
      </trkpt>
      <trkpt lat="48.07689" lon="3.25466">
        <ele>121.7</ele>
        <time>2024-03-31T10:57:32Z</time>
      </trkpt>
      <trkpt lat="48.07696" lon="3.25483">
        <ele>121</ele>
        <time>2024-03-31T10:57:40Z</time>
      </trkpt>
      <trkpt lat="48.077" lon="3.25496">
        <ele>120.9</ele>
        <time>2024-03-31T10:57:54Z</time>
      </trkpt>
      <trkpt lat="48.07707" lon="3.25512">
        <ele>120.4</ele>
        <time>2024-03-31T10:58:02Z</time>
      </trkpt>
      <trkpt lat="48.07709" lon="3.25522">
        <ele>120.1</ele>
        <time>2024-03-31T10:58:07Z</time>
      </trkpt>
      <trkpt lat="48.0771" lon="3.25533">
        <ele>119.7</ele>
        <time>2024-03-31T10:58:12Z</time>
      </trkpt>
      <trkpt lat="48.07715" lon="3.25548">
        <ele>118.8</ele>
        <time>2024-03-31T10:58:20Z</time>
      </trkpt>
      <trkpt lat="48.07715" lon="3.25558">
        <ele>118.5</ele>
        <time>2024-03-31T10:58:25Z</time>
      </trkpt>
      <trkpt lat="48.07716" lon="3.25573">
        <ele>118</ele>
        <time>2024-03-31T10:58:33Z</time>
      </trkpt>
      <trkpt lat="48.07715" lon="3.2559">
        <ele>117.7</ele>
        <time>2024-03-31T10:58:42Z</time>
      </trkpt>
      <trkpt lat="48.07715" lon="3.256">
        <ele>117.6</ele>
        <time>2024-03-31T10:58:48Z</time>
      </trkpt>
      <trkpt lat="48.07718" lon="3.25608">
        <ele>117.3</ele>
        <time>2024-03-31T10:58:56Z</time>
      </trkpt>
      <trkpt lat="48.07719" lon="3.25628">
        <ele>116.7</ele>
        <time>2024-03-31T10:59:04Z</time>
      </trkpt>
      <trkpt lat="48.07721" lon="3.25643">
        <ele>116.1</ele>
        <time>2024-03-31T10:59:12Z</time>
      </trkpt>
      <trkpt lat="48.07724" lon="3.25653">
        <ele>116.2</ele>
        <time>2024-03-31T10:59:16Z</time>
      </trkpt>
      <trkpt lat="48.07723" lon="3.25671">
        <ele>116.1</ele>
        <time>2024-03-31T10:59:25Z</time>
      </trkpt>
      <trkpt lat="48.0772" lon="3.25682">
        <ele>116.1</ele>
        <time>2024-03-31T10:59:31Z</time>
      </trkpt>
      <trkpt lat="48.07716" lon="3.25696">
        <ele>116.2</ele>
        <time>2024-03-31T10:59:39Z</time>
      </trkpt>
      <trkpt lat="48.07716" lon="3.25697">
        <ele>116.2</ele>
        <time>2024-03-31T10:59:40Z</time>
      </trkpt>
      <trkpt lat="48.07714" lon="3.2571">
        <ele>116.3</ele>
        <time>2024-03-31T10:59:47Z</time>
      </trkpt>
      <trkpt lat="48.07711" lon="3.25721">
        <ele>116.4</ele>
        <time>2024-03-31T10:59:53Z</time>
      </trkpt>
      <trkpt lat="48.07711" lon="3.25741">
        <ele>116.1</ele>
        <time>2024-03-31T11:00:04Z</time>
      </trkpt>
      <trkpt lat="48.07712" lon="3.25745">
        <ele>116.1</ele>
        <time>2024-03-31T11:00:07Z</time>
      </trkpt>
      <trkpt lat="48.07709" lon="3.25755">
        <ele>116</ele>
        <time>2024-03-31T11:00:12Z</time>
      </trkpt>
      <trkpt lat="48.07707" lon="3.25772">
        <ele>115.9</ele>
        <time>2024-03-31T11:00:20Z</time>
      </trkpt>
      <trkpt lat="48.07704" lon="3.25788">
        <ele>115.7</ele>
        <time>2024-03-31T11:00:29Z</time>
      </trkpt>
      <trkpt lat="48.07702" lon="3.25796">
        <ele>115.5</ele>
        <time>2024-03-31T11:00:33Z</time>
      </trkpt>
      <trkpt lat="48.07703" lon="3.25809">
        <ele>115.4</ele>
        <time>2024-03-31T11:00:40Z</time>
      </trkpt>
      <trkpt lat="48.07702" lon="3.25828">
        <ele>114.4</ele>
        <time>2024-03-31T11:00:49Z</time>
      </trkpt>
      <trkpt lat="48.07702" lon="3.25842">
        <ele>113.8</ele>
        <time>2024-03-31T11:00:57Z</time>
      </trkpt>
      <trkpt lat="48.07702" lon="3.25857">
        <ele>113.2</ele>
        <time>2024-03-31T11:01:05Z</time>
      </trkpt>
      <trkpt lat="48.077" lon="3.25869">
        <ele>112.6</ele>
        <time>2024-03-31T11:01:12Z</time>
      </trkpt>
      <trkpt lat="48.07698" lon="3.25878">
        <ele>112</ele>
        <time>2024-03-31T11:01:16Z</time>
      </trkpt>
      <trkpt lat="48.07697" lon="3.25892">
        <ele>111.5</ele>
        <time>2024-03-31T11:01:23Z</time>
      </trkpt>
      <trkpt lat="48.07695" lon="3.25898">
        <ele>111.1</ele>
        <time>2024-03-31T11:01:26Z</time>
      </trkpt>
      <trkpt lat="48.07692" lon="3.25916">
        <ele>111.1</ele>
        <time>2024-03-31T11:01:34Z</time>
      </trkpt>
      <trkpt lat="48.07691" lon="3.25924">
        <ele>111.1</ele>
        <time>2024-03-31T11:01:38Z</time>
      </trkpt>
      <trkpt lat="48.07691" lon="3.2593">
        <ele>111.1</ele>
        <time>2024-03-31T11:01:41Z</time>
      </trkpt>
      <trkpt lat="48.0769" lon="3.25939">
        <ele>111</ele>
        <time>2024-03-31T11:01:46Z</time>
      </trkpt>
      <trkpt lat="48.0769" lon="3.25943">
        <ele>111</ele>
        <time>2024-03-31T11:01:48Z</time>
      </trkpt>
      <trkpt lat="48.07691" lon="3.2596">
        <ele>110.5</ele>
        <time>2024-03-31T11:01:57Z</time>
      </trkpt>
      <trkpt lat="48.0769" lon="3.25973">
        <ele>110.2</ele>
        <time>2024-03-31T11:02:04Z</time>
      </trkpt>
      <trkpt lat="48.07686" lon="3.25985">
        <ele>110.2</ele>
        <time>2024-03-31T11:02:10Z</time>
      </trkpt>
      <trkpt lat="48.07684" lon="3.2599">
        <ele>110.1</ele>
        <time>2024-03-31T11:02:14Z</time>
      </trkpt>
      <trkpt lat="48.0769" lon="3.26008">
        <ele>110</ele>
        <time>2024-03-31T11:02:23Z</time>
      </trkpt>
      <trkpt lat="48.07689" lon="3.26023">
        <ele>110</ele>
        <time>2024-03-31T11:02:32Z</time>
      </trkpt>
      <trkpt lat="48.07689" lon="3.2603">
        <ele>110.1</ele>
        <time>2024-03-31T11:02:36Z</time>
      </trkpt>
      <trkpt lat="48.07689" lon="3.26045">
        <ele>110.5</ele>
        <time>2024-03-31T11:02:43Z</time>
      </trkpt>
      <trkpt lat="48.07687" lon="3.26064">
        <ele>110.4</ele>
        <time>2024-03-31T11:02:52Z</time>
      </trkpt>
      <trkpt lat="48.07685" lon="3.2607">
        <ele>110.1</ele>
        <time>2024-03-31T11:02:55Z</time>
      </trkpt>
      <trkpt lat="48.07687" lon="3.26086">
        <ele>109.6</ele>
        <time>2024-03-31T11:03:04Z</time>
      </trkpt>
      <trkpt lat="48.07686" lon="3.26093">
        <ele>109.3</ele>
        <time>2024-03-31T11:03:07Z</time>
      </trkpt>
      <trkpt lat="48.07684" lon="3.26113">
        <ele>108.6</ele>
        <time>2024-03-31T11:03:17Z</time>
      </trkpt>
      <trkpt lat="48.07682" lon="3.26121">
        <ele>108.4</ele>
        <time>2024-03-31T11:03:22Z</time>
      </trkpt>
      <trkpt lat="48.0768" lon="3.26137">
        <ele>108</ele>
        <time>2024-03-31T11:03:31Z</time>
      </trkpt>
      <trkpt lat="48.0768" lon="3.26141">
        <ele>108</ele>
        <time>2024-03-31T11:03:33Z</time>
      </trkpt>
      <trkpt lat="48.0768" lon="3.26148">
        <ele>107.8</ele>
        <time>2024-03-31T11:03:39Z</time>
      </trkpt>
      <trkpt lat="48.07677" lon="3.2615">
        <ele>107.7</ele>
        <time>2024-03-31T11:03:53Z</time>
      </trkpt>
      <trkpt lat="48.07677" lon="3.26152">
        <ele>107.7</ele>
        <time>2024-03-31T11:03:54Z</time>
      </trkpt>
      <trkpt lat="48.07678" lon="3.26162">
        <ele>107.5</ele>
        <time>2024-03-31T11:04:02Z</time>
      </trkpt>
      <trkpt lat="48.07678" lon="3.26164">
        <ele>107.5</ele>
        <time>2024-03-31T11:04:04Z</time>
      </trkpt>
      <trkpt lat="48.07677" lon="3.26172">
        <ele>107.3</ele>
        <time>2024-03-31T11:04:08Z</time>
      </trkpt>
      <trkpt lat="48.07676" lon="3.26195">
        <ele>107</ele>
        <time>2024-03-31T11:04:19Z</time>
      </trkpt>
      <trkpt lat="48.07676" lon="3.26215">
        <ele>106.5</ele>
        <time>2024-03-31T11:04:29Z</time>
      </trkpt>
      <trkpt lat="48.07676" lon="3.26221">
        <ele>106.4</ele>
        <time>2024-03-31T11:04:32Z</time>
      </trkpt>
      <trkpt lat="48.07676" lon="3.26239">
        <ele>106.3</ele>
        <time>2024-03-31T11:04:42Z</time>
      </trkpt>
      <trkpt lat="48.07678" lon="3.26254">
        <ele>106.3</ele>
        <time>2024-03-31T11:04:51Z</time>
      </trkpt>
      <trkpt lat="48.07678" lon="3.26258">
        <ele>106.1</ele>
        <time>2024-03-31T11:04:59Z</time>
      </trkpt>
      <trkpt lat="48.07677" lon="3.26263">
        <ele>105.9</ele>
        <time>2024-03-31T11:05:14Z</time>
      </trkpt>
      <trkpt lat="48.07677" lon="3.26268">
        <ele>105.7</ele>
        <time>2024-03-31T11:05:23Z</time>
        <extensions>
          <visugpx:TrkExtension xmlns:visugpx="https://www.visugpx.com/editgpx/">
            <visugpx:node>1</visugpx:node>
            </visugpx:TrkExtension>
        </extensions>
      </trkpt>
    </trkseg>
  </trk>
  <trk>
    <name><![CDATA[CO2 totale]]></name>
    <extensions>
      <line xmlns="http://www.topografix.com/GPX/gpx_style/0/2">
        <color>ff0000</color>
        <width>4</width>
      </line>
    </extensions>
    <trkseg>
      <trkpt lat="48.07791" lon="3.24506">
        <ele>181.5</ele>
        <time>2024-04-21T07:39:44Z</time>
      </trkpt>
      <trkpt lat="48.07791" lon="3.24506">
        <ele>181.5</ele>
        <time>2024-04-21T07:39:45Z</time>
      </trkpt>
      <trkpt lat="48.0779" lon="3.24506">
        <ele>181.4</ele>
        <time>2024-04-21T07:39:58Z</time>
      </trkpt>
      <trkpt lat="48.07788" lon="3.24495">
        <ele>181.5</ele>
        <time>2024-04-21T07:40:04Z</time>
      </trkpt>
      <trkpt lat="48.07785" lon="3.24483">
        <ele>181.7</ele>
        <time>2024-04-21T07:40:07Z</time>
      </trkpt>
      <trkpt lat="48.07776" lon="3.24448">
        <ele>182</ele>
        <time>2024-04-21T07:40:16Z</time>
      </trkpt>
      <trkpt lat="48.07766" lon="3.24413">
        <ele>183.1</ele>
        <time>2024-04-21T07:40:24Z</time>
      </trkpt>
      <trkpt lat="48.07755" lon="3.24381">
        <ele>184.1</ele>
        <time>2024-04-21T07:40:32Z</time>
      </trkpt>
      <trkpt lat="48.0774" lon="3.24344">
        <ele>184.6</ele>
        <time>2024-04-21T07:40:41Z</time>
      </trkpt>
      <trkpt lat="48.07728" lon="3.24318">
        <ele>185</ele>
        <time>2024-04-21T07:40:47Z</time>
      </trkpt>
      <trkpt lat="48.0771" lon="3.24276">
        <ele>185.6</ele>
        <time>2024-04-21T07:40:56Z</time>
      </trkpt>
      <trkpt lat="48.07703" lon="3.24248">
        <ele>186</ele>
        <time>2024-04-21T07:41:02Z</time>
      </trkpt>
      <trkpt lat="48.07699" lon="3.2421">
        <ele>186.4</ele>
        <time>2024-04-21T07:41:09Z</time>
      </trkpt>
      <trkpt lat="48.07688" lon="3.24158">
        <ele>187</ele>
        <time>2024-04-21T07:41:19Z</time>
      </trkpt>
      <trkpt lat="48.07684" lon="3.24141">
        <ele>187</ele>
        <time>2024-04-21T07:41:22Z</time>
      </trkpt>
      <trkpt lat="48.07674" lon="3.24097">
        <ele>186.9</ele>
        <time>2024-04-21T07:41:30Z</time>
      </trkpt>
      <trkpt lat="48.07666" lon="3.24055">
        <ele>187</ele>
        <time>2024-04-21T07:41:37Z</time>
      </trkpt>
      <trkpt lat="48.07664" lon="3.24035">
        <ele>186.3</ele>
        <time>2024-04-21T07:41:41Z</time>
      </trkpt>
      <trkpt lat="48.07667" lon="3.24021">
        <ele>186</ele>
        <time>2024-04-21T07:41:45Z</time>
      </trkpt>
      <trkpt lat="48.07678" lon="3.24003">
        <ele>185.6</ele>
        <time>2024-04-21T07:41:52Z</time>
      </trkpt>
      <trkpt lat="48.07698" lon="3.23981">
        <ele>184.9</ele>
        <time>2024-04-21T07:41:58Z</time>
      </trkpt>
      <trkpt lat="48.07714" lon="3.23963">
        <ele>184</ele>
        <time>2024-04-21T07:42:04Z</time>
      </trkpt>
      <trkpt lat="48.07723" lon="3.23953">
        <ele>183.3</ele>
        <time>2024-04-21T07:42:07Z</time>
      </trkpt>
      <trkpt lat="48.07743" lon="3.23934">
        <ele>182</ele>
        <time>2024-04-21T07:42:12Z</time>
      </trkpt>
      <trkpt lat="48.07773" lon="3.23907">
        <ele>180.7</ele>
        <time>2024-04-21T07:42:20Z</time>
      </trkpt>
      <trkpt lat="48.07785" lon="3.23891">
        <ele>179.8</ele>
        <time>2024-04-21T07:42:24Z</time>
      </trkpt>
      <trkpt lat="48.07794" lon="3.23878">
        <ele>179.4</ele>
        <time>2024-04-21T07:42:29Z</time>
      </trkpt>
      <trkpt lat="48.07799" lon="3.23872">
        <ele>179.2</ele>
        <time>2024-04-21T07:42:34Z</time>
      </trkpt>
      <trkpt lat="48.07799" lon="3.2387">
        <ele>179.2</ele>
        <time>2024-04-21T07:42:46Z</time>
      </trkpt>
      <trkpt lat="48.07805" lon="3.2387">
        <ele>179</ele>
        <time>2024-04-21T07:43:07Z</time>
      </trkpt>
      <trkpt lat="48.07805" lon="3.23869">
        <ele>179</ele>
        <time>2024-04-21T07:43:23Z</time>
      </trkpt>
      <trkpt lat="48.07805" lon="3.2387">
        <ele>179</ele>
        <time>2024-04-21T07:43:40Z</time>
      </trkpt>
      <trkpt lat="48.07805" lon="3.2387">
        <ele>179</ele>
        <time>2024-04-21T07:43:56Z</time>
      </trkpt>
      <trkpt lat="48.07807" lon="3.2387">
        <ele>178.9</ele>
        <time>2024-04-21T07:44:09Z</time>
      </trkpt>
      <trkpt lat="48.07809" lon="3.23874">
        <ele>178.8</ele>
        <time>2024-04-21T07:44:24Z</time>
      </trkpt>
      <trkpt lat="48.07807" lon="3.23874">
        <ele>178.9</ele>
        <time>2024-04-21T07:44:38Z</time>
      </trkpt>
      <trkpt lat="48.07801" lon="3.23869">
        <ele>179.2</ele>
        <time>2024-04-21T07:44:53Z</time>
      </trkpt>
      <trkpt lat="48.07802" lon="3.23868">
        <ele>179.1</ele>
        <time>2024-04-21T07:45:12Z</time>
      </trkpt>
      <trkpt lat="48.07802" lon="3.23869">
        <ele>179.1</ele>
        <time>2024-04-21T07:45:27Z</time>
      </trkpt>
      <trkpt lat="48.078" lon="3.23869">
        <ele>179.2</ele>
        <time>2024-04-21T07:45:36Z</time>
      </trkpt>
      <trkpt lat="48.07798" lon="3.2387">
        <ele>179.3</ele>
        <time>2024-04-21T07:45:48Z</time>
      </trkpt>
      <trkpt lat="48.07797" lon="3.2387">
        <ele>179.3</ele>
        <time>2024-04-21T07:45:51Z</time>
      </trkpt>
      <trkpt lat="48.07792" lon="3.23878">
        <ele>179.5</ele>
        <time>2024-04-21T07:45:58Z</time>
      </trkpt>
      <trkpt lat="48.07783" lon="3.23893">
        <ele>180</ele>
        <time>2024-04-21T07:46:04Z</time>
      </trkpt>
      <trkpt lat="48.07771" lon="3.23906">
        <ele>180.7</ele>
        <time>2024-04-21T07:46:11Z</time>
      </trkpt>
      <trkpt lat="48.07755" lon="3.23921">
        <ele>181.1</ele>
        <time>2024-04-21T07:46:18Z</time>
      </trkpt>
      <trkpt lat="48.07739" lon="3.23936">
        <ele>182.2</ele>
        <time>2024-04-21T07:46:25Z</time>
      </trkpt>
      <trkpt lat="48.07726" lon="3.23948">
        <ele>183</ele>
        <time>2024-04-21T07:46:31Z</time>
      </trkpt>
      <trkpt lat="48.07718" lon="3.23957">
        <ele>183.6</ele>
        <time>2024-04-21T07:46:37Z</time>
      </trkpt>
      <trkpt lat="48.07697" lon="3.23977">
        <ele>184.9</ele>
        <time>2024-04-21T07:46:45Z</time>
      </trkpt>
      <trkpt lat="48.07682" lon="3.23991">
        <ele>185.4</ele>
        <time>2024-04-21T07:46:51Z</time>
      </trkpt>
      <trkpt lat="48.07672" lon="3.24003">
        <ele>185.8</ele>
        <time>2024-04-21T07:46:57Z</time>
      </trkpt>
      <trkpt lat="48.07673" lon="3.24009">
        <ele>185.8</ele>
        <time>2024-04-21T07:47:00Z</time>
      </trkpt>
      <trkpt lat="48.0768" lon="3.24012">
        <ele>185.5</ele>
        <time>2024-04-21T07:47:05Z</time>
      </trkpt>
      <trkpt lat="48.07701" lon="3.24009">
        <ele>184.8</ele>
        <time>2024-04-21T07:47:14Z</time>
      </trkpt>
      <trkpt lat="48.07726" lon="3.24003">
        <ele>184</ele>
        <time>2024-04-21T07:47:21Z</time>
      </trkpt>
      <trkpt lat="48.0773" lon="3.24003">
        <ele>183.8</ele>
        <time>2024-04-21T07:47:22Z</time>
      </trkpt>
      <trkpt lat="48.07758" lon="3.23995">
        <ele>182.7</ele>
        <time>2024-04-21T07:47:29Z</time>
      </trkpt>
      <trkpt lat="48.07785" lon="3.23987">
        <ele>181.7</ele>
        <time>2024-04-21T07:47:35Z</time>
      </trkpt>
      <trkpt lat="48.07788" lon="3.23987">
        <ele>181.6</ele>
        <time>2024-04-21T07:47:37Z</time>
      </trkpt>
      <trkpt lat="48.07796" lon="3.2399">
        <ele>181.3</ele>
        <time>2024-04-21T07:47:45Z</time>
      </trkpt>
      <trkpt lat="48.07798" lon="3.23991">
        <ele>181.3</ele>
        <time>2024-04-21T07:47:56Z</time>
      </trkpt>
      <trkpt lat="48.07799" lon="3.2399">
        <ele>181.2</ele>
        <time>2024-04-21T07:48:10Z</time>
      </trkpt>
      <trkpt lat="48.07796" lon="3.23996">
        <ele>181.3</ele>
        <time>2024-04-21T07:48:48Z</time>
      </trkpt>
      <trkpt lat="48.0779" lon="3.24013">
        <ele>182</ele>
        <time>2024-04-21T07:49:50Z</time>
      </trkpt>
      <trkpt lat="48.07792" lon="3.24009">
        <ele>181.8</ele>
        <time>2024-04-21T07:50:24Z</time>
      </trkpt>
      <trkpt lat="48.07801" lon="3.23985">
        <ele>181.2</ele>
        <time>2024-04-21T07:51:05Z</time>
      </trkpt>
      <trkpt lat="48.07805" lon="3.23986">
        <ele>181</ele>
        <time>2024-04-21T07:51:10Z</time>
      </trkpt>
      <trkpt lat="48.07817" lon="3.23981">
        <ele>180.6</ele>
        <time>2024-04-21T07:51:17Z</time>
      </trkpt>
      <trkpt lat="48.07839" lon="3.23974">
        <ele>179.8</ele>
        <time>2024-04-21T07:51:24Z</time>
      </trkpt>
      <trkpt lat="48.07861" lon="3.23967">
        <ele>178.8</ele>
        <time>2024-04-21T07:51:30Z</time>
      </trkpt>
      <trkpt lat="48.0787" lon="3.23964">
        <ele>178.4</ele>
        <time>2024-04-21T07:51:32Z</time>
      </trkpt>
      <trkpt lat="48.07883" lon="3.23961">
        <ele>177.8</ele>
        <time>2024-04-21T07:51:35Z</time>
      </trkpt>
      <trkpt lat="48.07916" lon="3.2395">
        <ele>177.2</ele>
        <time>2024-04-21T07:51:42Z</time>
      </trkpt>
      <trkpt lat="48.07948" lon="3.23943">
        <ele>177.1</ele>
        <time>2024-04-21T07:51:49Z</time>
      </trkpt>
      <trkpt lat="48.07983" lon="3.23936">
        <ele>177.7</ele>
        <time>2024-04-21T07:51:57Z</time>
      </trkpt>
      <trkpt lat="48.08015" lon="3.23926">
        <ele>177.7</ele>
        <time>2024-04-21T07:52:05Z</time>
      </trkpt>
      <trkpt lat="48.08019" lon="3.23926">
        <ele>177.8</ele>
        <time>2024-04-21T07:52:06Z</time>
      </trkpt>
      <trkpt lat="48.08051" lon="3.23917">
        <ele>178</ele>
        <time>2024-04-21T07:52:14Z</time>
      </trkpt>
      <trkpt lat="48.08074" lon="3.23909">
        <ele>178.7</ele>
        <time>2024-04-21T07:52:20Z</time>
      </trkpt>
      <trkpt lat="48.08086" lon="3.23908">
        <ele>179</ele>
        <time>2024-04-21T07:52:24Z</time>
      </trkpt>
      <trkpt lat="48.08089" lon="3.23918">
        <ele>179</ele>
        <time>2024-04-21T07:52:29Z</time>
      </trkpt>
      <trkpt lat="48.0808" lon="3.23935">
        <ele>179</ele>
        <time>2024-04-21T07:52:36Z</time>
      </trkpt>
      <trkpt lat="48.08067" lon="3.23954">
        <ele>179</ele>
        <time>2024-04-21T07:52:43Z</time>
      </trkpt>
      <trkpt lat="48.08055" lon="3.23972">
        <ele>179</ele>
        <time>2024-04-21T07:52:49Z</time>
      </trkpt>
      <trkpt lat="48.08046" lon="3.23985">
        <ele>179</ele>
        <time>2024-04-21T07:52:54Z</time>
      </trkpt>
      <trkpt lat="48.08034" lon="3.24005">
        <ele>179</ele>
        <time>2024-04-21T07:53:01Z</time>
      </trkpt>
      <trkpt lat="48.08022" lon="3.24023">
        <ele>179</ele>
        <time>2024-04-21T07:53:07Z</time>
      </trkpt>
      <trkpt lat="48.0801" lon="3.24039">
        <ele>179.4</ele>
        <time>2024-04-21T07:53:13Z</time>
      </trkpt>
      <trkpt lat="48.08008" lon="3.24042">
        <ele>179.5</ele>
        <time>2024-04-21T07:53:15Z</time>
      </trkpt>
      <trkpt lat="48.08008" lon="3.24056">
        <ele>180</ele>
        <time>2024-04-21T07:53:21Z</time>
      </trkpt>
      <trkpt lat="48.08009" lon="3.24074">
        <ele>180</ele>
        <time>2024-04-21T07:53:28Z</time>
      </trkpt>
      <trkpt lat="48.0801" lon="3.24084">
        <ele>180</ele>
        <time>2024-04-21T07:54:12Z</time>
      </trkpt>
      <trkpt lat="48.08012" lon="3.24081">
        <ele>180</ele>
        <time>2024-04-21T07:54:39Z</time>
      </trkpt>
      <trkpt lat="48.08009" lon="3.24077">
        <ele>180</ele>
        <time>2024-04-21T07:54:57Z</time>
      </trkpt>
      <trkpt lat="48.08008" lon="3.24075">
        <ele>180</ele>
        <time>2024-04-21T07:54:58Z</time>
      </trkpt>
      <trkpt lat="48.08007" lon="3.24072">
        <ele>180</ele>
        <time>2024-04-21T07:55:00Z</time>
      </trkpt>
      <trkpt lat="48.08004" lon="3.24055">
        <ele>180</ele>
        <time>2024-04-21T07:55:08Z</time>
      </trkpt>
      <trkpt lat="48.08015" lon="3.24032">
        <ele>179.2</ele>
        <time>2024-04-21T07:55:16Z</time>
      </trkpt>
      <trkpt lat="48.08026" lon="3.24018">
        <ele>179</ele>
        <time>2024-04-21T07:55:22Z</time>
      </trkpt>
      <trkpt lat="48.08036" lon="3.24001">
        <ele>179</ele>
        <time>2024-04-21T07:55:28Z</time>
      </trkpt>
      <trkpt lat="48.0805" lon="3.23978">
        <ele>179</ele>
        <time>2024-04-21T07:55:35Z</time>
      </trkpt>
      <trkpt lat="48.08061" lon="3.23961">
        <ele>179</ele>
        <time>2024-04-21T07:55:41Z</time>
      </trkpt>
      <trkpt lat="48.08065" lon="3.23957">
        <ele>179</ele>
        <time>2024-04-21T07:55:43Z</time>
      </trkpt>
      <trkpt lat="48.08074" lon="3.23945">
        <ele>179</ele>
        <time>2024-04-21T07:55:50Z</time>
      </trkpt>
      <trkpt lat="48.08088" lon="3.23926">
        <ele>179</ele>
        <time>2024-04-21T07:55:59Z</time>
      </trkpt>
      <trkpt lat="48.08095" lon="3.23917">
        <ele>179</ele>
        <time>2024-04-21T07:56:04Z</time>
      </trkpt>
      <trkpt lat="48.08105" lon="3.2392">
        <ele>179</ele>
        <time>2024-04-21T07:56:09Z</time>
      </trkpt>
      <trkpt lat="48.08119" lon="3.23933">
        <ele>178.8</ele>
        <time>2024-04-21T07:56:15Z</time>
      </trkpt>
      <trkpt lat="48.08122" lon="3.23937">
        <ele>178.7</ele>
        <time>2024-04-21T07:56:18Z</time>
      </trkpt>
      <trkpt lat="48.08127" lon="3.23936">
        <ele>178.6</ele>
        <time>2024-04-21T07:56:20Z</time>
      </trkpt>
      <trkpt lat="48.0814" lon="3.23943">
        <ele>178.1</ele>
      </trkpt>
      <trkpt lat="48.08157" lon="3.23923">
        <ele>178.3</ele>
        <time>2024-04-21T07:56:30Z</time>
      </trkpt>
      <trkpt lat="48.08173" lon="3.23899">
        <ele>178.1</ele>
        <time>2024-04-21T07:56:38Z</time>
      </trkpt>
      <trkpt lat="48.08185" lon="3.23878">
        <ele>178.8</ele>
        <time>2024-04-21T07:56:45Z</time>
      </trkpt>
      <trkpt lat="48.08198" lon="3.2386">
        <ele>179</ele>
        <time>2024-04-21T07:56:52Z</time>
      </trkpt>
      <trkpt lat="48.08215" lon="3.23836">
        <ele>179</ele>
        <time>2024-04-21T07:57:01Z</time>
      </trkpt>
      <trkpt lat="48.0823" lon="3.23815">
        <ele>179.8</ele>
        <time>2024-04-21T07:57:09Z</time>
      </trkpt>
      <trkpt lat="48.08244" lon="3.2379">
        <ele>180</ele>
        <time>2024-04-21T07:57:18Z</time>
      </trkpt>
      <trkpt lat="48.08241" lon="3.23777">
        <ele>180</ele>
        <time>2024-04-21T07:57:23Z</time>
      </trkpt>
      <trkpt lat="48.08233" lon="3.23757">
        <ele>180.3</ele>
        <time>2024-04-21T07:57:30Z</time>
      </trkpt>
      <trkpt lat="48.08239" lon="3.23736">
        <ele>180.6</ele>
        <time>2024-04-21T07:57:37Z</time>
      </trkpt>
      <trkpt lat="48.08252" lon="3.2372">
        <ele>180.9</ele>
        <time>2024-04-21T07:57:44Z</time>
      </trkpt>
      <trkpt lat="48.08269" lon="3.23695">
        <ele>180.7</ele>
        <time>2024-04-21T07:57:54Z</time>
      </trkpt>
      <trkpt lat="48.08285" lon="3.23673">
        <ele>180.4</ele>
        <time>2024-04-21T07:58:03Z</time>
      </trkpt>
      <trkpt lat="48.08293" lon="3.23663">
        <ele>180.4</ele>
        <time>2024-04-21T07:58:08Z</time>
      </trkpt>
      <trkpt lat="48.08305" lon="3.23647">
        <ele>180.3</ele>
        <time>2024-04-21T07:58:15Z</time>
      </trkpt>
      <trkpt lat="48.08302" lon="3.23635">
        <ele>179.7</ele>
        <time>2024-04-21T07:58:20Z</time>
      </trkpt>
      <trkpt lat="48.08289" lon="3.23623">
        <ele>179.2</ele>
        <time>2024-04-21T07:58:26Z</time>
      </trkpt>
      <trkpt lat="48.08277" lon="3.23617">
        <ele>179</ele>
        <time>2024-04-21T07:58:32Z</time>
      </trkpt>
      <trkpt lat="48.08268" lon="3.23612">
        <ele>178.7</ele>
        <time>2024-04-21T07:58:37Z</time>
      </trkpt>
      <trkpt lat="48.08259" lon="3.23604">
        <ele>178.2</ele>
        <time>2024-04-21T07:58:44Z</time>
      </trkpt>
      <trkpt lat="48.08248" lon="3.23593">
        <ele>178</ele>
        <time>2024-04-21T07:58:51Z</time>
      </trkpt>
      <trkpt lat="48.0824" lon="3.23585">
        <ele>177.7</ele>
        <time>2024-04-21T07:58:56Z</time>
      </trkpt>
      <trkpt lat="48.08227" lon="3.23568">
        <ele>177.6</ele>
        <time>2024-04-21T07:59:04Z</time>
      </trkpt>
      <trkpt lat="48.08223" lon="3.23561">
        <ele>177.8</ele>
        <time>2024-04-21T07:59:10Z</time>
      </trkpt>
      <trkpt lat="48.08223" lon="3.23557">
        <ele>177.9</ele>
        <time>2024-04-21T07:59:38Z</time>
      </trkpt>
      <trkpt lat="48.08227" lon="3.23557">
        <ele>178</ele>
        <time>2024-04-21T08:00:25Z</time>
      </trkpt>
      <trkpt lat="48.08229" lon="3.23563">
        <ele>177.8</ele>
        <time>2024-04-21T08:00:31Z</time>
      </trkpt>
      <trkpt lat="48.08234" lon="3.23572">
        <ele>177.7</ele>
        <time>2024-04-21T08:00:38Z</time>
      </trkpt>
      <trkpt lat="48.08236" lon="3.23576">
        <ele>177.6</ele>
        <time>2024-04-21T08:00:40Z</time>
      </trkpt>
      <trkpt lat="48.08248" lon="3.23587">
        <ele>177.9</ele>
        <time>2024-04-21T08:00:46Z</time>
      </trkpt>
      <trkpt lat="48.08266" lon="3.23606">
        <ele>178.5</ele>
        <time>2024-04-21T08:00:55Z</time>
      </trkpt>
      <trkpt lat="48.08276" lon="3.23614">
        <ele>178.9</ele>
        <time>2024-04-21T08:00:59Z</time>
      </trkpt>
      <trkpt lat="48.08295" lon="3.23626">
        <ele>179.3</ele>
        <time>2024-04-21T08:01:07Z</time>
      </trkpt>
      <trkpt lat="48.08304" lon="3.23638">
        <ele>179.9</ele>
        <time>2024-04-21T08:01:12Z</time>
      </trkpt>
      <trkpt lat="48.08315" lon="3.2364">
        <ele>180.4</ele>
        <time>2024-04-21T08:01:17Z</time>
      </trkpt>
      <trkpt lat="48.08328" lon="3.23631">
        <ele>180.3</ele>
        <time>2024-04-21T08:01:23Z</time>
      </trkpt>
      <trkpt lat="48.08355" lon="3.236">
        <ele>177.9</ele>
        <time>2024-04-21T08:01:34Z</time>
      </trkpt>
      <trkpt lat="48.08363" lon="3.23589">
        <ele>176.5</ele>
      </trkpt>
      <trkpt lat="48.08368" lon="3.23597">
        <ele>177.1</ele>
        <time>2024-04-21T08:01:39Z</time>
      </trkpt>
      <trkpt lat="48.08387" lon="3.23623">
        <ele>178</ele>
        <time>2024-04-21T08:01:48Z</time>
      </trkpt>
      <trkpt lat="48.08408" lon="3.23655">
        <ele>177.7</ele>
        <time>2024-04-21T08:01:57Z</time>
      </trkpt>
      <trkpt lat="48.08432" lon="3.23694">
        <ele>177.9</ele>
        <time>2024-04-21T08:02:07Z</time>
      </trkpt>
      <trkpt lat="48.08454" lon="3.23726">
        <ele>177.4</ele>
        <time>2024-04-21T08:02:15Z</time>
      </trkpt>
      <trkpt lat="48.08477" lon="3.23766">
        <ele>177.4</ele>
        <time>2024-04-21T08:02:24Z</time>
      </trkpt>
      <trkpt lat="48.08501" lon="3.23804">
        <ele>177.9</ele>
        <time>2024-04-21T08:02:33Z</time>
      </trkpt>
      <trkpt lat="48.08523" lon="3.23839">
        <ele>177.4</ele>
        <time>2024-04-21T08:02:41Z</time>
      </trkpt>
      <trkpt lat="48.08549" lon="3.23879">
        <ele>177</ele>
        <time>2024-04-21T08:02:51Z</time>
      </trkpt>
      <trkpt lat="48.0857" lon="3.23912">
        <ele>176.9</ele>
        <time>2024-04-21T08:03:00Z</time>
      </trkpt>
      <trkpt lat="48.08572" lon="3.23924">
        <ele>177</ele>
        <time>2024-04-21T08:03:03Z</time>
      </trkpt>
      <trkpt lat="48.08559" lon="3.23944">
        <ele>177.9</ele>
        <time>2024-04-21T08:03:10Z</time>
      </trkpt>
      <trkpt lat="48.0855" lon="3.23968">
        <ele>178</ele>
        <time>2024-04-21T08:03:17Z</time>
      </trkpt>
      <trkpt lat="48.08556" lon="3.2399">
        <ele>178</ele>
        <time>2024-04-21T08:03:22Z</time>
      </trkpt>
      <trkpt lat="48.08572" lon="3.24013">
        <ele>178</ele>
        <time>2024-04-21T08:03:29Z</time>
      </trkpt>
      <trkpt lat="48.08594" lon="3.24045">
        <ele>177.6</ele>
        <time>2024-04-21T08:03:38Z</time>
      </trkpt>
      <trkpt lat="48.08599" lon="3.24053">
        <ele>177.4</ele>
        <time>2024-04-21T08:03:40Z</time>
      </trkpt>
      <trkpt lat="48.08598" lon="3.24073">
        <ele>177.2</ele>
        <time>2024-04-21T08:03:44Z</time>
      </trkpt>
      <trkpt lat="48.08568" lon="3.24123">
        <ele>175.3</ele>
        <time>2024-04-21T08:03:54Z</time>
      </trkpt>
      <trkpt lat="48.0855" lon="3.24154">
        <ele>174.2</ele>
        <time>2024-04-21T08:04:00Z</time>
      </trkpt>
      <trkpt lat="48.08545" lon="3.24156">
        <ele>173.9</ele>
        <time>2024-04-21T08:04:04Z</time>
      </trkpt>
      <trkpt lat="48.08544" lon="3.24159">
        <ele>173.7</ele>
        <time>2024-04-21T08:04:19Z</time>
      </trkpt>
      <trkpt lat="48.08543" lon="3.2416">
        <ele>173.7</ele>
        <time>2024-04-21T08:04:32Z</time>
      </trkpt>
      <trkpt lat="48.08548" lon="3.24159">
        <ele>173.9</ele>
        <time>2024-04-21T08:04:37Z</time>
      </trkpt>
      <trkpt lat="48.08557" lon="3.24146">
        <ele>174.7</ele>
        <time>2024-04-21T08:04:44Z</time>
      </trkpt>
      <trkpt lat="48.08571" lon="3.2412">
        <ele>175.4</ele>
        <time>2024-04-21T08:04:52Z</time>
      </trkpt>
      <trkpt lat="48.08591" lon="3.24086">
        <ele>176.9</ele>
        <time>2024-04-21T08:05:02Z</time>
      </trkpt>
      <trkpt lat="48.08606" lon="3.2407">
        <ele>177.1</ele>
        <time>2024-04-21T08:05:09Z</time>
      </trkpt>
      <trkpt lat="48.08609" lon="3.24071">
        <ele>177</ele>
        <time>2024-04-21T08:05:10Z</time>
      </trkpt>
      <trkpt lat="48.08632" lon="3.24104">
        <ele>176.1</ele>
        <time>2024-04-21T08:05:19Z</time>
      </trkpt>
      <trkpt lat="48.08662" lon="3.2415">
        <ele>175.1</ele>
        <time>2024-04-21T08:05:29Z</time>
      </trkpt>
      <trkpt lat="48.08665" lon="3.24155">
        <ele>175</ele>
        <time>2024-04-21T08:05:30Z</time>
      </trkpt>
      <trkpt lat="48.08684" lon="3.24185">
        <ele>175.4</ele>
        <time>2024-04-21T08:05:36Z</time>
      </trkpt>
      <trkpt lat="48.08693" lon="3.242">
        <ele>175.9</ele>
        <time>2024-04-21T08:05:39Z</time>
      </trkpt>
      <trkpt lat="48.08717" lon="3.24242">
        <ele>175.3</ele>
        <time>2024-04-21T08:05:47Z</time>
      </trkpt>
      <trkpt lat="48.08746" lon="3.24294">
        <ele>174.9</ele>
        <time>2024-04-21T08:05:57Z</time>
      </trkpt>
      <trkpt lat="48.08767" lon="3.24328">
        <ele>175</ele>
        <time>2024-04-21T08:06:05Z</time>
      </trkpt>
      <trkpt lat="48.08779" lon="3.24322">
        <ele>175</ele>
        <time>2024-04-21T08:06:09Z</time>
      </trkpt>
      <trkpt lat="48.08803" lon="3.2429">
        <ele>174.1</ele>
        <time>2024-04-21T08:06:18Z</time>
      </trkpt>
      <trkpt lat="48.08833" lon="3.24252">
        <ele>173.1</ele>
        <time>2024-04-21T08:06:28Z</time>
      </trkpt>
      <trkpt lat="48.08859" lon="3.24208">
        <ele>171.1</ele>
        <time>2024-04-21T08:06:37Z</time>
      </trkpt>
      <trkpt lat="48.08866" lon="3.24188">
        <ele>170.4</ele>
        <time>2024-04-21T08:06:40Z</time>
      </trkpt>
      <trkpt lat="48.08864" lon="3.24155">
        <ele>169</ele>
        <time>2024-04-21T08:06:45Z</time>
      </trkpt>
      <trkpt lat="48.0886" lon="3.24149">
        <ele>168.8</ele>
        <time>2024-04-21T08:06:46Z</time>
      </trkpt>
      <trkpt lat="48.08831" lon="3.24102">
        <ele>167.5</ele>
        <time>2024-04-21T08:06:56Z</time>
      </trkpt>
      <trkpt lat="48.08825" lon="3.24084">
        <ele>166.9</ele>
        <time>2024-04-21T08:07:00Z</time>
      </trkpt>
      <trkpt lat="48.08832" lon="3.24058">
        <ele>164.3</ele>
        <time>2024-04-21T08:07:04Z</time>
      </trkpt>
      <trkpt lat="48.08854" lon="3.2402">
        <ele>160.2</ele>
        <time>2024-04-21T08:07:09Z</time>
      </trkpt>
      <trkpt lat="48.08869" lon="3.23993">
        <ele>156.6</ele>
        <time>2024-04-21T08:07:12Z</time>
      </trkpt>
      <trkpt lat="48.08878" lon="3.23975">
        <ele>154.4</ele>
        <time>2024-04-21T08:07:14Z</time>
      </trkpt>
      <trkpt lat="48.08882" lon="3.23969">
        <ele>153.4</ele>
        <time>2024-04-21T08:07:15Z</time>
      </trkpt>
      <trkpt lat="48.08896" lon="3.23941">
        <ele>148.9</ele>
        <time>2024-04-21T08:07:18Z</time>
      </trkpt>
      <trkpt lat="48.08903" lon="3.23925">
        <ele>146.4</ele>
        <time>2024-04-21T08:07:20Z</time>
      </trkpt>
      <trkpt lat="48.08913" lon="3.23908">
        <ele>143.5</ele>
        <time>2024-04-21T08:07:22Z</time>
      </trkpt>
      <trkpt lat="48.08925" lon="3.23886">
        <ele>139.4</ele>
        <time>2024-04-21T08:07:24Z</time>
      </trkpt>
      <trkpt lat="48.08942" lon="3.23858">
        <ele>133.9</ele>
        <time>2024-04-21T08:07:27Z</time>
      </trkpt>
      <trkpt lat="48.08951" lon="3.23842">
        <ele>131</ele>
        <time>2024-04-21T08:07:29Z</time>
      </trkpt>
      <trkpt lat="48.08962" lon="3.23823">
        <ele>127</ele>
        <time>2024-04-21T08:07:31Z</time>
      </trkpt>
      <trkpt lat="48.08973" lon="3.23802">
        <ele>122.5</ele>
        <time>2024-04-21T08:07:33Z</time>
      </trkpt>
      <trkpt lat="48.08978" lon="3.23792">
        <ele>120.8</ele>
        <time>2024-04-21T08:07:34Z</time>
      </trkpt>
      <trkpt lat="48.08982" lon="3.23776">
        <ele>118.4</ele>
        <time>2024-04-21T08:07:36Z</time>
      </trkpt>
      <trkpt lat="48.08982" lon="3.2377">
        <ele>117.8</ele>
        <time>2024-04-21T08:07:37Z</time>
      </trkpt>
      <trkpt lat="48.08981" lon="3.23763">
        <ele>117.1</ele>
        <time>2024-04-21T08:07:38Z</time>
      </trkpt>
      <trkpt lat="48.08978" lon="3.23756">
        <ele>116.8</ele>
        <time>2024-04-21T08:07:39Z</time>
      </trkpt>
      <trkpt lat="48.08974" lon="3.23749">
        <ele>116.6</ele>
        <time>2024-04-21T08:07:40Z</time>
      </trkpt>
      <trkpt lat="48.0897" lon="3.23743">
        <ele>116.6</ele>
        <time>2024-04-21T08:07:41Z</time>
      </trkpt>
      <trkpt lat="48.08966" lon="3.23736">
        <ele>116.4</ele>
        <time>2024-04-21T08:07:42Z</time>
      </trkpt>
      <trkpt lat="48.08962" lon="3.23729">
        <ele>116.2</ele>
        <time>2024-04-21T08:07:43Z</time>
      </trkpt>
      <trkpt lat="48.08941" lon="3.23697">
        <ele>115.6</ele>
        <time>2024-04-21T08:07:48Z</time>
      </trkpt>
      <trkpt lat="48.08932" lon="3.23685">
        <ele>115.3</ele>
        <time>2024-04-21T08:07:50Z</time>
      </trkpt>
      <trkpt lat="48.08909" lon="3.23652">
        <ele>114.1</ele>
        <time>2024-04-21T08:07:56Z</time>
      </trkpt>
      <trkpt lat="48.08906" lon="3.23647">
        <ele>113.8</ele>
        <time>2024-04-21T08:07:57Z</time>
      </trkpt>
      <trkpt lat="48.08902" lon="3.23643">
        <ele>113.6</ele>
        <time>2024-04-21T08:07:58Z</time>
      </trkpt>
      <trkpt lat="48.08899" lon="3.23638">
        <ele>113.2</ele>
        <time>2024-04-21T08:07:59Z</time>
      </trkpt>
      <trkpt lat="48.08896" lon="3.23631">
        <ele>112.6</ele>
        <time>2024-04-21T08:08:00Z</time>
      </trkpt>
      <trkpt lat="48.08893" lon="3.23625">
        <ele>112.2</ele>
        <time>2024-04-21T08:08:01Z</time>
      </trkpt>
      <trkpt lat="48.08879" lon="3.23599">
        <ele>110.4</ele>
        <time>2024-04-21T08:08:05Z</time>
      </trkpt>
      <trkpt lat="48.08875" lon="3.23592">
        <ele>109.9</ele>
        <time>2024-04-21T08:08:06Z</time>
      </trkpt>
      <trkpt lat="48.08871" lon="3.23585">
        <ele>109.5</ele>
        <time>2024-04-21T08:08:07Z</time>
      </trkpt>
      <trkpt lat="48.08867" lon="3.2358">
        <ele>109.2</ele>
        <time>2024-04-21T08:08:08Z</time>
      </trkpt>
      <trkpt lat="48.08863" lon="3.23574">
        <ele>108.9</ele>
        <time>2024-04-21T08:08:09Z</time>
      </trkpt>
      <trkpt lat="48.08845" lon="3.23546">
        <ele>107.6</ele>
        <time>2024-04-21T08:08:14Z</time>
      </trkpt>
      <trkpt lat="48.08842" lon="3.23539">
        <ele>107.1</ele>
        <time>2024-04-21T08:08:15Z</time>
      </trkpt>
      <trkpt lat="48.08838" lon="3.23526">
        <ele>106.2</ele>
        <time>2024-04-21T08:08:17Z</time>
      </trkpt>
      <trkpt lat="48.08835" lon="3.23522">
        <ele>106.4</ele>
        <time>2024-04-21T08:08:18Z</time>
      </trkpt>
      <trkpt lat="48.08831" lon="3.23518">
        <ele>106.5</ele>
        <time>2024-04-21T08:08:19Z</time>
      </trkpt>
      <trkpt lat="48.08827" lon="3.23516">
        <ele>106.8</ele>
        <time>2024-04-21T08:08:20Z</time>
      </trkpt>
      <trkpt lat="48.08822" lon="3.23515">
        <ele>107.3</ele>
        <time>2024-04-21T08:08:21Z</time>
      </trkpt>
      <trkpt lat="48.08817" lon="3.23513">
        <ele>107.7</ele>
        <time>2024-04-21T08:08:22Z</time>
      </trkpt>
      <trkpt lat="48.0879" lon="3.23501">
        <ele>109.8</ele>
        <time>2024-04-21T08:08:28Z</time>
      </trkpt>
      <trkpt lat="48.08786" lon="3.23498">
        <ele>109.9</ele>
        <time>2024-04-21T08:08:29Z</time>
      </trkpt>
      <trkpt lat="48.08782" lon="3.23493">
        <ele>109.8</ele>
        <time>2024-04-21T08:08:31Z</time>
      </trkpt>
      <trkpt lat="48.0878" lon="3.23489">
        <ele>109.6</ele>
        <time>2024-04-21T08:08:38Z</time>
      </trkpt>
      <trkpt lat="48.08781" lon="3.23488">
        <ele>109.4</ele>
        <time>2024-04-21T08:08:56Z</time>
      </trkpt>
      <trkpt lat="48.08783" lon="3.23487">
        <ele>109.1</ele>
        <time>2024-04-21T08:09:15Z</time>
      </trkpt>
      <trkpt lat="48.08779" lon="3.23489">
        <ele>109.6</ele>
        <time>2024-04-21T08:10:07Z</time>
      </trkpt>
      <trkpt lat="48.08771" lon="3.23474">
        <ele>109.2</ele>
        <time>2024-04-21T08:10:14Z</time>
      </trkpt>
      <trkpt lat="48.0876" lon="3.23455">
        <ele>108.9</ele>
        <time>2024-04-21T08:10:20Z</time>
      </trkpt>
      <trkpt lat="48.08743" lon="3.23432">
        <ele>109.3</ele>
        <time>2024-04-21T08:10:28Z</time>
      </trkpt>
      <trkpt lat="48.0873" lon="3.23418">
        <ele>110</ele>
        <time>2024-04-21T08:10:34Z</time>
      </trkpt>
      <trkpt lat="48.08712" lon="3.234">
        <ele>111.4</ele>
        <time>2024-04-21T08:10:42Z</time>
      </trkpt>
      <trkpt lat="48.08697" lon="3.23378">
        <ele>112.3</ele>
        <time>2024-04-21T08:10:50Z</time>
      </trkpt>
      <trkpt lat="48.08683" lon="3.23341">
        <ele>111.7</ele>
        <time>2024-04-21T08:10:59Z</time>
      </trkpt>
      <trkpt lat="48.08668" lon="3.23306">
        <ele>111.8</ele>
        <time>2024-04-21T08:11:08Z</time>
      </trkpt>
      <trkpt lat="48.08657" lon="3.23282">
        <ele>112.4</ele>
        <time>2024-04-21T08:11:15Z</time>
      </trkpt>
      <trkpt lat="48.08647" lon="3.23257">
        <ele>112.2</ele>
        <time>2024-04-21T08:11:22Z</time>
      </trkpt>
      <trkpt lat="48.08635" lon="3.23227">
        <ele>112.1</ele>
        <time>2024-04-21T08:11:29Z</time>
      </trkpt>
      <trkpt lat="48.08621" lon="3.23206">
        <ele>112.7</ele>
        <time>2024-04-21T08:11:34Z</time>
      </trkpt>
      <trkpt lat="48.08595" lon="3.23167">
        <ele>112.9</ele>
        <time>2024-04-21T08:11:43Z</time>
      </trkpt>
      <trkpt lat="48.08569" lon="3.23126">
        <ele>113.2</ele>
        <time>2024-04-21T08:11:52Z</time>
      </trkpt>
      <trkpt lat="48.0855" lon="3.23092">
        <ele>112.5</ele>
        <time>2024-04-21T08:12:00Z</time>
      </trkpt>
      <trkpt lat="48.08531" lon="3.23064">
        <ele>112.6</ele>
        <time>2024-04-21T08:12:07Z</time>
      </trkpt>
      <trkpt lat="48.08519" lon="3.23053">
        <ele>113.1</ele>
        <time>2024-04-21T08:12:10Z</time>
      </trkpt>
      <trkpt lat="48.08504" lon="3.23035">
        <ele>113.3</ele>
        <time>2024-04-21T08:12:14Z</time>
      </trkpt>
      <trkpt lat="48.08488" lon="3.23009">
        <ele>112.8</ele>
        <time>2024-04-21T08:12:20Z</time>
      </trkpt>
      <trkpt lat="48.0847" lon="3.2299">
        <ele>112.6</ele>
        <time>2024-04-21T08:12:27Z</time>
      </trkpt>
      <trkpt lat="48.08455" lon="3.22975">
        <ele>113.1</ele>
        <time>2024-04-21T08:12:33Z</time>
      </trkpt>
      <trkpt lat="48.08433" lon="3.22958">
        <ele>114</ele>
        <time>2024-04-21T08:12:40Z</time>
      </trkpt>
      <trkpt lat="48.08411" lon="3.2294">
        <ele>114.3</ele>
        <time>2024-04-21T08:12:47Z</time>
      </trkpt>
      <trkpt lat="48.08388" lon="3.22915">
        <ele>114</ele>
        <time>2024-04-21T08:12:54Z</time>
      </trkpt>
      <trkpt lat="48.08358" lon="3.22887">
        <ele>114.2</ele>
        <time>2024-04-21T08:13:01Z</time>
      </trkpt>
      <trkpt lat="48.08335" lon="3.22867">
        <ele>114.5</ele>
        <time>2024-04-21T08:13:08Z</time>
      </trkpt>
      <trkpt lat="48.08333" lon="3.22863">
        <ele>114.2</ele>
        <time>2024-04-21T08:13:14Z</time>
      </trkpt>
      <trkpt lat="48.0833" lon="3.22862">
        <ele>114.5</ele>
        <time>2024-04-21T08:13:26Z</time>
      </trkpt>
      <trkpt lat="48.08328" lon="3.22862">
        <ele>114.7</ele>
        <time>2024-04-21T08:13:45Z</time>
      </trkpt>
      <trkpt lat="48.0833" lon="3.22865">
        <ele>114.8</ele>
        <time>2024-04-21T08:13:56Z</time>
      </trkpt>
      <trkpt lat="48.08331" lon="3.22865">
        <ele>114.7</ele>
        <time>2024-04-21T08:13:57Z</time>
      </trkpt>
      <trkpt lat="48.08332" lon="3.22866">
        <ele>114.7</ele>
        <time>2024-04-21T08:13:58Z</time>
      </trkpt>
      <trkpt lat="48.08334" lon="3.22867">
        <ele>114.6</ele>
        <time>2024-04-21T08:13:59Z</time>
      </trkpt>
      <trkpt lat="48.08336" lon="3.22868">
        <ele>114.5</ele>
        <time>2024-04-21T08:14:00Z</time>
      </trkpt>
      <trkpt lat="48.08338" lon="3.2287">
        <ele>114.6</ele>
        <time>2024-04-21T08:14:01Z</time>
      </trkpt>
      <trkpt lat="48.08339" lon="3.22872">
        <ele>114.7</ele>
        <time>2024-04-21T08:14:02Z</time>
      </trkpt>
      <trkpt lat="48.08341" lon="3.22874">
        <ele>114.7</ele>
        <time>2024-04-21T08:14:03Z</time>
      </trkpt>
      <trkpt lat="48.08343" lon="3.22875">
        <ele>114.6</ele>
        <time>2024-04-21T08:14:04Z</time>
      </trkpt>
      <trkpt lat="48.08345" lon="3.22877">
        <ele>114.6</ele>
        <time>2024-04-21T08:14:05Z</time>
      </trkpt>
      <trkpt lat="48.08348" lon="3.22879">
        <ele>114.5</ele>
        <time>2024-04-21T08:14:06Z</time>
      </trkpt>
      <trkpt lat="48.08369" lon="3.22897">
        <ele>114.2</ele>
        <time>2024-04-21T08:14:13Z</time>
      </trkpt>
      <trkpt lat="48.08389" lon="3.22916">
        <ele>113.9</ele>
        <time>2024-04-21T08:14:20Z</time>
      </trkpt>
      <trkpt lat="48.0841" lon="3.22939">
        <ele>114.3</ele>
        <time>2024-04-21T08:14:27Z</time>
      </trkpt>
      <trkpt lat="48.0843" lon="3.22955">
        <ele>114</ele>
        <time>2024-04-21T08:14:33Z</time>
      </trkpt>
      <trkpt lat="48.08458" lon="3.22978">
        <ele>113.1</ele>
        <time>2024-04-21T08:14:41Z</time>
      </trkpt>
      <trkpt lat="48.08465" lon="3.22984">
        <ele>112.7</ele>
        <time>2024-04-21T08:14:44Z</time>
      </trkpt>
      <trkpt lat="48.08467" lon="3.22989">
        <ele>112.9</ele>
        <time>2024-04-21T08:14:48Z</time>
      </trkpt>
      <trkpt lat="48.08466" lon="3.22991">
        <ele>113.2</ele>
        <time>2024-04-21T08:14:53Z</time>
      </trkpt>
      <trkpt lat="48.08459" lon="3.22991">
        <ele>114.1</ele>
        <time>2024-04-21T08:15:02Z</time>
      </trkpt>
      <trkpt lat="48.08453" lon="3.22996">
        <ele>115.4</ele>
        <time>2024-04-21T08:15:09Z</time>
      </trkpt>
      <trkpt lat="48.08447" lon="3.23002">
        <ele>116.9</ele>
        <time>2024-04-21T08:15:16Z</time>
      </trkpt>
      <trkpt lat="48.08438" lon="3.23014">
        <ele>120.1</ele>
        <time>2024-04-21T08:15:27Z</time>
      </trkpt>
      <trkpt lat="48.08434" lon="3.23021">
        <ele>121.8</ele>
        <time>2024-04-21T08:15:35Z</time>
      </trkpt>
      <trkpt lat="48.0843" lon="3.2303">
        <ele>124</ele>
        <time>2024-04-21T08:15:44Z</time>
      </trkpt>
      <trkpt lat="48.08425" lon="3.23039">
        <ele>126.2</ele>
        <time>2024-04-21T08:15:51Z</time>
      </trkpt>
      <trkpt lat="48.08421" lon="3.23046">
        <ele>127.9</ele>
        <time>2024-04-21T08:15:59Z</time>
      </trkpt>
      <trkpt lat="48.08415" lon="3.23052">
        <ele>129.7</ele>
        <time>2024-04-21T08:16:07Z</time>
      </trkpt>
      <trkpt lat="48.0841" lon="3.23056">
        <ele>131</ele>
        <time>2024-04-21T08:16:14Z</time>
      </trkpt>
      <trkpt lat="48.0841" lon="3.23057">
        <ele>131.1</ele>
        <time>2024-04-21T08:16:21Z</time>
      </trkpt>
      <trkpt lat="48.08409" lon="3.23057">
        <ele>131.3</ele>
        <time>2024-04-21T08:16:23Z</time>
      </trkpt>
      <trkpt lat="48.08397" lon="3.2306">
        <ele>133.3</ele>
        <time>2024-04-21T08:16:33Z</time>
      </trkpt>
      <trkpt lat="48.08382" lon="3.23064">
        <ele>135.9</ele>
        <time>2024-04-21T08:16:44Z</time>
      </trkpt>
      <trkpt lat="48.08373" lon="3.23067">
        <ele>137.5</ele>
        <time>2024-04-21T08:16:50Z</time>
      </trkpt>
      <trkpt lat="48.08361" lon="3.23075">
        <ele>140.1</ele>
        <time>2024-04-21T08:16:59Z</time>
      </trkpt>
      <trkpt lat="48.08351" lon="3.23083">
        <ele>142.1</ele>
        <time>2024-04-21T08:17:07Z</time>
      </trkpt>
      <trkpt lat="48.08336" lon="3.2309">
        <ele>144.4</ele>
        <time>2024-04-21T08:17:17Z</time>
      </trkpt>
      <trkpt lat="48.08327" lon="3.23095">
        <ele>145.6</ele>
        <time>2024-04-21T08:17:24Z</time>
      </trkpt>
      <trkpt lat="48.08317" lon="3.23102">
        <ele>146.8</ele>
        <time>2024-04-21T08:17:32Z</time>
      </trkpt>
      <trkpt lat="48.08309" lon="3.23109">
        <ele>147.7</ele>
        <time>2024-04-21T08:17:39Z</time>
      </trkpt>
      <trkpt lat="48.08301" lon="3.23117">
        <ele>149.1</ele>
        <time>2024-04-21T08:17:47Z</time>
      </trkpt>
      <trkpt lat="48.08297" lon="3.2312">
        <ele>149.8</ele>
        <time>2024-04-21T08:17:50Z</time>
      </trkpt>
      <trkpt lat="48.08292" lon="3.23127">
        <ele>150.9</ele>
        <time>2024-04-21T08:17:57Z</time>
      </trkpt>
      <trkpt lat="48.08289" lon="3.23128">
        <ele>151.2</ele>
        <time>2024-04-21T08:18:03Z</time>
      </trkpt>
      <trkpt lat="48.08283" lon="3.23133">
        <ele>152.2</ele>
        <time>2024-04-21T08:18:11Z</time>
      </trkpt>
      <trkpt lat="48.08279" lon="3.23137">
        <ele>152.8</ele>
        <time>2024-04-21T08:18:19Z</time>
      </trkpt>
      <trkpt lat="48.08274" lon="3.23145">
        <ele>153.9</ele>
        <time>2024-04-21T08:18:27Z</time>
      </trkpt>
      <trkpt lat="48.08271" lon="3.23147">
        <ele>154.4</ele>
        <time>2024-04-21T08:18:35Z</time>
      </trkpt>
      <trkpt lat="48.08265" lon="3.23155">
        <ele>155.7</ele>
        <time>2024-04-21T08:18:42Z</time>
      </trkpt>
      <trkpt lat="48.08258" lon="3.23164">
        <ele>157.1</ele>
        <time>2024-04-21T08:18:51Z</time>
      </trkpt>
      <trkpt lat="48.08253" lon="3.23174">
        <ele>158.6</ele>
        <time>2024-04-21T08:19:00Z</time>
      </trkpt>
      <trkpt lat="48.08249" lon="3.23179">
        <ele>159.4</ele>
        <time>2024-04-21T08:19:07Z</time>
      </trkpt>
      <trkpt lat="48.08243" lon="3.23187">
        <ele>160.4</ele>
        <time>2024-04-21T08:19:15Z</time>
      </trkpt>
      <trkpt lat="48.08238" lon="3.23195">
        <ele>161.5</ele>
        <time>2024-04-21T08:19:22Z</time>
      </trkpt>
      <trkpt lat="48.08232" lon="3.23205">
        <ele>162.7</ele>
        <time>2024-04-21T08:19:32Z</time>
      </trkpt>
      <trkpt lat="48.08225" lon="3.23205">
        <ele>163</ele>
        <time>2024-04-21T08:19:40Z</time>
      </trkpt>
      <trkpt lat="48.08214" lon="3.23205">
        <ele>163.7</ele>
        <time>2024-04-21T08:19:51Z</time>
      </trkpt>
      <trkpt lat="48.08212" lon="3.23206">
        <ele>164</ele>
        <time>2024-04-21T08:19:58Z</time>
      </trkpt>
      <trkpt lat="48.08207" lon="3.23211">
        <ele>164.9</ele>
        <time>2024-04-21T08:20:28Z</time>
      </trkpt>
      <trkpt lat="48.08206" lon="3.23212">
        <ele>165.1</ele>
        <time>2024-04-21T08:20:47Z</time>
      </trkpt>
      <trkpt lat="48.08202" lon="3.2322">
        <ele>166.2</ele>
        <time>2024-04-21T08:22:01Z</time>
      </trkpt>
      <trkpt lat="48.08203" lon="3.23207">
        <ele>164.7</ele>
        <time>2024-04-21T08:22:14Z</time>
      </trkpt>
      <trkpt lat="48.08205" lon="3.23204">
        <ele>164.3</ele>
        <time>2024-04-21T08:22:28Z</time>
      </trkpt>
      <trkpt lat="48.08205" lon="3.23201">
        <ele>163.9</ele>
        <time>2024-04-21T08:22:41Z</time>
      </trkpt>
      <trkpt lat="48.08202" lon="3.23199">
        <ele>163.9</ele>
        <time>2024-04-21T08:22:47Z</time>
      </trkpt>
      <trkpt lat="48.08195" lon="3.23198">
        <ele>164.3</ele>
        <time>2024-04-21T08:22:52Z</time>
      </trkpt>
      <trkpt lat="48.08182" lon="3.23194">
        <ele>164.8</ele>
        <time>2024-04-21T08:23:01Z</time>
      </trkpt>
      <trkpt lat="48.0817" lon="3.23189">
        <ele>165.2</ele>
        <time>2024-04-21T08:23:08Z</time>
      </trkpt>
      <trkpt lat="48.08166" lon="3.23187">
        <ele>165.2</ele>
        <time>2024-04-21T08:23:10Z</time>
      </trkpt>
      <trkpt lat="48.08153" lon="3.23182">
        <ele>165.1</ele>
        <time>2024-04-21T08:23:18Z</time>
      </trkpt>
      <trkpt lat="48.08138" lon="3.23177">
        <ele>165.1</ele>
        <time>2024-04-21T08:23:26Z</time>
      </trkpt>
      <trkpt lat="48.08135" lon="3.23176">
        <ele>165.1</ele>
        <time>2024-04-21T08:23:28Z</time>
      </trkpt>
      <trkpt lat="48.08131" lon="3.23179">
        <ele>165.6</ele>
        <time>2024-04-21T08:23:31Z</time>
      </trkpt>
      <trkpt lat="48.08124" lon="3.2319">
        <ele>167.1</ele>
        <time>2024-04-21T08:23:38Z</time>
      </trkpt>
      <trkpt lat="48.08123" lon="3.23194">
        <ele>167.5</ele>
        <time>2024-04-21T08:23:40Z</time>
      </trkpt>
      <trkpt lat="48.08116" lon="3.23211">
        <ele>169.7</ele>
        <time>2024-04-21T08:23:47Z</time>
      </trkpt>
      <trkpt lat="48.08109" lon="3.23224">
        <ele>171.1</ele>
        <time>2024-04-21T08:23:55Z</time>
      </trkpt>
      <trkpt lat="48.08101" lon="3.23238">
        <ele>172.1</ele>
        <time>2024-04-21T08:24:04Z</time>
      </trkpt>
      <trkpt lat="48.08097" lon="3.2325">
        <ele>173</ele>
        <time>2024-04-21T08:24:12Z</time>
      </trkpt>
      <trkpt lat="48.08093" lon="3.2326">
        <ele>173.7</ele>
        <time>2024-04-21T08:24:18Z</time>
      </trkpt>
      <trkpt lat="48.08088" lon="3.23275">
        <ele>174.8</ele>
        <time>2024-04-21T08:24:26Z</time>
      </trkpt>
      <trkpt lat="48.08084" lon="3.23286">
        <ele>175.3</ele>
        <time>2024-04-21T08:24:33Z</time>
      </trkpt>
      <trkpt lat="48.08084" lon="3.23287">
        <ele>175.3</ele>
        <time>2024-04-21T08:24:41Z</time>
      </trkpt>
      <trkpt lat="48.0808" lon="3.23298">
        <ele>175.5</ele>
        <time>2024-04-21T08:25:34Z</time>
      </trkpt>
      <trkpt lat="48.08075" lon="3.23312">
        <ele>175.5</ele>
      </trkpt>
      <trkpt lat="48.0808" lon="3.23315">
        <ele>175.8</ele>
        <time>2024-04-21T08:25:42Z</time>
      </trkpt>
      <trkpt lat="48.08075" lon="3.23313">
        <ele>175.5</ele>
        <time>2024-04-21T08:25:50Z</time>
      </trkpt>
      <trkpt lat="48.08075" lon="3.23315">
        <ele>175.5</ele>
        <time>2024-04-21T08:26:38Z</time>
      </trkpt>
      <trkpt lat="48.08071" lon="3.23319">
        <ele>175.3</ele>
        <time>2024-04-21T08:27:06Z</time>
      </trkpt>
      <trkpt lat="48.08071" lon="3.23322">
        <ele>175.4</ele>
        <time>2024-04-21T08:27:20Z</time>
      </trkpt>
      <trkpt lat="48.08069" lon="3.2333">
        <ele>175.4</ele>
        <time>2024-04-21T08:27:26Z</time>
      </trkpt>
      <trkpt lat="48.08069" lon="3.23332">
        <ele>175.5</ele>
        <time>2024-04-21T08:27:27Z</time>
      </trkpt>
      <trkpt lat="48.08062" lon="3.23354">
        <ele>175.4</ele>
        <time>2024-04-21T08:27:36Z</time>
      </trkpt>
      <trkpt lat="48.08057" lon="3.2337">
        <ele>175.1</ele>
        <time>2024-04-21T08:27:42Z</time>
      </trkpt>
      <trkpt lat="48.08054" lon="3.2338">
        <ele>174.9</ele>
        <time>2024-04-21T08:27:45Z</time>
      </trkpt>
      <trkpt lat="48.08047" lon="3.23408">
        <ele>175.1</ele>
        <time>2024-04-21T08:27:53Z</time>
      </trkpt>
      <trkpt lat="48.0804" lon="3.23431">
        <ele>175.4</ele>
        <time>2024-04-21T08:28:00Z</time>
      </trkpt>
      <trkpt lat="48.08032" lon="3.23465">
        <ele>175.3</ele>
        <time>2024-04-21T08:28:08Z</time>
      </trkpt>
      <trkpt lat="48.0802" lon="3.23509">
        <ele>173.8</ele>
        <time>2024-04-21T08:28:16Z</time>
      </trkpt>
      <trkpt lat="48.08006" lon="3.23544">
        <ele>171.1</ele>
        <time>2024-04-21T08:28:21Z</time>
      </trkpt>
      <trkpt lat="48.07989" lon="3.23601">
        <ele>167.2</ele>
        <time>2024-04-21T08:28:30Z</time>
      </trkpt>
      <trkpt lat="48.07979" lon="3.2363">
        <ele>165.6</ele>
        <time>2024-04-21T08:28:36Z</time>
      </trkpt>
      <trkpt lat="48.07973" lon="3.23643">
        <ele>165.1</ele>
        <time>2024-04-21T08:28:39Z</time>
      </trkpt>
      <trkpt lat="48.07964" lon="3.23651">
        <ele>164.5</ele>
        <time>2024-04-21T08:28:43Z</time>
      </trkpt>
      <trkpt lat="48.07956" lon="3.23635">
        <ele>163.7</ele>
        <time>2024-04-21T08:28:49Z</time>
      </trkpt>
      <trkpt lat="48.07949" lon="3.23614">
        <ele>162.4</ele>
        <time>2024-04-21T08:28:53Z</time>
      </trkpt>
      <trkpt lat="48.0794" lon="3.23588">
        <ele>161</ele>
        <time>2024-04-21T08:28:57Z</time>
      </trkpt>
      <trkpt lat="48.07929" lon="3.23561">
        <ele>160</ele>
        <time>2024-04-21T08:29:01Z</time>
      </trkpt>
      <trkpt lat="48.07916" lon="3.23531">
        <ele>158.1</ele>
        <time>2024-04-21T08:29:05Z</time>
      </trkpt>
      <trkpt lat="48.07895" lon="3.23481">
        <ele>156.7</ele>
        <time>2024-04-21T08:29:11Z</time>
      </trkpt>
      <trkpt lat="48.07884" lon="3.23454">
        <ele>155.1</ele>
        <time>2024-04-21T08:29:14Z</time>
      </trkpt>
      <trkpt lat="48.07867" lon="3.23423">
        <ele>152.8</ele>
        <time>2024-04-21T08:29:17Z</time>
      </trkpt>
      <trkpt lat="48.07845" lon="3.23387">
        <ele>149.8</ele>
        <time>2024-04-21T08:29:22Z</time>
      </trkpt>
      <trkpt lat="48.07835" lon="3.23366">
        <ele>148.3</ele>
        <time>2024-04-21T08:29:25Z</time>
      </trkpt>
      <trkpt lat="48.07832" lon="3.23351">
        <ele>147.7</ele>
      </trkpt>
      <trkpt lat="48.07826" lon="3.23349">
        <ele>147.9</ele>
        <time>2024-04-21T08:29:30Z</time>
      </trkpt>
      <trkpt lat="48.07832" lon="3.23348">
        <ele>147.6</ele>
        <time>2024-04-21T08:29:37Z</time>
      </trkpt>
      <trkpt lat="48.07835" lon="3.23337">
        <ele>147.3</ele>
        <time>2024-04-21T08:30:27Z</time>
      </trkpt>
      <trkpt lat="48.07836" lon="3.23335">
        <ele>147.3</ele>
        <time>2024-04-21T08:31:14Z</time>
      </trkpt>
      <trkpt lat="48.07836" lon="3.23335">
        <ele>147.3</ele>
        <time>2024-04-21T08:31:15Z</time>
      </trkpt>
      <trkpt lat="48.07836" lon="3.23335">
        <ele>147.3</ele>
        <time>2024-04-21T08:31:23Z</time>
      </trkpt>
      <trkpt lat="48.07835" lon="3.23332">
        <ele>147.1</ele>
        <time>2024-04-21T08:31:28Z</time>
      </trkpt>
      <trkpt lat="48.07836" lon="3.23327">
        <ele>147</ele>
        <time>2024-04-21T08:31:34Z</time>
      </trkpt>
      <trkpt lat="48.07836" lon="3.23323">
        <ele>146.9</ele>
        <time>2024-04-21T08:31:36Z</time>
      </trkpt>
      <trkpt lat="48.07835" lon="3.23311">
        <ele>146.3</ele>
        <time>2024-04-21T08:31:40Z</time>
      </trkpt>
      <trkpt lat="48.0784" lon="3.23281">
        <ele>145.4</ele>
        <time>2024-04-21T08:31:47Z</time>
      </trkpt>
      <trkpt lat="48.0785" lon="3.23242">
        <ele>143.8</ele>
        <time>2024-04-21T08:31:54Z</time>
      </trkpt>
      <trkpt lat="48.07859" lon="3.23217">
        <ele>142.9</ele>
        <time>2024-04-21T08:31:58Z</time>
      </trkpt>
      <trkpt lat="48.07864" lon="3.23181">
        <ele>141.7</ele>
        <time>2024-04-21T08:32:04Z</time>
      </trkpt>
      <trkpt lat="48.0787" lon="3.23141">
        <ele>140.7</ele>
        <time>2024-04-21T08:32:11Z</time>
      </trkpt>
      <trkpt lat="48.07874" lon="3.23108">
        <ele>139.4</ele>
        <time>2024-04-21T08:32:17Z</time>
      </trkpt>
      <trkpt lat="48.07876" lon="3.23095">
        <ele>138.9</ele>
        <time>2024-04-21T08:32:23Z</time>
      </trkpt>
      <trkpt lat="48.07894" lon="3.2309">
        <ele>138.6</ele>
        <time>2024-04-21T08:32:29Z</time>
      </trkpt>
      <trkpt lat="48.07875" lon="3.23094">
        <ele>138.9</ele>
      </trkpt>
      <trkpt lat="48.07875" lon="3.23079">
        <ele>138.3</ele>
        <time>2024-04-21T08:33:40Z</time>
      </trkpt>
      <trkpt lat="48.07871" lon="3.23068">
        <ele>138.1</ele>
        <time>2024-04-21T08:34:43Z</time>
      </trkpt>
      <trkpt lat="48.07873" lon="3.2305">
        <ele>137.5</ele>
        <time>2024-04-21T08:34:49Z</time>
      </trkpt>
      <trkpt lat="48.07867" lon="3.23014">
        <ele>137.1</ele>
        <time>2024-04-21T08:34:57Z</time>
      </trkpt>
      <trkpt lat="48.07862" lon="3.22983">
        <ele>135.7</ele>
        <time>2024-04-21T08:35:03Z</time>
      </trkpt>
      <trkpt lat="48.07854" lon="3.22951">
        <ele>134.8</ele>
        <time>2024-04-21T08:35:09Z</time>
      </trkpt>
      <trkpt lat="48.07841" lon="3.22918">
        <ele>133.5</ele>
        <time>2024-04-21T08:35:15Z</time>
      </trkpt>
      <trkpt lat="48.07831" lon="3.22889">
        <ele>132</ele>
        <time>2024-04-21T08:35:21Z</time>
      </trkpt>
      <trkpt lat="48.07825" lon="3.2288">
        <ele>131.5</ele>
        <time>2024-04-21T08:35:24Z</time>
      </trkpt>
      <trkpt lat="48.07816" lon="3.2288">
        <ele>131.6</ele>
        <time>2024-04-21T08:35:28Z</time>
      </trkpt>
      <trkpt lat="48.0781" lon="3.22884">
        <ele>131.8</ele>
        <time>2024-04-21T08:35:31Z</time>
      </trkpt>
      <trkpt lat="48.07794" lon="3.22894">
        <ele>133.7</ele>
        <time>2024-04-21T08:35:38Z</time>
      </trkpt>
      <trkpt lat="48.0778" lon="3.22903">
        <ele>135.8</ele>
        <time>2024-04-21T08:35:45Z</time>
      </trkpt>
      <trkpt lat="48.07771" lon="3.22908">
        <ele>136.9</ele>
        <time>2024-04-21T08:35:52Z</time>
      </trkpt>
      <trkpt lat="48.0777" lon="3.22908">
        <ele>137</ele>
        <time>2024-04-21T08:36:01Z</time>
      </trkpt>
      <trkpt lat="48.07767" lon="3.22907">
        <ele>137.2</ele>
        <time>2024-04-21T08:36:09Z</time>
      </trkpt>
      <trkpt lat="48.07756" lon="3.22908">
        <ele>138.2</ele>
        <time>2024-04-21T08:36:43Z</time>
      </trkpt>
      <trkpt lat="48.07757" lon="3.22908">
        <ele>138.1</ele>
        <time>2024-04-21T08:36:58Z</time>
      </trkpt>
      <trkpt lat="48.07754" lon="3.22908">
        <ele>138.4</ele>
        <time>2024-04-21T08:37:10Z</time>
      </trkpt>
      <trkpt lat="48.07752" lon="3.22904">
        <ele>138.4</ele>
        <time>2024-04-21T08:37:26Z</time>
      </trkpt>
      <trkpt lat="48.07766" lon="3.22909">
        <ele>137.4</ele>
        <time>2024-04-21T08:37:31Z</time>
      </trkpt>
      <trkpt lat="48.07782" lon="3.22899">
        <ele>135.3</ele>
        <time>2024-04-21T08:37:37Z</time>
      </trkpt>
      <trkpt lat="48.07802" lon="3.22882">
        <ele>132.1</ele>
        <time>2024-04-21T08:37:42Z</time>
      </trkpt>
      <trkpt lat="48.07811" lon="3.22875">
        <ele>131.4</ele>
        <time>2024-04-21T08:37:44Z</time>
      </trkpt>
      <trkpt lat="48.07826" lon="3.22851">
        <ele>130.1</ele>
        <time>2024-04-21T08:37:48Z</time>
      </trkpt>
      <trkpt lat="48.07848" lon="3.22808">
        <ele>127</ele>
        <time>2024-04-21T08:37:54Z</time>
      </trkpt>
      <trkpt lat="48.07855" lon="3.22793">
        <ele>126.5</ele>
        <time>2024-04-21T08:37:56Z</time>
      </trkpt>
      <trkpt lat="48.0788" lon="3.2272">
        <ele>123</ele>
        <time>2024-04-21T08:38:04Z</time>
      </trkpt>
      <trkpt lat="48.07887" lon="3.22699">
        <ele>122.2</ele>
        <time>2024-04-21T08:38:06Z</time>
      </trkpt>
      <trkpt lat="48.07901" lon="3.22659">
        <ele>120.1</ele>
        <time>2024-04-21T08:38:10Z</time>
      </trkpt>
      <trkpt lat="48.07911" lon="3.22626">
        <ele>118.9</ele>
        <time>2024-04-21T08:38:14Z</time>
      </trkpt>
      <trkpt lat="48.07913" lon="3.22616">
        <ele>118.4</ele>
        <time>2024-04-21T08:38:16Z</time>
      </trkpt>
      <trkpt lat="48.07913" lon="3.2261">
        <ele>118.2</ele>
        <time>2024-04-21T08:38:21Z</time>
      </trkpt>
      <trkpt lat="48.07918" lon="3.22589">
        <ele>117.1</ele>
        <time>2024-04-21T08:38:28Z</time>
      </trkpt>
      <trkpt lat="48.07919" lon="3.22569">
        <ele>116.4</ele>
        <time>2024-04-21T08:38:32Z</time>
      </trkpt>
      <trkpt lat="48.07917" lon="3.22564">
        <ele>116.3</ele>
        <time>2024-04-21T08:38:33Z</time>
      </trkpt>
      <trkpt lat="48.07914" lon="3.22561">
        <ele>116.4</ele>
        <time>2024-04-21T08:38:34Z</time>
      </trkpt>
      <trkpt lat="48.07911" lon="3.22558">
        <ele>116.5</ele>
        <time>2024-04-21T08:38:35Z</time>
      </trkpt>
      <trkpt lat="48.07908" lon="3.22555">
        <ele>116.6</ele>
        <time>2024-04-21T08:38:36Z</time>
      </trkpt>
      <trkpt lat="48.07888" lon="3.22536">
        <ele>117.4</ele>
        <time>2024-04-21T08:38:42Z</time>
      </trkpt>
      <trkpt lat="48.07877" lon="3.22525">
        <ele>117.7</ele>
        <time>2024-04-21T08:38:45Z</time>
      </trkpt>
      <trkpt lat="48.07841" lon="3.22494">
        <ele>117.4</ele>
        <time>2024-04-21T08:38:54Z</time>
      </trkpt>
      <trkpt lat="48.07822" lon="3.22479">
        <ele>117.8</ele>
        <time>2024-04-21T08:39:00Z</time>
      </trkpt>
      <trkpt lat="48.07817" lon="3.22466">
        <ele>117.3</ele>
        <time>2024-04-21T08:39:05Z</time>
      </trkpt>
      <trkpt lat="48.07816" lon="3.22465">
        <ele>117.3</ele>
        <time>2024-04-21T08:39:06Z</time>
      </trkpt>
      <trkpt lat="48.07812" lon="3.22465">
        <ele>117.4</ele>
        <time>2024-04-21T08:39:08Z</time>
      </trkpt>
      <trkpt lat="48.07803" lon="3.22461">
        <ele>117.7</ele>
        <time>2024-04-21T08:39:13Z</time>
      </trkpt>
      <trkpt lat="48.07799" lon="3.22458">
        <ele>117.8</ele>
        <time>2024-04-21T08:39:15Z</time>
      </trkpt>
      <trkpt lat="48.07782" lon="3.22447">
        <ele>118</ele>
        <time>2024-04-21T08:39:22Z</time>
      </trkpt>
      <trkpt lat="48.07758" lon="3.22436">
        <ele>118.1</ele>
        <time>2024-04-21T08:39:30Z</time>
      </trkpt>
      <trkpt lat="48.0774" lon="3.22428">
        <ele>118.3</ele>
        <time>2024-04-21T08:39:36Z</time>
      </trkpt>
      <trkpt lat="48.07721" lon="3.2242">
        <ele>118.4</ele>
        <time>2024-04-21T08:39:42Z</time>
      </trkpt>
      <trkpt lat="48.07697" lon="3.22409">
        <ele>119</ele>
        <time>2024-04-21T08:39:48Z</time>
      </trkpt>
      <trkpt lat="48.07672" lon="3.22396">
        <ele>118.6</ele>
        <time>2024-04-21T08:39:54Z</time>
      </trkpt>
      <trkpt lat="48.07644" lon="3.22384">
        <ele>118.5</ele>
        <time>2024-04-21T08:40:01Z</time>
      </trkpt>
      <trkpt lat="48.07623" lon="3.22374">
        <ele>118.5</ele>
        <time>2024-04-21T08:40:07Z</time>
      </trkpt>
      <trkpt lat="48.07604" lon="3.22365">
        <ele>118.8</ele>
        <time>2024-04-21T08:40:13Z</time>
      </trkpt>
      <trkpt lat="48.07579" lon="3.22355">
        <ele>119.7</ele>
        <time>2024-04-21T08:40:20Z</time>
      </trkpt>
      <trkpt lat="48.07555" lon="3.22344">
        <ele>119.8</ele>
        <time>2024-04-21T08:40:26Z</time>
      </trkpt>
      <trkpt lat="48.07535" lon="3.22334">
        <ele>120.5</ele>
        <time>2024-04-21T08:40:32Z</time>
      </trkpt>
      <trkpt lat="48.07514" lon="3.22327">
        <ele>121.4</ele>
        <time>2024-04-21T08:40:39Z</time>
      </trkpt>
      <trkpt lat="48.07512" lon="3.22323">
        <ele>121.2</ele>
        <time>2024-04-21T08:40:44Z</time>
      </trkpt>
      <trkpt lat="48.07508" lon="3.22322">
        <ele>121.3</ele>
        <time>2024-04-21T08:41:03Z</time>
      </trkpt>
      <trkpt lat="48.07508" lon="3.22324">
        <ele>121.5</ele>
        <time>2024-04-21T08:41:15Z</time>
      </trkpt>
      <trkpt lat="48.07505" lon="3.22325">
        <ele>121.8</ele>
        <time>2024-04-21T08:41:27Z</time>
      </trkpt>
      <trkpt lat="48.07505" lon="3.22325">
        <ele>121.8</ele>
        <time>2024-04-21T08:41:39Z</time>
      </trkpt>
      <trkpt lat="48.07509" lon="3.22325">
        <ele>121.5</ele>
        <time>2024-04-21T08:41:57Z</time>
      </trkpt>
      <trkpt lat="48.07503" lon="3.22323">
        <ele>121.7</ele>
        <time>2024-04-21T08:42:06Z</time>
      </trkpt>
      <trkpt lat="48.07497" lon="3.22321">
        <ele>122.1</ele>
        <time>2024-04-21T08:42:11Z</time>
      </trkpt>
      <trkpt lat="48.07485" lon="3.22299">
        <ele>121.3</ele>
        <time>2024-04-21T08:42:18Z</time>
      </trkpt>
      <trkpt lat="48.07478" lon="3.22267">
        <ele>119.9</ele>
        <time>2024-04-21T08:42:25Z</time>
      </trkpt>
      <trkpt lat="48.07473" lon="3.22258">
        <ele>119.5</ele>
        <time>2024-04-21T08:42:29Z</time>
      </trkpt>
      <trkpt lat="48.07475" lon="3.22261">
        <ele>119.7</ele>
        <time>2024-04-21T08:42:40Z</time>
      </trkpt>
      <trkpt lat="48.07477" lon="3.22263">
        <ele>119.7</ele>
        <time>2024-04-21T08:42:54Z</time>
      </trkpt>
      <trkpt lat="48.07477" lon="3.22261">
        <ele>119.6</ele>
        <time>2024-04-21T08:43:12Z</time>
      </trkpt>
      <trkpt lat="48.07482" lon="3.22261">
        <ele>119.3</ele>
        <time>2024-04-21T08:43:33Z</time>
      </trkpt>
      <trkpt lat="48.07478" lon="3.22261">
        <ele>119.5</ele>
        <time>2024-04-21T08:43:46Z</time>
      </trkpt>
      <trkpt lat="48.07477" lon="3.22261">
        <ele>119.6</ele>
        <time>2024-04-21T08:43:57Z</time>
      </trkpt>
      <trkpt lat="48.07474" lon="3.2226">
        <ele>119.6</ele>
        <time>2024-04-21T08:44:09Z</time>
      </trkpt>
      <trkpt lat="48.07473" lon="3.22258">
        <ele>119.5</ele>
        <time>2024-04-21T08:44:24Z</time>
      </trkpt>
      <trkpt lat="48.07471" lon="3.22258">
        <ele>119.7</ele>
        <time>2024-04-21T08:44:31Z</time>
      </trkpt>
      <trkpt lat="48.07464" lon="3.22248">
        <ele>119.9</ele>
        <time>2024-04-21T08:44:37Z</time>
      </trkpt>
      <trkpt lat="48.07452" lon="3.22232">
        <ele>120.7</ele>
        <time>2024-04-21T08:44:42Z</time>
      </trkpt>
      <trkpt lat="48.07436" lon="3.22213">
        <ele>121.2</ele>
        <time>2024-04-21T08:44:48Z</time>
      </trkpt>
      <trkpt lat="48.07416" lon="3.22191">
        <ele>121</ele>
        <time>2024-04-21T08:44:54Z</time>
      </trkpt>
      <trkpt lat="48.074" lon="3.22172">
        <ele>122.1</ele>
        <time>2024-04-21T08:45:00Z</time>
      </trkpt>
      <trkpt lat="48.07381" lon="3.22151">
        <ele>122.8</ele>
        <time>2024-04-21T08:45:07Z</time>
      </trkpt>
      <trkpt lat="48.07367" lon="3.22134">
        <ele>123</ele>
        <time>2024-04-21T08:45:14Z</time>
      </trkpt>
      <trkpt lat="48.07354" lon="3.2212">
        <ele>123.5</ele>
        <time>2024-04-21T08:45:20Z</time>
      </trkpt>
      <trkpt lat="48.0735" lon="3.22111">
        <ele>123.2</ele>
        <time>2024-04-21T08:45:23Z</time>
      </trkpt>
      <trkpt lat="48.07341" lon="3.22111">
        <ele>124.2</ele>
        <time>2024-04-21T08:45:29Z</time>
      </trkpt>
      <trkpt lat="48.07338" lon="3.22111">
        <ele>124.5</ele>
        <time>2024-04-21T08:45:36Z</time>
      </trkpt>
      <trkpt lat="48.07336" lon="3.22119">
        <ele>125.5</ele>
        <time>2024-04-21T08:45:44Z</time>
      </trkpt>
      <trkpt lat="48.07334" lon="3.22129">
        <ele>126.8</ele>
        <time>2024-04-21T08:45:52Z</time>
      </trkpt>
      <trkpt lat="48.07331" lon="3.22139">
        <ele>128.4</ele>
        <time>2024-04-21T08:46:01Z</time>
      </trkpt>
      <trkpt lat="48.07328" lon="3.22147">
        <ele>130.1</ele>
        <time>2024-04-21T08:46:07Z</time>
      </trkpt>
      <trkpt lat="48.07323" lon="3.22161">
        <ele>132.7</ele>
        <time>2024-04-21T08:46:18Z</time>
      </trkpt>
      <trkpt lat="48.07321" lon="3.22166">
        <ele>133.7</ele>
        <time>2024-04-21T08:46:24Z</time>
      </trkpt>
      <trkpt lat="48.07317" lon="3.22177">
        <ele>135.5</ele>
        <time>2024-04-21T08:46:31Z</time>
      </trkpt>
      <trkpt lat="48.07317" lon="3.22179">
        <ele>135.7</ele>
        <time>2024-04-21T08:46:32Z</time>
      </trkpt>
      <trkpt lat="48.07315" lon="3.22188">
        <ele>136.9</ele>
        <time>2024-04-21T08:46:37Z</time>
      </trkpt>
      <trkpt lat="48.07314" lon="3.222">
        <ele>138.5</ele>
        <time>2024-04-21T08:46:43Z</time>
      </trkpt>
      <trkpt lat="48.07309" lon="3.22213">
        <ele>141.1</ele>
        <time>2024-04-21T08:46:50Z</time>
      </trkpt>
      <trkpt lat="48.07308" lon="3.2222">
        <ele>142.2</ele>
        <time>2024-04-21T08:46:53Z</time>
      </trkpt>
      <trkpt lat="48.07306" lon="3.22231">
        <ele>143.6</ele>
        <time>2024-04-21T08:46:59Z</time>
      </trkpt>
      <trkpt lat="48.07299" lon="3.22251">
        <ele>145.8</ele>
        <time>2024-04-21T08:47:10Z</time>
      </trkpt>
      <trkpt lat="48.07298" lon="3.22263">
        <ele>147.2</ele>
        <time>2024-04-21T08:47:17Z</time>
      </trkpt>
      <trkpt lat="48.07295" lon="3.22274">
        <ele>148.7</ele>
        <time>2024-04-21T08:47:23Z</time>
      </trkpt>
      <trkpt lat="48.07292" lon="3.22289">
        <ele>150.3</ele>
        <time>2024-04-21T08:47:32Z</time>
      </trkpt>
      <trkpt lat="48.07289" lon="3.22301">
        <ele>151.5</ele>
        <time>2024-04-21T08:47:39Z</time>
      </trkpt>
      <trkpt lat="48.07289" lon="3.22313">
        <ele>152.3</ele>
        <time>2024-04-21T08:47:46Z</time>
      </trkpt>
      <trkpt lat="48.07286" lon="3.2232">
        <ele>153.2</ele>
        <time>2024-04-21T08:47:50Z</time>
      </trkpt>
      <trkpt lat="48.07285" lon="3.22332">
        <ele>154.1</ele>
        <time>2024-04-21T08:47:57Z</time>
      </trkpt>
      <trkpt lat="48.07282" lon="3.22343">
        <ele>155.3</ele>
        <time>2024-04-21T08:48:04Z</time>
      </trkpt>
      <trkpt lat="48.0728" lon="3.22355">
        <ele>156.4</ele>
        <time>2024-04-21T08:48:11Z</time>
      </trkpt>
      <trkpt lat="48.07279" lon="3.22359">
        <ele>156.8</ele>
        <time>2024-04-21T08:48:13Z</time>
      </trkpt>
      <trkpt lat="48.07275" lon="3.22375">
        <ele>158.7</ele>
        <time>2024-04-21T08:48:22Z</time>
      </trkpt>
      <trkpt lat="48.07271" lon="3.22384">
        <ele>159.8</ele>
        <time>2024-04-21T08:48:29Z</time>
      </trkpt>
      <trkpt lat="48.07268" lon="3.22397">
        <ele>160.8</ele>
        <time>2024-04-21T08:48:36Z</time>
      </trkpt>
      <trkpt lat="48.07263" lon="3.22409">
        <ele>162</ele>
        <time>2024-04-21T08:48:44Z</time>
      </trkpt>
      <trkpt lat="48.07259" lon="3.2242">
        <ele>163.3</ele>
        <time>2024-04-21T08:48:51Z</time>
      </trkpt>
      <trkpt lat="48.07256" lon="3.22424">
        <ele>163.9</ele>
        <time>2024-04-21T08:48:58Z</time>
      </trkpt>
      <trkpt lat="48.07255" lon="3.22425">
        <ele>164.1</ele>
        <time>2024-04-21T08:49:10Z</time>
      </trkpt>
      <trkpt lat="48.07257" lon="3.22423">
        <ele>163.7</ele>
        <time>2024-04-21T08:49:23Z</time>
      </trkpt>
      <trkpt lat="48.07257" lon="3.22426">
        <ele>163.9</ele>
        <time>2024-04-21T08:49:38Z</time>
      </trkpt>
      <trkpt lat="48.07247" lon="3.22434">
        <ele>165.4</ele>
        <time>2024-04-21T08:49:55Z</time>
      </trkpt>
      <trkpt lat="48.07214" lon="3.22458">
        <ele>168</ele>
        <time>2024-04-21T08:50:08Z</time>
      </trkpt>
      <trkpt lat="48.07243" lon="3.22433">
        <ele>165.5</ele>
        <time>2024-04-21T08:50:28Z</time>
      </trkpt>
      <trkpt lat="48.07247" lon="3.22431">
        <ele>165.1</ele>
        <time>2024-04-21T08:50:44Z</time>
      </trkpt>
      <trkpt lat="48.0725" lon="3.22431">
        <ele>165</ele>
        <time>2024-04-21T08:50:54Z</time>
      </trkpt>
      <trkpt lat="48.07252" lon="3.2243">
        <ele>164.7</ele>
        <time>2024-04-21T08:51:08Z</time>
      </trkpt>
      <trkpt lat="48.07258" lon="3.22429">
        <ele>164</ele>
        <time>2024-04-21T08:51:22Z</time>
      </trkpt>
      <trkpt lat="48.07257" lon="3.22431">
        <ele>164.3</ele>
        <time>2024-04-21T08:51:32Z</time>
      </trkpt>
      <trkpt lat="48.07256" lon="3.22436">
        <ele>164.7</ele>
        <time>2024-04-21T08:51:36Z</time>
      </trkpt>
      <trkpt lat="48.07254" lon="3.2244">
        <ele>165.2</ele>
        <time>2024-04-21T08:51:38Z</time>
      </trkpt>
      <trkpt lat="48.07251" lon="3.22458">
        <ele>166.4</ele>
        <time>2024-04-21T08:51:46Z</time>
      </trkpt>
      <trkpt lat="48.0725" lon="3.22473">
        <ele>167.1</ele>
        <time>2024-04-21T08:51:52Z</time>
      </trkpt>
      <trkpt lat="48.07249" lon="3.22481">
        <ele>167.7</ele>
        <time>2024-04-21T08:51:56Z</time>
      </trkpt>
      <trkpt lat="48.07246" lon="3.22489">
        <ele>168.4</ele>
        <time>2024-04-21T08:52:00Z</time>
      </trkpt>
      <trkpt lat="48.07241" lon="3.22508">
        <ele>169.9</ele>
        <time>2024-04-21T08:52:09Z</time>
      </trkpt>
      <trkpt lat="48.07238" lon="3.22516">
        <ele>170.6</ele>
        <time>2024-04-21T08:52:12Z</time>
      </trkpt>
      <trkpt lat="48.07238" lon="3.22541">
        <ele>171.9</ele>
        <time>2024-04-21T08:52:21Z</time>
      </trkpt>
      <trkpt lat="48.07238" lon="3.22547">
        <ele>172.1</ele>
        <time>2024-04-21T08:52:24Z</time>
      </trkpt>
      <trkpt lat="48.07229" lon="3.22564">
        <ele>173.1</ele>
        <time>2024-04-21T08:52:33Z</time>
      </trkpt>
      <trkpt lat="48.07225" lon="3.22569">
        <ele>173.4</ele>
        <time>2024-04-21T08:52:39Z</time>
      </trkpt>
      <trkpt lat="48.07229" lon="3.22572">
        <ele>173.3</ele>
        <time>2024-04-21T08:52:47Z</time>
      </trkpt>
      <trkpt lat="48.0723" lon="3.22573">
        <ele>173.3</ele>
        <time>2024-04-21T08:52:48Z</time>
      </trkpt>
      <trkpt lat="48.07246" lon="3.22588">
        <ele>173.3</ele>
        <time>2024-04-21T08:52:58Z</time>
      </trkpt>
      <trkpt lat="48.07261" lon="3.22599">
        <ele>172.8</ele>
        <time>2024-04-21T08:53:06Z</time>
      </trkpt>
      <trkpt lat="48.07271" lon="3.22606">
        <ele>172.3</ele>
        <time>2024-04-21T08:53:12Z</time>
      </trkpt>
      <trkpt lat="48.07288" lon="3.22619">
        <ele>171.5</ele>
        <time>2024-04-21T08:53:19Z</time>
      </trkpt>
      <trkpt lat="48.07307" lon="3.22632">
        <ele>170.6</ele>
        <time>2024-04-21T08:53:25Z</time>
      </trkpt>
      <trkpt lat="48.07329" lon="3.22647">
        <ele>169.6</ele>
        <time>2024-04-21T08:53:31Z</time>
      </trkpt>
      <trkpt lat="48.07347" lon="3.22665">
        <ele>169</ele>
        <time>2024-04-21T08:53:37Z</time>
      </trkpt>
      <trkpt lat="48.07365" lon="3.2268">
        <ele>168.2</ele>
        <time>2024-04-21T08:53:42Z</time>
      </trkpt>
      <trkpt lat="48.07391" lon="3.227">
        <ele>166.8</ele>
        <time>2024-04-21T08:53:48Z</time>
      </trkpt>
      <trkpt lat="48.07411" lon="3.22717">
        <ele>164.6</ele>
        <time>2024-04-21T08:53:54Z</time>
      </trkpt>
      <trkpt lat="48.07426" lon="3.22732">
        <ele>162.3</ele>
        <time>2024-04-21T08:53:58Z</time>
      </trkpt>
      <trkpt lat="48.07437" lon="3.22743">
        <ele>160.3</ele>
        <time>2024-04-21T08:54:00Z</time>
      </trkpt>
      <trkpt lat="48.07442" lon="3.22749">
        <ele>159.4</ele>
        <time>2024-04-21T08:54:01Z</time>
      </trkpt>
      <trkpt lat="48.07457" lon="3.22762">
        <ele>157.8</ele>
        <time>2024-04-21T08:54:05Z</time>
      </trkpt>
      <trkpt lat="48.0746" lon="3.22764">
        <ele>157.6</ele>
        <time>2024-04-21T08:54:06Z</time>
      </trkpt>
      <trkpt lat="48.0748" lon="3.2278">
        <ele>157.2</ele>
        <time>2024-04-21T08:54:13Z</time>
      </trkpt>
      <trkpt lat="48.07496" lon="3.22795">
        <ele>158.2</ele>
        <time>2024-04-21T08:54:20Z</time>
      </trkpt>
      <trkpt lat="48.07506" lon="3.228">
        <ele>158.6</ele>
        <time>2024-04-21T08:54:25Z</time>
      </trkpt>
      <trkpt lat="48.07524" lon="3.22811">
        <ele>159.4</ele>
        <time>2024-04-21T08:54:32Z</time>
      </trkpt>
      <trkpt lat="48.0754" lon="3.22823">
        <ele>160.3</ele>
        <time>2024-04-21T08:54:40Z</time>
      </trkpt>
      <trkpt lat="48.07555" lon="3.22835">
        <ele>161.1</ele>
        <time>2024-04-21T08:54:48Z</time>
      </trkpt>
      <trkpt lat="48.07563" lon="3.22843">
        <ele>161.5</ele>
        <time>2024-04-21T08:54:55Z</time>
      </trkpt>
      <trkpt lat="48.07569" lon="3.2285">
        <ele>161.6</ele>
        <time>2024-04-21T08:55:48Z</time>
      </trkpt>
      <trkpt lat="48.07572" lon="3.22856">
        <ele>161.7</ele>
        <time>2024-04-21T08:56:03Z</time>
      </trkpt>
      <trkpt lat="48.07571" lon="3.22867">
        <ele>162.1</ele>
      </trkpt>
      <trkpt lat="48.07564" lon="3.22889">
        <ele>163.4</ele>
        <time>2024-04-21T08:56:18Z</time>
      </trkpt>
      <trkpt lat="48.07573" lon="3.22867">
        <ele>162</ele>
        <time>2024-04-21T08:56:35Z</time>
      </trkpt>
      <trkpt lat="48.07573" lon="3.22857">
        <ele>161.6</ele>
        <time>2024-04-21T08:56:53Z</time>
      </trkpt>
      <trkpt lat="48.07573" lon="3.22854">
        <ele>161.5</ele>
        <time>2024-04-21T08:56:55Z</time>
      </trkpt>
      <trkpt lat="48.07569" lon="3.22845">
        <ele>161.4</ele>
        <time>2024-04-21T08:57:02Z</time>
      </trkpt>
      <trkpt lat="48.07569" lon="3.22844">
        <ele>161.4</ele>
        <time>2024-04-21T08:57:06Z</time>
      </trkpt>
      <trkpt lat="48.07567" lon="3.22842">
        <ele>161.4</ele>
        <time>2024-04-21T08:57:08Z</time>
      </trkpt>
      <trkpt lat="48.07553" lon="3.22831">
        <ele>160.8</ele>
        <time>2024-04-21T08:57:15Z</time>
      </trkpt>
      <trkpt lat="48.07549" lon="3.22828">
        <ele>160.6</ele>
        <time>2024-04-21T08:57:17Z</time>
      </trkpt>
      <trkpt lat="48.0753" lon="3.22814">
        <ele>159.6</ele>
        <time>2024-04-21T08:57:25Z</time>
      </trkpt>
      <trkpt lat="48.07522" lon="3.22809">
        <ele>159.2</ele>
        <time>2024-04-21T08:57:27Z</time>
      </trkpt>
      <trkpt lat="48.07509" lon="3.22809">
        <ele>159.2</ele>
        <time>2024-04-21T08:57:31Z</time>
      </trkpt>
      <trkpt lat="48.07507" lon="3.22817">
        <ele>159.8</ele>
        <time>2024-04-21T08:57:34Z</time>
      </trkpt>
      <trkpt lat="48.0751" lon="3.22827">
        <ele>160.5</ele>
        <time>2024-04-21T08:57:37Z</time>
      </trkpt>
      <trkpt lat="48.07509" lon="3.22849">
        <ele>162.5</ele>
        <time>2024-04-21T08:57:45Z</time>
      </trkpt>
      <trkpt lat="48.07497" lon="3.22872">
        <ele>163.9</ele>
        <time>2024-04-21T08:57:52Z</time>
      </trkpt>
      <trkpt lat="48.07489" lon="3.22896">
        <ele>164.5</ele>
        <time>2024-04-21T08:57:59Z</time>
      </trkpt>
      <trkpt lat="48.07485" lon="3.22918">
        <ele>166</ele>
        <time>2024-04-21T08:58:05Z</time>
      </trkpt>
      <trkpt lat="48.07481" lon="3.22941">
        <ele>166.9</ele>
        <time>2024-04-21T08:58:12Z</time>
      </trkpt>
      <trkpt lat="48.07474" lon="3.22966">
        <ele>167.8</ele>
        <time>2024-04-21T08:58:20Z</time>
      </trkpt>
      <trkpt lat="48.07473" lon="3.22972">
        <ele>168</ele>
        <time>2024-04-21T08:58:22Z</time>
      </trkpt>
      <trkpt lat="48.07469" lon="3.22983">
        <ele>168.4</ele>
        <time>2024-04-21T08:58:25Z</time>
      </trkpt>
      <trkpt lat="48.07462" lon="3.23016">
        <ele>169.4</ele>
        <time>2024-04-21T08:58:33Z</time>
      </trkpt>
      <trkpt lat="48.07458" lon="3.2304">
        <ele>170</ele>
        <time>2024-04-21T08:58:39Z</time>
      </trkpt>
      <trkpt lat="48.07452" lon="3.23062">
        <ele>170.8</ele>
        <time>2024-04-21T08:58:45Z</time>
      </trkpt>
      <trkpt lat="48.0745" lon="3.23089">
        <ele>171.3</ele>
        <time>2024-04-21T08:58:52Z</time>
      </trkpt>
      <trkpt lat="48.0744" lon="3.23114">
        <ele>173.3</ele>
        <time>2024-04-21T08:58:59Z</time>
      </trkpt>
      <trkpt lat="48.07433" lon="3.2314">
        <ele>174.5</ele>
        <time>2024-04-21T08:59:06Z</time>
      </trkpt>
      <trkpt lat="48.07424" lon="3.23172">
        <ele>175.9</ele>
        <time>2024-04-21T08:59:15Z</time>
      </trkpt>
      <trkpt lat="48.07417" lon="3.23201">
        <ele>177.2</ele>
        <time>2024-04-21T08:59:24Z</time>
      </trkpt>
      <trkpt lat="48.0741" lon="3.23224">
        <ele>178.3</ele>
        <time>2024-04-21T08:59:32Z</time>
      </trkpt>
      <trkpt lat="48.07405" lon="3.23244">
        <ele>178.7</ele>
        <time>2024-04-21T08:59:40Z</time>
      </trkpt>
      <trkpt lat="48.07405" lon="3.23246">
        <ele>178.8</ele>
        <time>2024-04-21T08:59:41Z</time>
      </trkpt>
      <trkpt lat="48.07402" lon="3.23257">
        <ele>179.3</ele>
        <time>2024-04-21T08:59:48Z</time>
      </trkpt>
      <trkpt lat="48.07402" lon="3.23258">
        <ele>179.3</ele>
        <time>2024-04-21T08:59:49Z</time>
      </trkpt>
      <trkpt lat="48.07402" lon="3.23261">
        <ele>179.5</ele>
        <time>2024-04-21T08:59:51Z</time>
      </trkpt>
      <trkpt lat="48.07403" lon="3.23262">
        <ele>179.4</ele>
        <time>2024-04-21T08:59:52Z</time>
      </trkpt>
      <trkpt lat="48.07403" lon="3.23264">
        <ele>179.5</ele>
        <time>2024-04-21T08:59:53Z</time>
      </trkpt>
      <trkpt lat="48.07403" lon="3.23265">
        <ele>179.5</ele>
        <time>2024-04-21T08:59:54Z</time>
      </trkpt>
      <trkpt lat="48.07402" lon="3.23268">
        <ele>179.7</ele>
        <time>2024-04-21T08:59:56Z</time>
      </trkpt>
      <trkpt lat="48.07401" lon="3.23268">
        <ele>179.8</ele>
        <time>2024-04-21T08:59:57Z</time>
      </trkpt>
      <trkpt lat="48.07399" lon="3.2327">
        <ele>180</ele>
        <time>2024-04-21T08:59:58Z</time>
      </trkpt>
      <trkpt lat="48.07396" lon="3.23275">
        <ele>180.4</ele>
        <time>2024-04-21T09:00:03Z</time>
      </trkpt>
      <trkpt lat="48.07394" lon="3.23287">
        <ele>181</ele>
        <time>2024-04-21T09:00:09Z</time>
      </trkpt>
      <trkpt lat="48.0739" lon="3.23298">
        <ele>181.6</ele>
        <time>2024-04-21T09:00:14Z</time>
      </trkpt>
      <trkpt lat="48.07388" lon="3.23303">
        <ele>182</ele>
        <time>2024-04-21T09:00:16Z</time>
      </trkpt>
      <trkpt lat="48.07381" lon="3.23322">
        <ele>183.2</ele>
        <time>2024-04-21T09:00:23Z</time>
      </trkpt>
      <trkpt lat="48.07376" lon="3.23346">
        <ele>184.6</ele>
        <time>2024-04-21T09:00:31Z</time>
      </trkpt>
      <trkpt lat="48.07375" lon="3.23354">
        <ele>185.1</ele>
        <time>2024-04-21T09:00:34Z</time>
      </trkpt>
      <trkpt lat="48.07372" lon="3.23366">
        <ele>185.8</ele>
        <time>2024-04-21T09:00:38Z</time>
      </trkpt>
      <trkpt lat="48.07363" lon="3.23389">
        <ele>187.8</ele>
        <time>2024-04-21T09:00:45Z</time>
      </trkpt>
      <trkpt lat="48.0736" lon="3.23402">
        <ele>188.1</ele>
        <time>2024-04-21T09:00:49Z</time>
      </trkpt>
      <trkpt lat="48.07361" lon="3.23413">
        <ele>188</ele>
        <time>2024-04-21T09:00:52Z</time>
      </trkpt>
      <trkpt lat="48.07355" lon="3.23438">
        <ele>189</ele>
        <time>2024-04-21T09:01:00Z</time>
      </trkpt>
      <trkpt lat="48.07351" lon="3.23466">
        <ele>189.6</ele>
        <time>2024-04-21T09:01:07Z</time>
      </trkpt>
      <trkpt lat="48.07348" lon="3.23497">
        <ele>190.4</ele>
        <time>2024-04-21T09:01:15Z</time>
      </trkpt>
      <trkpt lat="48.07344" lon="3.23523">
        <ele>190.6</ele>
        <time>2024-04-21T09:01:23Z</time>
      </trkpt>
      <trkpt lat="48.07331" lon="3.23552">
        <ele>191.1</ele>
        <time>2024-04-21T09:01:31Z</time>
      </trkpt>
      <trkpt lat="48.07329" lon="3.23575">
        <ele>191.2</ele>
        <time>2024-04-21T09:01:37Z</time>
      </trkpt>
      <trkpt lat="48.07321" lon="3.23601">
        <ele>191.8</ele>
        <time>2024-04-21T09:01:44Z</time>
      </trkpt>
      <trkpt lat="48.07314" lon="3.23616">
        <ele>191.9</ele>
        <time>2024-04-21T09:01:48Z</time>
      </trkpt>
      <trkpt lat="48.07298" lon="3.23639">
        <ele>191</ele>
        <time>2024-04-21T09:01:54Z</time>
      </trkpt>
      <trkpt lat="48.07283" lon="3.23666">
        <ele>190.2</ele>
        <time>2024-04-21T09:02:00Z</time>
      </trkpt>
      <trkpt lat="48.07275" lon="3.23688">
        <ele>189</ele>
        <time>2024-04-21T09:02:05Z</time>
      </trkpt>
      <trkpt lat="48.07272" lon="3.23695">
        <ele>188.6</ele>
        <time>2024-04-21T09:02:06Z</time>
      </trkpt>
      <trkpt lat="48.07247" lon="3.23746">
        <ele>185</ele>
        <time>2024-04-21T09:02:14Z</time>
      </trkpt>
      <trkpt lat="48.0724" lon="3.23758">
        <ele>184.5</ele>
        <time>2024-04-21T09:02:16Z</time>
      </trkpt>
      <trkpt lat="48.07224" lon="3.23781">
        <ele>183.1</ele>
        <time>2024-04-21T09:02:20Z</time>
      </trkpt>
      <trkpt lat="48.0721" lon="3.23797">
        <ele>182.3</ele>
        <time>2024-04-21T09:02:23Z</time>
      </trkpt>
      <trkpt lat="48.07189" lon="3.2382">
        <ele>180.3</ele>
        <time>2024-04-21T09:02:27Z</time>
      </trkpt>
      <trkpt lat="48.07155" lon="3.23869">
        <ele>177.3</ele>
        <time>2024-04-21T09:02:33Z</time>
      </trkpt>
      <trkpt lat="48.07151" lon="3.23874">
        <ele>177</ele>
        <time>2024-04-21T09:02:34Z</time>
      </trkpt>
      <trkpt lat="48.07136" lon="3.23899">
        <ele>175.3</ele>
        <time>2024-04-21T09:02:37Z</time>
      </trkpt>
      <trkpt lat="48.07121" lon="3.23925">
        <ele>173</ele>
        <time>2024-04-21T09:02:42Z</time>
      </trkpt>
      <trkpt lat="48.07116" lon="3.23934">
        <ele>172.4</ele>
        <time>2024-04-21T09:02:44Z</time>
      </trkpt>
      <trkpt lat="48.0711" lon="3.23933">
        <ele>171.9</ele>
        <time>2024-04-21T09:02:49Z</time>
      </trkpt>
      <trkpt lat="48.07108" lon="3.23928">
        <ele>171.7</ele>
        <time>2024-04-21T09:02:53Z</time>
      </trkpt>
      <trkpt lat="48.07101" lon="3.23909">
        <ele>171.2</ele>
        <time>2024-04-21T09:03:01Z</time>
      </trkpt>
      <trkpt lat="48.07097" lon="3.2389">
        <ele>171.4</ele>
        <time>2024-04-21T09:03:08Z</time>
      </trkpt>
      <trkpt lat="48.07097" lon="3.23888">
        <ele>171.5</ele>
        <time>2024-04-21T09:03:17Z</time>
      </trkpt>
      <trkpt lat="48.07097" lon="3.23888">
        <ele>171.5</ele>
        <time>2024-04-21T09:04:11Z</time>
      </trkpt>
      <trkpt lat="48.07097" lon="3.23887">
        <ele>171.5</ele>
        <time>2024-04-21T09:04:22Z</time>
      </trkpt>
      <trkpt lat="48.07096" lon="3.239">
        <ele>171</ele>
        <time>2024-04-21T09:04:44Z</time>
      </trkpt>
      <trkpt lat="48.07106" lon="3.23929">
        <ele>171.5</ele>
        <time>2024-04-21T09:04:52Z</time>
      </trkpt>
      <trkpt lat="48.07118" lon="3.23962">
        <ele>171.9</ele>
        <time>2024-04-21T09:05:00Z</time>
      </trkpt>
      <trkpt lat="48.07131" lon="3.23985">
        <ele>171.8</ele>
        <time>2024-04-21T09:05:07Z</time>
      </trkpt>
      <trkpt lat="48.07139" lon="3.24003">
        <ele>170.9</ele>
        <time>2024-04-21T09:05:11Z</time>
      </trkpt>
      <trkpt lat="48.07139" lon="3.24008">
        <ele>170.7</ele>
        <time>2024-04-21T09:05:12Z</time>
      </trkpt>
      <trkpt lat="48.0714" lon="3.24012">
        <ele>170.6</ele>
        <time>2024-04-21T09:05:13Z</time>
      </trkpt>
      <trkpt lat="48.07141" lon="3.24017">
        <ele>170.5</ele>
        <time>2024-04-21T09:05:14Z</time>
      </trkpt>
      <trkpt lat="48.07142" lon="3.24021">
        <ele>170.4</ele>
        <time>2024-04-21T09:05:15Z</time>
      </trkpt>
      <trkpt lat="48.07142" lon="3.24025">
        <ele>170.2</ele>
        <time>2024-04-21T09:05:16Z</time>
      </trkpt>
      <trkpt lat="48.07153" lon="3.24045">
        <ele>169.9</ele>
        <time>2024-04-21T09:05:21Z</time>
      </trkpt>
      <trkpt lat="48.07173" lon="3.24081">
        <ele>167.2</ele>
        <time>2024-04-21T09:05:28Z</time>
      </trkpt>
      <trkpt lat="48.07179" lon="3.24093">
        <ele>166.5</ele>
        <time>2024-04-21T09:05:30Z</time>
      </trkpt>
      <trkpt lat="48.07182" lon="3.24099">
        <ele>166.1</ele>
        <time>2024-04-21T09:05:31Z</time>
      </trkpt>
      <trkpt lat="48.07186" lon="3.24112">
        <ele>165.3</ele>
        <time>2024-04-21T09:05:33Z</time>
      </trkpt>
      <trkpt lat="48.07189" lon="3.24119">
        <ele>165</ele>
        <time>2024-04-21T09:05:34Z</time>
      </trkpt>
      <trkpt lat="48.07198" lon="3.24139">
        <ele>164</ele>
        <time>2024-04-21T09:05:37Z</time>
      </trkpt>
      <trkpt lat="48.072" lon="3.24146">
        <ele>163.7</ele>
        <time>2024-04-21T09:05:38Z</time>
      </trkpt>
      <trkpt lat="48.07203" lon="3.24154">
        <ele>163.5</ele>
        <time>2024-04-21T09:05:39Z</time>
      </trkpt>
      <trkpt lat="48.07208" lon="3.24168">
        <ele>162.9</ele>
        <time>2024-04-21T09:05:41Z</time>
      </trkpt>
      <trkpt lat="48.07213" lon="3.24182">
        <ele>162.1</ele>
        <time>2024-04-21T09:05:43Z</time>
      </trkpt>
      <trkpt lat="48.07219" lon="3.24205">
        <ele>160.8</ele>
        <time>2024-04-21T09:05:46Z</time>
      </trkpt>
      <trkpt lat="48.07231" lon="3.24261">
        <ele>158.9</ele>
        <time>2024-04-21T09:05:53Z</time>
      </trkpt>
      <trkpt lat="48.07238" lon="3.24308">
        <ele>157.4</ele>
        <time>2024-04-21T09:05:58Z</time>
      </trkpt>
      <trkpt lat="48.0724" lon="3.24328">
        <ele>156.3</ele>
        <time>2024-04-21T09:06:00Z</time>
      </trkpt>
      <trkpt lat="48.07238" lon="3.2439">
        <ele>154.5</ele>
        <time>2024-04-21T09:06:06Z</time>
      </trkpt>
      <trkpt lat="48.07237" lon="3.244">
        <ele>154.1</ele>
        <time>2024-04-21T09:06:07Z</time>
      </trkpt>
      <trkpt lat="48.07235" lon="3.24411">
        <ele>153.7</ele>
        <time>2024-04-21T09:06:08Z</time>
      </trkpt>
      <trkpt lat="48.07234" lon="3.24431">
        <ele>152.9</ele>
        <time>2024-04-21T09:06:10Z</time>
      </trkpt>
      <trkpt lat="48.07231" lon="3.24451">
        <ele>151.9</ele>
        <time>2024-04-21T09:06:12Z</time>
      </trkpt>
      <trkpt lat="48.07217" lon="3.24519">
        <ele>149.4</ele>
        <time>2024-04-21T09:06:19Z</time>
      </trkpt>
      <trkpt lat="48.07216" lon="3.24546">
        <ele>148.2</ele>
        <time>2024-04-21T09:06:22Z</time>
      </trkpt>
      <trkpt lat="48.07222" lon="3.24587">
        <ele>146</ele>
        <time>2024-04-21T09:06:28Z</time>
      </trkpt>
      <trkpt lat="48.07228" lon="3.24621">
        <ele>146.2</ele>
        <time>2024-04-21T09:06:34Z</time>
      </trkpt>
      <trkpt lat="48.07236" lon="3.24643">
        <ele>146</ele>
        <time>2024-04-21T09:06:38Z</time>
      </trkpt>
      <trkpt lat="48.07247" lon="3.24666">
        <ele>146</ele>
        <time>2024-04-21T09:06:42Z</time>
      </trkpt>
      <trkpt lat="48.07253" lon="3.24678">
        <ele>146.2</ele>
        <time>2024-04-21T09:06:44Z</time>
      </trkpt>
      <trkpt lat="48.07277" lon="3.2472">
        <ele>145.2</ele>
        <time>2024-04-21T09:06:52Z</time>
      </trkpt>
      <trkpt lat="48.07298" lon="3.24747">
        <ele>145.4</ele>
        <time>2024-04-21T09:06:58Z</time>
      </trkpt>
      <trkpt lat="48.07319" lon="3.24762">
        <ele>145.1</ele>
        <time>2024-04-21T09:07:03Z</time>
      </trkpt>
      <trkpt lat="48.07339" lon="3.24778">
        <ele>144</ele>
        <time>2024-04-21T09:07:08Z</time>
      </trkpt>
      <trkpt lat="48.07351" lon="3.2479">
        <ele>143.3</ele>
        <time>2024-04-21T09:07:13Z</time>
      </trkpt>
      <trkpt lat="48.07361" lon="3.24797">
        <ele>142.6</ele>
        <time>2024-04-21T09:07:20Z</time>
      </trkpt>
      <trkpt lat="48.07368" lon="3.24804">
        <ele>142.4</ele>
        <time>2024-04-21T09:07:25Z</time>
      </trkpt>
      <trkpt lat="48.07369" lon="3.24807">
        <ele>142.3</ele>
        <time>2024-04-21T09:07:32Z</time>
      </trkpt>
      <trkpt lat="48.0737" lon="3.24807">
        <ele>142.3</ele>
        <time>2024-04-21T09:07:45Z</time>
      </trkpt>
      <trkpt lat="48.07336" lon="3.24772">
        <ele>144.5</ele>
        <time>2024-04-21T09:12:16Z</time>
      </trkpt>
      <trkpt lat="48.07322" lon="3.24764">
        <ele>145</ele>
        <time>2024-04-21T09:12:22Z</time>
      </trkpt>
      <trkpt lat="48.07305" lon="3.24753">
        <ele>145</ele>
        <time>2024-04-21T09:12:29Z</time>
      </trkpt>
      <trkpt lat="48.0729" lon="3.24735">
        <ele>145.7</ele>
        <time>2024-04-21T09:12:36Z</time>
      </trkpt>
      <trkpt lat="48.07278" lon="3.24719">
        <ele>145.2</ele>
        <time>2024-04-21T09:12:42Z</time>
      </trkpt>
      <trkpt lat="48.07267" lon="3.24704">
        <ele>146.3</ele>
        <time>2024-04-21T09:12:48Z</time>
      </trkpt>
      <trkpt lat="48.07259" lon="3.2469">
        <ele>146.4</ele>
        <time>2024-04-21T09:12:54Z</time>
      </trkpt>
      <trkpt lat="48.07246" lon="3.24671">
        <ele>146</ele>
        <time>2024-04-21T09:13:01Z</time>
      </trkpt>
      <trkpt lat="48.07234" lon="3.24654">
        <ele>145.9</ele>
        <time>2024-04-21T09:13:08Z</time>
      </trkpt>
      <trkpt lat="48.07225" lon="3.24632">
        <ele>145.5</ele>
        <time>2024-04-21T09:13:16Z</time>
      </trkpt>
      <trkpt lat="48.0722" lon="3.24623">
        <ele>145.6</ele>
        <time>2024-04-21T09:13:21Z</time>
      </trkpt>
      <trkpt lat="48.07216" lon="3.24625">
        <ele>145.5</ele>
        <time>2024-04-21T09:13:25Z</time>
      </trkpt>
      <trkpt lat="48.07216" lon="3.24628">
        <ele>145.4</ele>
        <time>2024-04-21T09:13:26Z</time>
      </trkpt>
      <trkpt lat="48.07213" lon="3.24633">
        <ele>145.4</ele>
        <time>2024-04-21T09:13:29Z</time>
      </trkpt>
      <trkpt lat="48.07207" lon="3.24645">
        <ele>145.8</ele>
        <time>2024-04-21T09:13:36Z</time>
      </trkpt>
      <trkpt lat="48.07203" lon="3.24653">
        <ele>146.2</ele>
        <time>2024-04-21T09:13:42Z</time>
      </trkpt>
      <trkpt lat="48.072" lon="3.24657">
        <ele>146.5</ele>
        <time>2024-04-21T09:13:45Z</time>
      </trkpt>
      <trkpt lat="48.07194" lon="3.24671">
        <ele>147.5</ele>
        <time>2024-04-21T09:13:53Z</time>
      </trkpt>
      <trkpt lat="48.07192" lon="3.24685">
        <ele>149.3</ele>
        <time>2024-04-21T09:14:00Z</time>
      </trkpt>
      <trkpt lat="48.07192" lon="3.24689">
        <ele>149.7</ele>
        <time>2024-04-21T09:14:02Z</time>
      </trkpt>
      <trkpt lat="48.07187" lon="3.24704">
        <ele>151.8</ele>
        <time>2024-04-21T09:14:11Z</time>
      </trkpt>
      <trkpt lat="48.07185" lon="3.24711">
        <ele>152.8</ele>
        <time>2024-04-21T09:14:17Z</time>
      </trkpt>
      <trkpt lat="48.0718" lon="3.24724">
        <ele>154.7</ele>
        <time>2024-04-21T09:14:25Z</time>
      </trkpt>
      <trkpt lat="48.07172" lon="3.24736">
        <ele>156.4</ele>
        <time>2024-04-21T09:14:32Z</time>
      </trkpt>
      <trkpt lat="48.07172" lon="3.24738">
        <ele>156.6</ele>
        <time>2024-04-21T09:14:33Z</time>
      </trkpt>
      <trkpt lat="48.07167" lon="3.24754">
        <ele>158.3</ele>
        <time>2024-04-21T09:14:40Z</time>
      </trkpt>
      <trkpt lat="48.07165" lon="3.24761">
        <ele>159</ele>
        <time>2024-04-21T09:14:43Z</time>
      </trkpt>
      <trkpt lat="48.07164" lon="3.24765">
        <ele>159.4</ele>
        <time>2024-04-21T09:14:45Z</time>
      </trkpt>
      <trkpt lat="48.07159" lon="3.24778">
        <ele>160.8</ele>
        <time>2024-04-21T09:14:53Z</time>
      </trkpt>
      <trkpt lat="48.07153" lon="3.24791">
        <ele>162.2</ele>
        <time>2024-04-21T09:15:00Z</time>
      </trkpt>
      <trkpt lat="48.07146" lon="3.24804">
        <ele>163.4</ele>
        <time>2024-04-21T09:15:07Z</time>
      </trkpt>
      <trkpt lat="48.07145" lon="3.24809">
        <ele>163.8</ele>
        <time>2024-04-21T09:15:09Z</time>
      </trkpt>
      <trkpt lat="48.07137" lon="3.2482">
        <ele>165.2</ele>
        <time>2024-04-21T09:15:17Z</time>
      </trkpt>
      <trkpt lat="48.07136" lon="3.24821">
        <ele>165.4</ele>
        <time>2024-04-21T09:15:18Z</time>
      </trkpt>
      <trkpt lat="48.07134" lon="3.24824">
        <ele>165.7</ele>
        <time>2024-04-21T09:15:20Z</time>
      </trkpt>
      <trkpt lat="48.07129" lon="3.24833">
        <ele>166.7</ele>
        <time>2024-04-21T09:15:26Z</time>
      </trkpt>
      <trkpt lat="48.0712" lon="3.24847">
        <ele>167.9</ele>
        <time>2024-04-21T09:15:33Z</time>
      </trkpt>
      <trkpt lat="48.07113" lon="3.24867">
        <ele>169.1</ele>
        <time>2024-04-21T09:15:41Z</time>
      </trkpt>
      <trkpt lat="48.07101" lon="3.2489">
        <ele>170.8</ele>
        <time>2024-04-21T09:15:50Z</time>
      </trkpt>
      <trkpt lat="48.07091" lon="3.24915">
        <ele>171.7</ele>
        <time>2024-04-21T09:15:59Z</time>
      </trkpt>
      <trkpt lat="48.07077" lon="3.24946">
        <ele>173.2</ele>
        <time>2024-04-21T09:16:10Z</time>
      </trkpt>
      <trkpt lat="48.07072" lon="3.24956">
        <ele>173.6</ele>
        <time>2024-04-21T09:16:33Z</time>
      </trkpt>
      <trkpt lat="48.07072" lon="3.24956">
        <ele>173.6</ele>
        <time>2024-04-21T09:16:48Z</time>
      </trkpt>
      <trkpt lat="48.0707" lon="3.24968">
        <ele>173.9</ele>
        <time>2024-04-21T09:17:26Z</time>
      </trkpt>
      <trkpt lat="48.07068" lon="3.24985">
        <ele>174.3</ele>
        <time>2024-04-21T09:17:33Z</time>
      </trkpt>
      <trkpt lat="48.07071" lon="3.24994">
        <ele>174.3</ele>
        <time>2024-04-21T09:17:37Z</time>
      </trkpt>
      <trkpt lat="48.07083" lon="3.25008">
        <ele>174</ele>
        <time>2024-04-21T09:17:45Z</time>
      </trkpt>
      <trkpt lat="48.07094" lon="3.25017">
        <ele>173.5</ele>
        <time>2024-04-21T09:17:49Z</time>
      </trkpt>
      <trkpt lat="48.07117" lon="3.25041">
        <ele>172.6</ele>
        <time>2024-04-21T09:17:56Z</time>
      </trkpt>
      <trkpt lat="48.07136" lon="3.25063">
        <ele>171.2</ele>
        <time>2024-04-21T09:18:03Z</time>
      </trkpt>
      <trkpt lat="48.07158" lon="3.25084">
        <ele>170.3</ele>
        <time>2024-04-21T09:18:11Z</time>
      </trkpt>
      <trkpt lat="48.07174" lon="3.25102">
        <ele>170</ele>
        <time>2024-04-21T09:18:17Z</time>
      </trkpt>
      <trkpt lat="48.07191" lon="3.25127">
        <ele>169.5</ele>
        <time>2024-04-21T09:18:25Z</time>
      </trkpt>
      <trkpt lat="48.07207" lon="3.25153">
        <ele>168.5</ele>
        <time>2024-04-21T09:18:33Z</time>
      </trkpt>
      <trkpt lat="48.07218" lon="3.25174">
        <ele>168</ele>
        <time>2024-04-21T09:18:40Z</time>
      </trkpt>
      <trkpt lat="48.07223" lon="3.25194">
        <ele>168</ele>
        <time>2024-04-21T09:18:46Z</time>
      </trkpt>
      <trkpt lat="48.07226" lon="3.25201">
        <ele>167.8</ele>
        <time>2024-04-21T09:18:48Z</time>
      </trkpt>
      <trkpt lat="48.07235" lon="3.25229">
        <ele>166.6</ele>
        <time>2024-04-21T09:18:55Z</time>
      </trkpt>
      <trkpt lat="48.07242" lon="3.25244">
        <ele>166</ele>
        <time>2024-04-21T09:18:59Z</time>
      </trkpt>
      <trkpt lat="48.07257" lon="3.25271">
        <ele>164.7</ele>
        <time>2024-04-21T09:19:06Z</time>
      </trkpt>
      <trkpt lat="48.07267" lon="3.25295">
        <ele>163.8</ele>
        <time>2024-04-21T09:19:12Z</time>
      </trkpt>
      <trkpt lat="48.07284" lon="3.25331">
        <ele>162.6</ele>
        <time>2024-04-21T09:19:20Z</time>
      </trkpt>
      <trkpt lat="48.07304" lon="3.2535">
        <ele>162.7</ele>
        <time>2024-04-21T09:19:26Z</time>
      </trkpt>
      <trkpt lat="48.07319" lon="3.2536">
        <ele>162.1</ele>
        <time>2024-04-21T09:19:32Z</time>
      </trkpt>
      <trkpt lat="48.07323" lon="3.25365">
        <ele>161.8</ele>
        <time>2024-04-21T09:19:39Z</time>
      </trkpt>
      <trkpt lat="48.07324" lon="3.25367">
        <ele>161.7</ele>
        <time>2024-04-21T09:19:53Z</time>
      </trkpt>
      <trkpt lat="48.07326" lon="3.25368">
        <ele>161.7</ele>
        <time>2024-04-21T09:19:57Z</time>
      </trkpt>
      <trkpt lat="48.07331" lon="3.25371">
        <ele>161.6</ele>
        <time>2024-04-21T09:20:00Z</time>
      </trkpt>
      <trkpt lat="48.07339" lon="3.25377">
        <ele>161.3</ele>
        <time>2024-04-21T09:20:04Z</time>
      </trkpt>
      <trkpt lat="48.07354" lon="3.25388">
        <ele>160.3</ele>
        <time>2024-04-21T09:20:12Z</time>
      </trkpt>
      <trkpt lat="48.0736" lon="3.25392">
        <ele>159.9</ele>
        <time>2024-04-21T09:20:31Z</time>
      </trkpt>
      <trkpt lat="48.07362" lon="3.25391">
        <ele>159.9</ele>
        <time>2024-04-21T09:20:37Z</time>
      </trkpt>
      <trkpt lat="48.07364" lon="3.25391">
        <ele>159.8</ele>
        <time>2024-04-21T09:22:17Z</time>
      </trkpt>
      <trkpt lat="48.07366" lon="3.25395">
        <ele>159.6</ele>
        <time>2024-04-21T09:22:19Z</time>
      </trkpt>
      <trkpt lat="48.07369" lon="3.25414">
        <ele>158.8</ele>
        <time>2024-04-21T09:22:25Z</time>
      </trkpt>
      <trkpt lat="48.0738" lon="3.25442">
        <ele>156.2</ele>
        <time>2024-04-21T09:22:32Z</time>
      </trkpt>
      <trkpt lat="48.07389" lon="3.25471">
        <ele>154.1</ele>
        <time>2024-04-21T09:22:38Z</time>
      </trkpt>
      <trkpt lat="48.07399" lon="3.25489">
        <ele>152.2</ele>
        <time>2024-04-21T09:22:44Z</time>
      </trkpt>
      <trkpt lat="48.07401" lon="3.25494">
        <ele>151.6</ele>
        <time>2024-04-21T09:22:50Z</time>
      </trkpt>
      <trkpt lat="48.07416" lon="3.25507">
        <ele>150.5</ele>
        <time>2024-04-21T09:22:58Z</time>
      </trkpt>
      <trkpt lat="48.07424" lon="3.25518">
        <ele>149.4</ele>
        <time>2024-04-21T09:23:02Z</time>
      </trkpt>
      <trkpt lat="48.07452" lon="3.25551">
        <ele>146.1</ele>
        <time>2024-04-21T09:23:10Z</time>
      </trkpt>
      <trkpt lat="48.07471" lon="3.25575">
        <ele>144.3</ele>
        <time>2024-04-21T09:23:16Z</time>
      </trkpt>
      <trkpt lat="48.0748" lon="3.25584">
        <ele>143.7</ele>
        <time>2024-04-21T09:23:18Z</time>
      </trkpt>
      <trkpt lat="48.07485" lon="3.25596">
        <ele>142.6</ele>
        <time>2024-04-21T09:23:20Z</time>
      </trkpt>
      <trkpt lat="48.07496" lon="3.25628">
        <ele>139.8</ele>
        <time>2024-04-21T09:23:25Z</time>
      </trkpt>
      <trkpt lat="48.07498" lon="3.25633">
        <ele>139.4</ele>
        <time>2024-04-21T09:23:26Z</time>
      </trkpt>
      <trkpt lat="48.07499" lon="3.25638">
        <ele>139</ele>
        <time>2024-04-21T09:23:27Z</time>
      </trkpt>
      <trkpt lat="48.07514" lon="3.25668">
        <ele>136.4</ele>
        <time>2024-04-21T09:23:32Z</time>
      </trkpt>
      <trkpt lat="48.0752" lon="3.25676">
        <ele>135.7</ele>
        <time>2024-04-21T09:23:34Z</time>
      </trkpt>
      <trkpt lat="48.07525" lon="3.25691">
        <ele>134.3</ele>
        <time>2024-04-21T09:23:38Z</time>
      </trkpt>
      <trkpt lat="48.07528" lon="3.25693">
        <ele>134.2</ele>
        <time>2024-04-21T09:23:39Z</time>
      </trkpt>
      <trkpt lat="48.07529" lon="3.25693">
        <ele>134.2</ele>
        <time>2024-04-21T09:23:40Z</time>
      </trkpt>
      <trkpt lat="48.0754" lon="3.25707">
        <ele>132.8</ele>
        <time>2024-04-21T09:23:45Z</time>
      </trkpt>
      <trkpt lat="48.07557" lon="3.2574">
        <ele>130.1</ele>
        <time>2024-04-21T09:23:51Z</time>
      </trkpt>
      <trkpt lat="48.07572" lon="3.2576">
        <ele>128.3</ele>
        <time>2024-04-21T09:23:54Z</time>
      </trkpt>
      <trkpt lat="48.07577" lon="3.25766">
        <ele>127.8</ele>
        <time>2024-04-21T09:23:55Z</time>
      </trkpt>
      <trkpt lat="48.07581" lon="3.25771">
        <ele>127.5</ele>
        <time>2024-04-21T09:23:56Z</time>
      </trkpt>
      <trkpt lat="48.07596" lon="3.25793">
        <ele>125.4</ele>
        <time>2024-04-21T09:24:00Z</time>
      </trkpt>
      <trkpt lat="48.07597" lon="3.258">
        <ele>124.9</ele>
        <time>2024-04-21T09:24:01Z</time>
      </trkpt>
      <trkpt lat="48.07595" lon="3.25808">
        <ele>124.3</ele>
        <time>2024-04-21T09:24:02Z</time>
      </trkpt>
      <trkpt lat="48.07592" lon="3.25815">
        <ele>123.7</ele>
        <time>2024-04-21T09:24:03Z</time>
      </trkpt>
      <trkpt lat="48.07589" lon="3.25824">
        <ele>122.8</ele>
        <time>2024-04-21T09:24:04Z</time>
      </trkpt>
      <trkpt lat="48.07585" lon="3.25832">
        <ele>122.1</ele>
        <time>2024-04-21T09:24:05Z</time>
      </trkpt>
      <trkpt lat="48.07579" lon="3.25847">
        <ele>121.2</ele>
        <time>2024-04-21T09:24:07Z</time>
      </trkpt>
      <trkpt lat="48.07577" lon="3.25855">
        <ele>120.8</ele>
        <time>2024-04-21T09:24:08Z</time>
      </trkpt>
      <trkpt lat="48.07576" lon="3.25862">
        <ele>120.5</ele>
        <time>2024-04-21T09:24:09Z</time>
      </trkpt>
      <trkpt lat="48.07577" lon="3.25868">
        <ele>120.5</ele>
        <time>2024-04-21T09:24:10Z</time>
      </trkpt>
      <trkpt lat="48.0758" lon="3.25874">
        <ele>120.2</ele>
        <time>2024-04-21T09:24:11Z</time>
      </trkpt>
      <trkpt lat="48.07585" lon="3.2588">
        <ele>119.9</ele>
        <time>2024-04-21T09:24:12Z</time>
      </trkpt>
      <trkpt lat="48.07612" lon="3.25907">
        <ele>116.3</ele>
        <time>2024-04-21T09:24:16Z</time>
      </trkpt>
      <trkpt lat="48.07657" lon="3.25957">
        <ele>111.5</ele>
        <time>2024-04-21T09:24:22Z</time>
      </trkpt>
      <trkpt lat="48.07664" lon="3.25966">
        <ele>111.1</ele>
        <time>2024-04-21T09:24:23Z</time>
      </trkpt>
      <trkpt lat="48.0767" lon="3.25978">
        <ele>110.7</ele>
        <time>2024-04-21T09:24:24Z</time>
      </trkpt>
      <trkpt lat="48.07674" lon="3.25989">
        <ele>110.3</ele>
        <time>2024-04-21T09:24:25Z</time>
      </trkpt>
      <trkpt lat="48.07677" lon="3.26002">
        <ele>110</ele>
        <time>2024-04-21T09:24:26Z</time>
      </trkpt>
      <trkpt lat="48.07679" lon="3.26016">
        <ele>110</ele>
        <time>2024-04-21T09:24:27Z</time>
      </trkpt>
      <trkpt lat="48.0768" lon="3.26029">
        <ele>110</ele>
        <time>2024-04-21T09:24:28Z</time>
      </trkpt>
      <trkpt lat="48.0768" lon="3.26042">
        <ele>110.2</ele>
        <time>2024-04-21T09:24:29Z</time>
      </trkpt>
      <trkpt lat="48.07679" lon="3.26054">
        <ele>110.4</ele>
        <time>2024-04-21T09:24:30Z</time>
      </trkpt>
      <trkpt lat="48.07675" lon="3.2616">
        <ele>107.5</ele>
        <time>2024-04-21T09:24:39Z</time>
      </trkpt>
      <trkpt lat="48.07676" lon="3.26265">
        <ele>105.8</ele>
        <time>2024-04-21T09:24:48Z</time>
      </trkpt>
    </trkseg>
  </trk>
  <trk>
    <name><![CDATA[VTT3]]></name>
    <extensions>
      <line xmlns="http://www.topografix.com/GPX/gpx_style/0/2">
        <color>1eff00</color>
        <width>4</width>
      </line>
    </extensions>
    <trkseg>
      <trkpt lat="48.0768" lon="3.2627">
        <ele>105.7</ele>
      </trkpt>
      <trkpt lat="48.07675" lon="3.26441">
        <ele>102.6</ele>
      </trkpt>
      <trkpt lat="48.07671" lon="3.26497">
        <ele>101.7</ele>
      </trkpt>
      <trkpt lat="48.0766" lon="3.26559">
        <ele>100.7</ele>
      </trkpt>
      <trkpt lat="48.07661" lon="3.26606">
        <ele>100.4</ele>
        <time>2024-03-30T11:37:02.000Z</time>
      </trkpt>
      <trkpt lat="48.07661" lon="3.2661">
        <ele>100.4</ele>
        <time>2024-03-30T11:37:04.000Z</time>
      </trkpt>
      <trkpt lat="48.07661" lon="3.26612">
        <ele>100.4</ele>
        <time>2024-03-30T11:37:05.000Z</time>
      </trkpt>
      <trkpt lat="48.07661" lon="3.26615">
        <ele>100.3</ele>
        <time>2024-03-30T11:37:06.000Z</time>
      </trkpt>
      <trkpt lat="48.07661" lon="3.2662">
        <ele>100.2</ele>
        <time>2024-03-30T11:37:09.000Z</time>
      </trkpt>
      <trkpt lat="48.07661" lon="3.26622">
        <ele>100.1</ele>
        <time>2024-03-30T11:37:10.000Z</time>
      </trkpt>
      <trkpt lat="48.07661" lon="3.26623">
        <ele>100.1</ele>
        <time>2024-03-30T11:37:11.000Z</time>
      </trkpt>
      <trkpt lat="48.07661" lon="3.26625">
        <ele>100</ele>
        <time>2024-03-30T11:37:12.000Z</time>
      </trkpt>
      <trkpt lat="48.07661" lon="3.26627">
        <ele>100</ele>
        <time>2024-03-30T11:37:13.000Z</time>
      </trkpt>
      <trkpt lat="48.07661" lon="3.26628">
        <ele>99.9</ele>
        <time>2024-03-30T11:37:14.000Z</time>
      </trkpt>
      <trkpt lat="48.07662" lon="3.2663">
        <ele>99.8</ele>
        <time>2024-03-30T11:37:15.000Z</time>
      </trkpt>
      <trkpt lat="48.07662" lon="3.26632">
        <ele>99.7</ele>
        <time>2024-03-30T11:37:16.000Z</time>
      </trkpt>
      <trkpt lat="48.07663" lon="3.26633">
        <ele>99.6</ele>
        <time>2024-03-30T11:37:17.000Z</time>
      </trkpt>
      <trkpt lat="48.07664" lon="3.26633">
        <ele>99.5</ele>
        <time>2024-03-30T11:37:18.000Z</time>
      </trkpt>
      <trkpt lat="48.07665" lon="3.26634">
        <ele>99.3</ele>
        <time>2024-03-30T11:37:19.000Z</time>
      </trkpt>
      <trkpt lat="48.07666" lon="3.26635">
        <ele>99.2</ele>
        <time>2024-03-30T11:37:20.000Z</time>
      </trkpt>
      <trkpt lat="48.07667" lon="3.26635">
        <ele>99.2</ele>
        <time>2024-03-30T11:37:21.000Z</time>
      </trkpt>
      <trkpt lat="48.07667" lon="3.26635">
        <ele>99.2</ele>
        <time>2024-03-30T11:37:22.000Z</time>
      </trkpt>
      <trkpt lat="48.07668" lon="3.26635">
        <ele>99.4</ele>
        <time>2024-03-30T11:37:23.000Z</time>
      </trkpt>
      <trkpt lat="48.07669" lon="3.26635">
        <ele>99.6</ele>
        <time>2024-03-30T11:37:24.000Z</time>
      </trkpt>
      <trkpt lat="48.0767" lon="3.26635">
        <ele>99.8</ele>
        <time>2024-03-30T11:37:25.000Z</time>
      </trkpt>
      <trkpt lat="48.0767" lon="3.26635">
        <ele>99.8</ele>
        <time>2024-03-30T11:37:26.000Z</time>
      </trkpt>
      <trkpt lat="48.07671" lon="3.26635">
        <ele>100.1</ele>
        <time>2024-03-30T11:37:27.000Z</time>
      </trkpt>
      <trkpt lat="48.07672" lon="3.26635">
        <ele>100.3</ele>
        <time>2024-03-30T11:37:28.000Z</time>
      </trkpt>
      <trkpt lat="48.07673" lon="3.26634">
        <ele>100.5</ele>
        <time>2024-03-30T11:37:29.000Z</time>
      </trkpt>
      <trkpt lat="48.07676" lon="3.26633">
        <ele>101.2</ele>
        <time>2024-03-30T11:37:32.000Z</time>
      </trkpt>
      <trkpt lat="48.07677" lon="3.26632">
        <ele>101.4</ele>
        <time>2024-03-30T11:37:33.000Z</time>
      </trkpt>
      <trkpt lat="48.07678" lon="3.26632">
        <ele>101.6</ele>
        <time>2024-03-30T11:37:34.000Z</time>
      </trkpt>
      <trkpt lat="48.07679" lon="3.26631">
        <ele>101.8</ele>
        <time>2024-03-30T11:37:35.000Z</time>
      </trkpt>
      <trkpt lat="48.0768" lon="3.26631">
        <ele>102</ele>
        <time>2024-03-30T11:37:36.000Z</time>
      </trkpt>
      <trkpt lat="48.0768" lon="3.26631">
        <ele>102</ele>
        <time>2024-03-30T11:37:37.000Z</time>
      </trkpt>
      <trkpt lat="48.07681" lon="3.2663">
        <ele>102.3</ele>
        <time>2024-03-30T11:37:38.000Z</time>
      </trkpt>
      <trkpt lat="48.07682" lon="3.2663">
        <ele>102.5</ele>
        <time>2024-03-30T11:37:39.000Z</time>
      </trkpt>
      <trkpt lat="48.07682" lon="3.26629">
        <ele>102.5</ele>
        <time>2024-03-30T11:37:40.000Z</time>
      </trkpt>
      <trkpt lat="48.07683" lon="3.26629">
        <ele>102.7</ele>
        <time>2024-03-30T11:37:41.000Z</time>
      </trkpt>
      <trkpt lat="48.07684" lon="3.26629">
        <ele>102.9</ele>
        <time>2024-03-30T11:37:42.000Z</time>
      </trkpt>
      <trkpt lat="48.07685" lon="3.26629">
        <ele>103.1</ele>
        <time>2024-03-30T11:37:43.000Z</time>
      </trkpt>
      <trkpt lat="48.07685" lon="3.26629">
        <ele>103.1</ele>
        <time>2024-03-30T11:37:44.000Z</time>
      </trkpt>
      <trkpt lat="48.07685" lon="3.26629">
        <ele>103.1</ele>
        <time>2024-03-30T11:37:45.000Z</time>
      </trkpt>
      <trkpt lat="48.07685" lon="3.26629">
        <ele>103.1</ele>
        <time>2024-03-30T11:37:47.000Z</time>
      </trkpt>
      <trkpt lat="48.07685" lon="3.26629">
        <ele>103.1</ele>
        <time>2024-03-30T11:37:50.000Z</time>
      </trkpt>
      <trkpt lat="48.07685" lon="3.26629">
        <ele>103.1</ele>
        <time>2024-03-30T11:37:51.000Z</time>
      </trkpt>
      <trkpt lat="48.07685" lon="3.26629">
        <ele>103.1</ele>
        <time>2024-03-30T11:37:58.000Z</time>
      </trkpt>
      <trkpt lat="48.07685" lon="3.26629">
        <ele>103.1</ele>
        <time>2024-03-30T11:38:00.000Z</time>
      </trkpt>
      <trkpt lat="48.07685" lon="3.26629">
        <ele>103.1</ele>
        <time>2024-03-30T11:38:06.000Z</time>
      </trkpt>
      <trkpt lat="48.07685" lon="3.26629">
        <ele>103.1</ele>
        <time>2024-03-30T11:38:08.000Z</time>
      </trkpt>
      <trkpt lat="48.07686" lon="3.26629">
        <ele>103.3</ele>
        <time>2024-03-30T11:38:09.000Z</time>
      </trkpt>
      <trkpt lat="48.07686" lon="3.26629">
        <ele>103.3</ele>
        <time>2024-03-30T11:38:10.000Z</time>
      </trkpt>
      <trkpt lat="48.07686" lon="3.26629">
        <ele>103.3</ele>
        <time>2024-03-30T11:38:11.000Z</time>
      </trkpt>
      <trkpt lat="48.07687" lon="3.26628">
        <ele>103.5</ele>
        <time>2024-03-30T11:38:15.000Z</time>
      </trkpt>
      <trkpt lat="48.07688" lon="3.26628">
        <ele>103.7</ele>
        <time>2024-03-30T11:38:16.000Z</time>
      </trkpt>
      <trkpt lat="48.07688" lon="3.26628">
        <ele>103.7</ele>
        <time>2024-03-30T11:38:17.000Z</time>
      </trkpt>
      <trkpt lat="48.07688" lon="3.26628">
        <ele>103.7</ele>
        <time>2024-03-30T11:38:18.000Z</time>
      </trkpt>
      <trkpt lat="48.07688" lon="3.26628">
        <ele>103.7</ele>
        <time>2024-03-30T11:38:19.000Z</time>
      </trkpt>
      <trkpt lat="48.07688" lon="3.26628">
        <ele>103.7</ele>
        <time>2024-03-30T11:38:20.000Z</time>
      </trkpt>
      <trkpt lat="48.07688" lon="3.26628">
        <ele>103.7</ele>
        <time>2024-03-30T11:38:21.000Z</time>
      </trkpt>
      <trkpt lat="48.07689" lon="3.26628">
        <ele>103.9</ele>
        <time>2024-03-30T11:38:22.000Z</time>
      </trkpt>
      <trkpt lat="48.07689" lon="3.26628">
        <ele>103.9</ele>
        <time>2024-03-30T11:38:23.000Z</time>
      </trkpt>
      <trkpt lat="48.07689" lon="3.26628">
        <ele>103.9</ele>
        <time>2024-03-30T11:38:24.000Z</time>
      </trkpt>
      <trkpt lat="48.0769" lon="3.26628">
        <ele>104.1</ele>
        <time>2024-03-30T11:38:25.000Z</time>
      </trkpt>
      <trkpt lat="48.0769" lon="3.26628">
        <ele>104.1</ele>
        <time>2024-03-30T11:38:26.000Z</time>
      </trkpt>
      <trkpt lat="48.07691" lon="3.26628">
        <ele>104.3</ele>
        <time>2024-03-30T11:38:27.000Z</time>
      </trkpt>
      <trkpt lat="48.07691" lon="3.26628">
        <ele>104.3</ele>
        <time>2024-03-30T11:38:28.000Z</time>
      </trkpt>
      <trkpt lat="48.07691" lon="3.26628">
        <ele>104.3</ele>
        <time>2024-03-30T11:38:29.000Z</time>
      </trkpt>
      <trkpt lat="48.07692" lon="3.26628">
        <ele>104.5</ele>
        <time>2024-03-30T11:38:30.000Z</time>
      </trkpt>
      <trkpt lat="48.07692" lon="3.26628">
        <ele>104.5</ele>
        <time>2024-03-30T11:38:31.000Z</time>
      </trkpt>
      <trkpt lat="48.07692" lon="3.26628">
        <ele>104.5</ele>
        <time>2024-03-30T11:38:32.000Z</time>
      </trkpt>
      <trkpt lat="48.07692" lon="3.26628">
        <ele>104.5</ele>
        <time>2024-03-30T11:38:33.000Z</time>
      </trkpt>
      <trkpt lat="48.07692" lon="3.26628">
        <ele>104.5</ele>
        <time>2024-03-30T11:38:34.000Z</time>
      </trkpt>
      <trkpt lat="48.07692" lon="3.26627">
        <ele>104.5</ele>
        <time>2024-03-30T11:38:35.000Z</time>
      </trkpt>
      <trkpt lat="48.07692" lon="3.26627">
        <ele>104.5</ele>
        <time>2024-03-30T11:38:37.000Z</time>
      </trkpt>
      <trkpt lat="48.07692" lon="3.26627">
        <ele>104.5</ele>
        <time>2024-03-30T11:38:38.000Z</time>
      </trkpt>
      <trkpt lat="48.07692" lon="3.26627">
        <ele>104.5</ele>
        <time>2024-03-30T11:38:39.000Z</time>
      </trkpt>
      <trkpt lat="48.07692" lon="3.26627">
        <ele>104.5</ele>
        <time>2024-03-30T11:38:45.000Z</time>
      </trkpt>
      <trkpt lat="48.07693" lon="3.26627">
        <ele>104.7</ele>
        <time>2024-03-30T11:38:47.000Z</time>
      </trkpt>
      <trkpt lat="48.07694" lon="3.26627">
        <ele>104.9</ele>
        <time>2024-03-30T11:38:49.000Z</time>
      </trkpt>
      <trkpt lat="48.07694" lon="3.26627">
        <ele>104.9</ele>
        <time>2024-03-30T11:38:53.000Z</time>
      </trkpt>
      <trkpt lat="48.07695" lon="3.26627">
        <ele>105.2</ele>
        <time>2024-03-30T11:38:54.000Z</time>
      </trkpt>
      <trkpt lat="48.07695" lon="3.26627">
        <ele>105.2</ele>
        <time>2024-03-30T11:38:55.000Z</time>
      </trkpt>
      <trkpt lat="48.07695" lon="3.26627">
        <ele>105.2</ele>
        <time>2024-03-30T11:38:56.000Z</time>
      </trkpt>
      <trkpt lat="48.07695" lon="3.26627">
        <ele>105.2</ele>
        <time>2024-03-30T11:38:57.000Z</time>
      </trkpt>
      <trkpt lat="48.07695" lon="3.26627">
        <ele>105.2</ele>
        <time>2024-03-30T11:38:59.000Z</time>
      </trkpt>
      <trkpt lat="48.07695" lon="3.26627">
        <ele>105.2</ele>
        <time>2024-03-30T11:39:06.000Z</time>
      </trkpt>
      <trkpt lat="48.07696" lon="3.26627">
        <ele>105.6</ele>
        <time>2024-03-30T11:39:07.000Z</time>
      </trkpt>
      <trkpt lat="48.07697" lon="3.26626">
        <ele>106</ele>
        <time>2024-03-30T11:39:08.000Z</time>
      </trkpt>
      <trkpt lat="48.07699" lon="3.26626">
        <ele>106.7</ele>
        <time>2024-03-30T11:39:09.000Z</time>
      </trkpt>
      <trkpt lat="48.077" lon="3.26625">
        <ele>107.1</ele>
        <time>2024-03-30T11:39:11.000Z</time>
      </trkpt>
      <trkpt lat="48.07701" lon="3.26625">
        <ele>107.5</ele>
        <time>2024-03-30T11:39:12.000Z</time>
      </trkpt>
      <trkpt lat="48.07701" lon="3.26625">
        <ele>107.5</ele>
        <time>2024-03-30T11:39:13.000Z</time>
      </trkpt>
      <trkpt lat="48.07702" lon="3.26625">
        <ele>107.9</ele>
        <time>2024-03-30T11:39:14.000Z</time>
      </trkpt>
      <trkpt lat="48.07702" lon="3.26625">
        <ele>107.9</ele>
        <time>2024-03-30T11:39:15.000Z</time>
      </trkpt>
      <trkpt lat="48.07705" lon="3.26624">
        <ele>109</ele>
        <time>2024-03-30T11:39:16.000Z</time>
      </trkpt>
      <trkpt lat="48.07706" lon="3.26623">
        <ele>109.3</ele>
        <time>2024-03-30T11:39:17.000Z</time>
      </trkpt>
      <trkpt lat="48.07706" lon="3.26623">
        <ele>109.3</ele>
        <time>2024-03-30T11:39:18.000Z</time>
      </trkpt>
      <trkpt lat="48.07706" lon="3.26623">
        <ele>109.3</ele>
        <time>2024-03-30T11:39:19.000Z</time>
      </trkpt>
      <trkpt lat="48.07707" lon="3.26623">
        <ele>109.7</ele>
        <time>2024-03-30T11:39:20.000Z</time>
      </trkpt>
      <trkpt lat="48.07707" lon="3.26622">
        <ele>109.7</ele>
        <time>2024-03-30T11:39:21.000Z</time>
      </trkpt>
      <trkpt lat="48.07707" lon="3.26622">
        <ele>109.7</ele>
        <time>2024-03-30T11:39:22.000Z</time>
      </trkpt>
      <trkpt lat="48.07708" lon="3.26622">
        <ele>110.1</ele>
        <time>2024-03-30T11:39:23.000Z</time>
      </trkpt>
      <trkpt lat="48.0771" lon="3.26622">
        <ele>110.8</ele>
        <time>2024-03-30T11:39:24.000Z</time>
      </trkpt>
      <trkpt lat="48.07711" lon="3.26621">
        <ele>111.2</ele>
        <time>2024-03-30T11:39:25.000Z</time>
      </trkpt>
      <trkpt lat="48.07713" lon="3.2662">
        <ele>111.9</ele>
        <time>2024-03-30T11:39:26.000Z</time>
      </trkpt>
      <trkpt lat="48.07714" lon="3.2662">
        <ele>112.3</ele>
        <time>2024-03-30T11:39:27.000Z</time>
      </trkpt>
      <trkpt lat="48.07714" lon="3.2662">
        <ele>112.3</ele>
        <time>2024-03-30T11:39:28.000Z</time>
      </trkpt>
      <trkpt lat="48.07715" lon="3.2662">
        <ele>112.6</ele>
        <time>2024-03-30T11:39:29.000Z</time>
      </trkpt>
      <trkpt lat="48.07715" lon="3.2662">
        <ele>112.6</ele>
        <time>2024-03-30T11:39:33.000Z</time>
      </trkpt>
      <trkpt lat="48.07717" lon="3.26619">
        <ele>113.4</ele>
        <time>2024-03-30T11:39:40.000Z</time>
      </trkpt>
      <trkpt lat="48.07717" lon="3.26619">
        <ele>113.4</ele>
        <time>2024-03-30T11:39:41.000Z</time>
      </trkpt>
      <trkpt lat="48.07718" lon="3.26619">
        <ele>113.7</ele>
        <time>2024-03-30T11:39:42.000Z</time>
      </trkpt>
      <trkpt lat="48.07719" lon="3.26618">
        <ele>114.1</ele>
        <time>2024-03-30T11:39:43.000Z</time>
      </trkpt>
      <trkpt lat="48.07719" lon="3.26618">
        <ele>114.1</ele>
        <time>2024-03-30T11:39:44.000Z</time>
      </trkpt>
      <trkpt lat="48.0772" lon="3.26618">
        <ele>114.4</ele>
        <time>2024-03-30T11:39:45.000Z</time>
      </trkpt>
      <trkpt lat="48.0772" lon="3.26618">
        <ele>114.4</ele>
        <time>2024-03-30T11:39:46.000Z</time>
      </trkpt>
      <trkpt lat="48.0772" lon="3.26618">
        <ele>114.4</ele>
        <time>2024-03-30T11:39:47.000Z</time>
      </trkpt>
      <trkpt lat="48.07721" lon="3.26617">
        <ele>114.8</ele>
        <time>2024-03-30T11:39:48.000Z</time>
      </trkpt>
      <trkpt lat="48.07722" lon="3.26617">
        <ele>115.1</ele>
        <time>2024-03-30T11:39:49.000Z</time>
      </trkpt>
      <trkpt lat="48.07723" lon="3.26617">
        <ele>115.5</ele>
        <time>2024-03-30T11:39:50.000Z</time>
      </trkpt>
      <trkpt lat="48.07723" lon="3.26616">
        <ele>115.5</ele>
        <time>2024-03-30T11:39:51.000Z</time>
      </trkpt>
      <trkpt lat="48.07724" lon="3.26616">
        <ele>115.8</ele>
        <time>2024-03-30T11:39:52.000Z</time>
      </trkpt>
      <trkpt lat="48.07725" lon="3.26616">
        <ele>116.2</ele>
        <time>2024-03-30T11:39:53.000Z</time>
      </trkpt>
      <trkpt lat="48.07726" lon="3.26615">
        <ele>116.5</ele>
        <time>2024-03-30T11:39:54.000Z</time>
      </trkpt>
      <trkpt lat="48.07726" lon="3.26615">
        <ele>116.5</ele>
        <time>2024-03-30T11:39:55.000Z</time>
      </trkpt>
      <trkpt lat="48.07726" lon="3.26615">
        <ele>116.5</ele>
        <time>2024-03-30T11:39:56.000Z</time>
      </trkpt>
      <trkpt lat="48.07726" lon="3.26615">
        <ele>116.5</ele>
        <time>2024-03-30T11:39:57.000Z</time>
      </trkpt>
      <trkpt lat="48.07727" lon="3.26615">
        <ele>116.8</ele>
        <time>2024-03-30T11:39:58.000Z</time>
      </trkpt>
      <trkpt lat="48.07727" lon="3.26615">
        <ele>116.8</ele>
        <time>2024-03-30T11:39:59.000Z</time>
      </trkpt>
      <trkpt lat="48.07728" lon="3.26614">
        <ele>117.2</ele>
        <time>2024-03-30T11:40:00.000Z</time>
      </trkpt>
      <trkpt lat="48.07729" lon="3.26613">
        <ele>117.5</ele>
        <time>2024-03-30T11:40:01.000Z</time>
      </trkpt>
      <trkpt lat="48.07729" lon="3.26613">
        <ele>117.5</ele>
        <time>2024-03-30T11:40:02.000Z</time>
      </trkpt>
      <trkpt lat="48.0773" lon="3.26612">
        <ele>117.8</ele>
        <time>2024-03-30T11:40:03.000Z</time>
      </trkpt>
      <trkpt lat="48.0773" lon="3.26613">
        <ele>117.8</ele>
        <time>2024-03-30T11:40:04.000Z</time>
      </trkpt>
      <trkpt lat="48.0773" lon="3.26612">
        <ele>117.8</ele>
        <time>2024-03-30T11:40:05.000Z</time>
      </trkpt>
      <trkpt lat="48.0773" lon="3.26612">
        <ele>117.8</ele>
        <time>2024-03-30T11:40:06.000Z</time>
      </trkpt>
      <trkpt lat="48.07733" lon="3.2661">
        <ele>118.9</ele>
        <time>2024-03-30T11:40:10.000Z</time>
      </trkpt>
      <trkpt lat="48.07734" lon="3.2661">
        <ele>119.2</ele>
        <time>2024-03-30T11:40:11.000Z</time>
      </trkpt>
      <trkpt lat="48.07734" lon="3.2661">
        <ele>119.2</ele>
        <time>2024-03-30T11:40:13.000Z</time>
      </trkpt>
      <trkpt lat="48.07735" lon="3.2661">
        <ele>119.6</ele>
        <time>2024-03-30T11:40:14.000Z</time>
      </trkpt>
      <trkpt lat="48.07735" lon="3.26609">
        <ele>119.6</ele>
        <time>2024-03-30T11:40:15.000Z</time>
      </trkpt>
      <trkpt lat="48.07735" lon="3.26609">
        <ele>119.6</ele>
        <time>2024-03-30T11:40:16.000Z</time>
      </trkpt>
      <trkpt lat="48.07735" lon="3.26609">
        <ele>119.6</ele>
        <time>2024-03-30T11:40:17.000Z</time>
      </trkpt>
      <trkpt lat="48.07736" lon="3.26609">
        <ele>119.9</ele>
        <time>2024-03-30T11:40:18.000Z</time>
      </trkpt>
      <trkpt lat="48.07736" lon="3.26609">
        <ele>119.9</ele>
        <time>2024-03-30T11:40:19.000Z</time>
      </trkpt>
      <trkpt lat="48.07736" lon="3.26609">
        <ele>119.9</ele>
        <time>2024-03-30T11:40:20.000Z</time>
      </trkpt>
      <trkpt lat="48.07736" lon="3.26609">
        <ele>119.9</ele>
        <time>2024-03-30T11:40:21.000Z</time>
      </trkpt>
      <trkpt lat="48.07737" lon="3.26609">
        <ele>120.3</ele>
        <time>2024-03-30T11:40:24.000Z</time>
      </trkpt>
      <trkpt lat="48.07737" lon="3.26609">
        <ele>120.3</ele>
        <time>2024-03-30T11:40:25.000Z</time>
      </trkpt>
      <trkpt lat="48.07737" lon="3.26609">
        <ele>120.3</ele>
        <time>2024-03-30T11:40:26.000Z</time>
      </trkpt>
      <trkpt lat="48.07738" lon="3.26608">
        <ele>120.6</ele>
        <time>2024-03-30T11:40:27.000Z</time>
      </trkpt>
      <trkpt lat="48.07738" lon="3.26608">
        <ele>120.6</ele>
        <time>2024-03-30T11:40:28.000Z</time>
      </trkpt>
      <trkpt lat="48.07738" lon="3.26608">
        <ele>120.6</ele>
        <time>2024-03-30T11:40:32.000Z</time>
      </trkpt>
      <trkpt lat="48.07738" lon="3.26608">
        <ele>120.6</ele>
        <time>2024-03-30T11:40:36.000Z</time>
      </trkpt>
      <trkpt lat="48.07739" lon="3.26608">
        <ele>121</ele>
        <time>2024-03-30T11:40:39.000Z</time>
      </trkpt>
      <trkpt lat="48.07739" lon="3.26608">
        <ele>121</ele>
        <time>2024-03-30T11:40:40.000Z</time>
      </trkpt>
      <trkpt lat="48.07739" lon="3.26608">
        <ele>121</ele>
        <time>2024-03-30T11:40:41.000Z</time>
      </trkpt>
      <trkpt lat="48.0774" lon="3.26607">
        <ele>121.3</ele>
        <time>2024-03-30T11:40:43.000Z</time>
      </trkpt>
      <trkpt lat="48.0774" lon="3.26607">
        <ele>121.3</ele>
        <time>2024-03-30T11:40:44.000Z</time>
      </trkpt>
      <trkpt lat="48.0774" lon="3.26607">
        <ele>121.3</ele>
        <time>2024-03-30T11:40:45.000Z</time>
      </trkpt>
      <trkpt lat="48.0774" lon="3.26607">
        <ele>121.3</ele>
        <time>2024-03-30T11:40:46.000Z</time>
      </trkpt>
      <trkpt lat="48.0774" lon="3.26607">
        <ele>121.3</ele>
        <time>2024-03-30T11:40:47.000Z</time>
      </trkpt>
      <trkpt lat="48.07741" lon="3.26607">
        <ele>121.7</ele>
        <time>2024-03-30T11:40:48.000Z</time>
      </trkpt>
      <trkpt lat="48.07741" lon="3.26606">
        <ele>121.6</ele>
        <time>2024-03-30T11:40:49.000Z</time>
      </trkpt>
      <trkpt lat="48.07742" lon="3.26606">
        <ele>122</ele>
        <time>2024-03-30T11:40:50.000Z</time>
      </trkpt>
      <trkpt lat="48.07742" lon="3.26606">
        <ele>122</ele>
        <time>2024-03-30T11:40:51.000Z</time>
      </trkpt>
      <trkpt lat="48.07742" lon="3.26606">
        <ele>122</ele>
        <time>2024-03-30T11:40:52.000Z</time>
      </trkpt>
      <trkpt lat="48.07742" lon="3.26606">
        <ele>122</ele>
        <time>2024-03-30T11:40:53.000Z</time>
      </trkpt>
      <trkpt lat="48.07744" lon="3.26606">
        <ele>122.7</ele>
        <time>2024-03-30T11:40:55.000Z</time>
      </trkpt>
      <trkpt lat="48.07745" lon="3.26606">
        <ele>123</ele>
        <time>2024-03-30T11:40:56.000Z</time>
      </trkpt>
      <trkpt lat="48.07747" lon="3.26605">
        <ele>123.7</ele>
        <time>2024-03-30T11:40:59.000Z</time>
      </trkpt>
      <trkpt lat="48.07748" lon="3.26605">
        <ele>124.1</ele>
        <time>2024-03-30T11:41:01.000Z</time>
      </trkpt>
      <trkpt lat="48.07748" lon="3.26605">
        <ele>124.1</ele>
        <time>2024-03-30T11:41:04.000Z</time>
      </trkpt>
      <trkpt lat="48.07749" lon="3.26605">
        <ele>124.4</ele>
        <time>2024-03-30T11:41:10.000Z</time>
      </trkpt>
      <trkpt lat="48.07751" lon="3.26605">
        <ele>125.1</ele>
        <time>2024-03-30T11:41:15.000Z</time>
      </trkpt>
      <trkpt lat="48.07752" lon="3.26605">
        <ele>125.4</ele>
        <time>2024-03-30T11:41:18.000Z</time>
      </trkpt>
      <trkpt lat="48.07752" lon="3.26605">
        <ele>125.4</ele>
        <time>2024-03-30T11:41:19.000Z</time>
      </trkpt>
      <trkpt lat="48.07752" lon="3.26605">
        <ele>125.4</ele>
        <time>2024-03-30T11:41:20.000Z</time>
      </trkpt>
      <trkpt lat="48.07752" lon="3.26605">
        <ele>125.4</ele>
        <time>2024-03-30T11:41:22.000Z</time>
      </trkpt>
      <trkpt lat="48.07753" lon="3.26605">
        <ele>125.7</ele>
        <time>2024-03-30T11:41:24.000Z</time>
      </trkpt>
      <trkpt lat="48.07754" lon="3.26605">
        <ele>126</ele>
        <time>2024-03-30T11:41:25.000Z</time>
      </trkpt>
      <trkpt lat="48.07755" lon="3.26605">
        <ele>126.4</ele>
        <time>2024-03-30T11:41:26.000Z</time>
      </trkpt>
      <trkpt lat="48.07756" lon="3.26605">
        <ele>126.7</ele>
        <time>2024-03-30T11:41:27.000Z</time>
      </trkpt>
      <trkpt lat="48.07756" lon="3.26604">
        <ele>126.6</ele>
        <time>2024-03-30T11:41:28.000Z</time>
      </trkpt>
      <trkpt lat="48.07756" lon="3.26604">
        <ele>126.6</ele>
        <time>2024-03-30T11:41:29.000Z</time>
      </trkpt>
      <trkpt lat="48.07756" lon="3.26604">
        <ele>126.6</ele>
        <time>2024-03-30T11:41:30.000Z</time>
      </trkpt>
      <trkpt lat="48.07756" lon="3.26604">
        <ele>126.6</ele>
        <time>2024-03-30T11:41:31.000Z</time>
      </trkpt>
      <trkpt lat="48.07756" lon="3.26604">
        <ele>126.6</ele>
        <time>2024-03-30T11:41:32.000Z</time>
      </trkpt>
      <trkpt lat="48.07756" lon="3.26604">
        <ele>126.6</ele>
        <time>2024-03-30T11:41:39.000Z</time>
      </trkpt>
      <trkpt lat="48.07758" lon="3.26605">
        <ele>127.3</ele>
        <time>2024-03-30T11:41:42.000Z</time>
      </trkpt>
      <trkpt lat="48.07758" lon="3.26605">
        <ele>127.3</ele>
        <time>2024-03-30T11:41:43.000Z</time>
      </trkpt>
      <trkpt lat="48.07758" lon="3.26605">
        <ele>127.3</ele>
        <time>2024-03-30T11:41:44.000Z</time>
      </trkpt>
      <trkpt lat="48.0776" lon="3.26606">
        <ele>128</ele>
        <time>2024-03-30T11:41:47.000Z</time>
      </trkpt>
      <trkpt lat="48.07762" lon="3.26607">
        <ele>128.7</ele>
        <time>2024-03-30T11:41:48.000Z</time>
      </trkpt>
      <trkpt lat="48.07762" lon="3.26607">
        <ele>128.7</ele>
        <time>2024-03-30T11:41:49.000Z</time>
      </trkpt>
      <trkpt lat="48.07762" lon="3.26607">
        <ele>128.7</ele>
        <time>2024-03-30T11:41:50.000Z</time>
      </trkpt>
      <trkpt lat="48.07762" lon="3.26607">
        <ele>128.7</ele>
        <time>2024-03-30T11:41:51.000Z</time>
      </trkpt>
      <trkpt lat="48.07762" lon="3.26607">
        <ele>128.7</ele>
        <time>2024-03-30T11:41:52.000Z</time>
      </trkpt>
      <trkpt lat="48.07762" lon="3.26607">
        <ele>128.7</ele>
        <time>2024-03-30T11:41:53.000Z</time>
      </trkpt>
      <trkpt lat="48.07763" lon="3.26607">
        <ele>129</ele>
        <time>2024-03-30T11:41:54.000Z</time>
      </trkpt>
      <trkpt lat="48.07763" lon="3.26607">
        <ele>129</ele>
        <time>2024-03-30T11:41:55.000Z</time>
      </trkpt>
      <trkpt lat="48.07764" lon="3.26607">
        <ele>129.3</ele>
        <time>2024-03-30T11:41:56.000Z</time>
      </trkpt>
      <trkpt lat="48.07764" lon="3.26607">
        <ele>129.3</ele>
        <time>2024-03-30T11:41:57.000Z</time>
      </trkpt>
      <trkpt lat="48.07764" lon="3.26607">
        <ele>129.3</ele>
        <time>2024-03-30T11:41:58.000Z</time>
      </trkpt>
      <trkpt lat="48.07764" lon="3.26607">
        <ele>129.3</ele>
        <time>2024-03-30T11:41:59.000Z</time>
      </trkpt>
      <trkpt lat="48.07766" lon="3.26608">
        <ele>130</ele>
        <time>2024-03-30T11:42:03.000Z</time>
      </trkpt>
      <trkpt lat="48.07766" lon="3.26608">
        <ele>130</ele>
        <time>2024-03-30T11:42:04.000Z</time>
      </trkpt>
      <trkpt lat="48.07769" lon="3.26609">
        <ele>131</ele>
        <time>2024-03-30T11:42:13.000Z</time>
      </trkpt>
      <trkpt lat="48.0777" lon="3.26609">
        <ele>131.3</ele>
        <time>2024-03-30T11:42:15.000Z</time>
      </trkpt>
      <trkpt lat="48.07771" lon="3.26609">
        <ele>131.7</ele>
        <time>2024-03-30T11:42:17.000Z</time>
      </trkpt>
      <trkpt lat="48.07774" lon="3.26609">
        <ele>132.6</ele>
        <time>2024-03-30T11:42:23.000Z</time>
      </trkpt>
      <trkpt lat="48.07774" lon="3.26609">
        <ele>132.6</ele>
        <time>2024-03-30T11:42:26.000Z</time>
      </trkpt>
      <trkpt lat="48.07775" lon="3.2661">
        <ele>133</ele>
        <time>2024-03-30T11:42:28.000Z</time>
      </trkpt>
      <trkpt lat="48.07775" lon="3.2661">
        <ele>133</ele>
        <time>2024-03-30T11:42:29.000Z</time>
      </trkpt>
      <trkpt lat="48.07775" lon="3.2661">
        <ele>133</ele>
        <time>2024-03-30T11:42:34.000Z</time>
      </trkpt>
      <trkpt lat="48.07775" lon="3.2661">
        <ele>133</ele>
        <time>2024-03-30T11:42:36.000Z</time>
      </trkpt>
      <trkpt lat="48.0778" lon="3.26612">
        <ele>134.6</ele>
        <time>2024-03-30T11:42:43.000Z</time>
      </trkpt>
      <trkpt lat="48.07781" lon="3.26613">
        <ele>134.9</ele>
        <time>2024-03-30T11:42:44.000Z</time>
      </trkpt>
      <trkpt lat="48.07782" lon="3.26614">
        <ele>135.2</ele>
        <time>2024-03-30T11:42:45.000Z</time>
      </trkpt>
      <trkpt lat="48.07782" lon="3.26615">
        <ele>135.2</ele>
        <time>2024-03-30T11:42:46.000Z</time>
      </trkpt>
      <trkpt lat="48.07783" lon="3.26616">
        <ele>135.5</ele>
        <time>2024-03-30T11:42:47.000Z</time>
      </trkpt>
      <trkpt lat="48.07783" lon="3.26616">
        <ele>135.5</ele>
        <time>2024-03-30T11:42:48.000Z</time>
      </trkpt>
      <trkpt lat="48.07784" lon="3.26617">
        <ele>135.8</ele>
        <time>2024-03-30T11:42:49.000Z</time>
      </trkpt>
      <trkpt lat="48.07784" lon="3.26619">
        <ele>135.9</ele>
        <time>2024-03-30T11:42:50.000Z</time>
      </trkpt>
      <trkpt lat="48.07786" lon="3.26621">
        <ele>136.5</ele>
        <time>2024-03-30T11:42:53.000Z</time>
      </trkpt>
      <trkpt lat="48.07788" lon="3.26624">
        <ele>137.1</ele>
        <time>2024-03-30T11:42:55.000Z</time>
      </trkpt>
      <trkpt lat="48.07788" lon="3.26625">
        <ele>137.1</ele>
        <time>2024-03-30T11:42:56.000Z</time>
      </trkpt>
      <trkpt lat="48.07789" lon="3.26626">
        <ele>137.4</ele>
        <time>2024-03-30T11:42:58.000Z</time>
      </trkpt>
      <trkpt lat="48.0779" lon="3.26627">
        <ele>137.8</ele>
        <time>2024-03-30T11:43:00.000Z</time>
      </trkpt>
      <trkpt lat="48.0779" lon="3.26629">
        <ele>137.8</ele>
        <time>2024-03-30T11:43:01.000Z</time>
      </trkpt>
      <trkpt lat="48.0779" lon="3.26629">
        <ele>137.8</ele>
        <time>2024-03-30T11:43:02.000Z</time>
      </trkpt>
      <trkpt lat="48.0779" lon="3.2663">
        <ele>137.8</ele>
        <time>2024-03-30T11:43:03.000Z</time>
      </trkpt>
      <trkpt lat="48.07791" lon="3.26631">
        <ele>138.1</ele>
        <time>2024-03-30T11:43:04.000Z</time>
      </trkpt>
      <trkpt lat="48.07791" lon="3.26632">
        <ele>138.2</ele>
        <time>2024-03-30T11:43:05.000Z</time>
      </trkpt>
      <trkpt lat="48.07791" lon="3.26632">
        <ele>138.2</ele>
        <time>2024-03-30T11:43:06.000Z</time>
      </trkpt>
      <trkpt lat="48.07791" lon="3.26632">
        <ele>138.2</ele>
        <time>2024-03-30T11:43:07.000Z</time>
      </trkpt>
      <trkpt lat="48.07792" lon="3.26633">
        <ele>138.5</ele>
        <time>2024-03-30T11:43:08.000Z</time>
      </trkpt>
      <trkpt lat="48.07793" lon="3.26633">
        <ele>138.8</ele>
        <time>2024-03-30T11:43:09.000Z</time>
      </trkpt>
      <trkpt lat="48.07793" lon="3.26634">
        <ele>138.8</ele>
        <time>2024-03-30T11:43:10.000Z</time>
      </trkpt>
      <trkpt lat="48.07793" lon="3.26635">
        <ele>138.9</ele>
        <time>2024-03-30T11:43:11.000Z</time>
      </trkpt>
      <trkpt lat="48.07794" lon="3.26636">
        <ele>139.2</ele>
        <time>2024-03-30T11:43:12.000Z</time>
      </trkpt>
      <trkpt lat="48.07794" lon="3.26637">
        <ele>139.2</ele>
        <time>2024-03-30T11:43:13.000Z</time>
      </trkpt>
      <trkpt lat="48.07795" lon="3.26637">
        <ele>139.5</ele>
        <time>2024-03-30T11:43:14.000Z</time>
      </trkpt>
      <trkpt lat="48.07795" lon="3.26638">
        <ele>139.6</ele>
        <time>2024-03-30T11:43:15.000Z</time>
      </trkpt>
      <trkpt lat="48.07795" lon="3.26639">
        <ele>139.6</ele>
        <time>2024-03-30T11:43:16.000Z</time>
      </trkpt>
      <trkpt lat="48.07795" lon="3.2664">
        <ele>139.6</ele>
        <time>2024-03-30T11:43:17.000Z</time>
      </trkpt>
      <trkpt lat="48.07795" lon="3.2664">
        <ele>139.6</ele>
        <time>2024-03-30T11:43:18.000Z</time>
      </trkpt>
      <trkpt lat="48.07796" lon="3.26641">
        <ele>140</ele>
        <time>2024-03-30T11:43:19.000Z</time>
      </trkpt>
      <trkpt lat="48.07796" lon="3.26642">
        <ele>140</ele>
        <time>2024-03-30T11:43:20.000Z</time>
      </trkpt>
      <trkpt lat="48.07797" lon="3.26642">
        <ele>140.3</ele>
        <time>2024-03-30T11:43:21.000Z</time>
      </trkpt>
      <trkpt lat="48.07797" lon="3.26643">
        <ele>140.4</ele>
        <time>2024-03-30T11:43:22.000Z</time>
      </trkpt>
      <trkpt lat="48.07797" lon="3.26644">
        <ele>140.4</ele>
        <time>2024-03-30T11:43:23.000Z</time>
      </trkpt>
      <trkpt lat="48.07798" lon="3.26644">
        <ele>140.7</ele>
        <time>2024-03-30T11:43:24.000Z</time>
      </trkpt>
      <trkpt lat="48.07798" lon="3.26644">
        <ele>140.7</ele>
        <time>2024-03-30T11:43:25.000Z</time>
      </trkpt>
      <trkpt lat="48.07798" lon="3.26644">
        <ele>140.7</ele>
        <time>2024-03-30T11:43:26.000Z</time>
      </trkpt>
      <trkpt lat="48.07798" lon="3.26644">
        <ele>140.7</ele>
        <time>2024-03-30T11:43:28.000Z</time>
      </trkpt>
      <trkpt lat="48.07799" lon="3.26644">
        <ele>141.1</ele>
        <time>2024-03-30T11:43:30.000Z</time>
      </trkpt>
      <trkpt lat="48.07799" lon="3.26645">
        <ele>141.1</ele>
        <time>2024-03-30T11:43:31.000Z</time>
      </trkpt>
      <trkpt lat="48.07799" lon="3.26645">
        <ele>141.1</ele>
        <time>2024-03-30T11:43:32.000Z</time>
      </trkpt>
      <trkpt lat="48.07799" lon="3.26645">
        <ele>141.1</ele>
        <time>2024-03-30T11:43:33.000Z</time>
      </trkpt>
      <trkpt lat="48.07799" lon="3.26645">
        <ele>141.1</ele>
        <time>2024-03-30T11:43:34.000Z</time>
      </trkpt>
      <trkpt lat="48.078" lon="3.26645">
        <ele>141.4</ele>
        <time>2024-03-30T11:43:35.000Z</time>
      </trkpt>
      <trkpt lat="48.078" lon="3.26645">
        <ele>141.4</ele>
        <time>2024-03-30T11:43:36.000Z</time>
      </trkpt>
      <trkpt lat="48.078" lon="3.26645">
        <ele>141.4</ele>
        <time>2024-03-30T11:43:37.000Z</time>
      </trkpt>
      <trkpt lat="48.078" lon="3.26645">
        <ele>141.4</ele>
        <time>2024-03-30T11:43:42.000Z</time>
      </trkpt>
      <trkpt lat="48.078" lon="3.26645">
        <ele>141.4</ele>
        <time>2024-03-30T11:43:43.000Z</time>
      </trkpt>
      <trkpt lat="48.07801" lon="3.26647">
        <ele>141.8</ele>
        <time>2024-03-30T11:43:49.000Z</time>
      </trkpt>
      <trkpt lat="48.07802" lon="3.26648">
        <ele>142.2</ele>
        <time>2024-03-30T11:43:50.000Z</time>
      </trkpt>
      <trkpt lat="48.07803" lon="3.26649">
        <ele>142.5</ele>
        <time>2024-03-30T11:43:51.000Z</time>
      </trkpt>
      <trkpt lat="48.07803" lon="3.26649">
        <ele>142.5</ele>
        <time>2024-03-30T11:43:52.000Z</time>
      </trkpt>
      <trkpt lat="48.07803" lon="3.26649">
        <ele>142.5</ele>
        <time>2024-03-30T11:43:53.000Z</time>
      </trkpt>
      <trkpt lat="48.07803" lon="3.26649">
        <ele>142.5</ele>
        <time>2024-03-30T11:43:54.000Z</time>
      </trkpt>
      <trkpt lat="48.07803" lon="3.26649">
        <ele>142.5</ele>
        <time>2024-03-30T11:43:55.000Z</time>
      </trkpt>
      <trkpt lat="48.07804" lon="3.2665">
        <ele>142.9</ele>
        <time>2024-03-30T11:43:56.000Z</time>
      </trkpt>
      <trkpt lat="48.07804" lon="3.2665">
        <ele>142.9</ele>
        <time>2024-03-30T11:43:57.000Z</time>
      </trkpt>
      <trkpt lat="48.07805" lon="3.26651">
        <ele>143.3</ele>
        <time>2024-03-30T11:43:58.000Z</time>
      </trkpt>
      <trkpt lat="48.07805" lon="3.26651">
        <ele>143.3</ele>
        <time>2024-03-30T11:43:59.000Z</time>
      </trkpt>
      <trkpt lat="48.07805" lon="3.26652">
        <ele>143.3</ele>
        <time>2024-03-30T11:44:00.000Z</time>
      </trkpt>
      <trkpt lat="48.07807" lon="3.26653">
        <ele>143.8</ele>
        <time>2024-03-30T11:44:02.000Z</time>
      </trkpt>
      <trkpt lat="48.07807" lon="3.26653">
        <ele>143.8</ele>
        <time>2024-03-30T11:44:03.000Z</time>
      </trkpt>
      <trkpt lat="48.07811" lon="3.26656">
        <ele>144.7</ele>
        <time>2024-03-30T11:44:06.000Z</time>
      </trkpt>
      <trkpt lat="48.07811" lon="3.26658">
        <ele>144.7</ele>
        <time>2024-03-30T11:44:08.000Z</time>
      </trkpt>
      <trkpt lat="48.07811" lon="3.26658">
        <ele>144.7</ele>
        <time>2024-03-30T11:44:09.000Z</time>
      </trkpt>
      <trkpt lat="48.07811" lon="3.26658">
        <ele>144.7</ele>
        <time>2024-03-30T11:44:10.000Z</time>
      </trkpt>
      <trkpt lat="48.07814" lon="3.26662">
        <ele>145.4</ele>
        <time>2024-03-30T11:44:16.000Z</time>
      </trkpt>
      <trkpt lat="48.07815" lon="3.26663">
        <ele>145.6</ele>
        <time>2024-03-30T11:44:17.000Z</time>
      </trkpt>
      <trkpt lat="48.07816" lon="3.26664">
        <ele>145.8</ele>
        <time>2024-03-30T11:44:18.000Z</time>
      </trkpt>
      <trkpt lat="48.07816" lon="3.26664">
        <ele>145.8</ele>
        <time>2024-03-30T11:44:19.000Z</time>
      </trkpt>
      <trkpt lat="48.07816" lon="3.26664">
        <ele>145.8</ele>
        <time>2024-03-30T11:44:20.000Z</time>
      </trkpt>
      <trkpt lat="48.07817" lon="3.26665">
        <ele>146</ele>
        <time>2024-03-30T11:44:21.000Z</time>
      </trkpt>
      <trkpt lat="48.07818" lon="3.26666">
        <ele>146.2</ele>
        <time>2024-03-30T11:44:22.000Z</time>
      </trkpt>
      <trkpt lat="48.07818" lon="3.26667">
        <ele>146.2</ele>
        <time>2024-03-30T11:44:23.000Z</time>
      </trkpt>
      <trkpt lat="48.07819" lon="3.26668">
        <ele>146.4</ele>
        <time>2024-03-30T11:44:24.000Z</time>
      </trkpt>
      <trkpt lat="48.0782" lon="3.26669">
        <ele>146.6</ele>
        <time>2024-03-30T11:44:25.000Z</time>
      </trkpt>
      <trkpt lat="48.07821" lon="3.26671">
        <ele>146.9</ele>
        <time>2024-03-30T11:44:26.000Z</time>
      </trkpt>
      <trkpt lat="48.07822" lon="3.26671">
        <ele>147.1</ele>
        <time>2024-03-30T11:44:27.000Z</time>
      </trkpt>
      <trkpt lat="48.07822" lon="3.26672">
        <ele>147.1</ele>
        <time>2024-03-30T11:44:28.000Z</time>
      </trkpt>
      <trkpt lat="48.07822" lon="3.26672">
        <ele>147.1</ele>
        <time>2024-03-30T11:44:29.000Z</time>
      </trkpt>
      <trkpt lat="48.07822" lon="3.26672">
        <ele>147.1</ele>
        <time>2024-03-30T11:44:30.000Z</time>
      </trkpt>
      <trkpt lat="48.07823" lon="3.26672">
        <ele>147.3</ele>
        <time>2024-03-30T11:44:31.000Z</time>
      </trkpt>
      <trkpt lat="48.07823" lon="3.26672">
        <ele>147.3</ele>
        <time>2024-03-30T11:44:32.000Z</time>
      </trkpt>
      <trkpt lat="48.07824" lon="3.26673">
        <ele>147.5</ele>
        <time>2024-03-30T11:44:33.000Z</time>
      </trkpt>
      <trkpt lat="48.07824" lon="3.26673">
        <ele>147.5</ele>
        <time>2024-03-30T11:44:34.000Z</time>
      </trkpt>
      <trkpt lat="48.07824" lon="3.26673">
        <ele>147.5</ele>
        <time>2024-03-30T11:44:36.000Z</time>
      </trkpt>
      <trkpt lat="48.07824" lon="3.26673">
        <ele>147.5</ele>
        <time>2024-03-30T11:44:40.000Z</time>
      </trkpt>
      <trkpt lat="48.07824" lon="3.26673">
        <ele>147.5</ele>
        <time>2024-03-30T11:44:46.000Z</time>
      </trkpt>
      <trkpt lat="48.07826" lon="3.26674">
        <ele>147.9</ele>
        <time>2024-03-30T11:44:47.000Z</time>
      </trkpt>
      <trkpt lat="48.07826" lon="3.26674">
        <ele>147.9</ele>
        <time>2024-03-30T11:44:48.000Z</time>
      </trkpt>
      <trkpt lat="48.07826" lon="3.26675">
        <ele>147.9</ele>
        <time>2024-03-30T11:44:49.000Z</time>
      </trkpt>
      <trkpt lat="48.07827" lon="3.26675">
        <ele>148.1</ele>
        <time>2024-03-30T11:44:50.000Z</time>
      </trkpt>
      <trkpt lat="48.07827" lon="3.26675">
        <ele>148.1</ele>
        <time>2024-03-30T11:44:53.000Z</time>
      </trkpt>
      <trkpt lat="48.07828" lon="3.26675">
        <ele>148.3</ele>
        <time>2024-03-30T11:44:54.000Z</time>
      </trkpt>
      <trkpt lat="48.07829" lon="3.26677">
        <ele>148.5</ele>
        <time>2024-03-30T11:44:56.000Z</time>
      </trkpt>
      <trkpt lat="48.0783" lon="3.26678">
        <ele>148.8</ele>
        <time>2024-03-30T11:44:57.000Z</time>
      </trkpt>
      <trkpt lat="48.0783" lon="3.26678">
        <ele>148.8</ele>
        <time>2024-03-30T11:44:58.000Z</time>
      </trkpt>
      <trkpt lat="48.0783" lon="3.26678">
        <ele>148.8</ele>
        <time>2024-03-30T11:45:01.000Z</time>
      </trkpt>
      <trkpt lat="48.07833" lon="3.26681">
        <ele>149.4</ele>
        <time>2024-03-30T11:45:07.000Z</time>
      </trkpt>
      <trkpt lat="48.07833" lon="3.26681">
        <ele>149.4</ele>
        <time>2024-03-30T11:45:09.000Z</time>
      </trkpt>
      <trkpt lat="48.07835" lon="3.26682">
        <ele>149.9</ele>
        <time>2024-03-30T11:45:12.000Z</time>
      </trkpt>
      <trkpt lat="48.07836" lon="3.26682">
        <ele>150.2</ele>
        <time>2024-03-30T11:45:13.000Z</time>
      </trkpt>
      <trkpt lat="48.07836" lon="3.26682">
        <ele>150.2</ele>
        <time>2024-03-30T11:45:14.000Z</time>
      </trkpt>
      <trkpt lat="48.07836" lon="3.26682">
        <ele>150.2</ele>
        <time>2024-03-30T11:45:15.000Z</time>
      </trkpt>
      <trkpt lat="48.07837" lon="3.26682">
        <ele>150.4</ele>
        <time>2024-03-30T11:45:16.000Z</time>
      </trkpt>
      <trkpt lat="48.07838" lon="3.26682">
        <ele>150.6</ele>
        <time>2024-03-30T11:45:17.000Z</time>
      </trkpt>
      <trkpt lat="48.07839" lon="3.26682">
        <ele>150.9</ele>
        <time>2024-03-30T11:45:18.000Z</time>
      </trkpt>
      <trkpt lat="48.07846" lon="3.26684">
        <ele>152.5</ele>
        <time>2024-03-30T11:45:27.000Z</time>
      </trkpt>
      <trkpt lat="48.07846" lon="3.26684">
        <ele>152.5</ele>
        <time>2024-03-30T11:45:28.000Z</time>
      </trkpt>
      <trkpt lat="48.07849" lon="3.26686">
        <ele>153.3</ele>
        <time>2024-03-30T11:45:35.000Z</time>
      </trkpt>
      <trkpt lat="48.07849" lon="3.26686">
        <ele>153.3</ele>
        <time>2024-03-30T11:45:36.000Z</time>
      </trkpt>
      <trkpt lat="48.0785" lon="3.26687">
        <ele>153.5</ele>
        <time>2024-03-30T11:45:38.000Z</time>
      </trkpt>
      <trkpt lat="48.0785" lon="3.26688">
        <ele>153.5</ele>
        <time>2024-03-30T11:45:39.000Z</time>
      </trkpt>
      <trkpt lat="48.07851" lon="3.26688">
        <ele>153.7</ele>
        <time>2024-03-30T11:45:43.000Z</time>
      </trkpt>
      <trkpt lat="48.07851" lon="3.26687">
        <ele>153.7</ele>
        <time>2024-03-30T11:45:49.000Z</time>
      </trkpt>
      <trkpt lat="48.07852" lon="3.26687">
        <ele>153.9</ele>
        <time>2024-03-30T11:45:51.000Z</time>
      </trkpt>
      <trkpt lat="48.07853" lon="3.26685">
        <ele>154.1</ele>
        <time>2024-03-30T11:45:54.000Z</time>
      </trkpt>
      <trkpt lat="48.07853" lon="3.26685">
        <ele>154.1</ele>
        <time>2024-03-30T11:45:55.000Z</time>
      </trkpt>
      <trkpt lat="48.07853" lon="3.26685">
        <ele>154.1</ele>
        <time>2024-03-30T11:45:57.000Z</time>
      </trkpt>
      <trkpt lat="48.07853" lon="3.26685">
        <ele>154.1</ele>
        <time>2024-03-30T11:46:03.000Z</time>
      </trkpt>
      <trkpt lat="48.07853" lon="3.26685">
        <ele>154.1</ele>
        <time>2024-03-30T11:46:08.000Z</time>
      </trkpt>
      <trkpt lat="48.07853" lon="3.26685">
        <ele>154.1</ele>
        <time>2024-03-30T11:46:09.000Z</time>
      </trkpt>
      <trkpt lat="48.07853" lon="3.26685">
        <ele>154.1</ele>
        <time>2024-03-30T11:46:20.000Z</time>
      </trkpt>
      <trkpt lat="48.07853" lon="3.26685">
        <ele>154.1</ele>
        <time>2024-03-30T11:46:23.000Z</time>
      </trkpt>
      <trkpt lat="48.07853" lon="3.26685">
        <ele>154.1</ele>
        <time>2024-03-30T11:46:35.000Z</time>
      </trkpt>
      <trkpt lat="48.07853" lon="3.26685">
        <ele>154.1</ele>
        <time>2024-03-30T11:46:56.000Z</time>
      </trkpt>
      <trkpt lat="48.07854" lon="3.26683">
        <ele>154.4</ele>
        <time>2024-03-30T11:47:13.000Z</time>
      </trkpt>
      <trkpt lat="48.07856" lon="3.26677">
        <ele>154.8</ele>
        <time>2024-03-30T11:47:19.000Z</time>
      </trkpt>
      <trkpt lat="48.07861" lon="3.26659">
        <ele>155.7</ele>
        <time>2024-03-30T11:47:26.000Z</time>
      </trkpt>
      <trkpt lat="48.07862" lon="3.26656">
        <ele>155.8</ele>
        <time>2024-03-30T11:47:27.000Z</time>
      </trkpt>
      <trkpt lat="48.07868" lon="3.26631">
        <ele>156.7</ele>
        <time>2024-03-30T11:47:34.000Z</time>
      </trkpt>
      <trkpt lat="48.07873" lon="3.26609">
        <ele>157.6</ele>
        <time>2024-03-30T11:47:41.000Z</time>
      </trkpt>
      <trkpt lat="48.07874" lon="3.26606">
        <ele>157.9</ele>
        <time>2024-03-30T11:47:42.000Z</time>
      </trkpt>
      <trkpt lat="48.07875" lon="3.26602">
        <ele>158.2</ele>
        <time>2024-03-30T11:47:43.000Z</time>
      </trkpt>
      <trkpt lat="48.07875" lon="3.26599">
        <ele>158.2</ele>
        <time>2024-03-30T11:47:44.000Z</time>
      </trkpt>
      <trkpt lat="48.07876" lon="3.26595">
        <ele>158.5</ele>
        <time>2024-03-30T11:47:45.000Z</time>
      </trkpt>
      <trkpt lat="48.07878" lon="3.26584">
        <ele>159</ele>
        <time>2024-03-30T11:47:48.000Z</time>
      </trkpt>
      <trkpt lat="48.07879" lon="3.26577">
        <ele>159.3</ele>
        <time>2024-03-30T11:47:50.000Z</time>
      </trkpt>
      <trkpt lat="48.0788" lon="3.26573">
        <ele>159.5</ele>
        <time>2024-03-30T11:47:51.000Z</time>
      </trkpt>
      <trkpt lat="48.0788" lon="3.2657">
        <ele>159.6</ele>
        <time>2024-03-30T11:47:52.000Z</time>
      </trkpt>
      <trkpt lat="48.07881" lon="3.26567">
        <ele>159.8</ele>
        <time>2024-03-30T11:47:53.000Z</time>
      </trkpt>
      <trkpt lat="48.07881" lon="3.26564">
        <ele>159.9</ele>
        <time>2024-03-30T11:47:54.000Z</time>
      </trkpt>
      <trkpt lat="48.07881" lon="3.26562">
        <ele>159.9</ele>
        <time>2024-03-30T11:47:55.000Z</time>
      </trkpt>
      <trkpt lat="48.07882" lon="3.26559">
        <ele>160.2</ele>
        <time>2024-03-30T11:47:56.000Z</time>
      </trkpt>
      <trkpt lat="48.07883" lon="3.26557">
        <ele>160.5</ele>
        <time>2024-03-30T11:47:57.000Z</time>
      </trkpt>
      <trkpt lat="48.07884" lon="3.26553">
        <ele>160.8</ele>
        <time>2024-03-30T11:47:58.000Z</time>
      </trkpt>
      <trkpt lat="48.07885" lon="3.2655">
        <ele>161</ele>
        <time>2024-03-30T11:47:59.000Z</time>
      </trkpt>
      <trkpt lat="48.07885" lon="3.26547">
        <ele>161</ele>
        <time>2024-03-30T11:48:00.000Z</time>
      </trkpt>
      <trkpt lat="48.07886" lon="3.26544">
        <ele>161.2</ele>
        <time>2024-03-30T11:48:01.000Z</time>
      </trkpt>
      <trkpt lat="48.07887" lon="3.26541">
        <ele>161.5</ele>
        <time>2024-03-30T11:48:02.000Z</time>
      </trkpt>
      <trkpt lat="48.07887" lon="3.26537">
        <ele>161.5</ele>
        <time>2024-03-30T11:48:03.000Z</time>
      </trkpt>
      <trkpt lat="48.07888" lon="3.26534">
        <ele>161.8</ele>
        <time>2024-03-30T11:48:04.000Z</time>
      </trkpt>
      <trkpt lat="48.07889" lon="3.2653">
        <ele>162</ele>
        <time>2024-03-30T11:48:05.000Z</time>
      </trkpt>
      <trkpt lat="48.0789" lon="3.26526">
        <ele>162.1</ele>
        <time>2024-03-30T11:48:06.000Z</time>
      </trkpt>
      <trkpt lat="48.07891" lon="3.26522">
        <ele>162.2</ele>
        <time>2024-03-30T11:48:07.000Z</time>
      </trkpt>
      <trkpt lat="48.07893" lon="3.26518">
        <ele>162.4</ele>
        <time>2024-03-30T11:48:08.000Z</time>
      </trkpt>
      <trkpt lat="48.07894" lon="3.26515">
        <ele>162.6</ele>
        <time>2024-03-30T11:48:09.000Z</time>
      </trkpt>
      <trkpt lat="48.07895" lon="3.26511">
        <ele>162.7</ele>
        <time>2024-03-30T11:48:10.000Z</time>
      </trkpt>
      <trkpt lat="48.07896" lon="3.26508">
        <ele>162.8</ele>
        <time>2024-03-30T11:48:11.000Z</time>
      </trkpt>
      <trkpt lat="48.07897" lon="3.26505">
        <ele>162.9</ele>
        <time>2024-03-30T11:48:12.000Z</time>
      </trkpt>
      <trkpt lat="48.07898" lon="3.26502">
        <ele>163</ele>
        <time>2024-03-30T11:48:13.000Z</time>
      </trkpt>
      <trkpt lat="48.079" lon="3.26499">
        <ele>163.2</ele>
        <time>2024-03-30T11:48:14.000Z</time>
      </trkpt>
      <trkpt lat="48.07901" lon="3.26495">
        <ele>163.2</ele>
        <time>2024-03-30T11:48:15.000Z</time>
      </trkpt>
      <trkpt lat="48.07903" lon="3.26492">
        <ele>163.4</ele>
        <time>2024-03-30T11:48:16.000Z</time>
      </trkpt>
      <trkpt lat="48.07904" lon="3.26489">
        <ele>163.4</ele>
        <time>2024-03-30T11:48:17.000Z</time>
      </trkpt>
      <trkpt lat="48.07905" lon="3.26486">
        <ele>163.4</ele>
        <time>2024-03-30T11:48:18.000Z</time>
      </trkpt>
      <trkpt lat="48.07906" lon="3.26482">
        <ele>163.4</ele>
        <time>2024-03-30T11:48:19.000Z</time>
      </trkpt>
      <trkpt lat="48.07907" lon="3.26479">
        <ele>163.5</ele>
        <time>2024-03-30T11:48:20.000Z</time>
      </trkpt>
      <trkpt lat="48.07909" lon="3.26475">
        <ele>163.5</ele>
        <time>2024-03-30T11:48:21.000Z</time>
      </trkpt>
      <trkpt lat="48.0791" lon="3.26472">
        <ele>163.5</ele>
        <time>2024-03-30T11:48:22.000Z</time>
      </trkpt>
      <trkpt lat="48.07911" lon="3.26469">
        <ele>163.6</ele>
        <time>2024-03-30T11:48:23.000Z</time>
      </trkpt>
      <trkpt lat="48.07912" lon="3.26467">
        <ele>163.7</ele>
        <time>2024-03-30T11:48:24.000Z</time>
      </trkpt>
      <trkpt lat="48.07914" lon="3.26464">
        <ele>163.8</ele>
        <time>2024-03-30T11:48:25.000Z</time>
      </trkpt>
      <trkpt lat="48.07915" lon="3.2646">
        <ele>163.9</ele>
        <time>2024-03-30T11:48:26.000Z</time>
      </trkpt>
      <trkpt lat="48.07916" lon="3.26457">
        <ele>164</ele>
        <time>2024-03-30T11:48:27.000Z</time>
      </trkpt>
      <trkpt lat="48.07918" lon="3.26454">
        <ele>164</ele>
        <time>2024-03-30T11:48:28.000Z</time>
      </trkpt>
      <trkpt lat="48.07919" lon="3.26451">
        <ele>164.1</ele>
        <time>2024-03-30T11:48:29.000Z</time>
      </trkpt>
      <trkpt lat="48.0792" lon="3.26448">
        <ele>164.1</ele>
        <time>2024-03-30T11:48:30.000Z</time>
      </trkpt>
      <trkpt lat="48.07921" lon="3.26446">
        <ele>164.2</ele>
        <time>2024-03-30T11:48:31.000Z</time>
      </trkpt>
      <trkpt lat="48.07923" lon="3.26443">
        <ele>164.3</ele>
        <time>2024-03-30T11:48:32.000Z</time>
      </trkpt>
      <trkpt lat="48.07924" lon="3.26441">
        <ele>164.4</ele>
        <time>2024-03-30T11:48:33.000Z</time>
      </trkpt>
      <trkpt lat="48.07925" lon="3.26439">
        <ele>164.4</ele>
        <time>2024-03-30T11:48:34.000Z</time>
      </trkpt>
      <trkpt lat="48.07926" lon="3.26436">
        <ele>164.5</ele>
        <time>2024-03-30T11:48:35.000Z</time>
      </trkpt>
      <trkpt lat="48.07927" lon="3.26434">
        <ele>164.6</ele>
        <time>2024-03-30T11:48:36.000Z</time>
      </trkpt>
      <trkpt lat="48.07929" lon="3.26432">
        <ele>164.7</ele>
        <time>2024-03-30T11:48:37.000Z</time>
      </trkpt>
      <trkpt lat="48.0793" lon="3.26432">
        <ele>164.7</ele>
        <time>2024-03-30T11:48:38.000Z</time>
      </trkpt>
      <trkpt lat="48.07932" lon="3.26431">
        <ele>164.8</ele>
        <time>2024-03-30T11:48:39.000Z</time>
      </trkpt>
      <trkpt lat="48.07933" lon="3.26431">
        <ele>164.8</ele>
        <time>2024-03-30T11:48:40.000Z</time>
      </trkpt>
      <trkpt lat="48.07934" lon="3.26431">
        <ele>164.8</ele>
        <time>2024-03-30T11:48:41.000Z</time>
      </trkpt>
      <trkpt lat="48.07935" lon="3.26433">
        <ele>164.8</ele>
        <time>2024-03-30T11:48:42.000Z</time>
      </trkpt>
      <trkpt lat="48.07935" lon="3.26435">
        <ele>164.8</ele>
        <time>2024-03-30T11:48:43.000Z</time>
      </trkpt>
      <trkpt lat="48.07935" lon="3.26437">
        <ele>164.8</ele>
        <time>2024-03-30T11:48:44.000Z</time>
      </trkpt>
      <trkpt lat="48.07935" lon="3.2644">
        <ele>164.7</ele>
        <time>2024-03-30T11:48:45.000Z</time>
      </trkpt>
      <trkpt lat="48.07936" lon="3.26443">
        <ele>164.7</ele>
        <time>2024-03-30T11:48:46.000Z</time>
      </trkpt>
      <trkpt lat="48.07936" lon="3.26447">
        <ele>164.7</ele>
        <time>2024-03-30T11:48:47.000Z</time>
      </trkpt>
      <trkpt lat="48.07937" lon="3.2645">
        <ele>164.7</ele>
        <time>2024-03-30T11:48:48.000Z</time>
      </trkpt>
      <trkpt lat="48.07937" lon="3.26454">
        <ele>164.7</ele>
        <time>2024-03-30T11:48:49.000Z</time>
      </trkpt>
      <trkpt lat="48.07937" lon="3.26459">
        <ele>164.7</ele>
        <time>2024-03-30T11:48:50.000Z</time>
      </trkpt>
      <trkpt lat="48.07937" lon="3.26482">
        <ele>165.1</ele>
        <time>2024-03-30T11:48:55.000Z</time>
      </trkpt>
      <trkpt lat="48.07936" lon="3.26492">
        <ele>165.4</ele>
        <time>2024-03-30T11:48:57.000Z</time>
      </trkpt>
      <trkpt lat="48.07935" lon="3.26533">
        <ele>165.8</ele>
        <time>2024-03-30T11:49:05.000Z</time>
      </trkpt>
      <trkpt lat="48.07934" lon="3.26537">
        <ele>165.8</ele>
        <time>2024-03-30T11:49:06.000Z</time>
      </trkpt>
      <trkpt lat="48.07933" lon="3.26539">
        <ele>165.8</ele>
        <time>2024-03-30T11:49:07.000Z</time>
      </trkpt>
      <trkpt lat="48.07933" lon="3.2654">
        <ele>165.8</ele>
        <time>2024-03-30T11:49:09.000Z</time>
      </trkpt>
      <trkpt lat="48.07933" lon="3.2654">
        <ele>165.8</ele>
        <time>2024-03-30T11:49:13.000Z</time>
      </trkpt>
      <trkpt lat="48.07933" lon="3.26541">
        <ele>165.9</ele>
        <time>2024-03-30T11:49:19.000Z</time>
      </trkpt>
      <trkpt lat="48.07933" lon="3.26549">
        <ele>166</ele>
        <time>2024-03-30T11:49:22.000Z</time>
      </trkpt>
      <trkpt lat="48.0793" lon="3.26569">
        <ele>165.7</ele>
        <time>2024-03-30T11:49:27.000Z</time>
      </trkpt>
      <trkpt lat="48.07927" lon="3.26601">
        <ele>165.6</ele>
        <time>2024-03-30T11:49:32.000Z</time>
      </trkpt>
      <trkpt lat="48.07927" lon="3.26608">
        <ele>165.7</ele>
        <time>2024-03-30T11:49:33.000Z</time>
      </trkpt>
      <trkpt lat="48.07927" lon="3.26614">
        <ele>165.8</ele>
        <time>2024-03-30T11:49:34.000Z</time>
      </trkpt>
      <trkpt lat="48.07926" lon="3.26649">
        <ele>165.9</ele>
        <time>2024-03-30T11:49:39.000Z</time>
      </trkpt>
      <trkpt lat="48.07926" lon="3.26698">
        <ele>166.4</ele>
        <time>2024-03-30T11:49:46.000Z</time>
      </trkpt>
      <trkpt lat="48.07926" lon="3.26717">
        <ele>166.9</ele>
        <time>2024-03-30T11:49:49.000Z</time>
      </trkpt>
      <trkpt lat="48.07926" lon="3.26723">
        <ele>167</ele>
        <time>2024-03-30T11:49:50.000Z</time>
      </trkpt>
      <trkpt lat="48.07926" lon="3.26729">
        <ele>167</ele>
        <time>2024-03-30T11:49:51.000Z</time>
      </trkpt>
      <trkpt lat="48.07926" lon="3.26734">
        <ele>167</ele>
        <time>2024-03-30T11:49:52.000Z</time>
      </trkpt>
      <trkpt lat="48.07926" lon="3.2674">
        <ele>167</ele>
        <time>2024-03-30T11:49:53.000Z</time>
      </trkpt>
      <trkpt lat="48.07926" lon="3.26746">
        <ele>167</ele>
        <time>2024-03-30T11:49:54.000Z</time>
      </trkpt>
      <trkpt lat="48.07927" lon="3.26754">
        <ele>166.9</ele>
        <time>2024-03-30T11:49:55.000Z</time>
      </trkpt>
      <trkpt lat="48.07927" lon="3.26759">
        <ele>166.9</ele>
        <time>2024-03-30T11:49:56.000Z</time>
      </trkpt>
      <trkpt lat="48.0793" lon="3.26781">
        <ele>166.3</ele>
        <time>2024-03-30T11:49:59.000Z</time>
      </trkpt>
      <trkpt lat="48.07934" lon="3.26804">
        <ele>165.3</ele>
        <time>2024-03-30T11:50:02.000Z</time>
      </trkpt>
      <trkpt lat="48.07935" lon="3.26812">
        <ele>165.2</ele>
        <time>2024-03-30T11:50:03.000Z</time>
      </trkpt>
      <trkpt lat="48.07942" lon="3.26855">
        <ele>164.8</ele>
        <time>2024-03-30T11:50:08.000Z</time>
      </trkpt>
      <trkpt lat="48.07957" lon="3.26934">
        <ele>162.5</ele>
        <time>2024-03-30T11:50:16.000Z</time>
      </trkpt>
      <trkpt lat="48.07967" lon="3.27009">
        <ele>162.7</ele>
        <time>2024-03-30T11:50:23.000Z</time>
      </trkpt>
      <trkpt lat="48.07968" lon="3.27018">
        <ele>162.8</ele>
        <time>2024-03-30T11:50:24.000Z</time>
      </trkpt>
      <trkpt lat="48.07969" lon="3.27027">
        <ele>162.9</ele>
        <time>2024-03-30T11:50:25.000Z</time>
      </trkpt>
      <trkpt lat="48.0797" lon="3.27036">
        <ele>163.2</ele>
        <time>2024-03-30T11:50:26.000Z</time>
      </trkpt>
      <trkpt lat="48.0797" lon="3.27045">
        <ele>163.5</ele>
        <time>2024-03-30T11:50:27.000Z</time>
      </trkpt>
      <trkpt lat="48.0797" lon="3.27053">
        <ele>163.8</ele>
        <time>2024-03-30T11:50:28.000Z</time>
      </trkpt>
      <trkpt lat="48.0797" lon="3.27061">
        <ele>163.9</ele>
        <time>2024-03-30T11:50:29.000Z</time>
      </trkpt>
      <trkpt lat="48.0797" lon="3.27069">
        <ele>163.9</ele>
        <time>2024-03-30T11:50:30.000Z</time>
      </trkpt>
      <trkpt lat="48.0797" lon="3.27085">
        <ele>163.9</ele>
        <time>2024-03-30T11:50:32.000Z</time>
      </trkpt>
      <trkpt lat="48.0797" lon="3.27093">
        <ele>163.6</ele>
        <time>2024-03-30T11:50:33.000Z</time>
      </trkpt>
      <trkpt lat="48.0797" lon="3.271">
        <ele>163.4</ele>
        <time>2024-03-30T11:50:34.000Z</time>
      </trkpt>
      <trkpt lat="48.07969" lon="3.27107">
        <ele>163.1</ele>
        <time>2024-03-30T11:50:35.000Z</time>
      </trkpt>
      <trkpt lat="48.07969" lon="3.27114">
        <ele>163</ele>
        <time>2024-03-30T11:50:36.000Z</time>
      </trkpt>
      <trkpt lat="48.07969" lon="3.2712">
        <ele>163</ele>
        <time>2024-03-30T11:50:37.000Z</time>
      </trkpt>
      <trkpt lat="48.07966" lon="3.27139">
        <ele>163.2</ele>
        <time>2024-03-30T11:50:40.000Z</time>
      </trkpt>
      <trkpt lat="48.07965" lon="3.27145">
        <ele>163.4</ele>
        <time>2024-03-30T11:50:41.000Z</time>
      </trkpt>
      <trkpt lat="48.07963" lon="3.27152">
        <ele>163.6</ele>
        <time>2024-03-30T11:50:42.000Z</time>
      </trkpt>
      <trkpt lat="48.07962" lon="3.27157">
        <ele>163.8</ele>
        <time>2024-03-30T11:50:43.000Z</time>
      </trkpt>
      <trkpt lat="48.07959" lon="3.2717">
        <ele>163.9</ele>
        <time>2024-03-30T11:50:45.000Z</time>
      </trkpt>
      <trkpt lat="48.07958" lon="3.27175">
        <ele>163.9</ele>
        <time>2024-03-30T11:50:46.000Z</time>
      </trkpt>
      <trkpt lat="48.07957" lon="3.27182">
        <ele>163.8</ele>
        <time>2024-03-30T11:50:47.000Z</time>
      </trkpt>
      <trkpt lat="48.07954" lon="3.27193">
        <ele>163.7</ele>
        <time>2024-03-30T11:50:49.000Z</time>
      </trkpt>
      <trkpt lat="48.07953" lon="3.27198">
        <ele>163.7</ele>
        <time>2024-03-30T11:50:50.000Z</time>
      </trkpt>
      <trkpt lat="48.07947" lon="3.27223">
        <ele>163.9</ele>
        <time>2024-03-30T11:50:54.000Z</time>
      </trkpt>
      <trkpt lat="48.07939" lon="3.27265">
        <ele>162.8</ele>
        <time>2024-03-30T11:51:01.000Z</time>
      </trkpt>
      <trkpt lat="48.07938" lon="3.27319">
        <ele>160.4</ele>
        <time>2024-03-30T11:51:08.000Z</time>
      </trkpt>
      <trkpt lat="48.07941" lon="3.27353">
        <ele>159.7</ele>
        <time>2024-03-30T11:51:11.000Z</time>
      </trkpt>
      <trkpt lat="48.07942" lon="3.27375">
        <ele>159.6</ele>
        <time>2024-03-30T11:51:13.000Z</time>
      </trkpt>
      <trkpt lat="48.07943" lon="3.27385">
        <ele>159.7</ele>
        <time>2024-03-30T11:51:14.000Z</time>
      </trkpt>
      <trkpt lat="48.07943" lon="3.27394">
        <ele>159.7</ele>
        <time>2024-03-30T11:51:15.000Z</time>
      </trkpt>
      <trkpt lat="48.07944" lon="3.27401">
        <ele>159.9</ele>
        <time>2024-03-30T11:51:16.000Z</time>
      </trkpt>
      <trkpt lat="48.07944" lon="3.2741">
        <ele>159.9</ele>
        <time>2024-03-30T11:51:17.000Z</time>
      </trkpt>
      <trkpt lat="48.07943" lon="3.27417">
        <ele>159.7</ele>
        <time>2024-03-30T11:51:18.000Z</time>
      </trkpt>
      <trkpt lat="48.07942" lon="3.27421">
        <ele>159.2</ele>
        <time>2024-03-30T11:51:19.000Z</time>
      </trkpt>
      <trkpt lat="48.07939" lon="3.27426">
        <ele>158.3</ele>
        <time>2024-03-30T11:51:20.000Z</time>
      </trkpt>
      <trkpt lat="48.07938" lon="3.27429">
        <ele>158</ele>
        <time>2024-03-30T11:51:21.000Z</time>
      </trkpt>
      <trkpt lat="48.07937" lon="3.27431">
        <ele>157.6</ele>
        <time>2024-03-30T11:51:22.000Z</time>
      </trkpt>
      <trkpt lat="48.07937" lon="3.27434">
        <ele>157.4</ele>
        <time>2024-03-30T11:51:23.000Z</time>
      </trkpt>
      <trkpt lat="48.07938" lon="3.27437">
        <ele>157.4</ele>
        <time>2024-03-30T11:51:24.000Z</time>
      </trkpt>
      <trkpt lat="48.0794" lon="3.27439">
        <ele>157.6</ele>
        <time>2024-03-30T11:51:25.000Z</time>
      </trkpt>
      <trkpt lat="48.07945" lon="3.27441">
        <ele>158.3</ele>
        <time>2024-03-30T11:51:27.000Z</time>
      </trkpt>
      <trkpt lat="48.07946" lon="3.27444">
        <ele>158.1</ele>
        <time>2024-03-30T11:51:28.000Z</time>
      </trkpt>
      <trkpt lat="48.07949" lon="3.27452">
        <ele>157.4</ele>
        <time>2024-03-30T11:51:30.000Z</time>
      </trkpt>
      <trkpt lat="48.0795" lon="3.27456">
        <ele>157</ele>
        <time>2024-03-30T11:51:31.000Z</time>
      </trkpt>
      <trkpt lat="48.07952" lon="3.27461">
        <ele>156.6</ele>
        <time>2024-03-30T11:51:32.000Z</time>
      </trkpt>
      <trkpt lat="48.07957" lon="3.27469">
        <ele>156.2</ele>
        <time>2024-03-30T11:51:34.000Z</time>
      </trkpt>
      <trkpt lat="48.07959" lon="3.27471">
        <ele>156.2</ele>
        <time>2024-03-30T11:51:35.000Z</time>
      </trkpt>
      <trkpt lat="48.07962" lon="3.27476">
        <ele>155.9</ele>
        <time>2024-03-30T11:51:36.000Z</time>
      </trkpt>
      <trkpt lat="48.07971" lon="3.27491">
        <ele>154.9</ele>
        <time>2024-03-30T11:51:39.000Z</time>
      </trkpt>
      <trkpt lat="48.07977" lon="3.275">
        <ele>154.3</ele>
        <time>2024-03-30T11:51:41.000Z</time>
      </trkpt>
      <trkpt lat="48.07989" lon="3.27516">
        <ele>154.6</ele>
        <time>2024-03-30T11:51:44.000Z</time>
      </trkpt>
      <trkpt lat="48.07994" lon="3.27527">
        <ele>154.6</ele>
        <time>2024-03-30T11:51:46.000Z</time>
      </trkpt>
      <trkpt lat="48.07997" lon="3.27534">
        <ele>154.5</ele>
        <time>2024-03-30T11:51:47.000Z</time>
      </trkpt>
      <trkpt lat="48.07999" lon="3.27541">
        <ele>154.4</ele>
        <time>2024-03-30T11:51:48.000Z</time>
      </trkpt>
      <trkpt lat="48.08005" lon="3.27566">
        <ele>153.4</ele>
        <time>2024-03-30T11:51:51.000Z</time>
      </trkpt>
      <trkpt lat="48.08009" lon="3.27581">
        <ele>152.8</ele>
        <time>2024-03-30T11:51:53.000Z</time>
      </trkpt>
      <trkpt lat="48.08017" lon="3.27596">
        <ele>151.5</ele>
        <time>2024-03-30T11:51:55.000Z</time>
      </trkpt>
      <trkpt lat="48.08021" lon="3.27603">
        <ele>150.8</ele>
        <time>2024-03-30T11:51:56.000Z</time>
      </trkpt>
      <trkpt lat="48.08031" lon="3.27616">
        <ele>149.7</ele>
        <time>2024-03-30T11:51:58.000Z</time>
      </trkpt>
      <trkpt lat="48.08035" lon="3.27623">
        <ele>149.3</ele>
        <time>2024-03-30T11:51:59.000Z</time>
      </trkpt>
      <trkpt lat="48.08044" lon="3.27636">
        <ele>148.5</ele>
        <time>2024-03-30T11:52:01.000Z</time>
      </trkpt>
      <trkpt lat="48.08049" lon="3.27648">
        <ele>147.9</ele>
        <time>2024-03-30T11:52:03.000Z</time>
      </trkpt>
      <trkpt lat="48.08051" lon="3.27655">
        <ele>147.6</ele>
        <time>2024-03-30T11:52:04.000Z</time>
      </trkpt>
      <trkpt lat="48.08053" lon="3.27661">
        <ele>147.3</ele>
        <time>2024-03-30T11:52:05.000Z</time>
      </trkpt>
      <trkpt lat="48.08055" lon="3.27667">
        <ele>147</ele>
        <time>2024-03-30T11:52:06.000Z</time>
      </trkpt>
      <trkpt lat="48.08056" lon="3.27674">
        <ele>147</ele>
        <time>2024-03-30T11:52:07.000Z</time>
      </trkpt>
      <trkpt lat="48.08058" lon="3.27681">
        <ele>146.8</ele>
        <time>2024-03-30T11:52:08.000Z</time>
      </trkpt>
      <trkpt lat="48.08059" lon="3.27699">
        <ele>146.6</ele>
        <time>2024-03-30T11:52:10.000Z</time>
      </trkpt>
      <trkpt lat="48.0806" lon="3.27708">
        <ele>146.2</ele>
        <time>2024-03-30T11:52:11.000Z</time>
      </trkpt>
      <trkpt lat="48.08059" lon="3.27737">
        <ele>145.2</ele>
        <time>2024-03-30T11:52:14.000Z</time>
      </trkpt>
      <trkpt lat="48.08059" lon="3.27746">
        <ele>144.9</ele>
        <time>2024-03-30T11:52:15.000Z</time>
      </trkpt>
      <trkpt lat="48.08059" lon="3.27755">
        <ele>144.6</ele>
        <time>2024-03-30T11:52:16.000Z</time>
      </trkpt>
      <trkpt lat="48.08059" lon="3.27764">
        <ele>144.3</ele>
        <time>2024-03-30T11:52:17.000Z</time>
      </trkpt>
      <trkpt lat="48.0806" lon="3.27772">
        <ele>144</ele>
        <time>2024-03-30T11:52:18.000Z</time>
      </trkpt>
      <trkpt lat="48.08062" lon="3.2778">
        <ele>143.6</ele>
        <time>2024-03-30T11:52:19.000Z</time>
      </trkpt>
      <trkpt lat="48.08063" lon="3.27789">
        <ele>143.1</ele>
        <time>2024-03-30T11:52:20.000Z</time>
      </trkpt>
      <trkpt lat="48.08069" lon="3.27812">
        <ele>142.1</ele>
        <time>2024-03-30T11:52:23.000Z</time>
      </trkpt>
      <trkpt lat="48.08074" lon="3.27839">
        <ele>141.1</ele>
        <time>2024-03-30T11:52:26.000Z</time>
      </trkpt>
      <trkpt lat="48.08076" lon="3.27845">
        <ele>140.9</ele>
        <time>2024-03-30T11:52:27.000Z</time>
      </trkpt>
      <trkpt lat="48.08079" lon="3.27854">
        <ele>140.8</ele>
        <time>2024-03-30T11:52:28.000Z</time>
      </trkpt>
      <trkpt lat="48.08081" lon="3.27861">
        <ele>140.8</ele>
        <time>2024-03-30T11:52:29.000Z</time>
      </trkpt>
      <trkpt lat="48.08084" lon="3.27868">
        <ele>140.7</ele>
        <time>2024-03-30T11:52:30.000Z</time>
      </trkpt>
      <trkpt lat="48.08088" lon="3.27874">
        <ele>140.2</ele>
        <time>2024-03-30T11:52:31.000Z</time>
      </trkpt>
      <trkpt lat="48.08091" lon="3.27879">
        <ele>139.8</ele>
        <time>2024-03-30T11:52:32.000Z</time>
      </trkpt>
      <trkpt lat="48.08095" lon="3.27885">
        <ele>139.3</ele>
        <time>2024-03-30T11:52:33.000Z</time>
      </trkpt>
      <trkpt lat="48.08099" lon="3.2789">
        <ele>138.8</ele>
        <time>2024-03-30T11:52:34.000Z</time>
      </trkpt>
      <trkpt lat="48.08111" lon="3.27908">
        <ele>136.6</ele>
        <time>2024-03-30T11:52:37.000Z</time>
      </trkpt>
      <trkpt lat="48.08114" lon="3.27914">
        <ele>136.1</ele>
        <time>2024-03-30T11:52:38.000Z</time>
      </trkpt>
      <trkpt lat="48.08118" lon="3.27921">
        <ele>135.5</ele>
        <time>2024-03-30T11:52:39.000Z</time>
      </trkpt>
      <trkpt lat="48.08121" lon="3.27927">
        <ele>135</ele>
        <time>2024-03-30T11:52:40.000Z</time>
      </trkpt>
      <trkpt lat="48.08124" lon="3.27935">
        <ele>134.5</ele>
        <time>2024-03-30T11:52:41.000Z</time>
      </trkpt>
      <trkpt lat="48.08127" lon="3.27943">
        <ele>134.1</ele>
        <time>2024-03-30T11:52:42.000Z</time>
      </trkpt>
      <trkpt lat="48.08134" lon="3.2797">
        <ele>132</ele>
        <time>2024-03-30T11:52:45.000Z</time>
      </trkpt>
      <trkpt lat="48.08135" lon="3.2799">
        <ele>131.1</ele>
        <time>2024-03-30T11:52:47.000Z</time>
      </trkpt>
      <trkpt lat="48.08134" lon="3.27996">
        <ele>130.8</ele>
        <time>2024-03-30T11:52:48.000Z</time>
      </trkpt>
      <trkpt lat="48.08133" lon="3.28">
        <ele>130.6</ele>
        <time>2024-03-30T11:52:49.000Z</time>
      </trkpt>
      <trkpt lat="48.08131" lon="3.28005">
        <ele>130.2</ele>
        <time>2024-03-30T11:52:50.000Z</time>
      </trkpt>
      <trkpt lat="48.0813" lon="3.28011">
        <ele>129.8</ele>
        <time>2024-03-30T11:52:51.000Z</time>
      </trkpt>
      <trkpt lat="48.08128" lon="3.28018">
        <ele>129.3</ele>
        <time>2024-03-30T11:52:52.000Z</time>
      </trkpt>
      <trkpt lat="48.08124" lon="3.28033">
        <ele>127.8</ele>
        <time>2024-03-30T11:52:54.000Z</time>
      </trkpt>
      <trkpt lat="48.08123" lon="3.28042">
        <ele>126.7</ele>
        <time>2024-03-30T11:52:55.000Z</time>
      </trkpt>
      <trkpt lat="48.08122" lon="3.28053">
        <ele>125.5</ele>
        <time>2024-03-30T11:52:56.000Z</time>
      </trkpt>
      <trkpt lat="48.08122" lon="3.28076">
        <ele>123.3</ele>
        <time>2024-03-30T11:52:58.000Z</time>
      </trkpt>
      <trkpt lat="48.08122" lon="3.28088">
        <ele>122.1</ele>
        <time>2024-03-30T11:52:59.000Z</time>
      </trkpt>
      <trkpt lat="48.08122" lon="3.28099">
        <ele>120.9</ele>
        <time>2024-03-30T11:53:00.000Z</time>
      </trkpt>
      <trkpt lat="48.08122" lon="3.28108">
        <ele>119.9</ele>
        <time>2024-03-30T11:53:01.000Z</time>
      </trkpt>
      <trkpt lat="48.08122" lon="3.28117">
        <ele>119</ele>
        <time>2024-03-30T11:53:02.000Z</time>
      </trkpt>
      <trkpt lat="48.08122" lon="3.28125">
        <ele>118.3</ele>
        <time>2024-03-30T11:53:03.000Z</time>
      </trkpt>
      <trkpt lat="48.08122" lon="3.28135">
        <ele>117.3</ele>
        <time>2024-03-30T11:53:04.000Z</time>
      </trkpt>
      <trkpt lat="48.08123" lon="3.28144">
        <ele>116.6</ele>
        <time>2024-03-30T11:53:05.000Z</time>
      </trkpt>
      <trkpt lat="48.08123" lon="3.28153">
        <ele>115.6</ele>
        <time>2024-03-30T11:53:06.000Z</time>
      </trkpt>
      <trkpt lat="48.08125" lon="3.28162">
        <ele>115</ele>
        <time>2024-03-30T11:53:07.000Z</time>
      </trkpt>
      <trkpt lat="48.08126" lon="3.28171">
        <ele>114.1</ele>
        <time>2024-03-30T11:53:08.000Z</time>
      </trkpt>
      <trkpt lat="48.08128" lon="3.28179">
        <ele>113.4</ele>
        <time>2024-03-30T11:53:09.000Z</time>
      </trkpt>
      <trkpt lat="48.08129" lon="3.28186">
        <ele>112.7</ele>
        <time>2024-03-30T11:53:10.000Z</time>
      </trkpt>
      <trkpt lat="48.08129" lon="3.28191">
        <ele>112</ele>
        <time>2024-03-30T11:53:11.000Z</time>
      </trkpt>
      <trkpt lat="48.08128" lon="3.28195">
        <ele>111.4</ele>
        <time>2024-03-30T11:53:12.000Z</time>
      </trkpt>
      <trkpt lat="48.08126" lon="3.28201">
        <ele>110.4</ele>
        <time>2024-03-30T11:53:13.000Z</time>
      </trkpt>
      <trkpt lat="48.08123" lon="3.28207">
        <ele>109.4</ele>
        <time>2024-03-30T11:53:14.000Z</time>
      </trkpt>
      <trkpt lat="48.0812" lon="3.28213">
        <ele>108.3</ele>
        <time>2024-03-30T11:53:15.000Z</time>
      </trkpt>
      <trkpt lat="48.08116" lon="3.2822">
        <ele>106.9</ele>
        <time>2024-03-30T11:53:16.000Z</time>
      </trkpt>
      <trkpt lat="48.08112" lon="3.28229">
        <ele>105.4</ele>
        <time>2024-03-30T11:53:17.000Z</time>
      </trkpt>
      <trkpt lat="48.08102" lon="3.28249">
        <ele>101.8</ele>
        <time>2024-03-30T11:53:19.000Z</time>
      </trkpt>
      <trkpt lat="48.08096" lon="3.2826">
        <ele>99.7</ele>
        <time>2024-03-30T11:53:20.000Z</time>
      </trkpt>
      <trkpt lat="48.08091" lon="3.2827">
        <ele>97.9</ele>
        <time>2024-03-30T11:53:21.000Z</time>
      </trkpt>
      <trkpt lat="48.08087" lon="3.28279">
        <ele>96.4</ele>
        <time>2024-03-30T11:53:22.000Z</time>
      </trkpt>
      <trkpt lat="48.08083" lon="3.28286">
        <ele>95.4</ele>
        <time>2024-03-30T11:53:23.000Z</time>
      </trkpt>
      <trkpt lat="48.08079" lon="3.28293">
        <ele>94.5</ele>
        <time>2024-03-30T11:53:24.000Z</time>
      </trkpt>
      <trkpt lat="48.08076" lon="3.28299">
        <ele>93.9</ele>
        <time>2024-03-30T11:53:25.000Z</time>
      </trkpt>
      <trkpt lat="48.08073" lon="3.28304">
        <ele>93.3</ele>
        <time>2024-03-30T11:53:26.000Z</time>
      </trkpt>
      <trkpt lat="48.08071" lon="3.28308">
        <ele>93</ele>
        <time>2024-03-30T11:53:27.000Z</time>
      </trkpt>
      <trkpt lat="48.0807" lon="3.28312">
        <ele>92.7</ele>
        <time>2024-03-30T11:53:28.000Z</time>
      </trkpt>
      <trkpt lat="48.08069" lon="3.28315">
        <ele>92.5</ele>
        <time>2024-03-30T11:53:29.000Z</time>
      </trkpt>
      <trkpt lat="48.08069" lon="3.28319">
        <ele>92.2</ele>
        <time>2024-03-30T11:53:30.000Z</time>
      </trkpt>
      <trkpt lat="48.08069" lon="3.28322">
        <ele>92.1</ele>
        <time>2024-03-30T11:53:31.000Z</time>
      </trkpt>
      <trkpt lat="48.0807" lon="3.28327">
        <ele>91.9</ele>
        <time>2024-03-30T11:53:32.000Z</time>
      </trkpt>
      <trkpt lat="48.0807" lon="3.28331">
        <ele>91.7</ele>
        <time>2024-03-30T11:53:33.000Z</time>
      </trkpt>
      <trkpt lat="48.08071" lon="3.28334">
        <ele>91.6</ele>
        <time>2024-03-30T11:53:34.000Z</time>
      </trkpt>
      <trkpt lat="48.08072" lon="3.28338">
        <ele>91.4</ele>
        <time>2024-03-30T11:53:35.000Z</time>
      </trkpt>
      <trkpt lat="48.08072" lon="3.28341">
        <ele>91.2</ele>
        <time>2024-03-30T11:53:36.000Z</time>
      </trkpt>
      <trkpt lat="48.08073" lon="3.28345">
        <ele>91</ele>
        <time>2024-03-30T11:53:37.000Z</time>
      </trkpt>
      <trkpt lat="48.08074" lon="3.28348">
        <ele>90.9</ele>
        <time>2024-03-30T11:53:38.000Z</time>
      </trkpt>
      <trkpt lat="48.08074" lon="3.28352">
        <ele>90.6</ele>
        <time>2024-03-30T11:53:39.000Z</time>
      </trkpt>
      <trkpt lat="48.08078" lon="3.2836">
        <ele>90.5</ele>
        <time>2024-03-30T11:53:41.000Z</time>
      </trkpt>
      <trkpt lat="48.0808" lon="3.28364">
        <ele>90.4</ele>
        <time>2024-03-30T11:53:42.000Z</time>
      </trkpt>
      <trkpt lat="48.08083" lon="3.28366">
        <ele>90.4</ele>
        <time>2024-03-30T11:53:43.000Z</time>
      </trkpt>
      <trkpt lat="48.08086" lon="3.28368">
        <ele>90.4</ele>
        <time>2024-03-30T11:53:44.000Z</time>
      </trkpt>
      <trkpt lat="48.08088" lon="3.2837">
        <ele>90.4</ele>
        <time>2024-03-30T11:53:45.000Z</time>
      </trkpt>
      <trkpt lat="48.08091" lon="3.28372">
        <ele>90.4</ele>
        <time>2024-03-30T11:53:46.000Z</time>
      </trkpt>
      <trkpt lat="48.08094" lon="3.28372">
        <ele>90.6</ele>
        <time>2024-03-30T11:53:47.000Z</time>
      </trkpt>
      <trkpt lat="48.08096" lon="3.28372">
        <ele>90.7</ele>
        <time>2024-03-30T11:53:48.000Z</time>
      </trkpt>
      <trkpt lat="48.08098" lon="3.28372">
        <ele>90.9</ele>
        <time>2024-03-30T11:53:49.000Z</time>
      </trkpt>
      <trkpt lat="48.081" lon="3.28373">
        <ele>90.9</ele>
        <time>2024-03-30T11:53:50.000Z</time>
      </trkpt>
      <trkpt lat="48.08102" lon="3.28373">
        <ele>91.1</ele>
        <time>2024-03-30T11:53:51.000Z</time>
      </trkpt>
      <trkpt lat="48.08105" lon="3.28374">
        <ele>91.2</ele>
        <time>2024-03-30T11:53:52.000Z</time>
      </trkpt>
      <trkpt lat="48.08112" lon="3.28376">
        <ele>91.5</ele>
        <time>2024-03-30T11:53:55.000Z</time>
      </trkpt>
      <trkpt lat="48.08115" lon="3.28376">
        <ele>91.7</ele>
        <time>2024-03-30T11:53:56.000Z</time>
      </trkpt>
      <trkpt lat="48.08117" lon="3.28377">
        <ele>91.8</ele>
        <time>2024-03-30T11:53:57.000Z</time>
      </trkpt>
      <trkpt lat="48.0812" lon="3.28378">
        <ele>92</ele>
        <time>2024-03-30T11:53:58.000Z</time>
      </trkpt>
      <trkpt lat="48.08132" lon="3.28383">
        <ele>92.7</ele>
        <time>2024-03-30T11:54:03.000Z</time>
      </trkpt>
      <trkpt lat="48.08153" lon="3.28393">
        <ele>93.5</ele>
        <time>2024-03-30T11:54:12.000Z</time>
      </trkpt>
      <trkpt lat="48.08163" lon="3.28397">
        <ele>93.6</ele>
        <time>2024-03-30T11:54:16.000Z</time>
      </trkpt>
      <trkpt lat="48.08167" lon="3.28399">
        <ele>93.6</ele>
        <time>2024-03-30T11:54:18.000Z</time>
      </trkpt>
      <trkpt lat="48.08169" lon="3.28399">
        <ele>93.7</ele>
        <time>2024-03-30T11:54:19.000Z</time>
      </trkpt>
      <trkpt lat="48.08171" lon="3.284">
        <ele>93.6</ele>
        <time>2024-03-30T11:54:20.000Z</time>
      </trkpt>
      <trkpt lat="48.08173" lon="3.284">
        <ele>93.7</ele>
        <time>2024-03-30T11:54:21.000Z</time>
      </trkpt>
      <trkpt lat="48.08183" lon="3.28404">
        <ele>93.7</ele>
        <time>2024-03-30T11:54:25.000Z</time>
      </trkpt>
      <trkpt lat="48.08185" lon="3.28405">
        <ele>93.7</ele>
        <time>2024-03-30T11:54:26.000Z</time>
      </trkpt>
      <trkpt lat="48.08188" lon="3.28406">
        <ele>93.8</ele>
        <time>2024-03-30T11:54:27.000Z</time>
      </trkpt>
      <trkpt lat="48.08191" lon="3.28407">
        <ele>93.8</ele>
        <time>2024-03-30T11:54:28.000Z</time>
      </trkpt>
      <trkpt lat="48.08201" lon="3.28411">
        <ele>93.7</ele>
        <time>2024-03-30T11:54:32.000Z</time>
      </trkpt>
      <trkpt lat="48.08206" lon="3.28412">
        <ele>93.6</ele>
        <time>2024-03-30T11:54:34.000Z</time>
      </trkpt>
      <trkpt lat="48.08208" lon="3.28412">
        <ele>93.7</ele>
        <time>2024-03-30T11:54:35.000Z</time>
      </trkpt>
      <trkpt lat="48.08211" lon="3.28412">
        <ele>93.7</ele>
        <time>2024-03-30T11:54:36.000Z</time>
      </trkpt>
      <trkpt lat="48.08218" lon="3.28413">
        <ele>93.6</ele>
        <time>2024-03-30T11:54:39.000Z</time>
      </trkpt>
      <trkpt lat="48.08221" lon="3.28412">
        <ele>93.8</ele>
        <time>2024-03-30T11:54:40.000Z</time>
      </trkpt>
      <trkpt lat="48.08223" lon="3.28411">
        <ele>94</ele>
        <time>2024-03-30T11:54:41.000Z</time>
      </trkpt>
      <trkpt lat="48.08239" lon="3.28407">
        <ele>94</ele>
        <time>2024-03-30T11:54:47.000Z</time>
      </trkpt>
      <trkpt lat="48.08262" lon="3.28399">
        <ele>93.7</ele>
        <time>2024-03-30T11:54:54.000Z</time>
      </trkpt>
      <trkpt lat="48.08288" lon="3.28386">
        <ele>93.2</ele>
        <time>2024-03-30T11:55:02.000Z</time>
      </trkpt>
      <trkpt lat="48.08291" lon="3.28384">
        <ele>93.2</ele>
        <time>2024-03-30T11:55:03.000Z</time>
      </trkpt>
      <trkpt lat="48.08294" lon="3.28384">
        <ele>92.8</ele>
        <time>2024-03-30T11:55:04.000Z</time>
      </trkpt>
      <trkpt lat="48.08298" lon="3.28383">
        <ele>92.5</ele>
        <time>2024-03-30T11:55:06.000Z</time>
      </trkpt>
      <trkpt lat="48.08299" lon="3.28382">
        <ele>92.6</ele>
        <time>2024-03-30T11:55:07.000Z</time>
      </trkpt>
      <trkpt lat="48.08301" lon="3.28382">
        <ele>92.4</ele>
        <time>2024-03-30T11:55:08.000Z</time>
      </trkpt>
      <trkpt lat="48.08303" lon="3.28383">
        <ele>91.8</ele>
        <time>2024-03-30T11:55:09.000Z</time>
      </trkpt>
      <trkpt lat="48.08303" lon="3.28383">
        <ele>91.8</ele>
        <time>2024-03-30T11:55:12.000Z</time>
      </trkpt>
      <trkpt lat="48.08303" lon="3.28385">
        <ele>91.3</ele>
        <time>2024-03-30T11:55:17.000Z</time>
      </trkpt>
      <trkpt lat="48.08303" lon="3.28386">
        <ele>91.1</ele>
        <time>2024-03-30T11:55:19.000Z</time>
      </trkpt>
      <trkpt lat="48.08302" lon="3.28387">
        <ele>91</ele>
        <time>2024-03-30T11:55:26.000Z</time>
      </trkpt>
      <trkpt lat="48.08302" lon="3.28387">
        <ele>91</ele>
        <time>2024-03-30T11:55:27.000Z</time>
      </trkpt>
      <trkpt lat="48.08302" lon="3.28387">
        <ele>91</ele>
        <time>2024-03-30T11:55:28.000Z</time>
      </trkpt>
      <trkpt lat="48.08302" lon="3.28388">
        <ele>90.7</ele>
        <time>2024-03-30T11:55:36.000Z</time>
      </trkpt>
      <trkpt lat="48.08302" lon="3.28389">
        <ele>90.5</ele>
        <time>2024-03-30T11:55:38.000Z</time>
      </trkpt>
      <trkpt lat="48.08302" lon="3.2839">
        <ele>90.3</ele>
        <time>2024-03-30T11:55:39.000Z</time>
      </trkpt>
      <trkpt lat="48.08302" lon="3.2839">
        <ele>90.3</ele>
        <time>2024-03-30T11:55:43.000Z</time>
      </trkpt>
      <trkpt lat="48.08302" lon="3.2839">
        <ele>90.3</ele>
        <time>2024-03-30T11:55:46.000Z</time>
      </trkpt>
      <trkpt lat="48.08303" lon="3.28393">
        <ele>89.6</ele>
        <time>2024-03-30T11:55:51.000Z</time>
      </trkpt>
      <trkpt lat="48.08303" lon="3.28394">
        <ele>89.4</ele>
        <time>2024-03-30T11:55:53.000Z</time>
      </trkpt>
      <trkpt lat="48.08303" lon="3.28394">
        <ele>89.4</ele>
        <time>2024-03-30T11:55:59.000Z</time>
      </trkpt>
      <trkpt lat="48.08303" lon="3.28394">
        <ele>89.4</ele>
        <time>2024-03-30T11:56:00.000Z</time>
      </trkpt>
      <trkpt lat="48.08303" lon="3.28395">
        <ele>89.2</ele>
        <time>2024-03-30T11:56:03.000Z</time>
      </trkpt>
      <trkpt lat="48.08304" lon="3.28396">
        <ele>88.9</ele>
        <time>2024-03-30T11:56:04.000Z</time>
      </trkpt>
      <trkpt lat="48.08304" lon="3.28402">
        <ele>87.8</ele>
        <time>2024-03-30T11:56:06.000Z</time>
      </trkpt>
      <trkpt lat="48.08304" lon="3.28403">
        <ele>87.6</ele>
        <time>2024-03-30T11:56:09.000Z</time>
      </trkpt>
      <trkpt lat="48.08304" lon="3.28406">
        <ele>87.1</ele>
        <time>2024-03-30T11:56:11.000Z</time>
      </trkpt>
      <trkpt lat="48.08304" lon="3.28413">
        <ele>85.8</ele>
        <time>2024-03-30T11:56:13.000Z</time>
      </trkpt>
      <trkpt lat="48.08308" lon="3.28431">
        <ele>83.5</ele>
        <time>2024-03-30T11:56:17.000Z</time>
      </trkpt>
      <trkpt lat="48.08309" lon="3.28436">
        <ele>82.9</ele>
        <time>2024-03-30T11:56:18.000Z</time>
      </trkpt>
      <trkpt lat="48.08312" lon="3.28459">
        <ele>80.4</ele>
        <time>2024-03-30T11:56:22.000Z</time>
      </trkpt>
      <trkpt lat="48.08313" lon="3.28467">
        <ele>79.6</ele>
        <time>2024-03-30T11:56:23.000Z</time>
      </trkpt>
      <trkpt lat="48.08316" lon="3.28492">
        <ele>77.3</ele>
        <time>2024-03-30T11:56:26.000Z</time>
      </trkpt>
      <trkpt lat="48.08318" lon="3.28502">
        <ele>76.4</ele>
        <time>2024-03-30T11:56:27.000Z</time>
      </trkpt>
      <trkpt lat="48.08321" lon="3.28522">
        <ele>74.5</ele>
        <time>2024-03-30T11:56:29.000Z</time>
      </trkpt>
      <trkpt lat="48.08322" lon="3.28531">
        <ele>73.9</ele>
        <time>2024-03-30T11:56:30.000Z</time>
      </trkpt>
      <trkpt lat="48.08323" lon="3.28538">
        <ele>73.6</ele>
        <time>2024-03-30T11:56:31.000Z</time>
      </trkpt>
      <trkpt lat="48.08323" lon="3.28542">
        <ele>73.5</ele>
        <time>2024-03-30T11:56:32.000Z</time>
      </trkpt>
      <trkpt lat="48.08324" lon="3.28545">
        <ele>73.4</ele>
        <time>2024-03-30T11:56:33.000Z</time>
      </trkpt>
      <trkpt lat="48.08324" lon="3.28548">
        <ele>73.3</ele>
        <time>2024-03-30T11:56:34.000Z</time>
      </trkpt>
      <trkpt lat="48.08325" lon="3.28549">
        <ele>73.2</ele>
        <time>2024-03-30T11:56:35.000Z</time>
      </trkpt>
      <trkpt lat="48.08325" lon="3.28549">
        <ele>73.2</ele>
        <time>2024-03-30T11:56:36.000Z</time>
      </trkpt>
      <trkpt lat="48.08325" lon="3.2855">
        <ele>73.2</ele>
        <time>2024-03-30T11:56:38.000Z</time>
      </trkpt>
      <trkpt lat="48.08324" lon="3.2855">
        <ele>73.2</ele>
        <time>2024-03-30T11:56:39.000Z</time>
      </trkpt>
      <trkpt lat="48.08325" lon="3.28551">
        <ele>73.2</ele>
        <time>2024-03-30T11:56:40.000Z</time>
      </trkpt>
      <trkpt lat="48.08324" lon="3.28551">
        <ele>73.2</ele>
        <time>2024-03-30T11:56:41.000Z</time>
      </trkpt>
      <trkpt lat="48.08324" lon="3.28552">
        <ele>73.1</ele>
        <time>2024-03-30T11:56:42.000Z</time>
      </trkpt>
      <trkpt lat="48.08324" lon="3.28552">
        <ele>73.1</ele>
        <time>2024-03-30T11:56:46.000Z</time>
      </trkpt>
      <trkpt lat="48.08324" lon="3.28552">
        <ele>73.1</ele>
        <time>2024-03-30T11:56:48.000Z</time>
      </trkpt>
      <trkpt lat="48.08324" lon="3.28553">
        <ele>73.1</ele>
        <time>2024-03-30T11:56:54.000Z</time>
      </trkpt>
      <trkpt lat="48.08323" lon="3.28554">
        <ele>73.1</ele>
        <time>2024-03-30T11:56:55.000Z</time>
      </trkpt>
      <trkpt lat="48.08322" lon="3.28556">
        <ele>73</ele>
        <time>2024-03-30T11:56:56.000Z</time>
      </trkpt>
      <trkpt lat="48.08321" lon="3.28557">
        <ele>73</ele>
        <time>2024-03-30T11:56:57.000Z</time>
      </trkpt>
      <trkpt lat="48.08319" lon="3.2856">
        <ele>73</ele>
        <time>2024-03-30T11:56:58.000Z</time>
      </trkpt>
      <trkpt lat="48.08314" lon="3.28573">
        <ele>73</ele>
        <time>2024-03-30T11:57:03.000Z</time>
      </trkpt>
      <trkpt lat="48.08313" lon="3.28576">
        <ele>73</ele>
        <time>2024-03-30T11:57:04.000Z</time>
      </trkpt>
      <trkpt lat="48.0831" lon="3.28605">
        <ele>73</ele>
        <time>2024-03-30T11:57:11.000Z</time>
      </trkpt>
      <trkpt lat="48.08312" lon="3.2863">
        <ele>73</ele>
        <time>2024-03-30T11:57:17.000Z</time>
      </trkpt>
      <trkpt lat="48.08312" lon="3.28642">
        <ele>73.1</ele>
        <time>2024-03-30T11:57:20.000Z</time>
      </trkpt>
      <trkpt lat="48.08312" lon="3.28645">
        <ele>73.2</ele>
        <time>2024-03-30T11:57:21.000Z</time>
      </trkpt>
      <trkpt lat="48.08312" lon="3.28648">
        <ele>73.3</ele>
        <time>2024-03-30T11:57:22.000Z</time>
      </trkpt>
      <trkpt lat="48.08313" lon="3.28649">
        <ele>73.4</ele>
        <time>2024-03-30T11:57:23.000Z</time>
      </trkpt>
      <trkpt lat="48.08313" lon="3.28651">
        <ele>73.4</ele>
        <time>2024-03-30T11:57:24.000Z</time>
      </trkpt>
      <trkpt lat="48.08313" lon="3.28652">
        <ele>73.5</ele>
        <time>2024-03-30T11:57:25.000Z</time>
      </trkpt>
      <trkpt lat="48.08311" lon="3.28683">
        <ele>73.4</ele>
        <time>2024-03-30T11:57:46.000Z</time>
      </trkpt>
      <trkpt lat="48.08309" lon="3.28683">
        <ele>73.4</ele>
        <time>2024-03-30T11:57:47.000Z</time>
      </trkpt>
      <trkpt lat="48.08305" lon="3.28684">
        <ele>73.4</ele>
        <time>2024-03-30T11:57:48.000Z</time>
      </trkpt>
      <trkpt lat="48.083" lon="3.28685">
        <ele>73.3</ele>
        <time>2024-03-30T11:57:51.000Z</time>
      </trkpt>
      <trkpt lat="48.08298" lon="3.28686">
        <ele>73.3</ele>
        <time>2024-03-30T11:57:52.000Z</time>
      </trkpt>
      <trkpt lat="48.08298" lon="3.28686">
        <ele>73.3</ele>
        <time>2024-03-30T11:57:53.000Z</time>
      </trkpt>
      <trkpt lat="48.08299" lon="3.28686">
        <ele>73.3</ele>
        <time>2024-03-30T11:57:54.000Z</time>
      </trkpt>
      <trkpt lat="48.08299" lon="3.28688">
        <ele>73.2</ele>
        <time>2024-03-30T11:57:55.000Z</time>
      </trkpt>
      <trkpt lat="48.08299" lon="3.2869">
        <ele>73.2</ele>
        <time>2024-03-30T11:57:56.000Z</time>
      </trkpt>
      <trkpt lat="48.08299" lon="3.28701">
        <ele>73</ele>
        <time>2024-03-30T11:57:59.000Z</time>
      </trkpt>
      <trkpt lat="48.083" lon="3.28717">
        <ele>73</ele>
        <time>2024-03-30T11:58:03.000Z</time>
      </trkpt>
      <trkpt lat="48.08301" lon="3.28722">
        <ele>73</ele>
        <time>2024-03-30T11:58:04.000Z</time>
      </trkpt>
      <trkpt lat="48.08303" lon="3.2873">
        <ele>73</ele>
        <time>2024-03-30T11:58:06.000Z</time>
      </trkpt>
      <trkpt lat="48.08306" lon="3.28758">
        <ele>72.7</ele>
        <time>2024-03-30T11:58:13.000Z</time>
      </trkpt>
      <trkpt lat="48.08306" lon="3.28761">
        <ele>72.6</ele>
        <time>2024-03-30T11:58:14.000Z</time>
      </trkpt>
      <trkpt lat="48.08306" lon="3.28763">
        <ele>72.5</ele>
        <time>2024-03-30T11:58:15.000Z</time>
      </trkpt>
      <trkpt lat="48.08306" lon="3.28766">
        <ele>72.4</ele>
        <time>2024-03-30T11:58:16.000Z</time>
      </trkpt>
      <trkpt lat="48.08307" lon="3.28775">
        <ele>72.1</ele>
        <time>2024-03-30T11:58:19.000Z</time>
      </trkpt>
      <trkpt lat="48.08308" lon="3.28779">
        <ele>72</ele>
        <time>2024-03-30T11:58:20.000Z</time>
      </trkpt>
      <trkpt lat="48.08309" lon="3.28783">
        <ele>72</ele>
        <time>2024-03-30T11:58:21.000Z</time>
      </trkpt>
      <trkpt lat="48.08312" lon="3.288">
        <ele>72</ele>
        <time>2024-03-30T11:58:24.000Z</time>
      </trkpt>
      <trkpt lat="48.08314" lon="3.28812">
        <ele>72</ele>
        <time>2024-03-30T11:58:26.000Z</time>
      </trkpt>
      <trkpt lat="48.08318" lon="3.28843">
        <ele>72</ele>
        <time>2024-03-30T11:58:31.000Z</time>
      </trkpt>
      <trkpt lat="48.08321" lon="3.28903">
        <ele>72.2</ele>
        <time>2024-03-30T11:58:40.000Z</time>
      </trkpt>
      <trkpt lat="48.08318" lon="3.28936">
        <ele>72.2</ele>
        <time>2024-03-30T11:58:45.000Z</time>
      </trkpt>
      <trkpt lat="48.08318" lon="3.28942">
        <ele>72</ele>
        <time>2024-03-30T11:58:46.000Z</time>
      </trkpt>
      <trkpt lat="48.08317" lon="3.28948">
        <ele>72.1</ele>
        <time>2024-03-30T11:58:47.000Z</time>
      </trkpt>
      <trkpt lat="48.08316" lon="3.28954">
        <ele>72.3</ele>
        <time>2024-03-30T11:58:48.000Z</time>
      </trkpt>
      <trkpt lat="48.08315" lon="3.2896">
        <ele>72.6</ele>
        <time>2024-03-30T11:58:49.000Z</time>
      </trkpt>
      <trkpt lat="48.08313" lon="3.28966">
        <ele>72.8</ele>
        <time>2024-03-30T11:58:50.000Z</time>
      </trkpt>
      <trkpt lat="48.08312" lon="3.28972">
        <ele>73</ele>
        <time>2024-03-30T11:58:51.000Z</time>
      </trkpt>
      <trkpt lat="48.0831" lon="3.28977">
        <ele>73</ele>
        <time>2024-03-30T11:58:52.000Z</time>
      </trkpt>
      <trkpt lat="48.08309" lon="3.28981">
        <ele>73</ele>
        <time>2024-03-30T11:58:53.000Z</time>
      </trkpt>
      <trkpt lat="48.08308" lon="3.28986">
        <ele>73</ele>
        <time>2024-03-30T11:58:54.000Z</time>
      </trkpt>
      <trkpt lat="48.08307" lon="3.28991">
        <ele>73</ele>
        <time>2024-03-30T11:58:55.000Z</time>
      </trkpt>
      <trkpt lat="48.08306" lon="3.28995">
        <ele>73</ele>
        <time>2024-03-30T11:58:56.000Z</time>
      </trkpt>
      <trkpt lat="48.08305" lon="3.28998">
        <ele>73</ele>
        <time>2024-03-30T11:58:57.000Z</time>
      </trkpt>
      <trkpt lat="48.08301" lon="3.29018">
        <ele>72.7</ele>
        <time>2024-03-30T11:59:01.000Z</time>
      </trkpt>
      <trkpt lat="48.08286" lon="3.29057">
        <ele>71.5</ele>
        <time>2024-03-30T11:59:09.000Z</time>
      </trkpt>
      <trkpt lat="48.08284" lon="3.29061">
        <ele>71.3</ele>
        <time>2024-03-30T11:59:10.000Z</time>
      </trkpt>
      <trkpt lat="48.08283" lon="3.29066">
        <ele>71</ele>
        <time>2024-03-30T11:59:11.000Z</time>
      </trkpt>
      <trkpt lat="48.08282" lon="3.29071">
        <ele>70.7</ele>
        <time>2024-03-30T11:59:12.000Z</time>
      </trkpt>
      <trkpt lat="48.0828" lon="3.29076">
        <ele>70.4</ele>
        <time>2024-03-30T11:59:13.000Z</time>
      </trkpt>
      <trkpt lat="48.08277" lon="3.29086">
        <ele>70.1</ele>
        <time>2024-03-30T11:59:15.000Z</time>
      </trkpt>
      <trkpt lat="48.08272" lon="3.291">
        <ele>70.5</ele>
        <time>2024-03-30T11:59:18.000Z</time>
      </trkpt>
      <trkpt lat="48.08267" lon="3.29118">
        <ele>71.1</ele>
        <time>2024-03-30T11:59:22.000Z</time>
      </trkpt>
      <trkpt lat="48.08265" lon="3.29122">
        <ele>71.3</ele>
        <time>2024-03-30T11:59:23.000Z</time>
      </trkpt>
      <trkpt lat="48.08264" lon="3.29127">
        <ele>71.6</ele>
        <time>2024-03-30T11:59:24.000Z</time>
      </trkpt>
      <trkpt lat="48.08263" lon="3.29131">
        <ele>71.9</ele>
        <time>2024-03-30T11:59:25.000Z</time>
      </trkpt>
      <trkpt lat="48.08262" lon="3.29135">
        <ele>72.2</ele>
        <time>2024-03-30T11:59:26.000Z</time>
      </trkpt>
      <trkpt lat="48.08261" lon="3.2914">
        <ele>72.3</ele>
        <time>2024-03-30T11:59:27.000Z</time>
      </trkpt>
      <trkpt lat="48.0826" lon="3.29144">
        <ele>72.1</ele>
        <time>2024-03-30T11:59:28.000Z</time>
      </trkpt>
      <trkpt lat="48.08259" lon="3.29148">
        <ele>71.9</ele>
        <time>2024-03-30T11:59:29.000Z</time>
      </trkpt>
      <trkpt lat="48.08258" lon="3.29152">
        <ele>71.7</ele>
        <time>2024-03-30T11:59:30.000Z</time>
      </trkpt>
      <trkpt lat="48.08256" lon="3.29154">
        <ele>71.6</ele>
        <time>2024-03-30T11:59:31.000Z</time>
      </trkpt>
      <trkpt lat="48.08254" lon="3.29155">
        <ele>71.5</ele>
        <time>2024-03-30T11:59:32.000Z</time>
      </trkpt>
      <trkpt lat="48.08252" lon="3.29155">
        <ele>71.5</ele>
        <time>2024-03-30T11:59:33.000Z</time>
      </trkpt>
      <trkpt lat="48.08249" lon="3.29153">
        <ele>71.5</ele>
        <time>2024-03-30T11:59:34.000Z</time>
      </trkpt>
      <trkpt lat="48.08242" lon="3.29148">
        <ele>71.4</ele>
        <time>2024-03-30T11:59:36.000Z</time>
      </trkpt>
      <trkpt lat="48.08238" lon="3.29145">
        <ele>71.3</ele>
        <time>2024-03-30T11:59:37.000Z</time>
      </trkpt>
      <trkpt lat="48.08211" lon="3.29125">
        <ele>70.8</ele>
        <time>2024-03-30T11:59:42.000Z</time>
      </trkpt>
      <trkpt lat="48.08194" lon="3.2911">
        <ele>70.9</ele>
        <time>2024-03-30T11:59:45.000Z</time>
      </trkpt>
      <trkpt lat="48.0819" lon="3.29106">
        <ele>70.7</ele>
        <time>2024-03-30T11:59:46.000Z</time>
      </trkpt>
      <trkpt lat="48.08186" lon="3.29102">
        <ele>70.6</ele>
        <time>2024-03-30T11:59:47.000Z</time>
      </trkpt>
      <trkpt lat="48.08182" lon="3.29098">
        <ele>70.5</ele>
        <time>2024-03-30T11:59:48.000Z</time>
      </trkpt>
      <trkpt lat="48.08179" lon="3.29094">
        <ele>70.5</ele>
        <time>2024-03-30T11:59:49.000Z</time>
      </trkpt>
      <trkpt lat="48.08176" lon="3.2909">
        <ele>70.6</ele>
        <time>2024-03-30T11:59:50.000Z</time>
      </trkpt>
      <trkpt lat="48.08173" lon="3.29086">
        <ele>70.7</ele>
        <time>2024-03-30T11:59:51.000Z</time>
      </trkpt>
      <trkpt lat="48.08171" lon="3.29083">
        <ele>70.8</ele>
        <time>2024-03-30T11:59:52.000Z</time>
      </trkpt>
      <trkpt lat="48.08169" lon="3.2908">
        <ele>70.8</ele>
        <time>2024-03-30T11:59:53.000Z</time>
      </trkpt>
      <trkpt lat="48.08168" lon="3.29077">
        <ele>70.7</ele>
        <time>2024-03-30T11:59:54.000Z</time>
      </trkpt>
      <trkpt lat="48.08168" lon="3.29076">
        <ele>70.7</ele>
        <time>2024-03-30T11:59:55.000Z</time>
      </trkpt>
      <trkpt lat="48.08167" lon="3.29076">
        <ele>70.7</ele>
        <time>2024-03-30T11:59:56.000Z</time>
      </trkpt>
      <trkpt lat="48.08167" lon="3.29076">
        <ele>70.7</ele>
        <time>2024-03-30T11:59:57.000Z</time>
      </trkpt>
      <trkpt lat="48.08167" lon="3.29076">
        <ele>70.7</ele>
        <time>2024-03-30T11:59:58.000Z</time>
      </trkpt>
    </trkseg>
  </trk>
  <trk>
    <name><![CDATA[VTT5 Normal]]></name>
    <extensions>
      <line xmlns="http://www.topografix.com/GPX/gpx_style/0/2">
        <color>0000FF</color>
        <width>4</width>
      </line>
    </extensions>
    <trkseg>
      <trkpt lat="48.08193" lon="3.29103">
        <ele>70.7</ele>
        <time>2024-03-30T15:26:07.000Z</time>
      </trkpt>
      <trkpt lat="48.08193" lon="3.29103">
        <ele>70.7</ele>
        <time>2024-03-30T15:26:23.000Z</time>
      </trkpt>
      <trkpt lat="48.08193" lon="3.29103">
        <ele>70.7</ele>
        <time>2024-03-30T15:26:38.000Z</time>
      </trkpt>
      <trkpt lat="48.08194" lon="3.29105">
        <ele>70.8</ele>
        <time>2024-03-30T15:26:39.000Z</time>
      </trkpt>
      <trkpt lat="48.08195" lon="3.29107">
        <ele>70.9</ele>
        <time>2024-03-30T15:26:40.000Z</time>
      </trkpt>
      <trkpt lat="48.08196" lon="3.29109">
        <ele>70.9</ele>
        <time>2024-03-30T15:26:41.000Z</time>
      </trkpt>
      <trkpt lat="48.08207" lon="3.29118">
        <ele>70.9</ele>
        <time>2024-03-30T15:26:45.000Z</time>
      </trkpt>
      <trkpt lat="48.08209" lon="3.2912">
        <ele>70.8</ele>
        <time>2024-03-30T15:26:46.000Z</time>
      </trkpt>
      <trkpt lat="48.08212" lon="3.29122">
        <ele>70.9</ele>
        <time>2024-03-30T15:26:47.000Z</time>
      </trkpt>
      <trkpt lat="48.08214" lon="3.29124">
        <ele>70.9</ele>
        <time>2024-03-30T15:26:48.000Z</time>
      </trkpt>
      <trkpt lat="48.08222" lon="3.29131">
        <ele>71</ele>
        <time>2024-03-30T15:26:51.000Z</time>
      </trkpt>
      <trkpt lat="48.08229" lon="3.29136">
        <ele>71.2</ele>
        <time>2024-03-30T15:26:54.000Z</time>
      </trkpt>
      <trkpt lat="48.08232" lon="3.29138">
        <ele>71.3</ele>
        <time>2024-03-30T15:26:55.000Z</time>
      </trkpt>
      <trkpt lat="48.08242" lon="3.29145">
        <ele>71.5</ele>
        <time>2024-03-30T15:26:59.000Z</time>
      </trkpt>
      <trkpt lat="48.08245" lon="3.29146">
        <ele>71.6</ele>
        <time>2024-03-30T15:27:00.000Z</time>
      </trkpt>
      <trkpt lat="48.08247" lon="3.29148">
        <ele>71.6</ele>
        <time>2024-03-30T15:27:01.000Z</time>
      </trkpt>
      <trkpt lat="48.08249" lon="3.29149">
        <ele>71.6</ele>
        <time>2024-03-30T15:27:02.000Z</time>
      </trkpt>
      <trkpt lat="48.08251" lon="3.29151">
        <ele>71.6</ele>
        <time>2024-03-30T15:27:03.000Z</time>
      </trkpt>
      <trkpt lat="48.08252" lon="3.29152">
        <ele>71.6</ele>
        <time>2024-03-30T15:27:04.000Z</time>
      </trkpt>
      <trkpt lat="48.08253" lon="3.29153">
        <ele>71.5</ele>
        <time>2024-03-30T15:27:05.000Z</time>
      </trkpt>
      <trkpt lat="48.08255" lon="3.29155">
        <ele>71.5</ele>
        <time>2024-03-30T15:27:06.000Z</time>
      </trkpt>
      <trkpt lat="48.08255" lon="3.29158">
        <ele>71.4</ele>
        <time>2024-03-30T15:27:07.000Z</time>
      </trkpt>
      <trkpt lat="48.08255" lon="3.29161">
        <ele>71.2</ele>
        <time>2024-03-30T15:27:08.000Z</time>
      </trkpt>
      <trkpt lat="48.08254" lon="3.29164">
        <ele>71.1</ele>
        <time>2024-03-30T15:27:09.000Z</time>
      </trkpt>
      <trkpt lat="48.08253" lon="3.29167">
        <ele>71</ele>
        <time>2024-03-30T15:27:10.000Z</time>
      </trkpt>
      <trkpt lat="48.08252" lon="3.29171">
        <ele>70.8</ele>
        <time>2024-03-30T15:27:11.000Z</time>
      </trkpt>
      <trkpt lat="48.08251" lon="3.29175">
        <ele>70.7</ele>
        <time>2024-03-30T15:27:12.000Z</time>
      </trkpt>
      <trkpt lat="48.0825" lon="3.2918">
        <ele>70.5</ele>
        <time>2024-03-30T15:27:13.000Z</time>
      </trkpt>
      <trkpt lat="48.08249" lon="3.29184">
        <ele>70.4</ele>
        <time>2024-03-30T15:27:14.000Z</time>
      </trkpt>
      <trkpt lat="48.08248" lon="3.29188">
        <ele>70.2</ele>
        <time>2024-03-30T15:27:15.000Z</time>
      </trkpt>
      <trkpt lat="48.08246" lon="3.29193">
        <ele>70</ele>
        <time>2024-03-30T15:27:16.000Z</time>
      </trkpt>
      <trkpt lat="48.08245" lon="3.29197">
        <ele>70</ele>
        <time>2024-03-30T15:27:17.000Z</time>
      </trkpt>
      <trkpt lat="48.08243" lon="3.29201">
        <ele>70</ele>
        <time>2024-03-30T15:27:18.000Z</time>
      </trkpt>
      <trkpt lat="48.08242" lon="3.29205">
        <ele>70</ele>
        <time>2024-03-30T15:27:19.000Z</time>
      </trkpt>
      <trkpt lat="48.0824" lon="3.2921">
        <ele>70</ele>
        <time>2024-03-30T15:27:20.000Z</time>
      </trkpt>
      <trkpt lat="48.08239" lon="3.29215">
        <ele>70</ele>
        <time>2024-03-30T15:27:21.000Z</time>
      </trkpt>
      <trkpt lat="48.08239" lon="3.2922">
        <ele>70</ele>
        <time>2024-03-30T15:27:22.000Z</time>
      </trkpt>
      <trkpt lat="48.08238" lon="3.29225">
        <ele>70</ele>
        <time>2024-03-30T15:27:23.000Z</time>
      </trkpt>
      <trkpt lat="48.08236" lon="3.2923">
        <ele>70</ele>
        <time>2024-03-30T15:27:24.000Z</time>
      </trkpt>
      <trkpt lat="48.08235" lon="3.29235">
        <ele>70</ele>
        <time>2024-03-30T15:27:25.000Z</time>
      </trkpt>
      <trkpt lat="48.08234" lon="3.29241">
        <ele>70</ele>
        <time>2024-03-30T15:27:26.000Z</time>
      </trkpt>
      <trkpt lat="48.08232" lon="3.29247">
        <ele>70</ele>
        <time>2024-03-30T15:27:27.000Z</time>
      </trkpt>
      <trkpt lat="48.08231" lon="3.29254">
        <ele>70.5</ele>
        <time>2024-03-30T15:27:28.000Z</time>
      </trkpt>
      <trkpt lat="48.08229" lon="3.29261">
        <ele>71.5</ele>
        <time>2024-03-30T15:27:29.000Z</time>
      </trkpt>
      <trkpt lat="48.08227" lon="3.29268">
        <ele>72.7</ele>
        <time>2024-03-30T15:27:30.000Z</time>
      </trkpt>
      <trkpt lat="48.08225" lon="3.29275">
        <ele>74</ele>
        <time>2024-03-30T15:27:31.000Z</time>
      </trkpt>
      <trkpt lat="48.08223" lon="3.29282">
        <ele>74.7</ele>
        <time>2024-03-30T15:27:32.000Z</time>
      </trkpt>
      <trkpt lat="48.08222" lon="3.29288">
        <ele>74.6</ele>
        <time>2024-03-30T15:27:33.000Z</time>
      </trkpt>
      <trkpt lat="48.08221" lon="3.29294">
        <ele>74.3</ele>
        <time>2024-03-30T15:27:34.000Z</time>
      </trkpt>
      <trkpt lat="48.0822" lon="3.29299">
        <ele>74.1</ele>
        <time>2024-03-30T15:27:35.000Z</time>
      </trkpt>
      <trkpt lat="48.0822" lon="3.29304">
        <ele>74</ele>
        <time>2024-03-30T15:27:36.000Z</time>
      </trkpt>
      <trkpt lat="48.0822" lon="3.29307">
        <ele>73.9</ele>
        <time>2024-03-30T15:27:37.000Z</time>
      </trkpt>
      <trkpt lat="48.08223" lon="3.29311">
        <ele>73.7</ele>
        <time>2024-03-30T15:27:38.000Z</time>
      </trkpt>
      <trkpt lat="48.08227" lon="3.29313">
        <ele>73.3</ele>
        <time>2024-03-30T15:27:39.000Z</time>
      </trkpt>
      <trkpt lat="48.08237" lon="3.29316">
        <ele>72.2</ele>
        <time>2024-03-30T15:27:41.000Z</time>
      </trkpt>
      <trkpt lat="48.08241" lon="3.29315">
        <ele>71.9</ele>
        <time>2024-03-30T15:27:42.000Z</time>
      </trkpt>
      <trkpt lat="48.08244" lon="3.29311">
        <ele>71.6</ele>
        <time>2024-03-30T15:27:43.000Z</time>
      </trkpt>
      <trkpt lat="48.08246" lon="3.29307">
        <ele>71.4</ele>
        <time>2024-03-30T15:27:44.000Z</time>
      </trkpt>
      <trkpt lat="48.08247" lon="3.29303">
        <ele>71.3</ele>
        <time>2024-03-30T15:27:45.000Z</time>
      </trkpt>
      <trkpt lat="48.08248" lon="3.293">
        <ele>71</ele>
        <time>2024-03-30T15:27:46.000Z</time>
      </trkpt>
      <trkpt lat="48.08251" lon="3.29295">
        <ele>70.6</ele>
        <time>2024-03-30T15:27:47.000Z</time>
      </trkpt>
      <trkpt lat="48.08254" lon="3.29294">
        <ele>70.6</ele>
        <time>2024-03-30T15:27:48.000Z</time>
      </trkpt>
      <trkpt lat="48.08258" lon="3.29293">
        <ele>70.5</ele>
        <time>2024-03-30T15:27:49.000Z</time>
      </trkpt>
      <trkpt lat="48.08265" lon="3.29296">
        <ele>70.7</ele>
        <time>2024-03-30T15:27:51.000Z</time>
      </trkpt>
      <trkpt lat="48.0827" lon="3.29298">
        <ele>70.7</ele>
        <time>2024-03-30T15:27:52.000Z</time>
      </trkpt>
      <trkpt lat="48.08274" lon="3.293">
        <ele>70.8</ele>
        <time>2024-03-30T15:27:53.000Z</time>
      </trkpt>
      <trkpt lat="48.08282" lon="3.29306">
        <ele>70.9</ele>
        <time>2024-03-30T15:27:55.000Z</time>
      </trkpt>
      <trkpt lat="48.08285" lon="3.29311">
        <ele>71</ele>
        <time>2024-03-30T15:27:56.000Z</time>
      </trkpt>
      <trkpt lat="48.08287" lon="3.29316">
        <ele>71.2</ele>
        <time>2024-03-30T15:27:57.000Z</time>
      </trkpt>
      <trkpt lat="48.08288" lon="3.29322">
        <ele>71.4</ele>
        <time>2024-03-30T15:27:58.000Z</time>
      </trkpt>
      <trkpt lat="48.08289" lon="3.29328">
        <ele>71.7</ele>
        <time>2024-03-30T15:27:59.000Z</time>
      </trkpt>
      <trkpt lat="48.08294" lon="3.29337">
        <ele>72.1</ele>
        <time>2024-03-30T15:28:01.000Z</time>
      </trkpt>
      <trkpt lat="48.08296" lon="3.2934">
        <ele>72.1</ele>
        <time>2024-03-30T15:28:02.000Z</time>
      </trkpt>
      <trkpt lat="48.08299" lon="3.29343">
        <ele>72.1</ele>
        <time>2024-03-30T15:28:03.000Z</time>
      </trkpt>
      <trkpt lat="48.08302" lon="3.29344">
        <ele>72</ele>
        <time>2024-03-30T15:28:04.000Z</time>
      </trkpt>
      <trkpt lat="48.08305" lon="3.29345">
        <ele>72</ele>
        <time>2024-03-30T15:28:05.000Z</time>
      </trkpt>
      <trkpt lat="48.08308" lon="3.29346">
        <ele>72</ele>
        <time>2024-03-30T15:28:06.000Z</time>
      </trkpt>
      <trkpt lat="48.08311" lon="3.29346">
        <ele>72</ele>
        <time>2024-03-30T15:28:07.000Z</time>
      </trkpt>
      <trkpt lat="48.08333" lon="3.2935">
        <ele>72</ele>
        <time>2024-03-30T15:28:13.000Z</time>
      </trkpt>
      <trkpt lat="48.08346" lon="3.29348">
        <ele>71.8</ele>
        <time>2024-03-30T15:28:16.000Z</time>
      </trkpt>
      <trkpt lat="48.08355" lon="3.29344">
        <ele>71.5</ele>
        <time>2024-03-30T15:28:18.000Z</time>
      </trkpt>
      <trkpt lat="48.08361" lon="3.29342">
        <ele>71.3</ele>
        <time>2024-03-30T15:28:19.000Z</time>
      </trkpt>
      <trkpt lat="48.08371" lon="3.29342">
        <ele>71.2</ele>
        <time>2024-03-30T15:28:21.000Z</time>
      </trkpt>
      <trkpt lat="48.08382" lon="3.29341">
        <ele>71.1</ele>
        <time>2024-03-30T15:28:23.000Z</time>
      </trkpt>
      <trkpt lat="48.08409" lon="3.29339">
        <ele>71</ele>
        <time>2024-03-30T15:28:28.000Z</time>
      </trkpt>
      <trkpt lat="48.08429" lon="3.29338">
        <ele>71</ele>
        <time>2024-03-30T15:28:32.000Z</time>
      </trkpt>
      <trkpt lat="48.08434" lon="3.29338">
        <ele>71</ele>
        <time>2024-03-30T15:28:33.000Z</time>
      </trkpt>
      <trkpt lat="48.08439" lon="3.29337">
        <ele>71</ele>
        <time>2024-03-30T15:28:34.000Z</time>
      </trkpt>
      <trkpt lat="48.08444" lon="3.29337">
        <ele>71</ele>
        <time>2024-03-30T15:28:35.000Z</time>
      </trkpt>
      <trkpt lat="48.08457" lon="3.29334">
        <ele>71</ele>
        <time>2024-03-30T15:28:38.000Z</time>
      </trkpt>
      <trkpt lat="48.08462" lon="3.29333">
        <ele>71</ele>
        <time>2024-03-30T15:28:39.000Z</time>
      </trkpt>
      <trkpt lat="48.08467" lon="3.29332">
        <ele>71</ele>
        <time>2024-03-30T15:28:40.000Z</time>
      </trkpt>
      <trkpt lat="48.08472" lon="3.29331">
        <ele>70.9</ele>
        <time>2024-03-30T15:28:41.000Z</time>
      </trkpt>
      <trkpt lat="48.08477" lon="3.29331">
        <ele>70.9</ele>
        <time>2024-03-30T15:28:42.000Z</time>
      </trkpt>
      <trkpt lat="48.08496" lon="3.29328">
        <ele>71</ele>
        <time>2024-03-30T15:28:46.000Z</time>
      </trkpt>
      <trkpt lat="48.08519" lon="3.29325">
        <ele>71</ele>
        <time>2024-03-30T15:28:51.000Z</time>
      </trkpt>
      <trkpt lat="48.08524" lon="3.29325">
        <ele>71</ele>
        <time>2024-03-30T15:28:52.000Z</time>
      </trkpt>
      <trkpt lat="48.08528" lon="3.29325">
        <ele>71</ele>
        <time>2024-03-30T15:28:53.000Z</time>
      </trkpt>
      <trkpt lat="48.08532" lon="3.29325">
        <ele>71</ele>
        <time>2024-03-30T15:28:54.000Z</time>
      </trkpt>
      <trkpt lat="48.08537" lon="3.29324">
        <ele>71</ele>
        <time>2024-03-30T15:28:55.000Z</time>
      </trkpt>
      <trkpt lat="48.08541" lon="3.29324">
        <ele>71</ele>
        <time>2024-03-30T15:28:56.000Z</time>
      </trkpt>
      <trkpt lat="48.08546" lon="3.29323">
        <ele>71</ele>
        <time>2024-03-30T15:28:57.000Z</time>
      </trkpt>
      <trkpt lat="48.0855" lon="3.29323">
        <ele>71</ele>
        <time>2024-03-30T15:28:58.000Z</time>
      </trkpt>
      <trkpt lat="48.08554" lon="3.29322">
        <ele>71</ele>
        <time>2024-03-30T15:28:59.000Z</time>
      </trkpt>
      <trkpt lat="48.08558" lon="3.29321">
        <ele>71</ele>
        <time>2024-03-30T15:29:00.000Z</time>
      </trkpt>
      <trkpt lat="48.08567" lon="3.29324">
        <ele>71</ele>
        <time>2024-03-30T15:29:02.000Z</time>
      </trkpt>
      <trkpt lat="48.0857" lon="3.29328">
        <ele>71</ele>
        <time>2024-03-30T15:29:03.000Z</time>
      </trkpt>
      <trkpt lat="48.08573" lon="3.29334">
        <ele>71</ele>
        <time>2024-03-30T15:29:04.000Z</time>
      </trkpt>
      <trkpt lat="48.08574" lon="3.29341">
        <ele>71</ele>
        <time>2024-03-30T15:29:05.000Z</time>
      </trkpt>
      <trkpt lat="48.08574" lon="3.29348">
        <ele>71</ele>
        <time>2024-03-30T15:29:06.000Z</time>
      </trkpt>
      <trkpt lat="48.08573" lon="3.29363">
        <ele>71.1</ele>
        <time>2024-03-30T15:29:08.000Z</time>
      </trkpt>
      <trkpt lat="48.08572" lon="3.2937">
        <ele>71.3</ele>
        <time>2024-03-30T15:29:09.000Z</time>
      </trkpt>
      <trkpt lat="48.08571" lon="3.29377">
        <ele>71.6</ele>
        <time>2024-03-30T15:29:10.000Z</time>
      </trkpt>
      <trkpt lat="48.0857" lon="3.29396">
        <ele>72</ele>
        <time>2024-03-30T15:29:13.000Z</time>
      </trkpt>
      <trkpt lat="48.08568" lon="3.2941">
        <ele>72</ele>
        <time>2024-03-30T15:29:15.000Z</time>
      </trkpt>
      <trkpt lat="48.08567" lon="3.29416">
        <ele>72</ele>
        <time>2024-03-30T15:29:16.000Z</time>
      </trkpt>
      <trkpt lat="48.08566" lon="3.2943">
        <ele>72</ele>
        <time>2024-03-30T15:29:18.000Z</time>
      </trkpt>
      <trkpt lat="48.08565" lon="3.29437">
        <ele>72</ele>
        <time>2024-03-30T15:29:19.000Z</time>
      </trkpt>
      <trkpt lat="48.08564" lon="3.29444">
        <ele>72</ele>
        <time>2024-03-30T15:29:20.000Z</time>
      </trkpt>
      <trkpt lat="48.08564" lon="3.29451">
        <ele>72.2</ele>
        <time>2024-03-30T15:29:21.000Z</time>
      </trkpt>
      <trkpt lat="48.08563" lon="3.29476">
        <ele>73.1</ele>
        <time>2024-03-30T15:29:25.000Z</time>
      </trkpt>
      <trkpt lat="48.08561" lon="3.29488">
        <ele>73.6</ele>
        <time>2024-03-30T15:29:27.000Z</time>
      </trkpt>
      <trkpt lat="48.08561" lon="3.29494">
        <ele>73.8</ele>
        <time>2024-03-30T15:29:28.000Z</time>
      </trkpt>
      <trkpt lat="48.0856" lon="3.29499">
        <ele>74</ele>
        <time>2024-03-30T15:29:29.000Z</time>
      </trkpt>
      <trkpt lat="48.0856" lon="3.29504">
        <ele>74</ele>
        <time>2024-03-30T15:29:30.000Z</time>
      </trkpt>
      <trkpt lat="48.08559" lon="3.29508">
        <ele>74</ele>
        <time>2024-03-30T15:29:31.000Z</time>
      </trkpt>
      <trkpt lat="48.08559" lon="3.29511">
        <ele>74</ele>
        <time>2024-03-30T15:29:32.000Z</time>
      </trkpt>
      <trkpt lat="48.08559" lon="3.29513">
        <ele>74</ele>
        <time>2024-03-30T15:29:33.000Z</time>
      </trkpt>
      <trkpt lat="48.08558" lon="3.29515">
        <ele>74</ele>
        <time>2024-03-30T15:29:34.000Z</time>
      </trkpt>
      <trkpt lat="48.08558" lon="3.29517">
        <ele>74</ele>
        <time>2024-03-30T15:29:35.000Z</time>
      </trkpt>
      <trkpt lat="48.08558" lon="3.29518">
        <ele>74</ele>
        <time>2024-03-30T15:29:36.000Z</time>
      </trkpt>
      <trkpt lat="48.08559" lon="3.2952">
        <ele>74</ele>
        <time>2024-03-30T15:29:37.000Z</time>
      </trkpt>
      <trkpt lat="48.0856" lon="3.29521">
        <ele>74</ele>
        <time>2024-03-30T15:29:38.000Z</time>
      </trkpt>
      <trkpt lat="48.0857" lon="3.29526">
        <ele>74</ele>
        <time>2024-03-30T15:29:41.000Z</time>
      </trkpt>
      <trkpt lat="48.08576" lon="3.29531">
        <ele>74.1</ele>
        <time>2024-03-30T15:29:43.000Z</time>
      </trkpt>
      <trkpt lat="48.08578" lon="3.29536">
        <ele>74.3</ele>
        <time>2024-03-30T15:29:44.000Z</time>
      </trkpt>
      <trkpt lat="48.0858" lon="3.29542">
        <ele>74.5</ele>
        <time>2024-03-30T15:29:45.000Z</time>
      </trkpt>
      <trkpt lat="48.0858" lon="3.29549">
        <ele>74.8</ele>
        <time>2024-03-30T15:29:46.000Z</time>
      </trkpt>
      <trkpt lat="48.08581" lon="3.29555">
        <ele>75</ele>
        <time>2024-03-30T15:29:47.000Z</time>
      </trkpt>
      <trkpt lat="48.08581" lon="3.29562">
        <ele>75</ele>
        <time>2024-03-30T15:29:48.000Z</time>
      </trkpt>
      <trkpt lat="48.08582" lon="3.29568">
        <ele>75</ele>
        <time>2024-03-30T15:29:49.000Z</time>
      </trkpt>
      <trkpt lat="48.08584" lon="3.29599">
        <ele>75.6</ele>
        <time>2024-03-30T15:29:54.000Z</time>
      </trkpt>
      <trkpt lat="48.08585" lon="3.29605">
        <ele>75.8</ele>
        <time>2024-03-30T15:29:55.000Z</time>
      </trkpt>
      <trkpt lat="48.08585" lon="3.29611">
        <ele>76</ele>
        <time>2024-03-30T15:29:56.000Z</time>
      </trkpt>
      <trkpt lat="48.08586" lon="3.29617">
        <ele>76</ele>
        <time>2024-03-30T15:29:57.000Z</time>
      </trkpt>
      <trkpt lat="48.08586" lon="3.29623">
        <ele>76</ele>
        <time>2024-03-30T15:29:58.000Z</time>
      </trkpt>
      <trkpt lat="48.08589" lon="3.29646">
        <ele>76.2</ele>
        <time>2024-03-30T15:30:02.000Z</time>
      </trkpt>
      <trkpt lat="48.08589" lon="3.29652">
        <ele>76.4</ele>
        <time>2024-03-30T15:30:03.000Z</time>
      </trkpt>
      <trkpt lat="48.08591" lon="3.29695">
        <ele>77</ele>
        <time>2024-03-30T15:30:10.000Z</time>
      </trkpt>
      <trkpt lat="48.08593" lon="3.2972">
        <ele>77.3</ele>
        <time>2024-03-30T15:30:14.000Z</time>
      </trkpt>
      <trkpt lat="48.08594" lon="3.29732">
        <ele>76.8</ele>
        <time>2024-03-30T15:30:16.000Z</time>
      </trkpt>
      <trkpt lat="48.08596" lon="3.29744">
        <ele>76.2</ele>
        <time>2024-03-30T15:30:18.000Z</time>
      </trkpt>
      <trkpt lat="48.08597" lon="3.29749">
        <ele>76</ele>
        <time>2024-03-30T15:30:19.000Z</time>
      </trkpt>
      <trkpt lat="48.08601" lon="3.29775">
        <ele>76.9</ele>
        <time>2024-03-30T15:30:23.000Z</time>
      </trkpt>
      <trkpt lat="48.08609" lon="3.29808">
        <ele>78</ele>
        <time>2024-03-30T15:30:28.000Z</time>
      </trkpt>
      <trkpt lat="48.08611" lon="3.29825">
        <ele>78</ele>
        <time>2024-03-30T15:30:31.000Z</time>
      </trkpt>
      <trkpt lat="48.08611" lon="3.29827">
        <ele>78</ele>
        <time>2024-03-30T15:30:32.000Z</time>
      </trkpt>
      <trkpt lat="48.08611" lon="3.29827">
        <ele>78</ele>
        <time>2024-03-30T15:30:33.000Z</time>
      </trkpt>
      <trkpt lat="48.08611" lon="3.29827">
        <ele>78</ele>
        <time>2024-03-30T15:30:36.000Z</time>
      </trkpt>
      <trkpt lat="48.08611" lon="3.29827">
        <ele>78</ele>
        <time>2024-03-30T15:30:55.000Z</time>
      </trkpt>
      <trkpt lat="48.08612" lon="3.29831">
        <ele>78</ele>
        <time>2024-03-30T15:31:03.000Z</time>
      </trkpt>
      <trkpt lat="48.08613" lon="3.29832">
        <ele>77.9</ele>
        <time>2024-03-30T15:31:04.000Z</time>
      </trkpt>
      <trkpt lat="48.08614" lon="3.29834">
        <ele>77.9</ele>
        <time>2024-03-30T15:31:05.000Z</time>
      </trkpt>
      <trkpt lat="48.08617" lon="3.29837">
        <ele>77.8</ele>
        <time>2024-03-30T15:31:07.000Z</time>
      </trkpt>
      <trkpt lat="48.08618" lon="3.29839">
        <ele>77.8</ele>
        <time>2024-03-30T15:31:08.000Z</time>
      </trkpt>
      <trkpt lat="48.08625" lon="3.29848">
        <ele>77.8</ele>
        <time>2024-03-30T15:31:12.000Z</time>
      </trkpt>
      <trkpt lat="48.08638" lon="3.29863">
        <ele>78</ele>
        <time>2024-03-30T15:31:20.000Z</time>
      </trkpt>
      <trkpt lat="48.08656" lon="3.29876">
        <ele>77.7</ele>
        <time>2024-03-30T15:31:27.000Z</time>
      </trkpt>
      <trkpt lat="48.08659" lon="3.29878">
        <ele>77.7</ele>
        <time>2024-03-30T15:31:28.000Z</time>
      </trkpt>
      <trkpt lat="48.0869" lon="3.29901">
        <ele>77.5</ele>
        <time>2024-03-30T15:31:38.000Z</time>
      </trkpt>
      <trkpt lat="48.08711" lon="3.29918">
        <ele>77.5</ele>
        <time>2024-03-30T15:31:43.000Z</time>
      </trkpt>
      <trkpt lat="48.08715" lon="3.29922">
        <ele>77.5</ele>
        <time>2024-03-30T15:31:44.000Z</time>
      </trkpt>
      <trkpt lat="48.08735" lon="3.29941">
        <ele>77.5</ele>
        <time>2024-03-30T15:31:49.000Z</time>
      </trkpt>
      <trkpt lat="48.08746" lon="3.29954">
        <ele>77.2</ele>
        <time>2024-03-30T15:31:52.000Z</time>
      </trkpt>
      <trkpt lat="48.08772" lon="3.2999">
        <ele>77.3</ele>
        <time>2024-03-30T15:31:59.000Z</time>
      </trkpt>
      <trkpt lat="48.08793" lon="3.30022">
        <ele>80.1</ele>
        <time>2024-03-30T15:32:05.000Z</time>
      </trkpt>
      <trkpt lat="48.08806" lon="3.3004">
        <ele>77.4</ele>
        <time>2024-03-30T15:32:08.000Z</time>
      </trkpt>
      <trkpt lat="48.08823" lon="3.30064">
        <ele>77.2</ele>
        <time>2024-03-30T15:32:12.000Z</time>
      </trkpt>
      <trkpt lat="48.08827" lon="3.3007">
        <ele>77.1</ele>
        <time>2024-03-30T15:32:13.000Z</time>
      </trkpt>
      <trkpt lat="48.08832" lon="3.30076">
        <ele>76.9</ele>
        <time>2024-03-30T15:32:14.000Z</time>
      </trkpt>
      <trkpt lat="48.08836" lon="3.30081">
        <ele>76.7</ele>
        <time>2024-03-30T15:32:15.000Z</time>
      </trkpt>
      <trkpt lat="48.08847" lon="3.30098">
        <ele>77.1</ele>
        <time>2024-03-30T15:32:18.000Z</time>
      </trkpt>
      <trkpt lat="48.08858" lon="3.30114">
        <ele>76.7</ele>
        <time>2024-03-30T15:32:21.000Z</time>
      </trkpt>
      <trkpt lat="48.08862" lon="3.3012">
        <ele>76.9</ele>
        <time>2024-03-30T15:32:22.000Z</time>
      </trkpt>
      <trkpt lat="48.08865" lon="3.30125">
        <ele>77.1</ele>
        <time>2024-03-30T15:32:23.000Z</time>
      </trkpt>
      <trkpt lat="48.08869" lon="3.30131">
        <ele>77.3</ele>
        <time>2024-03-30T15:32:24.000Z</time>
      </trkpt>
      <trkpt lat="48.08872" lon="3.30136">
        <ele>77.2</ele>
        <time>2024-03-30T15:32:25.000Z</time>
      </trkpt>
      <trkpt lat="48.08876" lon="3.30142">
        <ele>77.2</ele>
        <time>2024-03-30T15:32:26.000Z</time>
      </trkpt>
      <trkpt lat="48.0888" lon="3.30147">
        <ele>77.1</ele>
        <time>2024-03-30T15:32:27.000Z</time>
      </trkpt>
      <trkpt lat="48.08883" lon="3.30153">
        <ele>77.1</ele>
        <time>2024-03-30T15:32:28.000Z</time>
      </trkpt>
      <trkpt lat="48.08889" lon="3.30163">
        <ele>76.7</ele>
        <time>2024-03-30T15:32:30.000Z</time>
      </trkpt>
      <trkpt lat="48.08892" lon="3.30168">
        <ele>76.8</ele>
        <time>2024-03-30T15:32:31.000Z</time>
      </trkpt>
      <trkpt lat="48.08895" lon="3.30173">
        <ele>76.6</ele>
        <time>2024-03-30T15:32:32.000Z</time>
      </trkpt>
      <trkpt lat="48.08897" lon="3.30178">
        <ele>76.5</ele>
        <time>2024-03-30T15:32:33.000Z</time>
      </trkpt>
      <trkpt lat="48.08899" lon="3.30183">
        <ele>76.5</ele>
        <time>2024-03-30T15:32:34.000Z</time>
      </trkpt>
      <trkpt lat="48.08902" lon="3.30188">
        <ele>76.4</ele>
        <time>2024-03-30T15:32:35.000Z</time>
      </trkpt>
      <trkpt lat="48.08904" lon="3.30192">
        <ele>76.4</ele>
        <time>2024-03-30T15:32:36.000Z</time>
      </trkpt>
      <trkpt lat="48.08908" lon="3.30194">
        <ele>76.3</ele>
        <time>2024-03-30T15:32:37.000Z</time>
      </trkpt>
      <trkpt lat="48.08911" lon="3.30195">
        <ele>76.2</ele>
        <time>2024-03-30T15:32:38.000Z</time>
      </trkpt>
      <trkpt lat="48.08916" lon="3.30195">
        <ele>76</ele>
        <time>2024-03-30T15:32:39.000Z</time>
      </trkpt>
      <trkpt lat="48.0892" lon="3.30194">
        <ele>76</ele>
        <time>2024-03-30T15:32:40.000Z</time>
      </trkpt>
      <trkpt lat="48.08924" lon="3.30194">
        <ele>76</ele>
        <time>2024-03-30T15:32:41.000Z</time>
      </trkpt>
      <trkpt lat="48.08929" lon="3.30194">
        <ele>76</ele>
        <time>2024-03-30T15:32:42.000Z</time>
      </trkpt>
      <trkpt lat="48.08947" lon="3.30193">
        <ele>75.9</ele>
        <time>2024-03-30T15:32:46.000Z</time>
      </trkpt>
      <trkpt lat="48.08952" lon="3.30195">
        <ele>75.7</ele>
        <time>2024-03-30T15:32:47.000Z</time>
      </trkpt>
      <trkpt lat="48.08956" lon="3.30197">
        <ele>75.6</ele>
        <time>2024-03-30T15:32:48.000Z</time>
      </trkpt>
      <trkpt lat="48.0896" lon="3.302">
        <ele>75.6</ele>
        <time>2024-03-30T15:32:49.000Z</time>
      </trkpt>
      <trkpt lat="48.08963" lon="3.30203">
        <ele>75.5</ele>
        <time>2024-03-30T15:32:50.000Z</time>
      </trkpt>
      <trkpt lat="48.08967" lon="3.30208">
        <ele>75.6</ele>
        <time>2024-03-30T15:32:51.000Z</time>
      </trkpt>
      <trkpt lat="48.0897" lon="3.30213">
        <ele>75.7</ele>
        <time>2024-03-30T15:32:52.000Z</time>
      </trkpt>
      <trkpt lat="48.08972" lon="3.30218">
        <ele>75.8</ele>
        <time>2024-03-30T15:32:53.000Z</time>
      </trkpt>
      <trkpt lat="48.08984" lon="3.30249">
        <ele>75.6</ele>
        <time>2024-03-30T15:32:58.000Z</time>
      </trkpt>
      <trkpt lat="48.08995" lon="3.30279">
        <ele>75.2</ele>
        <time>2024-03-30T15:33:03.000Z</time>
      </trkpt>
      <trkpt lat="48.09003" lon="3.30296">
        <ele>75.7</ele>
        <time>2024-03-30T15:33:06.000Z</time>
      </trkpt>
      <trkpt lat="48.09012" lon="3.30311">
        <ele>75.9</ele>
        <time>2024-03-30T15:33:09.000Z</time>
      </trkpt>
      <trkpt lat="48.09015" lon="3.30316">
        <ele>75.8</ele>
        <time>2024-03-30T15:33:10.000Z</time>
      </trkpt>
      <trkpt lat="48.09028" lon="3.30335">
        <ele>75.9</ele>
        <time>2024-03-30T15:33:14.000Z</time>
      </trkpt>
      <trkpt lat="48.09041" lon="3.30362">
        <ele>75.5</ele>
        <time>2024-03-30T15:33:19.000Z</time>
      </trkpt>
      <trkpt lat="48.09043" lon="3.30368">
        <ele>75.7</ele>
        <time>2024-03-30T15:33:20.000Z</time>
      </trkpt>
      <trkpt lat="48.09046" lon="3.30373">
        <ele>75.8</ele>
        <time>2024-03-30T15:33:21.000Z</time>
      </trkpt>
      <trkpt lat="48.09049" lon="3.30379">
        <ele>75.9</ele>
        <time>2024-03-30T15:33:22.000Z</time>
      </trkpt>
      <trkpt lat="48.09051" lon="3.30384">
        <ele>76</ele>
        <time>2024-03-30T15:33:23.000Z</time>
      </trkpt>
      <trkpt lat="48.09065" lon="3.30418">
        <ele>76</ele>
        <time>2024-03-30T15:33:29.000Z</time>
      </trkpt>
      <trkpt lat="48.09067" lon="3.30423">
        <ele>76</ele>
        <time>2024-03-30T15:33:30.000Z</time>
      </trkpt>
      <trkpt lat="48.0907" lon="3.30429">
        <ele>76</ele>
        <time>2024-03-30T15:33:31.000Z</time>
      </trkpt>
      <trkpt lat="48.09072" lon="3.30435">
        <ele>76</ele>
        <time>2024-03-30T15:33:32.000Z</time>
      </trkpt>
      <trkpt lat="48.09078" lon="3.30445">
        <ele>76</ele>
        <time>2024-03-30T15:33:34.000Z</time>
      </trkpt>
      <trkpt lat="48.09084" lon="3.30455">
        <ele>76</ele>
        <time>2024-03-30T15:33:36.000Z</time>
      </trkpt>
      <trkpt lat="48.09087" lon="3.3046">
        <ele>76</ele>
        <time>2024-03-30T15:33:37.000Z</time>
      </trkpt>
      <trkpt lat="48.0909" lon="3.30464">
        <ele>76</ele>
        <time>2024-03-30T15:33:38.000Z</time>
      </trkpt>
      <trkpt lat="48.09103" lon="3.30482">
        <ele>76</ele>
        <time>2024-03-30T15:33:42.000Z</time>
      </trkpt>
      <trkpt lat="48.09106" lon="3.30487">
        <ele>76</ele>
        <time>2024-03-30T15:33:43.000Z</time>
      </trkpt>
      <trkpt lat="48.0911" lon="3.30491">
        <ele>76</ele>
        <time>2024-03-30T15:33:44.000Z</time>
      </trkpt>
      <trkpt lat="48.09119" lon="3.30503">
        <ele>76</ele>
        <time>2024-03-30T15:33:47.000Z</time>
      </trkpt>
      <trkpt lat="48.0914" lon="3.30528">
        <ele>76</ele>
        <time>2024-03-30T15:33:53.000Z</time>
      </trkpt>
      <trkpt lat="48.09146" lon="3.30536">
        <ele>76.1</ele>
        <time>2024-03-30T15:33:55.000Z</time>
      </trkpt>
      <trkpt lat="48.0915" lon="3.30541">
        <ele>76.2</ele>
        <time>2024-03-30T15:33:56.000Z</time>
      </trkpt>
      <trkpt lat="48.09153" lon="3.30546">
        <ele>76.3</ele>
        <time>2024-03-30T15:33:57.000Z</time>
      </trkpt>
      <trkpt lat="48.09156" lon="3.3055">
        <ele>76.5</ele>
        <time>2024-03-30T15:33:58.000Z</time>
      </trkpt>
      <trkpt lat="48.0916" lon="3.30555">
        <ele>76.7</ele>
        <time>2024-03-30T15:33:59.000Z</time>
      </trkpt>
      <trkpt lat="48.09163" lon="3.30559">
        <ele>76.9</ele>
        <time>2024-03-30T15:34:00.000Z</time>
      </trkpt>
      <trkpt lat="48.09166" lon="3.30563">
        <ele>77</ele>
        <time>2024-03-30T15:34:01.000Z</time>
      </trkpt>
      <trkpt lat="48.09169" lon="3.30567">
        <ele>77</ele>
        <time>2024-03-30T15:34:02.000Z</time>
      </trkpt>
      <trkpt lat="48.09172" lon="3.30571">
        <ele>76.9</ele>
        <time>2024-03-30T15:34:03.000Z</time>
      </trkpt>
      <trkpt lat="48.09175" lon="3.30575">
        <ele>76.9</ele>
        <time>2024-03-30T15:34:04.000Z</time>
      </trkpt>
      <trkpt lat="48.09178" lon="3.30579">
        <ele>76.9</ele>
        <time>2024-03-30T15:34:05.000Z</time>
      </trkpt>
      <trkpt lat="48.0918" lon="3.30583">
        <ele>77</ele>
        <time>2024-03-30T15:34:06.000Z</time>
      </trkpt>
      <trkpt lat="48.09183" lon="3.30586">
        <ele>77</ele>
        <time>2024-03-30T15:34:07.000Z</time>
      </trkpt>
      <trkpt lat="48.09186" lon="3.30588">
        <ele>77</ele>
        <time>2024-03-30T15:34:08.000Z</time>
      </trkpt>
      <trkpt lat="48.0919" lon="3.30588">
        <ele>77</ele>
        <time>2024-03-30T15:34:09.000Z</time>
      </trkpt>
      <trkpt lat="48.09194" lon="3.30588">
        <ele>77</ele>
        <time>2024-03-30T15:34:10.000Z</time>
      </trkpt>
      <trkpt lat="48.09198" lon="3.3059">
        <ele>77</ele>
        <time>2024-03-30T15:34:11.000Z</time>
      </trkpt>
      <trkpt lat="48.09203" lon="3.30595">
        <ele>77</ele>
        <time>2024-03-30T15:34:13.000Z</time>
      </trkpt>
      <trkpt lat="48.09207" lon="3.30599">
        <ele>77</ele>
        <time>2024-03-30T15:34:14.000Z</time>
      </trkpt>
      <trkpt lat="48.09231" lon="3.30623">
        <ele>77</ele>
        <time>2024-03-30T15:34:21.000Z</time>
      </trkpt>
      <trkpt lat="48.09235" lon="3.30626">
        <ele>77</ele>
        <time>2024-03-30T15:34:22.000Z</time>
      </trkpt>
      <trkpt lat="48.09239" lon="3.30629">
        <ele>77</ele>
        <time>2024-03-30T15:34:23.000Z</time>
      </trkpt>
      <trkpt lat="48.09242" lon="3.30632">
        <ele>77</ele>
        <time>2024-03-30T15:34:24.000Z</time>
      </trkpt>
      <trkpt lat="48.09249" lon="3.30638">
        <ele>77</ele>
        <time>2024-03-30T15:34:26.000Z</time>
      </trkpt>
      <trkpt lat="48.09256" lon="3.30644">
        <ele>77</ele>
        <time>2024-03-30T15:34:28.000Z</time>
      </trkpt>
      <trkpt lat="48.0926" lon="3.30646">
        <ele>77</ele>
        <time>2024-03-30T15:34:29.000Z</time>
      </trkpt>
      <trkpt lat="48.09281" lon="3.30655">
        <ele>77.1</ele>
        <time>2024-03-30T15:34:34.000Z</time>
      </trkpt>
      <trkpt lat="48.09289" lon="3.30657">
        <ele>77.3</ele>
        <time>2024-03-30T15:34:36.000Z</time>
      </trkpt>
      <trkpt lat="48.09292" lon="3.30658">
        <ele>77.4</ele>
        <time>2024-03-30T15:34:37.000Z</time>
      </trkpt>
      <trkpt lat="48.09295" lon="3.30659">
        <ele>77.4</ele>
        <time>2024-03-30T15:34:38.000Z</time>
      </trkpt>
      <trkpt lat="48.09299" lon="3.3066">
        <ele>77.6</ele>
        <time>2024-03-30T15:34:39.000Z</time>
      </trkpt>
      <trkpt lat="48.09301" lon="3.30663">
        <ele>77.7</ele>
        <time>2024-03-30T15:34:40.000Z</time>
      </trkpt>
      <trkpt lat="48.09304" lon="3.30665">
        <ele>77.9</ele>
        <time>2024-03-30T15:34:41.000Z</time>
      </trkpt>
      <trkpt lat="48.09305" lon="3.30668">
        <ele>78</ele>
        <time>2024-03-30T15:34:42.000Z</time>
      </trkpt>
      <trkpt lat="48.09307" lon="3.30672">
        <ele>78</ele>
        <time>2024-03-30T15:34:43.000Z</time>
      </trkpt>
      <trkpt lat="48.09309" lon="3.30676">
        <ele>78</ele>
        <time>2024-03-30T15:34:44.000Z</time>
      </trkpt>
      <trkpt lat="48.09315" lon="3.3069">
        <ele>78</ele>
        <time>2024-03-30T15:34:47.000Z</time>
      </trkpt>
      <trkpt lat="48.09321" lon="3.30719">
        <ele>78.5</ele>
        <time>2024-03-30T15:34:53.000Z</time>
      </trkpt>
      <trkpt lat="48.09322" lon="3.30728">
        <ele>78.5</ele>
        <time>2024-03-30T15:34:55.000Z</time>
      </trkpt>
      <trkpt lat="48.09322" lon="3.30733">
        <ele>78.4</ele>
        <time>2024-03-30T15:34:56.000Z</time>
      </trkpt>
      <trkpt lat="48.09322" lon="3.30738">
        <ele>78.3</ele>
        <time>2024-03-30T15:34:57.000Z</time>
      </trkpt>
      <trkpt lat="48.09322" lon="3.30742">
        <ele>78.2</ele>
        <time>2024-03-30T15:34:58.000Z</time>
      </trkpt>
      <trkpt lat="48.09323" lon="3.30747">
        <ele>78.1</ele>
        <time>2024-03-30T15:34:59.000Z</time>
      </trkpt>
      <trkpt lat="48.09324" lon="3.30749">
        <ele>78</ele>
        <time>2024-03-30T15:35:00.000Z</time>
      </trkpt>
      <trkpt lat="48.09324" lon="3.30752">
        <ele>78</ele>
        <time>2024-03-30T15:35:01.000Z</time>
      </trkpt>
      <trkpt lat="48.09325" lon="3.30754">
        <ele>78</ele>
        <time>2024-03-30T15:35:02.000Z</time>
      </trkpt>
      <trkpt lat="48.09327" lon="3.30755">
        <ele>78</ele>
        <time>2024-03-30T15:35:03.000Z</time>
      </trkpt>
      <trkpt lat="48.0933" lon="3.30756">
        <ele>78</ele>
        <time>2024-03-30T15:35:04.000Z</time>
      </trkpt>
      <trkpt lat="48.09332" lon="3.30757">
        <ele>78</ele>
        <time>2024-03-30T15:35:05.000Z</time>
      </trkpt>
      <trkpt lat="48.09334" lon="3.3076">
        <ele>78</ele>
        <time>2024-03-30T15:35:06.000Z</time>
      </trkpt>
      <trkpt lat="48.09336" lon="3.30791">
        <ele>78</ele>
        <time>2024-03-30T15:35:11.000Z</time>
      </trkpt>
      <trkpt lat="48.09336" lon="3.30796">
        <ele>78.1</ele>
        <time>2024-03-30T15:35:12.000Z</time>
      </trkpt>
      <trkpt lat="48.09336" lon="3.30801">
        <ele>78.1</ele>
        <time>2024-03-30T15:35:13.000Z</time>
      </trkpt>
      <trkpt lat="48.09335" lon="3.30807">
        <ele>78.1</ele>
        <time>2024-03-30T15:35:14.000Z</time>
      </trkpt>
      <trkpt lat="48.09336" lon="3.30825">
        <ele>78.7</ele>
        <time>2024-03-30T15:35:17.000Z</time>
      </trkpt>
      <trkpt lat="48.09334" lon="3.30868">
        <ele>79</ele>
        <time>2024-03-30T15:35:24.000Z</time>
      </trkpt>
      <trkpt lat="48.09333" lon="3.30906">
        <ele>79</ele>
        <time>2024-03-30T15:35:30.000Z</time>
      </trkpt>
      <trkpt lat="48.09335" lon="3.30917">
        <ele>79.1</ele>
        <time>2024-03-30T15:35:32.000Z</time>
      </trkpt>
      <trkpt lat="48.09336" lon="3.30921">
        <ele>79.1</ele>
        <time>2024-03-30T15:35:33.000Z</time>
      </trkpt>
      <trkpt lat="48.09336" lon="3.30923">
        <ele>79.1</ele>
        <time>2024-03-30T15:35:34.000Z</time>
      </trkpt>
      <trkpt lat="48.09336" lon="3.30923">
        <ele>79.1</ele>
        <time>2024-03-30T15:35:35.000Z</time>
      </trkpt>
      <trkpt lat="48.09336" lon="3.30923">
        <ele>79.1</ele>
        <time>2024-03-30T15:35:36.000Z</time>
      </trkpt>
      <trkpt lat="48.09334" lon="3.30925">
        <ele>79</ele>
        <time>2024-03-30T15:35:46.000Z</time>
      </trkpt>
      <trkpt lat="48.09334" lon="3.30925">
        <ele>79</ele>
        <time>2024-03-30T15:35:47.000Z</time>
      </trkpt>
      <trkpt lat="48.09334" lon="3.30925">
        <ele>79</ele>
        <time>2024-03-30T15:35:53.000Z</time>
      </trkpt>
      <trkpt lat="48.09335" lon="3.30925">
        <ele>79.1</ele>
        <time>2024-03-30T15:36:05.000Z</time>
      </trkpt>
      <trkpt lat="48.09336" lon="3.30926">
        <ele>79.1</ele>
        <time>2024-03-30T15:36:07.000Z</time>
      </trkpt>
      <trkpt lat="48.09337" lon="3.30926">
        <ele>79.1</ele>
        <time>2024-03-30T15:36:08.000Z</time>
      </trkpt>
      <trkpt lat="48.09337" lon="3.30927">
        <ele>79.1</ele>
        <time>2024-03-30T15:36:09.000Z</time>
      </trkpt>
      <trkpt lat="48.09343" lon="3.30936">
        <ele>79.3</ele>
        <time>2024-03-30T15:36:13.000Z</time>
      </trkpt>
      <trkpt lat="48.09356" lon="3.30944">
        <ele>79.8</ele>
        <time>2024-03-30T15:36:17.000Z</time>
      </trkpt>
      <trkpt lat="48.09364" lon="3.30947">
        <ele>80</ele>
        <time>2024-03-30T15:36:19.000Z</time>
      </trkpt>
      <trkpt lat="48.09367" lon="3.30949">
        <ele>80</ele>
        <time>2024-03-30T15:36:20.000Z</time>
      </trkpt>
      <trkpt lat="48.09383" lon="3.30955">
        <ele>80.3</ele>
        <time>2024-03-30T15:36:24.000Z</time>
      </trkpt>
      <trkpt lat="48.09404" lon="3.30962">
        <ele>80.6</ele>
        <time>2024-03-30T15:36:30.000Z</time>
      </trkpt>
      <trkpt lat="48.09407" lon="3.30963">
        <ele>80.7</ele>
        <time>2024-03-30T15:36:31.000Z</time>
      </trkpt>
      <trkpt lat="48.09409" lon="3.30965">
        <ele>80.7</ele>
        <time>2024-03-30T15:36:32.000Z</time>
      </trkpt>
      <trkpt lat="48.09412" lon="3.30966">
        <ele>80.8</ele>
        <time>2024-03-30T15:36:33.000Z</time>
      </trkpt>
      <trkpt lat="48.09414" lon="3.30967">
        <ele>80.8</ele>
        <time>2024-03-30T15:36:34.000Z</time>
      </trkpt>
      <trkpt lat="48.09417" lon="3.30968">
        <ele>80.9</ele>
        <time>2024-03-30T15:36:35.000Z</time>
      </trkpt>
      <trkpt lat="48.09418" lon="3.30967">
        <ele>80.9</ele>
        <time>2024-03-30T15:36:36.000Z</time>
      </trkpt>
      <trkpt lat="48.09419" lon="3.30967">
        <ele>80.9</ele>
        <time>2024-03-30T15:36:37.000Z</time>
      </trkpt>
      <trkpt lat="48.09419" lon="3.30967">
        <ele>80.9</ele>
        <time>2024-03-30T15:36:40.000Z</time>
      </trkpt>
      <trkpt lat="48.09419" lon="3.30967">
        <ele>80.9</ele>
        <time>2024-03-30T15:36:51.000Z</time>
      </trkpt>
      <trkpt lat="48.09419" lon="3.30967">
        <ele>80.9</ele>
        <time>2024-03-30T15:37:17.000Z</time>
      </trkpt>
      <trkpt lat="48.09419" lon="3.30967">
        <ele>80.9</ele>
        <time>2024-03-30T15:38:09.000Z</time>
      </trkpt>
      <trkpt lat="48.0942" lon="3.30964">
        <ele>80.8</ele>
        <time>2024-03-30T15:38:21.000Z</time>
      </trkpt>
      <trkpt lat="48.09421" lon="3.3096">
        <ele>80.7</ele>
        <time>2024-03-30T15:38:23.000Z</time>
      </trkpt>
      <trkpt lat="48.09423" lon="3.30941">
        <ele>80.2</ele>
        <time>2024-03-30T15:38:28.000Z</time>
      </trkpt>
      <trkpt lat="48.09427" lon="3.30906">
        <ele>80.4</ele>
        <time>2024-03-30T15:38:34.000Z</time>
      </trkpt>
      <trkpt lat="48.09429" lon="3.30885">
        <ele>80.4</ele>
        <time>2024-03-30T15:38:37.000Z</time>
      </trkpt>
      <trkpt lat="48.09431" lon="3.30859">
        <ele>80</ele>
        <time>2024-03-30T15:38:41.000Z</time>
      </trkpt>
      <trkpt lat="48.09432" lon="3.30835">
        <ele>79.6</ele>
        <time>2024-03-30T15:38:45.000Z</time>
      </trkpt>
      <trkpt lat="48.09432" lon="3.30824">
        <ele>79.6</ele>
        <time>2024-03-30T15:38:47.000Z</time>
      </trkpt>
      <trkpt lat="48.09433" lon="3.30819">
        <ele>79.6</ele>
        <time>2024-03-30T15:38:48.000Z</time>
      </trkpt>
      <trkpt lat="48.09433" lon="3.30814">
        <ele>79.6</ele>
        <time>2024-03-30T15:38:49.000Z</time>
      </trkpt>
      <trkpt lat="48.09434" lon="3.30808">
        <ele>79.6</ele>
        <time>2024-03-30T15:38:50.000Z</time>
      </trkpt>
      <trkpt lat="48.09434" lon="3.30802">
        <ele>79.6</ele>
        <time>2024-03-30T15:38:51.000Z</time>
      </trkpt>
      <trkpt lat="48.09435" lon="3.30795">
        <ele>79.7</ele>
        <time>2024-03-30T15:38:52.000Z</time>
      </trkpt>
      <trkpt lat="48.09436" lon="3.30771">
        <ele>79.7</ele>
        <time>2024-03-30T15:38:56.000Z</time>
      </trkpt>
      <trkpt lat="48.09437" lon="3.30742">
        <ele>79.7</ele>
        <time>2024-03-30T15:39:01.000Z</time>
      </trkpt>
      <trkpt lat="48.09438" lon="3.3073">
        <ele>79.8</ele>
        <time>2024-03-30T15:39:03.000Z</time>
      </trkpt>
      <trkpt lat="48.09438" lon="3.30725">
        <ele>79.8</ele>
        <time>2024-03-30T15:39:04.000Z</time>
      </trkpt>
      <trkpt lat="48.09438" lon="3.30719">
        <ele>79.8</ele>
        <time>2024-03-30T15:39:05.000Z</time>
      </trkpt>
      <trkpt lat="48.09438" lon="3.30714">
        <ele>79.8</ele>
        <time>2024-03-30T15:39:06.000Z</time>
      </trkpt>
      <trkpt lat="48.09439" lon="3.30708">
        <ele>79.8</ele>
        <time>2024-03-30T15:39:07.000Z</time>
      </trkpt>
      <trkpt lat="48.09439" lon="3.30704">
        <ele>79.8</ele>
        <time>2024-03-30T15:39:08.000Z</time>
      </trkpt>
      <trkpt lat="48.09439" lon="3.30697">
        <ele>79.8</ele>
        <time>2024-03-30T15:39:09.000Z</time>
      </trkpt>
      <trkpt lat="48.09441" lon="3.30649">
        <ele>79.9</ele>
        <time>2024-03-30T15:39:16.000Z</time>
      </trkpt>
      <trkpt lat="48.09441" lon="3.30642">
        <ele>79.9</ele>
        <time>2024-03-30T15:39:17.000Z</time>
      </trkpt>
      <trkpt lat="48.09442" lon="3.30636">
        <ele>79.9</ele>
        <time>2024-03-30T15:39:18.000Z</time>
      </trkpt>
      <trkpt lat="48.09443" lon="3.30617">
        <ele>79.9</ele>
        <time>2024-03-30T15:39:21.000Z</time>
      </trkpt>
      <trkpt lat="48.09443" lon="3.30606">
        <ele>79.9</ele>
        <time>2024-03-30T15:39:23.000Z</time>
      </trkpt>
      <trkpt lat="48.09444" lon="3.306">
        <ele>80</ele>
        <time>2024-03-30T15:39:24.000Z</time>
      </trkpt>
      <trkpt lat="48.09445" lon="3.30595">
        <ele>80</ele>
        <time>2024-03-30T15:39:25.000Z</time>
      </trkpt>
      <trkpt lat="48.09445" lon="3.3059">
        <ele>80</ele>
        <time>2024-03-30T15:39:26.000Z</time>
      </trkpt>
      <trkpt lat="48.09445" lon="3.30586">
        <ele>80</ele>
        <time>2024-03-30T15:39:27.000Z</time>
      </trkpt>
      <trkpt lat="48.09446" lon="3.30582">
        <ele>80.1</ele>
        <time>2024-03-30T15:39:28.000Z</time>
      </trkpt>
      <trkpt lat="48.09446" lon="3.30578">
        <ele>80.1</ele>
        <time>2024-03-30T15:39:29.000Z</time>
      </trkpt>
      <trkpt lat="48.09447" lon="3.30576">
        <ele>80.1</ele>
        <time>2024-03-30T15:39:30.000Z</time>
      </trkpt>
      <trkpt lat="48.09448" lon="3.30574">
        <ele>80.1</ele>
        <time>2024-03-30T15:39:31.000Z</time>
      </trkpt>
      <trkpt lat="48.09448" lon="3.30573">
        <ele>80.1</ele>
        <time>2024-03-30T15:39:32.000Z</time>
      </trkpt>
      <trkpt lat="48.09448" lon="3.30572">
        <ele>80.1</ele>
        <time>2024-03-30T15:39:33.000Z</time>
      </trkpt>
      <trkpt lat="48.09448" lon="3.30572">
        <ele>80.1</ele>
        <time>2024-03-30T15:39:36.000Z</time>
      </trkpt>
      <trkpt lat="48.09451" lon="3.30572">
        <ele>80.2</ele>
        <time>2024-03-30T15:39:46.000Z</time>
      </trkpt>
      <trkpt lat="48.09454" lon="3.30572">
        <ele>80.3</ele>
        <time>2024-03-30T15:39:48.000Z</time>
      </trkpt>
      <trkpt lat="48.09467" lon="3.30572">
        <ele>80.8</ele>
        <time>2024-03-30T15:39:54.000Z</time>
      </trkpt>
      <trkpt lat="48.09469" lon="3.30571">
        <ele>80.9</ele>
        <time>2024-03-30T15:39:55.000Z</time>
      </trkpt>
      <trkpt lat="48.09482" lon="3.3057">
        <ele>81.7</ele>
        <time>2024-03-30T15:40:01.000Z</time>
      </trkpt>
      <trkpt lat="48.09484" lon="3.3057">
        <ele>81.8</ele>
        <time>2024-03-30T15:40:02.000Z</time>
      </trkpt>
      <trkpt lat="48.09486" lon="3.3057">
        <ele>82</ele>
        <time>2024-03-30T15:40:03.000Z</time>
      </trkpt>
      <trkpt lat="48.09488" lon="3.30569">
        <ele>82.1</ele>
        <time>2024-03-30T15:40:04.000Z</time>
      </trkpt>
      <trkpt lat="48.09489" lon="3.30569">
        <ele>82.2</ele>
        <time>2024-03-30T15:40:05.000Z</time>
      </trkpt>
      <trkpt lat="48.09491" lon="3.30569">
        <ele>82.4</ele>
        <time>2024-03-30T15:40:06.000Z</time>
      </trkpt>
      <trkpt lat="48.09493" lon="3.30569">
        <ele>82.5</ele>
        <time>2024-03-30T15:40:07.000Z</time>
      </trkpt>
      <trkpt lat="48.09495" lon="3.30569">
        <ele>82.6</ele>
        <time>2024-03-30T15:40:08.000Z</time>
      </trkpt>
      <trkpt lat="48.09497" lon="3.30568">
        <ele>82.8</ele>
        <time>2024-03-30T15:40:09.000Z</time>
      </trkpt>
      <trkpt lat="48.09499" lon="3.30569">
        <ele>82.9</ele>
        <time>2024-03-30T15:40:10.000Z</time>
      </trkpt>
      <trkpt lat="48.09505" lon="3.30568">
        <ele>83.4</ele>
        <time>2024-03-30T15:40:13.000Z</time>
      </trkpt>
      <trkpt lat="48.09507" lon="3.30568">
        <ele>83.5</ele>
        <time>2024-03-30T15:40:14.000Z</time>
      </trkpt>
      <trkpt lat="48.09509" lon="3.30568">
        <ele>83.6</ele>
        <time>2024-03-30T15:40:15.000Z</time>
      </trkpt>
      <trkpt lat="48.09511" lon="3.30568">
        <ele>83.8</ele>
        <time>2024-03-30T15:40:16.000Z</time>
      </trkpt>
      <trkpt lat="48.09512" lon="3.30568">
        <ele>83.9</ele>
        <time>2024-03-30T15:40:17.000Z</time>
      </trkpt>
      <trkpt lat="48.0952" lon="3.30569">
        <ele>84.4</ele>
        <time>2024-03-30T15:40:20.000Z</time>
      </trkpt>
      <trkpt lat="48.09527" lon="3.30569">
        <ele>84.9</ele>
        <time>2024-03-30T15:40:24.000Z</time>
      </trkpt>
      <trkpt lat="48.09531" lon="3.30569">
        <ele>85.2</ele>
        <time>2024-03-30T15:40:26.000Z</time>
      </trkpt>
      <trkpt lat="48.09534" lon="3.30569">
        <ele>85.4</ele>
        <time>2024-03-30T15:40:28.000Z</time>
      </trkpt>
      <trkpt lat="48.09536" lon="3.30569">
        <ele>85.6</ele>
        <time>2024-03-30T15:40:29.000Z</time>
      </trkpt>
      <trkpt lat="48.09538" lon="3.30569">
        <ele>85.7</ele>
        <time>2024-03-30T15:40:30.000Z</time>
      </trkpt>
      <trkpt lat="48.0954" lon="3.30569">
        <ele>85.9</ele>
        <time>2024-03-30T15:40:31.000Z</time>
      </trkpt>
      <trkpt lat="48.09541" lon="3.30568">
        <ele>86</ele>
        <time>2024-03-30T15:40:32.000Z</time>
      </trkpt>
      <trkpt lat="48.09543" lon="3.30569">
        <ele>86.1</ele>
        <time>2024-03-30T15:40:33.000Z</time>
      </trkpt>
      <trkpt lat="48.09544" lon="3.30569">
        <ele>86.2</ele>
        <time>2024-03-30T15:40:34.000Z</time>
      </trkpt>
      <trkpt lat="48.09546" lon="3.30569">
        <ele>86.3</ele>
        <time>2024-03-30T15:40:35.000Z</time>
      </trkpt>
      <trkpt lat="48.09548" lon="3.30569">
        <ele>86.5</ele>
        <time>2024-03-30T15:40:36.000Z</time>
      </trkpt>
      <trkpt lat="48.09549" lon="3.30569">
        <ele>86.5</ele>
        <time>2024-03-30T15:40:37.000Z</time>
      </trkpt>
      <trkpt lat="48.09551" lon="3.30569">
        <ele>86.7</ele>
        <time>2024-03-30T15:40:38.000Z</time>
      </trkpt>
      <trkpt lat="48.09553" lon="3.30568">
        <ele>86.8</ele>
        <time>2024-03-30T15:40:39.000Z</time>
      </trkpt>
      <trkpt lat="48.09555" lon="3.30569">
        <ele>87</ele>
        <time>2024-03-30T15:40:40.000Z</time>
      </trkpt>
      <trkpt lat="48.09557" lon="3.30569">
        <ele>87.1</ele>
        <time>2024-03-30T15:40:41.000Z</time>
      </trkpt>
      <trkpt lat="48.09558" lon="3.30568">
        <ele>87.2</ele>
        <time>2024-03-30T15:40:42.000Z</time>
      </trkpt>
      <trkpt lat="48.0956" lon="3.30568">
        <ele>87.4</ele>
        <time>2024-03-30T15:40:43.000Z</time>
      </trkpt>
      <trkpt lat="48.09562" lon="3.30568">
        <ele>87.6</ele>
        <time>2024-03-30T15:40:44.000Z</time>
      </trkpt>
      <trkpt lat="48.09563" lon="3.30568">
        <ele>87.7</ele>
        <time>2024-03-30T15:40:45.000Z</time>
      </trkpt>
      <trkpt lat="48.09565" lon="3.30568">
        <ele>87.8</ele>
        <time>2024-03-30T15:40:46.000Z</time>
      </trkpt>
      <trkpt lat="48.09566" lon="3.30568">
        <ele>87.9</ele>
        <time>2024-03-30T15:40:47.000Z</time>
      </trkpt>
      <trkpt lat="48.09568" lon="3.30568">
        <ele>88.1</ele>
        <time>2024-03-30T15:40:48.000Z</time>
      </trkpt>
      <trkpt lat="48.0957" lon="3.30568">
        <ele>88.3</ele>
        <time>2024-03-30T15:40:49.000Z</time>
      </trkpt>
      <trkpt lat="48.09571" lon="3.30568">
        <ele>88.4</ele>
        <time>2024-03-30T15:40:50.000Z</time>
      </trkpt>
      <trkpt lat="48.09573" lon="3.30568">
        <ele>88.5</ele>
        <time>2024-03-30T15:40:51.000Z</time>
      </trkpt>
      <trkpt lat="48.09574" lon="3.30568">
        <ele>88.6</ele>
        <time>2024-03-30T15:40:52.000Z</time>
      </trkpt>
      <trkpt lat="48.09575" lon="3.30568">
        <ele>88.7</ele>
        <time>2024-03-30T15:40:53.000Z</time>
      </trkpt>
      <trkpt lat="48.09577" lon="3.30568">
        <ele>88.9</ele>
        <time>2024-03-30T15:40:54.000Z</time>
      </trkpt>
      <trkpt lat="48.09578" lon="3.30568">
        <ele>89</ele>
        <time>2024-03-30T15:40:55.000Z</time>
      </trkpt>
      <trkpt lat="48.0958" lon="3.30568">
        <ele>89.2</ele>
        <time>2024-03-30T15:40:56.000Z</time>
      </trkpt>
      <trkpt lat="48.09582" lon="3.30568">
        <ele>89.3</ele>
        <time>2024-03-30T15:40:57.000Z</time>
      </trkpt>
      <trkpt lat="48.09583" lon="3.30568">
        <ele>89.4</ele>
        <time>2024-03-30T15:40:58.000Z</time>
      </trkpt>
      <trkpt lat="48.09585" lon="3.30568">
        <ele>89.6</ele>
        <time>2024-03-30T15:40:59.000Z</time>
      </trkpt>
      <trkpt lat="48.09586" lon="3.30568">
        <ele>89.7</ele>
        <time>2024-03-30T15:41:00.000Z</time>
      </trkpt>
      <trkpt lat="48.09588" lon="3.30569">
        <ele>90</ele>
        <time>2024-03-30T15:41:01.000Z</time>
      </trkpt>
      <trkpt lat="48.0959" lon="3.30569">
        <ele>90.2</ele>
        <time>2024-03-30T15:41:02.000Z</time>
      </trkpt>
      <trkpt lat="48.09591" lon="3.30569">
        <ele>90.3</ele>
        <time>2024-03-30T15:41:03.000Z</time>
      </trkpt>
      <trkpt lat="48.09593" lon="3.30569">
        <ele>90.5</ele>
        <time>2024-03-30T15:41:04.000Z</time>
      </trkpt>
      <trkpt lat="48.09594" lon="3.30569">
        <ele>90.6</ele>
        <time>2024-03-30T15:41:05.000Z</time>
      </trkpt>
      <trkpt lat="48.09595" lon="3.30569">
        <ele>90.7</ele>
        <time>2024-03-30T15:41:06.000Z</time>
      </trkpt>
      <trkpt lat="48.09597" lon="3.30569">
        <ele>91</ele>
        <time>2024-03-30T15:41:07.000Z</time>
      </trkpt>
      <trkpt lat="48.09598" lon="3.30569">
        <ele>91.1</ele>
        <time>2024-03-30T15:41:08.000Z</time>
      </trkpt>
      <trkpt lat="48.096" lon="3.30569">
        <ele>91.3</ele>
        <time>2024-03-30T15:41:09.000Z</time>
      </trkpt>
      <trkpt lat="48.09601" lon="3.30569">
        <ele>91.4</ele>
        <time>2024-03-30T15:41:10.000Z</time>
      </trkpt>
      <trkpt lat="48.09603" lon="3.30569">
        <ele>91.6</ele>
        <time>2024-03-30T15:41:11.000Z</time>
      </trkpt>
      <trkpt lat="48.09604" lon="3.30569">
        <ele>91.7</ele>
        <time>2024-03-30T15:41:12.000Z</time>
      </trkpt>
      <trkpt lat="48.09605" lon="3.30569">
        <ele>91.8</ele>
        <time>2024-03-30T15:41:13.000Z</time>
      </trkpt>
      <trkpt lat="48.09607" lon="3.30569">
        <ele>92</ele>
        <time>2024-03-30T15:41:14.000Z</time>
      </trkpt>
      <trkpt lat="48.09608" lon="3.30569">
        <ele>92.1</ele>
        <time>2024-03-30T15:41:15.000Z</time>
      </trkpt>
      <trkpt lat="48.0961" lon="3.30569">
        <ele>92.4</ele>
        <time>2024-03-30T15:41:16.000Z</time>
      </trkpt>
      <trkpt lat="48.09611" lon="3.30569">
        <ele>92.5</ele>
        <time>2024-03-30T15:41:17.000Z</time>
      </trkpt>
      <trkpt lat="48.09613" lon="3.30569">
        <ele>92.7</ele>
        <time>2024-03-30T15:41:18.000Z</time>
      </trkpt>
      <trkpt lat="48.09614" lon="3.30569">
        <ele>92.8</ele>
        <time>2024-03-30T15:41:19.000Z</time>
      </trkpt>
      <trkpt lat="48.09615" lon="3.30569">
        <ele>93</ele>
        <time>2024-03-30T15:41:20.000Z</time>
      </trkpt>
      <trkpt lat="48.09617" lon="3.30569">
        <ele>93.2</ele>
        <time>2024-03-30T15:41:21.000Z</time>
      </trkpt>
      <trkpt lat="48.09618" lon="3.30569">
        <ele>93.3</ele>
        <time>2024-03-30T15:41:22.000Z</time>
      </trkpt>
      <trkpt lat="48.0962" lon="3.30569">
        <ele>93.6</ele>
        <time>2024-03-30T15:41:23.000Z</time>
      </trkpt>
      <trkpt lat="48.09621" lon="3.30569">
        <ele>93.7</ele>
        <time>2024-03-30T15:41:24.000Z</time>
      </trkpt>
      <trkpt lat="48.09622" lon="3.30569">
        <ele>93.8</ele>
        <time>2024-03-30T15:41:25.000Z</time>
      </trkpt>
      <trkpt lat="48.09624" lon="3.30569">
        <ele>94.1</ele>
        <time>2024-03-30T15:41:26.000Z</time>
      </trkpt>
      <trkpt lat="48.09626" lon="3.30569">
        <ele>94.4</ele>
        <time>2024-03-30T15:41:27.000Z</time>
      </trkpt>
      <trkpt lat="48.09627" lon="3.30568">
        <ele>94.4</ele>
        <time>2024-03-30T15:41:28.000Z</time>
      </trkpt>
      <trkpt lat="48.09628" lon="3.30568">
        <ele>94.5</ele>
        <time>2024-03-30T15:41:29.000Z</time>
      </trkpt>
      <trkpt lat="48.0963" lon="3.30568">
        <ele>94.8</ele>
        <time>2024-03-30T15:41:30.000Z</time>
      </trkpt>
      <trkpt lat="48.09631" lon="3.30568">
        <ele>94.9</ele>
        <time>2024-03-30T15:41:31.000Z</time>
      </trkpt>
      <trkpt lat="48.09632" lon="3.30568">
        <ele>95</ele>
        <time>2024-03-30T15:41:32.000Z</time>
      </trkpt>
      <trkpt lat="48.09634" lon="3.30568">
        <ele>95.3</ele>
        <time>2024-03-30T15:41:33.000Z</time>
      </trkpt>
      <trkpt lat="48.09635" lon="3.30568">
        <ele>95.4</ele>
        <time>2024-03-30T15:41:34.000Z</time>
      </trkpt>
      <trkpt lat="48.09636" lon="3.30568">
        <ele>95.5</ele>
        <time>2024-03-30T15:41:35.000Z</time>
      </trkpt>
      <trkpt lat="48.09637" lon="3.30568">
        <ele>95.7</ele>
        <time>2024-03-30T15:41:36.000Z</time>
      </trkpt>
      <trkpt lat="48.09638" lon="3.30568">
        <ele>95.8</ele>
        <time>2024-03-30T15:41:37.000Z</time>
      </trkpt>
      <trkpt lat="48.09639" lon="3.30568">
        <ele>95.9</ele>
        <time>2024-03-30T15:41:38.000Z</time>
      </trkpt>
      <trkpt lat="48.0964" lon="3.30567">
        <ele>95.9</ele>
        <time>2024-03-30T15:41:39.000Z</time>
      </trkpt>
      <trkpt lat="48.09642" lon="3.30567">
        <ele>96.2</ele>
        <time>2024-03-30T15:41:40.000Z</time>
      </trkpt>
      <trkpt lat="48.09643" lon="3.30567">
        <ele>96.3</ele>
        <time>2024-03-30T15:41:41.000Z</time>
      </trkpt>
      <trkpt lat="48.09644" lon="3.30567">
        <ele>96.4</ele>
        <time>2024-03-30T15:41:42.000Z</time>
      </trkpt>
      <trkpt lat="48.09646" lon="3.30566">
        <ele>96.5</ele>
        <time>2024-03-30T15:41:43.000Z</time>
      </trkpt>
      <trkpt lat="48.09647" lon="3.30567">
        <ele>96.7</ele>
        <time>2024-03-30T15:41:44.000Z</time>
      </trkpt>
      <trkpt lat="48.09648" lon="3.30567">
        <ele>96.8</ele>
        <time>2024-03-30T15:41:45.000Z</time>
      </trkpt>
      <trkpt lat="48.0965" lon="3.30567">
        <ele>97</ele>
        <time>2024-03-30T15:41:46.000Z</time>
      </trkpt>
      <trkpt lat="48.09651" lon="3.30567">
        <ele>97.1</ele>
        <time>2024-03-30T15:41:47.000Z</time>
      </trkpt>
      <trkpt lat="48.09652" lon="3.30566">
        <ele>97.2</ele>
        <time>2024-03-30T15:41:48.000Z</time>
      </trkpt>
      <trkpt lat="48.09654" lon="3.30566">
        <ele>97.4</ele>
        <time>2024-03-30T15:41:49.000Z</time>
      </trkpt>
      <trkpt lat="48.09655" lon="3.30566">
        <ele>97.5</ele>
        <time>2024-03-30T15:41:50.000Z</time>
      </trkpt>
      <trkpt lat="48.09657" lon="3.30566">
        <ele>97.7</ele>
        <time>2024-03-30T15:41:51.000Z</time>
      </trkpt>
      <trkpt lat="48.09658" lon="3.30566">
        <ele>97.8</ele>
        <time>2024-03-30T15:41:52.000Z</time>
      </trkpt>
      <trkpt lat="48.0966" lon="3.30566">
        <ele>98</ele>
        <time>2024-03-30T15:41:53.000Z</time>
      </trkpt>
      <trkpt lat="48.09661" lon="3.30566">
        <ele>98.1</ele>
        <time>2024-03-30T15:41:54.000Z</time>
      </trkpt>
      <trkpt lat="48.09663" lon="3.30566">
        <ele>98.4</ele>
        <time>2024-03-30T15:41:55.000Z</time>
      </trkpt>
      <trkpt lat="48.09664" lon="3.30566">
        <ele>98.5</ele>
        <time>2024-03-30T15:41:56.000Z</time>
      </trkpt>
      <trkpt lat="48.09665" lon="3.30566">
        <ele>98.6</ele>
        <time>2024-03-30T15:41:57.000Z</time>
      </trkpt>
      <trkpt lat="48.09667" lon="3.30566">
        <ele>98.8</ele>
        <time>2024-03-30T15:41:58.000Z</time>
      </trkpt>
      <trkpt lat="48.09668" lon="3.30566">
        <ele>98.9</ele>
        <time>2024-03-30T15:41:59.000Z</time>
      </trkpt>
      <trkpt lat="48.09669" lon="3.30566">
        <ele>99.1</ele>
        <time>2024-03-30T15:42:00.000Z</time>
      </trkpt>
      <trkpt lat="48.09671" lon="3.30566">
        <ele>99.3</ele>
        <time>2024-03-30T15:42:01.000Z</time>
      </trkpt>
      <trkpt lat="48.09672" lon="3.30566">
        <ele>99.4</ele>
        <time>2024-03-30T15:42:02.000Z</time>
      </trkpt>
      <trkpt lat="48.09674" lon="3.30566">
        <ele>99.7</ele>
        <time>2024-03-30T15:42:03.000Z</time>
      </trkpt>
      <trkpt lat="48.09675" lon="3.30566">
        <ele>99.8</ele>
        <time>2024-03-30T15:42:04.000Z</time>
      </trkpt>
      <trkpt lat="48.09677" lon="3.30566">
        <ele>100.1</ele>
        <time>2024-03-30T15:42:05.000Z</time>
      </trkpt>
      <trkpt lat="48.09678" lon="3.30565">
        <ele>100.2</ele>
        <time>2024-03-30T15:42:06.000Z</time>
      </trkpt>
      <trkpt lat="48.09679" lon="3.30565">
        <ele>100.3</ele>
        <time>2024-03-30T15:42:07.000Z</time>
      </trkpt>
      <trkpt lat="48.09681" lon="3.30565">
        <ele>100.6</ele>
        <time>2024-03-30T15:42:08.000Z</time>
      </trkpt>
      <trkpt lat="48.09683" lon="3.30566">
        <ele>100.9</ele>
        <time>2024-03-30T15:42:09.000Z</time>
      </trkpt>
      <trkpt lat="48.09684" lon="3.30566">
        <ele>101</ele>
        <time>2024-03-30T15:42:10.000Z</time>
      </trkpt>
      <trkpt lat="48.09685" lon="3.30566">
        <ele>101.1</ele>
        <time>2024-03-30T15:42:11.000Z</time>
      </trkpt>
      <trkpt lat="48.09686" lon="3.30566">
        <ele>101.3</ele>
        <time>2024-03-30T15:42:12.000Z</time>
      </trkpt>
      <trkpt lat="48.09688" lon="3.30566">
        <ele>101.5</ele>
        <time>2024-03-30T15:42:13.000Z</time>
      </trkpt>
      <trkpt lat="48.09689" lon="3.30566">
        <ele>101.7</ele>
        <time>2024-03-30T15:42:14.000Z</time>
      </trkpt>
      <trkpt lat="48.09691" lon="3.30566">
        <ele>101.9</ele>
        <time>2024-03-30T15:42:15.000Z</time>
      </trkpt>
      <trkpt lat="48.09692" lon="3.30566">
        <ele>102.1</ele>
        <time>2024-03-30T15:42:16.000Z</time>
      </trkpt>
      <trkpt lat="48.09693" lon="3.30566">
        <ele>102.2</ele>
        <time>2024-03-30T15:42:17.000Z</time>
      </trkpt>
      <trkpt lat="48.09695" lon="3.30566">
        <ele>102.4</ele>
        <time>2024-03-30T15:42:18.000Z</time>
      </trkpt>
      <trkpt lat="48.09696" lon="3.30566">
        <ele>102.5</ele>
        <time>2024-03-30T15:42:19.000Z</time>
      </trkpt>
      <trkpt lat="48.09698" lon="3.30566">
        <ele>102.8</ele>
        <time>2024-03-30T15:42:20.000Z</time>
      </trkpt>
      <trkpt lat="48.09699" lon="3.30566">
        <ele>102.9</ele>
        <time>2024-03-30T15:42:21.000Z</time>
      </trkpt>
      <trkpt lat="48.097" lon="3.30566">
        <ele>103</ele>
        <time>2024-03-30T15:42:22.000Z</time>
      </trkpt>
      <trkpt lat="48.09702" lon="3.30567">
        <ele>103.2</ele>
        <time>2024-03-30T15:42:23.000Z</time>
      </trkpt>
      <trkpt lat="48.09703" lon="3.30567">
        <ele>103.3</ele>
        <time>2024-03-30T15:42:24.000Z</time>
      </trkpt>
      <trkpt lat="48.09704" lon="3.30567">
        <ele>103.4</ele>
        <time>2024-03-30T15:42:25.000Z</time>
      </trkpt>
      <trkpt lat="48.09706" lon="3.30567">
        <ele>103.7</ele>
        <time>2024-03-30T15:42:26.000Z</time>
      </trkpt>
      <trkpt lat="48.09707" lon="3.30567">
        <ele>103.8</ele>
        <time>2024-03-30T15:42:27.000Z</time>
      </trkpt>
      <trkpt lat="48.09709" lon="3.30567">
        <ele>104</ele>
        <time>2024-03-30T15:42:28.000Z</time>
      </trkpt>
      <trkpt lat="48.0971" lon="3.30567">
        <ele>104.1</ele>
        <time>2024-03-30T15:42:29.000Z</time>
      </trkpt>
      <trkpt lat="48.09711" lon="3.30567">
        <ele>104.2</ele>
        <time>2024-03-30T15:42:30.000Z</time>
      </trkpt>
      <trkpt lat="48.09713" lon="3.30566">
        <ele>104.4</ele>
        <time>2024-03-30T15:42:31.000Z</time>
      </trkpt>
      <trkpt lat="48.09714" lon="3.30567">
        <ele>104.5</ele>
        <time>2024-03-30T15:42:32.000Z</time>
      </trkpt>
      <trkpt lat="48.09715" lon="3.30567">
        <ele>104.6</ele>
        <time>2024-03-30T15:42:33.000Z</time>
      </trkpt>
      <trkpt lat="48.09716" lon="3.30567">
        <ele>104.7</ele>
        <time>2024-03-30T15:42:34.000Z</time>
      </trkpt>
      <trkpt lat="48.09717" lon="3.30567">
        <ele>104.8</ele>
        <time>2024-03-30T15:42:35.000Z</time>
      </trkpt>
      <trkpt lat="48.09717" lon="3.30567">
        <ele>104.8</ele>
        <time>2024-03-30T15:42:38.000Z</time>
      </trkpt>
      <trkpt lat="48.09717" lon="3.30567">
        <ele>104.8</ele>
        <time>2024-03-30T15:42:39.000Z</time>
      </trkpt>
      <trkpt lat="48.09718" lon="3.30567">
        <ele>105</ele>
        <time>2024-03-30T15:42:40.000Z</time>
      </trkpt>
      <trkpt lat="48.09719" lon="3.30567">
        <ele>105.1</ele>
        <time>2024-03-30T15:42:41.000Z</time>
      </trkpt>
      <trkpt lat="48.09721" lon="3.30566">
        <ele>105.2</ele>
        <time>2024-03-30T15:42:42.000Z</time>
      </trkpt>
      <trkpt lat="48.09722" lon="3.30566">
        <ele>105.4</ele>
        <time>2024-03-30T15:42:43.000Z</time>
      </trkpt>
      <trkpt lat="48.09723" lon="3.30566">
        <ele>105.5</ele>
        <time>2024-03-30T15:42:44.000Z</time>
      </trkpt>
      <trkpt lat="48.09725" lon="3.30566">
        <ele>105.7</ele>
        <time>2024-03-30T15:42:45.000Z</time>
      </trkpt>
      <trkpt lat="48.09726" lon="3.30566">
        <ele>105.9</ele>
        <time>2024-03-30T15:42:46.000Z</time>
      </trkpt>
      <trkpt lat="48.09727" lon="3.30567">
        <ele>106</ele>
        <time>2024-03-30T15:42:47.000Z</time>
      </trkpt>
      <trkpt lat="48.09729" lon="3.30567">
        <ele>106.3</ele>
        <time>2024-03-30T15:42:48.000Z</time>
      </trkpt>
      <trkpt lat="48.09729" lon="3.30567">
        <ele>106.3</ele>
        <time>2024-03-30T15:42:49.000Z</time>
      </trkpt>
      <trkpt lat="48.0973" lon="3.30568">
        <ele>106.4</ele>
        <time>2024-03-30T15:42:50.000Z</time>
      </trkpt>
      <trkpt lat="48.09731" lon="3.30568">
        <ele>106.6</ele>
        <time>2024-03-30T15:42:51.000Z</time>
      </trkpt>
      <trkpt lat="48.09733" lon="3.30568">
        <ele>106.8</ele>
        <time>2024-03-30T15:42:52.000Z</time>
      </trkpt>
      <trkpt lat="48.09734" lon="3.30568">
        <ele>107</ele>
        <time>2024-03-30T15:42:53.000Z</time>
      </trkpt>
      <trkpt lat="48.09735" lon="3.30568">
        <ele>107.1</ele>
        <time>2024-03-30T15:42:54.000Z</time>
      </trkpt>
      <trkpt lat="48.09736" lon="3.30568">
        <ele>107.2</ele>
        <time>2024-03-30T15:42:55.000Z</time>
      </trkpt>
      <trkpt lat="48.09738" lon="3.30568">
        <ele>107.5</ele>
        <time>2024-03-30T15:42:56.000Z</time>
      </trkpt>
      <trkpt lat="48.09739" lon="3.30568">
        <ele>107.6</ele>
        <time>2024-03-30T15:42:57.000Z</time>
      </trkpt>
      <trkpt lat="48.0974" lon="3.30568">
        <ele>107.7</ele>
        <time>2024-03-30T15:42:58.000Z</time>
      </trkpt>
      <trkpt lat="48.09741" lon="3.30568">
        <ele>107.8</ele>
        <time>2024-03-30T15:42:59.000Z</time>
      </trkpt>
      <trkpt lat="48.09742" lon="3.30569">
        <ele>108</ele>
        <time>2024-03-30T15:43:00.000Z</time>
      </trkpt>
      <trkpt lat="48.09744" lon="3.30569">
        <ele>108.2</ele>
        <time>2024-03-30T15:43:01.000Z</time>
      </trkpt>
      <trkpt lat="48.09745" lon="3.30569">
        <ele>108.4</ele>
        <time>2024-03-30T15:43:02.000Z</time>
      </trkpt>
      <trkpt lat="48.09746" lon="3.3057">
        <ele>108.5</ele>
        <time>2024-03-30T15:43:03.000Z</time>
      </trkpt>
      <trkpt lat="48.09747" lon="3.3057">
        <ele>108.6</ele>
        <time>2024-03-30T15:43:04.000Z</time>
      </trkpt>
      <trkpt lat="48.09748" lon="3.30571">
        <ele>108.8</ele>
        <time>2024-03-30T15:43:05.000Z</time>
      </trkpt>
      <trkpt lat="48.09749" lon="3.30571">
        <ele>108.9</ele>
        <time>2024-03-30T15:43:06.000Z</time>
      </trkpt>
      <trkpt lat="48.0975" lon="3.30572">
        <ele>109</ele>
        <time>2024-03-30T15:43:07.000Z</time>
      </trkpt>
      <trkpt lat="48.0975" lon="3.30572">
        <ele>109</ele>
        <time>2024-03-30T15:43:08.000Z</time>
      </trkpt>
      <trkpt lat="48.09751" lon="3.30573">
        <ele>109.1</ele>
        <time>2024-03-30T15:43:09.000Z</time>
      </trkpt>
      <trkpt lat="48.09752" lon="3.30574">
        <ele>109.2</ele>
        <time>2024-03-30T15:43:10.000Z</time>
      </trkpt>
      <trkpt lat="48.09753" lon="3.30575">
        <ele>109.3</ele>
        <time>2024-03-30T15:43:11.000Z</time>
      </trkpt>
      <trkpt lat="48.09754" lon="3.30575">
        <ele>109.4</ele>
        <time>2024-03-30T15:43:12.000Z</time>
      </trkpt>
      <trkpt lat="48.09754" lon="3.30576">
        <ele>109.4</ele>
        <time>2024-03-30T15:43:13.000Z</time>
      </trkpt>
      <trkpt lat="48.09755" lon="3.30577">
        <ele>109.5</ele>
        <time>2024-03-30T15:43:14.000Z</time>
      </trkpt>
      <trkpt lat="48.09756" lon="3.30578">
        <ele>109.6</ele>
        <time>2024-03-30T15:43:15.000Z</time>
      </trkpt>
      <trkpt lat="48.09757" lon="3.30578">
        <ele>109.8</ele>
        <time>2024-03-30T15:43:16.000Z</time>
      </trkpt>
      <trkpt lat="48.09758" lon="3.30579">
        <ele>109.9</ele>
        <time>2024-03-30T15:43:17.000Z</time>
      </trkpt>
      <trkpt lat="48.0976" lon="3.30579">
        <ele>110.1</ele>
        <time>2024-03-30T15:43:18.000Z</time>
      </trkpt>
      <trkpt lat="48.09761" lon="3.3058">
        <ele>110.2</ele>
        <time>2024-03-30T15:43:19.000Z</time>
      </trkpt>
      <trkpt lat="48.09762" lon="3.3058">
        <ele>110.3</ele>
        <time>2024-03-30T15:43:20.000Z</time>
      </trkpt>
      <trkpt lat="48.09763" lon="3.30581">
        <ele>110.4</ele>
        <time>2024-03-30T15:43:21.000Z</time>
      </trkpt>
      <trkpt lat="48.09764" lon="3.30582">
        <ele>110.5</ele>
        <time>2024-03-30T15:43:22.000Z</time>
      </trkpt>
      <trkpt lat="48.09765" lon="3.30582">
        <ele>110.6</ele>
        <time>2024-03-30T15:43:23.000Z</time>
      </trkpt>
      <trkpt lat="48.09766" lon="3.30582">
        <ele>110.7</ele>
        <time>2024-03-30T15:43:24.000Z</time>
      </trkpt>
      <trkpt lat="48.09767" lon="3.30582">
        <ele>110.8</ele>
        <time>2024-03-30T15:43:25.000Z</time>
      </trkpt>
      <trkpt lat="48.09767" lon="3.30582">
        <ele>110.8</ele>
        <time>2024-03-30T15:43:26.000Z</time>
      </trkpt>
      <trkpt lat="48.09769" lon="3.30583">
        <ele>111.1</ele>
        <time>2024-03-30T15:43:27.000Z</time>
      </trkpt>
      <trkpt lat="48.0977" lon="3.30583">
        <ele>111.2</ele>
        <time>2024-03-30T15:43:28.000Z</time>
      </trkpt>
      <trkpt lat="48.09772" lon="3.30584">
        <ele>111.4</ele>
        <time>2024-03-30T15:43:29.000Z</time>
      </trkpt>
      <trkpt lat="48.09773" lon="3.30584">
        <ele>111.5</ele>
        <time>2024-03-30T15:43:30.000Z</time>
      </trkpt>
      <trkpt lat="48.09775" lon="3.30584">
        <ele>111.7</ele>
        <time>2024-03-30T15:43:31.000Z</time>
      </trkpt>
      <trkpt lat="48.09776" lon="3.30584">
        <ele>111.8</ele>
        <time>2024-03-30T15:43:32.000Z</time>
      </trkpt>
      <trkpt lat="48.09777" lon="3.30585">
        <ele>111.9</ele>
        <time>2024-03-30T15:43:33.000Z</time>
      </trkpt>
      <trkpt lat="48.09778" lon="3.30586">
        <ele>112</ele>
        <time>2024-03-30T15:43:34.000Z</time>
      </trkpt>
      <trkpt lat="48.09779" lon="3.30587">
        <ele>112.2</ele>
        <time>2024-03-30T15:43:35.000Z</time>
      </trkpt>
      <trkpt lat="48.0978" lon="3.30588">
        <ele>112.3</ele>
        <time>2024-03-30T15:43:36.000Z</time>
      </trkpt>
      <trkpt lat="48.09781" lon="3.30588">
        <ele>112.5</ele>
        <time>2024-03-30T15:43:37.000Z</time>
      </trkpt>
      <trkpt lat="48.09782" lon="3.30588">
        <ele>112.6</ele>
        <time>2024-03-30T15:43:38.000Z</time>
      </trkpt>
      <trkpt lat="48.09783" lon="3.30589">
        <ele>112.8</ele>
        <time>2024-03-30T15:43:39.000Z</time>
      </trkpt>
      <trkpt lat="48.09784" lon="3.30589">
        <ele>112.9</ele>
        <time>2024-03-30T15:43:40.000Z</time>
      </trkpt>
      <trkpt lat="48.09785" lon="3.3059">
        <ele>113.1</ele>
        <time>2024-03-30T15:43:41.000Z</time>
      </trkpt>
      <trkpt lat="48.09786" lon="3.3059">
        <ele>113.3</ele>
        <time>2024-03-30T15:43:42.000Z</time>
      </trkpt>
      <trkpt lat="48.09787" lon="3.3059">
        <ele>113.4</ele>
        <time>2024-03-30T15:43:43.000Z</time>
      </trkpt>
      <trkpt lat="48.09789" lon="3.30592">
        <ele>113.7</ele>
        <time>2024-03-30T15:43:44.000Z</time>
      </trkpt>
      <trkpt lat="48.0979" lon="3.30592">
        <ele>113.9</ele>
        <time>2024-03-30T15:43:45.000Z</time>
      </trkpt>
      <trkpt lat="48.09791" lon="3.30592">
        <ele>114.1</ele>
        <time>2024-03-30T15:43:46.000Z</time>
      </trkpt>
      <trkpt lat="48.09791" lon="3.30593">
        <ele>114.1</ele>
        <time>2024-03-30T15:43:47.000Z</time>
      </trkpt>
      <trkpt lat="48.09793" lon="3.30593">
        <ele>114.4</ele>
        <time>2024-03-30T15:43:48.000Z</time>
      </trkpt>
      <trkpt lat="48.09794" lon="3.30594">
        <ele>114.6</ele>
        <time>2024-03-30T15:43:49.000Z</time>
      </trkpt>
      <trkpt lat="48.09795" lon="3.30595">
        <ele>114.7</ele>
        <time>2024-03-30T15:43:50.000Z</time>
      </trkpt>
      <trkpt lat="48.09796" lon="3.30595">
        <ele>114.9</ele>
        <time>2024-03-30T15:43:51.000Z</time>
      </trkpt>
      <trkpt lat="48.09797" lon="3.30595">
        <ele>115.1</ele>
        <time>2024-03-30T15:43:52.000Z</time>
      </trkpt>
      <trkpt lat="48.09798" lon="3.30595">
        <ele>115.2</ele>
        <time>2024-03-30T15:43:53.000Z</time>
      </trkpt>
      <trkpt lat="48.09799" lon="3.30595">
        <ele>115.4</ele>
        <time>2024-03-30T15:43:54.000Z</time>
      </trkpt>
      <trkpt lat="48.09801" lon="3.30596">
        <ele>115.7</ele>
        <time>2024-03-30T15:43:55.000Z</time>
      </trkpt>
      <trkpt lat="48.09801" lon="3.30596">
        <ele>115.7</ele>
        <time>2024-03-30T15:43:56.000Z</time>
      </trkpt>
      <trkpt lat="48.09801" lon="3.30596">
        <ele>115.7</ele>
        <time>2024-03-30T15:43:57.000Z</time>
      </trkpt>
      <trkpt lat="48.09803" lon="3.30596">
        <ele>116</ele>
        <time>2024-03-30T15:43:58.000Z</time>
      </trkpt>
      <trkpt lat="48.09804" lon="3.30595">
        <ele>116.2</ele>
        <time>2024-03-30T15:43:59.000Z</time>
      </trkpt>
      <trkpt lat="48.09805" lon="3.30595">
        <ele>116.3</ele>
        <time>2024-03-30T15:44:00.000Z</time>
      </trkpt>
      <trkpt lat="48.09806" lon="3.30595">
        <ele>116.5</ele>
        <time>2024-03-30T15:44:01.000Z</time>
      </trkpt>
      <trkpt lat="48.09807" lon="3.30595">
        <ele>116.7</ele>
        <time>2024-03-30T15:44:02.000Z</time>
      </trkpt>
      <trkpt lat="48.09808" lon="3.30595">
        <ele>116.9</ele>
        <time>2024-03-30T15:44:03.000Z</time>
      </trkpt>
      <trkpt lat="48.09809" lon="3.30594">
        <ele>117</ele>
        <time>2024-03-30T15:44:04.000Z</time>
      </trkpt>
      <trkpt lat="48.0981" lon="3.30594">
        <ele>117.2</ele>
        <time>2024-03-30T15:44:05.000Z</time>
      </trkpt>
      <trkpt lat="48.09811" lon="3.30594">
        <ele>117.4</ele>
        <time>2024-03-30T15:44:06.000Z</time>
      </trkpt>
      <trkpt lat="48.09812" lon="3.30594">
        <ele>117.5</ele>
        <time>2024-03-30T15:44:07.000Z</time>
      </trkpt>
      <trkpt lat="48.09813" lon="3.30594">
        <ele>117.7</ele>
        <time>2024-03-30T15:44:08.000Z</time>
      </trkpt>
      <trkpt lat="48.09814" lon="3.30594">
        <ele>117.9</ele>
        <time>2024-03-30T15:44:09.000Z</time>
      </trkpt>
      <trkpt lat="48.09815" lon="3.30593">
        <ele>118</ele>
        <time>2024-03-30T15:44:10.000Z</time>
      </trkpt>
      <trkpt lat="48.09816" lon="3.30594">
        <ele>118.3</ele>
        <time>2024-03-30T15:44:11.000Z</time>
      </trkpt>
      <trkpt lat="48.09818" lon="3.30594">
        <ele>118.6</ele>
        <time>2024-03-30T15:44:12.000Z</time>
      </trkpt>
      <trkpt lat="48.09819" lon="3.30594">
        <ele>118.8</ele>
        <time>2024-03-30T15:44:13.000Z</time>
      </trkpt>
      <trkpt lat="48.0982" lon="3.30594">
        <ele>119</ele>
        <time>2024-03-30T15:44:14.000Z</time>
      </trkpt>
      <trkpt lat="48.09821" lon="3.30594">
        <ele>119.2</ele>
        <time>2024-03-30T15:44:15.000Z</time>
      </trkpt>
      <trkpt lat="48.09822" lon="3.30594">
        <ele>119.3</ele>
        <time>2024-03-30T15:44:16.000Z</time>
      </trkpt>
      <trkpt lat="48.09823" lon="3.30594">
        <ele>119.5</ele>
        <time>2024-03-30T15:44:17.000Z</time>
      </trkpt>
      <trkpt lat="48.09825" lon="3.30594">
        <ele>119.9</ele>
        <time>2024-03-30T15:44:18.000Z</time>
      </trkpt>
      <trkpt lat="48.09826" lon="3.30594">
        <ele>120.1</ele>
        <time>2024-03-30T15:44:19.000Z</time>
      </trkpt>
      <trkpt lat="48.09827" lon="3.30593">
        <ele>120.2</ele>
        <time>2024-03-30T15:44:20.000Z</time>
      </trkpt>
      <trkpt lat="48.09828" lon="3.30593">
        <ele>120.4</ele>
        <time>2024-03-30T15:44:21.000Z</time>
      </trkpt>
      <trkpt lat="48.09829" lon="3.30593">
        <ele>120.6</ele>
        <time>2024-03-30T15:44:22.000Z</time>
      </trkpt>
      <trkpt lat="48.0983" lon="3.30593">
        <ele>120.7</ele>
        <time>2024-03-30T15:44:23.000Z</time>
      </trkpt>
      <trkpt lat="48.09831" lon="3.30593">
        <ele>120.9</ele>
        <time>2024-03-30T15:44:24.000Z</time>
      </trkpt>
      <trkpt lat="48.09832" lon="3.30593">
        <ele>121.1</ele>
        <time>2024-03-30T15:44:25.000Z</time>
      </trkpt>
      <trkpt lat="48.09833" lon="3.30593">
        <ele>121.3</ele>
        <time>2024-03-30T15:44:26.000Z</time>
      </trkpt>
      <trkpt lat="48.09834" lon="3.30593">
        <ele>121.4</ele>
        <time>2024-03-30T15:44:27.000Z</time>
      </trkpt>
      <trkpt lat="48.09835" lon="3.30593">
        <ele>121.6</ele>
        <time>2024-03-30T15:44:28.000Z</time>
      </trkpt>
      <trkpt lat="48.09836" lon="3.30593">
        <ele>121.7</ele>
        <time>2024-03-30T15:44:29.000Z</time>
      </trkpt>
      <trkpt lat="48.09837" lon="3.30593">
        <ele>121.9</ele>
        <time>2024-03-30T15:44:30.000Z</time>
      </trkpt>
      <trkpt lat="48.09837" lon="3.30593">
        <ele>121.9</ele>
        <time>2024-03-30T15:44:31.000Z</time>
      </trkpt>
      <trkpt lat="48.09838" lon="3.30593">
        <ele>122</ele>
        <time>2024-03-30T15:44:32.000Z</time>
      </trkpt>
      <trkpt lat="48.09839" lon="3.30593">
        <ele>122.2</ele>
        <time>2024-03-30T15:44:33.000Z</time>
      </trkpt>
      <trkpt lat="48.0984" lon="3.30593">
        <ele>122.3</ele>
        <time>2024-03-30T15:44:34.000Z</time>
      </trkpt>
      <trkpt lat="48.0984" lon="3.30593">
        <ele>122.3</ele>
        <time>2024-03-30T15:44:35.000Z</time>
      </trkpt>
      <trkpt lat="48.09841" lon="3.30593">
        <ele>122.5</ele>
        <time>2024-03-30T15:44:36.000Z</time>
      </trkpt>
      <trkpt lat="48.09842" lon="3.30593">
        <ele>122.6</ele>
        <time>2024-03-30T15:44:37.000Z</time>
      </trkpt>
      <trkpt lat="48.09844" lon="3.30593">
        <ele>122.9</ele>
        <time>2024-03-30T15:44:38.000Z</time>
      </trkpt>
      <trkpt lat="48.09844" lon="3.30593">
        <ele>122.9</ele>
        <time>2024-03-30T15:44:39.000Z</time>
      </trkpt>
      <trkpt lat="48.09846" lon="3.30593">
        <ele>123.2</ele>
        <time>2024-03-30T15:44:40.000Z</time>
      </trkpt>
      <trkpt lat="48.09846" lon="3.30593">
        <ele>123.2</ele>
        <time>2024-03-30T15:44:41.000Z</time>
      </trkpt>
      <trkpt lat="48.09847" lon="3.30593">
        <ele>123.3</ele>
        <time>2024-03-30T15:44:42.000Z</time>
      </trkpt>
      <trkpt lat="48.09848" lon="3.30594">
        <ele>123.5</ele>
        <time>2024-03-30T15:44:43.000Z</time>
      </trkpt>
      <trkpt lat="48.09849" lon="3.30594">
        <ele>123.6</ele>
        <time>2024-03-30T15:44:44.000Z</time>
      </trkpt>
      <trkpt lat="48.0985" lon="3.30594">
        <ele>123.8</ele>
        <time>2024-03-30T15:44:45.000Z</time>
      </trkpt>
      <trkpt lat="48.09851" lon="3.30595">
        <ele>124</ele>
        <time>2024-03-30T15:44:46.000Z</time>
      </trkpt>
      <trkpt lat="48.09852" lon="3.30595">
        <ele>124.1</ele>
        <time>2024-03-30T15:44:47.000Z</time>
      </trkpt>
      <trkpt lat="48.09853" lon="3.30595">
        <ele>124.3</ele>
        <time>2024-03-30T15:44:48.000Z</time>
      </trkpt>
      <trkpt lat="48.09854" lon="3.30595">
        <ele>124.4</ele>
        <time>2024-03-30T15:44:49.000Z</time>
      </trkpt>
      <trkpt lat="48.09855" lon="3.30595">
        <ele>124.5</ele>
        <time>2024-03-30T15:44:50.000Z</time>
      </trkpt>
      <trkpt lat="48.09856" lon="3.30596">
        <ele>124.7</ele>
        <time>2024-03-30T15:44:51.000Z</time>
      </trkpt>
      <trkpt lat="48.09857" lon="3.30596">
        <ele>124.9</ele>
        <time>2024-03-30T15:44:52.000Z</time>
      </trkpt>
      <trkpt lat="48.09858" lon="3.30596">
        <ele>125</ele>
        <time>2024-03-30T15:44:53.000Z</time>
      </trkpt>
      <trkpt lat="48.09859" lon="3.30596">
        <ele>125.2</ele>
        <time>2024-03-30T15:44:54.000Z</time>
      </trkpt>
      <trkpt lat="48.0986" lon="3.30596">
        <ele>125.3</ele>
        <time>2024-03-30T15:44:55.000Z</time>
      </trkpt>
      <trkpt lat="48.09861" lon="3.30596">
        <ele>125.4</ele>
        <time>2024-03-30T15:44:56.000Z</time>
      </trkpt>
      <trkpt lat="48.09863" lon="3.30596">
        <ele>125.7</ele>
        <time>2024-03-30T15:44:57.000Z</time>
      </trkpt>
      <trkpt lat="48.09864" lon="3.30596">
        <ele>125.8</ele>
        <time>2024-03-30T15:44:58.000Z</time>
      </trkpt>
      <trkpt lat="48.09865" lon="3.30596">
        <ele>125.9</ele>
        <time>2024-03-30T15:44:59.000Z</time>
      </trkpt>
      <trkpt lat="48.09867" lon="3.30596">
        <ele>126.1</ele>
        <time>2024-03-30T15:45:00.000Z</time>
      </trkpt>
      <trkpt lat="48.09868" lon="3.30596">
        <ele>126.2</ele>
        <time>2024-03-30T15:45:01.000Z</time>
      </trkpt>
      <trkpt lat="48.0987" lon="3.30597">
        <ele>126.5</ele>
        <time>2024-03-30T15:45:02.000Z</time>
      </trkpt>
      <trkpt lat="48.09871" lon="3.30597">
        <ele>126.6</ele>
        <time>2024-03-30T15:45:03.000Z</time>
      </trkpt>
      <trkpt lat="48.09872" lon="3.30597">
        <ele>126.7</ele>
        <time>2024-03-30T15:45:04.000Z</time>
      </trkpt>
      <trkpt lat="48.09873" lon="3.30597">
        <ele>126.8</ele>
        <time>2024-03-30T15:45:05.000Z</time>
      </trkpt>
      <trkpt lat="48.09874" lon="3.30597">
        <ele>126.9</ele>
        <time>2024-03-30T15:45:06.000Z</time>
      </trkpt>
      <trkpt lat="48.09876" lon="3.30597">
        <ele>127.1</ele>
        <time>2024-03-30T15:45:07.000Z</time>
      </trkpt>
      <trkpt lat="48.09877" lon="3.30598">
        <ele>127.2</ele>
        <time>2024-03-30T15:45:08.000Z</time>
      </trkpt>
      <trkpt lat="48.09878" lon="3.30598">
        <ele>127.4</ele>
        <time>2024-03-30T15:45:09.000Z</time>
      </trkpt>
      <trkpt lat="48.09879" lon="3.30598">
        <ele>127.5</ele>
        <time>2024-03-30T15:45:10.000Z</time>
      </trkpt>
      <trkpt lat="48.0988" lon="3.30598">
        <ele>127.6</ele>
        <time>2024-03-30T15:45:11.000Z</time>
      </trkpt>
      <trkpt lat="48.09882" lon="3.30598">
        <ele>127.8</ele>
        <time>2024-03-30T15:45:12.000Z</time>
      </trkpt>
      <trkpt lat="48.09883" lon="3.30598">
        <ele>127.9</ele>
        <time>2024-03-30T15:45:13.000Z</time>
      </trkpt>
      <trkpt lat="48.09885" lon="3.30598">
        <ele>128.1</ele>
        <time>2024-03-30T15:45:14.000Z</time>
      </trkpt>
      <trkpt lat="48.09886" lon="3.30599">
        <ele>128.3</ele>
        <time>2024-03-30T15:45:15.000Z</time>
      </trkpt>
      <trkpt lat="48.09887" lon="3.30599">
        <ele>128.4</ele>
        <time>2024-03-30T15:45:16.000Z</time>
      </trkpt>
      <trkpt lat="48.09888" lon="3.30599">
        <ele>128.5</ele>
        <time>2024-03-30T15:45:17.000Z</time>
      </trkpt>
      <trkpt lat="48.09889" lon="3.30599">
        <ele>128.6</ele>
        <time>2024-03-30T15:45:18.000Z</time>
      </trkpt>
      <trkpt lat="48.0989" lon="3.306">
        <ele>128.7</ele>
        <time>2024-03-30T15:45:19.000Z</time>
      </trkpt>
      <trkpt lat="48.09891" lon="3.306">
        <ele>128.8</ele>
        <time>2024-03-30T15:45:20.000Z</time>
      </trkpt>
      <trkpt lat="48.09892" lon="3.306">
        <ele>128.9</ele>
        <time>2024-03-30T15:45:21.000Z</time>
      </trkpt>
      <trkpt lat="48.09893" lon="3.306">
        <ele>129</ele>
        <time>2024-03-30T15:45:22.000Z</time>
      </trkpt>
      <trkpt lat="48.09894" lon="3.306">
        <ele>129.2</ele>
        <time>2024-03-30T15:45:23.000Z</time>
      </trkpt>
      <trkpt lat="48.09896" lon="3.30601">
        <ele>129.4</ele>
        <time>2024-03-30T15:45:24.000Z</time>
      </trkpt>
      <trkpt lat="48.09897" lon="3.30601">
        <ele>129.5</ele>
        <time>2024-03-30T15:45:25.000Z</time>
      </trkpt>
      <trkpt lat="48.09898" lon="3.30601">
        <ele>129.6</ele>
        <time>2024-03-30T15:45:26.000Z</time>
      </trkpt>
      <trkpt lat="48.09899" lon="3.30602">
        <ele>129.8</ele>
        <time>2024-03-30T15:45:27.000Z</time>
      </trkpt>
      <trkpt lat="48.099" lon="3.30602">
        <ele>129.9</ele>
        <time>2024-03-30T15:45:28.000Z</time>
      </trkpt>
      <trkpt lat="48.09902" lon="3.30602">
        <ele>130.1</ele>
        <time>2024-03-30T15:45:29.000Z</time>
      </trkpt>
      <trkpt lat="48.09903" lon="3.30603">
        <ele>130.2</ele>
        <time>2024-03-30T15:45:30.000Z</time>
      </trkpt>
      <trkpt lat="48.09904" lon="3.30603">
        <ele>130.3</ele>
        <time>2024-03-30T15:45:31.000Z</time>
      </trkpt>
      <trkpt lat="48.09905" lon="3.30603">
        <ele>130.4</ele>
        <time>2024-03-30T15:45:32.000Z</time>
      </trkpt>
      <trkpt lat="48.09906" lon="3.30603">
        <ele>130.6</ele>
        <time>2024-03-30T15:45:33.000Z</time>
      </trkpt>
      <trkpt lat="48.09907" lon="3.30604">
        <ele>130.7</ele>
        <time>2024-03-30T15:45:34.000Z</time>
      </trkpt>
      <trkpt lat="48.09908" lon="3.30604">
        <ele>130.8</ele>
        <time>2024-03-30T15:45:35.000Z</time>
      </trkpt>
      <trkpt lat="48.09909" lon="3.30604">
        <ele>130.9</ele>
        <time>2024-03-30T15:45:36.000Z</time>
      </trkpt>
      <trkpt lat="48.0991" lon="3.30604">
        <ele>131</ele>
        <time>2024-03-30T15:45:37.000Z</time>
      </trkpt>
      <trkpt lat="48.09912" lon="3.30605">
        <ele>131.3</ele>
        <time>2024-03-30T15:45:38.000Z</time>
      </trkpt>
      <trkpt lat="48.09913" lon="3.30605">
        <ele>131.4</ele>
        <time>2024-03-30T15:45:39.000Z</time>
      </trkpt>
      <trkpt lat="48.09914" lon="3.30605">
        <ele>131.5</ele>
        <time>2024-03-30T15:45:40.000Z</time>
      </trkpt>
      <trkpt lat="48.09915" lon="3.30605">
        <ele>131.6</ele>
        <time>2024-03-30T15:45:41.000Z</time>
      </trkpt>
      <trkpt lat="48.09916" lon="3.30605">
        <ele>131.7</ele>
        <time>2024-03-30T15:45:42.000Z</time>
      </trkpt>
      <trkpt lat="48.09917" lon="3.30606">
        <ele>131.9</ele>
        <time>2024-03-30T15:45:43.000Z</time>
      </trkpt>
      <trkpt lat="48.09918" lon="3.30606">
        <ele>132</ele>
        <time>2024-03-30T15:45:44.000Z</time>
      </trkpt>
      <trkpt lat="48.0992" lon="3.30606">
        <ele>132.2</ele>
        <time>2024-03-30T15:45:45.000Z</time>
      </trkpt>
      <trkpt lat="48.09921" lon="3.30607">
        <ele>132.3</ele>
        <time>2024-03-30T15:45:46.000Z</time>
      </trkpt>
      <trkpt lat="48.09922" lon="3.30607">
        <ele>132.5</ele>
        <time>2024-03-30T15:45:47.000Z</time>
      </trkpt>
      <trkpt lat="48.09923" lon="3.30607">
        <ele>132.6</ele>
        <time>2024-03-30T15:45:48.000Z</time>
      </trkpt>
      <trkpt lat="48.09924" lon="3.30607">
        <ele>132.7</ele>
        <time>2024-03-30T15:45:49.000Z</time>
      </trkpt>
      <trkpt lat="48.09925" lon="3.30607">
        <ele>132.8</ele>
        <time>2024-03-30T15:45:50.000Z</time>
      </trkpt>
      <trkpt lat="48.09926" lon="3.30607">
        <ele>132.9</ele>
        <time>2024-03-30T15:45:51.000Z</time>
      </trkpt>
      <trkpt lat="48.09927" lon="3.30607">
        <ele>133</ele>
        <time>2024-03-30T15:45:52.000Z</time>
      </trkpt>
      <trkpt lat="48.09929" lon="3.30608">
        <ele>133.3</ele>
        <time>2024-03-30T15:45:53.000Z</time>
      </trkpt>
      <trkpt lat="48.0993" lon="3.30608">
        <ele>133.4</ele>
        <time>2024-03-30T15:45:54.000Z</time>
      </trkpt>
      <trkpt lat="48.09931" lon="3.30609">
        <ele>133.5</ele>
        <time>2024-03-30T15:45:55.000Z</time>
      </trkpt>
      <trkpt lat="48.09932" lon="3.30609">
        <ele>133.6</ele>
        <time>2024-03-30T15:45:56.000Z</time>
      </trkpt>
      <trkpt lat="48.09933" lon="3.30609">
        <ele>133.7</ele>
        <time>2024-03-30T15:45:57.000Z</time>
      </trkpt>
      <trkpt lat="48.09935" lon="3.3061">
        <ele>134</ele>
        <time>2024-03-30T15:45:58.000Z</time>
      </trkpt>
      <trkpt lat="48.09936" lon="3.3061">
        <ele>134.1</ele>
        <time>2024-03-30T15:45:59.000Z</time>
      </trkpt>
      <trkpt lat="48.09937" lon="3.3061">
        <ele>134.2</ele>
        <time>2024-03-30T15:46:00.000Z</time>
      </trkpt>
      <trkpt lat="48.09938" lon="3.3061">
        <ele>134.3</ele>
        <time>2024-03-30T15:46:01.000Z</time>
      </trkpt>
      <trkpt lat="48.0994" lon="3.30611">
        <ele>134.5</ele>
        <time>2024-03-30T15:46:02.000Z</time>
      </trkpt>
      <trkpt lat="48.09941" lon="3.30611">
        <ele>134.6</ele>
        <time>2024-03-30T15:46:03.000Z</time>
      </trkpt>
      <trkpt lat="48.09942" lon="3.30611">
        <ele>134.7</ele>
        <time>2024-03-30T15:46:04.000Z</time>
      </trkpt>
      <trkpt lat="48.09944" lon="3.30611">
        <ele>135</ele>
        <time>2024-03-30T15:46:05.000Z</time>
      </trkpt>
      <trkpt lat="48.09945" lon="3.30611">
        <ele>135.1</ele>
        <time>2024-03-30T15:46:06.000Z</time>
      </trkpt>
      <trkpt lat="48.09947" lon="3.30612">
        <ele>135.3</ele>
        <time>2024-03-30T15:46:07.000Z</time>
      </trkpt>
      <trkpt lat="48.09948" lon="3.30612">
        <ele>135.4</ele>
        <time>2024-03-30T15:46:08.000Z</time>
      </trkpt>
      <trkpt lat="48.09949" lon="3.30612">
        <ele>135.5</ele>
        <time>2024-03-30T15:46:09.000Z</time>
      </trkpt>
      <trkpt lat="48.0995" lon="3.30612">
        <ele>135.6</ele>
        <time>2024-03-30T15:46:10.000Z</time>
      </trkpt>
      <trkpt lat="48.09952" lon="3.30612">
        <ele>135.8</ele>
        <time>2024-03-30T15:46:11.000Z</time>
      </trkpt>
      <trkpt lat="48.09954" lon="3.30612">
        <ele>136.1</ele>
        <time>2024-03-30T15:46:12.000Z</time>
      </trkpt>
      <trkpt lat="48.09955" lon="3.30612">
        <ele>136.2</ele>
        <time>2024-03-30T15:46:13.000Z</time>
      </trkpt>
      <trkpt lat="48.09956" lon="3.30612">
        <ele>136.3</ele>
        <time>2024-03-30T15:46:14.000Z</time>
      </trkpt>
      <trkpt lat="48.09958" lon="3.30612">
        <ele>136.5</ele>
        <time>2024-03-30T15:46:15.000Z</time>
      </trkpt>
      <trkpt lat="48.0996" lon="3.30612">
        <ele>136.7</ele>
        <time>2024-03-30T15:46:16.000Z</time>
      </trkpt>
      <trkpt lat="48.09961" lon="3.30612">
        <ele>136.8</ele>
        <time>2024-03-30T15:46:17.000Z</time>
      </trkpt>
      <trkpt lat="48.09962" lon="3.30612">
        <ele>136.9</ele>
        <time>2024-03-30T15:46:18.000Z</time>
      </trkpt>
      <trkpt lat="48.09963" lon="3.30611">
        <ele>137</ele>
        <time>2024-03-30T15:46:19.000Z</time>
      </trkpt>
      <trkpt lat="48.09965" lon="3.30611">
        <ele>137.2</ele>
        <time>2024-03-30T15:46:20.000Z</time>
      </trkpt>
      <trkpt lat="48.09966" lon="3.30611">
        <ele>137.3</ele>
        <time>2024-03-30T15:46:21.000Z</time>
      </trkpt>
      <trkpt lat="48.09968" lon="3.3061">
        <ele>137.5</ele>
        <time>2024-03-30T15:46:22.000Z</time>
      </trkpt>
      <trkpt lat="48.09969" lon="3.30611">
        <ele>137.7</ele>
        <time>2024-03-30T15:46:23.000Z</time>
      </trkpt>
      <trkpt lat="48.09971" lon="3.3061">
        <ele>137.9</ele>
        <time>2024-03-30T15:46:24.000Z</time>
      </trkpt>
      <trkpt lat="48.09972" lon="3.3061">
        <ele>138</ele>
        <time>2024-03-30T15:46:25.000Z</time>
      </trkpt>
      <trkpt lat="48.09973" lon="3.3061">
        <ele>138.1</ele>
        <time>2024-03-30T15:46:26.000Z</time>
      </trkpt>
      <trkpt lat="48.09974" lon="3.3061">
        <ele>138.2</ele>
        <time>2024-03-30T15:46:27.000Z</time>
      </trkpt>
      <trkpt lat="48.09975" lon="3.30609">
        <ele>138.3</ele>
        <time>2024-03-30T15:46:28.000Z</time>
      </trkpt>
      <trkpt lat="48.09977" lon="3.30609">
        <ele>138.5</ele>
        <time>2024-03-30T15:46:29.000Z</time>
      </trkpt>
      <trkpt lat="48.09978" lon="3.30609">
        <ele>138.6</ele>
        <time>2024-03-30T15:46:30.000Z</time>
      </trkpt>
      <trkpt lat="48.0998" lon="3.30609">
        <ele>138.8</ele>
        <time>2024-03-30T15:46:31.000Z</time>
      </trkpt>
      <trkpt lat="48.09981" lon="3.30609">
        <ele>138.9</ele>
        <time>2024-03-30T15:46:32.000Z</time>
      </trkpt>
      <trkpt lat="48.09983" lon="3.30609">
        <ele>139.2</ele>
        <time>2024-03-30T15:46:33.000Z</time>
      </trkpt>
      <trkpt lat="48.09984" lon="3.30608">
        <ele>139.3</ele>
        <time>2024-03-30T15:46:34.000Z</time>
      </trkpt>
      <trkpt lat="48.09985" lon="3.30608">
        <ele>139.4</ele>
        <time>2024-03-30T15:46:35.000Z</time>
      </trkpt>
      <trkpt lat="48.09986" lon="3.30608">
        <ele>139.5</ele>
        <time>2024-03-30T15:46:36.000Z</time>
      </trkpt>
      <trkpt lat="48.09988" lon="3.30608">
        <ele>139.7</ele>
        <time>2024-03-30T15:46:37.000Z</time>
      </trkpt>
      <trkpt lat="48.09989" lon="3.30608">
        <ele>139.8</ele>
        <time>2024-03-30T15:46:38.000Z</time>
      </trkpt>
      <trkpt lat="48.09991" lon="3.30608">
        <ele>140</ele>
        <time>2024-03-30T15:46:39.000Z</time>
      </trkpt>
      <trkpt lat="48.09992" lon="3.30607">
        <ele>140.1</ele>
        <time>2024-03-30T15:46:40.000Z</time>
      </trkpt>
      <trkpt lat="48.09994" lon="3.30607">
        <ele>140.4</ele>
        <time>2024-03-30T15:46:41.000Z</time>
      </trkpt>
      <trkpt lat="48.09995" lon="3.30607">
        <ele>140.5</ele>
        <time>2024-03-30T15:46:42.000Z</time>
      </trkpt>
      <trkpt lat="48.09997" lon="3.30607">
        <ele>140.7</ele>
        <time>2024-03-30T15:46:43.000Z</time>
      </trkpt>
      <trkpt lat="48.09998" lon="3.30607">
        <ele>140.8</ele>
        <time>2024-03-30T15:46:44.000Z</time>
      </trkpt>
      <trkpt lat="48.09999" lon="3.30607">
        <ele>140.9</ele>
        <time>2024-03-30T15:46:45.000Z</time>
      </trkpt>
      <trkpt lat="48.10001" lon="3.30607">
        <ele>141.1</ele>
        <time>2024-03-30T15:46:46.000Z</time>
      </trkpt>
      <trkpt lat="48.10002" lon="3.30606">
        <ele>141.2</ele>
        <time>2024-03-30T15:46:47.000Z</time>
      </trkpt>
      <trkpt lat="48.10004" lon="3.30606">
        <ele>141.4</ele>
        <time>2024-03-30T15:46:48.000Z</time>
      </trkpt>
      <trkpt lat="48.10005" lon="3.30606">
        <ele>141.5</ele>
        <time>2024-03-30T15:46:49.000Z</time>
      </trkpt>
      <trkpt lat="48.10006" lon="3.30606">
        <ele>141.6</ele>
        <time>2024-03-30T15:46:50.000Z</time>
      </trkpt>
      <trkpt lat="48.10007" lon="3.30606">
        <ele>141.8</ele>
        <time>2024-03-30T15:46:51.000Z</time>
      </trkpt>
      <trkpt lat="48.10009" lon="3.30606">
        <ele>142</ele>
        <time>2024-03-30T15:46:52.000Z</time>
      </trkpt>
      <trkpt lat="48.1001" lon="3.30606">
        <ele>142.1</ele>
        <time>2024-03-30T15:46:53.000Z</time>
      </trkpt>
      <trkpt lat="48.10011" lon="3.30607">
        <ele>142.2</ele>
        <time>2024-03-30T15:46:54.000Z</time>
      </trkpt>
      <trkpt lat="48.10013" lon="3.30607">
        <ele>142.4</ele>
        <time>2024-03-30T15:46:55.000Z</time>
      </trkpt>
      <trkpt lat="48.10013" lon="3.30606">
        <ele>142.4</ele>
        <time>2024-03-30T15:46:56.000Z</time>
      </trkpt>
      <trkpt lat="48.10015" lon="3.30607">
        <ele>142.6</ele>
        <time>2024-03-30T15:46:57.000Z</time>
      </trkpt>
      <trkpt lat="48.10017" lon="3.30607">
        <ele>142.8</ele>
        <time>2024-03-30T15:46:58.000Z</time>
      </trkpt>
      <trkpt lat="48.10018" lon="3.30608">
        <ele>142.9</ele>
        <time>2024-03-30T15:46:59.000Z</time>
      </trkpt>
      <trkpt lat="48.1002" lon="3.30608">
        <ele>143.2</ele>
        <time>2024-03-30T15:47:00.000Z</time>
      </trkpt>
      <trkpt lat="48.10021" lon="3.30609">
        <ele>143.3</ele>
        <time>2024-03-30T15:47:01.000Z</time>
      </trkpt>
      <trkpt lat="48.10023" lon="3.3061">
        <ele>143.5</ele>
        <time>2024-03-30T15:47:02.000Z</time>
      </trkpt>
      <trkpt lat="48.10023" lon="3.30611">
        <ele>143.5</ele>
        <time>2024-03-30T15:47:03.000Z</time>
      </trkpt>
      <trkpt lat="48.10025" lon="3.30613">
        <ele>143.7</ele>
        <time>2024-03-30T15:47:04.000Z</time>
      </trkpt>
      <trkpt lat="48.10027" lon="3.30614">
        <ele>143.9</ele>
        <time>2024-03-30T15:47:05.000Z</time>
      </trkpt>
      <trkpt lat="48.10028" lon="3.30614">
        <ele>144</ele>
        <time>2024-03-30T15:47:06.000Z</time>
      </trkpt>
      <trkpt lat="48.1003" lon="3.30615">
        <ele>144.2</ele>
        <time>2024-03-30T15:47:07.000Z</time>
      </trkpt>
      <trkpt lat="48.10031" lon="3.30617">
        <ele>144.3</ele>
        <time>2024-03-30T15:47:08.000Z</time>
      </trkpt>
      <trkpt lat="48.10033" lon="3.30617">
        <ele>144.5</ele>
        <time>2024-03-30T15:47:09.000Z</time>
      </trkpt>
      <trkpt lat="48.10034" lon="3.30618">
        <ele>144.6</ele>
        <time>2024-03-30T15:47:10.000Z</time>
      </trkpt>
      <trkpt lat="48.10036" lon="3.30619">
        <ele>144.8</ele>
        <time>2024-03-30T15:47:11.000Z</time>
      </trkpt>
      <trkpt lat="48.10037" lon="3.3062">
        <ele>144.9</ele>
        <time>2024-03-30T15:47:12.000Z</time>
      </trkpt>
      <trkpt lat="48.10039" lon="3.30621">
        <ele>145.1</ele>
        <time>2024-03-30T15:47:13.000Z</time>
      </trkpt>
      <trkpt lat="48.1004" lon="3.30622">
        <ele>145.1</ele>
        <time>2024-03-30T15:47:14.000Z</time>
      </trkpt>
      <trkpt lat="48.10042" lon="3.30624">
        <ele>145.3</ele>
        <time>2024-03-30T15:47:15.000Z</time>
      </trkpt>
      <trkpt lat="48.10044" lon="3.30625">
        <ele>145.5</ele>
        <time>2024-03-30T15:47:16.000Z</time>
      </trkpt>
      <trkpt lat="48.10046" lon="3.30626">
        <ele>145.6</ele>
        <time>2024-03-30T15:47:17.000Z</time>
      </trkpt>
      <trkpt lat="48.10047" lon="3.30627">
        <ele>145.7</ele>
        <time>2024-03-30T15:47:18.000Z</time>
      </trkpt>
      <trkpt lat="48.10049" lon="3.30628">
        <ele>145.8</ele>
        <time>2024-03-30T15:47:19.000Z</time>
      </trkpt>
      <trkpt lat="48.10051" lon="3.30629">
        <ele>146</ele>
        <time>2024-03-30T15:47:20.000Z</time>
      </trkpt>
      <trkpt lat="48.10052" lon="3.3063">
        <ele>146</ele>
        <time>2024-03-30T15:47:21.000Z</time>
      </trkpt>
      <trkpt lat="48.10054" lon="3.30631">
        <ele>146.2</ele>
        <time>2024-03-30T15:47:22.000Z</time>
      </trkpt>
      <trkpt lat="48.10056" lon="3.30633">
        <ele>146.3</ele>
        <time>2024-03-30T15:47:23.000Z</time>
      </trkpt>
      <trkpt lat="48.10057" lon="3.30633">
        <ele>146.4</ele>
        <time>2024-03-30T15:47:24.000Z</time>
      </trkpt>
      <trkpt lat="48.10059" lon="3.30635">
        <ele>146.5</ele>
        <time>2024-03-30T15:47:25.000Z</time>
      </trkpt>
      <trkpt lat="48.1006" lon="3.30636">
        <ele>146.6</ele>
        <time>2024-03-30T15:47:26.000Z</time>
      </trkpt>
      <trkpt lat="48.10062" lon="3.30637">
        <ele>146.7</ele>
        <time>2024-03-30T15:47:27.000Z</time>
      </trkpt>
      <trkpt lat="48.10063" lon="3.30638">
        <ele>146.8</ele>
        <time>2024-03-30T15:47:28.000Z</time>
      </trkpt>
      <trkpt lat="48.10065" lon="3.30639">
        <ele>147</ele>
        <time>2024-03-30T15:47:29.000Z</time>
      </trkpt>
      <trkpt lat="48.10066" lon="3.3064">
        <ele>147.1</ele>
        <time>2024-03-30T15:47:30.000Z</time>
      </trkpt>
      <trkpt lat="48.10068" lon="3.30641">
        <ele>147.3</ele>
        <time>2024-03-30T15:47:31.000Z</time>
      </trkpt>
      <trkpt lat="48.10069" lon="3.30642">
        <ele>147.4</ele>
        <time>2024-03-30T15:47:32.000Z</time>
      </trkpt>
      <trkpt lat="48.10071" lon="3.30643">
        <ele>147.6</ele>
        <time>2024-03-30T15:47:33.000Z</time>
      </trkpt>
      <trkpt lat="48.10072" lon="3.30644">
        <ele>147.7</ele>
        <time>2024-03-30T15:47:34.000Z</time>
      </trkpt>
      <trkpt lat="48.10073" lon="3.30645">
        <ele>147.7</ele>
        <time>2024-03-30T15:47:35.000Z</time>
      </trkpt>
      <trkpt lat="48.10075" lon="3.30646">
        <ele>147.9</ele>
        <time>2024-03-30T15:47:36.000Z</time>
      </trkpt>
      <trkpt lat="48.10076" lon="3.30647">
        <ele>148</ele>
        <time>2024-03-30T15:47:37.000Z</time>
      </trkpt>
      <trkpt lat="48.10078" lon="3.30648">
        <ele>148.2</ele>
        <time>2024-03-30T15:47:38.000Z</time>
      </trkpt>
      <trkpt lat="48.10079" lon="3.30648">
        <ele>148.3</ele>
        <time>2024-03-30T15:47:39.000Z</time>
      </trkpt>
      <trkpt lat="48.1008" lon="3.30649">
        <ele>148.3</ele>
        <time>2024-03-30T15:47:40.000Z</time>
      </trkpt>
      <trkpt lat="48.10082" lon="3.3065">
        <ele>148.5</ele>
        <time>2024-03-30T15:47:41.000Z</time>
      </trkpt>
      <trkpt lat="48.10083" lon="3.30652">
        <ele>148.5</ele>
        <time>2024-03-30T15:47:42.000Z</time>
      </trkpt>
      <trkpt lat="48.10084" lon="3.30653">
        <ele>148.6</ele>
        <time>2024-03-30T15:47:43.000Z</time>
      </trkpt>
      <trkpt lat="48.10086" lon="3.30654">
        <ele>148.8</ele>
        <time>2024-03-30T15:47:44.000Z</time>
      </trkpt>
      <trkpt lat="48.10087" lon="3.30655">
        <ele>148.9</ele>
        <time>2024-03-30T15:47:45.000Z</time>
      </trkpt>
      <trkpt lat="48.10089" lon="3.30656">
        <ele>149.1</ele>
        <time>2024-03-30T15:47:46.000Z</time>
      </trkpt>
      <trkpt lat="48.1009" lon="3.30656">
        <ele>149.3</ele>
        <time>2024-03-30T15:47:47.000Z</time>
      </trkpt>
      <trkpt lat="48.10091" lon="3.30657">
        <ele>149.4</ele>
        <time>2024-03-30T15:47:48.000Z</time>
      </trkpt>
      <trkpt lat="48.10093" lon="3.30658">
        <ele>149.6</ele>
        <time>2024-03-30T15:47:49.000Z</time>
      </trkpt>
      <trkpt lat="48.10094" lon="3.30659">
        <ele>149.7</ele>
        <time>2024-03-30T15:47:50.000Z</time>
      </trkpt>
      <trkpt lat="48.10095" lon="3.30659">
        <ele>149.8</ele>
        <time>2024-03-30T15:47:51.000Z</time>
      </trkpt>
      <trkpt lat="48.10096" lon="3.3066">
        <ele>150</ele>
        <time>2024-03-30T15:47:52.000Z</time>
      </trkpt>
      <trkpt lat="48.10097" lon="3.3066">
        <ele>150.1</ele>
        <time>2024-03-30T15:47:53.000Z</time>
      </trkpt>
      <trkpt lat="48.10099" lon="3.30661">
        <ele>150.3</ele>
        <time>2024-03-30T15:47:54.000Z</time>
      </trkpt>
      <trkpt lat="48.101" lon="3.30662">
        <ele>150.5</ele>
        <time>2024-03-30T15:47:55.000Z</time>
      </trkpt>
      <trkpt lat="48.10101" lon="3.30663">
        <ele>150.6</ele>
        <time>2024-03-30T15:47:56.000Z</time>
      </trkpt>
      <trkpt lat="48.10102" lon="3.30664">
        <ele>150.7</ele>
        <time>2024-03-30T15:47:57.000Z</time>
      </trkpt>
      <trkpt lat="48.10103" lon="3.30665">
        <ele>150.8</ele>
        <time>2024-03-30T15:47:58.000Z</time>
      </trkpt>
      <trkpt lat="48.10105" lon="3.30666">
        <ele>151.1</ele>
        <time>2024-03-30T15:47:59.000Z</time>
      </trkpt>
      <trkpt lat="48.10106" lon="3.30667">
        <ele>151.2</ele>
        <time>2024-03-30T15:48:00.000Z</time>
      </trkpt>
      <trkpt lat="48.10107" lon="3.30668">
        <ele>151.3</ele>
        <time>2024-03-30T15:48:01.000Z</time>
      </trkpt>
      <trkpt lat="48.10108" lon="3.30668">
        <ele>151.5</ele>
        <time>2024-03-30T15:48:02.000Z</time>
      </trkpt>
      <trkpt lat="48.10109" lon="3.30669">
        <ele>151.5</ele>
        <time>2024-03-30T15:48:03.000Z</time>
      </trkpt>
      <trkpt lat="48.10111" lon="3.3067">
        <ele>151.7</ele>
        <time>2024-03-30T15:48:04.000Z</time>
      </trkpt>
      <trkpt lat="48.10112" lon="3.30671">
        <ele>151.8</ele>
        <time>2024-03-30T15:48:05.000Z</time>
      </trkpt>
      <trkpt lat="48.10113" lon="3.30672">
        <ele>151.8</ele>
        <time>2024-03-30T15:48:06.000Z</time>
      </trkpt>
      <trkpt lat="48.10114" lon="3.30673">
        <ele>151.8</ele>
        <time>2024-03-30T15:48:07.000Z</time>
      </trkpt>
      <trkpt lat="48.10115" lon="3.30674">
        <ele>151.8</ele>
        <time>2024-03-30T15:48:08.000Z</time>
      </trkpt>
      <trkpt lat="48.10116" lon="3.30675">
        <ele>151.9</ele>
        <time>2024-03-30T15:48:09.000Z</time>
      </trkpt>
      <trkpt lat="48.10118" lon="3.30676">
        <ele>152</ele>
        <time>2024-03-30T15:48:10.000Z</time>
      </trkpt>
      <trkpt lat="48.10119" lon="3.30676">
        <ele>152.1</ele>
        <time>2024-03-30T15:48:11.000Z</time>
      </trkpt>
      <trkpt lat="48.1012" lon="3.30677">
        <ele>152.1</ele>
        <time>2024-03-30T15:48:12.000Z</time>
      </trkpt>
      <trkpt lat="48.10122" lon="3.30678">
        <ele>152.3</ele>
        <time>2024-03-30T15:48:13.000Z</time>
      </trkpt>
      <trkpt lat="48.10123" lon="3.30679">
        <ele>152.3</ele>
        <time>2024-03-30T15:48:14.000Z</time>
      </trkpt>
      <trkpt lat="48.10124" lon="3.30679">
        <ele>152.5</ele>
        <time>2024-03-30T15:48:15.000Z</time>
      </trkpt>
      <trkpt lat="48.10125" lon="3.3068">
        <ele>152.5</ele>
        <time>2024-03-30T15:48:16.000Z</time>
      </trkpt>
      <trkpt lat="48.10127" lon="3.30681">
        <ele>152.7</ele>
        <time>2024-03-30T15:48:17.000Z</time>
      </trkpt>
      <trkpt lat="48.10128" lon="3.30681">
        <ele>152.8</ele>
        <time>2024-03-30T15:48:18.000Z</time>
      </trkpt>
      <trkpt lat="48.10129" lon="3.30682">
        <ele>152.9</ele>
        <time>2024-03-30T15:48:19.000Z</time>
      </trkpt>
      <trkpt lat="48.1013" lon="3.30683">
        <ele>153</ele>
        <time>2024-03-30T15:48:20.000Z</time>
      </trkpt>
      <trkpt lat="48.10131" lon="3.30684">
        <ele>153.1</ele>
        <time>2024-03-30T15:48:21.000Z</time>
      </trkpt>
      <trkpt lat="48.10132" lon="3.30685">
        <ele>153.2</ele>
        <time>2024-03-30T15:48:22.000Z</time>
      </trkpt>
      <trkpt lat="48.10134" lon="3.30686">
        <ele>153.4</ele>
        <time>2024-03-30T15:48:23.000Z</time>
      </trkpt>
      <trkpt lat="48.10135" lon="3.30688">
        <ele>153.5</ele>
        <time>2024-03-30T15:48:24.000Z</time>
      </trkpt>
      <trkpt lat="48.10136" lon="3.30689">
        <ele>153.6</ele>
        <time>2024-03-30T15:48:25.000Z</time>
      </trkpt>
      <trkpt lat="48.10137" lon="3.3069">
        <ele>153.7</ele>
        <time>2024-03-30T15:48:26.000Z</time>
      </trkpt>
      <trkpt lat="48.10139" lon="3.30691">
        <ele>154</ele>
        <time>2024-03-30T15:48:27.000Z</time>
      </trkpt>
      <trkpt lat="48.1014" lon="3.30693">
        <ele>154.1</ele>
        <time>2024-03-30T15:48:28.000Z</time>
      </trkpt>
      <trkpt lat="48.10141" lon="3.30694">
        <ele>154.2</ele>
        <time>2024-03-30T15:48:29.000Z</time>
      </trkpt>
      <trkpt lat="48.10143" lon="3.30695">
        <ele>154.4</ele>
        <time>2024-03-30T15:48:30.000Z</time>
      </trkpt>
      <trkpt lat="48.10144" lon="3.30696">
        <ele>154.5</ele>
        <time>2024-03-30T15:48:31.000Z</time>
      </trkpt>
      <trkpt lat="48.10145" lon="3.30697">
        <ele>154.6</ele>
        <time>2024-03-30T15:48:32.000Z</time>
      </trkpt>
      <trkpt lat="48.10147" lon="3.30697">
        <ele>154.8</ele>
        <time>2024-03-30T15:48:33.000Z</time>
      </trkpt>
      <trkpt lat="48.10148" lon="3.30698">
        <ele>154.9</ele>
        <time>2024-03-30T15:48:34.000Z</time>
      </trkpt>
      <trkpt lat="48.10149" lon="3.30698">
        <ele>155</ele>
        <time>2024-03-30T15:48:35.000Z</time>
      </trkpt>
      <trkpt lat="48.10151" lon="3.30699">
        <ele>155.1</ele>
        <time>2024-03-30T15:48:36.000Z</time>
      </trkpt>
      <trkpt lat="48.10152" lon="3.307">
        <ele>155.2</ele>
        <time>2024-03-30T15:48:37.000Z</time>
      </trkpt>
      <trkpt lat="48.10153" lon="3.30701">
        <ele>155.3</ele>
        <time>2024-03-30T15:48:38.000Z</time>
      </trkpt>
      <trkpt lat="48.10155" lon="3.30702">
        <ele>155.5</ele>
        <time>2024-03-30T15:48:39.000Z</time>
      </trkpt>
      <trkpt lat="48.10156" lon="3.30703">
        <ele>155.5</ele>
        <time>2024-03-30T15:48:40.000Z</time>
      </trkpt>
      <trkpt lat="48.10157" lon="3.30703">
        <ele>155.6</ele>
        <time>2024-03-30T15:48:41.000Z</time>
      </trkpt>
      <trkpt lat="48.10159" lon="3.30704">
        <ele>155.8</ele>
        <time>2024-03-30T15:48:42.000Z</time>
      </trkpt>
      <trkpt lat="48.1016" lon="3.30705">
        <ele>155.9</ele>
        <time>2024-03-30T15:48:43.000Z</time>
      </trkpt>
      <trkpt lat="48.10162" lon="3.30706">
        <ele>156.1</ele>
        <time>2024-03-30T15:48:44.000Z</time>
      </trkpt>
      <trkpt lat="48.10163" lon="3.30707">
        <ele>156.2</ele>
        <time>2024-03-30T15:48:45.000Z</time>
      </trkpt>
      <trkpt lat="48.10165" lon="3.30707">
        <ele>156.4</ele>
        <time>2024-03-30T15:48:46.000Z</time>
      </trkpt>
      <trkpt lat="48.10167" lon="3.30708">
        <ele>156.5</ele>
        <time>2024-03-30T15:48:47.000Z</time>
      </trkpt>
      <trkpt lat="48.10168" lon="3.30709">
        <ele>156.6</ele>
        <time>2024-03-30T15:48:48.000Z</time>
      </trkpt>
      <trkpt lat="48.1017" lon="3.3071">
        <ele>156.7</ele>
        <time>2024-03-30T15:48:49.000Z</time>
      </trkpt>
      <trkpt lat="48.10172" lon="3.30711">
        <ele>156.9</ele>
        <time>2024-03-30T15:48:50.000Z</time>
      </trkpt>
      <trkpt lat="48.10174" lon="3.30711">
        <ele>157.1</ele>
        <time>2024-03-30T15:48:51.000Z</time>
      </trkpt>
      <trkpt lat="48.10176" lon="3.30712">
        <ele>157.3</ele>
        <time>2024-03-30T15:48:52.000Z</time>
      </trkpt>
      <trkpt lat="48.10177" lon="3.30712">
        <ele>157.3</ele>
        <time>2024-03-30T15:48:53.000Z</time>
      </trkpt>
      <trkpt lat="48.10179" lon="3.30712">
        <ele>157.5</ele>
        <time>2024-03-30T15:48:54.000Z</time>
      </trkpt>
      <trkpt lat="48.10181" lon="3.30712">
        <ele>157.7</ele>
        <time>2024-03-30T15:48:55.000Z</time>
      </trkpt>
      <trkpt lat="48.10183" lon="3.30713">
        <ele>157.9</ele>
        <time>2024-03-30T15:48:56.000Z</time>
      </trkpt>
      <trkpt lat="48.10184" lon="3.30713">
        <ele>158</ele>
        <time>2024-03-30T15:48:57.000Z</time>
      </trkpt>
      <trkpt lat="48.10185" lon="3.30714">
        <ele>158.1</ele>
        <time>2024-03-30T15:48:58.000Z</time>
      </trkpt>
      <trkpt lat="48.10187" lon="3.30714">
        <ele>158.3</ele>
        <time>2024-03-30T15:48:59.000Z</time>
      </trkpt>
      <trkpt lat="48.10188" lon="3.30715">
        <ele>158.4</ele>
        <time>2024-03-30T15:49:00.000Z</time>
      </trkpt>
      <trkpt lat="48.1019" lon="3.30715">
        <ele>158.6</ele>
        <time>2024-03-30T15:49:01.000Z</time>
      </trkpt>
      <trkpt lat="48.10192" lon="3.30716">
        <ele>158.8</ele>
        <time>2024-03-30T15:49:02.000Z</time>
      </trkpt>
      <trkpt lat="48.10193" lon="3.30716">
        <ele>158.9</ele>
        <time>2024-03-30T15:49:03.000Z</time>
      </trkpt>
      <trkpt lat="48.10195" lon="3.30717">
        <ele>159</ele>
        <time>2024-03-30T15:49:04.000Z</time>
      </trkpt>
      <trkpt lat="48.10196" lon="3.30718">
        <ele>159.1</ele>
        <time>2024-03-30T15:49:05.000Z</time>
      </trkpt>
      <trkpt lat="48.10198" lon="3.30719">
        <ele>159.2</ele>
        <time>2024-03-30T15:49:06.000Z</time>
      </trkpt>
      <trkpt lat="48.10199" lon="3.30719">
        <ele>159.3</ele>
        <time>2024-03-30T15:49:07.000Z</time>
      </trkpt>
      <trkpt lat="48.102" lon="3.30719">
        <ele>159.4</ele>
        <time>2024-03-30T15:49:08.000Z</time>
      </trkpt>
      <trkpt lat="48.10202" lon="3.3072">
        <ele>159.5</ele>
        <time>2024-03-30T15:49:09.000Z</time>
      </trkpt>
      <trkpt lat="48.10204" lon="3.3072">
        <ele>159.7</ele>
        <time>2024-03-30T15:49:10.000Z</time>
      </trkpt>
      <trkpt lat="48.10205" lon="3.30721">
        <ele>159.7</ele>
        <time>2024-03-30T15:49:11.000Z</time>
      </trkpt>
      <trkpt lat="48.10207" lon="3.30721">
        <ele>159.9</ele>
        <time>2024-03-30T15:49:12.000Z</time>
      </trkpt>
      <trkpt lat="48.10209" lon="3.30722">
        <ele>160</ele>
        <time>2024-03-30T15:49:13.000Z</time>
      </trkpt>
      <trkpt lat="48.10211" lon="3.30722">
        <ele>160.2</ele>
        <time>2024-03-30T15:49:14.000Z</time>
      </trkpt>
      <trkpt lat="48.10212" lon="3.30722">
        <ele>160.3</ele>
        <time>2024-03-30T15:49:15.000Z</time>
      </trkpt>
      <trkpt lat="48.10214" lon="3.30722">
        <ele>160.4</ele>
        <time>2024-03-30T15:49:16.000Z</time>
      </trkpt>
      <trkpt lat="48.10215" lon="3.30723">
        <ele>160.5</ele>
        <time>2024-03-30T15:49:17.000Z</time>
      </trkpt>
      <trkpt lat="48.10217" lon="3.30724">
        <ele>160.6</ele>
        <time>2024-03-30T15:49:18.000Z</time>
      </trkpt>
      <trkpt lat="48.10219" lon="3.30724">
        <ele>160.7</ele>
        <time>2024-03-30T15:49:19.000Z</time>
      </trkpt>
      <trkpt lat="48.1022" lon="3.30725">
        <ele>160.7</ele>
        <time>2024-03-30T15:49:20.000Z</time>
      </trkpt>
      <trkpt lat="48.10219" lon="3.30725">
        <ele>160.7</ele>
        <time>2024-03-30T15:49:21.000Z</time>
      </trkpt>
      <trkpt lat="48.10219" lon="3.30724">
        <ele>160.7</ele>
        <time>2024-03-30T15:49:25.000Z</time>
      </trkpt>
      <trkpt lat="48.10219" lon="3.30724">
        <ele>160.7</ele>
        <time>2024-03-30T15:49:29.000Z</time>
      </trkpt>
      <trkpt lat="48.1022" lon="3.30722">
        <ele>160.8</ele>
        <time>2024-03-30T15:50:02.000Z</time>
      </trkpt>
      <trkpt lat="48.10221" lon="3.3072">
        <ele>160.8</ele>
        <time>2024-03-30T15:50:03.000Z</time>
      </trkpt>
      <trkpt lat="48.10223" lon="3.3071">
        <ele>160.6</ele>
        <time>2024-03-30T15:50:07.000Z</time>
      </trkpt>
      <trkpt lat="48.10223" lon="3.30708">
        <ele>160.5</ele>
        <time>2024-03-30T15:50:08.000Z</time>
      </trkpt>
      <trkpt lat="48.10222" lon="3.30706">
        <ele>160.4</ele>
        <time>2024-03-30T15:50:09.000Z</time>
      </trkpt>
      <trkpt lat="48.10222" lon="3.30703">
        <ele>160.3</ele>
        <time>2024-03-30T15:50:10.000Z</time>
      </trkpt>
      <trkpt lat="48.10223" lon="3.30693">
        <ele>160.1</ele>
        <time>2024-03-30T15:50:13.000Z</time>
      </trkpt>
      <trkpt lat="48.10227" lon="3.30668">
        <ele>160.3</ele>
        <time>2024-03-30T15:50:19.000Z</time>
      </trkpt>
      <trkpt lat="48.10229" lon="3.30634">
        <ele>160.6</ele>
        <time>2024-03-30T15:50:26.000Z</time>
      </trkpt>
      <trkpt lat="48.10231" lon="3.30603">
        <ele>161.3</ele>
        <time>2024-03-30T15:50:33.000Z</time>
      </trkpt>
      <trkpt lat="48.10232" lon="3.30598">
        <ele>161.4</ele>
        <time>2024-03-30T15:50:34.000Z</time>
      </trkpt>
      <trkpt lat="48.10232" lon="3.30594">
        <ele>161.4</ele>
        <time>2024-03-30T15:50:35.000Z</time>
      </trkpt>
      <trkpt lat="48.10233" lon="3.30589">
        <ele>161.4</ele>
        <time>2024-03-30T15:50:36.000Z</time>
      </trkpt>
      <trkpt lat="48.10236" lon="3.30574">
        <ele>161.5</ele>
        <time>2024-03-30T15:50:40.000Z</time>
      </trkpt>
      <trkpt lat="48.10238" lon="3.30572">
        <ele>161.6</ele>
        <time>2024-03-30T15:50:41.000Z</time>
      </trkpt>
      <trkpt lat="48.1024" lon="3.3057">
        <ele>161.6</ele>
        <time>2024-03-30T15:50:42.000Z</time>
      </trkpt>
      <trkpt lat="48.10241" lon="3.30569">
        <ele>161.7</ele>
        <time>2024-03-30T15:50:43.000Z</time>
      </trkpt>
      <trkpt lat="48.10243" lon="3.30567">
        <ele>161.7</ele>
        <time>2024-03-30T15:50:44.000Z</time>
      </trkpt>
      <trkpt lat="48.10244" lon="3.30566">
        <ele>161.8</ele>
        <time>2024-03-30T15:50:45.000Z</time>
      </trkpt>
      <trkpt lat="48.10246" lon="3.30565">
        <ele>161.9</ele>
        <time>2024-03-30T15:50:46.000Z</time>
      </trkpt>
      <trkpt lat="48.10248" lon="3.30564">
        <ele>161.9</ele>
        <time>2024-03-30T15:50:47.000Z</time>
      </trkpt>
      <trkpt lat="48.10249" lon="3.30563">
        <ele>162</ele>
        <time>2024-03-30T15:50:48.000Z</time>
      </trkpt>
      <trkpt lat="48.1025" lon="3.30563">
        <ele>162</ele>
        <time>2024-03-30T15:50:49.000Z</time>
      </trkpt>
      <trkpt lat="48.10252" lon="3.30562">
        <ele>162.1</ele>
        <time>2024-03-30T15:50:50.000Z</time>
      </trkpt>
      <trkpt lat="48.10253" lon="3.30561">
        <ele>162.1</ele>
        <time>2024-03-30T15:50:51.000Z</time>
      </trkpt>
      <trkpt lat="48.10255" lon="3.30562">
        <ele>162.2</ele>
        <time>2024-03-30T15:50:52.000Z</time>
      </trkpt>
      <trkpt lat="48.10256" lon="3.30561">
        <ele>162.2</ele>
        <time>2024-03-30T15:50:53.000Z</time>
      </trkpt>
      <trkpt lat="48.10256" lon="3.30561">
        <ele>162.2</ele>
        <time>2024-03-30T15:50:54.000Z</time>
      </trkpt>
      <trkpt lat="48.10257" lon="3.30561">
        <ele>162.3</ele>
        <time>2024-03-30T15:50:55.000Z</time>
      </trkpt>
      <trkpt lat="48.10257" lon="3.30561">
        <ele>162.3</ele>
        <time>2024-03-30T15:50:58.000Z</time>
      </trkpt>
      <trkpt lat="48.10259" lon="3.3056">
        <ele>162.3</ele>
        <time>2024-03-30T15:51:07.000Z</time>
      </trkpt>
      <trkpt lat="48.1026" lon="3.3056">
        <ele>162.4</ele>
        <time>2024-03-30T15:51:08.000Z</time>
      </trkpt>
      <trkpt lat="48.10261" lon="3.30561">
        <ele>162.4</ele>
        <time>2024-03-30T15:51:09.000Z</time>
      </trkpt>
      <trkpt lat="48.10263" lon="3.30562">
        <ele>162.5</ele>
        <time>2024-03-30T15:51:10.000Z</time>
      </trkpt>
      <trkpt lat="48.10265" lon="3.30561">
        <ele>162.5</ele>
        <time>2024-03-30T15:51:11.000Z</time>
      </trkpt>
      <trkpt lat="48.10271" lon="3.30561">
        <ele>162.8</ele>
        <time>2024-03-30T15:51:14.000Z</time>
      </trkpt>
      <trkpt lat="48.10273" lon="3.3056">
        <ele>162.8</ele>
        <time>2024-03-30T15:51:15.000Z</time>
      </trkpt>
      <trkpt lat="48.10275" lon="3.3056">
        <ele>162.9</ele>
        <time>2024-03-30T15:51:16.000Z</time>
      </trkpt>
      <trkpt lat="48.10282" lon="3.30559">
        <ele>163.2</ele>
        <time>2024-03-30T15:51:20.000Z</time>
      </trkpt>
      <trkpt lat="48.10283" lon="3.30558">
        <ele>163.2</ele>
        <time>2024-03-30T15:51:21.000Z</time>
      </trkpt>
      <trkpt lat="48.10284" lon="3.30557">
        <ele>163.2</ele>
        <time>2024-03-30T15:51:22.000Z</time>
      </trkpt>
      <trkpt lat="48.10285" lon="3.30555">
        <ele>163.3</ele>
        <time>2024-03-30T15:51:23.000Z</time>
      </trkpt>
      <trkpt lat="48.10285" lon="3.30553">
        <ele>163.3</ele>
        <time>2024-03-30T15:51:24.000Z</time>
      </trkpt>
      <trkpt lat="48.10285" lon="3.3055">
        <ele>163.3</ele>
        <time>2024-03-30T15:51:25.000Z</time>
      </trkpt>
      <trkpt lat="48.10285" lon="3.30546">
        <ele>163.3</ele>
        <time>2024-03-30T15:51:26.000Z</time>
      </trkpt>
      <trkpt lat="48.10285" lon="3.30543">
        <ele>163.3</ele>
        <time>2024-03-30T15:51:27.000Z</time>
      </trkpt>
      <trkpt lat="48.10284" lon="3.30536">
        <ele>163.2</ele>
        <time>2024-03-30T15:51:29.000Z</time>
      </trkpt>
      <trkpt lat="48.10284" lon="3.30519">
        <ele>163.5</ele>
        <time>2024-03-30T15:51:33.000Z</time>
      </trkpt>
      <trkpt lat="48.10285" lon="3.30511">
        <ele>163.7</ele>
        <time>2024-03-30T15:51:35.000Z</time>
      </trkpt>
      <trkpt lat="48.10284" lon="3.30507">
        <ele>163.8</ele>
        <time>2024-03-30T15:51:36.000Z</time>
      </trkpt>
      <trkpt lat="48.10284" lon="3.30507">
        <ele>163.8</ele>
        <time>2024-03-30T15:51:37.000Z</time>
      </trkpt>
      <trkpt lat="48.10284" lon="3.30507">
        <ele>163.8</ele>
        <time>2024-03-30T15:51:39.000Z</time>
      </trkpt>
      <trkpt lat="48.10284" lon="3.30507">
        <ele>163.8</ele>
        <time>2024-03-30T15:51:43.000Z</time>
      </trkpt>
      <trkpt lat="48.10284" lon="3.30507">
        <ele>163.8</ele>
        <time>2024-03-30T15:51:47.000Z</time>
      </trkpt>
      <trkpt lat="48.10282" lon="3.305">
        <ele>164</ele>
        <time>2024-03-30T15:51:54.000Z</time>
      </trkpt>
      <trkpt lat="48.10281" lon="3.30495">
        <ele>164</ele>
        <time>2024-03-30T15:51:56.000Z</time>
      </trkpt>
      <trkpt lat="48.1028" lon="3.30492">
        <ele>164</ele>
        <time>2024-03-30T15:51:57.000Z</time>
      </trkpt>
      <trkpt lat="48.10276" lon="3.30485">
        <ele>163.9</ele>
        <time>2024-03-30T15:52:00.000Z</time>
      </trkpt>
      <trkpt lat="48.10274" lon="3.30482">
        <ele>163.7</ele>
        <time>2024-03-30T15:52:01.000Z</time>
      </trkpt>
      <trkpt lat="48.10272" lon="3.30478">
        <ele>163.6</ele>
        <time>2024-03-30T15:52:02.000Z</time>
      </trkpt>
      <trkpt lat="48.10272" lon="3.30475">
        <ele>163.6</ele>
        <time>2024-03-30T15:52:03.000Z</time>
      </trkpt>
      <trkpt lat="48.10273" lon="3.30471">
        <ele>163.7</ele>
        <time>2024-03-30T15:52:04.000Z</time>
      </trkpt>
      <trkpt lat="48.10273" lon="3.30468">
        <ele>163.7</ele>
        <time>2024-03-30T15:52:05.000Z</time>
      </trkpt>
      <trkpt lat="48.10273" lon="3.30464">
        <ele>163.7</ele>
        <time>2024-03-30T15:52:06.000Z</time>
      </trkpt>
      <trkpt lat="48.10272" lon="3.30453">
        <ele>163.6</ele>
        <time>2024-03-30T15:52:09.000Z</time>
      </trkpt>
      <trkpt lat="48.10271" lon="3.30449">
        <ele>163.5</ele>
        <time>2024-03-30T15:52:10.000Z</time>
      </trkpt>
      <trkpt lat="48.1027" lon="3.30445">
        <ele>163.4</ele>
        <time>2024-03-30T15:52:11.000Z</time>
      </trkpt>
      <trkpt lat="48.10269" lon="3.30441">
        <ele>163.3</ele>
        <time>2024-03-30T15:52:12.000Z</time>
      </trkpt>
      <trkpt lat="48.10269" lon="3.30436">
        <ele>163.2</ele>
        <time>2024-03-30T15:52:13.000Z</time>
      </trkpt>
      <trkpt lat="48.10269" lon="3.30433">
        <ele>163.1</ele>
        <time>2024-03-30T15:52:14.000Z</time>
      </trkpt>
      <trkpt lat="48.10267" lon="3.30431">
        <ele>162.9</ele>
        <time>2024-03-30T15:52:15.000Z</time>
      </trkpt>
      <trkpt lat="48.10266" lon="3.30428">
        <ele>162.8</ele>
        <time>2024-03-30T15:52:16.000Z</time>
      </trkpt>
      <trkpt lat="48.10264" lon="3.30424">
        <ele>162.6</ele>
        <time>2024-03-30T15:52:17.000Z</time>
      </trkpt>
      <trkpt lat="48.10264" lon="3.30421">
        <ele>162.6</ele>
        <time>2024-03-30T15:52:18.000Z</time>
      </trkpt>
      <trkpt lat="48.10265" lon="3.30417">
        <ele>162.5</ele>
        <time>2024-03-30T15:52:19.000Z</time>
      </trkpt>
      <trkpt lat="48.10264" lon="3.30411">
        <ele>162.4</ele>
        <time>2024-03-30T15:52:21.000Z</time>
      </trkpt>
      <trkpt lat="48.10265" lon="3.30406">
        <ele>162.4</ele>
        <time>2024-03-30T15:52:22.000Z</time>
      </trkpt>
      <trkpt lat="48.10266" lon="3.30403">
        <ele>162.4</ele>
        <time>2024-03-30T15:52:23.000Z</time>
      </trkpt>
      <trkpt lat="48.10268" lon="3.30397">
        <ele>162.4</ele>
        <time>2024-03-30T15:52:25.000Z</time>
      </trkpt>
      <trkpt lat="48.10269" lon="3.30394">
        <ele>162.4</ele>
        <time>2024-03-30T15:52:26.000Z</time>
      </trkpt>
      <trkpt lat="48.10271" lon="3.30386">
        <ele>162.5</ele>
        <time>2024-03-30T15:52:28.000Z</time>
      </trkpt>
      <trkpt lat="48.10272" lon="3.3037">
        <ele>162.6</ele>
        <time>2024-03-30T15:52:32.000Z</time>
      </trkpt>
      <trkpt lat="48.10272" lon="3.30368">
        <ele>162.6</ele>
        <time>2024-03-30T15:52:33.000Z</time>
      </trkpt>
      <trkpt lat="48.10271" lon="3.30364">
        <ele>162.5</ele>
        <time>2024-03-30T15:52:34.000Z</time>
      </trkpt>
      <trkpt lat="48.1027" lon="3.30361">
        <ele>162.4</ele>
        <time>2024-03-30T15:52:35.000Z</time>
      </trkpt>
      <trkpt lat="48.10267" lon="3.30355">
        <ele>162.2</ele>
        <time>2024-03-30T15:52:37.000Z</time>
      </trkpt>
      <trkpt lat="48.10267" lon="3.30346">
        <ele>162.2</ele>
        <time>2024-03-30T15:52:39.000Z</time>
      </trkpt>
      <trkpt lat="48.10267" lon="3.30343">
        <ele>162.2</ele>
        <time>2024-03-30T15:52:40.000Z</time>
      </trkpt>
      <trkpt lat="48.10268" lon="3.30339">
        <ele>162.3</ele>
        <time>2024-03-30T15:52:41.000Z</time>
      </trkpt>
      <trkpt lat="48.10267" lon="3.30334">
        <ele>162.2</ele>
        <time>2024-03-30T15:52:42.000Z</time>
      </trkpt>
      <trkpt lat="48.10267" lon="3.3033">
        <ele>162.2</ele>
        <time>2024-03-30T15:52:43.000Z</time>
      </trkpt>
      <trkpt lat="48.10268" lon="3.30323">
        <ele>162.3</ele>
        <time>2024-03-30T15:52:45.000Z</time>
      </trkpt>
      <trkpt lat="48.10269" lon="3.3032">
        <ele>162.4</ele>
        <time>2024-03-30T15:52:46.000Z</time>
      </trkpt>
      <trkpt lat="48.10269" lon="3.30317">
        <ele>162.4</ele>
        <time>2024-03-30T15:52:47.000Z</time>
      </trkpt>
      <trkpt lat="48.10268" lon="3.30314">
        <ele>162.3</ele>
        <time>2024-03-30T15:52:48.000Z</time>
      </trkpt>
      <trkpt lat="48.10267" lon="3.30311">
        <ele>162.2</ele>
        <time>2024-03-30T15:52:49.000Z</time>
      </trkpt>
      <trkpt lat="48.10267" lon="3.30308">
        <ele>162.2</ele>
        <time>2024-03-30T15:52:50.000Z</time>
      </trkpt>
      <trkpt lat="48.10267" lon="3.30304">
        <ele>162.2</ele>
        <time>2024-03-30T15:52:51.000Z</time>
      </trkpt>
      <trkpt lat="48.10267" lon="3.303">
        <ele>162.2</ele>
        <time>2024-03-30T15:52:52.000Z</time>
      </trkpt>
      <trkpt lat="48.10266" lon="3.30296">
        <ele>162.2</ele>
        <time>2024-03-30T15:52:53.000Z</time>
      </trkpt>
      <trkpt lat="48.10264" lon="3.30291">
        <ele>162</ele>
        <time>2024-03-30T15:52:54.000Z</time>
      </trkpt>
      <trkpt lat="48.10262" lon="3.30287">
        <ele>161.9</ele>
        <time>2024-03-30T15:52:55.000Z</time>
      </trkpt>
      <trkpt lat="48.10262" lon="3.30283">
        <ele>161.9</ele>
        <time>2024-03-30T15:52:56.000Z</time>
      </trkpt>
      <trkpt lat="48.10261" lon="3.3028">
        <ele>161.8</ele>
        <time>2024-03-30T15:52:57.000Z</time>
      </trkpt>
      <trkpt lat="48.10262" lon="3.30277">
        <ele>161.9</ele>
        <time>2024-03-30T15:52:58.000Z</time>
      </trkpt>
      <trkpt lat="48.10262" lon="3.30274">
        <ele>161.9</ele>
        <time>2024-03-30T15:52:59.000Z</time>
      </trkpt>
      <trkpt lat="48.1026" lon="3.3027">
        <ele>161.7</ele>
        <time>2024-03-30T15:53:00.000Z</time>
      </trkpt>
      <trkpt lat="48.10254" lon="3.30265">
        <ele>161.3</ele>
        <time>2024-03-30T15:53:02.000Z</time>
      </trkpt>
      <trkpt lat="48.10252" lon="3.30263">
        <ele>161.1</ele>
        <time>2024-03-30T15:53:03.000Z</time>
      </trkpt>
      <trkpt lat="48.1025" lon="3.30261">
        <ele>161</ele>
        <time>2024-03-30T15:53:04.000Z</time>
      </trkpt>
      <trkpt lat="48.10248" lon="3.30259">
        <ele>160.9</ele>
        <time>2024-03-30T15:53:05.000Z</time>
      </trkpt>
      <trkpt lat="48.10244" lon="3.30256">
        <ele>160.7</ele>
        <time>2024-03-30T15:53:06.000Z</time>
      </trkpt>
      <trkpt lat="48.10242" lon="3.30254">
        <ele>160.7</ele>
        <time>2024-03-30T15:53:07.000Z</time>
      </trkpt>
      <trkpt lat="48.10241" lon="3.30251">
        <ele>160.7</ele>
        <time>2024-03-30T15:53:08.000Z</time>
      </trkpt>
      <trkpt lat="48.10239" lon="3.30247">
        <ele>160.7</ele>
        <time>2024-03-30T15:53:09.000Z</time>
      </trkpt>
      <trkpt lat="48.10238" lon="3.30243">
        <ele>160.8</ele>
        <time>2024-03-30T15:53:10.000Z</time>
      </trkpt>
      <trkpt lat="48.10237" lon="3.3024">
        <ele>160.9</ele>
        <time>2024-03-30T15:53:11.000Z</time>
      </trkpt>
      <trkpt lat="48.10236" lon="3.30238">
        <ele>160.9</ele>
        <time>2024-03-30T15:53:12.000Z</time>
      </trkpt>
      <trkpt lat="48.10234" lon="3.30236">
        <ele>160.9</ele>
        <time>2024-03-30T15:53:13.000Z</time>
      </trkpt>
      <trkpt lat="48.10234" lon="3.30236">
        <ele>160.9</ele>
        <time>2024-03-30T15:53:14.000Z</time>
      </trkpt>
      <trkpt lat="48.10234" lon="3.30236">
        <ele>160.9</ele>
        <time>2024-03-30T15:53:15.000Z</time>
      </trkpt>
      <trkpt lat="48.10234" lon="3.30236">
        <ele>160.9</ele>
        <time>2024-03-30T15:53:16.000Z</time>
      </trkpt>
      <trkpt lat="48.10233" lon="3.30236">
        <ele>160.9</ele>
        <time>2024-03-30T15:53:17.000Z</time>
      </trkpt>
      <trkpt lat="48.10232" lon="3.30236">
        <ele>160.9</ele>
        <time>2024-03-30T15:53:22.000Z</time>
      </trkpt>
      <trkpt lat="48.10231" lon="3.30236">
        <ele>160.8</ele>
        <time>2024-03-30T15:53:23.000Z</time>
      </trkpt>
      <trkpt lat="48.10229" lon="3.30237">
        <ele>160.7</ele>
        <time>2024-03-30T15:53:25.000Z</time>
      </trkpt>
      <trkpt lat="48.10224" lon="3.30236">
        <ele>160.6</ele>
        <time>2024-03-30T15:53:28.000Z</time>
      </trkpt>
      <trkpt lat="48.10223" lon="3.30235">
        <ele>160.6</ele>
        <time>2024-03-30T15:53:29.000Z</time>
      </trkpt>
      <trkpt lat="48.10222" lon="3.30234">
        <ele>160.6</ele>
        <time>2024-03-30T15:53:30.000Z</time>
      </trkpt>
      <trkpt lat="48.10222" lon="3.30233">
        <ele>160.6</ele>
        <time>2024-03-30T15:53:31.000Z</time>
      </trkpt>
      <trkpt lat="48.10222" lon="3.30233">
        <ele>160.6</ele>
        <time>2024-03-30T15:53:32.000Z</time>
      </trkpt>
      <trkpt lat="48.1022" lon="3.30233">
        <ele>160.4</ele>
        <time>2024-03-30T15:53:33.000Z</time>
      </trkpt>
      <trkpt lat="48.10218" lon="3.30232">
        <ele>160.2</ele>
        <time>2024-03-30T15:53:34.000Z</time>
      </trkpt>
      <trkpt lat="48.10216" lon="3.30231">
        <ele>160</ele>
        <time>2024-03-30T15:53:35.000Z</time>
      </trkpt>
      <trkpt lat="48.10215" lon="3.3023">
        <ele>159.9</ele>
        <time>2024-03-30T15:53:36.000Z</time>
      </trkpt>
      <trkpt lat="48.10214" lon="3.30228">
        <ele>159.9</ele>
        <time>2024-03-30T15:53:37.000Z</time>
      </trkpt>
      <trkpt lat="48.10213" lon="3.30226">
        <ele>159.9</ele>
        <time>2024-03-30T15:53:38.000Z</time>
      </trkpt>
      <trkpt lat="48.10213" lon="3.30224">
        <ele>159.9</ele>
        <time>2024-03-30T15:53:39.000Z</time>
      </trkpt>
      <trkpt lat="48.10212" lon="3.30222">
        <ele>159.9</ele>
        <time>2024-03-30T15:53:40.000Z</time>
      </trkpt>
      <trkpt lat="48.10212" lon="3.3022">
        <ele>159.9</ele>
        <time>2024-03-30T15:53:41.000Z</time>
      </trkpt>
      <trkpt lat="48.10212" lon="3.30219">
        <ele>159.9</ele>
        <time>2024-03-30T15:53:42.000Z</time>
      </trkpt>
      <trkpt lat="48.10212" lon="3.30219">
        <ele>159.9</ele>
        <time>2024-03-30T15:53:45.000Z</time>
      </trkpt>
      <trkpt lat="48.10209" lon="3.30216">
        <ele>159.7</ele>
        <time>2024-03-30T15:53:48.000Z</time>
      </trkpt>
      <trkpt lat="48.10207" lon="3.30212">
        <ele>159.6</ele>
        <time>2024-03-30T15:53:51.000Z</time>
      </trkpt>
      <trkpt lat="48.10203" lon="3.30209">
        <ele>159.3</ele>
        <time>2024-03-30T15:53:53.000Z</time>
      </trkpt>
      <trkpt lat="48.10198" lon="3.30204">
        <ele>159</ele>
        <time>2024-03-30T15:53:58.000Z</time>
      </trkpt>
      <trkpt lat="48.10197" lon="3.30203">
        <ele>158.9</ele>
        <time>2024-03-30T15:53:59.000Z</time>
      </trkpt>
      <trkpt lat="48.10196" lon="3.30201">
        <ele>158.9</ele>
        <time>2024-03-30T15:54:00.000Z</time>
      </trkpt>
      <trkpt lat="48.10195" lon="3.30198">
        <ele>158.9</ele>
        <time>2024-03-30T15:54:02.000Z</time>
      </trkpt>
      <trkpt lat="48.10195" lon="3.30197">
        <ele>158.9</ele>
        <time>2024-03-30T15:54:03.000Z</time>
      </trkpt>
      <trkpt lat="48.10195" lon="3.30197">
        <ele>158.9</ele>
        <time>2024-03-30T15:54:04.000Z</time>
      </trkpt>
      <trkpt lat="48.10194" lon="3.30197">
        <ele>158.9</ele>
        <time>2024-03-30T15:54:05.000Z</time>
      </trkpt>
      <trkpt lat="48.10194" lon="3.30196">
        <ele>158.9</ele>
        <time>2024-03-30T15:54:06.000Z</time>
      </trkpt>
      <trkpt lat="48.10193" lon="3.30197">
        <ele>158.9</ele>
        <time>2024-03-30T15:54:07.000Z</time>
      </trkpt>
      <trkpt lat="48.10193" lon="3.30196">
        <ele>158.9</ele>
        <time>2024-03-30T15:54:08.000Z</time>
      </trkpt>
      <trkpt lat="48.10191" lon="3.30196">
        <ele>158.8</ele>
        <time>2024-03-30T15:54:09.000Z</time>
      </trkpt>
      <trkpt lat="48.10185" lon="3.30191">
        <ele>158.9</ele>
        <time>2024-03-30T15:54:13.000Z</time>
      </trkpt>
      <trkpt lat="48.10182" lon="3.30186">
        <ele>159</ele>
        <time>2024-03-30T15:54:15.000Z</time>
      </trkpt>
      <trkpt lat="48.10182" lon="3.30183">
        <ele>159.2</ele>
        <time>2024-03-30T15:54:16.000Z</time>
      </trkpt>
      <trkpt lat="48.10181" lon="3.30181">
        <ele>159.2</ele>
        <time>2024-03-30T15:54:17.000Z</time>
      </trkpt>
      <trkpt lat="48.1018" lon="3.30179">
        <ele>159.3</ele>
        <time>2024-03-30T15:54:18.000Z</time>
      </trkpt>
      <trkpt lat="48.10176" lon="3.30169">
        <ele>159.6</ele>
        <time>2024-03-30T15:54:22.000Z</time>
      </trkpt>
      <trkpt lat="48.10175" lon="3.30166">
        <ele>159.6</ele>
        <time>2024-03-30T15:54:23.000Z</time>
      </trkpt>
      <trkpt lat="48.10172" lon="3.30163">
        <ele>159.6</ele>
        <time>2024-03-30T15:54:24.000Z</time>
      </trkpt>
      <trkpt lat="48.1017" lon="3.30157">
        <ele>159.9</ele>
        <time>2024-03-30T15:54:26.000Z</time>
      </trkpt>
      <trkpt lat="48.10166" lon="3.30151">
        <ele>160.1</ele>
        <time>2024-03-30T15:54:28.000Z</time>
      </trkpt>
      <trkpt lat="48.10165" lon="3.30147">
        <ele>160.3</ele>
        <time>2024-03-30T15:54:29.000Z</time>
      </trkpt>
      <trkpt lat="48.10164" lon="3.30141">
        <ele>160.7</ele>
        <time>2024-03-30T15:54:31.000Z</time>
      </trkpt>
      <trkpt lat="48.10164" lon="3.30139">
        <ele>160.8</ele>
        <time>2024-03-30T15:54:32.000Z</time>
      </trkpt>
      <trkpt lat="48.10156" lon="3.30123">
        <ele>160.8</ele>
        <time>2024-03-30T15:54:38.000Z</time>
      </trkpt>
      <trkpt lat="48.10154" lon="3.30121">
        <ele>160.7</ele>
        <time>2024-03-30T15:54:39.000Z</time>
      </trkpt>
      <trkpt lat="48.10151" lon="3.3012">
        <ele>160.6</ele>
        <time>2024-03-30T15:54:40.000Z</time>
      </trkpt>
      <trkpt lat="48.10149" lon="3.30118">
        <ele>160.5</ele>
        <time>2024-03-30T15:54:41.000Z</time>
      </trkpt>
      <trkpt lat="48.10144" lon="3.30113">
        <ele>160.3</ele>
        <time>2024-03-30T15:54:44.000Z</time>
      </trkpt>
      <trkpt lat="48.10144" lon="3.3011">
        <ele>160.4</ele>
        <time>2024-03-30T15:54:45.000Z</time>
      </trkpt>
      <trkpt lat="48.10146" lon="3.30107">
        <ele>160.7</ele>
        <time>2024-03-30T15:54:47.000Z</time>
      </trkpt>
      <trkpt lat="48.10148" lon="3.30106">
        <ele>160.8</ele>
        <time>2024-03-30T15:54:48.000Z</time>
      </trkpt>
      <trkpt lat="48.10149" lon="3.30106">
        <ele>160.9</ele>
        <time>2024-03-30T15:54:49.000Z</time>
      </trkpt>
      <trkpt lat="48.10151" lon="3.30105">
        <ele>161.1</ele>
        <time>2024-03-30T15:54:50.000Z</time>
      </trkpt>
      <trkpt lat="48.10152" lon="3.30105">
        <ele>161.2</ele>
        <time>2024-03-30T15:54:51.000Z</time>
      </trkpt>
      <trkpt lat="48.10154" lon="3.30104">
        <ele>161.3</ele>
        <time>2024-03-30T15:54:52.000Z</time>
      </trkpt>
      <trkpt lat="48.10156" lon="3.30104">
        <ele>161.5</ele>
        <time>2024-03-30T15:54:53.000Z</time>
      </trkpt>
      <trkpt lat="48.10161" lon="3.30101">
        <ele>162</ele>
        <time>2024-03-30T15:54:56.000Z</time>
      </trkpt>
      <trkpt lat="48.10166" lon="3.30101">
        <ele>162.3</ele>
        <time>2024-03-30T15:54:59.000Z</time>
      </trkpt>
      <trkpt lat="48.10167" lon="3.301">
        <ele>162.4</ele>
        <time>2024-03-30T15:55:00.000Z</time>
      </trkpt>
      <trkpt lat="48.10169" lon="3.30098">
        <ele>162.6</ele>
        <time>2024-03-30T15:55:01.000Z</time>
      </trkpt>
      <trkpt lat="48.1017" lon="3.30097">
        <ele>162.6</ele>
        <time>2024-03-30T15:55:02.000Z</time>
      </trkpt>
      <trkpt lat="48.10172" lon="3.30095">
        <ele>162.8</ele>
        <time>2024-03-30T15:55:03.000Z</time>
      </trkpt>
      <trkpt lat="48.10176" lon="3.3009">
        <ele>163.1</ele>
        <time>2024-03-30T15:55:06.000Z</time>
      </trkpt>
      <trkpt lat="48.1018" lon="3.30084">
        <ele>163.5</ele>
        <time>2024-03-30T15:55:09.000Z</time>
      </trkpt>
      <trkpt lat="48.10188" lon="3.30077">
        <ele>164</ele>
        <time>2024-03-30T15:55:14.000Z</time>
      </trkpt>
      <trkpt lat="48.10189" lon="3.30076">
        <ele>164.1</ele>
        <time>2024-03-30T15:55:15.000Z</time>
      </trkpt>
      <trkpt lat="48.1019" lon="3.30075">
        <ele>164.1</ele>
        <time>2024-03-30T15:55:16.000Z</time>
      </trkpt>
      <trkpt lat="48.10192" lon="3.30073">
        <ele>164.3</ele>
        <time>2024-03-30T15:55:17.000Z</time>
      </trkpt>
      <trkpt lat="48.10193" lon="3.30072">
        <ele>164.4</ele>
        <time>2024-03-30T15:55:18.000Z</time>
      </trkpt>
      <trkpt lat="48.10195" lon="3.3007">
        <ele>164.5</ele>
        <time>2024-03-30T15:55:19.000Z</time>
      </trkpt>
      <trkpt lat="48.10197" lon="3.30069">
        <ele>164.6</ele>
        <time>2024-03-30T15:55:20.000Z</time>
      </trkpt>
      <trkpt lat="48.10198" lon="3.30067">
        <ele>164.6</ele>
        <time>2024-03-30T15:55:21.000Z</time>
      </trkpt>
      <trkpt lat="48.102" lon="3.30066">
        <ele>164.7</ele>
        <time>2024-03-30T15:55:22.000Z</time>
      </trkpt>
      <trkpt lat="48.10202" lon="3.30066">
        <ele>164.7</ele>
        <time>2024-03-30T15:55:23.000Z</time>
      </trkpt>
      <trkpt lat="48.10204" lon="3.30065">
        <ele>164.8</ele>
        <time>2024-03-30T15:55:24.000Z</time>
      </trkpt>
      <trkpt lat="48.10205" lon="3.30064">
        <ele>164.8</ele>
        <time>2024-03-30T15:55:25.000Z</time>
      </trkpt>
      <trkpt lat="48.10207" lon="3.30062">
        <ele>164.9</ele>
        <time>2024-03-30T15:55:26.000Z</time>
      </trkpt>
      <trkpt lat="48.10209" lon="3.30061">
        <ele>164.9</ele>
        <time>2024-03-30T15:55:27.000Z</time>
      </trkpt>
      <trkpt lat="48.1021" lon="3.3006">
        <ele>164.9</ele>
        <time>2024-03-30T15:55:28.000Z</time>
      </trkpt>
      <trkpt lat="48.10212" lon="3.30061">
        <ele>164.9</ele>
        <time>2024-03-30T15:55:29.000Z</time>
      </trkpt>
      <trkpt lat="48.10213" lon="3.30061">
        <ele>164.9</ele>
        <time>2024-03-30T15:55:30.000Z</time>
      </trkpt>
      <trkpt lat="48.10215" lon="3.3006">
        <ele>165</ele>
        <time>2024-03-30T15:55:31.000Z</time>
      </trkpt>
      <trkpt lat="48.10216" lon="3.30059">
        <ele>165</ele>
        <time>2024-03-30T15:55:32.000Z</time>
      </trkpt>
      <trkpt lat="48.10218" lon="3.30059">
        <ele>165</ele>
        <time>2024-03-30T15:55:33.000Z</time>
      </trkpt>
      <trkpt lat="48.1022" lon="3.30059">
        <ele>165</ele>
        <time>2024-03-30T15:55:34.000Z</time>
      </trkpt>
      <trkpt lat="48.10221" lon="3.30058">
        <ele>165</ele>
        <time>2024-03-30T15:55:35.000Z</time>
      </trkpt>
      <trkpt lat="48.10223" lon="3.30057">
        <ele>165</ele>
        <time>2024-03-30T15:55:36.000Z</time>
      </trkpt>
      <trkpt lat="48.10225" lon="3.30056">
        <ele>165</ele>
        <time>2024-03-30T15:55:37.000Z</time>
      </trkpt>
      <trkpt lat="48.10227" lon="3.30055">
        <ele>165</ele>
        <time>2024-03-30T15:55:38.000Z</time>
      </trkpt>
      <trkpt lat="48.10229" lon="3.30054">
        <ele>165</ele>
        <time>2024-03-30T15:55:39.000Z</time>
      </trkpt>
      <trkpt lat="48.10231" lon="3.30054">
        <ele>165</ele>
        <time>2024-03-30T15:55:40.000Z</time>
      </trkpt>
      <trkpt lat="48.10232" lon="3.30053">
        <ele>165</ele>
        <time>2024-03-30T15:55:41.000Z</time>
      </trkpt>
      <trkpt lat="48.10234" lon="3.30053">
        <ele>165</ele>
        <time>2024-03-30T15:55:42.000Z</time>
      </trkpt>
      <trkpt lat="48.10235" lon="3.30052">
        <ele>165</ele>
        <time>2024-03-30T15:55:43.000Z</time>
      </trkpt>
      <trkpt lat="48.10238" lon="3.30049">
        <ele>165</ele>
        <time>2024-03-30T15:55:45.000Z</time>
      </trkpt>
      <trkpt lat="48.10239" lon="3.30048">
        <ele>165</ele>
        <time>2024-03-30T15:55:46.000Z</time>
      </trkpt>
      <trkpt lat="48.10241" lon="3.30047">
        <ele>165</ele>
        <time>2024-03-30T15:55:47.000Z</time>
      </trkpt>
      <trkpt lat="48.10242" lon="3.30046">
        <ele>165</ele>
        <time>2024-03-30T15:55:48.000Z</time>
      </trkpt>
      <trkpt lat="48.10243" lon="3.30045">
        <ele>165</ele>
        <time>2024-03-30T15:55:49.000Z</time>
      </trkpt>
      <trkpt lat="48.10243" lon="3.30043">
        <ele>165</ele>
        <time>2024-03-30T15:55:50.000Z</time>
      </trkpt>
      <trkpt lat="48.10244" lon="3.30042">
        <ele>165</ele>
        <time>2024-03-30T15:55:51.000Z</time>
      </trkpt>
      <trkpt lat="48.10244" lon="3.30042">
        <ele>165</ele>
        <time>2024-03-30T15:55:54.000Z</time>
      </trkpt>
      <trkpt lat="48.10244" lon="3.30041">
        <ele>165</ele>
        <time>2024-03-30T15:55:57.000Z</time>
      </trkpt>
      <trkpt lat="48.10245" lon="3.30036">
        <ele>165</ele>
        <time>2024-03-30T15:56:00.000Z</time>
      </trkpt>
      <trkpt lat="48.10245" lon="3.30033">
        <ele>165</ele>
        <time>2024-03-30T15:56:01.000Z</time>
      </trkpt>
      <trkpt lat="48.10246" lon="3.30028">
        <ele>165</ele>
        <time>2024-03-30T15:56:03.000Z</time>
      </trkpt>
      <trkpt lat="48.10247" lon="3.30025">
        <ele>165</ele>
        <time>2024-03-30T15:56:04.000Z</time>
      </trkpt>
      <trkpt lat="48.10248" lon="3.3002">
        <ele>165</ele>
        <time>2024-03-30T15:56:06.000Z</time>
      </trkpt>
      <trkpt lat="48.10251" lon="3.29996">
        <ele>165</ele>
        <time>2024-03-30T15:56:12.000Z</time>
      </trkpt>
      <trkpt lat="48.10251" lon="3.29992">
        <ele>165</ele>
        <time>2024-03-30T15:56:13.000Z</time>
      </trkpt>
      <trkpt lat="48.10252" lon="3.29985">
        <ele>165</ele>
        <time>2024-03-30T15:56:15.000Z</time>
      </trkpt>
      <trkpt lat="48.10252" lon="3.29984">
        <ele>165</ele>
        <time>2024-03-30T15:56:16.000Z</time>
      </trkpt>
      <trkpt lat="48.10252" lon="3.29984">
        <ele>165</ele>
        <time>2024-03-30T15:56:17.000Z</time>
      </trkpt>
      <trkpt lat="48.10252" lon="3.29983">
        <ele>165</ele>
        <time>2024-03-30T15:56:18.000Z</time>
      </trkpt>
      <trkpt lat="48.10252" lon="3.29983">
        <ele>165</ele>
        <time>2024-03-30T15:56:19.000Z</time>
      </trkpt>
      <trkpt lat="48.10252" lon="3.29983">
        <ele>165</ele>
        <time>2024-03-30T15:56:25.000Z</time>
      </trkpt>
      <trkpt lat="48.10254" lon="3.29975">
        <ele>165</ele>
        <time>2024-03-30T15:56:32.000Z</time>
      </trkpt>
      <trkpt lat="48.10254" lon="3.29972">
        <ele>165</ele>
        <time>2024-03-30T15:56:33.000Z</time>
      </trkpt>
      <trkpt lat="48.10254" lon="3.29968">
        <ele>165</ele>
        <time>2024-03-30T15:56:34.000Z</time>
      </trkpt>
      <trkpt lat="48.10255" lon="3.29958">
        <ele>165</ele>
        <time>2024-03-30T15:56:37.000Z</time>
      </trkpt>
      <trkpt lat="48.10255" lon="3.29954">
        <ele>165</ele>
        <time>2024-03-30T15:56:38.000Z</time>
      </trkpt>
      <trkpt lat="48.10255" lon="3.29948">
        <ele>165</ele>
        <time>2024-03-30T15:56:39.000Z</time>
      </trkpt>
      <trkpt lat="48.10256" lon="3.2993">
        <ele>165</ele>
        <time>2024-03-30T15:56:43.000Z</time>
      </trkpt>
      <trkpt lat="48.10255" lon="3.29926">
        <ele>165</ele>
        <time>2024-03-30T15:56:44.000Z</time>
      </trkpt>
      <trkpt lat="48.10254" lon="3.29921">
        <ele>165</ele>
        <time>2024-03-30T15:56:45.000Z</time>
      </trkpt>
      <trkpt lat="48.10253" lon="3.29912">
        <ele>165</ele>
        <time>2024-03-30T15:56:47.000Z</time>
      </trkpt>
      <trkpt lat="48.10249" lon="3.29901">
        <ele>165</ele>
        <time>2024-03-30T15:56:50.000Z</time>
      </trkpt>
      <trkpt lat="48.10249" lon="3.29898">
        <ele>165</ele>
        <time>2024-03-30T15:56:51.000Z</time>
      </trkpt>
      <trkpt lat="48.10249" lon="3.29894">
        <ele>165</ele>
        <time>2024-03-30T15:56:52.000Z</time>
      </trkpt>
      <trkpt lat="48.10248" lon="3.29891">
        <ele>165</ele>
        <time>2024-03-30T15:56:53.000Z</time>
      </trkpt>
      <trkpt lat="48.10247" lon="3.29885">
        <ele>165</ele>
        <time>2024-03-30T15:56:54.000Z</time>
      </trkpt>
      <trkpt lat="48.10246" lon="3.2988">
        <ele>165</ele>
        <time>2024-03-30T15:56:55.000Z</time>
      </trkpt>
      <trkpt lat="48.10244" lon="3.29866">
        <ele>165</ele>
        <time>2024-03-30T15:56:58.000Z</time>
      </trkpt>
      <trkpt lat="48.10239" lon="3.2984">
        <ele>165</ele>
        <time>2024-03-30T15:57:03.000Z</time>
      </trkpt>
      <trkpt lat="48.10238" lon="3.29811">
        <ele>164.5</ele>
        <time>2024-03-30T15:57:08.000Z</time>
      </trkpt>
      <trkpt lat="48.10239" lon="3.29806">
        <ele>164.4</ele>
        <time>2024-03-30T15:57:09.000Z</time>
      </trkpt>
      <trkpt lat="48.10241" lon="3.29801">
        <ele>164.3</ele>
        <time>2024-03-30T15:57:10.000Z</time>
      </trkpt>
      <trkpt lat="48.10241" lon="3.29797">
        <ele>164.2</ele>
        <time>2024-03-30T15:57:11.000Z</time>
      </trkpt>
      <trkpt lat="48.10242" lon="3.29794">
        <ele>164.2</ele>
        <time>2024-03-30T15:57:12.000Z</time>
      </trkpt>
      <trkpt lat="48.10242" lon="3.29791">
        <ele>164.1</ele>
        <time>2024-03-30T15:57:13.000Z</time>
      </trkpt>
      <trkpt lat="48.10242" lon="3.29788">
        <ele>164.1</ele>
        <time>2024-03-30T15:57:14.000Z</time>
      </trkpt>
      <trkpt lat="48.10242" lon="3.29786">
        <ele>164.1</ele>
        <time>2024-03-30T15:57:15.000Z</time>
      </trkpt>
      <trkpt lat="48.10243" lon="3.29783">
        <ele>164</ele>
        <time>2024-03-30T15:57:16.000Z</time>
      </trkpt>
      <trkpt lat="48.10243" lon="3.2978">
        <ele>164</ele>
        <time>2024-03-30T15:57:17.000Z</time>
      </trkpt>
      <trkpt lat="48.10243" lon="3.29776">
        <ele>164</ele>
        <time>2024-03-30T15:57:19.000Z</time>
      </trkpt>
      <trkpt lat="48.10243" lon="3.29772">
        <ele>164</ele>
        <time>2024-03-30T15:57:20.000Z</time>
      </trkpt>
      <trkpt lat="48.10243" lon="3.29768">
        <ele>164</ele>
        <time>2024-03-30T15:57:21.000Z</time>
      </trkpt>
      <trkpt lat="48.10243" lon="3.29764">
        <ele>164</ele>
        <time>2024-03-30T15:57:22.000Z</time>
      </trkpt>
      <trkpt lat="48.10242" lon="3.29753">
        <ele>164</ele>
        <time>2024-03-30T15:57:25.000Z</time>
      </trkpt>
      <trkpt lat="48.10241" lon="3.29749">
        <ele>164</ele>
        <time>2024-03-30T15:57:26.000Z</time>
      </trkpt>
      <trkpt lat="48.10241" lon="3.29739">
        <ele>164</ele>
        <time>2024-03-30T15:57:29.000Z</time>
      </trkpt>
      <trkpt lat="48.10241" lon="3.29735">
        <ele>164</ele>
        <time>2024-03-30T15:57:30.000Z</time>
      </trkpt>
      <trkpt lat="48.10241" lon="3.29732">
        <ele>164</ele>
        <time>2024-03-30T15:57:31.000Z</time>
      </trkpt>
      <trkpt lat="48.10241" lon="3.29709">
        <ele>164.2</ele>
        <time>2024-03-30T15:57:36.000Z</time>
      </trkpt>
      <trkpt lat="48.10241" lon="3.29698">
        <ele>164.3</ele>
        <time>2024-03-30T15:57:39.000Z</time>
      </trkpt>
      <trkpt lat="48.10242" lon="3.29694">
        <ele>164.3</ele>
        <time>2024-03-30T15:57:40.000Z</time>
      </trkpt>
      <trkpt lat="48.10242" lon="3.29687">
        <ele>164.3</ele>
        <time>2024-03-30T15:57:42.000Z</time>
      </trkpt>
      <trkpt lat="48.10241" lon="3.29684">
        <ele>164.3</ele>
        <time>2024-03-30T15:57:43.000Z</time>
      </trkpt>
      <trkpt lat="48.10239" lon="3.29681">
        <ele>164.4</ele>
        <time>2024-03-30T15:57:44.000Z</time>
      </trkpt>
      <trkpt lat="48.10237" lon="3.29677">
        <ele>164.5</ele>
        <time>2024-03-30T15:57:45.000Z</time>
      </trkpt>
      <trkpt lat="48.10237" lon="3.29676">
        <ele>164.5</ele>
        <time>2024-03-30T15:57:46.000Z</time>
      </trkpt>
      <trkpt lat="48.10237" lon="3.29676">
        <ele>164.5</ele>
        <time>2024-03-30T15:57:51.000Z</time>
      </trkpt>
      <trkpt lat="48.10234" lon="3.29674">
        <ele>164.6</ele>
        <time>2024-03-30T15:58:00.000Z</time>
      </trkpt>
      <trkpt lat="48.10234" lon="3.29672">
        <ele>164.6</ele>
        <time>2024-03-30T15:58:01.000Z</time>
      </trkpt>
      <trkpt lat="48.10234" lon="3.2966">
        <ele>164.6</ele>
        <time>2024-03-30T15:58:05.000Z</time>
      </trkpt>
      <trkpt lat="48.10234" lon="3.29657">
        <ele>164.6</ele>
        <time>2024-03-30T15:58:06.000Z</time>
      </trkpt>
      <trkpt lat="48.10231" lon="3.29645">
        <ele>164.7</ele>
        <time>2024-03-30T15:58:09.000Z</time>
      </trkpt>
      <trkpt lat="48.10229" lon="3.2964">
        <ele>164.8</ele>
        <time>2024-03-30T15:58:10.000Z</time>
      </trkpt>
      <trkpt lat="48.10225" lon="3.29627">
        <ele>164.5</ele>
        <time>2024-03-30T15:58:13.000Z</time>
      </trkpt>
      <trkpt lat="48.10224" lon="3.29623">
        <ele>164.4</ele>
        <time>2024-03-30T15:58:14.000Z</time>
      </trkpt>
      <trkpt lat="48.10223" lon="3.29619">
        <ele>164.3</ele>
        <time>2024-03-30T15:58:15.000Z</time>
      </trkpt>
      <trkpt lat="48.10222" lon="3.29616">
        <ele>164.2</ele>
        <time>2024-03-30T15:58:16.000Z</time>
      </trkpt>
      <trkpt lat="48.10221" lon="3.29612">
        <ele>164.1</ele>
        <time>2024-03-30T15:58:17.000Z</time>
      </trkpt>
      <trkpt lat="48.10221" lon="3.29608">
        <ele>164</ele>
        <time>2024-03-30T15:58:18.000Z</time>
      </trkpt>
      <trkpt lat="48.10218" lon="3.29599">
        <ele>164.2</ele>
        <time>2024-03-30T15:58:20.000Z</time>
      </trkpt>
      <trkpt lat="48.10217" lon="3.29595">
        <ele>164.2</ele>
        <time>2024-03-30T15:58:21.000Z</time>
      </trkpt>
      <trkpt lat="48.10216" lon="3.29592">
        <ele>164.2</ele>
        <time>2024-03-30T15:58:22.000Z</time>
      </trkpt>
      <trkpt lat="48.10213" lon="3.29588">
        <ele>164.3</ele>
        <time>2024-03-30T15:58:23.000Z</time>
      </trkpt>
      <trkpt lat="48.10211" lon="3.29586">
        <ele>164.4</ele>
        <time>2024-03-30T15:58:24.000Z</time>
      </trkpt>
      <trkpt lat="48.1021" lon="3.29584">
        <ele>164.4</ele>
        <time>2024-03-30T15:58:25.000Z</time>
      </trkpt>
      <trkpt lat="48.10201" lon="3.29578">
        <ele>164.8</ele>
        <time>2024-03-30T15:58:29.000Z</time>
      </trkpt>
      <trkpt lat="48.10199" lon="3.29574">
        <ele>164.8</ele>
        <time>2024-03-30T15:58:30.000Z</time>
      </trkpt>
      <trkpt lat="48.10199" lon="3.29574">
        <ele>164.8</ele>
        <time>2024-03-30T15:58:32.000Z</time>
      </trkpt>
      <trkpt lat="48.10199" lon="3.29574">
        <ele>164.8</ele>
        <time>2024-03-30T15:58:41.000Z</time>
      </trkpt>
      <trkpt lat="48.10199" lon="3.29574">
        <ele>164.8</ele>
        <time>2024-03-30T15:58:42.000Z</time>
      </trkpt>
      <trkpt lat="48.10199" lon="3.29574">
        <ele>164.8</ele>
        <time>2024-03-30T15:58:48.000Z</time>
      </trkpt>
      <trkpt lat="48.10199" lon="3.29574">
        <ele>164.8</ele>
        <time>2024-03-30T15:58:53.000Z</time>
      </trkpt>
      <trkpt lat="48.10198" lon="3.29575">
        <ele>164.9</ele>
        <time>2024-03-30T15:58:55.000Z</time>
      </trkpt>
      <trkpt lat="48.10197" lon="3.29576">
        <ele>164.9</ele>
        <time>2024-03-30T15:58:57.000Z</time>
      </trkpt>
      <trkpt lat="48.10197" lon="3.29576">
        <ele>164.9</ele>
        <time>2024-03-30T15:58:58.000Z</time>
      </trkpt>
      <trkpt lat="48.10197" lon="3.29576">
        <ele>164.9</ele>
        <time>2024-03-30T15:59:05.000Z</time>
      </trkpt>
      <trkpt lat="48.10197" lon="3.29576">
        <ele>164.9</ele>
        <time>2024-03-30T15:59:14.000Z</time>
      </trkpt>
      <trkpt lat="48.10197" lon="3.29576">
        <ele>164.9</ele>
        <time>2024-03-30T15:59:17.000Z</time>
      </trkpt>
      <trkpt lat="48.10197" lon="3.29576">
        <ele>164.9</ele>
        <time>2024-03-30T15:59:23.000Z</time>
      </trkpt>
      <trkpt lat="48.10197" lon="3.29576">
        <ele>164.9</ele>
        <time>2024-03-30T15:59:26.000Z</time>
      </trkpt>
      <trkpt lat="48.10197" lon="3.29576">
        <ele>164.9</ele>
        <time>2024-03-30T15:59:35.000Z</time>
      </trkpt>
      <trkpt lat="48.10197" lon="3.29575">
        <ele>164.9</ele>
        <time>2024-03-30T15:59:43.000Z</time>
      </trkpt>
      <trkpt lat="48.10195" lon="3.29575">
        <ele>165</ele>
        <time>2024-03-30T15:59:46.000Z</time>
      </trkpt>
      <trkpt lat="48.10189" lon="3.29572">
        <ele>165</ele>
        <time>2024-03-30T15:59:49.000Z</time>
      </trkpt>
      <trkpt lat="48.10185" lon="3.2957">
        <ele>165</ele>
        <time>2024-03-30T15:59:51.000Z</time>
      </trkpt>
      <trkpt lat="48.10183" lon="3.29567">
        <ele>165</ele>
        <time>2024-03-30T15:59:52.000Z</time>
      </trkpt>
      <trkpt lat="48.1018" lon="3.29565">
        <ele>165</ele>
        <time>2024-03-30T15:59:53.000Z</time>
      </trkpt>
      <trkpt lat="48.10178" lon="3.29561">
        <ele>165</ele>
        <time>2024-03-30T15:59:55.000Z</time>
      </trkpt>
      <trkpt lat="48.10177" lon="3.29558">
        <ele>165</ele>
        <time>2024-03-30T15:59:56.000Z</time>
      </trkpt>
      <trkpt lat="48.10177" lon="3.29556">
        <ele>165</ele>
        <time>2024-03-30T15:59:57.000Z</time>
      </trkpt>
      <trkpt lat="48.1017" lon="3.29548">
        <ele>165</ele>
        <time>2024-03-30T16:00:00.000Z</time>
      </trkpt>
      <trkpt lat="48.10167" lon="3.29545">
        <ele>165</ele>
        <time>2024-03-30T16:00:01.000Z</time>
      </trkpt>
      <trkpt lat="48.10163" lon="3.29543">
        <ele>165</ele>
        <time>2024-03-30T16:00:02.000Z</time>
      </trkpt>
      <trkpt lat="48.1016" lon="3.29538">
        <ele>165</ele>
        <time>2024-03-30T16:00:04.000Z</time>
      </trkpt>
      <trkpt lat="48.1016" lon="3.29535">
        <ele>165</ele>
        <time>2024-03-30T16:00:05.000Z</time>
      </trkpt>
      <trkpt lat="48.10159" lon="3.29533">
        <ele>165</ele>
        <time>2024-03-30T16:00:06.000Z</time>
      </trkpt>
      <trkpt lat="48.10159" lon="3.29532">
        <ele>165</ele>
        <time>2024-03-30T16:00:07.000Z</time>
      </trkpt>
      <trkpt lat="48.10159" lon="3.29532">
        <ele>165</ele>
        <time>2024-03-30T16:00:08.000Z</time>
      </trkpt>
      <trkpt lat="48.10158" lon="3.29531">
        <ele>165</ele>
        <time>2024-03-30T16:00:09.000Z</time>
      </trkpt>
      <trkpt lat="48.10158" lon="3.2953">
        <ele>165</ele>
        <time>2024-03-30T16:00:10.000Z</time>
      </trkpt>
      <trkpt lat="48.10157" lon="3.29523">
        <ele>165</ele>
        <time>2024-03-30T16:00:13.000Z</time>
      </trkpt>
      <trkpt lat="48.10157" lon="3.29522">
        <ele>165</ele>
        <time>2024-03-30T16:00:14.000Z</time>
      </trkpt>
      <trkpt lat="48.10156" lon="3.29521">
        <ele>165</ele>
        <time>2024-03-30T16:00:15.000Z</time>
      </trkpt>
      <trkpt lat="48.10156" lon="3.29521">
        <ele>165</ele>
        <time>2024-03-30T16:00:16.000Z</time>
      </trkpt>
      <trkpt lat="48.10155" lon="3.29521">
        <ele>165</ele>
        <time>2024-03-30T16:00:17.000Z</time>
      </trkpt>
      <trkpt lat="48.10155" lon="3.29521">
        <ele>165</ele>
        <time>2024-03-30T16:00:18.000Z</time>
      </trkpt>
      <trkpt lat="48.10155" lon="3.29521">
        <ele>165</ele>
        <time>2024-03-30T16:00:24.000Z</time>
      </trkpt>
      <trkpt lat="48.10155" lon="3.29521">
        <ele>165</ele>
        <time>2024-03-30T16:00:33.000Z</time>
      </trkpt>
      <trkpt lat="48.10153" lon="3.2952">
        <ele>165</ele>
        <time>2024-03-30T16:00:41.000Z</time>
      </trkpt>
      <trkpt lat="48.10149" lon="3.2952">
        <ele>165</ele>
        <time>2024-03-30T16:00:43.000Z</time>
      </trkpt>
      <trkpt lat="48.1014" lon="3.2952">
        <ele>165</ele>
        <time>2024-03-30T16:00:46.000Z</time>
      </trkpt>
      <trkpt lat="48.10136" lon="3.2952">
        <ele>164.9</ele>
        <time>2024-03-30T16:00:47.000Z</time>
      </trkpt>
      <trkpt lat="48.10133" lon="3.29519">
        <ele>164.8</ele>
        <time>2024-03-30T16:00:48.000Z</time>
      </trkpt>
      <trkpt lat="48.10131" lon="3.29519">
        <ele>164.7</ele>
        <time>2024-03-30T16:00:49.000Z</time>
      </trkpt>
      <trkpt lat="48.10115" lon="3.29516">
        <ele>164.1</ele>
        <time>2024-03-30T16:00:53.000Z</time>
      </trkpt>
      <trkpt lat="48.10112" lon="3.29514">
        <ele>164</ele>
        <time>2024-03-30T16:00:54.000Z</time>
      </trkpt>
      <trkpt lat="48.10108" lon="3.29513">
        <ele>164</ele>
        <time>2024-03-30T16:00:55.000Z</time>
      </trkpt>
      <trkpt lat="48.10104" lon="3.29512">
        <ele>164</ele>
        <time>2024-03-30T16:00:56.000Z</time>
      </trkpt>
      <trkpt lat="48.10083" lon="3.29506">
        <ele>164</ele>
        <time>2024-03-30T16:01:01.000Z</time>
      </trkpt>
      <trkpt lat="48.10065" lon="3.29505">
        <ele>163.3</ele>
        <time>2024-03-30T16:01:04.000Z</time>
      </trkpt>
      <trkpt lat="48.10062" lon="3.29503">
        <ele>163.2</ele>
        <time>2024-03-30T16:01:05.000Z</time>
      </trkpt>
      <trkpt lat="48.10061" lon="3.29504">
        <ele>163.2</ele>
        <time>2024-03-30T16:01:06.000Z</time>
      </trkpt>
      <trkpt lat="48.10059" lon="3.29504">
        <ele>163.1</ele>
        <time>2024-03-30T16:01:07.000Z</time>
      </trkpt>
      <trkpt lat="48.10058" lon="3.29503">
        <ele>163.1</ele>
        <time>2024-03-30T16:01:08.000Z</time>
      </trkpt>
      <trkpt lat="48.10056" lon="3.29502">
        <ele>163</ele>
        <time>2024-03-30T16:01:09.000Z</time>
      </trkpt>
      <trkpt lat="48.10055" lon="3.29501">
        <ele>163</ele>
        <time>2024-03-30T16:01:11.000Z</time>
      </trkpt>
      <trkpt lat="48.10055" lon="3.29499">
        <ele>163</ele>
        <time>2024-03-30T16:14:51.000Z</time>
      </trkpt>
      <trkpt lat="48.10074" lon="3.29466">
        <ele>163.9</ele>
        <time>2024-03-30T16:14:52.000Z</time>
      </trkpt>
      <trkpt lat="48.10075" lon="3.29466">
        <ele>163.9</ele>
        <time>2024-03-30T16:14:53.000Z</time>
      </trkpt>
      <trkpt lat="48.10077" lon="3.29465">
        <ele>163.9</ele>
        <time>2024-03-30T16:14:54.000Z</time>
      </trkpt>
      <trkpt lat="48.10078" lon="3.29465">
        <ele>164</ele>
        <time>2024-03-30T16:14:55.000Z</time>
      </trkpt>
      <trkpt lat="48.10092" lon="3.2946">
        <ele>164</ele>
        <time>2024-03-30T16:15:01.000Z</time>
      </trkpt>
      <trkpt lat="48.10094" lon="3.29458">
        <ele>164</ele>
        <time>2024-03-30T16:15:02.000Z</time>
      </trkpt>
      <trkpt lat="48.10096" lon="3.29455">
        <ele>164</ele>
        <time>2024-03-30T16:15:03.000Z</time>
      </trkpt>
      <trkpt lat="48.10097" lon="3.29451">
        <ele>164</ele>
        <time>2024-03-30T16:15:04.000Z</time>
      </trkpt>
      <trkpt lat="48.10099" lon="3.29448">
        <ele>164</ele>
        <time>2024-03-30T16:15:05.000Z</time>
      </trkpt>
      <trkpt lat="48.10099" lon="3.29445">
        <ele>164</ele>
        <time>2024-03-30T16:15:06.000Z</time>
      </trkpt>
      <trkpt lat="48.101" lon="3.29442">
        <ele>164</ele>
        <time>2024-03-30T16:15:07.000Z</time>
      </trkpt>
      <trkpt lat="48.10108" lon="3.29417">
        <ele>164</ele>
        <time>2024-03-30T16:15:12.000Z</time>
      </trkpt>
      <trkpt lat="48.10106" lon="3.29407">
        <ele>163.9</ele>
        <time>2024-03-30T16:15:15.000Z</time>
      </trkpt>
      <trkpt lat="48.10107" lon="3.29405">
        <ele>163.9</ele>
        <time>2024-03-30T16:15:16.000Z</time>
      </trkpt>
      <trkpt lat="48.10107" lon="3.29404">
        <ele>163.9</ele>
        <time>2024-03-30T16:15:17.000Z</time>
      </trkpt>
      <trkpt lat="48.10107" lon="3.29403">
        <ele>163.9</ele>
        <time>2024-03-30T16:15:18.000Z</time>
      </trkpt>
      <trkpt lat="48.10107" lon="3.29403">
        <ele>163.9</ele>
        <time>2024-03-30T16:15:19.000Z</time>
      </trkpt>
      <trkpt lat="48.10107" lon="3.29403">
        <ele>163.9</ele>
        <time>2024-03-30T16:15:20.000Z</time>
      </trkpt>
      <trkpt lat="48.10107" lon="3.29401">
        <ele>163.8</ele>
        <time>2024-03-30T16:15:21.000Z</time>
      </trkpt>
      <trkpt lat="48.10107" lon="3.29393">
        <ele>163.7</ele>
        <time>2024-03-30T16:15:24.000Z</time>
      </trkpt>
      <trkpt lat="48.10109" lon="3.29379">
        <ele>163.8</ele>
        <time>2024-03-30T16:15:28.000Z</time>
      </trkpt>
      <trkpt lat="48.10113" lon="3.29367">
        <ele>164</ele>
        <time>2024-03-30T16:15:31.000Z</time>
      </trkpt>
      <trkpt lat="48.10115" lon="3.29363">
        <ele>164</ele>
        <time>2024-03-30T16:15:32.000Z</time>
      </trkpt>
      <trkpt lat="48.10117" lon="3.29359">
        <ele>163.8</ele>
        <time>2024-03-30T16:15:33.000Z</time>
      </trkpt>
      <trkpt lat="48.10121" lon="3.29352">
        <ele>163.2</ele>
        <time>2024-03-30T16:15:35.000Z</time>
      </trkpt>
      <trkpt lat="48.1013" lon="3.29342">
        <ele>162.9</ele>
        <time>2024-03-30T16:15:38.000Z</time>
      </trkpt>
      <trkpt lat="48.10147" lon="3.29333">
        <ele>163</ele>
        <time>2024-03-30T16:15:43.000Z</time>
      </trkpt>
      <trkpt lat="48.10163" lon="3.29329">
        <ele>162.9</ele>
        <time>2024-03-30T16:15:48.000Z</time>
      </trkpt>
      <trkpt lat="48.10181" lon="3.29323">
        <ele>162.1</ele>
        <time>2024-03-30T16:15:53.000Z</time>
      </trkpt>
      <trkpt lat="48.10184" lon="3.29321">
        <ele>161.9</ele>
        <time>2024-03-30T16:15:54.000Z</time>
      </trkpt>
      <trkpt lat="48.10185" lon="3.29318">
        <ele>161.8</ele>
        <time>2024-03-30T16:15:55.000Z</time>
      </trkpt>
      <trkpt lat="48.10185" lon="3.29314">
        <ele>161.6</ele>
        <time>2024-03-30T16:15:56.000Z</time>
      </trkpt>
      <trkpt lat="48.10186" lon="3.2931">
        <ele>161.5</ele>
        <time>2024-03-30T16:15:57.000Z</time>
      </trkpt>
      <trkpt lat="48.10186" lon="3.29304">
        <ele>161.3</ele>
        <time>2024-03-30T16:15:58.000Z</time>
      </trkpt>
      <trkpt lat="48.10186" lon="3.29298">
        <ele>161.3</ele>
        <time>2024-03-30T16:15:59.000Z</time>
      </trkpt>
      <trkpt lat="48.10186" lon="3.29287">
        <ele>161.3</ele>
        <time>2024-03-30T16:16:01.000Z</time>
      </trkpt>
      <trkpt lat="48.10185" lon="3.29267">
        <ele>161.2</ele>
        <time>2024-03-30T16:16:05.000Z</time>
      </trkpt>
      <trkpt lat="48.10188" lon="3.29235">
        <ele>160.5</ele>
        <time>2024-03-30T16:16:10.000Z</time>
      </trkpt>
      <trkpt lat="48.10188" lon="3.29222">
        <ele>160</ele>
        <time>2024-03-30T16:16:12.000Z</time>
      </trkpt>
      <trkpt lat="48.10187" lon="3.2919">
        <ele>160</ele>
        <time>2024-03-30T16:16:17.000Z</time>
      </trkpt>
      <trkpt lat="48.10187" lon="3.29185">
        <ele>159.9</ele>
        <time>2024-03-30T16:16:18.000Z</time>
      </trkpt>
      <trkpt lat="48.10187" lon="3.29178">
        <ele>159.8</ele>
        <time>2024-03-30T16:16:19.000Z</time>
      </trkpt>
      <trkpt lat="48.10186" lon="3.29174">
        <ele>159.8</ele>
        <time>2024-03-30T16:16:20.000Z</time>
      </trkpt>
      <trkpt lat="48.10184" lon="3.2917">
        <ele>159.7</ele>
        <time>2024-03-30T16:16:21.000Z</time>
      </trkpt>
      <trkpt lat="48.10182" lon="3.2916">
        <ele>159.2</ele>
        <time>2024-03-30T16:16:23.000Z</time>
      </trkpt>
      <trkpt lat="48.10181" lon="3.29155">
        <ele>158.9</ele>
        <time>2024-03-30T16:16:24.000Z</time>
      </trkpt>
      <trkpt lat="48.10181" lon="3.29151">
        <ele>158.7</ele>
        <time>2024-03-30T16:16:25.000Z</time>
      </trkpt>
      <trkpt lat="48.1018" lon="3.29148">
        <ele>158.5</ele>
        <time>2024-03-30T16:16:26.000Z</time>
      </trkpt>
      <trkpt lat="48.10179" lon="3.29144">
        <ele>158.2</ele>
        <time>2024-03-30T16:16:27.000Z</time>
      </trkpt>
      <trkpt lat="48.10179" lon="3.29141">
        <ele>158</ele>
        <time>2024-03-30T16:16:28.000Z</time>
      </trkpt>
      <trkpt lat="48.10179" lon="3.29137">
        <ele>157.8</ele>
        <time>2024-03-30T16:16:29.000Z</time>
      </trkpt>
      <trkpt lat="48.1018" lon="3.29133">
        <ele>157.6</ele>
        <time>2024-03-30T16:16:30.000Z</time>
      </trkpt>
      <trkpt lat="48.1018" lon="3.2913">
        <ele>157.5</ele>
        <time>2024-03-30T16:16:31.000Z</time>
      </trkpt>
      <trkpt lat="48.10181" lon="3.29127">
        <ele>157.4</ele>
        <time>2024-03-30T16:16:32.000Z</time>
      </trkpt>
      <trkpt lat="48.10181" lon="3.29112">
        <ele>156.6</ele>
        <time>2024-03-30T16:16:35.000Z</time>
      </trkpt>
      <trkpt lat="48.10181" lon="3.29106">
        <ele>156.1</ele>
        <time>2024-03-30T16:16:36.000Z</time>
      </trkpt>
      <trkpt lat="48.10183" lon="3.29097">
        <ele>155.4</ele>
        <time>2024-03-30T16:16:38.000Z</time>
      </trkpt>
      <trkpt lat="48.10186" lon="3.29085">
        <ele>154.5</ele>
        <time>2024-03-30T16:16:40.000Z</time>
      </trkpt>
      <trkpt lat="48.10187" lon="3.29073">
        <ele>153.7</ele>
        <time>2024-03-30T16:16:42.000Z</time>
      </trkpt>
      <trkpt lat="48.10191" lon="3.29061">
        <ele>153.1</ele>
        <time>2024-03-30T16:16:44.000Z</time>
      </trkpt>
      <trkpt lat="48.10193" lon="3.29054">
        <ele>152.7</ele>
        <time>2024-03-30T16:16:45.000Z</time>
      </trkpt>
      <trkpt lat="48.10195" lon="3.29048">
        <ele>152.2</ele>
        <time>2024-03-30T16:16:46.000Z</time>
      </trkpt>
      <trkpt lat="48.10198" lon="3.29043">
        <ele>151.7</ele>
        <time>2024-03-30T16:16:47.000Z</time>
      </trkpt>
      <trkpt lat="48.10203" lon="3.29038">
        <ele>151.3</ele>
        <time>2024-03-30T16:16:48.000Z</time>
      </trkpt>
      <trkpt lat="48.10205" lon="3.29033">
        <ele>150.9</ele>
        <time>2024-03-30T16:16:49.000Z</time>
      </trkpt>
      <trkpt lat="48.10207" lon="3.29021">
        <ele>149.7</ele>
        <time>2024-03-30T16:16:51.000Z</time>
      </trkpt>
      <trkpt lat="48.10209" lon="3.29017">
        <ele>149.4</ele>
        <time>2024-03-30T16:16:52.000Z</time>
      </trkpt>
      <trkpt lat="48.10209" lon="3.29016">
        <ele>149.3</ele>
        <time>2024-03-30T16:16:53.000Z</time>
      </trkpt>
      <trkpt lat="48.10209" lon="3.29016">
        <ele>149.3</ele>
        <time>2024-03-30T16:16:56.000Z</time>
      </trkpt>
      <trkpt lat="48.10209" lon="3.29016">
        <ele>149.3</ele>
        <time>2024-03-30T16:16:59.000Z</time>
      </trkpt>
      <trkpt lat="48.10209" lon="3.29016">
        <ele>149.3</ele>
        <time>2024-03-30T16:17:00.000Z</time>
      </trkpt>
      <trkpt lat="48.10209" lon="3.29016">
        <ele>149.3</ele>
        <time>2024-03-30T16:17:01.000Z</time>
      </trkpt>
      <trkpt lat="48.10209" lon="3.29016">
        <ele>149.3</ele>
        <time>2024-03-30T16:17:02.000Z</time>
      </trkpt>
      <trkpt lat="48.10209" lon="3.29016">
        <ele>149.3</ele>
        <time>2024-03-30T16:17:10.000Z</time>
      </trkpt>
      <trkpt lat="48.10209" lon="3.29016">
        <ele>149.3</ele>
        <time>2024-03-30T16:17:20.000Z</time>
      </trkpt>
      <trkpt lat="48.10211" lon="3.29011">
        <ele>148.9</ele>
        <time>2024-03-30T16:17:32.000Z</time>
      </trkpt>
      <trkpt lat="48.10212" lon="3.29004">
        <ele>148.3</ele>
        <time>2024-03-30T16:17:35.000Z</time>
      </trkpt>
      <trkpt lat="48.10213" lon="3.29003">
        <ele>148.3</ele>
        <time>2024-03-30T16:17:36.000Z</time>
      </trkpt>
      <trkpt lat="48.10213" lon="3.29002">
        <ele>148.2</ele>
        <time>2024-03-30T16:17:38.000Z</time>
      </trkpt>
      <trkpt lat="48.10214" lon="3.28999">
        <ele>147.9</ele>
        <time>2024-03-30T16:17:42.000Z</time>
      </trkpt>
      <trkpt lat="48.10216" lon="3.28996">
        <ele>147.7</ele>
        <time>2024-03-30T16:17:44.000Z</time>
      </trkpt>
      <trkpt lat="48.10226" lon="3.28976">
        <ele>145.5</ele>
        <time>2024-03-30T16:17:49.000Z</time>
      </trkpt>
      <trkpt lat="48.10228" lon="3.28972">
        <ele>145</ele>
        <time>2024-03-30T16:17:50.000Z</time>
      </trkpt>
      <trkpt lat="48.1024" lon="3.28951">
        <ele>141.7</ele>
        <time>2024-03-30T16:17:56.000Z</time>
      </trkpt>
      <trkpt lat="48.10243" lon="3.28949">
        <ele>141.4</ele>
        <time>2024-03-30T16:17:57.000Z</time>
      </trkpt>
      <trkpt lat="48.10247" lon="3.28945">
        <ele>141</ele>
        <time>2024-03-30T16:17:59.000Z</time>
      </trkpt>
      <trkpt lat="48.10249" lon="3.28943">
        <ele>140.7</ele>
        <time>2024-03-30T16:18:00.000Z</time>
      </trkpt>
      <trkpt lat="48.1025" lon="3.28942">
        <ele>140.6</ele>
        <time>2024-03-30T16:18:01.000Z</time>
      </trkpt>
      <trkpt lat="48.1025" lon="3.28942">
        <ele>140.6</ele>
        <time>2024-03-30T16:18:02.000Z</time>
      </trkpt>
      <trkpt lat="48.1025" lon="3.28942">
        <ele>140.6</ele>
        <time>2024-03-30T16:18:04.000Z</time>
      </trkpt>
      <trkpt lat="48.1025" lon="3.28942">
        <ele>140.6</ele>
        <time>2024-03-30T16:18:07.000Z</time>
      </trkpt>
      <trkpt lat="48.1025" lon="3.28942">
        <ele>140.6</ele>
        <time>2024-03-30T16:18:12.000Z</time>
      </trkpt>
      <trkpt lat="48.1025" lon="3.28942">
        <ele>140.6</ele>
        <time>2024-03-30T16:18:13.000Z</time>
      </trkpt>
      <trkpt lat="48.1025" lon="3.28942">
        <ele>140.6</ele>
        <time>2024-03-30T16:18:48.000Z</time>
      </trkpt>
      <trkpt lat="48.1025" lon="3.28942">
        <ele>140.6</ele>
        <time>2024-03-30T16:19:06.000Z</time>
      </trkpt>
      <trkpt lat="48.10271" lon="3.28952">
        <ele>139.6</ele>
        <time>2024-03-30T16:19:12.000Z</time>
      </trkpt>
      <trkpt lat="48.10273" lon="3.28954">
        <ele>139.6</ele>
      </trkpt>
      <trkpt lat="48.1034" lon="3.29205">
        <ele>139.1</ele>
        <time>2024-03-30T16:36:03.000Z</time>
      </trkpt>
      <trkpt lat="48.1034" lon="3.29205">
        <ele>139.1</ele>
        <time>2024-03-30T16:36:04.000Z</time>
      </trkpt>
      <trkpt lat="48.1034" lon="3.29205">
        <ele>139.1</ele>
        <time>2024-03-30T16:36:13.000Z</time>
      </trkpt>
      <trkpt lat="48.1034" lon="3.29205">
        <ele>139.1</ele>
        <time>2024-03-30T16:36:39.000Z</time>
      </trkpt>
      <trkpt lat="48.1034" lon="3.29205">
        <ele>139.1</ele>
        <time>2024-03-30T16:36:45.000Z</time>
      </trkpt>
      <trkpt lat="48.10341" lon="3.29208">
        <ele>139</ele>
        <time>2024-03-30T16:36:48.000Z</time>
      </trkpt>
      <trkpt lat="48.10342" lon="3.29208">
        <ele>138.8</ele>
        <time>2024-03-30T16:36:49.000Z</time>
      </trkpt>
      <trkpt lat="48.10343" lon="3.2921">
        <ele>138.6</ele>
        <time>2024-03-30T16:36:50.000Z</time>
      </trkpt>
      <trkpt lat="48.10343" lon="3.29211">
        <ele>138.6</ele>
        <time>2024-03-30T16:36:51.000Z</time>
      </trkpt>
      <trkpt lat="48.10343" lon="3.29214">
        <ele>138.7</ele>
        <time>2024-03-30T16:36:52.000Z</time>
      </trkpt>
      <trkpt lat="48.10343" lon="3.29215">
        <ele>138.7</ele>
        <time>2024-03-30T16:36:53.000Z</time>
      </trkpt>
      <trkpt lat="48.10343" lon="3.29218">
        <ele>138.8</ele>
        <time>2024-03-30T16:36:54.000Z</time>
      </trkpt>
      <trkpt lat="48.10343" lon="3.29222">
        <ele>138.9</ele>
        <time>2024-03-30T16:36:56.000Z</time>
      </trkpt>
      <trkpt lat="48.10344" lon="3.29225">
        <ele>138.8</ele>
        <time>2024-03-30T16:36:57.000Z</time>
      </trkpt>
      <trkpt lat="48.10349" lon="3.29244">
        <ele>138.8</ele>
        <time>2024-03-30T16:37:02.000Z</time>
      </trkpt>
      <trkpt lat="48.10352" lon="3.29259">
        <ele>139</ele>
        <time>2024-03-30T16:37:06.000Z</time>
      </trkpt>
      <trkpt lat="48.10351" lon="3.29262">
        <ele>139.3</ele>
        <time>2024-03-30T16:37:07.000Z</time>
      </trkpt>
      <trkpt lat="48.10351" lon="3.29266">
        <ele>139.4</ele>
        <time>2024-03-30T16:37:08.000Z</time>
      </trkpt>
      <trkpt lat="48.10351" lon="3.29269">
        <ele>139.5</ele>
        <time>2024-03-30T16:37:09.000Z</time>
      </trkpt>
      <trkpt lat="48.10352" lon="3.29272">
        <ele>139.4</ele>
        <time>2024-03-30T16:37:10.000Z</time>
      </trkpt>
      <trkpt lat="48.10352" lon="3.29275">
        <ele>139.5</ele>
        <time>2024-03-30T16:37:11.000Z</time>
      </trkpt>
      <trkpt lat="48.10352" lon="3.29278">
        <ele>139.7</ele>
        <time>2024-03-30T16:37:12.000Z</time>
      </trkpt>
      <trkpt lat="48.10352" lon="3.29282">
        <ele>139.9</ele>
        <time>2024-03-30T16:37:13.000Z</time>
      </trkpt>
      <trkpt lat="48.10352" lon="3.29285">
        <ele>140.1</ele>
        <time>2024-03-30T16:37:14.000Z</time>
      </trkpt>
      <trkpt lat="48.10353" lon="3.2929">
        <ele>140.2</ele>
        <time>2024-03-30T16:37:15.000Z</time>
      </trkpt>
      <trkpt lat="48.10355" lon="3.29294">
        <ele>140.1</ele>
        <time>2024-03-30T16:37:16.000Z</time>
      </trkpt>
      <trkpt lat="48.10358" lon="3.29303">
        <ele>140.3</ele>
        <time>2024-03-30T16:37:18.000Z</time>
      </trkpt>
      <trkpt lat="48.10359" lon="3.29307">
        <ele>140.4</ele>
        <time>2024-03-30T16:37:19.000Z</time>
      </trkpt>
      <trkpt lat="48.10362" lon="3.29321">
        <ele>140.3</ele>
        <time>2024-03-30T16:37:22.000Z</time>
      </trkpt>
      <trkpt lat="48.10367" lon="3.29334">
        <ele>139.1</ele>
        <time>2024-03-30T16:37:26.000Z</time>
      </trkpt>
      <trkpt lat="48.10369" lon="3.2934">
        <ele>138.9</ele>
        <time>2024-03-30T16:37:28.000Z</time>
      </trkpt>
      <trkpt lat="48.10369" lon="3.29343">
        <ele>139.1</ele>
        <time>2024-03-30T16:37:29.000Z</time>
      </trkpt>
      <trkpt lat="48.1037" lon="3.29347">
        <ele>139.1</ele>
        <time>2024-03-30T16:37:30.000Z</time>
      </trkpt>
      <trkpt lat="48.1037" lon="3.2935">
        <ele>139.3</ele>
        <time>2024-03-30T16:37:31.000Z</time>
      </trkpt>
      <trkpt lat="48.10371" lon="3.29353">
        <ele>139.2</ele>
        <time>2024-03-30T16:37:32.000Z</time>
      </trkpt>
      <trkpt lat="48.10371" lon="3.29355">
        <ele>139.4</ele>
        <time>2024-03-30T16:37:33.000Z</time>
      </trkpt>
      <trkpt lat="48.10371" lon="3.29357">
        <ele>139.5</ele>
        <time>2024-03-30T16:37:34.000Z</time>
      </trkpt>
      <trkpt lat="48.10371" lon="3.29359">
        <ele>139.6</ele>
        <time>2024-03-30T16:37:35.000Z</time>
      </trkpt>
      <trkpt lat="48.10371" lon="3.29361">
        <ele>139.8</ele>
        <time>2024-03-30T16:37:36.000Z</time>
      </trkpt>
      <trkpt lat="48.10372" lon="3.29364">
        <ele>139.6</ele>
        <time>2024-03-30T16:37:37.000Z</time>
      </trkpt>
      <trkpt lat="48.10373" lon="3.29367">
        <ele>139.5</ele>
        <time>2024-03-30T16:37:38.000Z</time>
      </trkpt>
      <trkpt lat="48.10373" lon="3.2937">
        <ele>139.6</ele>
        <time>2024-03-30T16:37:39.000Z</time>
      </trkpt>
      <trkpt lat="48.10372" lon="3.29372">
        <ele>140</ele>
        <time>2024-03-30T16:37:40.000Z</time>
      </trkpt>
      <trkpt lat="48.10371" lon="3.29375">
        <ele>140.5</ele>
        <time>2024-03-30T16:37:41.000Z</time>
      </trkpt>
      <trkpt lat="48.10371" lon="3.29377">
        <ele>140.6</ele>
        <time>2024-03-30T16:37:42.000Z</time>
      </trkpt>
      <trkpt lat="48.10371" lon="3.29379">
        <ele>140.7</ele>
        <time>2024-03-30T16:37:43.000Z</time>
      </trkpt>
      <trkpt lat="48.10371" lon="3.29381">
        <ele>140.8</ele>
        <time>2024-03-30T16:37:44.000Z</time>
      </trkpt>
      <trkpt lat="48.10372" lon="3.29384">
        <ele>140.6</ele>
        <time>2024-03-30T16:37:45.000Z</time>
      </trkpt>
      <trkpt lat="48.10371" lon="3.29386">
        <ele>141</ele>
        <time>2024-03-30T16:37:46.000Z</time>
      </trkpt>
      <trkpt lat="48.1037" lon="3.29393">
        <ele>141.7</ele>
        <time>2024-03-30T16:37:49.000Z</time>
      </trkpt>
      <trkpt lat="48.1037" lon="3.29396">
        <ele>142</ele>
        <time>2024-03-30T16:37:50.000Z</time>
      </trkpt>
      <trkpt lat="48.10367" lon="3.29401">
        <ele>143.2</ele>
        <time>2024-03-30T16:37:52.000Z</time>
      </trkpt>
      <trkpt lat="48.10366" lon="3.29403">
        <ele>143.6</ele>
        <time>2024-03-30T16:37:53.000Z</time>
      </trkpt>
      <trkpt lat="48.10366" lon="3.29406">
        <ele>143.8</ele>
        <time>2024-03-30T16:37:54.000Z</time>
      </trkpt>
      <trkpt lat="48.10364" lon="3.29409">
        <ele>144.6</ele>
        <time>2024-03-30T16:37:55.000Z</time>
      </trkpt>
      <trkpt lat="48.10364" lon="3.29411">
        <ele>144.8</ele>
        <time>2024-03-30T16:37:56.000Z</time>
      </trkpt>
      <trkpt lat="48.10363" lon="3.29414">
        <ele>145.3</ele>
        <time>2024-03-30T16:37:57.000Z</time>
      </trkpt>
      <trkpt lat="48.10363" lon="3.29416">
        <ele>145.4</ele>
        <time>2024-03-30T16:37:58.000Z</time>
      </trkpt>
      <trkpt lat="48.10363" lon="3.29419">
        <ele>145.6</ele>
        <time>2024-03-30T16:37:59.000Z</time>
      </trkpt>
      <trkpt lat="48.10362" lon="3.29422">
        <ele>145.9</ele>
        <time>2024-03-30T16:38:00.000Z</time>
      </trkpt>
      <trkpt lat="48.10361" lon="3.29425">
        <ele>146.3</ele>
        <time>2024-03-30T16:38:01.000Z</time>
      </trkpt>
      <trkpt lat="48.10362" lon="3.29427">
        <ele>146.1</ele>
        <time>2024-03-30T16:38:02.000Z</time>
      </trkpt>
      <trkpt lat="48.10362" lon="3.29429">
        <ele>146.2</ele>
        <time>2024-03-30T16:38:03.000Z</time>
      </trkpt>
      <trkpt lat="48.10362" lon="3.29432">
        <ele>146.3</ele>
        <time>2024-03-30T16:38:04.000Z</time>
      </trkpt>
      <trkpt lat="48.10362" lon="3.29434">
        <ele>146.4</ele>
        <time>2024-03-30T16:38:05.000Z</time>
      </trkpt>
      <trkpt lat="48.1036" lon="3.29436">
        <ele>146.9</ele>
        <time>2024-03-30T16:38:06.000Z</time>
      </trkpt>
      <trkpt lat="48.1036" lon="3.29438">
        <ele>146.9</ele>
        <time>2024-03-30T16:38:07.000Z</time>
      </trkpt>
      <trkpt lat="48.10359" lon="3.29441">
        <ele>147.2</ele>
        <time>2024-03-30T16:38:08.000Z</time>
      </trkpt>
      <trkpt lat="48.1036" lon="3.29445">
        <ele>147.2</ele>
        <time>2024-03-30T16:38:09.000Z</time>
      </trkpt>
      <trkpt lat="48.1036" lon="3.29448">
        <ele>147.3</ele>
        <time>2024-03-30T16:38:10.000Z</time>
      </trkpt>
      <trkpt lat="48.10361" lon="3.29451">
        <ele>147.3</ele>
        <time>2024-03-30T16:38:11.000Z</time>
      </trkpt>
      <trkpt lat="48.10363" lon="3.29453">
        <ele>146.9</ele>
        <time>2024-03-30T16:38:12.000Z</time>
      </trkpt>
      <trkpt lat="48.10365" lon="3.29454">
        <ele>146.6</ele>
        <time>2024-03-30T16:38:13.000Z</time>
      </trkpt>
      <trkpt lat="48.10366" lon="3.29457">
        <ele>146.5</ele>
        <time>2024-03-30T16:38:14.000Z</time>
      </trkpt>
      <trkpt lat="48.10367" lon="3.29461">
        <ele>146.5</ele>
        <time>2024-03-30T16:38:15.000Z</time>
      </trkpt>
      <trkpt lat="48.10368" lon="3.29464">
        <ele>146.4</ele>
        <time>2024-03-30T16:38:16.000Z</time>
      </trkpt>
      <trkpt lat="48.10369" lon="3.29467">
        <ele>146.3</ele>
        <time>2024-03-30T16:38:17.000Z</time>
      </trkpt>
      <trkpt lat="48.1037" lon="3.29471">
        <ele>146.3</ele>
        <time>2024-03-30T16:38:18.000Z</time>
      </trkpt>
      <trkpt lat="48.10372" lon="3.29475">
        <ele>146.2</ele>
        <time>2024-03-30T16:38:19.000Z</time>
      </trkpt>
      <trkpt lat="48.10371" lon="3.29479">
        <ele>146.6</ele>
        <time>2024-03-30T16:38:20.000Z</time>
      </trkpt>
      <trkpt lat="48.10371" lon="3.29482">
        <ele>146.7</ele>
        <time>2024-03-30T16:38:21.000Z</time>
      </trkpt>
      <trkpt lat="48.10371" lon="3.29485">
        <ele>146.8</ele>
        <time>2024-03-30T16:38:22.000Z</time>
      </trkpt>
      <trkpt lat="48.1037" lon="3.29488">
        <ele>147.1</ele>
        <time>2024-03-30T16:38:23.000Z</time>
      </trkpt>
      <trkpt lat="48.1037" lon="3.29489">
        <ele>147.2</ele>
        <time>2024-03-30T16:38:24.000Z</time>
      </trkpt>
      <trkpt lat="48.10371" lon="3.2949">
        <ele>147.1</ele>
        <time>2024-03-30T16:38:25.000Z</time>
      </trkpt>
      <trkpt lat="48.1037" lon="3.29493">
        <ele>147.4</ele>
        <time>2024-03-30T16:38:26.000Z</time>
      </trkpt>
      <trkpt lat="48.10371" lon="3.29498">
        <ele>147.5</ele>
        <time>2024-03-30T16:38:27.000Z</time>
      </trkpt>
      <trkpt lat="48.10372" lon="3.29502">
        <ele>147.5</ele>
        <time>2024-03-30T16:38:28.000Z</time>
      </trkpt>
      <trkpt lat="48.10374" lon="3.29506">
        <ele>147.4</ele>
        <time>2024-03-30T16:38:29.000Z</time>
      </trkpt>
      <trkpt lat="48.10375" lon="3.29509">
        <ele>147.3</ele>
        <time>2024-03-30T16:38:30.000Z</time>
      </trkpt>
      <trkpt lat="48.10377" lon="3.29512">
        <ele>147.1</ele>
        <time>2024-03-30T16:38:31.000Z</time>
      </trkpt>
      <trkpt lat="48.10387" lon="3.29527">
        <ele>146.2</ele>
        <time>2024-03-30T16:38:35.000Z</time>
      </trkpt>
      <trkpt lat="48.10406" lon="3.29549">
        <ele>143.5</ele>
        <time>2024-03-30T16:38:40.000Z</time>
      </trkpt>
      <trkpt lat="48.10412" lon="3.29557">
        <ele>142.9</ele>
        <time>2024-03-30T16:38:41.000Z</time>
      </trkpt>
      <trkpt lat="48.10424" lon="3.29576">
        <ele>141.4</ele>
        <time>2024-03-30T16:38:43.000Z</time>
      </trkpt>
      <trkpt lat="48.10429" lon="3.29586">
        <ele>140.6</ele>
        <time>2024-03-30T16:38:44.000Z</time>
      </trkpt>
      <trkpt lat="48.10433" lon="3.29595">
        <ele>140.2</ele>
        <time>2024-03-30T16:38:45.000Z</time>
      </trkpt>
      <trkpt lat="48.10435" lon="3.29603">
        <ele>140.4</ele>
        <time>2024-03-30T16:38:46.000Z</time>
      </trkpt>
      <trkpt lat="48.10436" lon="3.29611">
        <ele>140.8</ele>
        <time>2024-03-30T16:38:47.000Z</time>
      </trkpt>
      <trkpt lat="48.10437" lon="3.2962">
        <ele>141.2</ele>
        <time>2024-03-30T16:38:48.000Z</time>
      </trkpt>
      <trkpt lat="48.10438" lon="3.29628">
        <ele>141.5</ele>
        <time>2024-03-30T16:38:49.000Z</time>
      </trkpt>
      <trkpt lat="48.1044" lon="3.29635">
        <ele>141.5</ele>
        <time>2024-03-30T16:38:50.000Z</time>
      </trkpt>
      <trkpt lat="48.10443" lon="3.29642">
        <ele>141.4</ele>
        <time>2024-03-30T16:38:51.000Z</time>
      </trkpt>
      <trkpt lat="48.10446" lon="3.29649">
        <ele>140.9</ele>
        <time>2024-03-30T16:38:52.000Z</time>
      </trkpt>
      <trkpt lat="48.10448" lon="3.29657">
        <ele>140.7</ele>
        <time>2024-03-30T16:38:53.000Z</time>
      </trkpt>
      <trkpt lat="48.1045" lon="3.29664">
        <ele>140.5</ele>
        <time>2024-03-30T16:38:54.000Z</time>
      </trkpt>
      <trkpt lat="48.1045" lon="3.29669">
        <ele>140.6</ele>
        <time>2024-03-30T16:38:55.000Z</time>
      </trkpt>
      <trkpt lat="48.1045" lon="3.29676">
        <ele>140.7</ele>
        <time>2024-03-30T16:38:56.000Z</time>
      </trkpt>
      <trkpt lat="48.10448" lon="3.29685">
        <ele>141.2</ele>
        <time>2024-03-30T16:38:57.000Z</time>
      </trkpt>
      <trkpt lat="48.10448" lon="3.29693">
        <ele>141.2</ele>
        <time>2024-03-30T16:38:58.000Z</time>
      </trkpt>
      <trkpt lat="48.1045" lon="3.2971">
        <ele>141.5</ele>
        <time>2024-03-30T16:39:00.000Z</time>
      </trkpt>
      <trkpt lat="48.10452" lon="3.2972">
        <ele>141.5</ele>
        <time>2024-03-30T16:39:01.000Z</time>
      </trkpt>
      <trkpt lat="48.10453" lon="3.29727">
        <ele>141.6</ele>
        <time>2024-03-30T16:39:02.000Z</time>
      </trkpt>
      <trkpt lat="48.10455" lon="3.2974">
        <ele>141.7</ele>
        <time>2024-03-30T16:39:04.000Z</time>
      </trkpt>
      <trkpt lat="48.10456" lon="3.29747">
        <ele>141.8</ele>
        <time>2024-03-30T16:39:05.000Z</time>
      </trkpt>
      <trkpt lat="48.10457" lon="3.29753">
        <ele>141.8</ele>
        <time>2024-03-30T16:39:06.000Z</time>
      </trkpt>
      <trkpt lat="48.10458" lon="3.2976">
        <ele>141.9</ele>
        <time>2024-03-30T16:39:07.000Z</time>
      </trkpt>
      <trkpt lat="48.10461" lon="3.29767">
        <ele>141.6</ele>
        <time>2024-03-30T16:39:08.000Z</time>
      </trkpt>
      <trkpt lat="48.10466" lon="3.29782">
        <ele>141.4</ele>
        <time>2024-03-30T16:39:10.000Z</time>
      </trkpt>
      <trkpt lat="48.10467" lon="3.29788">
        <ele>141.6</ele>
        <time>2024-03-30T16:39:11.000Z</time>
      </trkpt>
      <trkpt lat="48.10471" lon="3.29801">
        <ele>141.9</ele>
        <time>2024-03-30T16:39:13.000Z</time>
      </trkpt>
      <trkpt lat="48.10474" lon="3.29808">
        <ele>141.7</ele>
        <time>2024-03-30T16:39:14.000Z</time>
      </trkpt>
      <trkpt lat="48.10481" lon="3.29844">
        <ele>141.6</ele>
        <time>2024-03-30T16:39:20.000Z</time>
      </trkpt>
      <trkpt lat="48.10482" lon="3.29848">
        <ele>141.6</ele>
        <time>2024-03-30T16:39:21.000Z</time>
      </trkpt>
      <trkpt lat="48.10482" lon="3.29853">
        <ele>141.8</ele>
        <time>2024-03-30T16:39:22.000Z</time>
      </trkpt>
      <trkpt lat="48.10483" lon="3.29857">
        <ele>141.9</ele>
        <time>2024-03-30T16:39:23.000Z</time>
      </trkpt>
      <trkpt lat="48.10484" lon="3.29861">
        <ele>141.9</ele>
        <time>2024-03-30T16:39:24.000Z</time>
      </trkpt>
      <trkpt lat="48.10485" lon="3.29865">
        <ele>141.8</ele>
        <time>2024-03-30T16:39:25.000Z</time>
      </trkpt>
      <trkpt lat="48.10486" lon="3.29869">
        <ele>141.7</ele>
        <time>2024-03-30T16:39:26.000Z</time>
      </trkpt>
      <trkpt lat="48.10488" lon="3.29877">
        <ele>141.5</ele>
        <time>2024-03-30T16:39:28.000Z</time>
      </trkpt>
      <trkpt lat="48.1049" lon="3.29889">
        <ele>141.4</ele>
        <time>2024-03-30T16:39:31.000Z</time>
      </trkpt>
      <trkpt lat="48.10492" lon="3.29892">
        <ele>141.3</ele>
        <time>2024-03-30T16:39:32.000Z</time>
      </trkpt>
      <trkpt lat="48.10494" lon="3.29895">
        <ele>141.1</ele>
        <time>2024-03-30T16:39:33.000Z</time>
      </trkpt>
      <trkpt lat="48.10503" lon="3.29898">
        <ele>139.8</ele>
        <time>2024-03-30T16:39:35.000Z</time>
      </trkpt>
      <trkpt lat="48.10508" lon="3.29898">
        <ele>139</ele>
        <time>2024-03-30T16:39:36.000Z</time>
      </trkpt>
      <trkpt lat="48.10512" lon="3.29897">
        <ele>138.3</ele>
        <time>2024-03-30T16:39:37.000Z</time>
      </trkpt>
      <trkpt lat="48.10518" lon="3.29896">
        <ele>137.2</ele>
        <time>2024-03-30T16:39:38.000Z</time>
      </trkpt>
      <trkpt lat="48.10523" lon="3.29895">
        <ele>136.3</ele>
        <time>2024-03-30T16:39:39.000Z</time>
      </trkpt>
      <trkpt lat="48.10527" lon="3.29894">
        <ele>135.5</ele>
        <time>2024-03-30T16:39:40.000Z</time>
      </trkpt>
      <trkpt lat="48.10531" lon="3.29895">
        <ele>134.5</ele>
        <time>2024-03-30T16:39:41.000Z</time>
      </trkpt>
      <trkpt lat="48.10535" lon="3.29896">
        <ele>133.4</ele>
        <time>2024-03-30T16:39:42.000Z</time>
      </trkpt>
      <trkpt lat="48.10537" lon="3.29898">
        <ele>133</ele>
        <time>2024-03-30T16:39:43.000Z</time>
      </trkpt>
      <trkpt lat="48.1054" lon="3.29899">
        <ele>132.2</ele>
        <time>2024-03-30T16:39:44.000Z</time>
      </trkpt>
      <trkpt lat="48.10542" lon="3.29901">
        <ele>131.8</ele>
        <time>2024-03-30T16:39:45.000Z</time>
      </trkpt>
      <trkpt lat="48.10547" lon="3.29904">
        <ele>130.6</ele>
        <time>2024-03-30T16:39:47.000Z</time>
      </trkpt>
      <trkpt lat="48.10549" lon="3.29905">
        <ele>130</ele>
        <time>2024-03-30T16:39:48.000Z</time>
      </trkpt>
      <trkpt lat="48.1055" lon="3.29906">
        <ele>129.8</ele>
        <time>2024-03-30T16:39:49.000Z</time>
      </trkpt>
      <trkpt lat="48.10551" lon="3.29907">
        <ele>129.6</ele>
        <time>2024-03-30T16:39:50.000Z</time>
      </trkpt>
      <trkpt lat="48.10551" lon="3.29907">
        <ele>129.6</ele>
        <time>2024-03-30T16:39:51.000Z</time>
      </trkpt>
      <trkpt lat="48.10551" lon="3.29907">
        <ele>129.6</ele>
        <time>2024-03-30T16:39:52.000Z</time>
      </trkpt>
      <trkpt lat="48.10551" lon="3.29907">
        <ele>129.6</ele>
        <time>2024-03-30T16:39:54.000Z</time>
      </trkpt>
      <trkpt lat="48.10551" lon="3.29907">
        <ele>129.6</ele>
        <time>2024-03-30T16:39:55.000Z</time>
      </trkpt>
      <trkpt lat="48.10551" lon="3.29907">
        <ele>129.6</ele>
        <time>2024-03-30T16:39:58.000Z</time>
      </trkpt>
      <trkpt lat="48.10551" lon="3.29907">
        <ele>129.6</ele>
        <time>2024-03-30T16:40:05.000Z</time>
      </trkpt>
      <trkpt lat="48.10551" lon="3.29907">
        <ele>129.6</ele>
        <time>2024-03-30T16:40:21.000Z</time>
      </trkpt>
      <trkpt lat="48.10551" lon="3.29907">
        <ele>129.6</ele>
        <time>2024-03-30T16:40:31.000Z</time>
      </trkpt>
      <trkpt lat="48.10551" lon="3.29907">
        <ele>129.6</ele>
        <time>2024-03-30T16:40:50.000Z</time>
      </trkpt>
      <trkpt lat="48.10551" lon="3.29907">
        <ele>129.6</ele>
        <time>2024-03-30T16:41:08.000Z</time>
      </trkpt>
      <trkpt lat="48.10552" lon="3.29908">
        <ele>129.4</ele>
        <time>2024-03-30T16:41:23.000Z</time>
      </trkpt>
      <trkpt lat="48.10552" lon="3.29908">
        <ele>129.4</ele>
        <time>2024-03-30T16:41:30.000Z</time>
      </trkpt>
      <trkpt lat="48.10553" lon="3.2991">
        <ele>129.3</ele>
        <time>2024-03-30T16:41:31.000Z</time>
      </trkpt>
      <trkpt lat="48.10555" lon="3.29911">
        <ele>128.8</ele>
        <time>2024-03-30T16:41:32.000Z</time>
      </trkpt>
      <trkpt lat="48.10565" lon="3.29921">
        <ele>126.9</ele>
        <time>2024-03-30T16:41:37.000Z</time>
      </trkpt>
      <trkpt lat="48.10574" lon="3.29931">
        <ele>125.4</ele>
        <time>2024-03-30T16:41:40.000Z</time>
      </trkpt>
      <trkpt lat="48.10576" lon="3.29934">
        <ele>125.1</ele>
        <time>2024-03-30T16:41:41.000Z</time>
      </trkpt>
      <trkpt lat="48.10579" lon="3.29938">
        <ele>124.6</ele>
        <time>2024-03-30T16:41:42.000Z</time>
      </trkpt>
      <trkpt lat="48.10586" lon="3.29947">
        <ele>123.5</ele>
        <time>2024-03-30T16:41:44.000Z</time>
      </trkpt>
      <trkpt lat="48.1059" lon="3.29953">
        <ele>122.9</ele>
        <time>2024-03-30T16:41:45.000Z</time>
      </trkpt>
      <trkpt lat="48.10596" lon="3.29964">
        <ele>121.9</ele>
        <time>2024-03-30T16:41:47.000Z</time>
      </trkpt>
      <trkpt lat="48.10598" lon="3.29968">
        <ele>121.6</ele>
        <time>2024-03-30T16:41:48.000Z</time>
      </trkpt>
      <trkpt lat="48.106" lon="3.29971">
        <ele>121.1</ele>
        <time>2024-03-30T16:41:49.000Z</time>
      </trkpt>
      <trkpt lat="48.10601" lon="3.29974">
        <ele>121</ele>
        <time>2024-03-30T16:41:50.000Z</time>
      </trkpt>
      <trkpt lat="48.10602" lon="3.29975">
        <ele>120.7</ele>
        <time>2024-03-30T16:41:51.000Z</time>
      </trkpt>
      <trkpt lat="48.10604" lon="3.29977">
        <ele>120.2</ele>
        <time>2024-03-30T16:41:52.000Z</time>
      </trkpt>
      <trkpt lat="48.10606" lon="3.29979">
        <ele>119.7</ele>
        <time>2024-03-30T16:41:53.000Z</time>
      </trkpt>
      <trkpt lat="48.10607" lon="3.29981">
        <ele>119.5</ele>
        <time>2024-03-30T16:41:54.000Z</time>
      </trkpt>
      <trkpt lat="48.10607" lon="3.29981">
        <ele>119.5</ele>
        <time>2024-03-30T16:41:55.000Z</time>
      </trkpt>
      <trkpt lat="48.10607" lon="3.29981">
        <ele>119.5</ele>
        <time>2024-03-30T16:41:56.000Z</time>
      </trkpt>
      <trkpt lat="48.10607" lon="3.29981">
        <ele>119.5</ele>
        <time>2024-03-30T16:41:59.000Z</time>
      </trkpt>
      <trkpt lat="48.10607" lon="3.29981">
        <ele>119.5</ele>
        <time>2024-03-30T16:42:02.000Z</time>
      </trkpt>
      <trkpt lat="48.10608" lon="3.29982">
        <ele>119.2</ele>
        <time>2024-03-30T16:42:06.000Z</time>
      </trkpt>
      <trkpt lat="48.1061" lon="3.29985">
        <ele>118.8</ele>
        <time>2024-03-30T16:42:07.000Z</time>
      </trkpt>
      <trkpt lat="48.10613" lon="3.29989">
        <ele>118.3</ele>
        <time>2024-03-30T16:42:08.000Z</time>
      </trkpt>
      <trkpt lat="48.10616" lon="3.29994">
        <ele>117.9</ele>
        <time>2024-03-30T16:42:09.000Z</time>
      </trkpt>
      <trkpt lat="48.10631" lon="3.30019">
        <ele>115.8</ele>
        <time>2024-03-30T16:42:13.000Z</time>
      </trkpt>
      <trkpt lat="48.10632" lon="3.30022">
        <ele>115.6</ele>
        <time>2024-03-30T16:42:14.000Z</time>
      </trkpt>
      <trkpt lat="48.10632" lon="3.30022">
        <ele>115.6</ele>
        <time>2024-03-30T16:42:15.000Z</time>
      </trkpt>
      <trkpt lat="48.10632" lon="3.30022">
        <ele>115.6</ele>
        <time>2024-03-30T16:42:16.000Z</time>
      </trkpt>
      <trkpt lat="48.10632" lon="3.30022">
        <ele>115.6</ele>
        <time>2024-03-30T16:42:17.000Z</time>
      </trkpt>
      <trkpt lat="48.10632" lon="3.30022">
        <ele>115.6</ele>
        <time>2024-03-30T16:42:20.000Z</time>
      </trkpt>
      <trkpt lat="48.10631" lon="3.30022">
        <ele>115.9</ele>
        <time>2024-03-30T16:42:22.000Z</time>
      </trkpt>
      <trkpt lat="48.10631" lon="3.30023">
        <ele>115.9</ele>
        <time>2024-03-30T16:42:24.000Z</time>
      </trkpt>
      <trkpt lat="48.10631" lon="3.30023">
        <ele>115.9</ele>
        <time>2024-03-30T16:42:26.000Z</time>
      </trkpt>
      <trkpt lat="48.10631" lon="3.30023">
        <ele>115.9</ele>
        <time>2024-03-30T16:42:35.000Z</time>
      </trkpt>
      <trkpt lat="48.10632" lon="3.30024">
        <ele>115.7</ele>
        <time>2024-03-30T16:42:38.000Z</time>
      </trkpt>
      <trkpt lat="48.10633" lon="3.30026">
        <ele>115.5</ele>
        <time>2024-03-30T16:42:39.000Z</time>
      </trkpt>
      <trkpt lat="48.10633" lon="3.30028">
        <ele>115.5</ele>
        <time>2024-03-30T16:42:40.000Z</time>
      </trkpt>
      <trkpt lat="48.10633" lon="3.30029">
        <ele>115.5</ele>
        <time>2024-03-30T16:42:41.000Z</time>
      </trkpt>
      <trkpt lat="48.10633" lon="3.3003">
        <ele>115.6</ele>
        <time>2024-03-30T16:42:42.000Z</time>
      </trkpt>
      <trkpt lat="48.10633" lon="3.3003">
        <ele>115.6</ele>
        <time>2024-03-30T16:42:43.000Z</time>
      </trkpt>
      <trkpt lat="48.10633" lon="3.30031">
        <ele>115.6</ele>
        <time>2024-03-30T16:42:44.000Z</time>
      </trkpt>
      <trkpt lat="48.10633" lon="3.30031">
        <ele>115.6</ele>
        <time>2024-03-30T16:42:45.000Z</time>
      </trkpt>
      <trkpt lat="48.10633" lon="3.30031">
        <ele>115.6</ele>
        <time>2024-03-30T16:42:46.000Z</time>
      </trkpt>
      <trkpt lat="48.10633" lon="3.30031">
        <ele>115.6</ele>
        <time>2024-03-30T16:42:48.000Z</time>
      </trkpt>
      <trkpt lat="48.10633" lon="3.30031">
        <ele>115.6</ele>
        <time>2024-03-30T16:42:50.000Z</time>
      </trkpt>
      <trkpt lat="48.10633" lon="3.30031">
        <ele>115.6</ele>
        <time>2024-03-30T16:42:54.000Z</time>
      </trkpt>
      <trkpt lat="48.10635" lon="3.30032">
        <ele>115.1</ele>
        <time>2024-03-30T16:42:56.000Z</time>
      </trkpt>
      <trkpt lat="48.1064" lon="3.3003">
        <ele>113.9</ele>
        <time>2024-03-30T16:42:58.000Z</time>
      </trkpt>
      <trkpt lat="48.10642" lon="3.3003">
        <ele>113.6</ele>
        <time>2024-03-30T16:42:59.000Z</time>
      </trkpt>
      <trkpt lat="48.10645" lon="3.30029">
        <ele>113.2</ele>
        <time>2024-03-30T16:43:00.000Z</time>
      </trkpt>
      <trkpt lat="48.10649" lon="3.30026">
        <ele>112.5</ele>
        <time>2024-03-30T16:43:02.000Z</time>
      </trkpt>
      <trkpt lat="48.10655" lon="3.30024">
        <ele>111.6</ele>
        <time>2024-03-30T16:43:04.000Z</time>
      </trkpt>
      <trkpt lat="48.10658" lon="3.30023">
        <ele>111.1</ele>
        <time>2024-03-30T16:43:05.000Z</time>
      </trkpt>
      <trkpt lat="48.10661" lon="3.3002">
        <ele>110.6</ele>
        <time>2024-03-30T16:43:07.000Z</time>
      </trkpt>
      <trkpt lat="48.10664" lon="3.3002">
        <ele>110.1</ele>
        <time>2024-03-30T16:43:08.000Z</time>
      </trkpt>
      <trkpt lat="48.10668" lon="3.30021">
        <ele>109.7</ele>
        <time>2024-03-30T16:43:10.000Z</time>
      </trkpt>
      <trkpt lat="48.10671" lon="3.30026">
        <ele>109.6</ele>
        <time>2024-03-30T16:43:12.000Z</time>
      </trkpt>
      <trkpt lat="48.10673" lon="3.30029">
        <ele>109.6</ele>
        <time>2024-03-30T16:43:13.000Z</time>
      </trkpt>
      <trkpt lat="48.10674" lon="3.30034">
        <ele>109.7</ele>
        <time>2024-03-30T16:43:14.000Z</time>
      </trkpt>
      <trkpt lat="48.10676" lon="3.30037">
        <ele>109.7</ele>
        <time>2024-03-30T16:43:15.000Z</time>
      </trkpt>
      <trkpt lat="48.10679" lon="3.30041">
        <ele>109.6</ele>
        <time>2024-03-30T16:43:16.000Z</time>
      </trkpt>
      <trkpt lat="48.10682" lon="3.30047">
        <ele>109.6</ele>
        <time>2024-03-30T16:43:19.000Z</time>
      </trkpt>
      <trkpt lat="48.10685" lon="3.30052">
        <ele>109.6</ele>
        <time>2024-03-30T16:43:20.000Z</time>
      </trkpt>
      <trkpt lat="48.10686" lon="3.30058">
        <ele>109.7</ele>
        <time>2024-03-30T16:43:21.000Z</time>
      </trkpt>
      <trkpt lat="48.10688" lon="3.30064">
        <ele>109.8</ele>
        <time>2024-03-30T16:43:22.000Z</time>
      </trkpt>
      <trkpt lat="48.10689" lon="3.30068">
        <ele>109.8</ele>
        <time>2024-03-30T16:43:24.000Z</time>
      </trkpt>
      <trkpt lat="48.10687" lon="3.30071">
        <ele>110.1</ele>
        <time>2024-03-30T16:43:25.000Z</time>
      </trkpt>
      <trkpt lat="48.10686" lon="3.30072">
        <ele>110.2</ele>
        <time>2024-03-30T16:43:26.000Z</time>
      </trkpt>
      <trkpt lat="48.10686" lon="3.30074">
        <ele>110.3</ele>
        <time>2024-03-30T16:43:27.000Z</time>
      </trkpt>
      <trkpt lat="48.10685" lon="3.30076">
        <ele>110.4</ele>
        <time>2024-03-30T16:43:28.000Z</time>
      </trkpt>
      <trkpt lat="48.10684" lon="3.30078">
        <ele>110.6</ele>
        <time>2024-03-30T16:43:29.000Z</time>
      </trkpt>
      <trkpt lat="48.10683" lon="3.3008">
        <ele>110.7</ele>
        <time>2024-03-30T16:43:30.000Z</time>
      </trkpt>
      <trkpt lat="48.10683" lon="3.30082">
        <ele>110.8</ele>
        <time>2024-03-30T16:43:31.000Z</time>
      </trkpt>
      <trkpt lat="48.10683" lon="3.30084">
        <ele>110.8</ele>
        <time>2024-03-30T16:43:32.000Z</time>
      </trkpt>
      <trkpt lat="48.10683" lon="3.30085">
        <ele>110.9</ele>
        <time>2024-03-30T16:43:33.000Z</time>
      </trkpt>
      <trkpt lat="48.10682" lon="3.30087">
        <ele>111</ele>
        <time>2024-03-30T16:43:34.000Z</time>
      </trkpt>
      <trkpt lat="48.10681" lon="3.30089">
        <ele>111.2</ele>
        <time>2024-03-30T16:43:35.000Z</time>
      </trkpt>
      <trkpt lat="48.10681" lon="3.3009">
        <ele>111.2</ele>
        <time>2024-03-30T16:43:36.000Z</time>
      </trkpt>
      <trkpt lat="48.10681" lon="3.30091">
        <ele>111.2</ele>
        <time>2024-03-30T16:43:37.000Z</time>
      </trkpt>
      <trkpt lat="48.1068" lon="3.30093">
        <ele>111.4</ele>
        <time>2024-03-30T16:43:38.000Z</time>
      </trkpt>
      <trkpt lat="48.1068" lon="3.30095">
        <ele>111.5</ele>
        <time>2024-03-30T16:43:39.000Z</time>
      </trkpt>
      <trkpt lat="48.1068" lon="3.30097">
        <ele>111.5</ele>
        <time>2024-03-30T16:43:40.000Z</time>
      </trkpt>
      <trkpt lat="48.1068" lon="3.30099">
        <ele>111.6</ele>
        <time>2024-03-30T16:43:41.000Z</time>
      </trkpt>
      <trkpt lat="48.10679" lon="3.301">
        <ele>111.7</ele>
        <time>2024-03-30T16:43:42.000Z</time>
      </trkpt>
      <trkpt lat="48.10678" lon="3.30102">
        <ele>111.9</ele>
        <time>2024-03-30T16:43:43.000Z</time>
      </trkpt>
      <trkpt lat="48.10679" lon="3.30104">
        <ele>111.9</ele>
        <time>2024-03-30T16:43:44.000Z</time>
      </trkpt>
      <trkpt lat="48.10679" lon="3.30107">
        <ele>112</ele>
        <time>2024-03-30T16:43:45.000Z</time>
      </trkpt>
      <trkpt lat="48.10679" lon="3.30109">
        <ele>112</ele>
        <time>2024-03-30T16:43:46.000Z</time>
      </trkpt>
      <trkpt lat="48.10679" lon="3.30112">
        <ele>112.1</ele>
        <time>2024-03-30T16:43:48.000Z</time>
      </trkpt>
      <trkpt lat="48.1068" lon="3.30115">
        <ele>112.2</ele>
        <time>2024-03-30T16:43:49.000Z</time>
      </trkpt>
      <trkpt lat="48.1068" lon="3.30116">
        <ele>112.2</ele>
        <time>2024-03-30T16:43:50.000Z</time>
      </trkpt>
      <trkpt lat="48.10681" lon="3.30118">
        <ele>112.2</ele>
        <time>2024-03-30T16:43:51.000Z</time>
      </trkpt>
      <trkpt lat="48.10682" lon="3.30121">
        <ele>112.3</ele>
        <time>2024-03-30T16:43:52.000Z</time>
      </trkpt>
      <trkpt lat="48.10682" lon="3.30126">
        <ele>112.4</ele>
        <time>2024-03-30T16:43:54.000Z</time>
      </trkpt>
      <trkpt lat="48.10682" lon="3.30128">
        <ele>112.5</ele>
        <time>2024-03-30T16:43:55.000Z</time>
      </trkpt>
      <trkpt lat="48.10682" lon="3.30129">
        <ele>112.5</ele>
        <time>2024-03-30T16:43:56.000Z</time>
      </trkpt>
      <trkpt lat="48.10682" lon="3.3013">
        <ele>112.6</ele>
        <time>2024-03-30T16:43:57.000Z</time>
      </trkpt>
      <trkpt lat="48.10682" lon="3.3013">
        <ele>112.6</ele>
        <time>2024-03-30T16:43:58.000Z</time>
      </trkpt>
      <trkpt lat="48.10682" lon="3.3013">
        <ele>112.6</ele>
        <time>2024-03-30T16:43:59.000Z</time>
      </trkpt>
      <trkpt lat="48.10684" lon="3.30132">
        <ele>112.5</ele>
        <time>2024-03-30T16:44:00.000Z</time>
      </trkpt>
      <trkpt lat="48.10686" lon="3.30133">
        <ele>112.4</ele>
        <time>2024-03-30T16:44:01.000Z</time>
      </trkpt>
      <trkpt lat="48.10689" lon="3.30135">
        <ele>112.3</ele>
        <time>2024-03-30T16:44:02.000Z</time>
      </trkpt>
      <trkpt lat="48.1069" lon="3.30137">
        <ele>112.3</ele>
        <time>2024-03-30T16:44:03.000Z</time>
      </trkpt>
      <trkpt lat="48.10692" lon="3.30139">
        <ele>112.2</ele>
        <time>2024-03-30T16:44:04.000Z</time>
      </trkpt>
      <trkpt lat="48.10694" lon="3.30142">
        <ele>112</ele>
        <time>2024-03-30T16:44:05.000Z</time>
      </trkpt>
      <trkpt lat="48.10695" lon="3.30144">
        <ele>112</ele>
        <time>2024-03-30T16:44:06.000Z</time>
      </trkpt>
      <trkpt lat="48.10696" lon="3.30146">
        <ele>111.9</ele>
        <time>2024-03-30T16:44:07.000Z</time>
      </trkpt>
      <trkpt lat="48.10697" lon="3.30148">
        <ele>111.8</ele>
        <time>2024-03-30T16:44:08.000Z</time>
      </trkpt>
      <trkpt lat="48.10699" lon="3.30151">
        <ele>111.7</ele>
        <time>2024-03-30T16:44:09.000Z</time>
      </trkpt>
      <trkpt lat="48.10701" lon="3.30154">
        <ele>111.5</ele>
        <time>2024-03-30T16:44:10.000Z</time>
      </trkpt>
      <trkpt lat="48.10702" lon="3.30161">
        <ele>111.5</ele>
        <time>2024-03-30T16:44:12.000Z</time>
      </trkpt>
      <trkpt lat="48.10703" lon="3.30165">
        <ele>111.4</ele>
        <time>2024-03-30T16:44:13.000Z</time>
      </trkpt>
      <trkpt lat="48.10705" lon="3.30169">
        <ele>111.3</ele>
        <time>2024-03-30T16:44:14.000Z</time>
      </trkpt>
      <trkpt lat="48.10706" lon="3.30171">
        <ele>111.3</ele>
        <time>2024-03-30T16:44:15.000Z</time>
      </trkpt>
      <trkpt lat="48.10707" lon="3.30173">
        <ele>111.3</ele>
        <time>2024-03-30T16:44:16.000Z</time>
      </trkpt>
      <trkpt lat="48.10707" lon="3.30175">
        <ele>111.4</ele>
        <time>2024-03-30T16:44:17.000Z</time>
      </trkpt>
      <trkpt lat="48.10708" lon="3.30178">
        <ele>111.4</ele>
        <time>2024-03-30T16:44:18.000Z</time>
      </trkpt>
      <trkpt lat="48.1071" lon="3.30184">
        <ele>111.5</ele>
        <time>2024-03-30T16:44:20.000Z</time>
      </trkpt>
      <trkpt lat="48.1071" lon="3.30187">
        <ele>111.6</ele>
        <time>2024-03-30T16:44:21.000Z</time>
      </trkpt>
      <trkpt lat="48.10711" lon="3.30192">
        <ele>111.7</ele>
        <time>2024-03-30T16:44:23.000Z</time>
      </trkpt>
      <trkpt lat="48.10712" lon="3.30195">
        <ele>111.7</ele>
        <time>2024-03-30T16:44:24.000Z</time>
      </trkpt>
      <trkpt lat="48.10713" lon="3.30197">
        <ele>111.7</ele>
        <time>2024-03-30T16:44:25.000Z</time>
      </trkpt>
      <trkpt lat="48.10713" lon="3.30199">
        <ele>111.7</ele>
        <time>2024-03-30T16:44:26.000Z</time>
      </trkpt>
      <trkpt lat="48.10713" lon="3.30203">
        <ele>111.8</ele>
        <time>2024-03-30T16:44:28.000Z</time>
      </trkpt>
      <trkpt lat="48.10714" lon="3.30206">
        <ele>111.7</ele>
        <time>2024-03-30T16:44:29.000Z</time>
      </trkpt>
      <trkpt lat="48.10714" lon="3.30208">
        <ele>111.7</ele>
        <time>2024-03-30T16:44:30.000Z</time>
      </trkpt>
      <trkpt lat="48.10714" lon="3.30211">
        <ele>111.8</ele>
        <time>2024-03-30T16:44:31.000Z</time>
      </trkpt>
      <trkpt lat="48.10714" lon="3.30212">
        <ele>111.8</ele>
        <time>2024-03-30T16:44:32.000Z</time>
      </trkpt>
      <trkpt lat="48.10714" lon="3.30214">
        <ele>111.8</ele>
        <time>2024-03-30T16:44:33.000Z</time>
      </trkpt>
      <trkpt lat="48.10714" lon="3.30215">
        <ele>111.8</ele>
        <time>2024-03-30T16:44:34.000Z</time>
      </trkpt>
      <trkpt lat="48.10714" lon="3.30218">
        <ele>111.8</ele>
        <time>2024-03-30T16:44:36.000Z</time>
      </trkpt>
      <trkpt lat="48.10713" lon="3.3022">
        <ele>112</ele>
        <time>2024-03-30T16:44:37.000Z</time>
      </trkpt>
      <trkpt lat="48.10713" lon="3.30223">
        <ele>112</ele>
        <time>2024-03-30T16:44:38.000Z</time>
      </trkpt>
      <trkpt lat="48.10714" lon="3.30226">
        <ele>112</ele>
        <time>2024-03-30T16:44:39.000Z</time>
      </trkpt>
      <trkpt lat="48.10715" lon="3.30228">
        <ele>112</ele>
        <time>2024-03-30T16:44:40.000Z</time>
      </trkpt>
      <trkpt lat="48.10715" lon="3.3023">
        <ele>112.1</ele>
        <time>2024-03-30T16:44:41.000Z</time>
      </trkpt>
      <trkpt lat="48.10717" lon="3.30231">
        <ele>111.9</ele>
        <time>2024-03-30T16:44:42.000Z</time>
      </trkpt>
      <trkpt lat="48.10718" lon="3.30233">
        <ele>111.8</ele>
        <time>2024-03-30T16:44:43.000Z</time>
      </trkpt>
      <trkpt lat="48.10718" lon="3.30235">
        <ele>111.9</ele>
        <time>2024-03-30T16:44:44.000Z</time>
      </trkpt>
      <trkpt lat="48.10718" lon="3.30236">
        <ele>112</ele>
        <time>2024-03-30T16:44:45.000Z</time>
      </trkpt>
      <trkpt lat="48.10717" lon="3.30238">
        <ele>112.1</ele>
        <time>2024-03-30T16:44:46.000Z</time>
      </trkpt>
      <trkpt lat="48.10717" lon="3.3024">
        <ele>112.2</ele>
        <time>2024-03-30T16:44:47.000Z</time>
      </trkpt>
      <trkpt lat="48.10718" lon="3.30243">
        <ele>112.2</ele>
        <time>2024-03-30T16:44:48.000Z</time>
      </trkpt>
      <trkpt lat="48.1072" lon="3.30246">
        <ele>112.1</ele>
        <time>2024-03-30T16:44:49.000Z</time>
      </trkpt>
      <trkpt lat="48.1072" lon="3.30249">
        <ele>112.2</ele>
        <time>2024-03-30T16:44:50.000Z</time>
      </trkpt>
      <trkpt lat="48.1072" lon="3.30251">
        <ele>112.3</ele>
        <time>2024-03-30T16:44:51.000Z</time>
      </trkpt>
      <trkpt lat="48.10723" lon="3.30259">
        <ele>112.2</ele>
        <time>2024-03-30T16:44:54.000Z</time>
      </trkpt>
      <trkpt lat="48.10722" lon="3.30261">
        <ele>112.4</ele>
        <time>2024-03-30T16:44:55.000Z</time>
      </trkpt>
      <trkpt lat="48.10722" lon="3.30263">
        <ele>112.5</ele>
        <time>2024-03-30T16:44:56.000Z</time>
      </trkpt>
      <trkpt lat="48.10723" lon="3.30265">
        <ele>112.5</ele>
        <time>2024-03-30T16:44:57.000Z</time>
      </trkpt>
      <trkpt lat="48.10725" lon="3.30269">
        <ele>112.4</ele>
        <time>2024-03-30T16:44:58.000Z</time>
      </trkpt>
      <trkpt lat="48.10726" lon="3.30272">
        <ele>112.4</ele>
        <time>2024-03-30T16:44:59.000Z</time>
      </trkpt>
      <trkpt lat="48.10726" lon="3.30273">
        <ele>112.4</ele>
        <time>2024-03-30T16:45:00.000Z</time>
      </trkpt>
      <trkpt lat="48.10726" lon="3.30273">
        <ele>112.4</ele>
        <time>2024-03-30T16:45:01.000Z</time>
      </trkpt>
      <trkpt lat="48.10726" lon="3.30273">
        <ele>112.4</ele>
        <time>2024-03-30T16:45:05.000Z</time>
      </trkpt>
      <trkpt lat="48.10726" lon="3.30273">
        <ele>112.4</ele>
        <time>2024-03-30T16:45:06.000Z</time>
      </trkpt>
      <trkpt lat="48.10726" lon="3.30275">
        <ele>112.5</ele>
        <time>2024-03-30T16:45:13.000Z</time>
      </trkpt>
      <trkpt lat="48.10728" lon="3.30278">
        <ele>112.4</ele>
        <time>2024-03-30T16:45:14.000Z</time>
      </trkpt>
      <trkpt lat="48.10728" lon="3.3028">
        <ele>112.5</ele>
        <time>2024-03-30T16:45:15.000Z</time>
      </trkpt>
      <trkpt lat="48.1073" lon="3.30286">
        <ele>112.5</ele>
        <time>2024-03-30T16:45:17.000Z</time>
      </trkpt>
      <trkpt lat="48.1073" lon="3.30288">
        <ele>112.5</ele>
        <time>2024-03-30T16:45:18.000Z</time>
      </trkpt>
      <trkpt lat="48.10731" lon="3.30291">
        <ele>112.5</ele>
        <time>2024-03-30T16:45:19.000Z</time>
      </trkpt>
      <trkpt lat="48.10732" lon="3.30294">
        <ele>112.5</ele>
        <time>2024-03-30T16:45:20.000Z</time>
      </trkpt>
      <trkpt lat="48.10734" lon="3.30302">
        <ele>112.6</ele>
        <time>2024-03-30T16:45:23.000Z</time>
      </trkpt>
      <trkpt lat="48.10734" lon="3.30305">
        <ele>112.7</ele>
        <time>2024-03-30T16:45:24.000Z</time>
      </trkpt>
      <trkpt lat="48.10734" lon="3.30306">
        <ele>112.8</ele>
        <time>2024-03-30T16:45:25.000Z</time>
      </trkpt>
      <trkpt lat="48.10735" lon="3.30309">
        <ele>112.9</ele>
        <time>2024-03-30T16:45:26.000Z</time>
      </trkpt>
      <trkpt lat="48.10736" lon="3.30312">
        <ele>113</ele>
        <time>2024-03-30T16:45:27.000Z</time>
      </trkpt>
      <trkpt lat="48.10737" lon="3.30315">
        <ele>113.1</ele>
        <time>2024-03-30T16:45:28.000Z</time>
      </trkpt>
      <trkpt lat="48.1074" lon="3.30319">
        <ele>113</ele>
        <time>2024-03-30T16:45:29.000Z</time>
      </trkpt>
      <trkpt lat="48.1075" lon="3.30333">
        <ele>113</ele>
        <time>2024-03-30T16:45:32.000Z</time>
      </trkpt>
      <trkpt lat="48.10757" lon="3.30342">
        <ele>112.6</ele>
        <time>2024-03-30T16:45:34.000Z</time>
      </trkpt>
      <trkpt lat="48.10759" lon="3.30345">
        <ele>112.4</ele>
        <time>2024-03-30T16:45:35.000Z</time>
      </trkpt>
      <trkpt lat="48.1076" lon="3.30348">
        <ele>112.4</ele>
        <time>2024-03-30T16:45:36.000Z</time>
      </trkpt>
      <trkpt lat="48.10761" lon="3.30351">
        <ele>112.4</ele>
        <time>2024-03-30T16:45:37.000Z</time>
      </trkpt>
      <trkpt lat="48.10772" lon="3.30376">
        <ele>112.2</ele>
        <time>2024-03-30T16:45:42.000Z</time>
      </trkpt>
      <trkpt lat="48.10772" lon="3.30378">
        <ele>112.2</ele>
        <time>2024-03-30T16:45:43.000Z</time>
      </trkpt>
      <trkpt lat="48.10774" lon="3.30382">
        <ele>112.2</ele>
        <time>2024-03-30T16:45:44.000Z</time>
      </trkpt>
      <trkpt lat="48.10776" lon="3.30386">
        <ele>112.1</ele>
        <time>2024-03-30T16:45:45.000Z</time>
      </trkpt>
      <trkpt lat="48.10775" lon="3.3039">
        <ele>112.3</ele>
        <time>2024-03-30T16:45:46.000Z</time>
      </trkpt>
      <trkpt lat="48.10775" lon="3.30396">
        <ele>112.6</ele>
        <time>2024-03-30T16:45:47.000Z</time>
      </trkpt>
      <trkpt lat="48.10779" lon="3.30403">
        <ele>112.4</ele>
        <time>2024-03-30T16:45:49.000Z</time>
      </trkpt>
      <trkpt lat="48.10783" lon="3.30409">
        <ele>112.2</ele>
        <time>2024-03-30T16:45:51.000Z</time>
      </trkpt>
      <trkpt lat="48.10785" lon="3.30412">
        <ele>112.1</ele>
        <time>2024-03-30T16:45:52.000Z</time>
      </trkpt>
      <trkpt lat="48.10789" lon="3.30423">
        <ele>112</ele>
        <time>2024-03-30T16:45:56.000Z</time>
      </trkpt>
      <trkpt lat="48.1079" lon="3.30424">
        <ele>111.9</ele>
        <time>2024-03-30T16:45:57.000Z</time>
      </trkpt>
      <trkpt lat="48.1079" lon="3.30424">
        <ele>111.9</ele>
        <time>2024-03-30T16:45:58.000Z</time>
      </trkpt>
      <trkpt lat="48.1079" lon="3.30424">
        <ele>111.9</ele>
        <time>2024-03-30T16:46:02.000Z</time>
      </trkpt>
      <trkpt lat="48.1079" lon="3.30424">
        <ele>111.9</ele>
        <time>2024-03-30T16:46:09.000Z</time>
      </trkpt>
      <trkpt lat="48.1079" lon="3.30427">
        <ele>112.1</ele>
        <time>2024-03-30T16:46:18.000Z</time>
      </trkpt>
      <trkpt lat="48.10791" lon="3.30429">
        <ele>112</ele>
        <time>2024-03-30T16:46:20.000Z</time>
      </trkpt>
      <trkpt lat="48.10791" lon="3.30431">
        <ele>112.1</ele>
        <time>2024-03-30T16:46:21.000Z</time>
      </trkpt>
      <trkpt lat="48.10791" lon="3.30432">
        <ele>112.1</ele>
        <time>2024-03-30T16:46:22.000Z</time>
      </trkpt>
      <trkpt lat="48.10792" lon="3.30437">
        <ele>112.2</ele>
        <time>2024-03-30T16:46:25.000Z</time>
      </trkpt>
      <trkpt lat="48.10793" lon="3.30439">
        <ele>112.2</ele>
        <time>2024-03-30T16:46:26.000Z</time>
      </trkpt>
      <trkpt lat="48.10794" lon="3.30442">
        <ele>112.2</ele>
        <time>2024-03-30T16:46:27.000Z</time>
      </trkpt>
      <trkpt lat="48.10795" lon="3.30444">
        <ele>112.1</ele>
        <time>2024-03-30T16:46:28.000Z</time>
      </trkpt>
      <trkpt lat="48.10797" lon="3.30448">
        <ele>112.1</ele>
        <time>2024-03-30T16:46:30.000Z</time>
      </trkpt>
      <trkpt lat="48.10797" lon="3.30449">
        <ele>112.1</ele>
        <time>2024-03-30T16:46:31.000Z</time>
      </trkpt>
      <trkpt lat="48.10797" lon="3.3045">
        <ele>112.2</ele>
        <time>2024-03-30T16:46:32.000Z</time>
      </trkpt>
      <trkpt lat="48.10797" lon="3.30451">
        <ele>112.2</ele>
        <time>2024-03-30T16:46:34.000Z</time>
      </trkpt>
      <trkpt lat="48.10798" lon="3.30454">
        <ele>112.3</ele>
        <time>2024-03-30T16:46:35.000Z</time>
      </trkpt>
      <trkpt lat="48.10798" lon="3.30454">
        <ele>112.3</ele>
        <time>2024-03-30T16:46:36.000Z</time>
      </trkpt>
      <trkpt lat="48.10798" lon="3.30454">
        <ele>112.3</ele>
        <time>2024-03-30T16:46:37.000Z</time>
      </trkpt>
      <trkpt lat="48.108" lon="3.30462">
        <ele>112.4</ele>
        <time>2024-03-30T16:46:43.000Z</time>
      </trkpt>
      <trkpt lat="48.10803" lon="3.30466">
        <ele>112.1</ele>
        <time>2024-03-30T16:46:44.000Z</time>
      </trkpt>
      <trkpt lat="48.10805" lon="3.30469">
        <ele>112</ele>
        <time>2024-03-30T16:46:45.000Z</time>
      </trkpt>
      <trkpt lat="48.10807" lon="3.30472">
        <ele>111.9</ele>
        <time>2024-03-30T16:46:46.000Z</time>
      </trkpt>
      <trkpt lat="48.10812" lon="3.3048">
        <ele>111.8</ele>
        <time>2024-03-30T16:46:50.000Z</time>
      </trkpt>
      <trkpt lat="48.10812" lon="3.3048">
        <ele>111.8</ele>
        <time>2024-03-30T16:46:51.000Z</time>
      </trkpt>
      <trkpt lat="48.10812" lon="3.3048">
        <ele>111.8</ele>
        <time>2024-03-30T16:46:52.000Z</time>
      </trkpt>
      <trkpt lat="48.10812" lon="3.3048">
        <ele>111.8</ele>
        <time>2024-03-30T16:47:02.000Z</time>
      </trkpt>
      <trkpt lat="48.10813" lon="3.30482">
        <ele>111.8</ele>
        <time>2024-03-30T16:47:06.000Z</time>
      </trkpt>
      <trkpt lat="48.10813" lon="3.30483">
        <ele>111.9</ele>
        <time>2024-03-30T16:47:07.000Z</time>
      </trkpt>
      <trkpt lat="48.10813" lon="3.30483">
        <ele>111.9</ele>
        <time>2024-03-30T16:47:08.000Z</time>
      </trkpt>
      <trkpt lat="48.10813" lon="3.30483">
        <ele>111.9</ele>
        <time>2024-03-30T16:47:09.000Z</time>
      </trkpt>
      <trkpt lat="48.10814" lon="3.30483">
        <ele>111.8</ele>
        <time>2024-03-30T16:47:10.000Z</time>
      </trkpt>
      <trkpt lat="48.10814" lon="3.30483">
        <ele>111.8</ele>
        <time>2024-03-30T16:47:11.000Z</time>
      </trkpt>
      <trkpt lat="48.10814" lon="3.30483">
        <ele>111.8</ele>
        <time>2024-03-30T16:47:19.000Z</time>
      </trkpt>
      <trkpt lat="48.10814" lon="3.30483">
        <ele>111.8</ele>
        <time>2024-03-30T16:47:33.000Z</time>
      </trkpt>
      <trkpt lat="48.10813" lon="3.30483">
        <ele>111.9</ele>
        <time>2024-03-30T16:47:43.000Z</time>
      </trkpt>
      <trkpt lat="48.10814" lon="3.30485">
        <ele>111.9</ele>
        <time>2024-03-30T16:47:51.000Z</time>
      </trkpt>
      <trkpt lat="48.10814" lon="3.30487">
        <ele>111.9</ele>
        <time>2024-03-30T16:48:02.000Z</time>
      </trkpt>
      <trkpt lat="48.10815" lon="3.30487">
        <ele>111.9</ele>
        <time>2024-03-30T16:48:03.000Z</time>
      </trkpt>
      <trkpt lat="48.10815" lon="3.30488">
        <ele>111.9</ele>
        <time>2024-03-30T16:48:04.000Z</time>
      </trkpt>
      <trkpt lat="48.10816" lon="3.30489">
        <ele>111.9</ele>
        <time>2024-03-30T16:48:05.000Z</time>
      </trkpt>
      <trkpt lat="48.10817" lon="3.30492">
        <ele>111.9</ele>
        <time>2024-03-30T16:48:06.000Z</time>
      </trkpt>
      <trkpt lat="48.10817" lon="3.30493">
        <ele>111.9</ele>
        <time>2024-03-30T16:48:07.000Z</time>
      </trkpt>
      <trkpt lat="48.10817" lon="3.30494">
        <ele>112</ele>
        <time>2024-03-30T16:48:08.000Z</time>
      </trkpt>
      <trkpt lat="48.1082" lon="3.30497">
        <ele>111.9</ele>
        <time>2024-03-30T16:48:10.000Z</time>
      </trkpt>
      <trkpt lat="48.10823" lon="3.30499">
        <ele>111.7</ele>
        <time>2024-03-30T16:48:11.000Z</time>
      </trkpt>
      <trkpt lat="48.10825" lon="3.30503">
        <ele>111.7</ele>
        <time>2024-03-30T16:48:12.000Z</time>
      </trkpt>
      <trkpt lat="48.10827" lon="3.30507">
        <ele>111.8</ele>
        <time>2024-03-30T16:48:13.000Z</time>
      </trkpt>
      <trkpt lat="48.10828" lon="3.30511">
        <ele>111.9</ele>
        <time>2024-03-30T16:48:14.000Z</time>
      </trkpt>
      <trkpt lat="48.10828" lon="3.30513">
        <ele>111.9</ele>
        <time>2024-03-30T16:48:15.000Z</time>
      </trkpt>
      <trkpt lat="48.10828" lon="3.30513">
        <ele>111.9</ele>
        <time>2024-03-30T16:48:16.000Z</time>
      </trkpt>
      <trkpt lat="48.10828" lon="3.30514">
        <ele>112</ele>
        <time>2024-03-30T16:48:17.000Z</time>
      </trkpt>
      <trkpt lat="48.10829" lon="3.30514">
        <ele>111.9</ele>
        <time>2024-03-30T16:48:19.000Z</time>
      </trkpt>
      <trkpt lat="48.10829" lon="3.30514">
        <ele>111.9</ele>
        <time>2024-03-30T16:48:28.000Z</time>
      </trkpt>
      <trkpt lat="48.10829" lon="3.30514">
        <ele>111.9</ele>
        <time>2024-03-30T16:48:40.000Z</time>
      </trkpt>
      <trkpt lat="48.10829" lon="3.30514">
        <ele>111.9</ele>
        <time>2024-03-30T16:49:08.000Z</time>
      </trkpt>
      <trkpt lat="48.1083" lon="3.30518">
        <ele>112</ele>
        <time>2024-03-30T16:49:22.000Z</time>
      </trkpt>
      <trkpt lat="48.10831" lon="3.3052">
        <ele>111.9</ele>
        <time>2024-03-30T16:49:23.000Z</time>
      </trkpt>
      <trkpt lat="48.10831" lon="3.30523">
        <ele>112.1</ele>
        <time>2024-03-30T16:49:24.000Z</time>
      </trkpt>
      <trkpt lat="48.10832" lon="3.30531">
        <ele>112.3</ele>
        <time>2024-03-30T16:49:27.000Z</time>
      </trkpt>
      <trkpt lat="48.10833" lon="3.30535">
        <ele>112.3</ele>
        <time>2024-03-30T16:49:28.000Z</time>
      </trkpt>
      <trkpt lat="48.10834" lon="3.30541">
        <ele>112.4</ele>
        <time>2024-03-30T16:49:30.000Z</time>
      </trkpt>
      <trkpt lat="48.10837" lon="3.30563">
        <ele>113</ele>
        <time>2024-03-30T16:49:37.000Z</time>
      </trkpt>
      <trkpt lat="48.10835" lon="3.30576">
        <ele>113.6</ele>
        <time>2024-03-30T16:49:41.000Z</time>
      </trkpt>
      <trkpt lat="48.10835" lon="3.30578">
        <ele>113.7</ele>
        <time>2024-03-30T16:49:42.000Z</time>
      </trkpt>
      <trkpt lat="48.10834" lon="3.30581">
        <ele>113.9</ele>
        <time>2024-03-30T16:49:43.000Z</time>
      </trkpt>
      <trkpt lat="48.10834" lon="3.30584">
        <ele>114</ele>
        <time>2024-03-30T16:49:44.000Z</time>
      </trkpt>
      <trkpt lat="48.10834" lon="3.30587">
        <ele>114.1</ele>
        <time>2024-03-30T16:49:45.000Z</time>
      </trkpt>
      <trkpt lat="48.10833" lon="3.30589">
        <ele>114.2</ele>
        <time>2024-03-30T16:49:46.000Z</time>
      </trkpt>
      <trkpt lat="48.10834" lon="3.30596">
        <ele>114.4</ele>
        <time>2024-03-30T16:49:48.000Z</time>
      </trkpt>
      <trkpt lat="48.10834" lon="3.30599">
        <ele>114.5</ele>
        <time>2024-03-30T16:49:49.000Z</time>
      </trkpt>
      <trkpt lat="48.10835" lon="3.30602">
        <ele>114.6</ele>
        <time>2024-03-30T16:49:50.000Z</time>
      </trkpt>
      <trkpt lat="48.10836" lon="3.30605">
        <ele>114.6</ele>
        <time>2024-03-30T16:49:51.000Z</time>
      </trkpt>
      <trkpt lat="48.10836" lon="3.30608">
        <ele>114.7</ele>
        <time>2024-03-30T16:49:52.000Z</time>
      </trkpt>
      <trkpt lat="48.10837" lon="3.30611">
        <ele>114.7</ele>
        <time>2024-03-30T16:49:53.000Z</time>
      </trkpt>
      <trkpt lat="48.10839" lon="3.30617">
        <ele>114.8</ele>
        <time>2024-03-30T16:49:55.000Z</time>
      </trkpt>
      <trkpt lat="48.10841" lon="3.30622">
        <ele>114.9</ele>
        <time>2024-03-30T16:49:57.000Z</time>
      </trkpt>
      <trkpt lat="48.10844" lon="3.30637">
        <ele>115.5</ele>
        <time>2024-03-30T16:50:02.000Z</time>
      </trkpt>
      <trkpt lat="48.10844" lon="3.3064">
        <ele>115.7</ele>
        <time>2024-03-30T16:50:03.000Z</time>
      </trkpt>
      <trkpt lat="48.10844" lon="3.30642">
        <ele>115.9</ele>
        <time>2024-03-30T16:50:04.000Z</time>
      </trkpt>
      <trkpt lat="48.10843" lon="3.30644">
        <ele>116.1</ele>
        <time>2024-03-30T16:50:05.000Z</time>
      </trkpt>
      <trkpt lat="48.10842" lon="3.30647">
        <ele>116.4</ele>
        <time>2024-03-30T16:50:06.000Z</time>
      </trkpt>
      <trkpt lat="48.10842" lon="3.30649">
        <ele>116.6</ele>
        <time>2024-03-30T16:50:07.000Z</time>
      </trkpt>
      <trkpt lat="48.10841" lon="3.3065">
        <ele>116.7</ele>
        <time>2024-03-30T16:50:08.000Z</time>
      </trkpt>
      <trkpt lat="48.10841" lon="3.30652">
        <ele>116.9</ele>
        <time>2024-03-30T16:50:09.000Z</time>
      </trkpt>
      <trkpt lat="48.1084" lon="3.30654">
        <ele>117.1</ele>
        <time>2024-03-30T16:50:10.000Z</time>
      </trkpt>
      <trkpt lat="48.10839" lon="3.30655">
        <ele>117.3</ele>
        <time>2024-03-30T16:50:11.000Z</time>
      </trkpt>
      <trkpt lat="48.10839" lon="3.30656">
        <ele>117.4</ele>
        <time>2024-03-30T16:50:12.000Z</time>
      </trkpt>
      <trkpt lat="48.10839" lon="3.30657">
        <ele>117.5</ele>
        <time>2024-03-30T16:50:13.000Z</time>
      </trkpt>
      <trkpt lat="48.10838" lon="3.30659">
        <ele>117.8</ele>
        <time>2024-03-30T16:50:14.000Z</time>
      </trkpt>
      <trkpt lat="48.10838" lon="3.30661">
        <ele>118</ele>
        <time>2024-03-30T16:50:15.000Z</time>
      </trkpt>
      <trkpt lat="48.10837" lon="3.30662">
        <ele>118.1</ele>
        <time>2024-03-30T16:50:16.000Z</time>
      </trkpt>
      <trkpt lat="48.10837" lon="3.30664">
        <ele>118.3</ele>
        <time>2024-03-30T16:50:17.000Z</time>
      </trkpt>
      <trkpt lat="48.10836" lon="3.30667">
        <ele>118.7</ele>
        <time>2024-03-30T16:50:19.000Z</time>
      </trkpt>
      <trkpt lat="48.10836" lon="3.30669">
        <ele>118.9</ele>
        <time>2024-03-30T16:50:20.000Z</time>
      </trkpt>
      <trkpt lat="48.10834" lon="3.30671">
        <ele>119.2</ele>
        <time>2024-03-30T16:50:22.000Z</time>
      </trkpt>
      <trkpt lat="48.10833" lon="3.30673">
        <ele>119.5</ele>
        <time>2024-03-30T16:50:23.000Z</time>
      </trkpt>
      <trkpt lat="48.10833" lon="3.30675">
        <ele>119.6</ele>
        <time>2024-03-30T16:50:24.000Z</time>
      </trkpt>
      <trkpt lat="48.10832" lon="3.30677">
        <ele>119.9</ele>
        <time>2024-03-30T16:50:25.000Z</time>
      </trkpt>
      <trkpt lat="48.10831" lon="3.30678">
        <ele>120.1</ele>
        <time>2024-03-30T16:50:26.000Z</time>
      </trkpt>
      <trkpt lat="48.10831" lon="3.3068">
        <ele>120.2</ele>
        <time>2024-03-30T16:50:27.000Z</time>
      </trkpt>
      <trkpt lat="48.1083" lon="3.30681">
        <ele>120.4</ele>
        <time>2024-03-30T16:50:28.000Z</time>
      </trkpt>
      <trkpt lat="48.10829" lon="3.30682">
        <ele>120.6</ele>
        <time>2024-03-30T16:50:29.000Z</time>
      </trkpt>
      <trkpt lat="48.10829" lon="3.30684">
        <ele>120.7</ele>
        <time>2024-03-30T16:50:30.000Z</time>
      </trkpt>
      <trkpt lat="48.10829" lon="3.30684">
        <ele>120.7</ele>
        <time>2024-03-30T16:50:31.000Z</time>
      </trkpt>
      <trkpt lat="48.10829" lon="3.30685">
        <ele>120.8</ele>
        <time>2024-03-30T16:50:32.000Z</time>
      </trkpt>
      <trkpt lat="48.10828" lon="3.30686">
        <ele>121</ele>
        <time>2024-03-30T16:50:33.000Z</time>
      </trkpt>
      <trkpt lat="48.10828" lon="3.30688">
        <ele>121.1</ele>
        <time>2024-03-30T16:50:34.000Z</time>
      </trkpt>
      <trkpt lat="48.10827" lon="3.3069">
        <ele>121.4</ele>
        <time>2024-03-30T16:50:35.000Z</time>
      </trkpt>
      <trkpt lat="48.10826" lon="3.30691">
        <ele>121.5</ele>
        <time>2024-03-30T16:50:36.000Z</time>
      </trkpt>
      <trkpt lat="48.10826" lon="3.30693">
        <ele>121.7</ele>
        <time>2024-03-30T16:50:37.000Z</time>
      </trkpt>
      <trkpt lat="48.10826" lon="3.30695">
        <ele>121.8</ele>
        <time>2024-03-30T16:50:38.000Z</time>
      </trkpt>
      <trkpt lat="48.10826" lon="3.30696">
        <ele>121.9</ele>
        <time>2024-03-30T16:50:39.000Z</time>
      </trkpt>
      <trkpt lat="48.10826" lon="3.30698">
        <ele>122</ele>
        <time>2024-03-30T16:50:40.000Z</time>
      </trkpt>
      <trkpt lat="48.10826" lon="3.307">
        <ele>122.2</ele>
        <time>2024-03-30T16:50:41.000Z</time>
      </trkpt>
      <trkpt lat="48.10826" lon="3.30702">
        <ele>122.3</ele>
        <time>2024-03-30T16:50:42.000Z</time>
      </trkpt>
      <trkpt lat="48.10826" lon="3.30703">
        <ele>122.4</ele>
        <time>2024-03-30T16:50:43.000Z</time>
      </trkpt>
      <trkpt lat="48.10827" lon="3.30705">
        <ele>122.4</ele>
        <time>2024-03-30T16:50:44.000Z</time>
      </trkpt>
      <trkpt lat="48.10827" lon="3.30707">
        <ele>122.6</ele>
        <time>2024-03-30T16:50:45.000Z</time>
      </trkpt>
      <trkpt lat="48.10827" lon="3.30709">
        <ele>122.7</ele>
        <time>2024-03-30T16:50:46.000Z</time>
      </trkpt>
      <trkpt lat="48.10827" lon="3.30711">
        <ele>122.9</ele>
        <time>2024-03-30T16:50:47.000Z</time>
      </trkpt>
      <trkpt lat="48.10827" lon="3.30713">
        <ele>123</ele>
        <time>2024-03-30T16:50:48.000Z</time>
      </trkpt>
      <trkpt lat="48.10828" lon="3.30715">
        <ele>123.1</ele>
        <time>2024-03-30T16:50:49.000Z</time>
      </trkpt>
      <trkpt lat="48.10828" lon="3.30716">
        <ele>123.1</ele>
        <time>2024-03-30T16:50:50.000Z</time>
      </trkpt>
      <trkpt lat="48.10827" lon="3.30718">
        <ele>123.4</ele>
        <time>2024-03-30T16:50:51.000Z</time>
      </trkpt>
      <trkpt lat="48.10827" lon="3.30719">
        <ele>123.5</ele>
        <time>2024-03-30T16:50:52.000Z</time>
      </trkpt>
      <trkpt lat="48.10827" lon="3.30721">
        <ele>123.6</ele>
        <time>2024-03-30T16:50:53.000Z</time>
      </trkpt>
      <trkpt lat="48.10827" lon="3.30723">
        <ele>123.8</ele>
        <time>2024-03-30T16:50:54.000Z</time>
      </trkpt>
      <trkpt lat="48.10827" lon="3.30725">
        <ele>124</ele>
        <time>2024-03-30T16:50:55.000Z</time>
      </trkpt>
      <trkpt lat="48.10828" lon="3.30727">
        <ele>124.1</ele>
        <time>2024-03-30T16:50:56.000Z</time>
      </trkpt>
      <trkpt lat="48.10828" lon="3.30728">
        <ele>124.2</ele>
        <time>2024-03-30T16:50:57.000Z</time>
      </trkpt>
      <trkpt lat="48.10828" lon="3.30729">
        <ele>124.3</ele>
        <time>2024-03-30T16:50:58.000Z</time>
      </trkpt>
      <trkpt lat="48.10829" lon="3.3073">
        <ele>124.3</ele>
        <time>2024-03-30T16:50:59.000Z</time>
      </trkpt>
      <trkpt lat="48.10829" lon="3.30732">
        <ele>124.5</ele>
        <time>2024-03-30T16:51:00.000Z</time>
      </trkpt>
      <trkpt lat="48.10829" lon="3.30735">
        <ele>124.8</ele>
        <time>2024-03-30T16:51:01.000Z</time>
      </trkpt>
      <trkpt lat="48.1083" lon="3.30737">
        <ele>124.9</ele>
        <time>2024-03-30T16:51:02.000Z</time>
      </trkpt>
      <trkpt lat="48.1083" lon="3.30739">
        <ele>125.1</ele>
        <time>2024-03-30T16:51:03.000Z</time>
      </trkpt>
      <trkpt lat="48.1083" lon="3.3074">
        <ele>125.2</ele>
        <time>2024-03-30T16:51:04.000Z</time>
      </trkpt>
      <trkpt lat="48.1083" lon="3.30741">
        <ele>125.3</ele>
        <time>2024-03-30T16:51:05.000Z</time>
      </trkpt>
      <trkpt lat="48.1083" lon="3.30743">
        <ele>125.5</ele>
        <time>2024-03-30T16:51:06.000Z</time>
      </trkpt>
      <trkpt lat="48.10831" lon="3.30746">
        <ele>125.7</ele>
        <time>2024-03-30T16:51:07.000Z</time>
      </trkpt>
      <trkpt lat="48.10831" lon="3.30748">
        <ele>126</ele>
        <time>2024-03-30T16:51:08.000Z</time>
      </trkpt>
      <trkpt lat="48.10832" lon="3.3075">
        <ele>126.1</ele>
        <time>2024-03-30T16:51:09.000Z</time>
      </trkpt>
      <trkpt lat="48.10832" lon="3.30752">
        <ele>126.2</ele>
        <time>2024-03-30T16:51:10.000Z</time>
      </trkpt>
      <trkpt lat="48.10833" lon="3.30754">
        <ele>126.3</ele>
        <time>2024-03-30T16:51:11.000Z</time>
      </trkpt>
      <trkpt lat="48.10834" lon="3.30755">
        <ele>126.3</ele>
        <time>2024-03-30T16:51:12.000Z</time>
      </trkpt>
      <trkpt lat="48.10834" lon="3.30757">
        <ele>126.4</ele>
        <time>2024-03-30T16:51:13.000Z</time>
      </trkpt>
      <trkpt lat="48.10834" lon="3.30758">
        <ele>126.5</ele>
        <time>2024-03-30T16:51:14.000Z</time>
      </trkpt>
      <trkpt lat="48.10835" lon="3.3076">
        <ele>126.5</ele>
        <time>2024-03-30T16:51:15.000Z</time>
      </trkpt>
      <trkpt lat="48.10835" lon="3.30761">
        <ele>126.6</ele>
        <time>2024-03-30T16:51:16.000Z</time>
      </trkpt>
      <trkpt lat="48.10836" lon="3.30764">
        <ele>126.7</ele>
        <time>2024-03-30T16:51:17.000Z</time>
      </trkpt>
      <trkpt lat="48.10836" lon="3.30766">
        <ele>126.9</ele>
        <time>2024-03-30T16:51:18.000Z</time>
      </trkpt>
      <trkpt lat="48.10836" lon="3.30768">
        <ele>127</ele>
        <time>2024-03-30T16:51:19.000Z</time>
      </trkpt>
      <trkpt lat="48.10837" lon="3.30769">
        <ele>127</ele>
        <time>2024-03-30T16:51:20.000Z</time>
      </trkpt>
      <trkpt lat="48.10837" lon="3.30771">
        <ele>127.1</ele>
        <time>2024-03-30T16:51:21.000Z</time>
      </trkpt>
      <trkpt lat="48.10838" lon="3.30773">
        <ele>127.2</ele>
        <time>2024-03-30T16:51:22.000Z</time>
      </trkpt>
      <trkpt lat="48.10839" lon="3.30775">
        <ele>127.2</ele>
        <time>2024-03-30T16:51:23.000Z</time>
      </trkpt>
      <trkpt lat="48.10839" lon="3.30776">
        <ele>127.3</ele>
        <time>2024-03-30T16:51:24.000Z</time>
      </trkpt>
      <trkpt lat="48.1084" lon="3.30778">
        <ele>127.3</ele>
        <time>2024-03-30T16:51:25.000Z</time>
      </trkpt>
      <trkpt lat="48.1084" lon="3.3078">
        <ele>127.5</ele>
        <time>2024-03-30T16:51:26.000Z</time>
      </trkpt>
      <trkpt lat="48.1084" lon="3.30782">
        <ele>127.6</ele>
        <time>2024-03-30T16:51:27.000Z</time>
      </trkpt>
      <trkpt lat="48.1084" lon="3.30784">
        <ele>127.8</ele>
        <time>2024-03-30T16:51:28.000Z</time>
      </trkpt>
      <trkpt lat="48.10841" lon="3.30786">
        <ele>127.8</ele>
        <time>2024-03-30T16:51:29.000Z</time>
      </trkpt>
      <trkpt lat="48.10841" lon="3.30788">
        <ele>128</ele>
        <time>2024-03-30T16:51:30.000Z</time>
      </trkpt>
      <trkpt lat="48.10842" lon="3.3079">
        <ele>128.1</ele>
        <time>2024-03-30T16:51:31.000Z</time>
      </trkpt>
      <trkpt lat="48.10843" lon="3.30791">
        <ele>128.1</ele>
        <time>2024-03-30T16:51:32.000Z</time>
      </trkpt>
      <trkpt lat="48.10843" lon="3.30793">
        <ele>128.2</ele>
        <time>2024-03-30T16:51:33.000Z</time>
      </trkpt>
      <trkpt lat="48.10844" lon="3.30795">
        <ele>128.3</ele>
        <time>2024-03-30T16:51:34.000Z</time>
      </trkpt>
      <trkpt lat="48.10845" lon="3.30797">
        <ele>128.4</ele>
        <time>2024-03-30T16:51:35.000Z</time>
      </trkpt>
      <trkpt lat="48.10846" lon="3.30799">
        <ele>128.5</ele>
        <time>2024-03-30T16:51:36.000Z</time>
      </trkpt>
      <trkpt lat="48.10846" lon="3.30802">
        <ele>128.8</ele>
        <time>2024-03-30T16:51:37.000Z</time>
      </trkpt>
      <trkpt lat="48.10847" lon="3.30804">
        <ele>128.9</ele>
        <time>2024-03-30T16:51:38.000Z</time>
      </trkpt>
      <trkpt lat="48.10848" lon="3.30806">
        <ele>129</ele>
        <time>2024-03-30T16:51:39.000Z</time>
      </trkpt>
      <trkpt lat="48.10849" lon="3.30808">
        <ele>129.1</ele>
        <time>2024-03-30T16:51:40.000Z</time>
      </trkpt>
      <trkpt lat="48.10849" lon="3.30809">
        <ele>129.2</ele>
        <time>2024-03-30T16:51:41.000Z</time>
      </trkpt>
      <trkpt lat="48.1085" lon="3.30812">
        <ele>129.4</ele>
        <time>2024-03-30T16:51:42.000Z</time>
      </trkpt>
      <trkpt lat="48.10851" lon="3.30815">
        <ele>129.5</ele>
        <time>2024-03-30T16:51:43.000Z</time>
      </trkpt>
      <trkpt lat="48.10851" lon="3.30818">
        <ele>129.8</ele>
        <time>2024-03-30T16:51:44.000Z</time>
      </trkpt>
      <trkpt lat="48.10852" lon="3.3082">
        <ele>129.9</ele>
        <time>2024-03-30T16:51:45.000Z</time>
      </trkpt>
      <trkpt lat="48.10852" lon="3.30822">
        <ele>130</ele>
        <time>2024-03-30T16:51:46.000Z</time>
      </trkpt>
      <trkpt lat="48.10853" lon="3.30824">
        <ele>130.1</ele>
        <time>2024-03-30T16:51:47.000Z</time>
      </trkpt>
      <trkpt lat="48.10854" lon="3.30827">
        <ele>130.3</ele>
        <time>2024-03-30T16:51:48.000Z</time>
      </trkpt>
      <trkpt lat="48.10855" lon="3.30828">
        <ele>130.2</ele>
        <time>2024-03-30T16:51:49.000Z</time>
      </trkpt>
      <trkpt lat="48.10856" lon="3.30831">
        <ele>130.4</ele>
        <time>2024-03-30T16:51:50.000Z</time>
      </trkpt>
      <trkpt lat="48.10857" lon="3.30833">
        <ele>130.4</ele>
        <time>2024-03-30T16:51:51.000Z</time>
      </trkpt>
      <trkpt lat="48.10858" lon="3.30836">
        <ele>130.6</ele>
        <time>2024-03-30T16:51:52.000Z</time>
      </trkpt>
      <trkpt lat="48.10859" lon="3.30839">
        <ele>130.8</ele>
        <time>2024-03-30T16:51:53.000Z</time>
      </trkpt>
      <trkpt lat="48.10859" lon="3.30842">
        <ele>131.1</ele>
        <time>2024-03-30T16:51:54.000Z</time>
      </trkpt>
      <trkpt lat="48.1086" lon="3.30843">
        <ele>131.2</ele>
        <time>2024-03-30T16:51:55.000Z</time>
      </trkpt>
      <trkpt lat="48.1086" lon="3.30846">
        <ele>131.5</ele>
        <time>2024-03-30T16:51:56.000Z</time>
      </trkpt>
      <trkpt lat="48.10861" lon="3.30849">
        <ele>131.7</ele>
        <time>2024-03-30T16:51:57.000Z</time>
      </trkpt>
      <trkpt lat="48.10862" lon="3.30851">
        <ele>131.8</ele>
        <time>2024-03-30T16:51:58.000Z</time>
      </trkpt>
      <trkpt lat="48.10863" lon="3.30854">
        <ele>132</ele>
        <time>2024-03-30T16:51:59.000Z</time>
      </trkpt>
      <trkpt lat="48.10864" lon="3.30856">
        <ele>132.1</ele>
        <time>2024-03-30T16:52:00.000Z</time>
      </trkpt>
      <trkpt lat="48.10865" lon="3.30858">
        <ele>132.2</ele>
        <time>2024-03-30T16:52:01.000Z</time>
      </trkpt>
      <trkpt lat="48.10865" lon="3.30861">
        <ele>132.6</ele>
        <time>2024-03-30T16:52:02.000Z</time>
      </trkpt>
      <trkpt lat="48.10866" lon="3.30863">
        <ele>132.6</ele>
        <time>2024-03-30T16:52:03.000Z</time>
      </trkpt>
      <trkpt lat="48.10867" lon="3.30865">
        <ele>132.6</ele>
        <time>2024-03-30T16:52:04.000Z</time>
      </trkpt>
      <trkpt lat="48.10868" lon="3.30868">
        <ele>132.7</ele>
        <time>2024-03-30T16:52:05.000Z</time>
      </trkpt>
      <trkpt lat="48.10869" lon="3.3087">
        <ele>132.7</ele>
        <time>2024-03-30T16:52:06.000Z</time>
      </trkpt>
      <trkpt lat="48.1087" lon="3.30872">
        <ele>132.7</ele>
        <time>2024-03-30T16:52:07.000Z</time>
      </trkpt>
      <trkpt lat="48.10871" lon="3.30874">
        <ele>132.7</ele>
        <time>2024-03-30T16:52:08.000Z</time>
      </trkpt>
      <trkpt lat="48.10871" lon="3.30876">
        <ele>132.8</ele>
        <time>2024-03-30T16:52:09.000Z</time>
      </trkpt>
      <trkpt lat="48.10872" lon="3.30878">
        <ele>132.8</ele>
        <time>2024-03-30T16:52:10.000Z</time>
      </trkpt>
      <trkpt lat="48.10873" lon="3.30881">
        <ele>132.8</ele>
        <time>2024-03-30T16:52:11.000Z</time>
      </trkpt>
      <trkpt lat="48.10873" lon="3.30883">
        <ele>133</ele>
        <time>2024-03-30T16:52:12.000Z</time>
      </trkpt>
      <trkpt lat="48.10874" lon="3.30885">
        <ele>132.9</ele>
        <time>2024-03-30T16:52:13.000Z</time>
      </trkpt>
      <trkpt lat="48.10875" lon="3.30888">
        <ele>133</ele>
        <time>2024-03-30T16:52:14.000Z</time>
      </trkpt>
      <trkpt lat="48.10875" lon="3.3089">
        <ele>133.1</ele>
        <time>2024-03-30T16:52:15.000Z</time>
      </trkpt>
      <trkpt lat="48.10876" lon="3.30892">
        <ele>133.1</ele>
        <time>2024-03-30T16:52:16.000Z</time>
      </trkpt>
      <trkpt lat="48.10877" lon="3.30895">
        <ele>133.3</ele>
        <time>2024-03-30T16:52:17.000Z</time>
      </trkpt>
      <trkpt lat="48.10878" lon="3.30897">
        <ele>133.3</ele>
        <time>2024-03-30T16:52:18.000Z</time>
      </trkpt>
      <trkpt lat="48.10878" lon="3.30898">
        <ele>133.4</ele>
        <time>2024-03-30T16:52:19.000Z</time>
      </trkpt>
      <trkpt lat="48.10879" lon="3.309">
        <ele>133.5</ele>
        <time>2024-03-30T16:52:20.000Z</time>
      </trkpt>
      <trkpt lat="48.10881" lon="3.30902">
        <ele>133.4</ele>
        <time>2024-03-30T16:52:21.000Z</time>
      </trkpt>
      <trkpt lat="48.10882" lon="3.30905">
        <ele>133.6</ele>
        <time>2024-03-30T16:52:22.000Z</time>
      </trkpt>
      <trkpt lat="48.10883" lon="3.30908">
        <ele>133.8</ele>
        <time>2024-03-30T16:52:23.000Z</time>
      </trkpt>
      <trkpt lat="48.10884" lon="3.30909">
        <ele>133.7</ele>
        <time>2024-03-30T16:52:24.000Z</time>
      </trkpt>
      <trkpt lat="48.10885" lon="3.30912">
        <ele>133.9</ele>
        <time>2024-03-30T16:52:25.000Z</time>
      </trkpt>
      <trkpt lat="48.10886" lon="3.30914">
        <ele>134</ele>
        <time>2024-03-30T16:52:26.000Z</time>
      </trkpt>
      <trkpt lat="48.10887" lon="3.30917">
        <ele>134.2</ele>
        <time>2024-03-30T16:52:27.000Z</time>
      </trkpt>
      <trkpt lat="48.10888" lon="3.30919">
        <ele>134.3</ele>
        <time>2024-03-30T16:52:28.000Z</time>
      </trkpt>
      <trkpt lat="48.1089" lon="3.30923">
        <ele>134.3</ele>
        <time>2024-03-30T16:52:29.000Z</time>
      </trkpt>
      <trkpt lat="48.10891" lon="3.30926">
        <ele>134.3</ele>
        <time>2024-03-30T16:52:30.000Z</time>
      </trkpt>
      <trkpt lat="48.10892" lon="3.30928">
        <ele>134.3</ele>
        <time>2024-03-30T16:52:31.000Z</time>
      </trkpt>
      <trkpt lat="48.10894" lon="3.30931">
        <ele>134.1</ele>
        <time>2024-03-30T16:52:32.000Z</time>
      </trkpt>
      <trkpt lat="48.10902" lon="3.30949">
        <ele>133.9</ele>
        <time>2024-03-30T16:52:38.000Z</time>
      </trkpt>
      <trkpt lat="48.10914" lon="3.30975">
        <ele>133.5</ele>
        <time>2024-03-30T16:52:45.000Z</time>
      </trkpt>
      <trkpt lat="48.10927" lon="3.31001">
        <ele>131.5</ele>
        <time>2024-03-30T16:52:51.000Z</time>
      </trkpt>
      <trkpt lat="48.10939" lon="3.31023">
        <ele>130</ele>
        <time>2024-03-30T16:52:54.000Z</time>
      </trkpt>
      <trkpt lat="48.10944" lon="3.3103">
        <ele>129.2</ele>
        <time>2024-03-30T16:52:55.000Z</time>
      </trkpt>
      <trkpt lat="48.10959" lon="3.31055">
        <ele>127.3</ele>
        <time>2024-03-30T16:52:58.000Z</time>
      </trkpt>
      <trkpt lat="48.10964" lon="3.31062">
        <ele>126.5</ele>
        <time>2024-03-30T16:52:59.000Z</time>
      </trkpt>
      <trkpt lat="48.10969" lon="3.31069">
        <ele>125.6</ele>
        <time>2024-03-30T16:53:00.000Z</time>
      </trkpt>
      <trkpt lat="48.10974" lon="3.31075">
        <ele>124.7</ele>
        <time>2024-03-30T16:53:01.000Z</time>
      </trkpt>
      <trkpt lat="48.10977" lon="3.31079">
        <ele>124.2</ele>
        <time>2024-03-30T16:53:02.000Z</time>
      </trkpt>
      <trkpt lat="48.10979" lon="3.31081">
        <ele>123.8</ele>
        <time>2024-03-30T16:53:03.000Z</time>
      </trkpt>
      <trkpt lat="48.10981" lon="3.31082">
        <ele>123.4</ele>
        <time>2024-03-30T16:53:04.000Z</time>
      </trkpt>
      <trkpt lat="48.10983" lon="3.31084">
        <ele>123.1</ele>
        <time>2024-03-30T16:53:05.000Z</time>
      </trkpt>
      <trkpt lat="48.10983" lon="3.31085">
        <ele>123</ele>
        <time>2024-03-30T16:53:06.000Z</time>
      </trkpt>
      <trkpt lat="48.10984" lon="3.31086">
        <ele>122.9</ele>
        <time>2024-03-30T16:53:07.000Z</time>
      </trkpt>
      <trkpt lat="48.10986" lon="3.31087">
        <ele>122.5</ele>
        <time>2024-03-30T16:53:08.000Z</time>
      </trkpt>
      <trkpt lat="48.10986" lon="3.31088">
        <ele>122.5</ele>
        <time>2024-03-30T16:53:09.000Z</time>
      </trkpt>
      <trkpt lat="48.10986" lon="3.31089">
        <ele>122.5</ele>
        <time>2024-03-30T16:53:10.000Z</time>
      </trkpt>
      <trkpt lat="48.10987" lon="3.31091">
        <ele>122.4</ele>
        <time>2024-03-30T16:53:11.000Z</time>
      </trkpt>
      <trkpt lat="48.10989" lon="3.31094">
        <ele>122.1</ele>
        <time>2024-03-30T16:53:13.000Z</time>
      </trkpt>
      <trkpt lat="48.10989" lon="3.31095">
        <ele>122.1</ele>
        <time>2024-03-30T16:53:14.000Z</time>
      </trkpt>
      <trkpt lat="48.10989" lon="3.31095">
        <ele>122.1</ele>
        <time>2024-03-30T16:53:15.000Z</time>
      </trkpt>
      <trkpt lat="48.1099" lon="3.31097">
        <ele>121.9</ele>
        <time>2024-03-30T16:53:16.000Z</time>
      </trkpt>
      <trkpt lat="48.10991" lon="3.31098">
        <ele>121.8</ele>
        <time>2024-03-30T16:53:17.000Z</time>
      </trkpt>
      <trkpt lat="48.10997" lon="3.31108">
        <ele>121.2</ele>
        <time>2024-03-30T16:53:20.000Z</time>
      </trkpt>
      <trkpt lat="48.10999" lon="3.31114">
        <ele>121.3</ele>
        <time>2024-03-30T16:53:22.000Z</time>
      </trkpt>
      <trkpt lat="48.10999" lon="3.31116">
        <ele>121.5</ele>
        <time>2024-03-30T16:53:23.000Z</time>
      </trkpt>
      <trkpt lat="48.11" lon="3.31118">
        <ele>121.5</ele>
        <time>2024-03-30T16:53:24.000Z</time>
      </trkpt>
      <trkpt lat="48.11" lon="3.3112">
        <ele>121.6</ele>
        <time>2024-03-30T16:53:25.000Z</time>
      </trkpt>
      <trkpt lat="48.11001" lon="3.31121">
        <ele>121.7</ele>
        <time>2024-03-30T16:53:26.000Z</time>
      </trkpt>
      <trkpt lat="48.11001" lon="3.31123">
        <ele>121.8</ele>
        <time>2024-03-30T16:53:27.000Z</time>
      </trkpt>
      <trkpt lat="48.11002" lon="3.31125">
        <ele>121.9</ele>
        <time>2024-03-30T16:53:28.000Z</time>
      </trkpt>
      <trkpt lat="48.11002" lon="3.31125">
        <ele>121.9</ele>
        <time>2024-03-30T16:53:29.000Z</time>
      </trkpt>
      <trkpt lat="48.11002" lon="3.31125">
        <ele>121.9</ele>
        <time>2024-03-30T16:53:30.000Z</time>
      </trkpt>
      <trkpt lat="48.11002" lon="3.31125">
        <ele>121.9</ele>
        <time>2024-03-30T16:53:39.000Z</time>
      </trkpt>
      <trkpt lat="48.11002" lon="3.31125">
        <ele>121.9</ele>
        <time>2024-03-30T16:53:48.000Z</time>
      </trkpt>
      <trkpt lat="48.11002" lon="3.31125">
        <ele>121.9</ele>
        <time>2024-03-30T16:54:03.000Z</time>
      </trkpt>
      <trkpt lat="48.11004" lon="3.31132">
        <ele>122.3</ele>
        <time>2024-03-30T16:54:12.000Z</time>
      </trkpt>
      <trkpt lat="48.11004" lon="3.31139">
        <ele>122.9</ele>
        <time>2024-03-30T16:54:15.000Z</time>
      </trkpt>
      <trkpt lat="48.11005" lon="3.31141">
        <ele>123.1</ele>
        <time>2024-03-30T16:54:16.000Z</time>
      </trkpt>
      <trkpt lat="48.11006" lon="3.31145">
        <ele>123.5</ele>
        <time>2024-03-30T16:54:18.000Z</time>
      </trkpt>
      <trkpt lat="48.11007" lon="3.31147">
        <ele>123.7</ele>
        <time>2024-03-30T16:54:19.000Z</time>
      </trkpt>
      <trkpt lat="48.11007" lon="3.31149">
        <ele>123.9</ele>
        <time>2024-03-30T16:54:20.000Z</time>
      </trkpt>
      <trkpt lat="48.11007" lon="3.31149">
        <ele>123.9</ele>
        <time>2024-03-30T16:54:23.000Z</time>
      </trkpt>
      <trkpt lat="48.11007" lon="3.3115">
        <ele>124</ele>
        <time>2024-03-30T16:54:24.000Z</time>
      </trkpt>
      <trkpt lat="48.11009" lon="3.31151">
        <ele>124.1</ele>
        <time>2024-03-30T16:54:25.000Z</time>
      </trkpt>
      <trkpt lat="48.1101" lon="3.31151">
        <ele>124.1</ele>
        <time>2024-03-30T16:54:26.000Z</time>
      </trkpt>
      <trkpt lat="48.11011" lon="3.31151">
        <ele>124.1</ele>
        <time>2024-03-30T16:54:28.000Z</time>
      </trkpt>
      <trkpt lat="48.11011" lon="3.31151">
        <ele>124.1</ele>
        <time>2024-03-30T16:54:29.000Z</time>
      </trkpt>
      <trkpt lat="48.11012" lon="3.31152">
        <ele>124.2</ele>
        <time>2024-03-30T16:54:30.000Z</time>
      </trkpt>
      <trkpt lat="48.11013" lon="3.31152">
        <ele>124.2</ele>
        <time>2024-03-30T16:54:31.000Z</time>
      </trkpt>
      <trkpt lat="48.11013" lon="3.31154">
        <ele>124.4</ele>
        <time>2024-03-30T16:54:33.000Z</time>
      </trkpt>
      <trkpt lat="48.11014" lon="3.31154">
        <ele>124.4</ele>
        <time>2024-03-30T16:54:34.000Z</time>
      </trkpt>
      <trkpt lat="48.11014" lon="3.31154">
        <ele>124.4</ele>
        <time>2024-03-30T16:54:35.000Z</time>
      </trkpt>
      <trkpt lat="48.11014" lon="3.31154">
        <ele>124.4</ele>
        <time>2024-03-30T16:54:36.000Z</time>
      </trkpt>
      <trkpt lat="48.11014" lon="3.31154">
        <ele>124.4</ele>
        <time>2024-03-30T16:54:38.000Z</time>
      </trkpt>
      <trkpt lat="48.11014" lon="3.31154">
        <ele>124.4</ele>
        <time>2024-03-30T16:54:43.000Z</time>
      </trkpt>
      <trkpt lat="48.11015" lon="3.31154">
        <ele>124.4</ele>
        <time>2024-03-30T16:54:44.000Z</time>
      </trkpt>
      <trkpt lat="48.11015" lon="3.31153">
        <ele>124.3</ele>
        <time>2024-03-30T16:54:45.000Z</time>
      </trkpt>
      <trkpt lat="48.11016" lon="3.31148">
        <ele>123.6</ele>
        <time>2024-03-30T16:54:47.000Z</time>
      </trkpt>
      <trkpt lat="48.11017" lon="3.31146">
        <ele>123.3</ele>
        <time>2024-03-30T16:54:48.000Z</time>
      </trkpt>
      <trkpt lat="48.11018" lon="3.31145">
        <ele>123.2</ele>
        <time>2024-03-30T16:54:49.000Z</time>
      </trkpt>
      <trkpt lat="48.11018" lon="3.31144">
        <ele>123</ele>
        <time>2024-03-30T16:54:50.000Z</time>
      </trkpt>
      <trkpt lat="48.11019" lon="3.31144">
        <ele>123</ele>
        <time>2024-03-30T16:54:51.000Z</time>
      </trkpt>
      <trkpt lat="48.1102" lon="3.31144">
        <ele>123</ele>
        <time>2024-03-30T16:54:53.000Z</time>
      </trkpt>
      <trkpt lat="48.11022" lon="3.31144">
        <ele>122.9</ele>
        <time>2024-03-30T16:54:54.000Z</time>
      </trkpt>
      <trkpt lat="48.11024" lon="3.31143">
        <ele>122.7</ele>
        <time>2024-03-30T16:54:55.000Z</time>
      </trkpt>
      <trkpt lat="48.11025" lon="3.31143">
        <ele>122.7</ele>
        <time>2024-03-30T16:54:56.000Z</time>
      </trkpt>
      <trkpt lat="48.11026" lon="3.31143">
        <ele>122.6</ele>
        <time>2024-03-30T16:54:57.000Z</time>
      </trkpt>
      <trkpt lat="48.11027" lon="3.31143">
        <ele>122.6</ele>
        <time>2024-03-30T16:54:58.000Z</time>
      </trkpt>
      <trkpt lat="48.11029" lon="3.31143">
        <ele>122.6</ele>
        <time>2024-03-30T16:54:59.000Z</time>
      </trkpt>
      <trkpt lat="48.11032" lon="3.31143">
        <ele>122.6</ele>
        <time>2024-03-30T16:55:01.000Z</time>
      </trkpt>
      <trkpt lat="48.11034" lon="3.31141">
        <ele>122.3</ele>
        <time>2024-03-30T16:55:03.000Z</time>
      </trkpt>
      <trkpt lat="48.11036" lon="3.3114">
        <ele>122.1</ele>
        <time>2024-03-30T16:55:04.000Z</time>
      </trkpt>
      <trkpt lat="48.11037" lon="3.31139">
        <ele>122</ele>
        <time>2024-03-30T16:55:05.000Z</time>
      </trkpt>
      <trkpt lat="48.11039" lon="3.3114">
        <ele>122.1</ele>
        <time>2024-03-30T16:55:06.000Z</time>
      </trkpt>
      <trkpt lat="48.11045" lon="3.31138">
        <ele>121.9</ele>
        <time>2024-03-30T16:55:08.000Z</time>
      </trkpt>
      <trkpt lat="48.11049" lon="3.31135">
        <ele>121.6</ele>
        <time>2024-03-30T16:55:10.000Z</time>
      </trkpt>
      <trkpt lat="48.1105" lon="3.31132">
        <ele>121.3</ele>
        <time>2024-03-30T16:55:11.000Z</time>
      </trkpt>
      <trkpt lat="48.11051" lon="3.3113">
        <ele>121</ele>
        <time>2024-03-30T16:55:12.000Z</time>
      </trkpt>
      <trkpt lat="48.11051" lon="3.31128">
        <ele>120.8</ele>
        <time>2024-03-30T16:55:13.000Z</time>
      </trkpt>
      <trkpt lat="48.11049" lon="3.3112">
        <ele>120</ele>
        <time>2024-03-30T16:55:17.000Z</time>
      </trkpt>
      <trkpt lat="48.11049" lon="3.3112">
        <ele>120</ele>
        <time>2024-03-30T16:55:18.000Z</time>
      </trkpt>
      <trkpt lat="48.11049" lon="3.3112">
        <ele>120</ele>
        <time>2024-03-30T16:55:19.000Z</time>
      </trkpt>
      <trkpt lat="48.11049" lon="3.3112">
        <ele>120</ele>
        <time>2024-03-30T16:55:20.000Z</time>
      </trkpt>
      <trkpt lat="48.11048" lon="3.31119">
        <ele>119.9</ele>
        <time>2024-03-30T16:55:21.000Z</time>
      </trkpt>
      <trkpt lat="48.11045" lon="3.31109">
        <ele>118.8</ele>
        <time>2024-03-30T16:55:25.000Z</time>
      </trkpt>
      <trkpt lat="48.11046" lon="3.31108">
        <ele>118.7</ele>
        <time>2024-03-30T16:55:26.000Z</time>
      </trkpt>
      <trkpt lat="48.11046" lon="3.31108">
        <ele>118.7</ele>
        <time>2024-03-30T16:55:27.000Z</time>
      </trkpt>
      <trkpt lat="48.11046" lon="3.31108">
        <ele>118.7</ele>
        <time>2024-03-30T16:55:28.000Z</time>
      </trkpt>
      <trkpt lat="48.11046" lon="3.31107">
        <ele>118.7</ele>
        <time>2024-03-30T16:55:29.000Z</time>
      </trkpt>
      <trkpt lat="48.11047" lon="3.31104">
        <ele>118.4</ele>
        <time>2024-03-30T16:55:30.000Z</time>
      </trkpt>
      <trkpt lat="48.11051" lon="3.31091">
        <ele>117.1</ele>
        <time>2024-03-30T16:55:33.000Z</time>
      </trkpt>
      <trkpt lat="48.11054" lon="3.31086">
        <ele>116.4</ele>
        <time>2024-03-30T16:55:34.000Z</time>
      </trkpt>
      <trkpt lat="48.11056" lon="3.31083">
        <ele>116</ele>
        <time>2024-03-30T16:55:35.000Z</time>
      </trkpt>
      <trkpt lat="48.11058" lon="3.31081">
        <ele>115.7</ele>
        <time>2024-03-30T16:55:36.000Z</time>
      </trkpt>
      <trkpt lat="48.1106" lon="3.31078">
        <ele>115.5</ele>
        <time>2024-03-30T16:55:37.000Z</time>
      </trkpt>
      <trkpt lat="48.1106" lon="3.31077">
        <ele>115.4</ele>
        <time>2024-03-30T16:55:38.000Z</time>
      </trkpt>
      <trkpt lat="48.11062" lon="3.31075">
        <ele>115.2</ele>
        <time>2024-03-30T16:55:39.000Z</time>
      </trkpt>
      <trkpt lat="48.11063" lon="3.31073">
        <ele>115</ele>
        <time>2024-03-30T16:55:40.000Z</time>
      </trkpt>
      <trkpt lat="48.11065" lon="3.31072">
        <ele>114.8</ele>
        <time>2024-03-30T16:55:41.000Z</time>
      </trkpt>
      <trkpt lat="48.11067" lon="3.3107">
        <ele>114.6</ele>
        <time>2024-03-30T16:55:42.000Z</time>
      </trkpt>
      <trkpt lat="48.11067" lon="3.3107">
        <ele>114.6</ele>
        <time>2024-03-30T16:55:43.000Z</time>
      </trkpt>
      <trkpt lat="48.11067" lon="3.3107">
        <ele>114.6</ele>
        <time>2024-03-30T16:55:44.000Z</time>
      </trkpt>
      <trkpt lat="48.11067" lon="3.3107">
        <ele>114.6</ele>
        <time>2024-03-30T16:55:47.000Z</time>
      </trkpt>
      <trkpt lat="48.11067" lon="3.3107">
        <ele>114.6</ele>
        <time>2024-03-30T16:55:48.000Z</time>
      </trkpt>
      <trkpt lat="48.11067" lon="3.3107">
        <ele>114.6</ele>
        <time>2024-03-30T16:55:56.000Z</time>
      </trkpt>
      <trkpt lat="48.11067" lon="3.3107">
        <ele>114.6</ele>
        <time>2024-03-30T16:56:09.000Z</time>
      </trkpt>
      <trkpt lat="48.11069" lon="3.31067">
        <ele>114.3</ele>
        <time>2024-03-30T16:56:17.000Z</time>
      </trkpt>
      <trkpt lat="48.11069" lon="3.31067">
        <ele>114.3</ele>
        <time>2024-03-30T16:56:18.000Z</time>
      </trkpt>
      <trkpt lat="48.11069" lon="3.31067">
        <ele>114.3</ele>
        <time>2024-03-30T16:56:19.000Z</time>
      </trkpt>
      <trkpt lat="48.11072" lon="3.31066">
        <ele>114.2</ele>
        <time>2024-03-30T16:56:28.000Z</time>
      </trkpt>
      <trkpt lat="48.11077" lon="3.3106">
        <ele>113.5</ele>
        <time>2024-03-30T16:56:36.000Z</time>
      </trkpt>
      <trkpt lat="48.11078" lon="3.31059">
        <ele>113.4</ele>
        <time>2024-03-30T16:56:37.000Z</time>
      </trkpt>
      <trkpt lat="48.11079" lon="3.31057">
        <ele>113.3</ele>
        <time>2024-03-30T16:56:38.000Z</time>
      </trkpt>
      <trkpt lat="48.1108" lon="3.31057">
        <ele>113.2</ele>
        <time>2024-03-30T16:56:39.000Z</time>
      </trkpt>
      <trkpt lat="48.1108" lon="3.31057">
        <ele>113.2</ele>
        <time>2024-03-30T16:56:40.000Z</time>
      </trkpt>
      <trkpt lat="48.11088" lon="3.31061">
        <ele>113.1</ele>
        <time>2024-03-30T17:01:22.000Z</time>
      </trkpt>
      <trkpt lat="48.11089" lon="3.31062">
        <ele>113.1</ele>
        <time>2024-03-30T17:01:24.000Z</time>
      </trkpt>
      <trkpt lat="48.11091" lon="3.31065">
        <ele>113.1</ele>
      </trkpt>
      <trkpt lat="48.11095" lon="3.31072">
        <ele>113.3</ele>
        <time>2024-03-30T17:01:32.000Z</time>
      </trkpt>
      <trkpt lat="48.11096" lon="3.31073">
        <ele>113.3</ele>
        <time>2024-03-30T17:01:34.000Z</time>
      </trkpt>
      <trkpt lat="48.11097" lon="3.31075">
        <ele>113.4</ele>
        <time>2024-03-30T17:01:35.000Z</time>
      </trkpt>
      <trkpt lat="48.11098" lon="3.31076">
        <ele>113.4</ele>
        <time>2024-03-30T17:01:37.000Z</time>
      </trkpt>
      <trkpt lat="48.11103" lon="3.31084">
        <ele>113.6</ele>
        <time>2024-03-30T17:01:43.000Z</time>
      </trkpt>
      <trkpt lat="48.11105" lon="3.31086">
        <ele>113.6</ele>
        <time>2024-03-30T17:01:44.000Z</time>
      </trkpt>
      <trkpt lat="48.11107" lon="3.31089">
        <ele>113.7</ele>
        <time>2024-03-30T17:01:45.000Z</time>
      </trkpt>
      <trkpt lat="48.11111" lon="3.31094">
        <ele>113.8</ele>
        <time>2024-03-30T17:01:47.000Z</time>
      </trkpt>
      <trkpt lat="48.11122" lon="3.3111">
        <ele>113.7</ele>
        <time>2024-03-30T17:01:52.000Z</time>
      </trkpt>
      <trkpt lat="48.11146" lon="3.31137">
        <ele>113.1</ele>
        <time>2024-03-30T17:02:00.000Z</time>
      </trkpt>
      <trkpt lat="48.11149" lon="3.31139">
        <ele>112.9</ele>
        <time>2024-03-30T17:02:01.000Z</time>
      </trkpt>
      <trkpt lat="48.11152" lon="3.31141">
        <ele>112.7</ele>
        <time>2024-03-30T17:02:02.000Z</time>
      </trkpt>
      <trkpt lat="48.11153" lon="3.31143">
        <ele>112.7</ele>
        <time>2024-03-30T17:02:03.000Z</time>
      </trkpt>
      <trkpt lat="48.11155" lon="3.31145">
        <ele>112.6</ele>
        <time>2024-03-30T17:02:04.000Z</time>
      </trkpt>
      <trkpt lat="48.11164" lon="3.31158">
        <ele>112.6</ele>
        <time>2024-03-30T17:02:08.000Z</time>
      </trkpt>
      <trkpt lat="48.11167" lon="3.31162">
        <ele>112.6</ele>
        <time>2024-03-30T17:02:09.000Z</time>
      </trkpt>
      <trkpt lat="48.1117" lon="3.31165">
        <ele>112.5</ele>
        <time>2024-03-30T17:02:10.000Z</time>
      </trkpt>
      <trkpt lat="48.11173" lon="3.31169">
        <ele>112.4</ele>
        <time>2024-03-30T17:02:11.000Z</time>
      </trkpt>
      <trkpt lat="48.11177" lon="3.31174">
        <ele>112.1</ele>
        <time>2024-03-30T17:02:12.000Z</time>
      </trkpt>
      <trkpt lat="48.11183" lon="3.31184">
        <ele>111.9</ele>
        <time>2024-03-30T17:02:14.000Z</time>
      </trkpt>
      <trkpt lat="48.11184" lon="3.31185">
        <ele>111.8</ele>
        <time>2024-03-30T17:02:15.000Z</time>
      </trkpt>
      <trkpt lat="48.11184" lon="3.31185">
        <ele>111.8</ele>
        <time>2024-03-30T17:02:16.000Z</time>
      </trkpt>
      <trkpt lat="48.11185" lon="3.31186">
        <ele>111.7</ele>
        <time>2024-03-30T17:02:17.000Z</time>
      </trkpt>
      <trkpt lat="48.11191" lon="3.31193">
        <ele>111.3</ele>
        <time>2024-03-30T17:02:20.000Z</time>
      </trkpt>
      <trkpt lat="48.11197" lon="3.31202">
        <ele>111.3</ele>
        <time>2024-03-30T17:02:24.000Z</time>
      </trkpt>
      <trkpt lat="48.11198" lon="3.31203">
        <ele>111.2</ele>
        <time>2024-03-30T17:02:25.000Z</time>
      </trkpt>
      <trkpt lat="48.11204" lon="3.31208">
        <ele>110.9</ele>
        <time>2024-03-30T17:02:27.000Z</time>
      </trkpt>
      <trkpt lat="48.11212" lon="3.31218">
        <ele>110.8</ele>
        <time>2024-03-30T17:02:32.000Z</time>
      </trkpt>
      <trkpt lat="48.11214" lon="3.31219">
        <ele>110.7</ele>
        <time>2024-03-30T17:02:33.000Z</time>
      </trkpt>
      <trkpt lat="48.11216" lon="3.31218">
        <ele>110.4</ele>
        <time>2024-03-30T17:02:34.000Z</time>
      </trkpt>
      <trkpt lat="48.11217" lon="3.31216">
        <ele>110.1</ele>
        <time>2024-03-30T17:02:35.000Z</time>
      </trkpt>
      <trkpt lat="48.11218" lon="3.31214">
        <ele>109.9</ele>
        <time>2024-03-30T17:02:36.000Z</time>
      </trkpt>
      <trkpt lat="48.11219" lon="3.31212">
        <ele>109.6</ele>
        <time>2024-03-30T17:02:37.000Z</time>
      </trkpt>
      <trkpt lat="48.11219" lon="3.31212">
        <ele>109.6</ele>
        <time>2024-03-30T17:02:38.000Z</time>
      </trkpt>
      <trkpt lat="48.11219" lon="3.31211">
        <ele>109.5</ele>
        <time>2024-03-30T17:02:39.000Z</time>
      </trkpt>
      <trkpt lat="48.1122" lon="3.31211">
        <ele>109.4</ele>
        <time>2024-03-30T17:02:40.000Z</time>
      </trkpt>
      <trkpt lat="48.1122" lon="3.3121">
        <ele>109.4</ele>
        <time>2024-03-30T17:02:41.000Z</time>
      </trkpt>
      <trkpt lat="48.1122" lon="3.3121">
        <ele>109.4</ele>
        <time>2024-03-30T17:02:44.000Z</time>
      </trkpt>
      <trkpt lat="48.1122" lon="3.3121">
        <ele>109.4</ele>
        <time>2024-03-30T17:02:48.000Z</time>
      </trkpt>
      <trkpt lat="48.1122" lon="3.3121">
        <ele>109.4</ele>
        <time>2024-03-30T17:02:49.000Z</time>
      </trkpt>
      <trkpt lat="48.11221" lon="3.31201">
        <ele>108.6</ele>
        <time>2024-03-30T17:02:55.000Z</time>
      </trkpt>
      <trkpt lat="48.11225" lon="3.31175">
        <ele>107.1</ele>
        <time>2024-03-30T17:03:00.000Z</time>
      </trkpt>
      <trkpt lat="48.11226" lon="3.3117">
        <ele>106.8</ele>
        <time>2024-03-30T17:03:01.000Z</time>
      </trkpt>
      <trkpt lat="48.11228" lon="3.31165">
        <ele>106.5</ele>
        <time>2024-03-30T17:03:02.000Z</time>
      </trkpt>
      <trkpt lat="48.11229" lon="3.31159">
        <ele>106.2</ele>
        <time>2024-03-30T17:03:03.000Z</time>
      </trkpt>
      <trkpt lat="48.11231" lon="3.31149">
        <ele>105.7</ele>
        <time>2024-03-30T17:03:05.000Z</time>
      </trkpt>
      <trkpt lat="48.1123" lon="3.31137">
        <ele>105.4</ele>
        <time>2024-03-30T17:03:07.000Z</time>
      </trkpt>
      <trkpt lat="48.11229" lon="3.31132">
        <ele>105.3</ele>
        <time>2024-03-30T17:03:08.000Z</time>
      </trkpt>
      <trkpt lat="48.1123" lon="3.31126">
        <ele>105</ele>
        <time>2024-03-30T17:03:09.000Z</time>
      </trkpt>
      <trkpt lat="48.1123" lon="3.3112">
        <ele>104.8</ele>
        <time>2024-03-30T17:03:10.000Z</time>
      </trkpt>
      <trkpt lat="48.11231" lon="3.31114">
        <ele>104.5</ele>
        <time>2024-03-30T17:03:11.000Z</time>
      </trkpt>
      <trkpt lat="48.11231" lon="3.3111">
        <ele>104.3</ele>
        <time>2024-03-30T17:03:12.000Z</time>
      </trkpt>
      <trkpt lat="48.11231" lon="3.31105">
        <ele>104.1</ele>
        <time>2024-03-30T17:03:13.000Z</time>
      </trkpt>
      <trkpt lat="48.11231" lon="3.31101">
        <ele>104</ele>
        <time>2024-03-30T17:03:14.000Z</time>
      </trkpt>
      <trkpt lat="48.11232" lon="3.31097">
        <ele>103.8</ele>
        <time>2024-03-30T17:03:15.000Z</time>
      </trkpt>
      <trkpt lat="48.11233" lon="3.31095">
        <ele>103.6</ele>
        <time>2024-03-30T17:03:16.000Z</time>
      </trkpt>
      <trkpt lat="48.11234" lon="3.31093">
        <ele>103.5</ele>
        <time>2024-03-30T17:03:17.000Z</time>
      </trkpt>
      <trkpt lat="48.11235" lon="3.31092">
        <ele>103.4</ele>
        <time>2024-03-30T17:03:18.000Z</time>
      </trkpt>
      <trkpt lat="48.11236" lon="3.31091">
        <ele>103.3</ele>
        <time>2024-03-30T17:03:19.000Z</time>
      </trkpt>
      <trkpt lat="48.11237" lon="3.3109">
        <ele>103.2</ele>
        <time>2024-03-30T17:03:20.000Z</time>
      </trkpt>
      <trkpt lat="48.1124" lon="3.31087">
        <ele>102.9</ele>
        <time>2024-03-30T17:03:22.000Z</time>
      </trkpt>
      <trkpt lat="48.1124" lon="3.31086">
        <ele>102.8</ele>
        <time>2024-03-30T17:03:23.000Z</time>
      </trkpt>
      <trkpt lat="48.1124" lon="3.31083">
        <ele>102.7</ele>
        <time>2024-03-30T17:03:24.000Z</time>
      </trkpt>
      <trkpt lat="48.11244" lon="3.31077">
        <ele>102.4</ele>
        <time>2024-03-30T17:03:26.000Z</time>
      </trkpt>
      <trkpt lat="48.11248" lon="3.31073">
        <ele>102.1</ele>
        <time>2024-03-30T17:03:27.000Z</time>
      </trkpt>
      <trkpt lat="48.11252" lon="3.31074">
        <ele>101.9</ele>
        <time>2024-03-30T17:03:29.000Z</time>
      </trkpt>
      <trkpt lat="48.11254" lon="3.31073">
        <ele>101.8</ele>
        <time>2024-03-30T17:03:30.000Z</time>
      </trkpt>
      <trkpt lat="48.11256" lon="3.31072">
        <ele>101.7</ele>
        <time>2024-03-30T17:03:31.000Z</time>
      </trkpt>
      <trkpt lat="48.11258" lon="3.3107">
        <ele>101.6</ele>
        <time>2024-03-30T17:03:32.000Z</time>
      </trkpt>
      <trkpt lat="48.11262" lon="3.31065">
        <ele>101.3</ele>
        <time>2024-03-30T17:03:34.000Z</time>
      </trkpt>
      <trkpt lat="48.11269" lon="3.31059">
        <ele>100.7</ele>
        <time>2024-03-30T17:03:37.000Z</time>
      </trkpt>
      <trkpt lat="48.11272" lon="3.31057">
        <ele>100.5</ele>
        <time>2024-03-30T17:03:38.000Z</time>
      </trkpt>
      <trkpt lat="48.11276" lon="3.31056">
        <ele>100.1</ele>
        <time>2024-03-30T17:03:39.000Z</time>
      </trkpt>
      <trkpt lat="48.1128" lon="3.3106">
        <ele>100.1</ele>
        <time>2024-03-30T17:03:40.000Z</time>
      </trkpt>
      <trkpt lat="48.1128" lon="3.31059">
        <ele>100</ele>
        <time>2024-03-30T17:03:41.000Z</time>
      </trkpt>
      <trkpt lat="48.1128" lon="3.31057">
        <ele>100</ele>
        <time>2024-03-30T17:03:42.000Z</time>
      </trkpt>
      <trkpt lat="48.1128" lon="3.31055">
        <ele>99.9</ele>
        <time>2024-03-30T17:03:43.000Z</time>
      </trkpt>
      <trkpt lat="48.11282" lon="3.31049">
        <ele>99.8</ele>
        <time>2024-03-30T17:03:45.000Z</time>
      </trkpt>
      <trkpt lat="48.11284" lon="3.31047">
        <ele>99.8</ele>
        <time>2024-03-30T17:03:46.000Z</time>
      </trkpt>
      <trkpt lat="48.11287" lon="3.31044">
        <ele>99.7</ele>
        <time>2024-03-30T17:03:48.000Z</time>
      </trkpt>
      <trkpt lat="48.11289" lon="3.31042">
        <ele>99.6</ele>
        <time>2024-03-30T17:03:49.000Z</time>
      </trkpt>
      <trkpt lat="48.11291" lon="3.31038">
        <ele>99.5</ele>
        <time>2024-03-30T17:03:50.000Z</time>
      </trkpt>
      <trkpt lat="48.11292" lon="3.31034">
        <ele>99.5</ele>
        <time>2024-03-30T17:03:51.000Z</time>
      </trkpt>
      <trkpt lat="48.11293" lon="3.3103">
        <ele>99.5</ele>
        <time>2024-03-30T17:03:52.000Z</time>
      </trkpt>
      <trkpt lat="48.11295" lon="3.31026">
        <ele>99.3</ele>
        <time>2024-03-30T17:03:53.000Z</time>
      </trkpt>
      <trkpt lat="48.11296" lon="3.31023">
        <ele>99.2</ele>
        <time>2024-03-30T17:03:54.000Z</time>
      </trkpt>
      <trkpt lat="48.11297" lon="3.31021">
        <ele>99.1</ele>
        <time>2024-03-30T17:03:55.000Z</time>
      </trkpt>
      <trkpt lat="48.11297" lon="3.31017">
        <ele>98.9</ele>
        <time>2024-03-30T17:03:56.000Z</time>
      </trkpt>
      <trkpt lat="48.11298" lon="3.31013">
        <ele>98.7</ele>
        <time>2024-03-30T17:03:57.000Z</time>
      </trkpt>
      <trkpt lat="48.113" lon="3.31002">
        <ele>98.3</ele>
        <time>2024-03-30T17:04:00.000Z</time>
      </trkpt>
      <trkpt lat="48.11302" lon="3.31">
        <ele>98.1</ele>
        <time>2024-03-30T17:04:01.000Z</time>
      </trkpt>
      <trkpt lat="48.11304" lon="3.30996">
        <ele>97.9</ele>
        <time>2024-03-30T17:04:02.000Z</time>
      </trkpt>
      <trkpt lat="48.11305" lon="3.30994">
        <ele>97.8</ele>
        <time>2024-03-30T17:04:03.000Z</time>
      </trkpt>
      <trkpt lat="48.11307" lon="3.30992">
        <ele>97.7</ele>
        <time>2024-03-30T17:04:04.000Z</time>
      </trkpt>
      <trkpt lat="48.11308" lon="3.30988">
        <ele>97.5</ele>
        <time>2024-03-30T17:04:05.000Z</time>
      </trkpt>
      <trkpt lat="48.11309" lon="3.30982">
        <ele>97.2</ele>
        <time>2024-03-30T17:04:06.000Z</time>
      </trkpt>
      <trkpt lat="48.1131" lon="3.30978">
        <ele>97</ele>
        <time>2024-03-30T17:04:07.000Z</time>
      </trkpt>
      <trkpt lat="48.11311" lon="3.30975">
        <ele>96.9</ele>
        <time>2024-03-30T17:04:08.000Z</time>
      </trkpt>
      <trkpt lat="48.11314" lon="3.30968">
        <ele>96.7</ele>
        <time>2024-03-30T17:04:10.000Z</time>
      </trkpt>
      <trkpt lat="48.11315" lon="3.30966">
        <ele>96.7</ele>
        <time>2024-03-30T17:04:11.000Z</time>
      </trkpt>
      <trkpt lat="48.11317" lon="3.30962">
        <ele>96.6</ele>
        <time>2024-03-30T17:04:13.000Z</time>
      </trkpt>
      <trkpt lat="48.11318" lon="3.3096">
        <ele>96.6</ele>
        <time>2024-03-30T17:04:14.000Z</time>
      </trkpt>
      <trkpt lat="48.11319" lon="3.3096">
        <ele>96.5</ele>
        <time>2024-03-30T17:04:15.000Z</time>
      </trkpt>
      <trkpt lat="48.1132" lon="3.30959">
        <ele>96.5</ele>
        <time>2024-03-30T17:04:16.000Z</time>
      </trkpt>
      <trkpt lat="48.11327" lon="3.30956">
        <ele>96.2</ele>
        <time>2024-03-30T17:04:19.000Z</time>
      </trkpt>
      <trkpt lat="48.1133" lon="3.30956">
        <ele>96.1</ele>
        <time>2024-03-30T17:04:20.000Z</time>
      </trkpt>
      <trkpt lat="48.11332" lon="3.30956">
        <ele>96</ele>
        <time>2024-03-30T17:04:21.000Z</time>
      </trkpt>
      <trkpt lat="48.11333" lon="3.30957">
        <ele>96</ele>
        <time>2024-03-30T17:04:22.000Z</time>
      </trkpt>
      <trkpt lat="48.11335" lon="3.30958">
        <ele>96</ele>
        <time>2024-03-30T17:04:23.000Z</time>
      </trkpt>
      <trkpt lat="48.11336" lon="3.30959">
        <ele>96</ele>
        <time>2024-03-30T17:04:24.000Z</time>
      </trkpt>
      <trkpt lat="48.11337" lon="3.3096">
        <ele>95.9</ele>
        <time>2024-03-30T17:04:25.000Z</time>
      </trkpt>
      <trkpt lat="48.11338" lon="3.30961">
        <ele>95.9</ele>
        <time>2024-03-30T17:04:26.000Z</time>
      </trkpt>
      <trkpt lat="48.11339" lon="3.30961">
        <ele>95.9</ele>
        <time>2024-03-30T17:04:27.000Z</time>
      </trkpt>
      <trkpt lat="48.11339" lon="3.30961">
        <ele>95.9</ele>
        <time>2024-03-30T17:04:28.000Z</time>
      </trkpt>
      <trkpt lat="48.11341" lon="3.30962">
        <ele>95.9</ele>
        <time>2024-03-30T17:04:29.000Z</time>
      </trkpt>
      <trkpt lat="48.11343" lon="3.30962">
        <ele>95.9</ele>
        <time>2024-03-30T17:04:30.000Z</time>
      </trkpt>
      <trkpt lat="48.11345" lon="3.30963">
        <ele>95.9</ele>
        <time>2024-03-30T17:04:31.000Z</time>
      </trkpt>
      <trkpt lat="48.11348" lon="3.30963">
        <ele>95.8</ele>
        <time>2024-03-30T17:04:33.000Z</time>
      </trkpt>
      <trkpt lat="48.11351" lon="3.30964">
        <ele>95.8</ele>
        <time>2024-03-30T17:04:34.000Z</time>
      </trkpt>
      <trkpt lat="48.11357" lon="3.30966">
        <ele>95.8</ele>
        <time>2024-03-30T17:04:37.000Z</time>
      </trkpt>
      <trkpt lat="48.11364" lon="3.30969">
        <ele>95.8</ele>
        <time>2024-03-30T17:04:40.000Z</time>
      </trkpt>
      <trkpt lat="48.11369" lon="3.30971">
        <ele>95.7</ele>
        <time>2024-03-30T17:04:42.000Z</time>
      </trkpt>
      <trkpt lat="48.11371" lon="3.30972">
        <ele>95.6</ele>
        <time>2024-03-30T17:04:43.000Z</time>
      </trkpt>
      <trkpt lat="48.11372" lon="3.30973">
        <ele>95.6</ele>
        <time>2024-03-30T17:04:44.000Z</time>
      </trkpt>
      <trkpt lat="48.11373" lon="3.30975">
        <ele>95.6</ele>
        <time>2024-03-30T17:04:45.000Z</time>
      </trkpt>
      <trkpt lat="48.11374" lon="3.30977">
        <ele>95.5</ele>
        <time>2024-03-30T17:04:46.000Z</time>
      </trkpt>
      <trkpt lat="48.11374" lon="3.30977">
        <ele>95.5</ele>
        <time>2024-03-30T17:04:47.000Z</time>
      </trkpt>
      <trkpt lat="48.11374" lon="3.30977">
        <ele>95.5</ele>
        <time>2024-03-30T17:04:49.000Z</time>
      </trkpt>
      <trkpt lat="48.11377" lon="3.30983">
        <ele>95.4</ele>
        <time>2024-03-30T17:04:53.000Z</time>
      </trkpt>
      <trkpt lat="48.11378" lon="3.30985">
        <ele>95.4</ele>
        <time>2024-03-30T17:04:54.000Z</time>
      </trkpt>
      <trkpt lat="48.11378" lon="3.30986">
        <ele>95.4</ele>
        <time>2024-03-30T17:04:55.000Z</time>
      </trkpt>
      <trkpt lat="48.11378" lon="3.30988">
        <ele>95.4</ele>
        <time>2024-03-30T17:04:56.000Z</time>
      </trkpt>
      <trkpt lat="48.11378" lon="3.3099">
        <ele>95.4</ele>
        <time>2024-03-30T17:04:57.000Z</time>
      </trkpt>
      <trkpt lat="48.11377" lon="3.30991">
        <ele>95.4</ele>
        <time>2024-03-30T17:04:58.000Z</time>
      </trkpt>
      <trkpt lat="48.11377" lon="3.30992">
        <ele>95.4</ele>
        <time>2024-03-30T17:04:59.000Z</time>
      </trkpt>
      <trkpt lat="48.11377" lon="3.30992">
        <ele>95.4</ele>
        <time>2024-03-30T17:05:00.000Z</time>
      </trkpt>
      <trkpt lat="48.11377" lon="3.30993">
        <ele>95.4</ele>
        <time>2024-03-30T17:05:01.000Z</time>
      </trkpt>
      <trkpt lat="48.11378" lon="3.30994">
        <ele>95.4</ele>
        <time>2024-03-30T17:05:02.000Z</time>
      </trkpt>
      <trkpt lat="48.11378" lon="3.30994">
        <ele>95.4</ele>
        <time>2024-03-30T17:05:03.000Z</time>
      </trkpt>
      <trkpt lat="48.11379" lon="3.30996">
        <ele>95.4</ele>
        <time>2024-03-30T17:05:05.000Z</time>
      </trkpt>
      <trkpt lat="48.11381" lon="3.31003">
        <ele>95.4</ele>
        <time>2024-03-30T17:05:07.000Z</time>
      </trkpt>
      <trkpt lat="48.11382" lon="3.31005">
        <ele>95.4</ele>
        <time>2024-03-30T17:05:08.000Z</time>
      </trkpt>
      <trkpt lat="48.11382" lon="3.31008">
        <ele>95.5</ele>
        <time>2024-03-30T17:05:09.000Z</time>
      </trkpt>
      <trkpt lat="48.11383" lon="3.31011">
        <ele>95.6</ele>
        <time>2024-03-30T17:05:10.000Z</time>
      </trkpt>
      <trkpt lat="48.11383" lon="3.31014">
        <ele>95.7</ele>
        <time>2024-03-30T17:05:11.000Z</time>
      </trkpt>
      <trkpt lat="48.11383" lon="3.31016">
        <ele>95.8</ele>
        <time>2024-03-30T17:05:12.000Z</time>
      </trkpt>
      <trkpt lat="48.11383" lon="3.31019">
        <ele>95.9</ele>
        <time>2024-03-30T17:05:13.000Z</time>
      </trkpt>
      <trkpt lat="48.11384" lon="3.31022">
        <ele>96</ele>
        <time>2024-03-30T17:05:14.000Z</time>
      </trkpt>
      <trkpt lat="48.11384" lon="3.31027">
        <ele>96.1</ele>
        <time>2024-03-30T17:05:16.000Z</time>
      </trkpt>
      <trkpt lat="48.11384" lon="3.31029">
        <ele>96.2</ele>
        <time>2024-03-30T17:05:17.000Z</time>
      </trkpt>
      <trkpt lat="48.11384" lon="3.31031">
        <ele>96.3</ele>
        <time>2024-03-30T17:05:18.000Z</time>
      </trkpt>
      <trkpt lat="48.11384" lon="3.31033">
        <ele>96.4</ele>
        <time>2024-03-30T17:05:19.000Z</time>
      </trkpt>
      <trkpt lat="48.11385" lon="3.31037">
        <ele>96.5</ele>
        <time>2024-03-30T17:05:20.000Z</time>
      </trkpt>
      <trkpt lat="48.11385" lon="3.31041">
        <ele>96.6</ele>
        <time>2024-03-30T17:05:22.000Z</time>
      </trkpt>
      <trkpt lat="48.11384" lon="3.31042">
        <ele>96.7</ele>
        <time>2024-03-30T17:05:23.000Z</time>
      </trkpt>
      <trkpt lat="48.11385" lon="3.31043">
        <ele>96.7</ele>
        <time>2024-03-30T17:05:24.000Z</time>
      </trkpt>
      <trkpt lat="48.11385" lon="3.31046">
        <ele>96.8</ele>
        <time>2024-03-30T17:05:25.000Z</time>
      </trkpt>
      <trkpt lat="48.11385" lon="3.31048">
        <ele>96.9</ele>
        <time>2024-03-30T17:05:26.000Z</time>
      </trkpt>
      <trkpt lat="48.11386" lon="3.3105">
        <ele>96.9</ele>
        <time>2024-03-30T17:05:27.000Z</time>
      </trkpt>
      <trkpt lat="48.11386" lon="3.31051">
        <ele>96.9</ele>
        <time>2024-03-30T17:05:28.000Z</time>
      </trkpt>
      <trkpt lat="48.11387" lon="3.31052">
        <ele>96.9</ele>
        <time>2024-03-30T17:05:29.000Z</time>
      </trkpt>
      <trkpt lat="48.11389" lon="3.31059">
        <ele>97.1</ele>
        <time>2024-03-30T17:05:31.000Z</time>
      </trkpt>
      <trkpt lat="48.11389" lon="3.3106">
        <ele>97.2</ele>
        <time>2024-03-30T17:05:32.000Z</time>
      </trkpt>
      <trkpt lat="48.1139" lon="3.31063">
        <ele>97.3</ele>
        <time>2024-03-30T17:05:33.000Z</time>
      </trkpt>
      <trkpt lat="48.1139" lon="3.31065">
        <ele>97.3</ele>
        <time>2024-03-30T17:05:34.000Z</time>
      </trkpt>
      <trkpt lat="48.1139" lon="3.31069">
        <ele>97.5</ele>
        <time>2024-03-30T17:05:35.000Z</time>
      </trkpt>
      <trkpt lat="48.1139" lon="3.31071">
        <ele>97.5</ele>
        <time>2024-03-30T17:05:36.000Z</time>
      </trkpt>
      <trkpt lat="48.1139" lon="3.31073">
        <ele>97.6</ele>
        <time>2024-03-30T17:05:37.000Z</time>
      </trkpt>
      <trkpt lat="48.1139" lon="3.31076">
        <ele>97.7</ele>
        <time>2024-03-30T17:05:38.000Z</time>
      </trkpt>
      <trkpt lat="48.11389" lon="3.31081">
        <ele>97.9</ele>
        <time>2024-03-30T17:05:40.000Z</time>
      </trkpt>
      <trkpt lat="48.11388" lon="3.31086">
        <ele>98.1</ele>
        <time>2024-03-30T17:05:42.000Z</time>
      </trkpt>
      <trkpt lat="48.11388" lon="3.3109">
        <ele>98.2</ele>
        <time>2024-03-30T17:05:43.000Z</time>
      </trkpt>
      <trkpt lat="48.11387" lon="3.31091">
        <ele>98.3</ele>
        <time>2024-03-30T17:05:44.000Z</time>
      </trkpt>
      <trkpt lat="48.11386" lon="3.31093">
        <ele>98.3</ele>
        <time>2024-03-30T17:05:45.000Z</time>
      </trkpt>
      <trkpt lat="48.11386" lon="3.31095">
        <ele>98.4</ele>
        <time>2024-03-30T17:05:46.000Z</time>
      </trkpt>
      <trkpt lat="48.11386" lon="3.31098">
        <ele>98.5</ele>
        <time>2024-03-30T17:05:47.000Z</time>
      </trkpt>
      <trkpt lat="48.11388" lon="3.31102">
        <ele>98.7</ele>
        <time>2024-03-30T17:05:48.000Z</time>
      </trkpt>
      <trkpt lat="48.11389" lon="3.31106">
        <ele>98.8</ele>
        <time>2024-03-30T17:05:49.000Z</time>
      </trkpt>
      <trkpt lat="48.1139" lon="3.3111">
        <ele>98.9</ele>
        <time>2024-03-30T17:05:50.000Z</time>
      </trkpt>
      <trkpt lat="48.11389" lon="3.31115">
        <ele>99</ele>
        <time>2024-03-30T17:05:52.000Z</time>
      </trkpt>
      <trkpt lat="48.11388" lon="3.31115">
        <ele>99</ele>
        <time>2024-03-30T17:05:53.000Z</time>
      </trkpt>
      <trkpt lat="48.11388" lon="3.31115">
        <ele>99</ele>
        <time>2024-03-30T17:05:54.000Z</time>
      </trkpt>
      <trkpt lat="48.11388" lon="3.31116">
        <ele>99</ele>
        <time>2024-03-30T17:05:55.000Z</time>
      </trkpt>
      <trkpt lat="48.11389" lon="3.31118">
        <ele>99</ele>
        <time>2024-03-30T17:05:56.000Z</time>
      </trkpt>
      <trkpt lat="48.11391" lon="3.3112">
        <ele>98.9</ele>
        <time>2024-03-30T17:05:58.000Z</time>
      </trkpt>
      <trkpt lat="48.11392" lon="3.31123">
        <ele>98.9</ele>
        <time>2024-03-30T17:06:00.000Z</time>
      </trkpt>
      <trkpt lat="48.11392" lon="3.31127">
        <ele>99</ele>
        <time>2024-03-30T17:06:02.000Z</time>
      </trkpt>
      <trkpt lat="48.11392" lon="3.31129">
        <ele>99</ele>
        <time>2024-03-30T17:06:03.000Z</time>
      </trkpt>
      <trkpt lat="48.11392" lon="3.31129">
        <ele>99</ele>
        <time>2024-03-30T17:06:04.000Z</time>
      </trkpt>
      <trkpt lat="48.11392" lon="3.31129">
        <ele>99</ele>
        <time>2024-03-30T17:06:05.000Z</time>
      </trkpt>
      <trkpt lat="48.11393" lon="3.3113">
        <ele>99</ele>
        <time>2024-03-30T17:06:06.000Z</time>
      </trkpt>
      <trkpt lat="48.11393" lon="3.31131">
        <ele>99</ele>
        <time>2024-03-30T17:06:07.000Z</time>
      </trkpt>
      <trkpt lat="48.11394" lon="3.31134">
        <ele>99</ele>
        <time>2024-03-30T17:06:08.000Z</time>
      </trkpt>
      <trkpt lat="48.11393" lon="3.31137">
        <ele>99</ele>
        <time>2024-03-30T17:06:09.000Z</time>
      </trkpt>
      <trkpt lat="48.11392" lon="3.3114">
        <ele>99</ele>
        <time>2024-03-30T17:06:10.000Z</time>
      </trkpt>
      <trkpt lat="48.11392" lon="3.31142">
        <ele>99.1</ele>
        <time>2024-03-30T17:06:11.000Z</time>
      </trkpt>
      <trkpt lat="48.11392" lon="3.31144">
        <ele>99.2</ele>
        <time>2024-03-30T17:06:12.000Z</time>
      </trkpt>
      <trkpt lat="48.11391" lon="3.31147">
        <ele>99.3</ele>
        <time>2024-03-30T17:06:13.000Z</time>
      </trkpt>
      <trkpt lat="48.11391" lon="3.31149">
        <ele>99.4</ele>
        <time>2024-03-30T17:06:14.000Z</time>
      </trkpt>
      <trkpt lat="48.11391" lon="3.31152">
        <ele>99.5</ele>
        <time>2024-03-30T17:06:15.000Z</time>
      </trkpt>
      <trkpt lat="48.1139" lon="3.31155">
        <ele>99.6</ele>
        <time>2024-03-30T17:06:16.000Z</time>
      </trkpt>
      <trkpt lat="48.11389" lon="3.31158">
        <ele>99.7</ele>
        <time>2024-03-30T17:06:17.000Z</time>
      </trkpt>
      <trkpt lat="48.11388" lon="3.31161">
        <ele>99.8</ele>
        <time>2024-03-30T17:06:18.000Z</time>
      </trkpt>
      <trkpt lat="48.11388" lon="3.31161">
        <ele>99.8</ele>
        <time>2024-03-30T17:06:19.000Z</time>
      </trkpt>
      <trkpt lat="48.11388" lon="3.31162">
        <ele>99.8</ele>
        <time>2024-03-30T17:06:20.000Z</time>
      </trkpt>
      <trkpt lat="48.11386" lon="3.31164">
        <ele>99.9</ele>
        <time>2024-03-30T17:06:21.000Z</time>
      </trkpt>
      <trkpt lat="48.11385" lon="3.31165">
        <ele>99.9</ele>
        <time>2024-03-30T17:06:22.000Z</time>
      </trkpt>
      <trkpt lat="48.11383" lon="3.31166">
        <ele>100</ele>
        <time>2024-03-30T17:06:23.000Z</time>
      </trkpt>
      <trkpt lat="48.11382" lon="3.31167">
        <ele>100</ele>
        <time>2024-03-30T17:06:24.000Z</time>
      </trkpt>
      <trkpt lat="48.11381" lon="3.31168">
        <ele>100</ele>
        <time>2024-03-30T17:06:25.000Z</time>
      </trkpt>
      <trkpt lat="48.1138" lon="3.31168">
        <ele>100</ele>
        <time>2024-03-30T17:06:26.000Z</time>
      </trkpt>
      <trkpt lat="48.11378" lon="3.31168">
        <ele>100</ele>
        <time>2024-03-30T17:06:27.000Z</time>
      </trkpt>
      <trkpt lat="48.11376" lon="3.31167">
        <ele>100</ele>
        <time>2024-03-30T17:06:28.000Z</time>
      </trkpt>
      <trkpt lat="48.11369" lon="3.31164">
        <ele>100</ele>
        <time>2024-03-30T17:06:31.000Z</time>
      </trkpt>
      <trkpt lat="48.11367" lon="3.31163">
        <ele>100</ele>
        <time>2024-03-30T17:06:32.000Z</time>
      </trkpt>
      <trkpt lat="48.11365" lon="3.31161">
        <ele>100</ele>
        <time>2024-03-30T17:06:33.000Z</time>
      </trkpt>
      <trkpt lat="48.11363" lon="3.31161">
        <ele>100</ele>
        <time>2024-03-30T17:06:34.000Z</time>
      </trkpt>
      <trkpt lat="48.11361" lon="3.3116">
        <ele>100</ele>
        <time>2024-03-30T17:06:35.000Z</time>
      </trkpt>
      <trkpt lat="48.11359" lon="3.31159">
        <ele>100.1</ele>
        <time>2024-03-30T17:06:36.000Z</time>
      </trkpt>
      <trkpt lat="48.11351" lon="3.31158">
        <ele>100.3</ele>
        <time>2024-03-30T17:06:39.000Z</time>
      </trkpt>
      <trkpt lat="48.11345" lon="3.31161">
        <ele>100.5</ele>
        <time>2024-03-30T17:06:41.000Z</time>
      </trkpt>
      <trkpt lat="48.11342" lon="3.31164">
        <ele>100.6</ele>
        <time>2024-03-30T17:06:42.000Z</time>
      </trkpt>
      <trkpt lat="48.1134" lon="3.31166">
        <ele>100.7</ele>
        <time>2024-03-30T17:06:43.000Z</time>
      </trkpt>
      <trkpt lat="48.11339" lon="3.31168">
        <ele>100.8</ele>
        <time>2024-03-30T17:06:44.000Z</time>
      </trkpt>
      <trkpt lat="48.11337" lon="3.31171">
        <ele>101</ele>
        <time>2024-03-30T17:06:45.000Z</time>
      </trkpt>
      <trkpt lat="48.11336" lon="3.31175">
        <ele>101.2</ele>
        <time>2024-03-30T17:06:46.000Z</time>
      </trkpt>
      <trkpt lat="48.11333" lon="3.31177">
        <ele>101.4</ele>
        <time>2024-03-30T17:06:47.000Z</time>
      </trkpt>
      <trkpt lat="48.11331" lon="3.31179">
        <ele>101.5</ele>
        <time>2024-03-30T17:06:48.000Z</time>
      </trkpt>
      <trkpt lat="48.11332" lon="3.31181">
        <ele>101.6</ele>
        <time>2024-03-30T17:06:49.000Z</time>
      </trkpt>
      <trkpt lat="48.11331" lon="3.31183">
        <ele>101.7</ele>
        <time>2024-03-30T17:06:50.000Z</time>
      </trkpt>
      <trkpt lat="48.1133" lon="3.31186">
        <ele>101.8</ele>
        <time>2024-03-30T17:06:51.000Z</time>
      </trkpt>
      <trkpt lat="48.1133" lon="3.31189">
        <ele>101.9</ele>
        <time>2024-03-30T17:06:52.000Z</time>
      </trkpt>
      <trkpt lat="48.1133" lon="3.31191">
        <ele>102</ele>
        <time>2024-03-30T17:06:53.000Z</time>
      </trkpt>
      <trkpt lat="48.11331" lon="3.31193">
        <ele>102</ele>
        <time>2024-03-30T17:06:54.000Z</time>
      </trkpt>
      <trkpt lat="48.11332" lon="3.31196">
        <ele>102.1</ele>
        <time>2024-03-30T17:06:55.000Z</time>
      </trkpt>
      <trkpt lat="48.11331" lon="3.31198">
        <ele>102.2</ele>
        <time>2024-03-30T17:06:56.000Z</time>
      </trkpt>
      <trkpt lat="48.11331" lon="3.312">
        <ele>102.3</ele>
        <time>2024-03-30T17:06:57.000Z</time>
      </trkpt>
      <trkpt lat="48.1133" lon="3.31201">
        <ele>102.3</ele>
        <time>2024-03-30T17:06:58.000Z</time>
      </trkpt>
      <trkpt lat="48.11331" lon="3.31203">
        <ele>102.4</ele>
        <time>2024-03-30T17:06:59.000Z</time>
      </trkpt>
      <trkpt lat="48.11333" lon="3.31206">
        <ele>102.4</ele>
        <time>2024-03-30T17:07:00.000Z</time>
      </trkpt>
      <trkpt lat="48.11334" lon="3.31208">
        <ele>102.5</ele>
        <time>2024-03-30T17:07:01.000Z</time>
      </trkpt>
      <trkpt lat="48.11335" lon="3.3121">
        <ele>102.5</ele>
        <time>2024-03-30T17:07:02.000Z</time>
      </trkpt>
      <trkpt lat="48.11335" lon="3.31212">
        <ele>102.6</ele>
        <time>2024-03-30T17:07:03.000Z</time>
      </trkpt>
      <trkpt lat="48.11335" lon="3.31213">
        <ele>102.6</ele>
        <time>2024-03-30T17:07:04.000Z</time>
      </trkpt>
      <trkpt lat="48.11335" lon="3.31215">
        <ele>102.7</ele>
        <time>2024-03-30T17:07:05.000Z</time>
      </trkpt>
      <trkpt lat="48.11335" lon="3.31217">
        <ele>102.8</ele>
        <time>2024-03-30T17:07:06.000Z</time>
      </trkpt>
      <trkpt lat="48.11336" lon="3.31219">
        <ele>102.8</ele>
        <time>2024-03-30T17:07:07.000Z</time>
      </trkpt>
      <trkpt lat="48.11341" lon="3.31219">
        <ele>102.6</ele>
        <time>2024-03-30T17:07:09.000Z</time>
      </trkpt>
      <trkpt lat="48.11345" lon="3.3122">
        <ele>102.5</ele>
        <time>2024-03-30T17:07:11.000Z</time>
      </trkpt>
      <trkpt lat="48.11346" lon="3.31219">
        <ele>102.4</ele>
        <time>2024-03-30T17:07:12.000Z</time>
      </trkpt>
      <trkpt lat="48.11348" lon="3.31219">
        <ele>102.4</ele>
        <time>2024-03-30T17:07:13.000Z</time>
      </trkpt>
      <trkpt lat="48.11353" lon="3.31219">
        <ele>102.2</ele>
        <time>2024-03-30T17:07:15.000Z</time>
      </trkpt>
      <trkpt lat="48.11355" lon="3.3122">
        <ele>102.1</ele>
        <time>2024-03-30T17:07:16.000Z</time>
      </trkpt>
      <trkpt lat="48.11355" lon="3.31221">
        <ele>102.2</ele>
        <time>2024-03-30T17:07:17.000Z</time>
      </trkpt>
      <trkpt lat="48.11357" lon="3.31221">
        <ele>102.1</ele>
        <time>2024-03-30T17:07:18.000Z</time>
      </trkpt>
      <trkpt lat="48.11356" lon="3.31221">
        <ele>102.1</ele>
        <time>2024-03-30T17:07:19.000Z</time>
      </trkpt>
      <trkpt lat="48.11358" lon="3.31224">
        <ele>102.2</ele>
        <time>2024-03-30T17:07:20.000Z</time>
      </trkpt>
      <trkpt lat="48.1136" lon="3.31227">
        <ele>102.2</ele>
        <time>2024-03-30T17:07:21.000Z</time>
      </trkpt>
      <trkpt lat="48.11359" lon="3.3123">
        <ele>102.4</ele>
        <time>2024-03-30T17:07:22.000Z</time>
      </trkpt>
      <trkpt lat="48.11359" lon="3.31234">
        <ele>102.5</ele>
        <time>2024-03-30T17:07:23.000Z</time>
      </trkpt>
      <trkpt lat="48.11359" lon="3.31237">
        <ele>102.6</ele>
        <time>2024-03-30T17:07:24.000Z</time>
      </trkpt>
      <trkpt lat="48.1136" lon="3.31239">
        <ele>102.6</ele>
        <time>2024-03-30T17:07:25.000Z</time>
      </trkpt>
      <trkpt lat="48.1136" lon="3.31241">
        <ele>102.7</ele>
        <time>2024-03-30T17:07:26.000Z</time>
      </trkpt>
      <trkpt lat="48.1136" lon="3.31242">
        <ele>102.8</ele>
        <time>2024-03-30T17:07:27.000Z</time>
      </trkpt>
      <trkpt lat="48.1136" lon="3.31245">
        <ele>102.9</ele>
        <time>2024-03-30T17:07:28.000Z</time>
      </trkpt>
      <trkpt lat="48.1136" lon="3.31248">
        <ele>103</ele>
        <time>2024-03-30T17:07:29.000Z</time>
      </trkpt>
      <trkpt lat="48.1136" lon="3.3126">
        <ele>103.4</ele>
        <time>2024-03-30T17:07:33.000Z</time>
      </trkpt>
      <trkpt lat="48.11361" lon="3.31264">
        <ele>103.5</ele>
        <time>2024-03-30T17:07:34.000Z</time>
      </trkpt>
      <trkpt lat="48.11361" lon="3.31266">
        <ele>103.6</ele>
        <time>2024-03-30T17:07:35.000Z</time>
      </trkpt>
      <trkpt lat="48.1136" lon="3.31268">
        <ele>103.7</ele>
        <time>2024-03-30T17:07:36.000Z</time>
      </trkpt>
      <trkpt lat="48.1136" lon="3.31269">
        <ele>103.7</ele>
        <time>2024-03-30T17:07:37.000Z</time>
      </trkpt>
      <trkpt lat="48.11359" lon="3.31274">
        <ele>103.9</ele>
        <time>2024-03-30T17:07:38.000Z</time>
      </trkpt>
      <trkpt lat="48.1136" lon="3.31277">
        <ele>104</ele>
        <time>2024-03-30T17:07:39.000Z</time>
      </trkpt>
      <trkpt lat="48.1136" lon="3.3128">
        <ele>104.1</ele>
        <time>2024-03-30T17:07:40.000Z</time>
      </trkpt>
      <trkpt lat="48.11361" lon="3.31283">
        <ele>104.2</ele>
        <time>2024-03-30T17:07:41.000Z</time>
      </trkpt>
      <trkpt lat="48.11361" lon="3.31286">
        <ele>104.3</ele>
        <time>2024-03-30T17:07:42.000Z</time>
      </trkpt>
      <trkpt lat="48.11361" lon="3.31289">
        <ele>104.4</ele>
        <time>2024-03-30T17:07:43.000Z</time>
      </trkpt>
      <trkpt lat="48.11361" lon="3.3129">
        <ele>104.4</ele>
        <time>2024-03-30T17:07:44.000Z</time>
      </trkpt>
      <trkpt lat="48.11361" lon="3.31292">
        <ele>104.5</ele>
        <time>2024-03-30T17:07:45.000Z</time>
      </trkpt>
      <trkpt lat="48.11361" lon="3.31293">
        <ele>104.6</ele>
        <time>2024-03-30T17:07:46.000Z</time>
      </trkpt>
      <trkpt lat="48.11361" lon="3.31296">
        <ele>104.7</ele>
        <time>2024-03-30T17:07:47.000Z</time>
      </trkpt>
      <trkpt lat="48.11361" lon="3.31298">
        <ele>104.7</ele>
        <time>2024-03-30T17:07:48.000Z</time>
      </trkpt>
      <trkpt lat="48.11361" lon="3.313">
        <ele>104.8</ele>
        <time>2024-03-30T17:07:49.000Z</time>
      </trkpt>
      <trkpt lat="48.1136" lon="3.31302">
        <ele>104.9</ele>
        <time>2024-03-30T17:07:50.000Z</time>
      </trkpt>
      <trkpt lat="48.11361" lon="3.31308">
        <ele>105.1</ele>
        <time>2024-03-30T17:07:51.000Z</time>
      </trkpt>
      <trkpt lat="48.11362" lon="3.31309">
        <ele>105.1</ele>
        <time>2024-03-30T17:07:52.000Z</time>
      </trkpt>
      <trkpt lat="48.11363" lon="3.31312">
        <ele>105.2</ele>
        <time>2024-03-30T17:07:53.000Z</time>
      </trkpt>
      <trkpt lat="48.11364" lon="3.31313">
        <ele>105.2</ele>
        <time>2024-03-30T17:07:54.000Z</time>
      </trkpt>
      <trkpt lat="48.11364" lon="3.31314">
        <ele>105.2</ele>
        <time>2024-03-30T17:07:55.000Z</time>
      </trkpt>
      <trkpt lat="48.11364" lon="3.31314">
        <ele>105.2</ele>
        <time>2024-03-30T17:07:56.000Z</time>
      </trkpt>
      <trkpt lat="48.11364" lon="3.31315">
        <ele>105.3</ele>
        <time>2024-03-30T17:07:57.000Z</time>
      </trkpt>
      <trkpt lat="48.11364" lon="3.31316">
        <ele>105.3</ele>
        <time>2024-03-30T17:07:58.000Z</time>
      </trkpt>
      <trkpt lat="48.11364" lon="3.31317">
        <ele>105.4</ele>
        <time>2024-03-30T17:07:59.000Z</time>
      </trkpt>
      <trkpt lat="48.11364" lon="3.31318">
        <ele>105.4</ele>
        <time>2024-03-30T17:08:00.000Z</time>
      </trkpt>
      <trkpt lat="48.11364" lon="3.31319">
        <ele>105.4</ele>
        <time>2024-03-30T17:08:01.000Z</time>
      </trkpt>
      <trkpt lat="48.11363" lon="3.3132">
        <ele>105.5</ele>
        <time>2024-03-30T17:08:02.000Z</time>
      </trkpt>
      <trkpt lat="48.11363" lon="3.31323">
        <ele>105.6</ele>
        <time>2024-03-30T17:08:03.000Z</time>
      </trkpt>
      <trkpt lat="48.11362" lon="3.31325">
        <ele>105.7</ele>
        <time>2024-03-30T17:08:04.000Z</time>
      </trkpt>
      <trkpt lat="48.11362" lon="3.31326">
        <ele>105.7</ele>
        <time>2024-03-30T17:08:05.000Z</time>
      </trkpt>
      <trkpt lat="48.11362" lon="3.31329">
        <ele>105.8</ele>
        <time>2024-03-30T17:08:06.000Z</time>
      </trkpt>
      <trkpt lat="48.11363" lon="3.31332">
        <ele>105.9</ele>
        <time>2024-03-30T17:08:07.000Z</time>
      </trkpt>
      <trkpt lat="48.11363" lon="3.31333">
        <ele>106</ele>
        <time>2024-03-30T17:08:08.000Z</time>
      </trkpt>
      <trkpt lat="48.11363" lon="3.31334">
        <ele>106</ele>
        <time>2024-03-30T17:08:09.000Z</time>
      </trkpt>
      <trkpt lat="48.11363" lon="3.31335">
        <ele>106.1</ele>
        <time>2024-03-30T17:08:10.000Z</time>
      </trkpt>
      <trkpt lat="48.11364" lon="3.31335">
        <ele>106.1</ele>
        <time>2024-03-30T17:08:11.000Z</time>
      </trkpt>
      <trkpt lat="48.11364" lon="3.31336">
        <ele>106.2</ele>
        <time>2024-03-30T17:08:12.000Z</time>
      </trkpt>
      <trkpt lat="48.11364" lon="3.31337">
        <ele>106.3</ele>
        <time>2024-03-30T17:08:13.000Z</time>
      </trkpt>
      <trkpt lat="48.11364" lon="3.31339">
        <ele>106.4</ele>
        <time>2024-03-30T17:08:14.000Z</time>
      </trkpt>
      <trkpt lat="48.11364" lon="3.3134">
        <ele>106.5</ele>
        <time>2024-03-30T17:08:15.000Z</time>
      </trkpt>
      <trkpt lat="48.11363" lon="3.31342">
        <ele>106.6</ele>
        <time>2024-03-30T17:08:16.000Z</time>
      </trkpt>
      <trkpt lat="48.11362" lon="3.31345">
        <ele>106.8</ele>
        <time>2024-03-30T17:08:17.000Z</time>
      </trkpt>
      <trkpt lat="48.11362" lon="3.31346">
        <ele>106.9</ele>
        <time>2024-03-30T17:08:18.000Z</time>
      </trkpt>
      <trkpt lat="48.11362" lon="3.31349">
        <ele>107.1</ele>
        <time>2024-03-30T17:08:19.000Z</time>
      </trkpt>
      <trkpt lat="48.11362" lon="3.31351">
        <ele>107.3</ele>
        <time>2024-03-30T17:08:20.000Z</time>
      </trkpt>
      <trkpt lat="48.11361" lon="3.31352">
        <ele>107.3</ele>
        <time>2024-03-30T17:08:21.000Z</time>
      </trkpt>
      <trkpt lat="48.11361" lon="3.31354">
        <ele>107.5</ele>
        <time>2024-03-30T17:08:22.000Z</time>
      </trkpt>
      <trkpt lat="48.11361" lon="3.31355">
        <ele>107.6</ele>
        <time>2024-03-30T17:08:23.000Z</time>
      </trkpt>
      <trkpt lat="48.1136" lon="3.31356">
        <ele>107.7</ele>
        <time>2024-03-30T17:08:24.000Z</time>
      </trkpt>
      <trkpt lat="48.11359" lon="3.31359">
        <ele>107.9</ele>
        <time>2024-03-30T17:08:26.000Z</time>
      </trkpt>
      <trkpt lat="48.11358" lon="3.31359">
        <ele>108</ele>
        <time>2024-03-30T17:08:27.000Z</time>
      </trkpt>
      <trkpt lat="48.11359" lon="3.31361">
        <ele>108.1</ele>
        <time>2024-03-30T17:08:28.000Z</time>
      </trkpt>
      <trkpt lat="48.11358" lon="3.31362">
        <ele>108.1</ele>
        <time>2024-03-30T17:08:29.000Z</time>
      </trkpt>
      <trkpt lat="48.11359" lon="3.31363">
        <ele>108.1</ele>
        <time>2024-03-30T17:08:30.000Z</time>
      </trkpt>
      <trkpt lat="48.11359" lon="3.31363">
        <ele>108.1</ele>
        <time>2024-03-30T17:08:31.000Z</time>
      </trkpt>
      <trkpt lat="48.11359" lon="3.31364">
        <ele>108.2</ele>
        <time>2024-03-30T17:08:32.000Z</time>
      </trkpt>
      <trkpt lat="48.11358" lon="3.31367">
        <ele>108.3</ele>
        <time>2024-03-30T17:08:33.000Z</time>
      </trkpt>
      <trkpt lat="48.11358" lon="3.31368">
        <ele>108.4</ele>
        <time>2024-03-30T17:08:34.000Z</time>
      </trkpt>
      <trkpt lat="48.11355" lon="3.31372">
        <ele>108.7</ele>
        <time>2024-03-30T17:08:36.000Z</time>
      </trkpt>
      <trkpt lat="48.11355" lon="3.31374">
        <ele>108.8</ele>
        <time>2024-03-30T17:08:37.000Z</time>
      </trkpt>
      <trkpt lat="48.11355" lon="3.31376">
        <ele>108.9</ele>
        <time>2024-03-30T17:08:38.000Z</time>
      </trkpt>
      <trkpt lat="48.11355" lon="3.31377">
        <ele>108.9</ele>
        <time>2024-03-30T17:08:39.000Z</time>
      </trkpt>
      <trkpt lat="48.11355" lon="3.31377">
        <ele>108.9</ele>
        <time>2024-03-30T17:08:40.000Z</time>
      </trkpt>
      <trkpt lat="48.11356" lon="3.31379">
        <ele>108.9</ele>
        <time>2024-03-30T17:08:42.000Z</time>
      </trkpt>
      <trkpt lat="48.11356" lon="3.31379">
        <ele>108.9</ele>
        <time>2024-03-30T17:08:43.000Z</time>
      </trkpt>
      <trkpt lat="48.11356" lon="3.3138">
        <ele>109</ele>
        <time>2024-03-30T17:08:44.000Z</time>
      </trkpt>
      <trkpt lat="48.11357" lon="3.31382">
        <ele>109</ele>
        <time>2024-03-30T17:08:45.000Z</time>
      </trkpt>
      <trkpt lat="48.11357" lon="3.31384">
        <ele>109.1</ele>
        <time>2024-03-30T17:08:46.000Z</time>
      </trkpt>
      <trkpt lat="48.11357" lon="3.31386">
        <ele>109.2</ele>
        <time>2024-03-30T17:08:47.000Z</time>
      </trkpt>
      <trkpt lat="48.11358" lon="3.31387">
        <ele>109.1</ele>
        <time>2024-03-30T17:08:48.000Z</time>
      </trkpt>
      <trkpt lat="48.11358" lon="3.31389">
        <ele>109.2</ele>
        <time>2024-03-30T17:08:49.000Z</time>
      </trkpt>
      <trkpt lat="48.11359" lon="3.31392">
        <ele>109.4</ele>
        <time>2024-03-30T17:08:50.000Z</time>
      </trkpt>
      <trkpt lat="48.11359" lon="3.31392">
        <ele>109.4</ele>
        <time>2024-03-30T17:08:51.000Z</time>
      </trkpt>
      <trkpt lat="48.11359" lon="3.31392">
        <ele>109.4</ele>
        <time>2024-03-30T17:08:52.000Z</time>
      </trkpt>
      <trkpt lat="48.11359" lon="3.31392">
        <ele>109.4</ele>
        <time>2024-03-30T17:09:00.000Z</time>
      </trkpt>
      <trkpt lat="48.11359" lon="3.31392">
        <ele>109.4</ele>
        <time>2024-03-30T17:09:21.000Z</time>
      </trkpt>
      <trkpt lat="48.11361" lon="3.31394">
        <ele>109.4</ele>
        <time>2024-03-30T17:09:45.000Z</time>
      </trkpt>
      <trkpt lat="48.11362" lon="3.31395">
        <ele>109.4</ele>
        <time>2024-03-30T17:09:46.000Z</time>
      </trkpt>
      <trkpt lat="48.11363" lon="3.31397">
        <ele>109.5</ele>
        <time>2024-03-30T17:09:47.000Z</time>
      </trkpt>
      <trkpt lat="48.11364" lon="3.31398">
        <ele>109.6</ele>
        <time>2024-03-30T17:09:48.000Z</time>
      </trkpt>
      <trkpt lat="48.11366" lon="3.31401">
        <ele>109.7</ele>
        <time>2024-03-30T17:09:50.000Z</time>
      </trkpt>
      <trkpt lat="48.11367" lon="3.31402">
        <ele>109.7</ele>
        <time>2024-03-30T17:09:51.000Z</time>
      </trkpt>
      <trkpt lat="48.11375" lon="3.31415">
        <ele>110.4</ele>
        <time>2024-03-30T17:09:56.000Z</time>
      </trkpt>
      <trkpt lat="48.11377" lon="3.31418">
        <ele>110.5</ele>
        <time>2024-03-30T17:09:57.000Z</time>
      </trkpt>
      <trkpt lat="48.11378" lon="3.3142">
        <ele>110.6</ele>
        <time>2024-03-30T17:09:58.000Z</time>
      </trkpt>
      <trkpt lat="48.1138" lon="3.31422">
        <ele>110.6</ele>
        <time>2024-03-30T17:09:59.000Z</time>
      </trkpt>
      <trkpt lat="48.11381" lon="3.31424">
        <ele>110.6</ele>
        <time>2024-03-30T17:10:00.000Z</time>
      </trkpt>
      <trkpt lat="48.11388" lon="3.31434">
        <ele>110.7</ele>
        <time>2024-03-30T17:10:03.000Z</time>
      </trkpt>
      <trkpt lat="48.11389" lon="3.31436">
        <ele>110.7</ele>
        <time>2024-03-30T17:10:04.000Z</time>
      </trkpt>
      <trkpt lat="48.11392" lon="3.31441">
        <ele>110.8</ele>
        <time>2024-03-30T17:10:05.000Z</time>
      </trkpt>
      <trkpt lat="48.11394" lon="3.31444">
        <ele>110.8</ele>
        <time>2024-03-30T17:10:06.000Z</time>
      </trkpt>
      <trkpt lat="48.11398" lon="3.3145">
        <ele>111.1</ele>
        <time>2024-03-30T17:10:07.000Z</time>
      </trkpt>
      <trkpt lat="48.11404" lon="3.31456">
        <ele>111.3</ele>
        <time>2024-03-30T17:10:09.000Z</time>
      </trkpt>
      <trkpt lat="48.1141" lon="3.31466">
        <ele>111.8</ele>
        <time>2024-03-30T17:10:11.000Z</time>
      </trkpt>
      <trkpt lat="48.11412" lon="3.31469">
        <ele>111.9</ele>
        <time>2024-03-30T17:10:12.000Z</time>
      </trkpt>
      <trkpt lat="48.11415" lon="3.3147">
        <ele>111.9</ele>
        <time>2024-03-30T17:10:13.000Z</time>
      </trkpt>
      <trkpt lat="48.11418" lon="3.31474">
        <ele>112.1</ele>
        <time>2024-03-30T17:10:14.000Z</time>
      </trkpt>
      <trkpt lat="48.11419" lon="3.31476">
        <ele>112.3</ele>
        <time>2024-03-30T17:10:15.000Z</time>
      </trkpt>
      <trkpt lat="48.11421" lon="3.31478">
        <ele>112.4</ele>
        <time>2024-03-30T17:10:16.000Z</time>
      </trkpt>
      <trkpt lat="48.11422" lon="3.31478">
        <ele>112.4</ele>
        <time>2024-03-30T17:10:17.000Z</time>
      </trkpt>
      <trkpt lat="48.11424" lon="3.31479">
        <ele>112.5</ele>
        <time>2024-03-30T17:10:18.000Z</time>
      </trkpt>
      <trkpt lat="48.11425" lon="3.31481">
        <ele>112.6</ele>
        <time>2024-03-30T17:10:19.000Z</time>
      </trkpt>
      <trkpt lat="48.11427" lon="3.31483">
        <ele>112.8</ele>
        <time>2024-03-30T17:10:20.000Z</time>
      </trkpt>
      <trkpt lat="48.11427" lon="3.31485">
        <ele>112.9</ele>
        <time>2024-03-30T17:10:21.000Z</time>
      </trkpt>
      <trkpt lat="48.11427" lon="3.31486">
        <ele>113</ele>
        <time>2024-03-30T17:10:22.000Z</time>
      </trkpt>
      <trkpt lat="48.11428" lon="3.31487">
        <ele>113.1</ele>
        <time>2024-03-30T17:10:23.000Z</time>
      </trkpt>
      <trkpt lat="48.1143" lon="3.31488">
        <ele>113.1</ele>
        <time>2024-03-30T17:10:24.000Z</time>
      </trkpt>
      <trkpt lat="48.11431" lon="3.31489">
        <ele>113.2</ele>
        <time>2024-03-30T17:10:25.000Z</time>
      </trkpt>
      <trkpt lat="48.11432" lon="3.31491">
        <ele>113.4</ele>
        <time>2024-03-30T17:10:26.000Z</time>
      </trkpt>
      <trkpt lat="48.11434" lon="3.31492">
        <ele>113.4</ele>
        <time>2024-03-30T17:10:27.000Z</time>
      </trkpt>
      <trkpt lat="48.11435" lon="3.31494">
        <ele>113.6</ele>
        <time>2024-03-30T17:10:28.000Z</time>
      </trkpt>
      <trkpt lat="48.11436" lon="3.31495">
        <ele>113.6</ele>
        <time>2024-03-30T17:10:29.000Z</time>
      </trkpt>
      <trkpt lat="48.11437" lon="3.31496">
        <ele>113.7</ele>
        <time>2024-03-30T17:10:30.000Z</time>
      </trkpt>
      <trkpt lat="48.11438" lon="3.31497">
        <ele>113.8</ele>
        <time>2024-03-30T17:10:31.000Z</time>
      </trkpt>
      <trkpt lat="48.11439" lon="3.31498">
        <ele>113.9</ele>
        <time>2024-03-30T17:10:32.000Z</time>
      </trkpt>
      <trkpt lat="48.1144" lon="3.315">
        <ele>114</ele>
        <time>2024-03-30T17:10:33.000Z</time>
      </trkpt>
      <trkpt lat="48.11441" lon="3.31501">
        <ele>114.1</ele>
        <time>2024-03-30T17:10:34.000Z</time>
      </trkpt>
      <trkpt lat="48.11445" lon="3.31504">
        <ele>114.3</ele>
        <time>2024-03-30T17:10:37.000Z</time>
      </trkpt>
      <trkpt lat="48.11446" lon="3.31506">
        <ele>114.4</ele>
        <time>2024-03-30T17:10:38.000Z</time>
      </trkpt>
      <trkpt lat="48.11447" lon="3.31506">
        <ele>114.4</ele>
        <time>2024-03-30T17:10:39.000Z</time>
      </trkpt>
      <trkpt lat="48.11447" lon="3.31506">
        <ele>114.4</ele>
        <time>2024-03-30T17:10:40.000Z</time>
      </trkpt>
      <trkpt lat="48.11447" lon="3.31506">
        <ele>114.4</ele>
        <time>2024-03-30T17:10:43.000Z</time>
      </trkpt>
      <trkpt lat="48.11447" lon="3.31506">
        <ele>114.4</ele>
        <time>2024-03-30T17:10:45.000Z</time>
      </trkpt>
      <trkpt lat="48.11447" lon="3.31506">
        <ele>114.4</ele>
        <time>2024-03-30T17:10:53.000Z</time>
      </trkpt>
      <trkpt lat="48.11448" lon="3.31506">
        <ele>114.4</ele>
        <time>2024-03-30T17:11:10.000Z</time>
      </trkpt>
      <trkpt lat="48.1145" lon="3.31504">
        <ele>114.3</ele>
        <time>2024-03-30T17:11:12.000Z</time>
      </trkpt>
      <trkpt lat="48.11453" lon="3.31494">
        <ele>113.6</ele>
        <time>2024-03-30T17:11:15.000Z</time>
      </trkpt>
      <trkpt lat="48.11454" lon="3.3149">
        <ele>113.3</ele>
        <time>2024-03-30T17:11:16.000Z</time>
      </trkpt>
      <trkpt lat="48.11459" lon="3.31476">
        <ele>112.3</ele>
        <time>2024-03-30T17:11:19.000Z</time>
      </trkpt>
      <trkpt lat="48.11471" lon="3.31454">
        <ele>111.3</ele>
        <time>2024-03-30T17:11:24.000Z</time>
      </trkpt>
      <trkpt lat="48.11477" lon="3.31442">
        <ele>110.8</ele>
        <time>2024-03-30T17:11:26.000Z</time>
      </trkpt>
      <trkpt lat="48.11482" lon="3.31425">
        <ele>109.8</ele>
        <time>2024-03-30T17:11:29.000Z</time>
      </trkpt>
      <trkpt lat="48.11487" lon="3.31415">
        <ele>109.4</ele>
        <time>2024-03-30T17:11:31.000Z</time>
      </trkpt>
      <trkpt lat="48.11491" lon="3.31411">
        <ele>109.3</ele>
        <time>2024-03-30T17:11:32.000Z</time>
      </trkpt>
      <trkpt lat="48.11495" lon="3.31409">
        <ele>109.3</ele>
        <time>2024-03-30T17:11:33.000Z</time>
      </trkpt>
      <trkpt lat="48.11498" lon="3.31408">
        <ele>109.3</ele>
        <time>2024-03-30T17:11:34.000Z</time>
      </trkpt>
      <trkpt lat="48.11499" lon="3.31407">
        <ele>109.3</ele>
        <time>2024-03-30T17:11:35.000Z</time>
      </trkpt>
      <trkpt lat="48.115" lon="3.31406">
        <ele>109.2</ele>
        <time>2024-03-30T17:11:36.000Z</time>
      </trkpt>
      <trkpt lat="48.11502" lon="3.31408">
        <ele>109.3</ele>
        <time>2024-03-30T17:11:37.000Z</time>
      </trkpt>
      <trkpt lat="48.11504" lon="3.31408">
        <ele>109.1</ele>
        <time>2024-03-30T17:11:38.000Z</time>
      </trkpt>
      <trkpt lat="48.11507" lon="3.3141">
        <ele>109.1</ele>
        <time>2024-03-30T17:11:39.000Z</time>
      </trkpt>
      <trkpt lat="48.11515" lon="3.31415">
        <ele>108.8</ele>
        <time>2024-03-30T17:11:42.000Z</time>
      </trkpt>
      <trkpt lat="48.11531" lon="3.31424">
        <ele>108.3</ele>
        <time>2024-03-30T17:11:48.000Z</time>
      </trkpt>
      <trkpt lat="48.11537" lon="3.31426">
        <ele>108</ele>
        <time>2024-03-30T17:11:50.000Z</time>
      </trkpt>
      <trkpt lat="48.11558" lon="3.31439">
        <ele>107.5</ele>
        <time>2024-03-30T17:11:57.000Z</time>
      </trkpt>
      <trkpt lat="48.11562" lon="3.31442">
        <ele>107.6</ele>
        <time>2024-03-30T17:11:59.000Z</time>
      </trkpt>
      <trkpt lat="48.11564" lon="3.31444">
        <ele>107.7</ele>
        <time>2024-03-30T17:12:00.000Z</time>
      </trkpt>
      <trkpt lat="48.11566" lon="3.31446">
        <ele>107.7</ele>
        <time>2024-03-30T17:12:01.000Z</time>
      </trkpt>
      <trkpt lat="48.11569" lon="3.31448">
        <ele>107.8</ele>
        <time>2024-03-30T17:12:02.000Z</time>
      </trkpt>
      <trkpt lat="48.11573" lon="3.3145">
        <ele>107.8</ele>
        <time>2024-03-30T17:12:04.000Z</time>
      </trkpt>
      <trkpt lat="48.11575" lon="3.31451">
        <ele>107.8</ele>
        <time>2024-03-30T17:12:05.000Z</time>
      </trkpt>
      <trkpt lat="48.11577" lon="3.31452">
        <ele>107.8</ele>
        <time>2024-03-30T17:12:06.000Z</time>
      </trkpt>
      <trkpt lat="48.1158" lon="3.31454">
        <ele>107.8</ele>
        <time>2024-03-30T17:12:07.000Z</time>
      </trkpt>
      <trkpt lat="48.11583" lon="3.31456">
        <ele>107.8</ele>
        <time>2024-03-30T17:12:08.000Z</time>
      </trkpt>
      <trkpt lat="48.11598" lon="3.31466">
        <ele>108</ele>
        <time>2024-03-30T17:12:14.000Z</time>
      </trkpt>
      <trkpt lat="48.11608" lon="3.31471">
        <ele>108</ele>
        <time>2024-03-30T17:12:18.000Z</time>
      </trkpt>
      <trkpt lat="48.1161" lon="3.31473">
        <ele>108.1</ele>
        <time>2024-03-30T17:12:19.000Z</time>
      </trkpt>
      <trkpt lat="48.11613" lon="3.31476">
        <ele>108.1</ele>
        <time>2024-03-30T17:12:20.000Z</time>
      </trkpt>
      <trkpt lat="48.11615" lon="3.31478">
        <ele>108.1</ele>
        <time>2024-03-30T17:12:21.000Z</time>
      </trkpt>
      <trkpt lat="48.11617" lon="3.3148">
        <ele>108.1</ele>
        <time>2024-03-30T17:12:22.000Z</time>
      </trkpt>
      <trkpt lat="48.11619" lon="3.31482">
        <ele>108.1</ele>
        <time>2024-03-30T17:12:23.000Z</time>
      </trkpt>
      <trkpt lat="48.1162" lon="3.31483">
        <ele>108.1</ele>
        <time>2024-03-30T17:12:24.000Z</time>
      </trkpt>
      <trkpt lat="48.11622" lon="3.31486">
        <ele>108.2</ele>
        <time>2024-03-30T17:12:25.000Z</time>
      </trkpt>
      <trkpt lat="48.11624" lon="3.31488">
        <ele>108.2</ele>
        <time>2024-03-30T17:12:26.000Z</time>
      </trkpt>
      <trkpt lat="48.11626" lon="3.3149">
        <ele>108.2</ele>
        <time>2024-03-30T17:12:27.000Z</time>
      </trkpt>
      <trkpt lat="48.11628" lon="3.31492">
        <ele>108.2</ele>
        <time>2024-03-30T17:12:28.000Z</time>
      </trkpt>
      <trkpt lat="48.1163" lon="3.31494">
        <ele>108.2</ele>
        <time>2024-03-30T17:12:29.000Z</time>
      </trkpt>
      <trkpt lat="48.11632" lon="3.31496">
        <ele>108.2</ele>
        <time>2024-03-30T17:12:30.000Z</time>
      </trkpt>
      <trkpt lat="48.11633" lon="3.31497">
        <ele>108.2</ele>
        <time>2024-03-30T17:12:31.000Z</time>
      </trkpt>
      <trkpt lat="48.11636" lon="3.315">
        <ele>108.2</ele>
        <time>2024-03-30T17:12:32.000Z</time>
      </trkpt>
      <trkpt lat="48.11649" lon="3.31512">
        <ele>108.7</ele>
        <time>2024-03-30T17:12:39.000Z</time>
      </trkpt>
      <trkpt lat="48.11669" lon="3.31519">
        <ele>109</ele>
        <time>2024-03-30T17:12:47.000Z</time>
      </trkpt>
      <trkpt lat="48.11708" lon="3.31527">
        <ele>108.4</ele>
        <time>2024-03-30T17:13:00.000Z</time>
      </trkpt>
      <trkpt lat="48.11729" lon="3.3153">
        <ele>107.9</ele>
        <time>2024-03-30T17:13:06.000Z</time>
      </trkpt>
      <trkpt lat="48.11752" lon="3.31535">
        <ele>107.4</ele>
        <time>2024-03-30T17:13:13.000Z</time>
      </trkpt>
      <trkpt lat="48.11786" lon="3.31542">
        <ele>106.7</ele>
        <time>2024-03-30T17:13:22.000Z</time>
      </trkpt>
      <trkpt lat="48.11794" lon="3.31543">
        <ele>106.5</ele>
        <time>2024-03-30T17:13:24.000Z</time>
      </trkpt>
      <trkpt lat="48.11831" lon="3.31556">
        <ele>106.1</ele>
        <time>2024-03-30T17:13:33.000Z</time>
      </trkpt>
      <trkpt lat="48.11842" lon="3.31561">
        <ele>105.6</ele>
        <time>2024-03-30T17:13:36.000Z</time>
      </trkpt>
      <trkpt lat="48.11846" lon="3.31563">
        <ele>105.5</ele>
        <time>2024-03-30T17:13:37.000Z</time>
      </trkpt>
      <trkpt lat="48.11849" lon="3.31564">
        <ele>105.3</ele>
        <time>2024-03-30T17:13:38.000Z</time>
      </trkpt>
      <trkpt lat="48.11853" lon="3.31566">
        <ele>105.2</ele>
        <time>2024-03-30T17:13:39.000Z</time>
      </trkpt>
      <trkpt lat="48.11856" lon="3.31567">
        <ele>105.1</ele>
        <time>2024-03-30T17:13:40.000Z</time>
      </trkpt>
      <trkpt lat="48.1186" lon="3.31569">
        <ele>105</ele>
        <time>2024-03-30T17:13:41.000Z</time>
      </trkpt>
      <trkpt lat="48.11863" lon="3.3157">
        <ele>105</ele>
        <time>2024-03-30T17:13:42.000Z</time>
      </trkpt>
      <trkpt lat="48.11867" lon="3.31572">
        <ele>105.2</ele>
        <time>2024-03-30T17:13:43.000Z</time>
      </trkpt>
      <trkpt lat="48.1187" lon="3.31573">
        <ele>105.3</ele>
        <time>2024-03-30T17:13:44.000Z</time>
      </trkpt>
      <trkpt lat="48.11873" lon="3.31574">
        <ele>105.3</ele>
        <time>2024-03-30T17:13:45.000Z</time>
      </trkpt>
      <trkpt lat="48.11876" lon="3.31576">
        <ele>105.5</ele>
        <time>2024-03-30T17:13:46.000Z</time>
      </trkpt>
      <trkpt lat="48.11879" lon="3.31577">
        <ele>105.5</ele>
        <time>2024-03-30T17:13:47.000Z</time>
      </trkpt>
      <trkpt lat="48.11882" lon="3.31578">
        <ele>105.6</ele>
        <time>2024-03-30T17:13:48.000Z</time>
      </trkpt>
      <trkpt lat="48.11885" lon="3.31579">
        <ele>105.7</ele>
        <time>2024-03-30T17:13:49.000Z</time>
      </trkpt>
      <trkpt lat="48.11888" lon="3.3158">
        <ele>105.8</ele>
        <time>2024-03-30T17:13:50.000Z</time>
      </trkpt>
      <trkpt lat="48.11891" lon="3.31581">
        <ele>105.8</ele>
        <time>2024-03-30T17:13:51.000Z</time>
      </trkpt>
      <trkpt lat="48.11894" lon="3.31582">
        <ele>105.7</ele>
        <time>2024-03-30T17:13:52.000Z</time>
      </trkpt>
      <trkpt lat="48.11897" lon="3.31583">
        <ele>105.7</ele>
        <time>2024-03-30T17:13:53.000Z</time>
      </trkpt>
      <trkpt lat="48.119" lon="3.31584">
        <ele>105.6</ele>
        <time>2024-03-30T17:13:54.000Z</time>
      </trkpt>
      <trkpt lat="48.11909" lon="3.31587">
        <ele>105.4</ele>
        <time>2024-03-30T17:13:57.000Z</time>
      </trkpt>
      <trkpt lat="48.11912" lon="3.31588">
        <ele>105.3</ele>
        <time>2024-03-30T17:13:58.000Z</time>
      </trkpt>
      <trkpt lat="48.11914" lon="3.31588">
        <ele>105.3</ele>
        <time>2024-03-30T17:13:59.000Z</time>
      </trkpt>
      <trkpt lat="48.11917" lon="3.31589">
        <ele>105.2</ele>
        <time>2024-03-30T17:14:00.000Z</time>
      </trkpt>
      <trkpt lat="48.1192" lon="3.3159">
        <ele>105.1</ele>
        <time>2024-03-30T17:14:01.000Z</time>
      </trkpt>
      <trkpt lat="48.11947" lon="3.31601">
        <ele>105.2</ele>
        <time>2024-03-30T17:14:10.000Z</time>
      </trkpt>
      <trkpt lat="48.11953" lon="3.31603">
        <ele>105.2</ele>
        <time>2024-03-30T17:14:12.000Z</time>
      </trkpt>
      <trkpt lat="48.11962" lon="3.31602">
        <ele>104.9</ele>
        <time>2024-03-30T17:14:15.000Z</time>
      </trkpt>
      <trkpt lat="48.11964" lon="3.31601">
        <ele>104.8</ele>
        <time>2024-03-30T17:14:16.000Z</time>
      </trkpt>
      <trkpt lat="48.11967" lon="3.31599">
        <ele>104.7</ele>
        <time>2024-03-30T17:14:17.000Z</time>
      </trkpt>
      <trkpt lat="48.1197" lon="3.31598">
        <ele>104.6</ele>
        <time>2024-03-30T17:14:18.000Z</time>
      </trkpt>
      <trkpt lat="48.11975" lon="3.31595">
        <ele>104.4</ele>
        <time>2024-03-30T17:14:20.000Z</time>
      </trkpt>
      <trkpt lat="48.11976" lon="3.31593">
        <ele>104.3</ele>
        <time>2024-03-30T17:14:21.000Z</time>
      </trkpt>
      <trkpt lat="48.11979" lon="3.31591">
        <ele>104.3</ele>
        <time>2024-03-30T17:14:22.000Z</time>
      </trkpt>
      <trkpt lat="48.11982" lon="3.31589">
        <ele>104.2</ele>
        <time>2024-03-30T17:14:23.000Z</time>
      </trkpt>
      <trkpt lat="48.11985" lon="3.31586">
        <ele>104.1</ele>
        <time>2024-03-30T17:14:24.000Z</time>
      </trkpt>
      <trkpt lat="48.11991" lon="3.31581">
        <ele>103.9</ele>
        <time>2024-03-30T17:14:26.000Z</time>
      </trkpt>
      <trkpt lat="48.12009" lon="3.31564">
        <ele>103.3</ele>
        <time>2024-03-30T17:14:32.000Z</time>
      </trkpt>
      <trkpt lat="48.12016" lon="3.31558">
        <ele>103.1</ele>
        <time>2024-03-30T17:14:34.000Z</time>
      </trkpt>
      <trkpt lat="48.12045" lon="3.31529">
        <ele>102</ele>
        <time>2024-03-30T17:14:43.000Z</time>
      </trkpt>
      <trkpt lat="48.12066" lon="3.31515">
        <ele>102</ele>
        <time>2024-03-30T17:14:49.000Z</time>
      </trkpt>
      <trkpt lat="48.12094" lon="3.31507">
        <ele>102</ele>
        <time>2024-03-30T17:14:57.000Z</time>
      </trkpt>
      <trkpt lat="48.12098" lon="3.31506">
        <ele>102</ele>
        <time>2024-03-30T17:14:58.000Z</time>
      </trkpt>
      <trkpt lat="48.12111" lon="3.31504">
        <ele>102</ele>
        <time>2024-03-30T17:15:02.000Z</time>
      </trkpt>
      <trkpt lat="48.12114" lon="3.31503">
        <ele>101.9</ele>
        <time>2024-03-30T17:15:03.000Z</time>
      </trkpt>
      <trkpt lat="48.12118" lon="3.31502">
        <ele>101.8</ele>
        <time>2024-03-30T17:15:04.000Z</time>
      </trkpt>
      <trkpt lat="48.12137" lon="3.31497">
        <ele>101</ele>
        <time>2024-03-30T17:15:09.000Z</time>
      </trkpt>
      <trkpt lat="48.12157" lon="3.31492">
        <ele>100.7</ele>
        <time>2024-03-30T17:15:14.000Z</time>
      </trkpt>
      <trkpt lat="48.12169" lon="3.3149">
        <ele>100.6</ele>
        <time>2024-03-30T17:15:17.000Z</time>
      </trkpt>
      <trkpt lat="48.12201" lon="3.31481">
        <ele>99.8</ele>
        <time>2024-03-30T17:15:25.000Z</time>
      </trkpt>
      <trkpt lat="48.12205" lon="3.3148">
        <ele>99.6</ele>
        <time>2024-03-30T17:15:26.000Z</time>
      </trkpt>
      <trkpt lat="48.12232" lon="3.31475">
        <ele>98.6</ele>
        <time>2024-03-30T17:15:33.000Z</time>
      </trkpt>
      <trkpt lat="48.12236" lon="3.31474">
        <ele>98.5</ele>
        <time>2024-03-30T17:15:34.000Z</time>
      </trkpt>
      <trkpt lat="48.1224" lon="3.31473">
        <ele>98.4</ele>
        <time>2024-03-30T17:15:35.000Z</time>
      </trkpt>
      <trkpt lat="48.12244" lon="3.31472">
        <ele>98.2</ele>
        <time>2024-03-30T17:15:36.000Z</time>
      </trkpt>
      <trkpt lat="48.12273" lon="3.31465">
        <ele>96.3</ele>
        <time>2024-03-30T17:15:43.000Z</time>
      </trkpt>
      <trkpt lat="48.12276" lon="3.31464">
        <ele>96.1</ele>
        <time>2024-03-30T17:15:44.000Z</time>
      </trkpt>
      <trkpt lat="48.12279" lon="3.31464">
        <ele>95.9</ele>
        <time>2024-03-30T17:15:45.000Z</time>
      </trkpt>
      <trkpt lat="48.12281" lon="3.31464">
        <ele>95.8</ele>
        <time>2024-03-30T17:15:46.000Z</time>
      </trkpt>
      <trkpt lat="48.12283" lon="3.31464">
        <ele>95.6</ele>
        <time>2024-03-30T17:15:47.000Z</time>
      </trkpt>
      <trkpt lat="48.12286" lon="3.31464">
        <ele>95.4</ele>
        <time>2024-03-30T17:15:48.000Z</time>
      </trkpt>
      <trkpt lat="48.12292" lon="3.31462">
        <ele>95</ele>
        <time>2024-03-30T17:15:50.000Z</time>
      </trkpt>
      <trkpt lat="48.12302" lon="3.31456">
        <ele>94.3</ele>
        <time>2024-03-30T17:15:53.000Z</time>
      </trkpt>
      <trkpt lat="48.12316" lon="3.31441">
        <ele>93.6</ele>
        <time>2024-03-30T17:15:57.000Z</time>
      </trkpt>
      <trkpt lat="48.12325" lon="3.31433">
        <ele>93</ele>
        <time>2024-03-30T17:15:59.000Z</time>
      </trkpt>
      <trkpt lat="48.12341" lon="3.31423">
        <ele>91.9</ele>
        <time>2024-03-30T17:16:02.000Z</time>
      </trkpt>
      <trkpt lat="48.12354" lon="3.31417">
        <ele>91.3</ele>
        <time>2024-03-30T17:16:04.000Z</time>
      </trkpt>
      <trkpt lat="48.1236" lon="3.31415">
        <ele>91</ele>
        <time>2024-03-30T17:16:05.000Z</time>
      </trkpt>
      <trkpt lat="48.12366" lon="3.31413">
        <ele>90.8</ele>
        <time>2024-03-30T17:16:06.000Z</time>
      </trkpt>
      <trkpt lat="48.12373" lon="3.31411">
        <ele>90.5</ele>
        <time>2024-03-30T17:16:07.000Z</time>
      </trkpt>
      <trkpt lat="48.12392" lon="3.31402">
        <ele>89.2</ele>
        <time>2024-03-30T17:16:10.000Z</time>
      </trkpt>
      <trkpt lat="48.12404" lon="3.31391">
        <ele>88</ele>
        <time>2024-03-30T17:16:12.000Z</time>
      </trkpt>
      <trkpt lat="48.12414" lon="3.31375">
        <ele>87.2</ele>
        <time>2024-03-30T17:16:14.000Z</time>
      </trkpt>
      <trkpt lat="48.1242" lon="3.31361">
        <ele>86.9</ele>
        <time>2024-03-30T17:16:16.000Z</time>
      </trkpt>
      <trkpt lat="48.12422" lon="3.31358">
        <ele>86.8</ele>
        <time>2024-03-30T17:16:17.000Z</time>
      </trkpt>
      <trkpt lat="48.12423" lon="3.31355">
        <ele>86.8</ele>
        <time>2024-03-30T17:16:18.000Z</time>
      </trkpt>
      <trkpt lat="48.12425" lon="3.31353">
        <ele>86.7</ele>
        <time>2024-03-30T17:16:19.000Z</time>
      </trkpt>
      <trkpt lat="48.12426" lon="3.3135">
        <ele>86.7</ele>
        <time>2024-03-30T17:16:20.000Z</time>
      </trkpt>
      <trkpt lat="48.12428" lon="3.31347">
        <ele>86.6</ele>
        <time>2024-03-30T17:16:21.000Z</time>
      </trkpt>
      <trkpt lat="48.1243" lon="3.31344">
        <ele>86.5</ele>
        <time>2024-03-30T17:16:22.000Z</time>
      </trkpt>
      <trkpt lat="48.12432" lon="3.31341">
        <ele>86.4</ele>
        <time>2024-03-30T17:16:23.000Z</time>
      </trkpt>
      <trkpt lat="48.12436" lon="3.31335">
        <ele>86.3</ele>
        <time>2024-03-30T17:16:25.000Z</time>
      </trkpt>
      <trkpt lat="48.12437" lon="3.31332">
        <ele>86.3</ele>
        <time>2024-03-30T17:16:26.000Z</time>
      </trkpt>
      <trkpt lat="48.12439" lon="3.3133">
        <ele>86.2</ele>
        <time>2024-03-30T17:16:27.000Z</time>
      </trkpt>
      <trkpt lat="48.12441" lon="3.31329">
        <ele>86.1</ele>
        <time>2024-03-30T17:16:28.000Z</time>
      </trkpt>
      <trkpt lat="48.12442" lon="3.31328">
        <ele>86.1</ele>
        <time>2024-03-30T17:16:29.000Z</time>
      </trkpt>
      <trkpt lat="48.12444" lon="3.31327">
        <ele>86</ele>
        <time>2024-03-30T17:16:30.000Z</time>
      </trkpt>
      <trkpt lat="48.12445" lon="3.31326">
        <ele>86</ele>
        <time>2024-03-30T17:16:31.000Z</time>
      </trkpt>
      <trkpt lat="48.12459" lon="3.31323">
        <ele>85.5</ele>
        <time>2024-03-30T17:16:36.000Z</time>
      </trkpt>
      <trkpt lat="48.12469" lon="3.31324">
        <ele>85.1</ele>
        <time>2024-03-30T17:16:39.000Z</time>
      </trkpt>
      <trkpt lat="48.12472" lon="3.31323">
        <ele>85</ele>
        <time>2024-03-30T17:16:40.000Z</time>
      </trkpt>
      <trkpt lat="48.12478" lon="3.31323">
        <ele>85</ele>
        <time>2024-03-30T17:16:42.000Z</time>
      </trkpt>
      <trkpt lat="48.125" lon="3.31318">
        <ele>85</ele>
        <time>2024-03-30T17:16:49.000Z</time>
      </trkpt>
      <trkpt lat="48.12503" lon="3.31315">
        <ele>85</ele>
        <time>2024-03-30T17:16:50.000Z</time>
      </trkpt>
      <trkpt lat="48.12505" lon="3.3131">
        <ele>85</ele>
        <time>2024-03-30T17:16:51.000Z</time>
      </trkpt>
      <trkpt lat="48.12506" lon="3.31305">
        <ele>85</ele>
        <time>2024-03-30T17:16:52.000Z</time>
      </trkpt>
      <trkpt lat="48.12508" lon="3.31299">
        <ele>84.9</ele>
        <time>2024-03-30T17:16:53.000Z</time>
      </trkpt>
      <trkpt lat="48.12509" lon="3.31294">
        <ele>84.9</ele>
        <time>2024-03-30T17:16:54.000Z</time>
      </trkpt>
      <trkpt lat="48.12517" lon="3.31263">
        <ele>84.9</ele>
        <time>2024-03-30T17:16:59.000Z</time>
      </trkpt>
      <trkpt lat="48.12518" lon="3.31257">
        <ele>84.8</ele>
        <time>2024-03-30T17:17:00.000Z</time>
      </trkpt>
      <trkpt lat="48.12532" lon="3.3121">
        <ele>84.3</ele>
        <time>2024-03-30T17:17:08.000Z</time>
      </trkpt>
      <trkpt lat="48.12538" lon="3.3119">
        <ele>84.4</ele>
        <time>2024-03-30T17:17:11.000Z</time>
      </trkpt>
      <trkpt lat="48.12545" lon="3.31154">
        <ele>84.6</ele>
        <time>2024-03-30T17:17:16.000Z</time>
      </trkpt>
      <trkpt lat="48.12546" lon="3.31147">
        <ele>84.5</ele>
        <time>2024-03-30T17:17:17.000Z</time>
      </trkpt>
      <trkpt lat="48.12551" lon="3.31079">
        <ele>83.7</ele>
        <time>2024-03-30T17:17:26.000Z</time>
      </trkpt>
      <trkpt lat="48.12553" lon="3.31058">
        <ele>83</ele>
        <time>2024-03-30T17:17:29.000Z</time>
      </trkpt>
      <trkpt lat="48.12554" lon="3.31051">
        <ele>82.9</ele>
        <time>2024-03-30T17:17:30.000Z</time>
      </trkpt>
      <trkpt lat="48.12556" lon="3.31022">
        <ele>83.1</ele>
        <time>2024-03-30T17:17:34.000Z</time>
      </trkpt>
      <trkpt lat="48.1256" lon="3.30953">
        <ele>82.6</ele>
        <time>2024-03-30T17:17:43.000Z</time>
      </trkpt>
      <trkpt lat="48.12565" lon="3.30917">
        <ele>82.7</ele>
        <time>2024-03-30T17:17:48.000Z</time>
      </trkpt>
      <trkpt lat="48.12569" lon="3.30905">
        <ele>82.6</ele>
        <time>2024-03-30T17:17:50.000Z</time>
      </trkpt>
      <trkpt lat="48.12571" lon="3.309">
        <ele>82.4</ele>
        <time>2024-03-30T17:17:51.000Z</time>
      </trkpt>
      <trkpt lat="48.12573" lon="3.30895">
        <ele>82.3</ele>
        <time>2024-03-30T17:17:52.000Z</time>
      </trkpt>
      <trkpt lat="48.12575" lon="3.30891">
        <ele>82.1</ele>
        <time>2024-03-30T17:17:53.000Z</time>
      </trkpt>
      <trkpt lat="48.12578" lon="3.30886">
        <ele>82</ele>
        <time>2024-03-30T17:17:54.000Z</time>
      </trkpt>
      <trkpt lat="48.1258" lon="3.30882">
        <ele>82</ele>
        <time>2024-03-30T17:17:55.000Z</time>
      </trkpt>
      <trkpt lat="48.12592" lon="3.3087">
        <ele>81.9</ele>
        <time>2024-03-30T17:17:59.000Z</time>
      </trkpt>
      <trkpt lat="48.126" lon="3.30856">
        <ele>81.2</ele>
        <time>2024-03-30T17:18:02.000Z</time>
      </trkpt>
      <trkpt lat="48.12602" lon="3.30852">
        <ele>81</ele>
        <time>2024-03-30T17:18:03.000Z</time>
      </trkpt>
      <trkpt lat="48.12602" lon="3.30847">
        <ele>80.8</ele>
        <time>2024-03-30T17:18:04.000Z</time>
      </trkpt>
      <trkpt lat="48.12601" lon="3.30843">
        <ele>80.7</ele>
        <time>2024-03-30T17:18:05.000Z</time>
      </trkpt>
      <trkpt lat="48.126" lon="3.3084">
        <ele>80.6</ele>
        <time>2024-03-30T17:18:06.000Z</time>
      </trkpt>
      <trkpt lat="48.12598" lon="3.30838">
        <ele>80.6</ele>
        <time>2024-03-30T17:18:07.000Z</time>
      </trkpt>
      <trkpt lat="48.12596" lon="3.30837">
        <ele>80.7</ele>
        <time>2024-03-30T17:18:08.000Z</time>
      </trkpt>
      <trkpt lat="48.12595" lon="3.30836">
        <ele>80.7</ele>
        <time>2024-03-30T17:18:10.000Z</time>
      </trkpt>
      <trkpt lat="48.12595" lon="3.30836">
        <ele>80.7</ele>
        <time>2024-03-30T17:18:13.000Z</time>
      </trkpt>
    </trkseg>
  </trk>
  <trk>
    <name><![CDATA[VTT5 Bonus]]></name>
    <extensions>
      <line xmlns="http://www.topografix.com/GPX/gpx_style/0/2">
        <color>ff0019</color>
        <width>4</width>
      </line>
    </extensions>
    <trkseg>
      <trkpt lat="48.08193" lon="3.29103">
        <ele>70.7</ele>
        <time>2024-03-30T15:26:07.000Z</time>
      </trkpt>
      <trkpt lat="48.08193" lon="3.29103">
        <ele>70.7</ele>
        <time>2024-03-30T15:26:23.000Z</time>
      </trkpt>
      <trkpt lat="48.08193" lon="3.29103">
        <ele>70.7</ele>
        <time>2024-03-30T15:26:38.000Z</time>
      </trkpt>
      <trkpt lat="48.08194" lon="3.29105">
        <ele>70.8</ele>
        <time>2024-03-30T15:26:39.000Z</time>
      </trkpt>
      <trkpt lat="48.08195" lon="3.29107">
        <ele>70.9</ele>
        <time>2024-03-30T15:26:40.000Z</time>
      </trkpt>
      <trkpt lat="48.08196" lon="3.29109">
        <ele>70.9</ele>
        <time>2024-03-30T15:26:41.000Z</time>
      </trkpt>
      <trkpt lat="48.08207" lon="3.29118">
        <ele>70.9</ele>
        <time>2024-03-30T15:26:45.000Z</time>
      </trkpt>
      <trkpt lat="48.08209" lon="3.2912">
        <ele>70.8</ele>
        <time>2024-03-30T15:26:46.000Z</time>
      </trkpt>
      <trkpt lat="48.08212" lon="3.29122">
        <ele>70.9</ele>
        <time>2024-03-30T15:26:47.000Z</time>
      </trkpt>
      <trkpt lat="48.08214" lon="3.29124">
        <ele>70.9</ele>
        <time>2024-03-30T15:26:48.000Z</time>
      </trkpt>
      <trkpt lat="48.08222" lon="3.29131">
        <ele>71</ele>
        <time>2024-03-30T15:26:51.000Z</time>
      </trkpt>
      <trkpt lat="48.08229" lon="3.29136">
        <ele>71.2</ele>
        <time>2024-03-30T15:26:54.000Z</time>
      </trkpt>
      <trkpt lat="48.08232" lon="3.29138">
        <ele>71.3</ele>
        <time>2024-03-30T15:26:55.000Z</time>
      </trkpt>
      <trkpt lat="48.08242" lon="3.29145">
        <ele>71.5</ele>
        <time>2024-03-30T15:26:59.000Z</time>
      </trkpt>
      <trkpt lat="48.08245" lon="3.29146">
        <ele>71.6</ele>
        <time>2024-03-30T15:27:00.000Z</time>
      </trkpt>
      <trkpt lat="48.08247" lon="3.29148">
        <ele>71.6</ele>
        <time>2024-03-30T15:27:01.000Z</time>
      </trkpt>
      <trkpt lat="48.08249" lon="3.29149">
        <ele>71.6</ele>
        <time>2024-03-30T15:27:02.000Z</time>
      </trkpt>
      <trkpt lat="48.08251" lon="3.29151">
        <ele>71.6</ele>
        <time>2024-03-30T15:27:03.000Z</time>
      </trkpt>
      <trkpt lat="48.08252" lon="3.29152">
        <ele>71.6</ele>
        <time>2024-03-30T15:27:04.000Z</time>
      </trkpt>
      <trkpt lat="48.08253" lon="3.29153">
        <ele>71.5</ele>
        <time>2024-03-30T15:27:05.000Z</time>
      </trkpt>
      <trkpt lat="48.08255" lon="3.29155">
        <ele>71.5</ele>
        <time>2024-03-30T15:27:06.000Z</time>
      </trkpt>
      <trkpt lat="48.08255" lon="3.29158">
        <ele>71.4</ele>
        <time>2024-03-30T15:27:07.000Z</time>
      </trkpt>
      <trkpt lat="48.08255" lon="3.29161">
        <ele>71.2</ele>
        <time>2024-03-30T15:27:08.000Z</time>
      </trkpt>
      <trkpt lat="48.08254" lon="3.29164">
        <ele>71.1</ele>
        <time>2024-03-30T15:27:09.000Z</time>
      </trkpt>
      <trkpt lat="48.08253" lon="3.29167">
        <ele>71</ele>
        <time>2024-03-30T15:27:10.000Z</time>
      </trkpt>
      <trkpt lat="48.08252" lon="3.29171">
        <ele>70.8</ele>
        <time>2024-03-30T15:27:11.000Z</time>
      </trkpt>
      <trkpt lat="48.08251" lon="3.29175">
        <ele>70.7</ele>
        <time>2024-03-30T15:27:12.000Z</time>
      </trkpt>
      <trkpt lat="48.0825" lon="3.2918">
        <ele>70.5</ele>
        <time>2024-03-30T15:27:13.000Z</time>
      </trkpt>
      <trkpt lat="48.08249" lon="3.29184">
        <ele>70.4</ele>
        <time>2024-03-30T15:27:14.000Z</time>
      </trkpt>
      <trkpt lat="48.08248" lon="3.29188">
        <ele>70.2</ele>
        <time>2024-03-30T15:27:15.000Z</time>
      </trkpt>
      <trkpt lat="48.08246" lon="3.29193">
        <ele>70</ele>
        <time>2024-03-30T15:27:16.000Z</time>
      </trkpt>
      <trkpt lat="48.08245" lon="3.29197">
        <ele>70</ele>
        <time>2024-03-30T15:27:17.000Z</time>
      </trkpt>
      <trkpt lat="48.08243" lon="3.29201">
        <ele>70</ele>
        <time>2024-03-30T15:27:18.000Z</time>
      </trkpt>
      <trkpt lat="48.08242" lon="3.29205">
        <ele>70</ele>
        <time>2024-03-30T15:27:19.000Z</time>
      </trkpt>
      <trkpt lat="48.0824" lon="3.2921">
        <ele>70</ele>
        <time>2024-03-30T15:27:20.000Z</time>
      </trkpt>
      <trkpt lat="48.08239" lon="3.29215">
        <ele>70</ele>
        <time>2024-03-30T15:27:21.000Z</time>
      </trkpt>
      <trkpt lat="48.08239" lon="3.2922">
        <ele>70</ele>
        <time>2024-03-30T15:27:22.000Z</time>
      </trkpt>
      <trkpt lat="48.08238" lon="3.29225">
        <ele>70</ele>
        <time>2024-03-30T15:27:23.000Z</time>
      </trkpt>
      <trkpt lat="48.08236" lon="3.2923">
        <ele>70</ele>
        <time>2024-03-30T15:27:24.000Z</time>
      </trkpt>
      <trkpt lat="48.08235" lon="3.29235">
        <ele>70</ele>
        <time>2024-03-30T15:27:25.000Z</time>
      </trkpt>
      <trkpt lat="48.08234" lon="3.29241">
        <ele>70</ele>
        <time>2024-03-30T15:27:26.000Z</time>
      </trkpt>
      <trkpt lat="48.08232" lon="3.29247">
        <ele>70</ele>
        <time>2024-03-30T15:27:27.000Z</time>
      </trkpt>
      <trkpt lat="48.08231" lon="3.29254">
        <ele>70.5</ele>
        <time>2024-03-30T15:27:28.000Z</time>
      </trkpt>
      <trkpt lat="48.08229" lon="3.29261">
        <ele>71.5</ele>
        <time>2024-03-30T15:27:29.000Z</time>
      </trkpt>
      <trkpt lat="48.08227" lon="3.29268">
        <ele>72.7</ele>
        <time>2024-03-30T15:27:30.000Z</time>
      </trkpt>
      <trkpt lat="48.08225" lon="3.29275">
        <ele>74</ele>
        <time>2024-03-30T15:27:31.000Z</time>
      </trkpt>
      <trkpt lat="48.08223" lon="3.29282">
        <ele>74.7</ele>
        <time>2024-03-30T15:27:32.000Z</time>
      </trkpt>
      <trkpt lat="48.08222" lon="3.29288">
        <ele>74.6</ele>
        <time>2024-03-30T15:27:33.000Z</time>
      </trkpt>
      <trkpt lat="48.08221" lon="3.29294">
        <ele>74.3</ele>
        <time>2024-03-30T15:27:34.000Z</time>
      </trkpt>
      <trkpt lat="48.0822" lon="3.29299">
        <ele>74.1</ele>
        <time>2024-03-30T15:27:35.000Z</time>
      </trkpt>
      <trkpt lat="48.0822" lon="3.29304">
        <ele>74</ele>
        <time>2024-03-30T15:27:36.000Z</time>
      </trkpt>
      <trkpt lat="48.0822" lon="3.29307">
        <ele>73.9</ele>
        <time>2024-03-30T15:27:37.000Z</time>
      </trkpt>
      <trkpt lat="48.08223" lon="3.29311">
        <ele>73.7</ele>
        <time>2024-03-30T15:27:38.000Z</time>
      </trkpt>
      <trkpt lat="48.08227" lon="3.29313">
        <ele>73.3</ele>
        <time>2024-03-30T15:27:39.000Z</time>
      </trkpt>
      <trkpt lat="48.08237" lon="3.29316">
        <ele>72.2</ele>
        <time>2024-03-30T15:27:41.000Z</time>
      </trkpt>
      <trkpt lat="48.08241" lon="3.29315">
        <ele>71.9</ele>
        <time>2024-03-30T15:27:42.000Z</time>
      </trkpt>
      <trkpt lat="48.08244" lon="3.29311">
        <ele>71.6</ele>
        <time>2024-03-30T15:27:43.000Z</time>
      </trkpt>
      <trkpt lat="48.08246" lon="3.29307">
        <ele>71.4</ele>
        <time>2024-03-30T15:27:44.000Z</time>
      </trkpt>
      <trkpt lat="48.08247" lon="3.29303">
        <ele>71.3</ele>
        <time>2024-03-30T15:27:45.000Z</time>
      </trkpt>
      <trkpt lat="48.08248" lon="3.293">
        <ele>71</ele>
        <time>2024-03-30T15:27:46.000Z</time>
      </trkpt>
      <trkpt lat="48.08251" lon="3.29295">
        <ele>70.6</ele>
        <time>2024-03-30T15:27:47.000Z</time>
      </trkpt>
      <trkpt lat="48.08254" lon="3.29294">
        <ele>70.6</ele>
        <time>2024-03-30T15:27:48.000Z</time>
      </trkpt>
      <trkpt lat="48.08258" lon="3.29293">
        <ele>70.5</ele>
        <time>2024-03-30T15:27:49.000Z</time>
      </trkpt>
      <trkpt lat="48.08265" lon="3.29296">
        <ele>70.7</ele>
        <time>2024-03-30T15:27:51.000Z</time>
      </trkpt>
      <trkpt lat="48.0827" lon="3.29298">
        <ele>70.7</ele>
        <time>2024-03-30T15:27:52.000Z</time>
      </trkpt>
      <trkpt lat="48.08274" lon="3.293">
        <ele>70.8</ele>
        <time>2024-03-30T15:27:53.000Z</time>
      </trkpt>
      <trkpt lat="48.08282" lon="3.29306">
        <ele>70.9</ele>
        <time>2024-03-30T15:27:55.000Z</time>
      </trkpt>
      <trkpt lat="48.08285" lon="3.29311">
        <ele>71</ele>
        <time>2024-03-30T15:27:56.000Z</time>
      </trkpt>
      <trkpt lat="48.08287" lon="3.29316">
        <ele>71.2</ele>
        <time>2024-03-30T15:27:57.000Z</time>
      </trkpt>
      <trkpt lat="48.08288" lon="3.29322">
        <ele>71.4</ele>
        <time>2024-03-30T15:27:58.000Z</time>
      </trkpt>
      <trkpt lat="48.08289" lon="3.29328">
        <ele>71.7</ele>
        <time>2024-03-30T15:27:59.000Z</time>
      </trkpt>
      <trkpt lat="48.08294" lon="3.29337">
        <ele>72.1</ele>
        <time>2024-03-30T15:28:01.000Z</time>
      </trkpt>
      <trkpt lat="48.08296" lon="3.2934">
        <ele>72.1</ele>
        <time>2024-03-30T15:28:02.000Z</time>
      </trkpt>
      <trkpt lat="48.08299" lon="3.29343">
        <ele>72.1</ele>
        <time>2024-03-30T15:28:03.000Z</time>
      </trkpt>
      <trkpt lat="48.08302" lon="3.29344">
        <ele>72</ele>
        <time>2024-03-30T15:28:04.000Z</time>
      </trkpt>
      <trkpt lat="48.08305" lon="3.29345">
        <ele>72</ele>
        <time>2024-03-30T15:28:05.000Z</time>
      </trkpt>
      <trkpt lat="48.08308" lon="3.29346">
        <ele>72</ele>
        <time>2024-03-30T15:28:06.000Z</time>
      </trkpt>
      <trkpt lat="48.08311" lon="3.29346">
        <ele>72</ele>
        <time>2024-03-30T15:28:07.000Z</time>
      </trkpt>
      <trkpt lat="48.08333" lon="3.2935">
        <ele>72</ele>
        <time>2024-03-30T15:28:13.000Z</time>
      </trkpt>
      <trkpt lat="48.08346" lon="3.29348">
        <ele>71.8</ele>
        <time>2024-03-30T15:28:16.000Z</time>
      </trkpt>
      <trkpt lat="48.08355" lon="3.29344">
        <ele>71.5</ele>
        <time>2024-03-30T15:28:18.000Z</time>
      </trkpt>
      <trkpt lat="48.08361" lon="3.29342">
        <ele>71.3</ele>
        <time>2024-03-30T15:28:19.000Z</time>
      </trkpt>
      <trkpt lat="48.08371" lon="3.29342">
        <ele>71.2</ele>
        <time>2024-03-30T15:28:21.000Z</time>
      </trkpt>
      <trkpt lat="48.08382" lon="3.29341">
        <ele>71.1</ele>
        <time>2024-03-30T15:28:23.000Z</time>
      </trkpt>
      <trkpt lat="48.08409" lon="3.29339">
        <ele>71</ele>
        <time>2024-03-30T15:28:28.000Z</time>
      </trkpt>
      <trkpt lat="48.08429" lon="3.29338">
        <ele>71</ele>
        <time>2024-03-30T15:28:32.000Z</time>
      </trkpt>
      <trkpt lat="48.08434" lon="3.29338">
        <ele>71</ele>
        <time>2024-03-30T15:28:33.000Z</time>
      </trkpt>
      <trkpt lat="48.08439" lon="3.29337">
        <ele>71</ele>
        <time>2024-03-30T15:28:34.000Z</time>
      </trkpt>
      <trkpt lat="48.08444" lon="3.29337">
        <ele>71</ele>
        <time>2024-03-30T15:28:35.000Z</time>
      </trkpt>
      <trkpt lat="48.08457" lon="3.29334">
        <ele>71</ele>
        <time>2024-03-30T15:28:38.000Z</time>
      </trkpt>
      <trkpt lat="48.08462" lon="3.29333">
        <ele>71</ele>
        <time>2024-03-30T15:28:39.000Z</time>
      </trkpt>
      <trkpt lat="48.08467" lon="3.29332">
        <ele>71</ele>
        <time>2024-03-30T15:28:40.000Z</time>
      </trkpt>
      <trkpt lat="48.08472" lon="3.29331">
        <ele>70.9</ele>
        <time>2024-03-30T15:28:41.000Z</time>
      </trkpt>
      <trkpt lat="48.08477" lon="3.29331">
        <ele>70.9</ele>
        <time>2024-03-30T15:28:42.000Z</time>
      </trkpt>
      <trkpt lat="48.08496" lon="3.29328">
        <ele>71</ele>
        <time>2024-03-30T15:28:46.000Z</time>
      </trkpt>
      <trkpt lat="48.08519" lon="3.29325">
        <ele>71</ele>
        <time>2024-03-30T15:28:51.000Z</time>
      </trkpt>
      <trkpt lat="48.08524" lon="3.29325">
        <ele>71</ele>
        <time>2024-03-30T15:28:52.000Z</time>
      </trkpt>
      <trkpt lat="48.08528" lon="3.29325">
        <ele>71</ele>
        <time>2024-03-30T15:28:53.000Z</time>
      </trkpt>
      <trkpt lat="48.08532" lon="3.29325">
        <ele>71</ele>
        <time>2024-03-30T15:28:54.000Z</time>
      </trkpt>
      <trkpt lat="48.08537" lon="3.29324">
        <ele>71</ele>
        <time>2024-03-30T15:28:55.000Z</time>
      </trkpt>
      <trkpt lat="48.08541" lon="3.29324">
        <ele>71</ele>
        <time>2024-03-30T15:28:56.000Z</time>
      </trkpt>
      <trkpt lat="48.08546" lon="3.29323">
        <ele>71</ele>
        <time>2024-03-30T15:28:57.000Z</time>
      </trkpt>
      <trkpt lat="48.0855" lon="3.29323">
        <ele>71</ele>
        <time>2024-03-30T15:28:58.000Z</time>
      </trkpt>
      <trkpt lat="48.08554" lon="3.29322">
        <ele>71</ele>
        <time>2024-03-30T15:28:59.000Z</time>
      </trkpt>
      <trkpt lat="48.08558" lon="3.29321">
        <ele>71</ele>
        <time>2024-03-30T15:29:00.000Z</time>
      </trkpt>
      <trkpt lat="48.08567" lon="3.29324">
        <ele>71</ele>
        <time>2024-03-30T15:29:02.000Z</time>
      </trkpt>
      <trkpt lat="48.0857" lon="3.29328">
        <ele>71</ele>
        <time>2024-03-30T15:29:03.000Z</time>
      </trkpt>
      <trkpt lat="48.08573" lon="3.29334">
        <ele>71</ele>
        <time>2024-03-30T15:29:04.000Z</time>
      </trkpt>
      <trkpt lat="48.08574" lon="3.29341">
        <ele>71</ele>
        <time>2024-03-30T15:29:05.000Z</time>
      </trkpt>
      <trkpt lat="48.08574" lon="3.29348">
        <ele>71</ele>
        <time>2024-03-30T15:29:06.000Z</time>
      </trkpt>
      <trkpt lat="48.08573" lon="3.29363">
        <ele>71.1</ele>
        <time>2024-03-30T15:29:08.000Z</time>
      </trkpt>
      <trkpt lat="48.08572" lon="3.2937">
        <ele>71.3</ele>
        <time>2024-03-30T15:29:09.000Z</time>
      </trkpt>
      <trkpt lat="48.08571" lon="3.29377">
        <ele>71.6</ele>
        <time>2024-03-30T15:29:10.000Z</time>
      </trkpt>
      <trkpt lat="48.0857" lon="3.29396">
        <ele>72</ele>
        <time>2024-03-30T15:29:13.000Z</time>
      </trkpt>
      <trkpt lat="48.08568" lon="3.2941">
        <ele>72</ele>
        <time>2024-03-30T15:29:15.000Z</time>
      </trkpt>
      <trkpt lat="48.08567" lon="3.29416">
        <ele>72</ele>
        <time>2024-03-30T15:29:16.000Z</time>
      </trkpt>
      <trkpt lat="48.08566" lon="3.2943">
        <ele>72</ele>
        <time>2024-03-30T15:29:18.000Z</time>
      </trkpt>
      <trkpt lat="48.08565" lon="3.29437">
        <ele>72</ele>
        <time>2024-03-30T15:29:19.000Z</time>
      </trkpt>
      <trkpt lat="48.08564" lon="3.29444">
        <ele>72</ele>
        <time>2024-03-30T15:29:20.000Z</time>
      </trkpt>
      <trkpt lat="48.08564" lon="3.29451">
        <ele>72.2</ele>
        <time>2024-03-30T15:29:21.000Z</time>
      </trkpt>
      <trkpt lat="48.08563" lon="3.29476">
        <ele>73.1</ele>
        <time>2024-03-30T15:29:25.000Z</time>
      </trkpt>
      <trkpt lat="48.08561" lon="3.29488">
        <ele>73.6</ele>
        <time>2024-03-30T15:29:27.000Z</time>
      </trkpt>
      <trkpt lat="48.08561" lon="3.29494">
        <ele>73.8</ele>
        <time>2024-03-30T15:29:28.000Z</time>
      </trkpt>
      <trkpt lat="48.0856" lon="3.29499">
        <ele>74</ele>
        <time>2024-03-30T15:29:29.000Z</time>
      </trkpt>
      <trkpt lat="48.0856" lon="3.29504">
        <ele>74</ele>
        <time>2024-03-30T15:29:30.000Z</time>
      </trkpt>
      <trkpt lat="48.08559" lon="3.29508">
        <ele>74</ele>
        <time>2024-03-30T15:29:31.000Z</time>
      </trkpt>
      <trkpt lat="48.08559" lon="3.29511">
        <ele>74</ele>
        <time>2024-03-30T15:29:32.000Z</time>
      </trkpt>
      <trkpt lat="48.08559" lon="3.29513">
        <ele>74</ele>
        <time>2024-03-30T15:29:33.000Z</time>
      </trkpt>
      <trkpt lat="48.08558" lon="3.29515">
        <ele>74</ele>
        <time>2024-03-30T15:29:34.000Z</time>
      </trkpt>
      <trkpt lat="48.08558" lon="3.29517">
        <ele>74</ele>
        <time>2024-03-30T15:29:35.000Z</time>
      </trkpt>
      <trkpt lat="48.08558" lon="3.29518">
        <ele>74</ele>
        <time>2024-03-30T15:29:36.000Z</time>
      </trkpt>
      <trkpt lat="48.08559" lon="3.2952">
        <ele>74</ele>
        <time>2024-03-30T15:29:37.000Z</time>
      </trkpt>
      <trkpt lat="48.0856" lon="3.29521">
        <ele>74</ele>
        <time>2024-03-30T15:29:38.000Z</time>
      </trkpt>
      <trkpt lat="48.0857" lon="3.29526">
        <ele>74</ele>
        <time>2024-03-30T15:29:41.000Z</time>
      </trkpt>
      <trkpt lat="48.08576" lon="3.29531">
        <ele>74.1</ele>
        <time>2024-03-30T15:29:43.000Z</time>
      </trkpt>
      <trkpt lat="48.08578" lon="3.29536">
        <ele>74.3</ele>
        <time>2024-03-30T15:29:44.000Z</time>
      </trkpt>
      <trkpt lat="48.0858" lon="3.29542">
        <ele>74.5</ele>
        <time>2024-03-30T15:29:45.000Z</time>
      </trkpt>
      <trkpt lat="48.0858" lon="3.29549">
        <ele>74.8</ele>
        <time>2024-03-30T15:29:46.000Z</time>
      </trkpt>
      <trkpt lat="48.08581" lon="3.29555">
        <ele>75</ele>
        <time>2024-03-30T15:29:47.000Z</time>
      </trkpt>
      <trkpt lat="48.08581" lon="3.29562">
        <ele>75</ele>
        <time>2024-03-30T15:29:48.000Z</time>
      </trkpt>
      <trkpt lat="48.08582" lon="3.29568">
        <ele>75</ele>
        <time>2024-03-30T15:29:49.000Z</time>
      </trkpt>
      <trkpt lat="48.08584" lon="3.29599">
        <ele>75.6</ele>
        <time>2024-03-30T15:29:54.000Z</time>
      </trkpt>
      <trkpt lat="48.08585" lon="3.29605">
        <ele>75.8</ele>
        <time>2024-03-30T15:29:55.000Z</time>
      </trkpt>
      <trkpt lat="48.08585" lon="3.29611">
        <ele>76</ele>
        <time>2024-03-30T15:29:56.000Z</time>
      </trkpt>
      <trkpt lat="48.08586" lon="3.29617">
        <ele>76</ele>
        <time>2024-03-30T15:29:57.000Z</time>
      </trkpt>
      <trkpt lat="48.08586" lon="3.29623">
        <ele>76</ele>
        <time>2024-03-30T15:29:58.000Z</time>
      </trkpt>
      <trkpt lat="48.08589" lon="3.29646">
        <ele>76.2</ele>
        <time>2024-03-30T15:30:02.000Z</time>
      </trkpt>
      <trkpt lat="48.08589" lon="3.29652">
        <ele>76.4</ele>
        <time>2024-03-30T15:30:03.000Z</time>
      </trkpt>
      <trkpt lat="48.08591" lon="3.29695">
        <ele>77</ele>
        <time>2024-03-30T15:30:10.000Z</time>
      </trkpt>
      <trkpt lat="48.08593" lon="3.2972">
        <ele>77.3</ele>
        <time>2024-03-30T15:30:14.000Z</time>
      </trkpt>
      <trkpt lat="48.08594" lon="3.29732">
        <ele>76.8</ele>
        <time>2024-03-30T15:30:16.000Z</time>
      </trkpt>
      <trkpt lat="48.08596" lon="3.29744">
        <ele>76.2</ele>
        <time>2024-03-30T15:30:18.000Z</time>
      </trkpt>
      <trkpt lat="48.08597" lon="3.29749">
        <ele>76</ele>
        <time>2024-03-30T15:30:19.000Z</time>
      </trkpt>
      <trkpt lat="48.08601" lon="3.29775">
        <ele>76.9</ele>
        <time>2024-03-30T15:30:23.000Z</time>
      </trkpt>
      <trkpt lat="48.08609" lon="3.29808">
        <ele>78</ele>
        <time>2024-03-30T15:30:28.000Z</time>
      </trkpt>
      <trkpt lat="48.08611" lon="3.29825">
        <ele>78</ele>
        <time>2024-03-30T15:30:31.000Z</time>
      </trkpt>
      <trkpt lat="48.08611" lon="3.29827">
        <ele>78</ele>
        <time>2024-03-30T15:30:32.000Z</time>
      </trkpt>
      <trkpt lat="48.08611" lon="3.29827">
        <ele>78</ele>
        <time>2024-03-30T15:30:33.000Z</time>
      </trkpt>
      <trkpt lat="48.08611" lon="3.29827">
        <ele>78</ele>
        <time>2024-03-30T15:30:36.000Z</time>
      </trkpt>
      <trkpt lat="48.08611" lon="3.29827">
        <ele>78</ele>
        <time>2024-03-30T15:30:55.000Z</time>
      </trkpt>
      <trkpt lat="48.08612" lon="3.29831">
        <ele>78</ele>
        <time>2024-03-30T15:31:03.000Z</time>
      </trkpt>
      <trkpt lat="48.08613" lon="3.29832">
        <ele>77.9</ele>
        <time>2024-03-30T15:31:04.000Z</time>
      </trkpt>
      <trkpt lat="48.08614" lon="3.29834">
        <ele>77.9</ele>
        <time>2024-03-30T15:31:05.000Z</time>
      </trkpt>
      <trkpt lat="48.08617" lon="3.29837">
        <ele>77.8</ele>
        <time>2024-03-30T15:31:07.000Z</time>
      </trkpt>
      <trkpt lat="48.08618" lon="3.29839">
        <ele>77.8</ele>
        <time>2024-03-30T15:31:08.000Z</time>
      </trkpt>
      <trkpt lat="48.08625" lon="3.29848">
        <ele>77.8</ele>
        <time>2024-03-30T15:31:12.000Z</time>
      </trkpt>
      <trkpt lat="48.08638" lon="3.29863">
        <ele>78</ele>
        <time>2024-03-30T15:31:20.000Z</time>
      </trkpt>
      <trkpt lat="48.08656" lon="3.29876">
        <ele>77.7</ele>
        <time>2024-03-30T15:31:27.000Z</time>
      </trkpt>
      <trkpt lat="48.08659" lon="3.29878">
        <ele>77.7</ele>
        <time>2024-03-30T15:31:28.000Z</time>
      </trkpt>
      <trkpt lat="48.0869" lon="3.29901">
        <ele>77.5</ele>
        <time>2024-03-30T15:31:38.000Z</time>
      </trkpt>
      <trkpt lat="48.08711" lon="3.29918">
        <ele>77.5</ele>
        <time>2024-03-30T15:31:43.000Z</time>
      </trkpt>
      <trkpt lat="48.08715" lon="3.29922">
        <ele>77.5</ele>
        <time>2024-03-30T15:31:44.000Z</time>
      </trkpt>
      <trkpt lat="48.08735" lon="3.29941">
        <ele>77.5</ele>
        <time>2024-03-30T15:31:49.000Z</time>
      </trkpt>
      <trkpt lat="48.08746" lon="3.29954">
        <ele>77.2</ele>
        <time>2024-03-30T15:31:52.000Z</time>
      </trkpt>
      <trkpt lat="48.08772" lon="3.2999">
        <ele>77.3</ele>
        <time>2024-03-30T15:31:59.000Z</time>
      </trkpt>
      <trkpt lat="48.08793" lon="3.30022">
        <ele>80.1</ele>
        <time>2024-03-30T15:32:05.000Z</time>
      </trkpt>
      <trkpt lat="48.08806" lon="3.3004">
        <ele>77.4</ele>
        <time>2024-03-30T15:32:08.000Z</time>
      </trkpt>
      <trkpt lat="48.08823" lon="3.30064">
        <ele>77.2</ele>
        <time>2024-03-30T15:32:12.000Z</time>
      </trkpt>
      <trkpt lat="48.08827" lon="3.3007">
        <ele>77.1</ele>
        <time>2024-03-30T15:32:13.000Z</time>
      </trkpt>
      <trkpt lat="48.08832" lon="3.30076">
        <ele>76.9</ele>
        <time>2024-03-30T15:32:14.000Z</time>
      </trkpt>
      <trkpt lat="48.08836" lon="3.30081">
        <ele>76.7</ele>
        <time>2024-03-30T15:32:15.000Z</time>
      </trkpt>
      <trkpt lat="48.08847" lon="3.30098">
        <ele>77.1</ele>
        <time>2024-03-30T15:32:18.000Z</time>
      </trkpt>
      <trkpt lat="48.08858" lon="3.30114">
        <ele>76.7</ele>
        <time>2024-03-30T15:32:21.000Z</time>
      </trkpt>
      <trkpt lat="48.08862" lon="3.3012">
        <ele>76.9</ele>
        <time>2024-03-30T15:32:22.000Z</time>
      </trkpt>
      <trkpt lat="48.08865" lon="3.30125">
        <ele>77.1</ele>
        <time>2024-03-30T15:32:23.000Z</time>
      </trkpt>
      <trkpt lat="48.08869" lon="3.30131">
        <ele>77.3</ele>
        <time>2024-03-30T15:32:24.000Z</time>
      </trkpt>
      <trkpt lat="48.08872" lon="3.30136">
        <ele>77.2</ele>
        <time>2024-03-30T15:32:25.000Z</time>
      </trkpt>
      <trkpt lat="48.08876" lon="3.30142">
        <ele>77.2</ele>
        <time>2024-03-30T15:32:26.000Z</time>
      </trkpt>
      <trkpt lat="48.0888" lon="3.30147">
        <ele>77.1</ele>
        <time>2024-03-30T15:32:27.000Z</time>
      </trkpt>
      <trkpt lat="48.08883" lon="3.30153">
        <ele>77.1</ele>
        <time>2024-03-30T15:32:28.000Z</time>
      </trkpt>
      <trkpt lat="48.08889" lon="3.30163">
        <ele>76.7</ele>
        <time>2024-03-30T15:32:30.000Z</time>
      </trkpt>
      <trkpt lat="48.08892" lon="3.30168">
        <ele>76.8</ele>
        <time>2024-03-30T15:32:31.000Z</time>
      </trkpt>
      <trkpt lat="48.08895" lon="3.30173">
        <ele>76.6</ele>
        <time>2024-03-30T15:32:32.000Z</time>
      </trkpt>
      <trkpt lat="48.08897" lon="3.30178">
        <ele>76.5</ele>
        <time>2024-03-30T15:32:33.000Z</time>
      </trkpt>
      <trkpt lat="48.08899" lon="3.30183">
        <ele>76.5</ele>
        <time>2024-03-30T15:32:34.000Z</time>
      </trkpt>
      <trkpt lat="48.08902" lon="3.30188">
        <ele>76.4</ele>
        <time>2024-03-30T15:32:35.000Z</time>
      </trkpt>
      <trkpt lat="48.08904" lon="3.30192">
        <ele>76.4</ele>
        <time>2024-03-30T15:32:36.000Z</time>
      </trkpt>
      <trkpt lat="48.08908" lon="3.30194">
        <ele>76.3</ele>
        <time>2024-03-30T15:32:37.000Z</time>
      </trkpt>
      <trkpt lat="48.08911" lon="3.30195">
        <ele>76.2</ele>
        <time>2024-03-30T15:32:38.000Z</time>
      </trkpt>
      <trkpt lat="48.08916" lon="3.30195">
        <ele>76</ele>
        <time>2024-03-30T15:32:39.000Z</time>
      </trkpt>
      <trkpt lat="48.0892" lon="3.30194">
        <ele>76</ele>
        <time>2024-03-30T15:32:40.000Z</time>
      </trkpt>
      <trkpt lat="48.08924" lon="3.30194">
        <ele>76</ele>
        <time>2024-03-30T15:32:41.000Z</time>
      </trkpt>
      <trkpt lat="48.08929" lon="3.30194">
        <ele>76</ele>
        <time>2024-03-30T15:32:42.000Z</time>
      </trkpt>
      <trkpt lat="48.08947" lon="3.30193">
        <ele>75.9</ele>
        <time>2024-03-30T15:32:46.000Z</time>
      </trkpt>
      <trkpt lat="48.08952" lon="3.30195">
        <ele>75.7</ele>
        <time>2024-03-30T15:32:47.000Z</time>
      </trkpt>
      <trkpt lat="48.08956" lon="3.30197">
        <ele>75.6</ele>
        <time>2024-03-30T15:32:48.000Z</time>
      </trkpt>
      <trkpt lat="48.0896" lon="3.302">
        <ele>75.6</ele>
        <time>2024-03-30T15:32:49.000Z</time>
      </trkpt>
      <trkpt lat="48.08963" lon="3.30203">
        <ele>75.5</ele>
        <time>2024-03-30T15:32:50.000Z</time>
      </trkpt>
      <trkpt lat="48.08967" lon="3.30208">
        <ele>75.6</ele>
        <time>2024-03-30T15:32:51.000Z</time>
      </trkpt>
      <trkpt lat="48.0897" lon="3.30213">
        <ele>75.7</ele>
        <time>2024-03-30T15:32:52.000Z</time>
      </trkpt>
      <trkpt lat="48.08972" lon="3.30218">
        <ele>75.8</ele>
        <time>2024-03-30T15:32:53.000Z</time>
      </trkpt>
      <trkpt lat="48.08984" lon="3.30249">
        <ele>75.6</ele>
        <time>2024-03-30T15:32:58.000Z</time>
      </trkpt>
      <trkpt lat="48.08995" lon="3.30279">
        <ele>75.2</ele>
        <time>2024-03-30T15:33:03.000Z</time>
      </trkpt>
      <trkpt lat="48.09003" lon="3.30296">
        <ele>75.7</ele>
        <time>2024-03-30T15:33:06.000Z</time>
      </trkpt>
      <trkpt lat="48.09012" lon="3.30311">
        <ele>75.9</ele>
        <time>2024-03-30T15:33:09.000Z</time>
      </trkpt>
      <trkpt lat="48.09015" lon="3.30316">
        <ele>75.8</ele>
        <time>2024-03-30T15:33:10.000Z</time>
      </trkpt>
      <trkpt lat="48.09028" lon="3.30335">
        <ele>75.9</ele>
        <time>2024-03-30T15:33:14.000Z</time>
      </trkpt>
      <trkpt lat="48.09041" lon="3.30362">
        <ele>75.5</ele>
        <time>2024-03-30T15:33:19.000Z</time>
      </trkpt>
      <trkpt lat="48.09043" lon="3.30368">
        <ele>75.7</ele>
        <time>2024-03-30T15:33:20.000Z</time>
      </trkpt>
      <trkpt lat="48.09046" lon="3.30373">
        <ele>75.8</ele>
        <time>2024-03-30T15:33:21.000Z</time>
      </trkpt>
      <trkpt lat="48.09049" lon="3.30379">
        <ele>75.9</ele>
        <time>2024-03-30T15:33:22.000Z</time>
      </trkpt>
      <trkpt lat="48.09051" lon="3.30384">
        <ele>76</ele>
        <time>2024-03-30T15:33:23.000Z</time>
      </trkpt>
      <trkpt lat="48.09065" lon="3.30418">
        <ele>76</ele>
        <time>2024-03-30T15:33:29.000Z</time>
      </trkpt>
      <trkpt lat="48.09067" lon="3.30423">
        <ele>76</ele>
        <time>2024-03-30T15:33:30.000Z</time>
      </trkpt>
      <trkpt lat="48.0907" lon="3.30429">
        <ele>76</ele>
        <time>2024-03-30T15:33:31.000Z</time>
      </trkpt>
      <trkpt lat="48.09072" lon="3.30435">
        <ele>76</ele>
        <time>2024-03-30T15:33:32.000Z</time>
      </trkpt>
      <trkpt lat="48.09078" lon="3.30445">
        <ele>76</ele>
        <time>2024-03-30T15:33:34.000Z</time>
      </trkpt>
      <trkpt lat="48.09084" lon="3.30455">
        <ele>76</ele>
        <time>2024-03-30T15:33:36.000Z</time>
      </trkpt>
      <trkpt lat="48.09087" lon="3.3046">
        <ele>76</ele>
        <time>2024-03-30T15:33:37.000Z</time>
      </trkpt>
      <trkpt lat="48.0909" lon="3.30464">
        <ele>76</ele>
        <time>2024-03-30T15:33:38.000Z</time>
      </trkpt>
      <trkpt lat="48.09103" lon="3.30482">
        <ele>76</ele>
        <time>2024-03-30T15:33:42.000Z</time>
      </trkpt>
      <trkpt lat="48.09106" lon="3.30487">
        <ele>76</ele>
        <time>2024-03-30T15:33:43.000Z</time>
      </trkpt>
      <trkpt lat="48.0911" lon="3.30491">
        <ele>76</ele>
        <time>2024-03-30T15:33:44.000Z</time>
      </trkpt>
      <trkpt lat="48.09119" lon="3.30503">
        <ele>76</ele>
        <time>2024-03-30T15:33:47.000Z</time>
      </trkpt>
      <trkpt lat="48.0914" lon="3.30528">
        <ele>76</ele>
        <time>2024-03-30T15:33:53.000Z</time>
      </trkpt>
      <trkpt lat="48.09146" lon="3.30536">
        <ele>76.1</ele>
        <time>2024-03-30T15:33:55.000Z</time>
      </trkpt>
      <trkpt lat="48.0915" lon="3.30541">
        <ele>76.2</ele>
        <time>2024-03-30T15:33:56.000Z</time>
      </trkpt>
      <trkpt lat="48.09153" lon="3.30546">
        <ele>76.3</ele>
        <time>2024-03-30T15:33:57.000Z</time>
      </trkpt>
      <trkpt lat="48.09156" lon="3.3055">
        <ele>76.5</ele>
        <time>2024-03-30T15:33:58.000Z</time>
      </trkpt>
      <trkpt lat="48.0916" lon="3.30555">
        <ele>76.7</ele>
        <time>2024-03-30T15:33:59.000Z</time>
      </trkpt>
      <trkpt lat="48.09163" lon="3.30559">
        <ele>76.9</ele>
        <time>2024-03-30T15:34:00.000Z</time>
      </trkpt>
      <trkpt lat="48.09166" lon="3.30563">
        <ele>77</ele>
        <time>2024-03-30T15:34:01.000Z</time>
      </trkpt>
      <trkpt lat="48.09169" lon="3.30567">
        <ele>77</ele>
        <time>2024-03-30T15:34:02.000Z</time>
      </trkpt>
      <trkpt lat="48.09172" lon="3.30571">
        <ele>76.9</ele>
        <time>2024-03-30T15:34:03.000Z</time>
      </trkpt>
      <trkpt lat="48.09175" lon="3.30575">
        <ele>76.9</ele>
        <time>2024-03-30T15:34:04.000Z</time>
      </trkpt>
      <trkpt lat="48.09178" lon="3.30579">
        <ele>76.9</ele>
        <time>2024-03-30T15:34:05.000Z</time>
      </trkpt>
      <trkpt lat="48.0918" lon="3.30583">
        <ele>77</ele>
        <time>2024-03-30T15:34:06.000Z</time>
      </trkpt>
      <trkpt lat="48.09183" lon="3.30586">
        <ele>77</ele>
        <time>2024-03-30T15:34:07.000Z</time>
      </trkpt>
      <trkpt lat="48.09186" lon="3.30588">
        <ele>77</ele>
        <time>2024-03-30T15:34:08.000Z</time>
      </trkpt>
      <trkpt lat="48.0919" lon="3.30588">
        <ele>77</ele>
        <time>2024-03-30T15:34:09.000Z</time>
      </trkpt>
      <trkpt lat="48.09194" lon="3.30588">
        <ele>77</ele>
        <time>2024-03-30T15:34:10.000Z</time>
      </trkpt>
      <trkpt lat="48.09198" lon="3.3059">
        <ele>77</ele>
        <time>2024-03-30T15:34:11.000Z</time>
      </trkpt>
      <trkpt lat="48.09203" lon="3.30595">
        <ele>77</ele>
        <time>2024-03-30T15:34:13.000Z</time>
      </trkpt>
      <trkpt lat="48.09207" lon="3.30599">
        <ele>77</ele>
        <time>2024-03-30T15:34:14.000Z</time>
      </trkpt>
      <trkpt lat="48.09231" lon="3.30623">
        <ele>77</ele>
        <time>2024-03-30T15:34:21.000Z</time>
      </trkpt>
      <trkpt lat="48.09235" lon="3.30626">
        <ele>77</ele>
        <time>2024-03-30T15:34:22.000Z</time>
      </trkpt>
      <trkpt lat="48.09239" lon="3.30629">
        <ele>77</ele>
        <time>2024-03-30T15:34:23.000Z</time>
      </trkpt>
      <trkpt lat="48.09242" lon="3.30632">
        <ele>77</ele>
        <time>2024-03-30T15:34:24.000Z</time>
      </trkpt>
      <trkpt lat="48.09249" lon="3.30638">
        <ele>77</ele>
        <time>2024-03-30T15:34:26.000Z</time>
      </trkpt>
      <trkpt lat="48.09256" lon="3.30644">
        <ele>77</ele>
        <time>2024-03-30T15:34:28.000Z</time>
      </trkpt>
      <trkpt lat="48.0926" lon="3.30646">
        <ele>77</ele>
        <time>2024-03-30T15:34:29.000Z</time>
      </trkpt>
      <trkpt lat="48.09281" lon="3.30655">
        <ele>77.1</ele>
        <time>2024-03-30T15:34:34.000Z</time>
      </trkpt>
      <trkpt lat="48.09289" lon="3.30657">
        <ele>77.3</ele>
        <time>2024-03-30T15:34:36.000Z</time>
      </trkpt>
      <trkpt lat="48.09292" lon="3.30658">
        <ele>77.4</ele>
        <time>2024-03-30T15:34:37.000Z</time>
      </trkpt>
      <trkpt lat="48.09295" lon="3.30659">
        <ele>77.4</ele>
        <time>2024-03-30T15:34:38.000Z</time>
      </trkpt>
      <trkpt lat="48.09299" lon="3.3066">
        <ele>77.6</ele>
        <time>2024-03-30T15:34:39.000Z</time>
      </trkpt>
      <trkpt lat="48.09301" lon="3.30663">
        <ele>77.7</ele>
        <time>2024-03-30T15:34:40.000Z</time>
      </trkpt>
      <trkpt lat="48.09304" lon="3.30665">
        <ele>77.9</ele>
        <time>2024-03-30T15:34:41.000Z</time>
      </trkpt>
      <trkpt lat="48.09305" lon="3.30668">
        <ele>78</ele>
        <time>2024-03-30T15:34:42.000Z</time>
      </trkpt>
      <trkpt lat="48.09307" lon="3.30672">
        <ele>78</ele>
        <time>2024-03-30T15:34:43.000Z</time>
      </trkpt>
      <trkpt lat="48.09309" lon="3.30676">
        <ele>78</ele>
        <time>2024-03-30T15:34:44.000Z</time>
      </trkpt>
      <trkpt lat="48.09315" lon="3.3069">
        <ele>78</ele>
        <time>2024-03-30T15:34:47.000Z</time>
      </trkpt>
      <trkpt lat="48.09321" lon="3.30719">
        <ele>78.5</ele>
        <time>2024-03-30T15:34:53.000Z</time>
      </trkpt>
      <trkpt lat="48.09322" lon="3.30728">
        <ele>78.5</ele>
        <time>2024-03-30T15:34:55.000Z</time>
      </trkpt>
      <trkpt lat="48.09322" lon="3.30733">
        <ele>78.4</ele>
        <time>2024-03-30T15:34:56.000Z</time>
      </trkpt>
      <trkpt lat="48.09322" lon="3.30738">
        <ele>78.3</ele>
        <time>2024-03-30T15:34:57.000Z</time>
      </trkpt>
      <trkpt lat="48.09322" lon="3.30742">
        <ele>78.2</ele>
        <time>2024-03-30T15:34:58.000Z</time>
      </trkpt>
      <trkpt lat="48.09323" lon="3.30747">
        <ele>78.1</ele>
        <time>2024-03-30T15:34:59.000Z</time>
      </trkpt>
      <trkpt lat="48.09324" lon="3.30749">
        <ele>78</ele>
        <time>2024-03-30T15:35:00.000Z</time>
      </trkpt>
      <trkpt lat="48.09324" lon="3.30752">
        <ele>78</ele>
        <time>2024-03-30T15:35:01.000Z</time>
      </trkpt>
      <trkpt lat="48.09325" lon="3.30754">
        <ele>78</ele>
        <time>2024-03-30T15:35:02.000Z</time>
      </trkpt>
      <trkpt lat="48.09327" lon="3.30755">
        <ele>78</ele>
        <time>2024-03-30T15:35:03.000Z</time>
      </trkpt>
      <trkpt lat="48.0933" lon="3.30756">
        <ele>78</ele>
        <time>2024-03-30T15:35:04.000Z</time>
      </trkpt>
      <trkpt lat="48.09332" lon="3.30757">
        <ele>78</ele>
        <time>2024-03-30T15:35:05.000Z</time>
      </trkpt>
      <trkpt lat="48.09334" lon="3.3076">
        <ele>78</ele>
        <time>2024-03-30T15:35:06.000Z</time>
      </trkpt>
      <trkpt lat="48.09336" lon="3.30791">
        <ele>78</ele>
        <time>2024-03-30T15:35:11.000Z</time>
      </trkpt>
      <trkpt lat="48.09336" lon="3.30796">
        <ele>78.1</ele>
        <time>2024-03-30T15:35:12.000Z</time>
      </trkpt>
      <trkpt lat="48.09336" lon="3.30801">
        <ele>78.1</ele>
        <time>2024-03-30T15:35:13.000Z</time>
      </trkpt>
      <trkpt lat="48.09335" lon="3.30807">
        <ele>78.1</ele>
        <time>2024-03-30T15:35:14.000Z</time>
      </trkpt>
      <trkpt lat="48.09336" lon="3.30825">
        <ele>78.7</ele>
        <time>2024-03-30T15:35:17.000Z</time>
      </trkpt>
      <trkpt lat="48.09334" lon="3.30868">
        <ele>79</ele>
        <time>2024-03-30T15:35:24.000Z</time>
      </trkpt>
      <trkpt lat="48.09333" lon="3.30906">
        <ele>79</ele>
        <time>2024-03-30T15:35:30.000Z</time>
      </trkpt>
      <trkpt lat="48.09335" lon="3.30917">
        <ele>79.1</ele>
        <time>2024-03-30T15:35:32.000Z</time>
      </trkpt>
      <trkpt lat="48.09336" lon="3.30921">
        <ele>79.1</ele>
        <time>2024-03-30T15:35:33.000Z</time>
      </trkpt>
      <trkpt lat="48.09336" lon="3.30923">
        <ele>79.1</ele>
        <time>2024-03-30T15:35:34.000Z</time>
      </trkpt>
      <trkpt lat="48.09336" lon="3.30923">
        <ele>79.1</ele>
        <time>2024-03-30T15:35:35.000Z</time>
      </trkpt>
      <trkpt lat="48.09336" lon="3.30923">
        <ele>79.1</ele>
        <time>2024-03-30T15:35:36.000Z</time>
      </trkpt>
      <trkpt lat="48.09334" lon="3.30925">
        <ele>79</ele>
        <time>2024-03-30T15:35:46.000Z</time>
      </trkpt>
      <trkpt lat="48.09334" lon="3.30925">
        <ele>79</ele>
        <time>2024-03-30T15:35:47.000Z</time>
      </trkpt>
      <trkpt lat="48.09334" lon="3.30925">
        <ele>79</ele>
        <time>2024-03-30T15:35:53.000Z</time>
      </trkpt>
      <trkpt lat="48.09335" lon="3.30925">
        <ele>79.1</ele>
        <time>2024-03-30T15:36:05.000Z</time>
      </trkpt>
      <trkpt lat="48.09336" lon="3.30926">
        <ele>79.1</ele>
        <time>2024-03-30T15:36:07.000Z</time>
      </trkpt>
      <trkpt lat="48.09337" lon="3.30926">
        <ele>79.1</ele>
        <time>2024-03-30T15:36:08.000Z</time>
      </trkpt>
      <trkpt lat="48.09337" lon="3.30927">
        <ele>79.1</ele>
        <time>2024-03-30T15:36:09.000Z</time>
      </trkpt>
      <trkpt lat="48.09343" lon="3.30936">
        <ele>79.3</ele>
        <time>2024-03-30T15:36:13.000Z</time>
      </trkpt>
      <trkpt lat="48.09356" lon="3.30944">
        <ele>79.8</ele>
        <time>2024-03-30T15:36:17.000Z</time>
      </trkpt>
      <trkpt lat="48.09364" lon="3.30947">
        <ele>80</ele>
        <time>2024-03-30T15:36:19.000Z</time>
      </trkpt>
      <trkpt lat="48.09367" lon="3.30949">
        <ele>80</ele>
        <time>2024-03-30T15:36:20.000Z</time>
      </trkpt>
      <trkpt lat="48.09383" lon="3.30955">
        <ele>80.3</ele>
        <time>2024-03-30T15:36:24.000Z</time>
      </trkpt>
      <trkpt lat="48.09404" lon="3.30962">
        <ele>80.6</ele>
        <time>2024-03-30T15:36:30.000Z</time>
      </trkpt>
      <trkpt lat="48.09407" lon="3.30963">
        <ele>80.7</ele>
        <time>2024-03-30T15:36:31.000Z</time>
      </trkpt>
      <trkpt lat="48.09409" lon="3.30965">
        <ele>80.7</ele>
        <time>2024-03-30T15:36:32.000Z</time>
      </trkpt>
      <trkpt lat="48.09412" lon="3.30966">
        <ele>80.8</ele>
        <time>2024-03-30T15:36:33.000Z</time>
      </trkpt>
      <trkpt lat="48.09414" lon="3.30967">
        <ele>80.8</ele>
        <time>2024-03-30T15:36:34.000Z</time>
      </trkpt>
      <trkpt lat="48.09417" lon="3.30968">
        <ele>80.9</ele>
        <time>2024-03-30T15:36:35.000Z</time>
      </trkpt>
      <trkpt lat="48.09418" lon="3.30967">
        <ele>80.9</ele>
        <time>2024-03-30T15:36:36.000Z</time>
      </trkpt>
      <trkpt lat="48.09419" lon="3.30967">
        <ele>80.9</ele>
        <time>2024-03-30T15:36:37.000Z</time>
      </trkpt>
      <trkpt lat="48.09419" lon="3.30967">
        <ele>80.9</ele>
        <time>2024-03-30T15:36:40.000Z</time>
      </trkpt>
      <trkpt lat="48.09419" lon="3.30967">
        <ele>80.9</ele>
        <time>2024-03-30T15:36:51.000Z</time>
      </trkpt>
      <trkpt lat="48.09419" lon="3.30967">
        <ele>80.9</ele>
        <time>2024-03-30T15:37:17.000Z</time>
      </trkpt>
      <trkpt lat="48.09419" lon="3.30967">
        <ele>80.9</ele>
        <time>2024-03-30T15:38:09.000Z</time>
      </trkpt>
      <trkpt lat="48.0942" lon="3.30964">
        <ele>80.8</ele>
        <time>2024-03-30T15:38:21.000Z</time>
      </trkpt>
      <trkpt lat="48.09421" lon="3.3096">
        <ele>80.7</ele>
        <time>2024-03-30T15:38:23.000Z</time>
      </trkpt>
      <trkpt lat="48.09423" lon="3.30941">
        <ele>80.2</ele>
        <time>2024-03-30T15:38:28.000Z</time>
      </trkpt>
      <trkpt lat="48.09427" lon="3.30906">
        <ele>80.4</ele>
        <time>2024-03-30T15:38:34.000Z</time>
      </trkpt>
      <trkpt lat="48.09429" lon="3.30885">
        <ele>80.4</ele>
        <time>2024-03-30T15:38:37.000Z</time>
      </trkpt>
      <trkpt lat="48.09431" lon="3.30859">
        <ele>80</ele>
        <time>2024-03-30T15:38:41.000Z</time>
      </trkpt>
      <trkpt lat="48.09432" lon="3.30835">
        <ele>79.6</ele>
        <time>2024-03-30T15:38:45.000Z</time>
      </trkpt>
      <trkpt lat="48.09432" lon="3.30824">
        <ele>79.6</ele>
        <time>2024-03-30T15:38:47.000Z</time>
      </trkpt>
      <trkpt lat="48.09433" lon="3.30819">
        <ele>79.6</ele>
        <time>2024-03-30T15:38:48.000Z</time>
      </trkpt>
      <trkpt lat="48.09433" lon="3.30814">
        <ele>79.6</ele>
        <time>2024-03-30T15:38:49.000Z</time>
      </trkpt>
      <trkpt lat="48.09434" lon="3.30808">
        <ele>79.6</ele>
        <time>2024-03-30T15:38:50.000Z</time>
      </trkpt>
      <trkpt lat="48.09434" lon="3.30802">
        <ele>79.6</ele>
        <time>2024-03-30T15:38:51.000Z</time>
      </trkpt>
      <trkpt lat="48.09435" lon="3.30795">
        <ele>79.7</ele>
        <time>2024-03-30T15:38:52.000Z</time>
      </trkpt>
      <trkpt lat="48.09436" lon="3.30771">
        <ele>79.7</ele>
        <time>2024-03-30T15:38:56.000Z</time>
      </trkpt>
      <trkpt lat="48.09437" lon="3.30742">
        <ele>79.7</ele>
        <time>2024-03-30T15:39:01.000Z</time>
      </trkpt>
      <trkpt lat="48.09438" lon="3.3073">
        <ele>79.8</ele>
        <time>2024-03-30T15:39:03.000Z</time>
      </trkpt>
      <trkpt lat="48.09438" lon="3.30725">
        <ele>79.8</ele>
        <time>2024-03-30T15:39:04.000Z</time>
      </trkpt>
      <trkpt lat="48.09438" lon="3.30719">
        <ele>79.8</ele>
        <time>2024-03-30T15:39:05.000Z</time>
      </trkpt>
      <trkpt lat="48.09438" lon="3.30714">
        <ele>79.8</ele>
        <time>2024-03-30T15:39:06.000Z</time>
      </trkpt>
      <trkpt lat="48.09439" lon="3.30708">
        <ele>79.8</ele>
        <time>2024-03-30T15:39:07.000Z</time>
      </trkpt>
      <trkpt lat="48.09439" lon="3.30704">
        <ele>79.8</ele>
        <time>2024-03-30T15:39:08.000Z</time>
      </trkpt>
      <trkpt lat="48.09439" lon="3.30697">
        <ele>79.8</ele>
        <time>2024-03-30T15:39:09.000Z</time>
      </trkpt>
      <trkpt lat="48.09441" lon="3.30649">
        <ele>79.9</ele>
        <time>2024-03-30T15:39:16.000Z</time>
      </trkpt>
      <trkpt lat="48.09441" lon="3.30642">
        <ele>79.9</ele>
        <time>2024-03-30T15:39:17.000Z</time>
      </trkpt>
      <trkpt lat="48.09442" lon="3.30636">
        <ele>79.9</ele>
        <time>2024-03-30T15:39:18.000Z</time>
      </trkpt>
      <trkpt lat="48.09443" lon="3.30617">
        <ele>79.9</ele>
        <time>2024-03-30T15:39:21.000Z</time>
      </trkpt>
      <trkpt lat="48.09443" lon="3.30606">
        <ele>79.9</ele>
        <time>2024-03-30T15:39:23.000Z</time>
      </trkpt>
      <trkpt lat="48.09444" lon="3.306">
        <ele>80</ele>
        <time>2024-03-30T15:39:24.000Z</time>
      </trkpt>
      <trkpt lat="48.09445" lon="3.30595">
        <ele>80</ele>
        <time>2024-03-30T15:39:25.000Z</time>
      </trkpt>
      <trkpt lat="48.09445" lon="3.3059">
        <ele>80</ele>
        <time>2024-03-30T15:39:26.000Z</time>
      </trkpt>
      <trkpt lat="48.09445" lon="3.30586">
        <ele>80</ele>
        <time>2024-03-30T15:39:27.000Z</time>
      </trkpt>
      <trkpt lat="48.09446" lon="3.30582">
        <ele>80.1</ele>
        <time>2024-03-30T15:39:28.000Z</time>
      </trkpt>
      <trkpt lat="48.09446" lon="3.30578">
        <ele>80.1</ele>
        <time>2024-03-30T15:39:29.000Z</time>
      </trkpt>
      <trkpt lat="48.09447" lon="3.30576">
        <ele>80.1</ele>
        <time>2024-03-30T15:39:30.000Z</time>
      </trkpt>
      <trkpt lat="48.09448" lon="3.30574">
        <ele>80.1</ele>
        <time>2024-03-30T15:39:31.000Z</time>
      </trkpt>
      <trkpt lat="48.09448" lon="3.30573">
        <ele>80.1</ele>
        <time>2024-03-30T15:39:32.000Z</time>
      </trkpt>
      <trkpt lat="48.09448" lon="3.30572">
        <ele>80.1</ele>
        <time>2024-03-30T15:39:33.000Z</time>
      </trkpt>
      <trkpt lat="48.09448" lon="3.30572">
        <ele>80.1</ele>
        <time>2024-03-30T15:39:36.000Z</time>
      </trkpt>
      <trkpt lat="48.09451" lon="3.30572">
        <ele>80.2</ele>
        <time>2024-03-30T15:39:46.000Z</time>
      </trkpt>
      <trkpt lat="48.09454" lon="3.30572">
        <ele>80.3</ele>
        <time>2024-03-30T15:39:48.000Z</time>
      </trkpt>
      <trkpt lat="48.09467" lon="3.30572">
        <ele>80.8</ele>
        <time>2024-03-30T15:39:54.000Z</time>
      </trkpt>
      <trkpt lat="48.09469" lon="3.30571">
        <ele>80.9</ele>
        <time>2024-03-30T15:39:55.000Z</time>
      </trkpt>
      <trkpt lat="48.09482" lon="3.3057">
        <ele>81.7</ele>
        <time>2024-03-30T15:40:01.000Z</time>
      </trkpt>
      <trkpt lat="48.09484" lon="3.3057">
        <ele>81.8</ele>
        <time>2024-03-30T15:40:02.000Z</time>
      </trkpt>
      <trkpt lat="48.09486" lon="3.3057">
        <ele>82</ele>
        <time>2024-03-30T15:40:03.000Z</time>
      </trkpt>
      <trkpt lat="48.09488" lon="3.30569">
        <ele>82.1</ele>
        <time>2024-03-30T15:40:04.000Z</time>
      </trkpt>
      <trkpt lat="48.09489" lon="3.30569">
        <ele>82.2</ele>
        <time>2024-03-30T15:40:05.000Z</time>
      </trkpt>
      <trkpt lat="48.09491" lon="3.30569">
        <ele>82.4</ele>
        <time>2024-03-30T15:40:06.000Z</time>
      </trkpt>
      <trkpt lat="48.09493" lon="3.30569">
        <ele>82.5</ele>
        <time>2024-03-30T15:40:07.000Z</time>
      </trkpt>
      <trkpt lat="48.09495" lon="3.30569">
        <ele>82.6</ele>
        <time>2024-03-30T15:40:08.000Z</time>
      </trkpt>
      <trkpt lat="48.09497" lon="3.30568">
        <ele>82.8</ele>
        <time>2024-03-30T15:40:09.000Z</time>
      </trkpt>
      <trkpt lat="48.09499" lon="3.30569">
        <ele>82.9</ele>
        <time>2024-03-30T15:40:10.000Z</time>
      </trkpt>
      <trkpt lat="48.09505" lon="3.30568">
        <ele>83.4</ele>
        <time>2024-03-30T15:40:13.000Z</time>
      </trkpt>
      <trkpt lat="48.09507" lon="3.30568">
        <ele>83.5</ele>
        <time>2024-03-30T15:40:14.000Z</time>
      </trkpt>
      <trkpt lat="48.09509" lon="3.30568">
        <ele>83.6</ele>
        <time>2024-03-30T15:40:15.000Z</time>
      </trkpt>
      <trkpt lat="48.09511" lon="3.30568">
        <ele>83.8</ele>
        <time>2024-03-30T15:40:16.000Z</time>
      </trkpt>
      <trkpt lat="48.09512" lon="3.30568">
        <ele>83.9</ele>
        <time>2024-03-30T15:40:17.000Z</time>
      </trkpt>
      <trkpt lat="48.0952" lon="3.30569">
        <ele>84.4</ele>
        <time>2024-03-30T15:40:20.000Z</time>
      </trkpt>
      <trkpt lat="48.09527" lon="3.30569">
        <ele>84.9</ele>
        <time>2024-03-30T15:40:24.000Z</time>
      </trkpt>
      <trkpt lat="48.09531" lon="3.30569">
        <ele>85.2</ele>
        <time>2024-03-30T15:40:26.000Z</time>
      </trkpt>
      <trkpt lat="48.09534" lon="3.30569">
        <ele>85.4</ele>
        <time>2024-03-30T15:40:28.000Z</time>
      </trkpt>
      <trkpt lat="48.09536" lon="3.30569">
        <ele>85.6</ele>
        <time>2024-03-30T15:40:29.000Z</time>
      </trkpt>
      <trkpt lat="48.09538" lon="3.30569">
        <ele>85.7</ele>
        <time>2024-03-30T15:40:30.000Z</time>
      </trkpt>
      <trkpt lat="48.0954" lon="3.30569">
        <ele>85.9</ele>
        <time>2024-03-30T15:40:31.000Z</time>
      </trkpt>
      <trkpt lat="48.09541" lon="3.30568">
        <ele>86</ele>
        <time>2024-03-30T15:40:32.000Z</time>
      </trkpt>
      <trkpt lat="48.09543" lon="3.30569">
        <ele>86.1</ele>
        <time>2024-03-30T15:40:33.000Z</time>
      </trkpt>
      <trkpt lat="48.09544" lon="3.30569">
        <ele>86.2</ele>
        <time>2024-03-30T15:40:34.000Z</time>
      </trkpt>
      <trkpt lat="48.09546" lon="3.30569">
        <ele>86.3</ele>
        <time>2024-03-30T15:40:35.000Z</time>
      </trkpt>
      <trkpt lat="48.09548" lon="3.30569">
        <ele>86.5</ele>
        <time>2024-03-30T15:40:36.000Z</time>
      </trkpt>
      <trkpt lat="48.09549" lon="3.30569">
        <ele>86.5</ele>
        <time>2024-03-30T15:40:37.000Z</time>
      </trkpt>
      <trkpt lat="48.09551" lon="3.30569">
        <ele>86.7</ele>
        <time>2024-03-30T15:40:38.000Z</time>
      </trkpt>
      <trkpt lat="48.09553" lon="3.30568">
        <ele>86.8</ele>
        <time>2024-03-30T15:40:39.000Z</time>
      </trkpt>
      <trkpt lat="48.09555" lon="3.30569">
        <ele>87</ele>
        <time>2024-03-30T15:40:40.000Z</time>
      </trkpt>
      <trkpt lat="48.09557" lon="3.30569">
        <ele>87.1</ele>
        <time>2024-03-30T15:40:41.000Z</time>
      </trkpt>
      <trkpt lat="48.09558" lon="3.30568">
        <ele>87.2</ele>
        <time>2024-03-30T15:40:42.000Z</time>
      </trkpt>
      <trkpt lat="48.0956" lon="3.30568">
        <ele>87.4</ele>
        <time>2024-03-30T15:40:43.000Z</time>
      </trkpt>
      <trkpt lat="48.09562" lon="3.30568">
        <ele>87.6</ele>
        <time>2024-03-30T15:40:44.000Z</time>
      </trkpt>
      <trkpt lat="48.09563" lon="3.30568">
        <ele>87.7</ele>
        <time>2024-03-30T15:40:45.000Z</time>
      </trkpt>
      <trkpt lat="48.09565" lon="3.30568">
        <ele>87.8</ele>
        <time>2024-03-30T15:40:46.000Z</time>
      </trkpt>
      <trkpt lat="48.09566" lon="3.30568">
        <ele>87.9</ele>
        <time>2024-03-30T15:40:47.000Z</time>
      </trkpt>
      <trkpt lat="48.09568" lon="3.30568">
        <ele>88.1</ele>
        <time>2024-03-30T15:40:48.000Z</time>
      </trkpt>
      <trkpt lat="48.0957" lon="3.30568">
        <ele>88.3</ele>
        <time>2024-03-30T15:40:49.000Z</time>
      </trkpt>
      <trkpt lat="48.09571" lon="3.30568">
        <ele>88.4</ele>
        <time>2024-03-30T15:40:50.000Z</time>
      </trkpt>
      <trkpt lat="48.09573" lon="3.30568">
        <ele>88.5</ele>
        <time>2024-03-30T15:40:51.000Z</time>
      </trkpt>
      <trkpt lat="48.09574" lon="3.30568">
        <ele>88.6</ele>
        <time>2024-03-30T15:40:52.000Z</time>
      </trkpt>
      <trkpt lat="48.09575" lon="3.30568">
        <ele>88.7</ele>
        <time>2024-03-30T15:40:53.000Z</time>
      </trkpt>
      <trkpt lat="48.09577" lon="3.30568">
        <ele>88.9</ele>
        <time>2024-03-30T15:40:54.000Z</time>
      </trkpt>
      <trkpt lat="48.09578" lon="3.30568">
        <ele>89</ele>
        <time>2024-03-30T15:40:55.000Z</time>
      </trkpt>
      <trkpt lat="48.0958" lon="3.30568">
        <ele>89.2</ele>
        <time>2024-03-30T15:40:56.000Z</time>
      </trkpt>
      <trkpt lat="48.09582" lon="3.30568">
        <ele>89.3</ele>
        <time>2024-03-30T15:40:57.000Z</time>
      </trkpt>
      <trkpt lat="48.09583" lon="3.30568">
        <ele>89.4</ele>
        <time>2024-03-30T15:40:58.000Z</time>
      </trkpt>
      <trkpt lat="48.09585" lon="3.30568">
        <ele>89.6</ele>
        <time>2024-03-30T15:40:59.000Z</time>
      </trkpt>
      <trkpt lat="48.09586" lon="3.30568">
        <ele>89.7</ele>
        <time>2024-03-30T15:41:00.000Z</time>
      </trkpt>
      <trkpt lat="48.09588" lon="3.30569">
        <ele>90</ele>
        <time>2024-03-30T15:41:01.000Z</time>
      </trkpt>
      <trkpt lat="48.0959" lon="3.30569">
        <ele>90.2</ele>
        <time>2024-03-30T15:41:02.000Z</time>
      </trkpt>
      <trkpt lat="48.09591" lon="3.30569">
        <ele>90.3</ele>
        <time>2024-03-30T15:41:03.000Z</time>
      </trkpt>
      <trkpt lat="48.09593" lon="3.30569">
        <ele>90.5</ele>
        <time>2024-03-30T15:41:04.000Z</time>
      </trkpt>
      <trkpt lat="48.09594" lon="3.30569">
        <ele>90.6</ele>
        <time>2024-03-30T15:41:05.000Z</time>
      </trkpt>
      <trkpt lat="48.09595" lon="3.30569">
        <ele>90.7</ele>
        <time>2024-03-30T15:41:06.000Z</time>
      </trkpt>
      <trkpt lat="48.09597" lon="3.30569">
        <ele>91</ele>
        <time>2024-03-30T15:41:07.000Z</time>
      </trkpt>
      <trkpt lat="48.09598" lon="3.30569">
        <ele>91.1</ele>
        <time>2024-03-30T15:41:08.000Z</time>
      </trkpt>
      <trkpt lat="48.096" lon="3.30569">
        <ele>91.3</ele>
        <time>2024-03-30T15:41:09.000Z</time>
      </trkpt>
      <trkpt lat="48.09601" lon="3.30569">
        <ele>91.4</ele>
        <time>2024-03-30T15:41:10.000Z</time>
      </trkpt>
      <trkpt lat="48.09603" lon="3.30569">
        <ele>91.6</ele>
        <time>2024-03-30T15:41:11.000Z</time>
      </trkpt>
      <trkpt lat="48.09604" lon="3.30569">
        <ele>91.7</ele>
        <time>2024-03-30T15:41:12.000Z</time>
      </trkpt>
      <trkpt lat="48.09605" lon="3.30569">
        <ele>91.8</ele>
        <time>2024-03-30T15:41:13.000Z</time>
      </trkpt>
      <trkpt lat="48.09607" lon="3.30569">
        <ele>92</ele>
        <time>2024-03-30T15:41:14.000Z</time>
      </trkpt>
      <trkpt lat="48.09608" lon="3.30569">
        <ele>92.1</ele>
        <time>2024-03-30T15:41:15.000Z</time>
      </trkpt>
      <trkpt lat="48.0961" lon="3.30569">
        <ele>92.4</ele>
        <time>2024-03-30T15:41:16.000Z</time>
      </trkpt>
      <trkpt lat="48.09611" lon="3.30569">
        <ele>92.5</ele>
        <time>2024-03-30T15:41:17.000Z</time>
      </trkpt>
      <trkpt lat="48.09613" lon="3.30569">
        <ele>92.7</ele>
        <time>2024-03-30T15:41:18.000Z</time>
      </trkpt>
      <trkpt lat="48.09614" lon="3.30569">
        <ele>92.8</ele>
        <time>2024-03-30T15:41:19.000Z</time>
      </trkpt>
      <trkpt lat="48.09615" lon="3.30569">
        <ele>93</ele>
        <time>2024-03-30T15:41:20.000Z</time>
      </trkpt>
      <trkpt lat="48.09617" lon="3.30569">
        <ele>93.2</ele>
        <time>2024-03-30T15:41:21.000Z</time>
      </trkpt>
      <trkpt lat="48.09618" lon="3.30569">
        <ele>93.3</ele>
        <time>2024-03-30T15:41:22.000Z</time>
      </trkpt>
      <trkpt lat="48.0962" lon="3.30569">
        <ele>93.6</ele>
        <time>2024-03-30T15:41:23.000Z</time>
      </trkpt>
      <trkpt lat="48.09621" lon="3.30569">
        <ele>93.7</ele>
        <time>2024-03-30T15:41:24.000Z</time>
      </trkpt>
      <trkpt lat="48.09622" lon="3.30569">
        <ele>93.8</ele>
        <time>2024-03-30T15:41:25.000Z</time>
      </trkpt>
      <trkpt lat="48.09624" lon="3.30569">
        <ele>94.1</ele>
        <time>2024-03-30T15:41:26.000Z</time>
      </trkpt>
      <trkpt lat="48.09626" lon="3.30569">
        <ele>94.4</ele>
        <time>2024-03-30T15:41:27.000Z</time>
      </trkpt>
      <trkpt lat="48.09627" lon="3.30568">
        <ele>94.4</ele>
        <time>2024-03-30T15:41:28.000Z</time>
      </trkpt>
      <trkpt lat="48.09628" lon="3.30568">
        <ele>94.5</ele>
        <time>2024-03-30T15:41:29.000Z</time>
      </trkpt>
      <trkpt lat="48.0963" lon="3.30568">
        <ele>94.8</ele>
        <time>2024-03-30T15:41:30.000Z</time>
      </trkpt>
      <trkpt lat="48.09631" lon="3.30568">
        <ele>94.9</ele>
        <time>2024-03-30T15:41:31.000Z</time>
      </trkpt>
      <trkpt lat="48.09632" lon="3.30568">
        <ele>95</ele>
        <time>2024-03-30T15:41:32.000Z</time>
      </trkpt>
      <trkpt lat="48.09634" lon="3.30568">
        <ele>95.3</ele>
        <time>2024-03-30T15:41:33.000Z</time>
      </trkpt>
      <trkpt lat="48.09635" lon="3.30568">
        <ele>95.4</ele>
        <time>2024-03-30T15:41:34.000Z</time>
      </trkpt>
      <trkpt lat="48.09636" lon="3.30568">
        <ele>95.5</ele>
        <time>2024-03-30T15:41:35.000Z</time>
      </trkpt>
      <trkpt lat="48.09637" lon="3.30568">
        <ele>95.7</ele>
        <time>2024-03-30T15:41:36.000Z</time>
      </trkpt>
      <trkpt lat="48.09638" lon="3.30568">
        <ele>95.8</ele>
        <time>2024-03-30T15:41:37.000Z</time>
      </trkpt>
      <trkpt lat="48.09639" lon="3.30568">
        <ele>95.9</ele>
        <time>2024-03-30T15:41:38.000Z</time>
      </trkpt>
      <trkpt lat="48.0964" lon="3.30567">
        <ele>95.9</ele>
        <time>2024-03-30T15:41:39.000Z</time>
      </trkpt>
      <trkpt lat="48.09642" lon="3.30567">
        <ele>96.2</ele>
        <time>2024-03-30T15:41:40.000Z</time>
      </trkpt>
      <trkpt lat="48.09643" lon="3.30567">
        <ele>96.3</ele>
        <time>2024-03-30T15:41:41.000Z</time>
      </trkpt>
      <trkpt lat="48.09644" lon="3.30567">
        <ele>96.4</ele>
        <time>2024-03-30T15:41:42.000Z</time>
      </trkpt>
      <trkpt lat="48.09646" lon="3.30566">
        <ele>96.5</ele>
        <time>2024-03-30T15:41:43.000Z</time>
      </trkpt>
      <trkpt lat="48.09647" lon="3.30567">
        <ele>96.7</ele>
        <time>2024-03-30T15:41:44.000Z</time>
      </trkpt>
      <trkpt lat="48.09648" lon="3.30567">
        <ele>96.8</ele>
        <time>2024-03-30T15:41:45.000Z</time>
      </trkpt>
      <trkpt lat="48.0965" lon="3.30567">
        <ele>97</ele>
        <time>2024-03-30T15:41:46.000Z</time>
      </trkpt>
      <trkpt lat="48.09651" lon="3.30567">
        <ele>97.1</ele>
        <time>2024-03-30T15:41:47.000Z</time>
      </trkpt>
      <trkpt lat="48.09652" lon="3.30566">
        <ele>97.2</ele>
        <time>2024-03-30T15:41:48.000Z</time>
      </trkpt>
      <trkpt lat="48.09654" lon="3.30566">
        <ele>97.4</ele>
        <time>2024-03-30T15:41:49.000Z</time>
      </trkpt>
      <trkpt lat="48.09655" lon="3.30566">
        <ele>97.5</ele>
        <time>2024-03-30T15:41:50.000Z</time>
      </trkpt>
      <trkpt lat="48.09657" lon="3.30566">
        <ele>97.7</ele>
        <time>2024-03-30T15:41:51.000Z</time>
      </trkpt>
      <trkpt lat="48.09658" lon="3.30566">
        <ele>97.8</ele>
        <time>2024-03-30T15:41:52.000Z</time>
      </trkpt>
      <trkpt lat="48.0966" lon="3.30566">
        <ele>98</ele>
        <time>2024-03-30T15:41:53.000Z</time>
      </trkpt>
      <trkpt lat="48.09661" lon="3.30566">
        <ele>98.1</ele>
        <time>2024-03-30T15:41:54.000Z</time>
      </trkpt>
      <trkpt lat="48.09663" lon="3.30566">
        <ele>98.4</ele>
        <time>2024-03-30T15:41:55.000Z</time>
      </trkpt>
      <trkpt lat="48.09664" lon="3.30566">
        <ele>98.5</ele>
        <time>2024-03-30T15:41:56.000Z</time>
      </trkpt>
      <trkpt lat="48.09665" lon="3.30566">
        <ele>98.6</ele>
        <time>2024-03-30T15:41:57.000Z</time>
      </trkpt>
      <trkpt lat="48.09667" lon="3.30566">
        <ele>98.8</ele>
        <time>2024-03-30T15:41:58.000Z</time>
      </trkpt>
      <trkpt lat="48.09668" lon="3.30566">
        <ele>98.9</ele>
        <time>2024-03-30T15:41:59.000Z</time>
      </trkpt>
      <trkpt lat="48.09669" lon="3.30566">
        <ele>99.1</ele>
        <time>2024-03-30T15:42:00.000Z</time>
      </trkpt>
      <trkpt lat="48.09671" lon="3.30566">
        <ele>99.3</ele>
        <time>2024-03-30T15:42:01.000Z</time>
      </trkpt>
      <trkpt lat="48.09672" lon="3.30566">
        <ele>99.4</ele>
        <time>2024-03-30T15:42:02.000Z</time>
      </trkpt>
      <trkpt lat="48.09674" lon="3.30566">
        <ele>99.7</ele>
        <time>2024-03-30T15:42:03.000Z</time>
      </trkpt>
      <trkpt lat="48.09675" lon="3.30566">
        <ele>99.8</ele>
        <time>2024-03-30T15:42:04.000Z</time>
      </trkpt>
      <trkpt lat="48.09677" lon="3.30566">
        <ele>100.1</ele>
        <time>2024-03-30T15:42:05.000Z</time>
      </trkpt>
      <trkpt lat="48.09678" lon="3.30565">
        <ele>100.2</ele>
        <time>2024-03-30T15:42:06.000Z</time>
      </trkpt>
      <trkpt lat="48.09679" lon="3.30565">
        <ele>100.3</ele>
        <time>2024-03-30T15:42:07.000Z</time>
      </trkpt>
      <trkpt lat="48.09681" lon="3.30565">
        <ele>100.6</ele>
        <time>2024-03-30T15:42:08.000Z</time>
      </trkpt>
      <trkpt lat="48.09683" lon="3.30566">
        <ele>100.9</ele>
        <time>2024-03-30T15:42:09.000Z</time>
      </trkpt>
      <trkpt lat="48.09684" lon="3.30566">
        <ele>101</ele>
        <time>2024-03-30T15:42:10.000Z</time>
      </trkpt>
      <trkpt lat="48.09685" lon="3.30566">
        <ele>101.1</ele>
        <time>2024-03-30T15:42:11.000Z</time>
      </trkpt>
      <trkpt lat="48.09686" lon="3.30566">
        <ele>101.3</ele>
        <time>2024-03-30T15:42:12.000Z</time>
      </trkpt>
      <trkpt lat="48.09688" lon="3.30566">
        <ele>101.5</ele>
        <time>2024-03-30T15:42:13.000Z</time>
      </trkpt>
      <trkpt lat="48.09689" lon="3.30566">
        <ele>101.7</ele>
        <time>2024-03-30T15:42:14.000Z</time>
      </trkpt>
      <trkpt lat="48.09691" lon="3.30566">
        <ele>101.9</ele>
        <time>2024-03-30T15:42:15.000Z</time>
      </trkpt>
      <trkpt lat="48.09692" lon="3.30566">
        <ele>102.1</ele>
        <time>2024-03-30T15:42:16.000Z</time>
      </trkpt>
      <trkpt lat="48.09693" lon="3.30566">
        <ele>102.2</ele>
        <time>2024-03-30T15:42:17.000Z</time>
      </trkpt>
      <trkpt lat="48.09695" lon="3.30566">
        <ele>102.4</ele>
        <time>2024-03-30T15:42:18.000Z</time>
      </trkpt>
      <trkpt lat="48.09696" lon="3.30566">
        <ele>102.5</ele>
        <time>2024-03-30T15:42:19.000Z</time>
      </trkpt>
      <trkpt lat="48.09698" lon="3.30566">
        <ele>102.8</ele>
        <time>2024-03-30T15:42:20.000Z</time>
      </trkpt>
      <trkpt lat="48.09699" lon="3.30566">
        <ele>102.9</ele>
        <time>2024-03-30T15:42:21.000Z</time>
      </trkpt>
      <trkpt lat="48.097" lon="3.30566">
        <ele>103</ele>
        <time>2024-03-30T15:42:22.000Z</time>
      </trkpt>
      <trkpt lat="48.09702" lon="3.30567">
        <ele>103.2</ele>
        <time>2024-03-30T15:42:23.000Z</time>
      </trkpt>
      <trkpt lat="48.09703" lon="3.30567">
        <ele>103.3</ele>
        <time>2024-03-30T15:42:24.000Z</time>
      </trkpt>
      <trkpt lat="48.09704" lon="3.30567">
        <ele>103.4</ele>
        <time>2024-03-30T15:42:25.000Z</time>
      </trkpt>
      <trkpt lat="48.09706" lon="3.30567">
        <ele>103.7</ele>
        <time>2024-03-30T15:42:26.000Z</time>
      </trkpt>
      <trkpt lat="48.09707" lon="3.30567">
        <ele>103.8</ele>
        <time>2024-03-30T15:42:27.000Z</time>
      </trkpt>
      <trkpt lat="48.09709" lon="3.30567">
        <ele>104</ele>
        <time>2024-03-30T15:42:28.000Z</time>
      </trkpt>
      <trkpt lat="48.0971" lon="3.30567">
        <ele>104.1</ele>
        <time>2024-03-30T15:42:29.000Z</time>
      </trkpt>
      <trkpt lat="48.09711" lon="3.30567">
        <ele>104.2</ele>
        <time>2024-03-30T15:42:30.000Z</time>
      </trkpt>
      <trkpt lat="48.09713" lon="3.30566">
        <ele>104.4</ele>
        <time>2024-03-30T15:42:31.000Z</time>
      </trkpt>
      <trkpt lat="48.09714" lon="3.30567">
        <ele>104.5</ele>
        <time>2024-03-30T15:42:32.000Z</time>
      </trkpt>
      <trkpt lat="48.09715" lon="3.30567">
        <ele>104.6</ele>
        <time>2024-03-30T15:42:33.000Z</time>
      </trkpt>
      <trkpt lat="48.09716" lon="3.30567">
        <ele>104.7</ele>
        <time>2024-03-30T15:42:34.000Z</time>
      </trkpt>
      <trkpt lat="48.09717" lon="3.30567">
        <ele>104.8</ele>
        <time>2024-03-30T15:42:35.000Z</time>
      </trkpt>
      <trkpt lat="48.09717" lon="3.30567">
        <ele>104.8</ele>
        <time>2024-03-30T15:42:38.000Z</time>
      </trkpt>
      <trkpt lat="48.09717" lon="3.30567">
        <ele>104.8</ele>
        <time>2024-03-30T15:42:39.000Z</time>
      </trkpt>
      <trkpt lat="48.09718" lon="3.30567">
        <ele>105</ele>
        <time>2024-03-30T15:42:40.000Z</time>
      </trkpt>
      <trkpt lat="48.09719" lon="3.30567">
        <ele>105.1</ele>
        <time>2024-03-30T15:42:41.000Z</time>
      </trkpt>
      <trkpt lat="48.09721" lon="3.30566">
        <ele>105.2</ele>
        <time>2024-03-30T15:42:42.000Z</time>
      </trkpt>
      <trkpt lat="48.09722" lon="3.30566">
        <ele>105.4</ele>
        <time>2024-03-30T15:42:43.000Z</time>
      </trkpt>
      <trkpt lat="48.09723" lon="3.30566">
        <ele>105.5</ele>
        <time>2024-03-30T15:42:44.000Z</time>
      </trkpt>
      <trkpt lat="48.09725" lon="3.30566">
        <ele>105.7</ele>
        <time>2024-03-30T15:42:45.000Z</time>
      </trkpt>
      <trkpt lat="48.09726" lon="3.30566">
        <ele>105.9</ele>
        <time>2024-03-30T15:42:46.000Z</time>
      </trkpt>
      <trkpt lat="48.09727" lon="3.30567">
        <ele>106</ele>
        <time>2024-03-30T15:42:47.000Z</time>
      </trkpt>
      <trkpt lat="48.09729" lon="3.30567">
        <ele>106.3</ele>
        <time>2024-03-30T15:42:48.000Z</time>
      </trkpt>
      <trkpt lat="48.09729" lon="3.30567">
        <ele>106.3</ele>
        <time>2024-03-30T15:42:49.000Z</time>
      </trkpt>
      <trkpt lat="48.0973" lon="3.30568">
        <ele>106.4</ele>
        <time>2024-03-30T15:42:50.000Z</time>
      </trkpt>
      <trkpt lat="48.09731" lon="3.30568">
        <ele>106.6</ele>
        <time>2024-03-30T15:42:51.000Z</time>
      </trkpt>
      <trkpt lat="48.09733" lon="3.30568">
        <ele>106.8</ele>
        <time>2024-03-30T15:42:52.000Z</time>
      </trkpt>
      <trkpt lat="48.09734" lon="3.30568">
        <ele>107</ele>
        <time>2024-03-30T15:42:53.000Z</time>
      </trkpt>
      <trkpt lat="48.09735" lon="3.30568">
        <ele>107.1</ele>
        <time>2024-03-30T15:42:54.000Z</time>
      </trkpt>
      <trkpt lat="48.09736" lon="3.30568">
        <ele>107.2</ele>
        <time>2024-03-30T15:42:55.000Z</time>
      </trkpt>
      <trkpt lat="48.09738" lon="3.30568">
        <ele>107.5</ele>
        <time>2024-03-30T15:42:56.000Z</time>
      </trkpt>
      <trkpt lat="48.09739" lon="3.30568">
        <ele>107.6</ele>
        <time>2024-03-30T15:42:57.000Z</time>
      </trkpt>
      <trkpt lat="48.0974" lon="3.30568">
        <ele>107.7</ele>
        <time>2024-03-30T15:42:58.000Z</time>
      </trkpt>
      <trkpt lat="48.09741" lon="3.30568">
        <ele>107.8</ele>
        <time>2024-03-30T15:42:59.000Z</time>
      </trkpt>
      <trkpt lat="48.09742" lon="3.30569">
        <ele>108</ele>
        <time>2024-03-30T15:43:00.000Z</time>
      </trkpt>
      <trkpt lat="48.09744" lon="3.30569">
        <ele>108.2</ele>
        <time>2024-03-30T15:43:01.000Z</time>
      </trkpt>
      <trkpt lat="48.09745" lon="3.30569">
        <ele>108.4</ele>
        <time>2024-03-30T15:43:02.000Z</time>
      </trkpt>
      <trkpt lat="48.09746" lon="3.3057">
        <ele>108.5</ele>
        <time>2024-03-30T15:43:03.000Z</time>
      </trkpt>
      <trkpt lat="48.09747" lon="3.3057">
        <ele>108.6</ele>
        <time>2024-03-30T15:43:04.000Z</time>
      </trkpt>
      <trkpt lat="48.09748" lon="3.30571">
        <ele>108.8</ele>
        <time>2024-03-30T15:43:05.000Z</time>
      </trkpt>
      <trkpt lat="48.09749" lon="3.30571">
        <ele>108.9</ele>
        <time>2024-03-30T15:43:06.000Z</time>
      </trkpt>
      <trkpt lat="48.0975" lon="3.30572">
        <ele>109</ele>
        <time>2024-03-30T15:43:07.000Z</time>
      </trkpt>
      <trkpt lat="48.0975" lon="3.30572">
        <ele>109</ele>
        <time>2024-03-30T15:43:08.000Z</time>
      </trkpt>
      <trkpt lat="48.09751" lon="3.30573">
        <ele>109.1</ele>
        <time>2024-03-30T15:43:09.000Z</time>
      </trkpt>
      <trkpt lat="48.09752" lon="3.30574">
        <ele>109.2</ele>
        <time>2024-03-30T15:43:10.000Z</time>
      </trkpt>
      <trkpt lat="48.09753" lon="3.30575">
        <ele>109.3</ele>
        <time>2024-03-30T15:43:11.000Z</time>
      </trkpt>
      <trkpt lat="48.09754" lon="3.30575">
        <ele>109.4</ele>
        <time>2024-03-30T15:43:12.000Z</time>
      </trkpt>
      <trkpt lat="48.09754" lon="3.30576">
        <ele>109.4</ele>
        <time>2024-03-30T15:43:13.000Z</time>
      </trkpt>
      <trkpt lat="48.09755" lon="3.30577">
        <ele>109.5</ele>
        <time>2024-03-30T15:43:14.000Z</time>
      </trkpt>
      <trkpt lat="48.09756" lon="3.30578">
        <ele>109.6</ele>
        <time>2024-03-30T15:43:15.000Z</time>
      </trkpt>
      <trkpt lat="48.09757" lon="3.30578">
        <ele>109.8</ele>
        <time>2024-03-30T15:43:16.000Z</time>
      </trkpt>
      <trkpt lat="48.09758" lon="3.30579">
        <ele>109.9</ele>
        <time>2024-03-30T15:43:17.000Z</time>
      </trkpt>
      <trkpt lat="48.0976" lon="3.30579">
        <ele>110.1</ele>
        <time>2024-03-30T15:43:18.000Z</time>
      </trkpt>
      <trkpt lat="48.09761" lon="3.3058">
        <ele>110.2</ele>
        <time>2024-03-30T15:43:19.000Z</time>
      </trkpt>
      <trkpt lat="48.09762" lon="3.3058">
        <ele>110.3</ele>
        <time>2024-03-30T15:43:20.000Z</time>
      </trkpt>
      <trkpt lat="48.09763" lon="3.30581">
        <ele>110.4</ele>
        <time>2024-03-30T15:43:21.000Z</time>
      </trkpt>
      <trkpt lat="48.09764" lon="3.30582">
        <ele>110.5</ele>
        <time>2024-03-30T15:43:22.000Z</time>
      </trkpt>
      <trkpt lat="48.09765" lon="3.30582">
        <ele>110.6</ele>
        <time>2024-03-30T15:43:23.000Z</time>
      </trkpt>
      <trkpt lat="48.09766" lon="3.30582">
        <ele>110.7</ele>
        <time>2024-03-30T15:43:24.000Z</time>
      </trkpt>
      <trkpt lat="48.09767" lon="3.30582">
        <ele>110.8</ele>
        <time>2024-03-30T15:43:25.000Z</time>
      </trkpt>
      <trkpt lat="48.09767" lon="3.30582">
        <ele>110.8</ele>
        <time>2024-03-30T15:43:26.000Z</time>
      </trkpt>
      <trkpt lat="48.09769" lon="3.30583">
        <ele>111.1</ele>
        <time>2024-03-30T15:43:27.000Z</time>
      </trkpt>
      <trkpt lat="48.0977" lon="3.30583">
        <ele>111.2</ele>
        <time>2024-03-30T15:43:28.000Z</time>
      </trkpt>
      <trkpt lat="48.09772" lon="3.30584">
        <ele>111.4</ele>
        <time>2024-03-30T15:43:29.000Z</time>
      </trkpt>
      <trkpt lat="48.09773" lon="3.30584">
        <ele>111.5</ele>
        <time>2024-03-30T15:43:30.000Z</time>
      </trkpt>
      <trkpt lat="48.09775" lon="3.30584">
        <ele>111.7</ele>
        <time>2024-03-30T15:43:31.000Z</time>
      </trkpt>
      <trkpt lat="48.09776" lon="3.30584">
        <ele>111.8</ele>
        <time>2024-03-30T15:43:32.000Z</time>
      </trkpt>
      <trkpt lat="48.09777" lon="3.30585">
        <ele>111.9</ele>
        <time>2024-03-30T15:43:33.000Z</time>
      </trkpt>
      <trkpt lat="48.09778" lon="3.30586">
        <ele>112</ele>
        <time>2024-03-30T15:43:34.000Z</time>
      </trkpt>
      <trkpt lat="48.09779" lon="3.30587">
        <ele>112.2</ele>
        <time>2024-03-30T15:43:35.000Z</time>
      </trkpt>
      <trkpt lat="48.0978" lon="3.30588">
        <ele>112.3</ele>
        <time>2024-03-30T15:43:36.000Z</time>
      </trkpt>
      <trkpt lat="48.09781" lon="3.30588">
        <ele>112.5</ele>
        <time>2024-03-30T15:43:37.000Z</time>
      </trkpt>
      <trkpt lat="48.09782" lon="3.30588">
        <ele>112.6</ele>
        <time>2024-03-30T15:43:38.000Z</time>
      </trkpt>
      <trkpt lat="48.09783" lon="3.30589">
        <ele>112.8</ele>
        <time>2024-03-30T15:43:39.000Z</time>
      </trkpt>
      <trkpt lat="48.09784" lon="3.30589">
        <ele>112.9</ele>
        <time>2024-03-30T15:43:40.000Z</time>
      </trkpt>
      <trkpt lat="48.09785" lon="3.3059">
        <ele>113.1</ele>
        <time>2024-03-30T15:43:41.000Z</time>
      </trkpt>
      <trkpt lat="48.09786" lon="3.3059">
        <ele>113.3</ele>
        <time>2024-03-30T15:43:42.000Z</time>
      </trkpt>
      <trkpt lat="48.09787" lon="3.3059">
        <ele>113.4</ele>
        <time>2024-03-30T15:43:43.000Z</time>
      </trkpt>
      <trkpt lat="48.09789" lon="3.30592">
        <ele>113.7</ele>
        <time>2024-03-30T15:43:44.000Z</time>
      </trkpt>
      <trkpt lat="48.0979" lon="3.30592">
        <ele>113.9</ele>
        <time>2024-03-30T15:43:45.000Z</time>
      </trkpt>
      <trkpt lat="48.09791" lon="3.30592">
        <ele>114.1</ele>
        <time>2024-03-30T15:43:46.000Z</time>
      </trkpt>
      <trkpt lat="48.09791" lon="3.30593">
        <ele>114.1</ele>
        <time>2024-03-30T15:43:47.000Z</time>
      </trkpt>
      <trkpt lat="48.09793" lon="3.30593">
        <ele>114.4</ele>
        <time>2024-03-30T15:43:48.000Z</time>
      </trkpt>
      <trkpt lat="48.09794" lon="3.30594">
        <ele>114.6</ele>
        <time>2024-03-30T15:43:49.000Z</time>
      </trkpt>
      <trkpt lat="48.09795" lon="3.30595">
        <ele>114.7</ele>
        <time>2024-03-30T15:43:50.000Z</time>
      </trkpt>
      <trkpt lat="48.09796" lon="3.30595">
        <ele>114.9</ele>
        <time>2024-03-30T15:43:51.000Z</time>
      </trkpt>
      <trkpt lat="48.09797" lon="3.30595">
        <ele>115.1</ele>
        <time>2024-03-30T15:43:52.000Z</time>
      </trkpt>
      <trkpt lat="48.09798" lon="3.30595">
        <ele>115.2</ele>
        <time>2024-03-30T15:43:53.000Z</time>
      </trkpt>
      <trkpt lat="48.09799" lon="3.30595">
        <ele>115.4</ele>
        <time>2024-03-30T15:43:54.000Z</time>
      </trkpt>
      <trkpt lat="48.09801" lon="3.30596">
        <ele>115.7</ele>
        <time>2024-03-30T15:43:55.000Z</time>
      </trkpt>
      <trkpt lat="48.09801" lon="3.30596">
        <ele>115.7</ele>
        <time>2024-03-30T15:43:56.000Z</time>
      </trkpt>
      <trkpt lat="48.09801" lon="3.30596">
        <ele>115.7</ele>
        <time>2024-03-30T15:43:57.000Z</time>
      </trkpt>
      <trkpt lat="48.09803" lon="3.30596">
        <ele>116</ele>
        <time>2024-03-30T15:43:58.000Z</time>
      </trkpt>
      <trkpt lat="48.09804" lon="3.30595">
        <ele>116.2</ele>
        <time>2024-03-30T15:43:59.000Z</time>
      </trkpt>
      <trkpt lat="48.09805" lon="3.30595">
        <ele>116.3</ele>
        <time>2024-03-30T15:44:00.000Z</time>
      </trkpt>
      <trkpt lat="48.09806" lon="3.30595">
        <ele>116.5</ele>
        <time>2024-03-30T15:44:01.000Z</time>
      </trkpt>
      <trkpt lat="48.09807" lon="3.30595">
        <ele>116.7</ele>
        <time>2024-03-30T15:44:02.000Z</time>
      </trkpt>
      <trkpt lat="48.09808" lon="3.30595">
        <ele>116.9</ele>
        <time>2024-03-30T15:44:03.000Z</time>
      </trkpt>
      <trkpt lat="48.09809" lon="3.30594">
        <ele>117</ele>
        <time>2024-03-30T15:44:04.000Z</time>
      </trkpt>
      <trkpt lat="48.0981" lon="3.30594">
        <ele>117.2</ele>
        <time>2024-03-30T15:44:05.000Z</time>
      </trkpt>
      <trkpt lat="48.09811" lon="3.30594">
        <ele>117.4</ele>
        <time>2024-03-30T15:44:06.000Z</time>
      </trkpt>
      <trkpt lat="48.09812" lon="3.30594">
        <ele>117.5</ele>
        <time>2024-03-30T15:44:07.000Z</time>
      </trkpt>
      <trkpt lat="48.09813" lon="3.30594">
        <ele>117.7</ele>
        <time>2024-03-30T15:44:08.000Z</time>
      </trkpt>
      <trkpt lat="48.09814" lon="3.30594">
        <ele>117.9</ele>
        <time>2024-03-30T15:44:09.000Z</time>
      </trkpt>
      <trkpt lat="48.09815" lon="3.30593">
        <ele>118</ele>
        <time>2024-03-30T15:44:10.000Z</time>
      </trkpt>
      <trkpt lat="48.09816" lon="3.30594">
        <ele>118.3</ele>
        <time>2024-03-30T15:44:11.000Z</time>
      </trkpt>
      <trkpt lat="48.09818" lon="3.30594">
        <ele>118.6</ele>
        <time>2024-03-30T15:44:12.000Z</time>
      </trkpt>
      <trkpt lat="48.09819" lon="3.30594">
        <ele>118.8</ele>
        <time>2024-03-30T15:44:13.000Z</time>
      </trkpt>
      <trkpt lat="48.0982" lon="3.30594">
        <ele>119</ele>
        <time>2024-03-30T15:44:14.000Z</time>
      </trkpt>
      <trkpt lat="48.09821" lon="3.30594">
        <ele>119.2</ele>
        <time>2024-03-30T15:44:15.000Z</time>
      </trkpt>
      <trkpt lat="48.09822" lon="3.30594">
        <ele>119.3</ele>
        <time>2024-03-30T15:44:16.000Z</time>
      </trkpt>
      <trkpt lat="48.09823" lon="3.30594">
        <ele>119.5</ele>
        <time>2024-03-30T15:44:17.000Z</time>
      </trkpt>
      <trkpt lat="48.09825" lon="3.30594">
        <ele>119.9</ele>
        <time>2024-03-30T15:44:18.000Z</time>
      </trkpt>
      <trkpt lat="48.09826" lon="3.30594">
        <ele>120.1</ele>
        <time>2024-03-30T15:44:19.000Z</time>
      </trkpt>
      <trkpt lat="48.09827" lon="3.30593">
        <ele>120.2</ele>
        <time>2024-03-30T15:44:20.000Z</time>
      </trkpt>
      <trkpt lat="48.09828" lon="3.30593">
        <ele>120.4</ele>
        <time>2024-03-30T15:44:21.000Z</time>
      </trkpt>
      <trkpt lat="48.09829" lon="3.30593">
        <ele>120.6</ele>
        <time>2024-03-30T15:44:22.000Z</time>
      </trkpt>
      <trkpt lat="48.0983" lon="3.30593">
        <ele>120.7</ele>
        <time>2024-03-30T15:44:23.000Z</time>
      </trkpt>
      <trkpt lat="48.09831" lon="3.30593">
        <ele>120.9</ele>
        <time>2024-03-30T15:44:24.000Z</time>
      </trkpt>
      <trkpt lat="48.09832" lon="3.30593">
        <ele>121.1</ele>
        <time>2024-03-30T15:44:25.000Z</time>
      </trkpt>
      <trkpt lat="48.09833" lon="3.30593">
        <ele>121.3</ele>
        <time>2024-03-30T15:44:26.000Z</time>
      </trkpt>
      <trkpt lat="48.09834" lon="3.30593">
        <ele>121.4</ele>
        <time>2024-03-30T15:44:27.000Z</time>
      </trkpt>
      <trkpt lat="48.09835" lon="3.30593">
        <ele>121.6</ele>
        <time>2024-03-30T15:44:28.000Z</time>
      </trkpt>
      <trkpt lat="48.09836" lon="3.30593">
        <ele>121.7</ele>
        <time>2024-03-30T15:44:29.000Z</time>
      </trkpt>
      <trkpt lat="48.09837" lon="3.30593">
        <ele>121.9</ele>
        <time>2024-03-30T15:44:30.000Z</time>
      </trkpt>
      <trkpt lat="48.09837" lon="3.30593">
        <ele>121.9</ele>
        <time>2024-03-30T15:44:31.000Z</time>
      </trkpt>
      <trkpt lat="48.09838" lon="3.30593">
        <ele>122</ele>
        <time>2024-03-30T15:44:32.000Z</time>
      </trkpt>
      <trkpt lat="48.09839" lon="3.30593">
        <ele>122.2</ele>
        <time>2024-03-30T15:44:33.000Z</time>
      </trkpt>
      <trkpt lat="48.0984" lon="3.30593">
        <ele>122.3</ele>
        <time>2024-03-30T15:44:34.000Z</time>
      </trkpt>
      <trkpt lat="48.0984" lon="3.30593">
        <ele>122.3</ele>
        <time>2024-03-30T15:44:35.000Z</time>
      </trkpt>
      <trkpt lat="48.09841" lon="3.30593">
        <ele>122.5</ele>
        <time>2024-03-30T15:44:36.000Z</time>
      </trkpt>
      <trkpt lat="48.09842" lon="3.30593">
        <ele>122.6</ele>
        <time>2024-03-30T15:44:37.000Z</time>
      </trkpt>
      <trkpt lat="48.09844" lon="3.30593">
        <ele>122.9</ele>
        <time>2024-03-30T15:44:38.000Z</time>
      </trkpt>
      <trkpt lat="48.09844" lon="3.30593">
        <ele>122.9</ele>
        <time>2024-03-30T15:44:39.000Z</time>
      </trkpt>
      <trkpt lat="48.09846" lon="3.30593">
        <ele>123.2</ele>
        <time>2024-03-30T15:44:40.000Z</time>
      </trkpt>
      <trkpt lat="48.09846" lon="3.30593">
        <ele>123.2</ele>
        <time>2024-03-30T15:44:41.000Z</time>
      </trkpt>
      <trkpt lat="48.09847" lon="3.30593">
        <ele>123.3</ele>
        <time>2024-03-30T15:44:42.000Z</time>
      </trkpt>
      <trkpt lat="48.09848" lon="3.30594">
        <ele>123.5</ele>
        <time>2024-03-30T15:44:43.000Z</time>
      </trkpt>
      <trkpt lat="48.09849" lon="3.30594">
        <ele>123.6</ele>
        <time>2024-03-30T15:44:44.000Z</time>
      </trkpt>
      <trkpt lat="48.0985" lon="3.30594">
        <ele>123.8</ele>
        <time>2024-03-30T15:44:45.000Z</time>
      </trkpt>
      <trkpt lat="48.09851" lon="3.30595">
        <ele>124</ele>
        <time>2024-03-30T15:44:46.000Z</time>
      </trkpt>
      <trkpt lat="48.09852" lon="3.30595">
        <ele>124.1</ele>
        <time>2024-03-30T15:44:47.000Z</time>
      </trkpt>
      <trkpt lat="48.09853" lon="3.30595">
        <ele>124.3</ele>
        <time>2024-03-30T15:44:48.000Z</time>
      </trkpt>
      <trkpt lat="48.09854" lon="3.30595">
        <ele>124.4</ele>
        <time>2024-03-30T15:44:49.000Z</time>
      </trkpt>
      <trkpt lat="48.09855" lon="3.30595">
        <ele>124.5</ele>
        <time>2024-03-30T15:44:50.000Z</time>
      </trkpt>
      <trkpt lat="48.09856" lon="3.30596">
        <ele>124.7</ele>
        <time>2024-03-30T15:44:51.000Z</time>
      </trkpt>
      <trkpt lat="48.09857" lon="3.30596">
        <ele>124.9</ele>
        <time>2024-03-30T15:44:52.000Z</time>
      </trkpt>
      <trkpt lat="48.09858" lon="3.30596">
        <ele>125</ele>
        <time>2024-03-30T15:44:53.000Z</time>
      </trkpt>
      <trkpt lat="48.09859" lon="3.30596">
        <ele>125.2</ele>
        <time>2024-03-30T15:44:54.000Z</time>
      </trkpt>
      <trkpt lat="48.0986" lon="3.30596">
        <ele>125.3</ele>
        <time>2024-03-30T15:44:55.000Z</time>
      </trkpt>
      <trkpt lat="48.09861" lon="3.30596">
        <ele>125.4</ele>
        <time>2024-03-30T15:44:56.000Z</time>
      </trkpt>
      <trkpt lat="48.09863" lon="3.30596">
        <ele>125.7</ele>
        <time>2024-03-30T15:44:57.000Z</time>
      </trkpt>
      <trkpt lat="48.09864" lon="3.30596">
        <ele>125.8</ele>
        <time>2024-03-30T15:44:58.000Z</time>
      </trkpt>
      <trkpt lat="48.09865" lon="3.30596">
        <ele>125.9</ele>
        <time>2024-03-30T15:44:59.000Z</time>
      </trkpt>
      <trkpt lat="48.09867" lon="3.30596">
        <ele>126.1</ele>
        <time>2024-03-30T15:45:00.000Z</time>
      </trkpt>
      <trkpt lat="48.09868" lon="3.30596">
        <ele>126.2</ele>
        <time>2024-03-30T15:45:01.000Z</time>
      </trkpt>
      <trkpt lat="48.0987" lon="3.30597">
        <ele>126.5</ele>
        <time>2024-03-30T15:45:02.000Z</time>
      </trkpt>
      <trkpt lat="48.09871" lon="3.30597">
        <ele>126.6</ele>
        <time>2024-03-30T15:45:03.000Z</time>
      </trkpt>
      <trkpt lat="48.09872" lon="3.30597">
        <ele>126.7</ele>
        <time>2024-03-30T15:45:04.000Z</time>
      </trkpt>
      <trkpt lat="48.09873" lon="3.30597">
        <ele>126.8</ele>
        <time>2024-03-30T15:45:05.000Z</time>
      </trkpt>
      <trkpt lat="48.09874" lon="3.30597">
        <ele>126.9</ele>
        <time>2024-03-30T15:45:06.000Z</time>
      </trkpt>
      <trkpt lat="48.09876" lon="3.30597">
        <ele>127.1</ele>
        <time>2024-03-30T15:45:07.000Z</time>
      </trkpt>
      <trkpt lat="48.09877" lon="3.30598">
        <ele>127.2</ele>
        <time>2024-03-30T15:45:08.000Z</time>
      </trkpt>
      <trkpt lat="48.09878" lon="3.30598">
        <ele>127.4</ele>
        <time>2024-03-30T15:45:09.000Z</time>
      </trkpt>
      <trkpt lat="48.09879" lon="3.30598">
        <ele>127.5</ele>
        <time>2024-03-30T15:45:10.000Z</time>
      </trkpt>
      <trkpt lat="48.0988" lon="3.30598">
        <ele>127.6</ele>
        <time>2024-03-30T15:45:11.000Z</time>
      </trkpt>
      <trkpt lat="48.09882" lon="3.30598">
        <ele>127.8</ele>
        <time>2024-03-30T15:45:12.000Z</time>
      </trkpt>
      <trkpt lat="48.09883" lon="3.30598">
        <ele>127.9</ele>
        <time>2024-03-30T15:45:13.000Z</time>
      </trkpt>
      <trkpt lat="48.09885" lon="3.30598">
        <ele>128.1</ele>
        <time>2024-03-30T15:45:14.000Z</time>
      </trkpt>
      <trkpt lat="48.09886" lon="3.30599">
        <ele>128.3</ele>
        <time>2024-03-30T15:45:15.000Z</time>
      </trkpt>
      <trkpt lat="48.09887" lon="3.30599">
        <ele>128.4</ele>
        <time>2024-03-30T15:45:16.000Z</time>
      </trkpt>
      <trkpt lat="48.09888" lon="3.30599">
        <ele>128.5</ele>
        <time>2024-03-30T15:45:17.000Z</time>
      </trkpt>
      <trkpt lat="48.09889" lon="3.30599">
        <ele>128.6</ele>
        <time>2024-03-30T15:45:18.000Z</time>
      </trkpt>
      <trkpt lat="48.0989" lon="3.306">
        <ele>128.7</ele>
        <time>2024-03-30T15:45:19.000Z</time>
      </trkpt>
      <trkpt lat="48.09891" lon="3.306">
        <ele>128.8</ele>
        <time>2024-03-30T15:45:20.000Z</time>
      </trkpt>
      <trkpt lat="48.09892" lon="3.306">
        <ele>128.9</ele>
        <time>2024-03-30T15:45:21.000Z</time>
      </trkpt>
      <trkpt lat="48.09893" lon="3.306">
        <ele>129</ele>
        <time>2024-03-30T15:45:22.000Z</time>
      </trkpt>
      <trkpt lat="48.09894" lon="3.306">
        <ele>129.2</ele>
        <time>2024-03-30T15:45:23.000Z</time>
      </trkpt>
      <trkpt lat="48.09896" lon="3.30601">
        <ele>129.4</ele>
        <time>2024-03-30T15:45:24.000Z</time>
      </trkpt>
      <trkpt lat="48.09897" lon="3.30601">
        <ele>129.5</ele>
        <time>2024-03-30T15:45:25.000Z</time>
      </trkpt>
      <trkpt lat="48.09898" lon="3.30601">
        <ele>129.6</ele>
        <time>2024-03-30T15:45:26.000Z</time>
      </trkpt>
      <trkpt lat="48.09899" lon="3.30602">
        <ele>129.8</ele>
        <time>2024-03-30T15:45:27.000Z</time>
      </trkpt>
      <trkpt lat="48.099" lon="3.30602">
        <ele>129.9</ele>
        <time>2024-03-30T15:45:28.000Z</time>
      </trkpt>
      <trkpt lat="48.09902" lon="3.30602">
        <ele>130.1</ele>
        <time>2024-03-30T15:45:29.000Z</time>
      </trkpt>
      <trkpt lat="48.09903" lon="3.30603">
        <ele>130.2</ele>
        <time>2024-03-30T15:45:30.000Z</time>
      </trkpt>
      <trkpt lat="48.09904" lon="3.30603">
        <ele>130.3</ele>
        <time>2024-03-30T15:45:31.000Z</time>
      </trkpt>
      <trkpt lat="48.09905" lon="3.30603">
        <ele>130.4</ele>
        <time>2024-03-30T15:45:32.000Z</time>
      </trkpt>
      <trkpt lat="48.09906" lon="3.30603">
        <ele>130.6</ele>
        <time>2024-03-30T15:45:33.000Z</time>
      </trkpt>
      <trkpt lat="48.09907" lon="3.30604">
        <ele>130.7</ele>
        <time>2024-03-30T15:45:34.000Z</time>
      </trkpt>
      <trkpt lat="48.09908" lon="3.30604">
        <ele>130.8</ele>
        <time>2024-03-30T15:45:35.000Z</time>
      </trkpt>
      <trkpt lat="48.09909" lon="3.30604">
        <ele>130.9</ele>
        <time>2024-03-30T15:45:36.000Z</time>
      </trkpt>
      <trkpt lat="48.0991" lon="3.30604">
        <ele>131</ele>
        <time>2024-03-30T15:45:37.000Z</time>
      </trkpt>
      <trkpt lat="48.09912" lon="3.30605">
        <ele>131.3</ele>
        <time>2024-03-30T15:45:38.000Z</time>
      </trkpt>
      <trkpt lat="48.09913" lon="3.30605">
        <ele>131.4</ele>
        <time>2024-03-30T15:45:39.000Z</time>
      </trkpt>
      <trkpt lat="48.09914" lon="3.30605">
        <ele>131.5</ele>
        <time>2024-03-30T15:45:40.000Z</time>
      </trkpt>
      <trkpt lat="48.09915" lon="3.30605">
        <ele>131.6</ele>
        <time>2024-03-30T15:45:41.000Z</time>
      </trkpt>
      <trkpt lat="48.09916" lon="3.30605">
        <ele>131.7</ele>
        <time>2024-03-30T15:45:42.000Z</time>
      </trkpt>
      <trkpt lat="48.09917" lon="3.30606">
        <ele>131.9</ele>
        <time>2024-03-30T15:45:43.000Z</time>
      </trkpt>
      <trkpt lat="48.09918" lon="3.30606">
        <ele>132</ele>
        <time>2024-03-30T15:45:44.000Z</time>
      </trkpt>
      <trkpt lat="48.0992" lon="3.30606">
        <ele>132.2</ele>
        <time>2024-03-30T15:45:45.000Z</time>
      </trkpt>
      <trkpt lat="48.09921" lon="3.30607">
        <ele>132.3</ele>
        <time>2024-03-30T15:45:46.000Z</time>
      </trkpt>
      <trkpt lat="48.09922" lon="3.30607">
        <ele>132.5</ele>
        <time>2024-03-30T15:45:47.000Z</time>
      </trkpt>
      <trkpt lat="48.09923" lon="3.30607">
        <ele>132.6</ele>
        <time>2024-03-30T15:45:48.000Z</time>
      </trkpt>
      <trkpt lat="48.09924" lon="3.30607">
        <ele>132.7</ele>
        <time>2024-03-30T15:45:49.000Z</time>
      </trkpt>
      <trkpt lat="48.09925" lon="3.30607">
        <ele>132.8</ele>
        <time>2024-03-30T15:45:50.000Z</time>
      </trkpt>
      <trkpt lat="48.09926" lon="3.30607">
        <ele>132.9</ele>
        <time>2024-03-30T15:45:51.000Z</time>
      </trkpt>
      <trkpt lat="48.09927" lon="3.30607">
        <ele>133</ele>
        <time>2024-03-30T15:45:52.000Z</time>
      </trkpt>
      <trkpt lat="48.09929" lon="3.30608">
        <ele>133.3</ele>
        <time>2024-03-30T15:45:53.000Z</time>
      </trkpt>
      <trkpt lat="48.0993" lon="3.30608">
        <ele>133.4</ele>
        <time>2024-03-30T15:45:54.000Z</time>
      </trkpt>
      <trkpt lat="48.09931" lon="3.30609">
        <ele>133.5</ele>
        <time>2024-03-30T15:45:55.000Z</time>
      </trkpt>
      <trkpt lat="48.09932" lon="3.30609">
        <ele>133.6</ele>
        <time>2024-03-30T15:45:56.000Z</time>
      </trkpt>
      <trkpt lat="48.09933" lon="3.30609">
        <ele>133.7</ele>
        <time>2024-03-30T15:45:57.000Z</time>
      </trkpt>
      <trkpt lat="48.09935" lon="3.3061">
        <ele>134</ele>
        <time>2024-03-30T15:45:58.000Z</time>
      </trkpt>
      <trkpt lat="48.09936" lon="3.3061">
        <ele>134.1</ele>
        <time>2024-03-30T15:45:59.000Z</time>
      </trkpt>
      <trkpt lat="48.09937" lon="3.3061">
        <ele>134.2</ele>
        <time>2024-03-30T15:46:00.000Z</time>
      </trkpt>
      <trkpt lat="48.09938" lon="3.3061">
        <ele>134.3</ele>
        <time>2024-03-30T15:46:01.000Z</time>
      </trkpt>
      <trkpt lat="48.0994" lon="3.30611">
        <ele>134.5</ele>
        <time>2024-03-30T15:46:02.000Z</time>
      </trkpt>
      <trkpt lat="48.09941" lon="3.30611">
        <ele>134.6</ele>
        <time>2024-03-30T15:46:03.000Z</time>
      </trkpt>
      <trkpt lat="48.09942" lon="3.30611">
        <ele>134.7</ele>
        <time>2024-03-30T15:46:04.000Z</time>
      </trkpt>
      <trkpt lat="48.09944" lon="3.30611">
        <ele>135</ele>
        <time>2024-03-30T15:46:05.000Z</time>
      </trkpt>
      <trkpt lat="48.09945" lon="3.30611">
        <ele>135.1</ele>
        <time>2024-03-30T15:46:06.000Z</time>
      </trkpt>
      <trkpt lat="48.09947" lon="3.30612">
        <ele>135.3</ele>
        <time>2024-03-30T15:46:07.000Z</time>
      </trkpt>
      <trkpt lat="48.09948" lon="3.30612">
        <ele>135.4</ele>
        <time>2024-03-30T15:46:08.000Z</time>
      </trkpt>
      <trkpt lat="48.09949" lon="3.30612">
        <ele>135.5</ele>
        <time>2024-03-30T15:46:09.000Z</time>
      </trkpt>
      <trkpt lat="48.0995" lon="3.30612">
        <ele>135.6</ele>
        <time>2024-03-30T15:46:10.000Z</time>
      </trkpt>
      <trkpt lat="48.09952" lon="3.30612">
        <ele>135.8</ele>
        <time>2024-03-30T15:46:11.000Z</time>
      </trkpt>
      <trkpt lat="48.09954" lon="3.30612">
        <ele>136.1</ele>
        <time>2024-03-30T15:46:12.000Z</time>
      </trkpt>
      <trkpt lat="48.09955" lon="3.30612">
        <ele>136.2</ele>
        <time>2024-03-30T15:46:13.000Z</time>
      </trkpt>
      <trkpt lat="48.09956" lon="3.30612">
        <ele>136.3</ele>
        <time>2024-03-30T15:46:14.000Z</time>
      </trkpt>
      <trkpt lat="48.09958" lon="3.30612">
        <ele>136.5</ele>
        <time>2024-03-30T15:46:15.000Z</time>
      </trkpt>
      <trkpt lat="48.0996" lon="3.30612">
        <ele>136.7</ele>
        <time>2024-03-30T15:46:16.000Z</time>
      </trkpt>
      <trkpt lat="48.09961" lon="3.30612">
        <ele>136.8</ele>
        <time>2024-03-30T15:46:17.000Z</time>
      </trkpt>
      <trkpt lat="48.09962" lon="3.30612">
        <ele>136.9</ele>
        <time>2024-03-30T15:46:18.000Z</time>
      </trkpt>
      <trkpt lat="48.09963" lon="3.30611">
        <ele>137</ele>
        <time>2024-03-30T15:46:19.000Z</time>
      </trkpt>
      <trkpt lat="48.09965" lon="3.30611">
        <ele>137.2</ele>
        <time>2024-03-30T15:46:20.000Z</time>
      </trkpt>
      <trkpt lat="48.09966" lon="3.30611">
        <ele>137.3</ele>
        <time>2024-03-30T15:46:21.000Z</time>
      </trkpt>
      <trkpt lat="48.09968" lon="3.3061">
        <ele>137.5</ele>
        <time>2024-03-30T15:46:22.000Z</time>
      </trkpt>
      <trkpt lat="48.09969" lon="3.30611">
        <ele>137.7</ele>
        <time>2024-03-30T15:46:23.000Z</time>
      </trkpt>
      <trkpt lat="48.09971" lon="3.3061">
        <ele>137.9</ele>
        <time>2024-03-30T15:46:24.000Z</time>
      </trkpt>
      <trkpt lat="48.09972" lon="3.3061">
        <ele>138</ele>
        <time>2024-03-30T15:46:25.000Z</time>
      </trkpt>
      <trkpt lat="48.09973" lon="3.3061">
        <ele>138.1</ele>
        <time>2024-03-30T15:46:26.000Z</time>
      </trkpt>
      <trkpt lat="48.09974" lon="3.3061">
        <ele>138.2</ele>
        <time>2024-03-30T15:46:27.000Z</time>
      </trkpt>
      <trkpt lat="48.09975" lon="3.30609">
        <ele>138.3</ele>
        <time>2024-03-30T15:46:28.000Z</time>
      </trkpt>
      <trkpt lat="48.09977" lon="3.30609">
        <ele>138.5</ele>
        <time>2024-03-30T15:46:29.000Z</time>
      </trkpt>
      <trkpt lat="48.09978" lon="3.30609">
        <ele>138.6</ele>
        <time>2024-03-30T15:46:30.000Z</time>
      </trkpt>
      <trkpt lat="48.0998" lon="3.30609">
        <ele>138.8</ele>
        <time>2024-03-30T15:46:31.000Z</time>
      </trkpt>
      <trkpt lat="48.09981" lon="3.30609">
        <ele>138.9</ele>
        <time>2024-03-30T15:46:32.000Z</time>
      </trkpt>
      <trkpt lat="48.09983" lon="3.30609">
        <ele>139.2</ele>
        <time>2024-03-30T15:46:33.000Z</time>
      </trkpt>
      <trkpt lat="48.09984" lon="3.30608">
        <ele>139.3</ele>
        <time>2024-03-30T15:46:34.000Z</time>
      </trkpt>
      <trkpt lat="48.09985" lon="3.30608">
        <ele>139.4</ele>
        <time>2024-03-30T15:46:35.000Z</time>
      </trkpt>
      <trkpt lat="48.09986" lon="3.30608">
        <ele>139.5</ele>
        <time>2024-03-30T15:46:36.000Z</time>
      </trkpt>
      <trkpt lat="48.09988" lon="3.30608">
        <ele>139.7</ele>
        <time>2024-03-30T15:46:37.000Z</time>
      </trkpt>
      <trkpt lat="48.09989" lon="3.30608">
        <ele>139.8</ele>
        <time>2024-03-30T15:46:38.000Z</time>
      </trkpt>
      <trkpt lat="48.09991" lon="3.30608">
        <ele>140</ele>
        <time>2024-03-30T15:46:39.000Z</time>
      </trkpt>
      <trkpt lat="48.09992" lon="3.30607">
        <ele>140.1</ele>
        <time>2024-03-30T15:46:40.000Z</time>
      </trkpt>
      <trkpt lat="48.09994" lon="3.30607">
        <ele>140.4</ele>
        <time>2024-03-30T15:46:41.000Z</time>
      </trkpt>
      <trkpt lat="48.09995" lon="3.30607">
        <ele>140.5</ele>
        <time>2024-03-30T15:46:42.000Z</time>
      </trkpt>
      <trkpt lat="48.09997" lon="3.30607">
        <ele>140.7</ele>
        <time>2024-03-30T15:46:43.000Z</time>
      </trkpt>
      <trkpt lat="48.09998" lon="3.30607">
        <ele>140.8</ele>
        <time>2024-03-30T15:46:44.000Z</time>
      </trkpt>
      <trkpt lat="48.09999" lon="3.30607">
        <ele>140.9</ele>
        <time>2024-03-30T15:46:45.000Z</time>
      </trkpt>
      <trkpt lat="48.10001" lon="3.30607">
        <ele>141.1</ele>
        <time>2024-03-30T15:46:46.000Z</time>
      </trkpt>
      <trkpt lat="48.10002" lon="3.30606">
        <ele>141.2</ele>
        <time>2024-03-30T15:46:47.000Z</time>
      </trkpt>
      <trkpt lat="48.10004" lon="3.30606">
        <ele>141.4</ele>
        <time>2024-03-30T15:46:48.000Z</time>
      </trkpt>
      <trkpt lat="48.10005" lon="3.30606">
        <ele>141.5</ele>
        <time>2024-03-30T15:46:49.000Z</time>
      </trkpt>
      <trkpt lat="48.10006" lon="3.30606">
        <ele>141.6</ele>
        <time>2024-03-30T15:46:50.000Z</time>
      </trkpt>
      <trkpt lat="48.10007" lon="3.30606">
        <ele>141.8</ele>
        <time>2024-03-30T15:46:51.000Z</time>
      </trkpt>
      <trkpt lat="48.10009" lon="3.30606">
        <ele>142</ele>
        <time>2024-03-30T15:46:52.000Z</time>
      </trkpt>
      <trkpt lat="48.1001" lon="3.30606">
        <ele>142.1</ele>
        <time>2024-03-30T15:46:53.000Z</time>
      </trkpt>
      <trkpt lat="48.10011" lon="3.30607">
        <ele>142.2</ele>
        <time>2024-03-30T15:46:54.000Z</time>
      </trkpt>
      <trkpt lat="48.10013" lon="3.30607">
        <ele>142.4</ele>
        <time>2024-03-30T15:46:55.000Z</time>
      </trkpt>
      <trkpt lat="48.10013" lon="3.30606">
        <ele>142.4</ele>
        <time>2024-03-30T15:46:56.000Z</time>
      </trkpt>
      <trkpt lat="48.10015" lon="3.30607">
        <ele>142.6</ele>
        <time>2024-03-30T15:46:57.000Z</time>
      </trkpt>
      <trkpt lat="48.10017" lon="3.30607">
        <ele>142.8</ele>
        <time>2024-03-30T15:46:58.000Z</time>
      </trkpt>
      <trkpt lat="48.10018" lon="3.30608">
        <ele>142.9</ele>
        <time>2024-03-30T15:46:59.000Z</time>
      </trkpt>
      <trkpt lat="48.1002" lon="3.30608">
        <ele>143.2</ele>
        <time>2024-03-30T15:47:00.000Z</time>
      </trkpt>
      <trkpt lat="48.10021" lon="3.30609">
        <ele>143.3</ele>
        <time>2024-03-30T15:47:01.000Z</time>
      </trkpt>
      <trkpt lat="48.10023" lon="3.3061">
        <ele>143.5</ele>
        <time>2024-03-30T15:47:02.000Z</time>
      </trkpt>
      <trkpt lat="48.10023" lon="3.30611">
        <ele>143.5</ele>
        <time>2024-03-30T15:47:03.000Z</time>
      </trkpt>
      <trkpt lat="48.10025" lon="3.30613">
        <ele>143.7</ele>
        <time>2024-03-30T15:47:04.000Z</time>
      </trkpt>
      <trkpt lat="48.10027" lon="3.30614">
        <ele>143.9</ele>
        <time>2024-03-30T15:47:05.000Z</time>
      </trkpt>
      <trkpt lat="48.10028" lon="3.30614">
        <ele>144</ele>
        <time>2024-03-30T15:47:06.000Z</time>
      </trkpt>
      <trkpt lat="48.1003" lon="3.30615">
        <ele>144.2</ele>
        <time>2024-03-30T15:47:07.000Z</time>
      </trkpt>
      <trkpt lat="48.10031" lon="3.30617">
        <ele>144.3</ele>
        <time>2024-03-30T15:47:08.000Z</time>
      </trkpt>
      <trkpt lat="48.10033" lon="3.30617">
        <ele>144.5</ele>
        <time>2024-03-30T15:47:09.000Z</time>
      </trkpt>
      <trkpt lat="48.10034" lon="3.30618">
        <ele>144.6</ele>
        <time>2024-03-30T15:47:10.000Z</time>
      </trkpt>
      <trkpt lat="48.10036" lon="3.30619">
        <ele>144.8</ele>
        <time>2024-03-30T15:47:11.000Z</time>
      </trkpt>
      <trkpt lat="48.10037" lon="3.3062">
        <ele>144.9</ele>
        <time>2024-03-30T15:47:12.000Z</time>
      </trkpt>
      <trkpt lat="48.10039" lon="3.30621">
        <ele>145.1</ele>
        <time>2024-03-30T15:47:13.000Z</time>
      </trkpt>
      <trkpt lat="48.1004" lon="3.30622">
        <ele>145.1</ele>
        <time>2024-03-30T15:47:14.000Z</time>
      </trkpt>
      <trkpt lat="48.10042" lon="3.30624">
        <ele>145.3</ele>
        <time>2024-03-30T15:47:15.000Z</time>
      </trkpt>
      <trkpt lat="48.10044" lon="3.30625">
        <ele>145.5</ele>
        <time>2024-03-30T15:47:16.000Z</time>
      </trkpt>
      <trkpt lat="48.10046" lon="3.30626">
        <ele>145.6</ele>
        <time>2024-03-30T15:47:17.000Z</time>
      </trkpt>
      <trkpt lat="48.10047" lon="3.30627">
        <ele>145.7</ele>
        <time>2024-03-30T15:47:18.000Z</time>
      </trkpt>
      <trkpt lat="48.10049" lon="3.30628">
        <ele>145.8</ele>
        <time>2024-03-30T15:47:19.000Z</time>
      </trkpt>
      <trkpt lat="48.10051" lon="3.30629">
        <ele>146</ele>
        <time>2024-03-30T15:47:20.000Z</time>
      </trkpt>
      <trkpt lat="48.10052" lon="3.3063">
        <ele>146</ele>
        <time>2024-03-30T15:47:21.000Z</time>
      </trkpt>
      <trkpt lat="48.10054" lon="3.30631">
        <ele>146.2</ele>
        <time>2024-03-30T15:47:22.000Z</time>
      </trkpt>
      <trkpt lat="48.10056" lon="3.30633">
        <ele>146.3</ele>
        <time>2024-03-30T15:47:23.000Z</time>
      </trkpt>
      <trkpt lat="48.10057" lon="3.30633">
        <ele>146.4</ele>
        <time>2024-03-30T15:47:24.000Z</time>
      </trkpt>
      <trkpt lat="48.10059" lon="3.30635">
        <ele>146.5</ele>
        <time>2024-03-30T15:47:25.000Z</time>
      </trkpt>
      <trkpt lat="48.1006" lon="3.30636">
        <ele>146.6</ele>
        <time>2024-03-30T15:47:26.000Z</time>
      </trkpt>
      <trkpt lat="48.10062" lon="3.30637">
        <ele>146.7</ele>
        <time>2024-03-30T15:47:27.000Z</time>
      </trkpt>
      <trkpt lat="48.10063" lon="3.30638">
        <ele>146.8</ele>
        <time>2024-03-30T15:47:28.000Z</time>
      </trkpt>
      <trkpt lat="48.10065" lon="3.30639">
        <ele>147</ele>
        <time>2024-03-30T15:47:29.000Z</time>
      </trkpt>
      <trkpt lat="48.10066" lon="3.3064">
        <ele>147.1</ele>
        <time>2024-03-30T15:47:30.000Z</time>
      </trkpt>
      <trkpt lat="48.10068" lon="3.30641">
        <ele>147.3</ele>
        <time>2024-03-30T15:47:31.000Z</time>
      </trkpt>
      <trkpt lat="48.10069" lon="3.30642">
        <ele>147.4</ele>
        <time>2024-03-30T15:47:32.000Z</time>
      </trkpt>
      <trkpt lat="48.10071" lon="3.30643">
        <ele>147.6</ele>
        <time>2024-03-30T15:47:33.000Z</time>
      </trkpt>
      <trkpt lat="48.10072" lon="3.30644">
        <ele>147.7</ele>
        <time>2024-03-30T15:47:34.000Z</time>
      </trkpt>
      <trkpt lat="48.10073" lon="3.30645">
        <ele>147.7</ele>
        <time>2024-03-30T15:47:35.000Z</time>
      </trkpt>
      <trkpt lat="48.10075" lon="3.30646">
        <ele>147.9</ele>
        <time>2024-03-30T15:47:36.000Z</time>
      </trkpt>
      <trkpt lat="48.10076" lon="3.30647">
        <ele>148</ele>
        <time>2024-03-30T15:47:37.000Z</time>
      </trkpt>
      <trkpt lat="48.10078" lon="3.30648">
        <ele>148.2</ele>
        <time>2024-03-30T15:47:38.000Z</time>
      </trkpt>
      <trkpt lat="48.10079" lon="3.30648">
        <ele>148.3</ele>
        <time>2024-03-30T15:47:39.000Z</time>
      </trkpt>
      <trkpt lat="48.1008" lon="3.30649">
        <ele>148.3</ele>
        <time>2024-03-30T15:47:40.000Z</time>
      </trkpt>
      <trkpt lat="48.10082" lon="3.3065">
        <ele>148.5</ele>
        <time>2024-03-30T15:47:41.000Z</time>
      </trkpt>
      <trkpt lat="48.10083" lon="3.30652">
        <ele>148.5</ele>
        <time>2024-03-30T15:47:42.000Z</time>
      </trkpt>
      <trkpt lat="48.10084" lon="3.30653">
        <ele>148.6</ele>
        <time>2024-03-30T15:47:43.000Z</time>
      </trkpt>
      <trkpt lat="48.10086" lon="3.30654">
        <ele>148.8</ele>
        <time>2024-03-30T15:47:44.000Z</time>
      </trkpt>
      <trkpt lat="48.10087" lon="3.30655">
        <ele>148.9</ele>
        <time>2024-03-30T15:47:45.000Z</time>
      </trkpt>
      <trkpt lat="48.10089" lon="3.30656">
        <ele>149.1</ele>
        <time>2024-03-30T15:47:46.000Z</time>
      </trkpt>
      <trkpt lat="48.1009" lon="3.30656">
        <ele>149.3</ele>
        <time>2024-03-30T15:47:47.000Z</time>
      </trkpt>
      <trkpt lat="48.10091" lon="3.30657">
        <ele>149.4</ele>
        <time>2024-03-30T15:47:48.000Z</time>
      </trkpt>
      <trkpt lat="48.10093" lon="3.30658">
        <ele>149.6</ele>
        <time>2024-03-30T15:47:49.000Z</time>
      </trkpt>
      <trkpt lat="48.10094" lon="3.30659">
        <ele>149.7</ele>
        <time>2024-03-30T15:47:50.000Z</time>
      </trkpt>
      <trkpt lat="48.10095" lon="3.30659">
        <ele>149.8</ele>
        <time>2024-03-30T15:47:51.000Z</time>
      </trkpt>
      <trkpt lat="48.10096" lon="3.3066">
        <ele>150</ele>
        <time>2024-03-30T15:47:52.000Z</time>
      </trkpt>
      <trkpt lat="48.10097" lon="3.3066">
        <ele>150.1</ele>
        <time>2024-03-30T15:47:53.000Z</time>
      </trkpt>
      <trkpt lat="48.10099" lon="3.30661">
        <ele>150.3</ele>
        <time>2024-03-30T15:47:54.000Z</time>
      </trkpt>
      <trkpt lat="48.101" lon="3.30662">
        <ele>150.5</ele>
        <time>2024-03-30T15:47:55.000Z</time>
      </trkpt>
      <trkpt lat="48.10101" lon="3.30663">
        <ele>150.6</ele>
        <time>2024-03-30T15:47:56.000Z</time>
      </trkpt>
      <trkpt lat="48.10102" lon="3.30664">
        <ele>150.7</ele>
        <time>2024-03-30T15:47:57.000Z</time>
      </trkpt>
      <trkpt lat="48.10103" lon="3.30665">
        <ele>150.8</ele>
        <time>2024-03-30T15:47:58.000Z</time>
      </trkpt>
      <trkpt lat="48.10105" lon="3.30666">
        <ele>151.1</ele>
        <time>2024-03-30T15:47:59.000Z</time>
      </trkpt>
      <trkpt lat="48.10106" lon="3.30667">
        <ele>151.2</ele>
        <time>2024-03-30T15:48:00.000Z</time>
      </trkpt>
      <trkpt lat="48.10107" lon="3.30668">
        <ele>151.3</ele>
        <time>2024-03-30T15:48:01.000Z</time>
      </trkpt>
      <trkpt lat="48.10108" lon="3.30668">
        <ele>151.5</ele>
        <time>2024-03-30T15:48:02.000Z</time>
      </trkpt>
      <trkpt lat="48.10109" lon="3.30669">
        <ele>151.5</ele>
        <time>2024-03-30T15:48:03.000Z</time>
      </trkpt>
      <trkpt lat="48.10111" lon="3.3067">
        <ele>151.7</ele>
        <time>2024-03-30T15:48:04.000Z</time>
      </trkpt>
      <trkpt lat="48.10112" lon="3.30671">
        <ele>151.8</ele>
        <time>2024-03-30T15:48:05.000Z</time>
      </trkpt>
      <trkpt lat="48.10113" lon="3.30672">
        <ele>151.8</ele>
        <time>2024-03-30T15:48:06.000Z</time>
      </trkpt>
      <trkpt lat="48.10114" lon="3.30673">
        <ele>151.8</ele>
        <time>2024-03-30T15:48:07.000Z</time>
      </trkpt>
      <trkpt lat="48.10115" lon="3.30674">
        <ele>151.8</ele>
        <time>2024-03-30T15:48:08.000Z</time>
      </trkpt>
      <trkpt lat="48.10116" lon="3.30675">
        <ele>151.9</ele>
        <time>2024-03-30T15:48:09.000Z</time>
      </trkpt>
      <trkpt lat="48.10118" lon="3.30676">
        <ele>152</ele>
        <time>2024-03-30T15:48:10.000Z</time>
      </trkpt>
      <trkpt lat="48.10119" lon="3.30676">
        <ele>152.1</ele>
        <time>2024-03-30T15:48:11.000Z</time>
      </trkpt>
      <trkpt lat="48.1012" lon="3.30677">
        <ele>152.1</ele>
        <time>2024-03-30T15:48:12.000Z</time>
      </trkpt>
      <trkpt lat="48.10122" lon="3.30678">
        <ele>152.3</ele>
        <time>2024-03-30T15:48:13.000Z</time>
      </trkpt>
      <trkpt lat="48.10123" lon="3.30679">
        <ele>152.3</ele>
        <time>2024-03-30T15:48:14.000Z</time>
      </trkpt>
      <trkpt lat="48.10124" lon="3.30679">
        <ele>152.5</ele>
        <time>2024-03-30T15:48:15.000Z</time>
      </trkpt>
      <trkpt lat="48.10125" lon="3.3068">
        <ele>152.5</ele>
        <time>2024-03-30T15:48:16.000Z</time>
      </trkpt>
      <trkpt lat="48.10127" lon="3.30681">
        <ele>152.7</ele>
        <time>2024-03-30T15:48:17.000Z</time>
      </trkpt>
      <trkpt lat="48.10128" lon="3.30681">
        <ele>152.8</ele>
        <time>2024-03-30T15:48:18.000Z</time>
      </trkpt>
      <trkpt lat="48.10129" lon="3.30682">
        <ele>152.9</ele>
        <time>2024-03-30T15:48:19.000Z</time>
      </trkpt>
      <trkpt lat="48.1013" lon="3.30683">
        <ele>153</ele>
        <time>2024-03-30T15:48:20.000Z</time>
      </trkpt>
      <trkpt lat="48.10131" lon="3.30684">
        <ele>153.1</ele>
        <time>2024-03-30T15:48:21.000Z</time>
      </trkpt>
      <trkpt lat="48.10132" lon="3.30685">
        <ele>153.2</ele>
        <time>2024-03-30T15:48:22.000Z</time>
      </trkpt>
      <trkpt lat="48.10134" lon="3.30686">
        <ele>153.4</ele>
        <time>2024-03-30T15:48:23.000Z</time>
      </trkpt>
      <trkpt lat="48.10135" lon="3.30688">
        <ele>153.5</ele>
        <time>2024-03-30T15:48:24.000Z</time>
      </trkpt>
      <trkpt lat="48.10136" lon="3.30689">
        <ele>153.6</ele>
        <time>2024-03-30T15:48:25.000Z</time>
      </trkpt>
      <trkpt lat="48.10137" lon="3.3069">
        <ele>153.7</ele>
        <time>2024-03-30T15:48:26.000Z</time>
      </trkpt>
      <trkpt lat="48.10139" lon="3.30691">
        <ele>154</ele>
        <time>2024-03-30T15:48:27.000Z</time>
      </trkpt>
      <trkpt lat="48.1014" lon="3.30693">
        <ele>154.1</ele>
        <time>2024-03-30T15:48:28.000Z</time>
      </trkpt>
      <trkpt lat="48.10141" lon="3.30694">
        <ele>154.2</ele>
        <time>2024-03-30T15:48:29.000Z</time>
      </trkpt>
      <trkpt lat="48.10143" lon="3.30695">
        <ele>154.4</ele>
        <time>2024-03-30T15:48:30.000Z</time>
      </trkpt>
      <trkpt lat="48.10144" lon="3.30696">
        <ele>154.5</ele>
        <time>2024-03-30T15:48:31.000Z</time>
      </trkpt>
      <trkpt lat="48.10145" lon="3.30697">
        <ele>154.6</ele>
        <time>2024-03-30T15:48:32.000Z</time>
      </trkpt>
      <trkpt lat="48.10147" lon="3.30697">
        <ele>154.8</ele>
        <time>2024-03-30T15:48:33.000Z</time>
      </trkpt>
      <trkpt lat="48.10148" lon="3.30698">
        <ele>154.9</ele>
        <time>2024-03-30T15:48:34.000Z</time>
      </trkpt>
      <trkpt lat="48.10149" lon="3.30698">
        <ele>155</ele>
        <time>2024-03-30T15:48:35.000Z</time>
      </trkpt>
      <trkpt lat="48.10151" lon="3.30699">
        <ele>155.1</ele>
        <time>2024-03-30T15:48:36.000Z</time>
      </trkpt>
      <trkpt lat="48.10152" lon="3.307">
        <ele>155.2</ele>
        <time>2024-03-30T15:48:37.000Z</time>
      </trkpt>
      <trkpt lat="48.10153" lon="3.30701">
        <ele>155.3</ele>
        <time>2024-03-30T15:48:38.000Z</time>
      </trkpt>
      <trkpt lat="48.10155" lon="3.30702">
        <ele>155.5</ele>
        <time>2024-03-30T15:48:39.000Z</time>
      </trkpt>
      <trkpt lat="48.10156" lon="3.30703">
        <ele>155.5</ele>
        <time>2024-03-30T15:48:40.000Z</time>
      </trkpt>
      <trkpt lat="48.10157" lon="3.30703">
        <ele>155.6</ele>
        <time>2024-03-30T15:48:41.000Z</time>
      </trkpt>
      <trkpt lat="48.10159" lon="3.30704">
        <ele>155.8</ele>
        <time>2024-03-30T15:48:42.000Z</time>
      </trkpt>
      <trkpt lat="48.1016" lon="3.30705">
        <ele>155.9</ele>
        <time>2024-03-30T15:48:43.000Z</time>
      </trkpt>
      <trkpt lat="48.10162" lon="3.30706">
        <ele>156.1</ele>
        <time>2024-03-30T15:48:44.000Z</time>
      </trkpt>
      <trkpt lat="48.10163" lon="3.30707">
        <ele>156.2</ele>
        <time>2024-03-30T15:48:45.000Z</time>
      </trkpt>
      <trkpt lat="48.10165" lon="3.30707">
        <ele>156.4</ele>
        <time>2024-03-30T15:48:46.000Z</time>
      </trkpt>
      <trkpt lat="48.10167" lon="3.30708">
        <ele>156.5</ele>
        <time>2024-03-30T15:48:47.000Z</time>
      </trkpt>
      <trkpt lat="48.10168" lon="3.30709">
        <ele>156.6</ele>
        <time>2024-03-30T15:48:48.000Z</time>
      </trkpt>
      <trkpt lat="48.1017" lon="3.3071">
        <ele>156.7</ele>
        <time>2024-03-30T15:48:49.000Z</time>
      </trkpt>
      <trkpt lat="48.10172" lon="3.30711">
        <ele>156.9</ele>
        <time>2024-03-30T15:48:50.000Z</time>
      </trkpt>
      <trkpt lat="48.10174" lon="3.30711">
        <ele>157.1</ele>
        <time>2024-03-30T15:48:51.000Z</time>
      </trkpt>
      <trkpt lat="48.10176" lon="3.30712">
        <ele>157.3</ele>
        <time>2024-03-30T15:48:52.000Z</time>
      </trkpt>
      <trkpt lat="48.10177" lon="3.30712">
        <ele>157.3</ele>
        <time>2024-03-30T15:48:53.000Z</time>
      </trkpt>
      <trkpt lat="48.10179" lon="3.30712">
        <ele>157.5</ele>
        <time>2024-03-30T15:48:54.000Z</time>
      </trkpt>
      <trkpt lat="48.10181" lon="3.30712">
        <ele>157.7</ele>
        <time>2024-03-30T15:48:55.000Z</time>
      </trkpt>
      <trkpt lat="48.10183" lon="3.30713">
        <ele>157.9</ele>
        <time>2024-03-30T15:48:56.000Z</time>
      </trkpt>
      <trkpt lat="48.10184" lon="3.30713">
        <ele>158</ele>
        <time>2024-03-30T15:48:57.000Z</time>
      </trkpt>
      <trkpt lat="48.10185" lon="3.30714">
        <ele>158.1</ele>
        <time>2024-03-30T15:48:58.000Z</time>
      </trkpt>
      <trkpt lat="48.10187" lon="3.30714">
        <ele>158.3</ele>
        <time>2024-03-30T15:48:59.000Z</time>
      </trkpt>
      <trkpt lat="48.10188" lon="3.30715">
        <ele>158.4</ele>
        <time>2024-03-30T15:49:00.000Z</time>
      </trkpt>
      <trkpt lat="48.1019" lon="3.30715">
        <ele>158.6</ele>
        <time>2024-03-30T15:49:01.000Z</time>
      </trkpt>
      <trkpt lat="48.10192" lon="3.30716">
        <ele>158.8</ele>
        <time>2024-03-30T15:49:02.000Z</time>
      </trkpt>
      <trkpt lat="48.10193" lon="3.30716">
        <ele>158.9</ele>
        <time>2024-03-30T15:49:03.000Z</time>
      </trkpt>
      <trkpt lat="48.10195" lon="3.30717">
        <ele>159</ele>
        <time>2024-03-30T15:49:04.000Z</time>
      </trkpt>
      <trkpt lat="48.10196" lon="3.30718">
        <ele>159.1</ele>
        <time>2024-03-30T15:49:05.000Z</time>
      </trkpt>
      <trkpt lat="48.10198" lon="3.30719">
        <ele>159.2</ele>
        <time>2024-03-30T15:49:06.000Z</time>
      </trkpt>
      <trkpt lat="48.10199" lon="3.30719">
        <ele>159.3</ele>
        <time>2024-03-30T15:49:07.000Z</time>
      </trkpt>
      <trkpt lat="48.102" lon="3.30719">
        <ele>159.4</ele>
        <time>2024-03-30T15:49:08.000Z</time>
      </trkpt>
      <trkpt lat="48.10202" lon="3.3072">
        <ele>159.5</ele>
        <time>2024-03-30T15:49:09.000Z</time>
      </trkpt>
      <trkpt lat="48.10204" lon="3.3072">
        <ele>159.7</ele>
        <time>2024-03-30T15:49:10.000Z</time>
      </trkpt>
      <trkpt lat="48.10205" lon="3.30721">
        <ele>159.7</ele>
        <time>2024-03-30T15:49:11.000Z</time>
      </trkpt>
      <trkpt lat="48.10207" lon="3.30721">
        <ele>159.9</ele>
        <time>2024-03-30T15:49:12.000Z</time>
      </trkpt>
      <trkpt lat="48.10209" lon="3.30722">
        <ele>160</ele>
        <time>2024-03-30T15:49:13.000Z</time>
      </trkpt>
      <trkpt lat="48.10211" lon="3.30722">
        <ele>160.2</ele>
        <time>2024-03-30T15:49:14.000Z</time>
      </trkpt>
      <trkpt lat="48.10212" lon="3.30722">
        <ele>160.3</ele>
        <time>2024-03-30T15:49:15.000Z</time>
      </trkpt>
      <trkpt lat="48.10214" lon="3.30722">
        <ele>160.4</ele>
        <time>2024-03-30T15:49:16.000Z</time>
      </trkpt>
      <trkpt lat="48.10215" lon="3.30723">
        <ele>160.5</ele>
        <time>2024-03-30T15:49:17.000Z</time>
      </trkpt>
      <trkpt lat="48.10217" lon="3.30724">
        <ele>160.6</ele>
        <time>2024-03-30T15:49:18.000Z</time>
      </trkpt>
      <trkpt lat="48.10219" lon="3.30724">
        <ele>160.7</ele>
        <time>2024-03-30T15:49:19.000Z</time>
      </trkpt>
      <trkpt lat="48.1022" lon="3.30725">
        <ele>160.7</ele>
        <time>2024-03-30T15:49:20.000Z</time>
      </trkpt>
      <trkpt lat="48.10219" lon="3.30725">
        <ele>160.7</ele>
        <time>2024-03-30T15:49:21.000Z</time>
      </trkpt>
      <trkpt lat="48.10219" lon="3.30724">
        <ele>160.7</ele>
        <time>2024-03-30T15:49:25.000Z</time>
      </trkpt>
      <trkpt lat="48.10219" lon="3.30724">
        <ele>160.7</ele>
        <time>2024-03-30T15:49:29.000Z</time>
      </trkpt>
      <trkpt lat="48.1022" lon="3.30722">
        <ele>160.8</ele>
        <time>2024-03-30T15:50:02.000Z</time>
      </trkpt>
      <trkpt lat="48.10221" lon="3.3072">
        <ele>160.8</ele>
        <time>2024-03-30T15:50:03.000Z</time>
      </trkpt>
      <trkpt lat="48.10223" lon="3.3071">
        <ele>160.6</ele>
        <time>2024-03-30T15:50:07.000Z</time>
      </trkpt>
      <trkpt lat="48.10223" lon="3.30708">
        <ele>160.5</ele>
        <time>2024-03-30T15:50:08.000Z</time>
      </trkpt>
      <trkpt lat="48.10222" lon="3.30706">
        <ele>160.4</ele>
        <time>2024-03-30T15:50:09.000Z</time>
      </trkpt>
      <trkpt lat="48.10222" lon="3.30703">
        <ele>160.3</ele>
        <time>2024-03-30T15:50:10.000Z</time>
      </trkpt>
      <trkpt lat="48.10223" lon="3.30693">
        <ele>160.1</ele>
        <time>2024-03-30T15:50:13.000Z</time>
      </trkpt>
      <trkpt lat="48.10227" lon="3.30668">
        <ele>160.3</ele>
        <time>2024-03-30T15:50:19.000Z</time>
      </trkpt>
      <trkpt lat="48.10229" lon="3.30634">
        <ele>160.6</ele>
        <time>2024-03-30T15:50:26.000Z</time>
      </trkpt>
      <trkpt lat="48.10231" lon="3.30603">
        <ele>161.3</ele>
        <time>2024-03-30T15:50:33.000Z</time>
      </trkpt>
      <trkpt lat="48.10232" lon="3.30598">
        <ele>161.4</ele>
        <time>2024-03-30T15:50:34.000Z</time>
      </trkpt>
      <trkpt lat="48.10232" lon="3.30594">
        <ele>161.4</ele>
        <time>2024-03-30T15:50:35.000Z</time>
      </trkpt>
      <trkpt lat="48.10233" lon="3.30589">
        <ele>161.4</ele>
        <time>2024-03-30T15:50:36.000Z</time>
      </trkpt>
      <trkpt lat="48.10236" lon="3.30574">
        <ele>161.5</ele>
        <time>2024-03-30T15:50:40.000Z</time>
      </trkpt>
      <trkpt lat="48.10238" lon="3.30572">
        <ele>161.6</ele>
        <time>2024-03-30T15:50:41.000Z</time>
      </trkpt>
      <trkpt lat="48.1024" lon="3.3057">
        <ele>161.6</ele>
        <time>2024-03-30T15:50:42.000Z</time>
      </trkpt>
      <trkpt lat="48.10241" lon="3.30569">
        <ele>161.7</ele>
        <time>2024-03-30T15:50:43.000Z</time>
      </trkpt>
      <trkpt lat="48.10243" lon="3.30567">
        <ele>161.7</ele>
        <time>2024-03-30T15:50:44.000Z</time>
      </trkpt>
      <trkpt lat="48.10244" lon="3.30566">
        <ele>161.8</ele>
        <time>2024-03-30T15:50:45.000Z</time>
      </trkpt>
      <trkpt lat="48.10246" lon="3.30565">
        <ele>161.9</ele>
        <time>2024-03-30T15:50:46.000Z</time>
      </trkpt>
      <trkpt lat="48.10248" lon="3.30564">
        <ele>161.9</ele>
        <time>2024-03-30T15:50:47.000Z</time>
      </trkpt>
      <trkpt lat="48.10249" lon="3.30563">
        <ele>162</ele>
        <time>2024-03-30T15:50:48.000Z</time>
      </trkpt>
      <trkpt lat="48.1025" lon="3.30563">
        <ele>162</ele>
        <time>2024-03-30T15:50:49.000Z</time>
      </trkpt>
      <trkpt lat="48.10252" lon="3.30562">
        <ele>162.1</ele>
        <time>2024-03-30T15:50:50.000Z</time>
      </trkpt>
      <trkpt lat="48.10253" lon="3.30561">
        <ele>162.1</ele>
        <time>2024-03-30T15:50:51.000Z</time>
      </trkpt>
      <trkpt lat="48.10255" lon="3.30562">
        <ele>162.2</ele>
        <time>2024-03-30T15:50:52.000Z</time>
      </trkpt>
      <trkpt lat="48.10256" lon="3.30561">
        <ele>162.2</ele>
        <time>2024-03-30T15:50:53.000Z</time>
      </trkpt>
      <trkpt lat="48.10256" lon="3.30561">
        <ele>162.2</ele>
        <time>2024-03-30T15:50:54.000Z</time>
      </trkpt>
      <trkpt lat="48.10257" lon="3.30561">
        <ele>162.3</ele>
        <time>2024-03-30T15:50:55.000Z</time>
      </trkpt>
      <trkpt lat="48.10257" lon="3.30561">
        <ele>162.3</ele>
        <time>2024-03-30T15:50:58.000Z</time>
      </trkpt>
      <trkpt lat="48.10259" lon="3.3056">
        <ele>162.3</ele>
        <time>2024-03-30T15:51:07.000Z</time>
      </trkpt>
      <trkpt lat="48.1026" lon="3.3056">
        <ele>162.4</ele>
        <time>2024-03-30T15:51:08.000Z</time>
      </trkpt>
      <trkpt lat="48.10261" lon="3.30561">
        <ele>162.4</ele>
        <time>2024-03-30T15:51:09.000Z</time>
      </trkpt>
      <trkpt lat="48.10263" lon="3.30562">
        <ele>162.5</ele>
        <time>2024-03-30T15:51:10.000Z</time>
      </trkpt>
      <trkpt lat="48.10265" lon="3.30561">
        <ele>162.5</ele>
        <time>2024-03-30T15:51:11.000Z</time>
      </trkpt>
      <trkpt lat="48.10271" lon="3.30561">
        <ele>162.8</ele>
        <time>2024-03-30T15:51:14.000Z</time>
      </trkpt>
      <trkpt lat="48.10273" lon="3.3056">
        <ele>162.8</ele>
        <time>2024-03-30T15:51:15.000Z</time>
      </trkpt>
      <trkpt lat="48.10275" lon="3.3056">
        <ele>162.9</ele>
        <time>2024-03-30T15:51:16.000Z</time>
      </trkpt>
      <trkpt lat="48.10282" lon="3.30559">
        <ele>163.2</ele>
        <time>2024-03-30T15:51:20.000Z</time>
      </trkpt>
      <trkpt lat="48.10283" lon="3.30558">
        <ele>163.2</ele>
        <time>2024-03-30T15:51:21.000Z</time>
      </trkpt>
      <trkpt lat="48.10284" lon="3.30557">
        <ele>163.2</ele>
        <time>2024-03-30T15:51:22.000Z</time>
      </trkpt>
      <trkpt lat="48.10285" lon="3.30555">
        <ele>163.3</ele>
        <time>2024-03-30T15:51:23.000Z</time>
      </trkpt>
      <trkpt lat="48.10285" lon="3.30553">
        <ele>163.3</ele>
        <time>2024-03-30T15:51:24.000Z</time>
      </trkpt>
      <trkpt lat="48.10285" lon="3.3055">
        <ele>163.3</ele>
        <time>2024-03-30T15:51:25.000Z</time>
      </trkpt>
      <trkpt lat="48.10285" lon="3.30546">
        <ele>163.3</ele>
        <time>2024-03-30T15:51:26.000Z</time>
      </trkpt>
      <trkpt lat="48.10285" lon="3.30543">
        <ele>163.3</ele>
        <time>2024-03-30T15:51:27.000Z</time>
      </trkpt>
      <trkpt lat="48.10284" lon="3.30536">
        <ele>163.2</ele>
        <time>2024-03-30T15:51:29.000Z</time>
      </trkpt>
      <trkpt lat="48.10284" lon="3.30519">
        <ele>163.5</ele>
        <time>2024-03-30T15:51:33.000Z</time>
      </trkpt>
      <trkpt lat="48.10285" lon="3.30511">
        <ele>163.7</ele>
        <time>2024-03-30T15:51:35.000Z</time>
      </trkpt>
      <trkpt lat="48.10284" lon="3.30507">
        <ele>163.8</ele>
        <time>2024-03-30T15:51:36.000Z</time>
      </trkpt>
      <trkpt lat="48.10284" lon="3.30507">
        <ele>163.8</ele>
        <time>2024-03-30T15:51:37.000Z</time>
      </trkpt>
      <trkpt lat="48.10284" lon="3.30507">
        <ele>163.8</ele>
        <time>2024-03-30T15:51:39.000Z</time>
      </trkpt>
      <trkpt lat="48.10284" lon="3.30507">
        <ele>163.8</ele>
        <time>2024-03-30T15:51:43.000Z</time>
      </trkpt>
      <trkpt lat="48.10284" lon="3.30507">
        <ele>163.8</ele>
        <time>2024-03-30T15:51:47.000Z</time>
      </trkpt>
      <trkpt lat="48.10282" lon="3.305">
        <ele>164</ele>
        <time>2024-03-30T15:51:54.000Z</time>
      </trkpt>
      <trkpt lat="48.10281" lon="3.30495">
        <ele>164</ele>
        <time>2024-03-30T15:51:56.000Z</time>
      </trkpt>
      <trkpt lat="48.1028" lon="3.30492">
        <ele>164</ele>
        <time>2024-03-30T15:51:57.000Z</time>
      </trkpt>
      <trkpt lat="48.10276" lon="3.30485">
        <ele>163.9</ele>
        <time>2024-03-30T15:52:00.000Z</time>
      </trkpt>
      <trkpt lat="48.10274" lon="3.30482">
        <ele>163.7</ele>
        <time>2024-03-30T15:52:01.000Z</time>
      </trkpt>
      <trkpt lat="48.10272" lon="3.30478">
        <ele>163.6</ele>
        <time>2024-03-30T15:52:02.000Z</time>
      </trkpt>
      <trkpt lat="48.10272" lon="3.30475">
        <ele>163.6</ele>
        <time>2024-03-30T15:52:03.000Z</time>
      </trkpt>
      <trkpt lat="48.10273" lon="3.30471">
        <ele>163.7</ele>
        <time>2024-03-30T15:52:04.000Z</time>
      </trkpt>
      <trkpt lat="48.10273" lon="3.30468">
        <ele>163.7</ele>
        <time>2024-03-30T15:52:05.000Z</time>
      </trkpt>
      <trkpt lat="48.10273" lon="3.30464">
        <ele>163.7</ele>
        <time>2024-03-30T15:52:06.000Z</time>
      </trkpt>
      <trkpt lat="48.10272" lon="3.30453">
        <ele>163.6</ele>
        <time>2024-03-30T15:52:09.000Z</time>
      </trkpt>
      <trkpt lat="48.10271" lon="3.30449">
        <ele>163.5</ele>
        <time>2024-03-30T15:52:10.000Z</time>
      </trkpt>
      <trkpt lat="48.1027" lon="3.30445">
        <ele>163.4</ele>
        <time>2024-03-30T15:52:11.000Z</time>
      </trkpt>
      <trkpt lat="48.10269" lon="3.30441">
        <ele>163.3</ele>
        <time>2024-03-30T15:52:12.000Z</time>
      </trkpt>
      <trkpt lat="48.10269" lon="3.30436">
        <ele>163.2</ele>
        <time>2024-03-30T15:52:13.000Z</time>
      </trkpt>
      <trkpt lat="48.10269" lon="3.30433">
        <ele>163.1</ele>
        <time>2024-03-30T15:52:14.000Z</time>
      </trkpt>
      <trkpt lat="48.10267" lon="3.30431">
        <ele>162.9</ele>
        <time>2024-03-30T15:52:15.000Z</time>
      </trkpt>
      <trkpt lat="48.10266" lon="3.30428">
        <ele>162.8</ele>
        <time>2024-03-30T15:52:16.000Z</time>
      </trkpt>
      <trkpt lat="48.10264" lon="3.30424">
        <ele>162.6</ele>
        <time>2024-03-30T15:52:17.000Z</time>
      </trkpt>
      <trkpt lat="48.10264" lon="3.30421">
        <ele>162.6</ele>
        <time>2024-03-30T15:52:18.000Z</time>
      </trkpt>
      <trkpt lat="48.10265" lon="3.30417">
        <ele>162.5</ele>
        <time>2024-03-30T15:52:19.000Z</time>
      </trkpt>
      <trkpt lat="48.10264" lon="3.30411">
        <ele>162.4</ele>
        <time>2024-03-30T15:52:21.000Z</time>
      </trkpt>
      <trkpt lat="48.10265" lon="3.30406">
        <ele>162.4</ele>
        <time>2024-03-30T15:52:22.000Z</time>
      </trkpt>
      <trkpt lat="48.10266" lon="3.30403">
        <ele>162.4</ele>
        <time>2024-03-30T15:52:23.000Z</time>
      </trkpt>
      <trkpt lat="48.10268" lon="3.30397">
        <ele>162.4</ele>
        <time>2024-03-30T15:52:25.000Z</time>
      </trkpt>
      <trkpt lat="48.10269" lon="3.30394">
        <ele>162.4</ele>
        <time>2024-03-30T15:52:26.000Z</time>
      </trkpt>
      <trkpt lat="48.10271" lon="3.30386">
        <ele>162.5</ele>
        <time>2024-03-30T15:52:28.000Z</time>
      </trkpt>
      <trkpt lat="48.10272" lon="3.3037">
        <ele>162.6</ele>
        <time>2024-03-30T15:52:32.000Z</time>
      </trkpt>
      <trkpt lat="48.10272" lon="3.30368">
        <ele>162.6</ele>
        <time>2024-03-30T15:52:33.000Z</time>
      </trkpt>
      <trkpt lat="48.10271" lon="3.30364">
        <ele>162.5</ele>
        <time>2024-03-30T15:52:34.000Z</time>
      </trkpt>
      <trkpt lat="48.1027" lon="3.30361">
        <ele>162.4</ele>
        <time>2024-03-30T15:52:35.000Z</time>
      </trkpt>
      <trkpt lat="48.10267" lon="3.30355">
        <ele>162.2</ele>
        <time>2024-03-30T15:52:37.000Z</time>
      </trkpt>
      <trkpt lat="48.10267" lon="3.30346">
        <ele>162.2</ele>
        <time>2024-03-30T15:52:39.000Z</time>
      </trkpt>
      <trkpt lat="48.10267" lon="3.30343">
        <ele>162.2</ele>
        <time>2024-03-30T15:52:40.000Z</time>
      </trkpt>
      <trkpt lat="48.10268" lon="3.30339">
        <ele>162.3</ele>
        <time>2024-03-30T15:52:41.000Z</time>
      </trkpt>
      <trkpt lat="48.10267" lon="3.30334">
        <ele>162.2</ele>
        <time>2024-03-30T15:52:42.000Z</time>
      </trkpt>
      <trkpt lat="48.10267" lon="3.3033">
        <ele>162.2</ele>
        <time>2024-03-30T15:52:43.000Z</time>
      </trkpt>
      <trkpt lat="48.10268" lon="3.30323">
        <ele>162.3</ele>
        <time>2024-03-30T15:52:45.000Z</time>
      </trkpt>
      <trkpt lat="48.10269" lon="3.3032">
        <ele>162.4</ele>
        <time>2024-03-30T15:52:46.000Z</time>
      </trkpt>
      <trkpt lat="48.10269" lon="3.30317">
        <ele>162.4</ele>
        <time>2024-03-30T15:52:47.000Z</time>
      </trkpt>
      <trkpt lat="48.10268" lon="3.30314">
        <ele>162.3</ele>
        <time>2024-03-30T15:52:48.000Z</time>
      </trkpt>
      <trkpt lat="48.10267" lon="3.30311">
        <ele>162.2</ele>
        <time>2024-03-30T15:52:49.000Z</time>
      </trkpt>
      <trkpt lat="48.10267" lon="3.30308">
        <ele>162.2</ele>
        <time>2024-03-30T15:52:50.000Z</time>
      </trkpt>
      <trkpt lat="48.10267" lon="3.30304">
        <ele>162.2</ele>
        <time>2024-03-30T15:52:51.000Z</time>
      </trkpt>
      <trkpt lat="48.10267" lon="3.303">
        <ele>162.2</ele>
        <time>2024-03-30T15:52:52.000Z</time>
      </trkpt>
      <trkpt lat="48.10266" lon="3.30296">
        <ele>162.2</ele>
        <time>2024-03-30T15:52:53.000Z</time>
      </trkpt>
      <trkpt lat="48.10264" lon="3.30291">
        <ele>162</ele>
        <time>2024-03-30T15:52:54.000Z</time>
      </trkpt>
      <trkpt lat="48.10262" lon="3.30287">
        <ele>161.9</ele>
        <time>2024-03-30T15:52:55.000Z</time>
      </trkpt>
      <trkpt lat="48.10262" lon="3.30283">
        <ele>161.9</ele>
        <time>2024-03-30T15:52:56.000Z</time>
      </trkpt>
      <trkpt lat="48.10261" lon="3.3028">
        <ele>161.8</ele>
        <time>2024-03-30T15:52:57.000Z</time>
      </trkpt>
      <trkpt lat="48.10262" lon="3.30277">
        <ele>161.9</ele>
        <time>2024-03-30T15:52:58.000Z</time>
      </trkpt>
      <trkpt lat="48.10262" lon="3.30274">
        <ele>161.9</ele>
        <time>2024-03-30T15:52:59.000Z</time>
      </trkpt>
      <trkpt lat="48.1026" lon="3.3027">
        <ele>161.7</ele>
        <time>2024-03-30T15:53:00.000Z</time>
      </trkpt>
      <trkpt lat="48.10254" lon="3.30265">
        <ele>161.3</ele>
        <time>2024-03-30T15:53:02.000Z</time>
      </trkpt>
      <trkpt lat="48.10252" lon="3.30263">
        <ele>161.1</ele>
        <time>2024-03-30T15:53:03.000Z</time>
      </trkpt>
      <trkpt lat="48.1025" lon="3.30261">
        <ele>161</ele>
        <time>2024-03-30T15:53:04.000Z</time>
      </trkpt>
      <trkpt lat="48.10248" lon="3.30259">
        <ele>160.9</ele>
        <time>2024-03-30T15:53:05.000Z</time>
      </trkpt>
      <trkpt lat="48.10244" lon="3.30256">
        <ele>160.7</ele>
        <time>2024-03-30T15:53:06.000Z</time>
      </trkpt>
      <trkpt lat="48.10242" lon="3.30254">
        <ele>160.7</ele>
        <time>2024-03-30T15:53:07.000Z</time>
      </trkpt>
      <trkpt lat="48.10241" lon="3.30251">
        <ele>160.7</ele>
        <time>2024-03-30T15:53:08.000Z</time>
      </trkpt>
      <trkpt lat="48.10239" lon="3.30247">
        <ele>160.7</ele>
        <time>2024-03-30T15:53:09.000Z</time>
      </trkpt>
      <trkpt lat="48.10238" lon="3.30243">
        <ele>160.8</ele>
        <time>2024-03-30T15:53:10.000Z</time>
      </trkpt>
      <trkpt lat="48.10237" lon="3.3024">
        <ele>160.9</ele>
        <time>2024-03-30T15:53:11.000Z</time>
      </trkpt>
      <trkpt lat="48.10236" lon="3.30238">
        <ele>160.9</ele>
        <time>2024-03-30T15:53:12.000Z</time>
      </trkpt>
      <trkpt lat="48.10234" lon="3.30236">
        <ele>160.9</ele>
        <time>2024-03-30T15:53:13.000Z</time>
      </trkpt>
      <trkpt lat="48.10234" lon="3.30236">
        <ele>160.9</ele>
        <time>2024-03-30T15:53:14.000Z</time>
      </trkpt>
      <trkpt lat="48.10234" lon="3.30236">
        <ele>160.9</ele>
        <time>2024-03-30T15:53:15.000Z</time>
      </trkpt>
      <trkpt lat="48.10234" lon="3.30236">
        <ele>160.9</ele>
        <time>2024-03-30T15:53:16.000Z</time>
      </trkpt>
      <trkpt lat="48.10233" lon="3.30236">
        <ele>160.9</ele>
        <time>2024-03-30T15:53:17.000Z</time>
      </trkpt>
      <trkpt lat="48.10232" lon="3.30236">
        <ele>160.9</ele>
        <time>2024-03-30T15:53:22.000Z</time>
      </trkpt>
      <trkpt lat="48.10231" lon="3.30236">
        <ele>160.8</ele>
        <time>2024-03-30T15:53:23.000Z</time>
      </trkpt>
      <trkpt lat="48.10229" lon="3.30237">
        <ele>160.7</ele>
        <time>2024-03-30T15:53:25.000Z</time>
      </trkpt>
      <trkpt lat="48.10224" lon="3.30236">
        <ele>160.6</ele>
        <time>2024-03-30T15:53:28.000Z</time>
      </trkpt>
      <trkpt lat="48.10223" lon="3.30235">
        <ele>160.6</ele>
        <time>2024-03-30T15:53:29.000Z</time>
      </trkpt>
      <trkpt lat="48.10222" lon="3.30234">
        <ele>160.6</ele>
        <time>2024-03-30T15:53:30.000Z</time>
      </trkpt>
      <trkpt lat="48.10222" lon="3.30233">
        <ele>160.6</ele>
        <time>2024-03-30T15:53:31.000Z</time>
      </trkpt>
      <trkpt lat="48.10222" lon="3.30233">
        <ele>160.6</ele>
        <time>2024-03-30T15:53:32.000Z</time>
      </trkpt>
      <trkpt lat="48.1022" lon="3.30233">
        <ele>160.4</ele>
        <time>2024-03-30T15:53:33.000Z</time>
      </trkpt>
      <trkpt lat="48.10218" lon="3.30232">
        <ele>160.2</ele>
        <time>2024-03-30T15:53:34.000Z</time>
      </trkpt>
      <trkpt lat="48.10216" lon="3.30231">
        <ele>160</ele>
        <time>2024-03-30T15:53:35.000Z</time>
      </trkpt>
      <trkpt lat="48.10215" lon="3.3023">
        <ele>159.9</ele>
        <time>2024-03-30T15:53:36.000Z</time>
      </trkpt>
      <trkpt lat="48.10214" lon="3.30228">
        <ele>159.9</ele>
        <time>2024-03-30T15:53:37.000Z</time>
      </trkpt>
      <trkpt lat="48.10213" lon="3.30226">
        <ele>159.9</ele>
        <time>2024-03-30T15:53:38.000Z</time>
      </trkpt>
      <trkpt lat="48.10213" lon="3.30224">
        <ele>159.9</ele>
        <time>2024-03-30T15:53:39.000Z</time>
      </trkpt>
      <trkpt lat="48.10212" lon="3.30222">
        <ele>159.9</ele>
        <time>2024-03-30T15:53:40.000Z</time>
      </trkpt>
      <trkpt lat="48.10212" lon="3.3022">
        <ele>159.9</ele>
        <time>2024-03-30T15:53:41.000Z</time>
      </trkpt>
      <trkpt lat="48.10212" lon="3.30219">
        <ele>159.9</ele>
        <time>2024-03-30T15:53:42.000Z</time>
      </trkpt>
      <trkpt lat="48.10212" lon="3.30219">
        <ele>159.9</ele>
        <time>2024-03-30T15:53:45.000Z</time>
      </trkpt>
      <trkpt lat="48.10209" lon="3.30216">
        <ele>159.7</ele>
        <time>2024-03-30T15:53:48.000Z</time>
      </trkpt>
      <trkpt lat="48.10207" lon="3.30212">
        <ele>159.6</ele>
        <time>2024-03-30T15:53:51.000Z</time>
      </trkpt>
      <trkpt lat="48.10203" lon="3.30209">
        <ele>159.3</ele>
        <time>2024-03-30T15:53:53.000Z</time>
      </trkpt>
      <trkpt lat="48.10198" lon="3.30204">
        <ele>159</ele>
        <time>2024-03-30T15:53:58.000Z</time>
      </trkpt>
      <trkpt lat="48.10197" lon="3.30203">
        <ele>158.9</ele>
        <time>2024-03-30T15:53:59.000Z</time>
      </trkpt>
      <trkpt lat="48.10196" lon="3.30201">
        <ele>158.9</ele>
        <time>2024-03-30T15:54:00.000Z</time>
      </trkpt>
      <trkpt lat="48.10195" lon="3.30198">
        <ele>158.9</ele>
        <time>2024-03-30T15:54:02.000Z</time>
      </trkpt>
      <trkpt lat="48.10195" lon="3.30197">
        <ele>158.9</ele>
        <time>2024-03-30T15:54:03.000Z</time>
      </trkpt>
      <trkpt lat="48.10195" lon="3.30197">
        <ele>158.9</ele>
        <time>2024-03-30T15:54:04.000Z</time>
      </trkpt>
      <trkpt lat="48.10194" lon="3.30197">
        <ele>158.9</ele>
        <time>2024-03-30T15:54:05.000Z</time>
      </trkpt>
      <trkpt lat="48.10194" lon="3.30196">
        <ele>158.9</ele>
        <time>2024-03-30T15:54:06.000Z</time>
      </trkpt>
      <trkpt lat="48.10193" lon="3.30197">
        <ele>158.9</ele>
        <time>2024-03-30T15:54:07.000Z</time>
      </trkpt>
      <trkpt lat="48.10193" lon="3.30196">
        <ele>158.9</ele>
        <time>2024-03-30T15:54:08.000Z</time>
      </trkpt>
      <trkpt lat="48.10191" lon="3.30196">
        <ele>158.8</ele>
        <time>2024-03-30T15:54:09.000Z</time>
      </trkpt>
      <trkpt lat="48.10185" lon="3.30191">
        <ele>158.9</ele>
        <time>2024-03-30T15:54:13.000Z</time>
      </trkpt>
      <trkpt lat="48.10182" lon="3.30186">
        <ele>159</ele>
        <time>2024-03-30T15:54:15.000Z</time>
      </trkpt>
      <trkpt lat="48.10182" lon="3.30183">
        <ele>159.2</ele>
        <time>2024-03-30T15:54:16.000Z</time>
      </trkpt>
      <trkpt lat="48.10181" lon="3.30181">
        <ele>159.2</ele>
        <time>2024-03-30T15:54:17.000Z</time>
      </trkpt>
      <trkpt lat="48.1018" lon="3.30179">
        <ele>159.3</ele>
        <time>2024-03-30T15:54:18.000Z</time>
      </trkpt>
      <trkpt lat="48.10176" lon="3.30169">
        <ele>159.6</ele>
        <time>2024-03-30T15:54:22.000Z</time>
      </trkpt>
      <trkpt lat="48.10175" lon="3.30166">
        <ele>159.6</ele>
        <time>2024-03-30T15:54:23.000Z</time>
      </trkpt>
      <trkpt lat="48.10172" lon="3.30163">
        <ele>159.6</ele>
        <time>2024-03-30T15:54:24.000Z</time>
      </trkpt>
      <trkpt lat="48.1017" lon="3.30157">
        <ele>159.9</ele>
        <time>2024-03-30T15:54:26.000Z</time>
      </trkpt>
      <trkpt lat="48.10166" lon="3.30151">
        <ele>160.1</ele>
        <time>2024-03-30T15:54:28.000Z</time>
      </trkpt>
      <trkpt lat="48.10165" lon="3.30147">
        <ele>160.3</ele>
        <time>2024-03-30T15:54:29.000Z</time>
      </trkpt>
      <trkpt lat="48.10164" lon="3.30141">
        <ele>160.7</ele>
        <time>2024-03-30T15:54:31.000Z</time>
      </trkpt>
      <trkpt lat="48.10164" lon="3.30139">
        <ele>160.8</ele>
        <time>2024-03-30T15:54:32.000Z</time>
      </trkpt>
      <trkpt lat="48.10156" lon="3.30123">
        <ele>160.8</ele>
        <time>2024-03-30T15:54:38.000Z</time>
      </trkpt>
      <trkpt lat="48.10154" lon="3.30121">
        <ele>160.7</ele>
        <time>2024-03-30T15:54:39.000Z</time>
      </trkpt>
      <trkpt lat="48.10151" lon="3.3012">
        <ele>160.6</ele>
        <time>2024-03-30T15:54:40.000Z</time>
      </trkpt>
      <trkpt lat="48.10149" lon="3.30118">
        <ele>160.5</ele>
        <time>2024-03-30T15:54:41.000Z</time>
      </trkpt>
      <trkpt lat="48.10144" lon="3.30113">
        <ele>160.3</ele>
        <time>2024-03-30T15:54:44.000Z</time>
      </trkpt>
      <trkpt lat="48.10144" lon="3.3011">
        <ele>160.4</ele>
        <time>2024-03-30T15:54:45.000Z</time>
      </trkpt>
      <trkpt lat="48.10146" lon="3.30107">
        <ele>160.7</ele>
        <time>2024-03-30T15:54:47.000Z</time>
      </trkpt>
      <trkpt lat="48.10148" lon="3.30106">
        <ele>160.8</ele>
        <time>2024-03-30T15:54:48.000Z</time>
      </trkpt>
      <trkpt lat="48.10149" lon="3.30106">
        <ele>160.9</ele>
        <time>2024-03-30T15:54:49.000Z</time>
      </trkpt>
      <trkpt lat="48.10151" lon="3.30105">
        <ele>161.1</ele>
        <time>2024-03-30T15:54:50.000Z</time>
      </trkpt>
      <trkpt lat="48.10152" lon="3.30105">
        <ele>161.2</ele>
        <time>2024-03-30T15:54:51.000Z</time>
      </trkpt>
      <trkpt lat="48.10154" lon="3.30104">
        <ele>161.3</ele>
        <time>2024-03-30T15:54:52.000Z</time>
      </trkpt>
      <trkpt lat="48.10156" lon="3.30104">
        <ele>161.5</ele>
        <time>2024-03-30T15:54:53.000Z</time>
      </trkpt>
      <trkpt lat="48.10161" lon="3.30101">
        <ele>162</ele>
        <time>2024-03-30T15:54:56.000Z</time>
      </trkpt>
      <trkpt lat="48.10166" lon="3.30101">
        <ele>162.3</ele>
        <time>2024-03-30T15:54:59.000Z</time>
      </trkpt>
      <trkpt lat="48.10167" lon="3.301">
        <ele>162.4</ele>
        <time>2024-03-30T15:55:00.000Z</time>
      </trkpt>
      <trkpt lat="48.10169" lon="3.30098">
        <ele>162.6</ele>
        <time>2024-03-30T15:55:01.000Z</time>
      </trkpt>
      <trkpt lat="48.1017" lon="3.30097">
        <ele>162.6</ele>
        <time>2024-03-30T15:55:02.000Z</time>
      </trkpt>
      <trkpt lat="48.10172" lon="3.30095">
        <ele>162.8</ele>
        <time>2024-03-30T15:55:03.000Z</time>
      </trkpt>
      <trkpt lat="48.10176" lon="3.3009">
        <ele>163.1</ele>
        <time>2024-03-30T15:55:06.000Z</time>
      </trkpt>
      <trkpt lat="48.1018" lon="3.30084">
        <ele>163.5</ele>
        <time>2024-03-30T15:55:09.000Z</time>
      </trkpt>
      <trkpt lat="48.10188" lon="3.30077">
        <ele>164</ele>
        <time>2024-03-30T15:55:14.000Z</time>
      </trkpt>
      <trkpt lat="48.10189" lon="3.30076">
        <ele>164.1</ele>
        <time>2024-03-30T15:55:15.000Z</time>
      </trkpt>
      <trkpt lat="48.1019" lon="3.30075">
        <ele>164.1</ele>
        <time>2024-03-30T15:55:16.000Z</time>
      </trkpt>
      <trkpt lat="48.10192" lon="3.30073">
        <ele>164.3</ele>
        <time>2024-03-30T15:55:17.000Z</time>
      </trkpt>
      <trkpt lat="48.10193" lon="3.30072">
        <ele>164.4</ele>
        <time>2024-03-30T15:55:18.000Z</time>
      </trkpt>
      <trkpt lat="48.10195" lon="3.3007">
        <ele>164.5</ele>
        <time>2024-03-30T15:55:19.000Z</time>
      </trkpt>
      <trkpt lat="48.10197" lon="3.30069">
        <ele>164.6</ele>
        <time>2024-03-30T15:55:20.000Z</time>
      </trkpt>
      <trkpt lat="48.10198" lon="3.30067">
        <ele>164.6</ele>
        <time>2024-03-30T15:55:21.000Z</time>
      </trkpt>
      <trkpt lat="48.102" lon="3.30066">
        <ele>164.7</ele>
        <time>2024-03-30T15:55:22.000Z</time>
      </trkpt>
      <trkpt lat="48.10202" lon="3.30066">
        <ele>164.7</ele>
        <time>2024-03-30T15:55:23.000Z</time>
      </trkpt>
      <trkpt lat="48.10204" lon="3.30065">
        <ele>164.8</ele>
        <time>2024-03-30T15:55:24.000Z</time>
      </trkpt>
      <trkpt lat="48.10205" lon="3.30064">
        <ele>164.8</ele>
        <time>2024-03-30T15:55:25.000Z</time>
      </trkpt>
      <trkpt lat="48.10207" lon="3.30062">
        <ele>164.9</ele>
        <time>2024-03-30T15:55:26.000Z</time>
      </trkpt>
      <trkpt lat="48.10209" lon="3.30061">
        <ele>164.9</ele>
        <time>2024-03-30T15:55:27.000Z</time>
      </trkpt>
      <trkpt lat="48.1021" lon="3.3006">
        <ele>164.9</ele>
        <time>2024-03-30T15:55:28.000Z</time>
      </trkpt>
      <trkpt lat="48.10212" lon="3.30061">
        <ele>164.9</ele>
        <time>2024-03-30T15:55:29.000Z</time>
      </trkpt>
      <trkpt lat="48.10213" lon="3.30061">
        <ele>164.9</ele>
        <time>2024-03-30T15:55:30.000Z</time>
      </trkpt>
      <trkpt lat="48.10215" lon="3.3006">
        <ele>165</ele>
        <time>2024-03-30T15:55:31.000Z</time>
      </trkpt>
      <trkpt lat="48.10216" lon="3.30059">
        <ele>165</ele>
        <time>2024-03-30T15:55:32.000Z</time>
      </trkpt>
      <trkpt lat="48.10218" lon="3.30059">
        <ele>165</ele>
        <time>2024-03-30T15:55:33.000Z</time>
      </trkpt>
      <trkpt lat="48.1022" lon="3.30059">
        <ele>165</ele>
        <time>2024-03-30T15:55:34.000Z</time>
      </trkpt>
      <trkpt lat="48.10221" lon="3.30058">
        <ele>165</ele>
        <time>2024-03-30T15:55:35.000Z</time>
      </trkpt>
      <trkpt lat="48.10223" lon="3.30057">
        <ele>165</ele>
        <time>2024-03-30T15:55:36.000Z</time>
      </trkpt>
      <trkpt lat="48.10225" lon="3.30056">
        <ele>165</ele>
        <time>2024-03-30T15:55:37.000Z</time>
      </trkpt>
      <trkpt lat="48.10227" lon="3.30055">
        <ele>165</ele>
        <time>2024-03-30T15:55:38.000Z</time>
      </trkpt>
      <trkpt lat="48.10229" lon="3.30054">
        <ele>165</ele>
        <time>2024-03-30T15:55:39.000Z</time>
      </trkpt>
      <trkpt lat="48.10231" lon="3.30054">
        <ele>165</ele>
        <time>2024-03-30T15:55:40.000Z</time>
      </trkpt>
      <trkpt lat="48.10232" lon="3.30053">
        <ele>165</ele>
        <time>2024-03-30T15:55:41.000Z</time>
      </trkpt>
      <trkpt lat="48.10234" lon="3.30053">
        <ele>165</ele>
        <time>2024-03-30T15:55:42.000Z</time>
      </trkpt>
      <trkpt lat="48.10235" lon="3.30052">
        <ele>165</ele>
        <time>2024-03-30T15:55:43.000Z</time>
      </trkpt>
      <trkpt lat="48.10238" lon="3.30049">
        <ele>165</ele>
        <time>2024-03-30T15:55:45.000Z</time>
      </trkpt>
      <trkpt lat="48.10239" lon="3.30048">
        <ele>165</ele>
        <time>2024-03-30T15:55:46.000Z</time>
      </trkpt>
      <trkpt lat="48.10241" lon="3.30047">
        <ele>165</ele>
        <time>2024-03-30T15:55:47.000Z</time>
      </trkpt>
      <trkpt lat="48.10242" lon="3.30046">
        <ele>165</ele>
        <time>2024-03-30T15:55:48.000Z</time>
      </trkpt>
      <trkpt lat="48.10243" lon="3.30045">
        <ele>165</ele>
        <time>2024-03-30T15:55:49.000Z</time>
      </trkpt>
      <trkpt lat="48.10243" lon="3.30043">
        <ele>165</ele>
        <time>2024-03-30T15:55:50.000Z</time>
      </trkpt>
      <trkpt lat="48.10244" lon="3.30042">
        <ele>165</ele>
        <time>2024-03-30T15:55:51.000Z</time>
      </trkpt>
      <trkpt lat="48.10244" lon="3.30042">
        <ele>165</ele>
        <time>2024-03-30T15:55:54.000Z</time>
      </trkpt>
      <trkpt lat="48.10244" lon="3.30041">
        <ele>165</ele>
        <time>2024-03-30T15:55:57.000Z</time>
      </trkpt>
      <trkpt lat="48.10245" lon="3.30036">
        <ele>165</ele>
        <time>2024-03-30T15:56:00.000Z</time>
      </trkpt>
      <trkpt lat="48.10245" lon="3.30033">
        <ele>165</ele>
        <time>2024-03-30T15:56:01.000Z</time>
      </trkpt>
      <trkpt lat="48.10246" lon="3.30028">
        <ele>165</ele>
        <time>2024-03-30T15:56:03.000Z</time>
      </trkpt>
      <trkpt lat="48.10247" lon="3.30025">
        <ele>165</ele>
        <time>2024-03-30T15:56:04.000Z</time>
      </trkpt>
      <trkpt lat="48.10248" lon="3.3002">
        <ele>165</ele>
        <time>2024-03-30T15:56:06.000Z</time>
      </trkpt>
      <trkpt lat="48.10251" lon="3.29996">
        <ele>165</ele>
        <time>2024-03-30T15:56:12.000Z</time>
      </trkpt>
      <trkpt lat="48.10251" lon="3.29992">
        <ele>165</ele>
        <time>2024-03-30T15:56:13.000Z</time>
      </trkpt>
      <trkpt lat="48.10252" lon="3.29985">
        <ele>165</ele>
        <time>2024-03-30T15:56:15.000Z</time>
      </trkpt>
      <trkpt lat="48.10252" lon="3.29984">
        <ele>165</ele>
        <time>2024-03-30T15:56:16.000Z</time>
      </trkpt>
      <trkpt lat="48.10252" lon="3.29984">
        <ele>165</ele>
        <time>2024-03-30T15:56:17.000Z</time>
      </trkpt>
      <trkpt lat="48.10252" lon="3.29983">
        <ele>165</ele>
        <time>2024-03-30T15:56:18.000Z</time>
      </trkpt>
      <trkpt lat="48.10252" lon="3.29983">
        <ele>165</ele>
        <time>2024-03-30T15:56:19.000Z</time>
      </trkpt>
      <trkpt lat="48.10252" lon="3.29983">
        <ele>165</ele>
        <time>2024-03-30T15:56:25.000Z</time>
      </trkpt>
      <trkpt lat="48.10254" lon="3.29975">
        <ele>165</ele>
        <time>2024-03-30T15:56:32.000Z</time>
      </trkpt>
      <trkpt lat="48.10254" lon="3.29972">
        <ele>165</ele>
        <time>2024-03-30T15:56:33.000Z</time>
      </trkpt>
      <trkpt lat="48.10254" lon="3.29968">
        <ele>165</ele>
        <time>2024-03-30T15:56:34.000Z</time>
      </trkpt>
      <trkpt lat="48.10255" lon="3.29958">
        <ele>165</ele>
        <time>2024-03-30T15:56:37.000Z</time>
      </trkpt>
      <trkpt lat="48.10255" lon="3.29954">
        <ele>165</ele>
        <time>2024-03-30T15:56:38.000Z</time>
      </trkpt>
      <trkpt lat="48.10255" lon="3.29948">
        <ele>165</ele>
        <time>2024-03-30T15:56:39.000Z</time>
      </trkpt>
      <trkpt lat="48.10256" lon="3.2993">
        <ele>165</ele>
        <time>2024-03-30T15:56:43.000Z</time>
      </trkpt>
      <trkpt lat="48.10255" lon="3.29926">
        <ele>165</ele>
        <time>2024-03-30T15:56:44.000Z</time>
      </trkpt>
      <trkpt lat="48.10254" lon="3.29921">
        <ele>165</ele>
        <time>2024-03-30T15:56:45.000Z</time>
      </trkpt>
      <trkpt lat="48.10253" lon="3.29912">
        <ele>165</ele>
        <time>2024-03-30T15:56:47.000Z</time>
      </trkpt>
      <trkpt lat="48.10249" lon="3.29901">
        <ele>165</ele>
        <time>2024-03-30T15:56:50.000Z</time>
      </trkpt>
      <trkpt lat="48.10249" lon="3.29898">
        <ele>165</ele>
        <time>2024-03-30T15:56:51.000Z</time>
      </trkpt>
      <trkpt lat="48.10249" lon="3.29894">
        <ele>165</ele>
        <time>2024-03-30T15:56:52.000Z</time>
      </trkpt>
      <trkpt lat="48.10248" lon="3.29891">
        <ele>165</ele>
        <time>2024-03-30T15:56:53.000Z</time>
      </trkpt>
      <trkpt lat="48.10247" lon="3.29885">
        <ele>165</ele>
        <time>2024-03-30T15:56:54.000Z</time>
      </trkpt>
      <trkpt lat="48.10246" lon="3.2988">
        <ele>165</ele>
        <time>2024-03-30T15:56:55.000Z</time>
      </trkpt>
      <trkpt lat="48.10244" lon="3.29866">
        <ele>165</ele>
        <time>2024-03-30T15:56:58.000Z</time>
      </trkpt>
      <trkpt lat="48.10239" lon="3.2984">
        <ele>165</ele>
        <time>2024-03-30T15:57:03.000Z</time>
      </trkpt>
      <trkpt lat="48.10238" lon="3.29811">
        <ele>164.5</ele>
        <time>2024-03-30T15:57:08.000Z</time>
      </trkpt>
      <trkpt lat="48.10239" lon="3.29806">
        <ele>164.4</ele>
        <time>2024-03-30T15:57:09.000Z</time>
      </trkpt>
      <trkpt lat="48.10241" lon="3.29801">
        <ele>164.3</ele>
        <time>2024-03-30T15:57:10.000Z</time>
      </trkpt>
      <trkpt lat="48.10241" lon="3.29797">
        <ele>164.2</ele>
        <time>2024-03-30T15:57:11.000Z</time>
      </trkpt>
      <trkpt lat="48.10242" lon="3.29794">
        <ele>164.2</ele>
        <time>2024-03-30T15:57:12.000Z</time>
      </trkpt>
      <trkpt lat="48.10242" lon="3.29791">
        <ele>164.1</ele>
        <time>2024-03-30T15:57:13.000Z</time>
      </trkpt>
      <trkpt lat="48.10242" lon="3.29788">
        <ele>164.1</ele>
        <time>2024-03-30T15:57:14.000Z</time>
      </trkpt>
      <trkpt lat="48.10242" lon="3.29786">
        <ele>164.1</ele>
        <time>2024-03-30T15:57:15.000Z</time>
      </trkpt>
      <trkpt lat="48.10243" lon="3.29783">
        <ele>164</ele>
        <time>2024-03-30T15:57:16.000Z</time>
      </trkpt>
      <trkpt lat="48.10243" lon="3.2978">
        <ele>164</ele>
        <time>2024-03-30T15:57:17.000Z</time>
      </trkpt>
      <trkpt lat="48.10243" lon="3.29776">
        <ele>164</ele>
        <time>2024-03-30T15:57:19.000Z</time>
      </trkpt>
      <trkpt lat="48.10243" lon="3.29772">
        <ele>164</ele>
        <time>2024-03-30T15:57:20.000Z</time>
      </trkpt>
      <trkpt lat="48.10243" lon="3.29768">
        <ele>164</ele>
        <time>2024-03-30T15:57:21.000Z</time>
      </trkpt>
      <trkpt lat="48.10243" lon="3.29764">
        <ele>164</ele>
        <time>2024-03-30T15:57:22.000Z</time>
      </trkpt>
      <trkpt lat="48.10242" lon="3.29753">
        <ele>164</ele>
        <time>2024-03-30T15:57:25.000Z</time>
      </trkpt>
      <trkpt lat="48.10241" lon="3.29749">
        <ele>164</ele>
        <time>2024-03-30T15:57:26.000Z</time>
      </trkpt>
      <trkpt lat="48.10241" lon="3.29739">
        <ele>164</ele>
        <time>2024-03-30T15:57:29.000Z</time>
      </trkpt>
      <trkpt lat="48.10241" lon="3.29735">
        <ele>164</ele>
        <time>2024-03-30T15:57:30.000Z</time>
      </trkpt>
      <trkpt lat="48.10241" lon="3.29732">
        <ele>164</ele>
        <time>2024-03-30T15:57:31.000Z</time>
      </trkpt>
      <trkpt lat="48.10241" lon="3.29709">
        <ele>164.2</ele>
        <time>2024-03-30T15:57:36.000Z</time>
      </trkpt>
      <trkpt lat="48.10241" lon="3.29698">
        <ele>164.3</ele>
        <time>2024-03-30T15:57:39.000Z</time>
      </trkpt>
      <trkpt lat="48.10242" lon="3.29694">
        <ele>164.3</ele>
        <time>2024-03-30T15:57:40.000Z</time>
      </trkpt>
      <trkpt lat="48.10242" lon="3.29687">
        <ele>164.3</ele>
        <time>2024-03-30T15:57:42.000Z</time>
      </trkpt>
      <trkpt lat="48.10241" lon="3.29684">
        <ele>164.3</ele>
        <time>2024-03-30T15:57:43.000Z</time>
      </trkpt>
      <trkpt lat="48.10239" lon="3.29681">
        <ele>164.4</ele>
        <time>2024-03-30T15:57:44.000Z</time>
      </trkpt>
      <trkpt lat="48.10237" lon="3.29677">
        <ele>164.5</ele>
        <time>2024-03-30T15:57:45.000Z</time>
      </trkpt>
      <trkpt lat="48.10237" lon="3.29676">
        <ele>164.5</ele>
        <time>2024-03-30T15:57:46.000Z</time>
      </trkpt>
      <trkpt lat="48.10237" lon="3.29676">
        <ele>164.5</ele>
        <time>2024-03-30T15:57:51.000Z</time>
      </trkpt>
      <trkpt lat="48.10234" lon="3.29674">
        <ele>164.6</ele>
        <time>2024-03-30T15:58:00.000Z</time>
      </trkpt>
      <trkpt lat="48.10234" lon="3.29672">
        <ele>164.6</ele>
        <time>2024-03-30T15:58:01.000Z</time>
      </trkpt>
      <trkpt lat="48.10234" lon="3.2966">
        <ele>164.6</ele>
        <time>2024-03-30T15:58:05.000Z</time>
      </trkpt>
      <trkpt lat="48.10234" lon="3.29657">
        <ele>164.6</ele>
        <time>2024-03-30T15:58:06.000Z</time>
      </trkpt>
      <trkpt lat="48.10231" lon="3.29645">
        <ele>164.7</ele>
        <time>2024-03-30T15:58:09.000Z</time>
      </trkpt>
      <trkpt lat="48.10229" lon="3.2964">
        <ele>164.8</ele>
        <time>2024-03-30T15:58:10.000Z</time>
      </trkpt>
      <trkpt lat="48.10225" lon="3.29627">
        <ele>164.5</ele>
        <time>2024-03-30T15:58:13.000Z</time>
      </trkpt>
      <trkpt lat="48.10224" lon="3.29623">
        <ele>164.4</ele>
        <time>2024-03-30T15:58:14.000Z</time>
      </trkpt>
      <trkpt lat="48.10223" lon="3.29619">
        <ele>164.3</ele>
        <time>2024-03-30T15:58:15.000Z</time>
      </trkpt>
      <trkpt lat="48.10222" lon="3.29616">
        <ele>164.2</ele>
        <time>2024-03-30T15:58:16.000Z</time>
      </trkpt>
      <trkpt lat="48.10221" lon="3.29612">
        <ele>164.1</ele>
        <time>2024-03-30T15:58:17.000Z</time>
      </trkpt>
      <trkpt lat="48.10221" lon="3.29608">
        <ele>164</ele>
        <time>2024-03-30T15:58:18.000Z</time>
      </trkpt>
      <trkpt lat="48.10218" lon="3.29599">
        <ele>164.2</ele>
        <time>2024-03-30T15:58:20.000Z</time>
      </trkpt>
      <trkpt lat="48.10217" lon="3.29595">
        <ele>164.2</ele>
        <time>2024-03-30T15:58:21.000Z</time>
      </trkpt>
      <trkpt lat="48.10216" lon="3.29592">
        <ele>164.2</ele>
        <time>2024-03-30T15:58:22.000Z</time>
      </trkpt>
      <trkpt lat="48.10213" lon="3.29588">
        <ele>164.3</ele>
        <time>2024-03-30T15:58:23.000Z</time>
      </trkpt>
      <trkpt lat="48.10211" lon="3.29586">
        <ele>164.4</ele>
        <time>2024-03-30T15:58:24.000Z</time>
      </trkpt>
      <trkpt lat="48.1021" lon="3.29584">
        <ele>164.4</ele>
        <time>2024-03-30T15:58:25.000Z</time>
      </trkpt>
      <trkpt lat="48.10201" lon="3.29578">
        <ele>164.8</ele>
        <time>2024-03-30T15:58:29.000Z</time>
      </trkpt>
      <trkpt lat="48.10199" lon="3.29574">
        <ele>164.8</ele>
        <time>2024-03-30T15:58:30.000Z</time>
      </trkpt>
      <trkpt lat="48.10199" lon="3.29574">
        <ele>164.8</ele>
        <time>2024-03-30T15:58:32.000Z</time>
      </trkpt>
      <trkpt lat="48.10199" lon="3.29574">
        <ele>164.8</ele>
        <time>2024-03-30T15:58:41.000Z</time>
      </trkpt>
      <trkpt lat="48.10199" lon="3.29574">
        <ele>164.8</ele>
        <time>2024-03-30T15:58:42.000Z</time>
      </trkpt>
      <trkpt lat="48.10199" lon="3.29574">
        <ele>164.8</ele>
        <time>2024-03-30T15:58:48.000Z</time>
      </trkpt>
      <trkpt lat="48.10199" lon="3.29574">
        <ele>164.8</ele>
        <time>2024-03-30T15:58:53.000Z</time>
      </trkpt>
      <trkpt lat="48.10198" lon="3.29575">
        <ele>164.9</ele>
        <time>2024-03-30T15:58:55.000Z</time>
      </trkpt>
      <trkpt lat="48.10197" lon="3.29576">
        <ele>164.9</ele>
        <time>2024-03-30T15:58:57.000Z</time>
      </trkpt>
      <trkpt lat="48.10197" lon="3.29576">
        <ele>164.9</ele>
        <time>2024-03-30T15:58:58.000Z</time>
      </trkpt>
      <trkpt lat="48.10197" lon="3.29576">
        <ele>164.9</ele>
        <time>2024-03-30T15:59:05.000Z</time>
      </trkpt>
      <trkpt lat="48.10197" lon="3.29576">
        <ele>164.9</ele>
        <time>2024-03-30T15:59:14.000Z</time>
      </trkpt>
      <trkpt lat="48.10197" lon="3.29576">
        <ele>164.9</ele>
        <time>2024-03-30T15:59:17.000Z</time>
      </trkpt>
      <trkpt lat="48.10197" lon="3.29576">
        <ele>164.9</ele>
        <time>2024-03-30T15:59:23.000Z</time>
      </trkpt>
      <trkpt lat="48.10197" lon="3.29576">
        <ele>164.9</ele>
        <time>2024-03-30T15:59:26.000Z</time>
      </trkpt>
      <trkpt lat="48.10197" lon="3.29576">
        <ele>164.9</ele>
        <time>2024-03-30T15:59:35.000Z</time>
      </trkpt>
      <trkpt lat="48.10197" lon="3.29575">
        <ele>164.9</ele>
        <time>2024-03-30T15:59:43.000Z</time>
      </trkpt>
      <trkpt lat="48.10195" lon="3.29575">
        <ele>165</ele>
        <time>2024-03-30T15:59:46.000Z</time>
      </trkpt>
      <trkpt lat="48.10189" lon="3.29572">
        <ele>165</ele>
        <time>2024-03-30T15:59:49.000Z</time>
      </trkpt>
      <trkpt lat="48.10185" lon="3.2957">
        <ele>165</ele>
        <time>2024-03-30T15:59:51.000Z</time>
      </trkpt>
      <trkpt lat="48.10183" lon="3.29567">
        <ele>165</ele>
        <time>2024-03-30T15:59:52.000Z</time>
      </trkpt>
      <trkpt lat="48.1018" lon="3.29565">
        <ele>165</ele>
        <time>2024-03-30T15:59:53.000Z</time>
      </trkpt>
      <trkpt lat="48.10178" lon="3.29561">
        <ele>165</ele>
        <time>2024-03-30T15:59:55.000Z</time>
      </trkpt>
      <trkpt lat="48.10177" lon="3.29558">
        <ele>165</ele>
        <time>2024-03-30T15:59:56.000Z</time>
      </trkpt>
      <trkpt lat="48.10177" lon="3.29556">
        <ele>165</ele>
        <time>2024-03-30T15:59:57.000Z</time>
      </trkpt>
      <trkpt lat="48.1017" lon="3.29548">
        <ele>165</ele>
        <time>2024-03-30T16:00:00.000Z</time>
      </trkpt>
      <trkpt lat="48.10167" lon="3.29545">
        <ele>165</ele>
        <time>2024-03-30T16:00:01.000Z</time>
      </trkpt>
      <trkpt lat="48.10163" lon="3.29543">
        <ele>165</ele>
        <time>2024-03-30T16:00:02.000Z</time>
      </trkpt>
      <trkpt lat="48.1016" lon="3.29538">
        <ele>165</ele>
        <time>2024-03-30T16:00:04.000Z</time>
      </trkpt>
      <trkpt lat="48.1016" lon="3.29535">
        <ele>165</ele>
        <time>2024-03-30T16:00:05.000Z</time>
      </trkpt>
      <trkpt lat="48.10159" lon="3.29533">
        <ele>165</ele>
        <time>2024-03-30T16:00:06.000Z</time>
      </trkpt>
      <trkpt lat="48.10159" lon="3.29532">
        <ele>165</ele>
        <time>2024-03-30T16:00:07.000Z</time>
      </trkpt>
      <trkpt lat="48.10159" lon="3.29532">
        <ele>165</ele>
        <time>2024-03-30T16:00:08.000Z</time>
      </trkpt>
      <trkpt lat="48.10158" lon="3.29531">
        <ele>165</ele>
        <time>2024-03-30T16:00:09.000Z</time>
      </trkpt>
      <trkpt lat="48.10158" lon="3.2953">
        <ele>165</ele>
        <time>2024-03-30T16:00:10.000Z</time>
      </trkpt>
      <trkpt lat="48.10157" lon="3.29523">
        <ele>165</ele>
        <time>2024-03-30T16:00:13.000Z</time>
      </trkpt>
      <trkpt lat="48.10157" lon="3.29522">
        <ele>165</ele>
        <time>2024-03-30T16:00:14.000Z</time>
      </trkpt>
      <trkpt lat="48.10156" lon="3.29521">
        <ele>165</ele>
        <time>2024-03-30T16:00:15.000Z</time>
      </trkpt>
      <trkpt lat="48.10156" lon="3.29521">
        <ele>165</ele>
        <time>2024-03-30T16:00:16.000Z</time>
      </trkpt>
      <trkpt lat="48.10155" lon="3.29521">
        <ele>165</ele>
        <time>2024-03-30T16:00:17.000Z</time>
      </trkpt>
      <trkpt lat="48.10155" lon="3.29521">
        <ele>165</ele>
        <time>2024-03-30T16:00:18.000Z</time>
      </trkpt>
      <trkpt lat="48.10155" lon="3.29521">
        <ele>165</ele>
        <time>2024-03-30T16:00:24.000Z</time>
      </trkpt>
      <trkpt lat="48.10155" lon="3.29521">
        <ele>165</ele>
        <time>2024-03-30T16:00:33.000Z</time>
      </trkpt>
      <trkpt lat="48.10153" lon="3.2952">
        <ele>165</ele>
        <time>2024-03-30T16:00:41.000Z</time>
      </trkpt>
      <trkpt lat="48.10149" lon="3.2952">
        <ele>165</ele>
        <time>2024-03-30T16:00:43.000Z</time>
      </trkpt>
      <trkpt lat="48.1014" lon="3.2952">
        <ele>165</ele>
        <time>2024-03-30T16:00:46.000Z</time>
      </trkpt>
      <trkpt lat="48.10136" lon="3.2952">
        <ele>164.9</ele>
        <time>2024-03-30T16:00:47.000Z</time>
      </trkpt>
      <trkpt lat="48.10133" lon="3.29519">
        <ele>164.8</ele>
        <time>2024-03-30T16:00:48.000Z</time>
      </trkpt>
      <trkpt lat="48.10131" lon="3.29519">
        <ele>164.7</ele>
        <time>2024-03-30T16:00:49.000Z</time>
      </trkpt>
      <trkpt lat="48.10115" lon="3.29516">
        <ele>164.1</ele>
        <time>2024-03-30T16:00:53.000Z</time>
      </trkpt>
      <trkpt lat="48.10112" lon="3.29514">
        <ele>164</ele>
        <time>2024-03-30T16:00:54.000Z</time>
      </trkpt>
      <trkpt lat="48.10108" lon="3.29513">
        <ele>164</ele>
        <time>2024-03-30T16:00:55.000Z</time>
      </trkpt>
      <trkpt lat="48.10104" lon="3.29512">
        <ele>164</ele>
        <time>2024-03-30T16:00:56.000Z</time>
      </trkpt>
      <trkpt lat="48.10083" lon="3.29506">
        <ele>164</ele>
        <time>2024-03-30T16:01:01.000Z</time>
      </trkpt>
      <trkpt lat="48.10065" lon="3.29505">
        <ele>163.3</ele>
        <time>2024-03-30T16:01:04.000Z</time>
      </trkpt>
      <trkpt lat="48.10062" lon="3.29503">
        <ele>163.2</ele>
        <time>2024-03-30T16:01:05.000Z</time>
      </trkpt>
      <trkpt lat="48.10061" lon="3.29504">
        <ele>163.2</ele>
        <time>2024-03-30T16:01:06.000Z</time>
      </trkpt>
      <trkpt lat="48.10059" lon="3.29504">
        <ele>163.1</ele>
        <time>2024-03-30T16:01:07.000Z</time>
      </trkpt>
      <trkpt lat="48.10058" lon="3.29503">
        <ele>163.1</ele>
        <time>2024-03-30T16:01:08.000Z</time>
      </trkpt>
      <trkpt lat="48.10056" lon="3.29502">
        <ele>163</ele>
        <time>2024-03-30T16:01:09.000Z</time>
      </trkpt>
      <trkpt lat="48.10055" lon="3.29501">
        <ele>163</ele>
        <time>2024-03-30T16:01:11.000Z</time>
      </trkpt>
      <trkpt lat="48.10055" lon="3.29501">
        <ele>163</ele>
        <time>2024-03-30T16:01:20.000Z</time>
      </trkpt>
      <trkpt lat="48.10056" lon="3.29501">
        <ele>163</ele>
        <time>2024-03-30T16:01:28.000Z</time>
      </trkpt>
      <trkpt lat="48.10056" lon="3.29501">
        <ele>163</ele>
        <time>2024-03-30T16:01:38.000Z</time>
      </trkpt>
      <trkpt lat="48.10056" lon="3.29501">
        <ele>163</ele>
        <time>2024-03-30T16:01:51.000Z</time>
      </trkpt>
      <trkpt lat="48.10056" lon="3.29501">
        <ele>163</ele>
        <time>2024-03-30T16:02:06.000Z</time>
      </trkpt>
      <trkpt lat="48.10056" lon="3.29501">
        <ele>163</ele>
        <time>2024-03-30T16:02:15.000Z</time>
      </trkpt>
      <trkpt lat="48.10056" lon="3.29501">
        <ele>163</ele>
        <time>2024-03-30T16:02:22.000Z</time>
      </trkpt>
      <trkpt lat="48.10056" lon="3.29501">
        <ele>163</ele>
        <time>2024-03-30T16:02:36.000Z</time>
      </trkpt>
      <trkpt lat="48.10056" lon="3.29501">
        <ele>163</ele>
        <time>2024-03-30T16:02:58.000Z</time>
      </trkpt>
      <trkpt lat="48.10054" lon="3.29502">
        <ele>162.9</ele>
        <time>2024-03-30T16:03:18.000Z</time>
      </trkpt>
      <trkpt lat="48.10052" lon="3.29504">
        <ele>162.9</ele>
        <time>2024-03-30T16:03:19.000Z</time>
      </trkpt>
      <trkpt lat="48.10052" lon="3.29506">
        <ele>162.9</ele>
        <time>2024-03-30T16:03:20.000Z</time>
      </trkpt>
      <trkpt lat="48.1005" lon="3.29509">
        <ele>162.8</ele>
        <time>2024-03-30T16:03:21.000Z</time>
      </trkpt>
      <trkpt lat="48.10049" lon="3.29513">
        <ele>162.8</ele>
        <time>2024-03-30T16:03:22.000Z</time>
      </trkpt>
      <trkpt lat="48.10048" lon="3.29516">
        <ele>162.7</ele>
        <time>2024-03-30T16:03:23.000Z</time>
      </trkpt>
      <trkpt lat="48.10047" lon="3.2952">
        <ele>162.7</ele>
        <time>2024-03-30T16:03:24.000Z</time>
      </trkpt>
      <trkpt lat="48.10042" lon="3.29527">
        <ele>162.5</ele>
        <time>2024-03-30T16:03:26.000Z</time>
      </trkpt>
      <trkpt lat="48.10035" lon="3.29541">
        <ele>162.3</ele>
        <time>2024-03-30T16:03:30.000Z</time>
      </trkpt>
      <trkpt lat="48.10033" lon="3.29547">
        <ele>162.2</ele>
        <time>2024-03-30T16:03:32.000Z</time>
      </trkpt>
      <trkpt lat="48.10033" lon="3.29548">
        <ele>162.2</ele>
        <time>2024-03-30T16:03:33.000Z</time>
      </trkpt>
      <trkpt lat="48.10033" lon="3.29548">
        <ele>162.2</ele>
        <time>2024-03-30T16:03:34.000Z</time>
      </trkpt>
      <trkpt lat="48.10033" lon="3.29548">
        <ele>162.2</ele>
        <time>2024-03-30T16:03:35.000Z</time>
      </trkpt>
      <trkpt lat="48.10033" lon="3.29548">
        <ele>162.2</ele>
        <time>2024-03-30T16:03:36.000Z</time>
      </trkpt>
      <trkpt lat="48.10032" lon="3.29549">
        <ele>162.2</ele>
        <time>2024-03-30T16:03:37.000Z</time>
      </trkpt>
      <trkpt lat="48.10032" lon="3.2955">
        <ele>162.2</ele>
        <time>2024-03-30T16:03:38.000Z</time>
      </trkpt>
      <trkpt lat="48.10031" lon="3.29551">
        <ele>162.1</ele>
        <time>2024-03-30T16:03:39.000Z</time>
      </trkpt>
      <trkpt lat="48.1003" lon="3.29552">
        <ele>162.1</ele>
        <time>2024-03-30T16:03:40.000Z</time>
      </trkpt>
      <trkpt lat="48.1003" lon="3.29552">
        <ele>162.1</ele>
        <time>2024-03-30T16:03:41.000Z</time>
      </trkpt>
      <trkpt lat="48.10029" lon="3.29553">
        <ele>162</ele>
        <time>2024-03-30T16:03:42.000Z</time>
      </trkpt>
      <trkpt lat="48.10029" lon="3.29553">
        <ele>162</ele>
        <time>2024-03-30T16:03:43.000Z</time>
      </trkpt>
      <trkpt lat="48.10029" lon="3.29554">
        <ele>162</ele>
        <time>2024-03-30T16:03:45.000Z</time>
      </trkpt>
      <trkpt lat="48.1003" lon="3.29558">
        <ele>162.1</ele>
        <time>2024-03-30T16:03:49.000Z</time>
      </trkpt>
      <trkpt lat="48.10029" lon="3.29565">
        <ele>162</ele>
        <time>2024-03-30T16:03:52.000Z</time>
      </trkpt>
      <trkpt lat="48.10029" lon="3.29567">
        <ele>162</ele>
        <time>2024-03-30T16:03:53.000Z</time>
      </trkpt>
      <trkpt lat="48.10028" lon="3.29569">
        <ele>162</ele>
        <time>2024-03-30T16:03:54.000Z</time>
      </trkpt>
      <trkpt lat="48.10028" lon="3.29571">
        <ele>162</ele>
        <time>2024-03-30T16:03:55.000Z</time>
      </trkpt>
      <trkpt lat="48.10028" lon="3.29573">
        <ele>162</ele>
        <time>2024-03-30T16:03:56.000Z</time>
      </trkpt>
      <trkpt lat="48.10029" lon="3.29575">
        <ele>162</ele>
        <time>2024-03-30T16:03:57.000Z</time>
      </trkpt>
      <trkpt lat="48.1003" lon="3.29578">
        <ele>162.1</ele>
        <time>2024-03-30T16:03:58.000Z</time>
      </trkpt>
      <trkpt lat="48.10033" lon="3.29586">
        <ele>162.2</ele>
        <time>2024-03-30T16:04:01.000Z</time>
      </trkpt>
      <trkpt lat="48.10033" lon="3.29588">
        <ele>162.2</ele>
        <time>2024-03-30T16:04:02.000Z</time>
      </trkpt>
      <trkpt lat="48.10035" lon="3.29593">
        <ele>162.3</ele>
        <time>2024-03-30T16:04:06.000Z</time>
      </trkpt>
      <trkpt lat="48.10036" lon="3.29594">
        <ele>162.3</ele>
        <time>2024-03-30T16:04:07.000Z</time>
      </trkpt>
      <trkpt lat="48.10037" lon="3.29595">
        <ele>162.3</ele>
        <time>2024-03-30T16:04:08.000Z</time>
      </trkpt>
      <trkpt lat="48.10039" lon="3.29598">
        <ele>162.4</ele>
        <time>2024-03-30T16:04:09.000Z</time>
      </trkpt>
      <trkpt lat="48.10041" lon="3.29599">
        <ele>162.5</ele>
        <time>2024-03-30T16:04:10.000Z</time>
      </trkpt>
      <trkpt lat="48.10042" lon="3.29601">
        <ele>162.5</ele>
        <time>2024-03-30T16:04:11.000Z</time>
      </trkpt>
      <trkpt lat="48.10045" lon="3.29604">
        <ele>162.6</ele>
        <time>2024-03-30T16:04:13.000Z</time>
      </trkpt>
      <trkpt lat="48.10046" lon="3.29605">
        <ele>162.7</ele>
        <time>2024-03-30T16:04:14.000Z</time>
      </trkpt>
      <trkpt lat="48.10048" lon="3.29607">
        <ele>162.7</ele>
        <time>2024-03-30T16:04:15.000Z</time>
      </trkpt>
      <trkpt lat="48.10049" lon="3.29608">
        <ele>162.8</ele>
        <time>2024-03-30T16:04:16.000Z</time>
      </trkpt>
      <trkpt lat="48.1005" lon="3.29609">
        <ele>162.8</ele>
        <time>2024-03-30T16:04:17.000Z</time>
      </trkpt>
      <trkpt lat="48.1005" lon="3.29612">
        <ele>162.8</ele>
        <time>2024-03-30T16:04:18.000Z</time>
      </trkpt>
      <trkpt lat="48.10051" lon="3.29613">
        <ele>162.8</ele>
        <time>2024-03-30T16:04:19.000Z</time>
      </trkpt>
      <trkpt lat="48.10052" lon="3.29615">
        <ele>162.9</ele>
        <time>2024-03-30T16:04:20.000Z</time>
      </trkpt>
      <trkpt lat="48.10053" lon="3.29616">
        <ele>162.9</ele>
        <time>2024-03-30T16:04:21.000Z</time>
      </trkpt>
      <trkpt lat="48.10055" lon="3.29618">
        <ele>163</ele>
        <time>2024-03-30T16:04:22.000Z</time>
      </trkpt>
      <trkpt lat="48.10055" lon="3.29618">
        <ele>163</ele>
        <time>2024-03-30T16:04:23.000Z</time>
      </trkpt>
      <trkpt lat="48.10055" lon="3.29618">
        <ele>163</ele>
        <time>2024-03-30T16:04:24.000Z</time>
      </trkpt>
      <trkpt lat="48.10055" lon="3.29618">
        <ele>163</ele>
        <time>2024-03-30T16:04:26.000Z</time>
      </trkpt>
      <trkpt lat="48.10055" lon="3.29618">
        <ele>163</ele>
        <time>2024-03-30T16:04:28.000Z</time>
      </trkpt>
      <trkpt lat="48.10054" lon="3.2962">
        <ele>162.9</ele>
        <time>2024-03-30T16:04:35.000Z</time>
      </trkpt>
      <trkpt lat="48.10054" lon="3.2962">
        <ele>162.9</ele>
        <time>2024-03-30T16:04:36.000Z</time>
      </trkpt>
      <trkpt lat="48.10052" lon="3.29621">
        <ele>162.9</ele>
        <time>2024-03-30T16:04:38.000Z</time>
      </trkpt>
      <trkpt lat="48.1005" lon="3.29621">
        <ele>162.8</ele>
        <time>2024-03-30T16:04:39.000Z</time>
      </trkpt>
      <trkpt lat="48.10049" lon="3.29622">
        <ele>162.8</ele>
        <time>2024-03-30T16:04:40.000Z</time>
      </trkpt>
      <trkpt lat="48.10045" lon="3.29621">
        <ele>162.6</ele>
        <time>2024-03-30T16:04:42.000Z</time>
      </trkpt>
      <trkpt lat="48.1004" lon="3.29623">
        <ele>162.4</ele>
        <time>2024-03-30T16:04:45.000Z</time>
      </trkpt>
      <trkpt lat="48.10037" lon="3.29624">
        <ele>162.3</ele>
        <time>2024-03-30T16:04:46.000Z</time>
      </trkpt>
      <trkpt lat="48.10029" lon="3.29626">
        <ele>162</ele>
        <time>2024-03-30T16:04:49.000Z</time>
      </trkpt>
      <trkpt lat="48.10027" lon="3.29626">
        <ele>162</ele>
        <time>2024-03-30T16:04:50.000Z</time>
      </trkpt>
      <trkpt lat="48.10023" lon="3.29625">
        <ele>161.8</ele>
        <time>2024-03-30T16:04:52.000Z</time>
      </trkpt>
      <trkpt lat="48.10022" lon="3.29624">
        <ele>161.8</ele>
        <time>2024-03-30T16:04:53.000Z</time>
      </trkpt>
      <trkpt lat="48.10019" lon="3.29622">
        <ele>161.7</ele>
        <time>2024-03-30T16:04:54.000Z</time>
      </trkpt>
      <trkpt lat="48.10016" lon="3.29622">
        <ele>161.6</ele>
        <time>2024-03-30T16:04:56.000Z</time>
      </trkpt>
      <trkpt lat="48.10014" lon="3.29621">
        <ele>161.5</ele>
        <time>2024-03-30T16:04:57.000Z</time>
      </trkpt>
      <trkpt lat="48.10013" lon="3.29621">
        <ele>161.5</ele>
        <time>2024-03-30T16:04:58.000Z</time>
      </trkpt>
      <trkpt lat="48.10012" lon="3.2962">
        <ele>161.4</ele>
        <time>2024-03-30T16:04:59.000Z</time>
      </trkpt>
      <trkpt lat="48.10012" lon="3.2962">
        <ele>161.4</ele>
        <time>2024-03-30T16:05:00.000Z</time>
      </trkpt>
      <trkpt lat="48.10012" lon="3.29619">
        <ele>161.4</ele>
        <time>2024-03-30T16:05:01.000Z</time>
      </trkpt>
      <trkpt lat="48.10011" lon="3.29619">
        <ele>161.4</ele>
        <time>2024-03-30T16:05:02.000Z</time>
      </trkpt>
      <trkpt lat="48.10011" lon="3.29619">
        <ele>161.4</ele>
        <time>2024-03-30T16:05:03.000Z</time>
      </trkpt>
      <trkpt lat="48.10009" lon="3.29617">
        <ele>161.3</ele>
        <time>2024-03-30T16:05:04.000Z</time>
      </trkpt>
      <trkpt lat="48.10007" lon="3.29617">
        <ele>161.3</ele>
        <time>2024-03-30T16:05:05.000Z</time>
      </trkpt>
      <trkpt lat="48.10007" lon="3.29617">
        <ele>161.3</ele>
        <time>2024-03-30T16:05:06.000Z</time>
      </trkpt>
      <trkpt lat="48.10006" lon="3.29616">
        <ele>161.2</ele>
        <time>2024-03-30T16:05:07.000Z</time>
      </trkpt>
      <trkpt lat="48.10005" lon="3.29616">
        <ele>161.2</ele>
        <time>2024-03-30T16:05:08.000Z</time>
      </trkpt>
      <trkpt lat="48.10004" lon="3.29615">
        <ele>161.1</ele>
        <time>2024-03-30T16:05:09.000Z</time>
      </trkpt>
      <trkpt lat="48.10002" lon="3.29613">
        <ele>161.1</ele>
        <time>2024-03-30T16:05:10.000Z</time>
      </trkpt>
      <trkpt lat="48.09994" lon="3.2961">
        <ele>159.9</ele>
        <time>2024-03-30T16:05:13.000Z</time>
      </trkpt>
      <trkpt lat="48.09991" lon="3.29611">
        <ele>159.4</ele>
        <time>2024-03-30T16:05:14.000Z</time>
      </trkpt>
      <trkpt lat="48.09989" lon="3.29611">
        <ele>159</ele>
        <time>2024-03-30T16:05:15.000Z</time>
      </trkpt>
      <trkpt lat="48.09987" lon="3.2961">
        <ele>158.7</ele>
        <time>2024-03-30T16:05:16.000Z</time>
      </trkpt>
      <trkpt lat="48.09985" lon="3.29608">
        <ele>158.3</ele>
        <time>2024-03-30T16:05:17.000Z</time>
      </trkpt>
      <trkpt lat="48.09983" lon="3.29606">
        <ele>157.9</ele>
        <time>2024-03-30T16:05:18.000Z</time>
      </trkpt>
      <trkpt lat="48.09982" lon="3.29603">
        <ele>157.8</ele>
        <time>2024-03-30T16:05:19.000Z</time>
      </trkpt>
      <trkpt lat="48.09981" lon="3.296">
        <ele>157.6</ele>
        <time>2024-03-30T16:05:20.000Z</time>
      </trkpt>
      <trkpt lat="48.09981" lon="3.29598">
        <ele>157.6</ele>
        <time>2024-03-30T16:05:21.000Z</time>
      </trkpt>
      <trkpt lat="48.0998" lon="3.29597">
        <ele>157.4</ele>
        <time>2024-03-30T16:05:22.000Z</time>
      </trkpt>
      <trkpt lat="48.09978" lon="3.29596">
        <ele>157</ele>
        <time>2024-03-30T16:05:23.000Z</time>
      </trkpt>
      <trkpt lat="48.09975" lon="3.29594">
        <ele>156.5</ele>
        <time>2024-03-30T16:05:24.000Z</time>
      </trkpt>
      <trkpt lat="48.09971" lon="3.29593">
        <ele>155.8</ele>
        <time>2024-03-30T16:05:25.000Z</time>
      </trkpt>
      <trkpt lat="48.09969" lon="3.29593">
        <ele>155.4</ele>
        <time>2024-03-30T16:05:26.000Z</time>
      </trkpt>
      <trkpt lat="48.09967" lon="3.2959">
        <ele>155.1</ele>
        <time>2024-03-30T16:05:28.000Z</time>
      </trkpt>
      <trkpt lat="48.09966" lon="3.29587">
        <ele>154.9</ele>
        <time>2024-03-30T16:05:29.000Z</time>
      </trkpt>
      <trkpt lat="48.09966" lon="3.29585">
        <ele>154.9</ele>
        <time>2024-03-30T16:05:30.000Z</time>
      </trkpt>
      <trkpt lat="48.09965" lon="3.29582">
        <ele>154.7</ele>
        <time>2024-03-30T16:05:31.000Z</time>
      </trkpt>
      <trkpt lat="48.09964" lon="3.29579">
        <ele>154.5</ele>
        <time>2024-03-30T16:05:32.000Z</time>
      </trkpt>
      <trkpt lat="48.09963" lon="3.29575">
        <ele>154.3</ele>
        <time>2024-03-30T16:05:34.000Z</time>
      </trkpt>
      <trkpt lat="48.09965" lon="3.29574">
        <ele>154.7</ele>
        <time>2024-03-30T16:05:35.000Z</time>
      </trkpt>
      <trkpt lat="48.09966" lon="3.29571">
        <ele>154.9</ele>
        <time>2024-03-30T16:05:36.000Z</time>
      </trkpt>
      <trkpt lat="48.09966" lon="3.29571">
        <ele>154.9</ele>
        <time>2024-03-30T16:05:37.000Z</time>
      </trkpt>
      <trkpt lat="48.09966" lon="3.29571">
        <ele>154.9</ele>
        <time>2024-03-30T16:05:38.000Z</time>
      </trkpt>
      <trkpt lat="48.09966" lon="3.29571">
        <ele>154.9</ele>
        <time>2024-03-30T16:05:39.000Z</time>
      </trkpt>
      <trkpt lat="48.09965" lon="3.29568">
        <ele>154.7</ele>
        <time>2024-03-30T16:05:41.000Z</time>
      </trkpt>
      <trkpt lat="48.09965" lon="3.29566">
        <ele>154.7</ele>
        <time>2024-03-30T16:05:42.000Z</time>
      </trkpt>
      <trkpt lat="48.09964" lon="3.29561">
        <ele>154.5</ele>
        <time>2024-03-30T16:05:44.000Z</time>
      </trkpt>
      <trkpt lat="48.09964" lon="3.29559">
        <ele>154.5</ele>
        <time>2024-03-30T16:05:45.000Z</time>
      </trkpt>
      <trkpt lat="48.09962" lon="3.29558">
        <ele>154.2</ele>
        <time>2024-03-30T16:05:46.000Z</time>
      </trkpt>
      <trkpt lat="48.09961" lon="3.29557">
        <ele>154</ele>
        <time>2024-03-30T16:05:47.000Z</time>
      </trkpt>
      <trkpt lat="48.09959" lon="3.29556">
        <ele>153.6</ele>
        <time>2024-03-30T16:05:49.000Z</time>
      </trkpt>
      <trkpt lat="48.0996" lon="3.29549">
        <ele>153.7</ele>
        <time>2024-03-30T16:05:52.000Z</time>
      </trkpt>
      <trkpt lat="48.0996" lon="3.29547">
        <ele>153.7</ele>
        <time>2024-03-30T16:05:53.000Z</time>
      </trkpt>
      <trkpt lat="48.09962" lon="3.29543">
        <ele>154</ele>
        <time>2024-03-30T16:05:55.000Z</time>
      </trkpt>
      <trkpt lat="48.09964" lon="3.29535">
        <ele>154.3</ele>
        <time>2024-03-30T16:05:58.000Z</time>
      </trkpt>
      <trkpt lat="48.09965" lon="3.29529">
        <ele>154.5</ele>
        <time>2024-03-30T16:06:00.000Z</time>
      </trkpt>
      <trkpt lat="48.09968" lon="3.29511">
        <ele>153.8</ele>
        <time>2024-03-30T16:06:06.000Z</time>
      </trkpt>
      <trkpt lat="48.09968" lon="3.29509">
        <ele>153.6</ele>
        <time>2024-03-30T16:06:07.000Z</time>
      </trkpt>
      <trkpt lat="48.09967" lon="3.29506">
        <ele>153.2</ele>
        <time>2024-03-30T16:06:08.000Z</time>
      </trkpt>
      <trkpt lat="48.09966" lon="3.295">
        <ele>152.4</ele>
        <time>2024-03-30T16:06:10.000Z</time>
      </trkpt>
      <trkpt lat="48.09967" lon="3.29498">
        <ele>152.4</ele>
        <time>2024-03-30T16:06:11.000Z</time>
      </trkpt>
      <trkpt lat="48.09967" lon="3.29495">
        <ele>152</ele>
        <time>2024-03-30T16:06:12.000Z</time>
      </trkpt>
      <trkpt lat="48.09968" lon="3.29491">
        <ele>151.7</ele>
        <time>2024-03-30T16:06:13.000Z</time>
      </trkpt>
      <trkpt lat="48.09968" lon="3.29488">
        <ele>151.3</ele>
        <time>2024-03-30T16:06:14.000Z</time>
      </trkpt>
      <trkpt lat="48.09968" lon="3.29485">
        <ele>150.9</ele>
        <time>2024-03-30T16:06:15.000Z</time>
      </trkpt>
      <trkpt lat="48.09968" lon="3.29482">
        <ele>150.4</ele>
        <time>2024-03-30T16:06:16.000Z</time>
      </trkpt>
      <trkpt lat="48.09969" lon="3.29479">
        <ele>150.3</ele>
        <time>2024-03-30T16:06:17.000Z</time>
      </trkpt>
      <trkpt lat="48.09969" lon="3.29477">
        <ele>150</ele>
        <time>2024-03-30T16:06:18.000Z</time>
      </trkpt>
      <trkpt lat="48.0997" lon="3.29475">
        <ele>149.9</ele>
        <time>2024-03-30T16:06:19.000Z</time>
      </trkpt>
      <trkpt lat="48.09972" lon="3.29474">
        <ele>150.2</ele>
        <time>2024-03-30T16:06:20.000Z</time>
      </trkpt>
      <trkpt lat="48.09973" lon="3.29472">
        <ele>150.2</ele>
        <time>2024-03-30T16:06:21.000Z</time>
      </trkpt>
      <trkpt lat="48.09975" lon="3.29471">
        <ele>150.6</ele>
        <time>2024-03-30T16:06:22.000Z</time>
      </trkpt>
      <trkpt lat="48.09975" lon="3.2947">
        <ele>150.5</ele>
        <time>2024-03-30T16:06:23.000Z</time>
      </trkpt>
      <trkpt lat="48.09977" lon="3.29469">
        <ele>151</ele>
        <time>2024-03-30T16:06:24.000Z</time>
      </trkpt>
      <trkpt lat="48.09978" lon="3.29468">
        <ele>151.2</ele>
        <time>2024-03-30T16:06:25.000Z</time>
      </trkpt>
      <trkpt lat="48.09979" lon="3.29468">
        <ele>151.4</ele>
        <time>2024-03-30T16:06:26.000Z</time>
      </trkpt>
      <trkpt lat="48.09981" lon="3.29468">
        <ele>151.9</ele>
        <time>2024-03-30T16:06:27.000Z</time>
      </trkpt>
      <trkpt lat="48.09982" lon="3.29467">
        <ele>152.1</ele>
        <time>2024-03-30T16:06:28.000Z</time>
      </trkpt>
      <trkpt lat="48.09983" lon="3.29466">
        <ele>152.3</ele>
        <time>2024-03-30T16:06:29.000Z</time>
      </trkpt>
      <trkpt lat="48.09985" lon="3.29466">
        <ele>152.8</ele>
        <time>2024-03-30T16:06:30.000Z</time>
      </trkpt>
      <trkpt lat="48.09986" lon="3.29465">
        <ele>153</ele>
        <time>2024-03-30T16:06:31.000Z</time>
      </trkpt>
      <trkpt lat="48.09989" lon="3.29464">
        <ele>153.6</ele>
        <time>2024-03-30T16:06:33.000Z</time>
      </trkpt>
      <trkpt lat="48.09989" lon="3.29463">
        <ele>153.6</ele>
        <time>2024-03-30T16:06:34.000Z</time>
      </trkpt>
      <trkpt lat="48.0999" lon="3.29462">
        <ele>153.7</ele>
        <time>2024-03-30T16:06:35.000Z</time>
      </trkpt>
      <trkpt lat="48.09991" lon="3.29462">
        <ele>154</ele>
        <time>2024-03-30T16:06:36.000Z</time>
      </trkpt>
      <trkpt lat="48.09992" lon="3.29461">
        <ele>154.2</ele>
        <time>2024-03-30T16:06:37.000Z</time>
      </trkpt>
      <trkpt lat="48.09993" lon="3.29461">
        <ele>154.4</ele>
        <time>2024-03-30T16:06:38.000Z</time>
      </trkpt>
      <trkpt lat="48.09994" lon="3.29461">
        <ele>154.7</ele>
        <time>2024-03-30T16:06:39.000Z</time>
      </trkpt>
      <trkpt lat="48.09994" lon="3.2946">
        <ele>154.6</ele>
        <time>2024-03-30T16:06:40.000Z</time>
      </trkpt>
      <trkpt lat="48.09994" lon="3.29457">
        <ele>154.4</ele>
        <time>2024-03-30T16:06:42.000Z</time>
      </trkpt>
      <trkpt lat="48.09994" lon="3.29455">
        <ele>154.2</ele>
        <time>2024-03-30T16:06:43.000Z</time>
      </trkpt>
      <trkpt lat="48.09994" lon="3.29453">
        <ele>154.1</ele>
        <time>2024-03-30T16:06:44.000Z</time>
      </trkpt>
      <trkpt lat="48.09995" lon="3.2945">
        <ele>154.1</ele>
        <time>2024-03-30T16:06:46.000Z</time>
      </trkpt>
      <trkpt lat="48.09996" lon="3.29449">
        <ele>154.3</ele>
        <time>2024-03-30T16:06:47.000Z</time>
      </trkpt>
      <trkpt lat="48.09997" lon="3.29447">
        <ele>154.4</ele>
        <time>2024-03-30T16:06:48.000Z</time>
      </trkpt>
      <trkpt lat="48.09997" lon="3.29446">
        <ele>154.4</ele>
        <time>2024-03-30T16:06:49.000Z</time>
      </trkpt>
      <trkpt lat="48.09998" lon="3.29445">
        <ele>154.5</ele>
        <time>2024-03-30T16:06:50.000Z</time>
      </trkpt>
      <trkpt lat="48.09998" lon="3.29444">
        <ele>154.5</ele>
        <time>2024-03-30T16:06:51.000Z</time>
      </trkpt>
      <trkpt lat="48.09999" lon="3.29443">
        <ele>154.6</ele>
        <time>2024-03-30T16:06:52.000Z</time>
      </trkpt>
      <trkpt lat="48.1" lon="3.29442">
        <ele>154.8</ele>
        <time>2024-03-30T16:06:53.000Z</time>
      </trkpt>
      <trkpt lat="48.1" lon="3.29442">
        <ele>154.8</ele>
        <time>2024-03-30T16:06:54.000Z</time>
      </trkpt>
      <trkpt lat="48.10001" lon="3.29441">
        <ele>154.9</ele>
        <time>2024-03-30T16:06:55.000Z</time>
      </trkpt>
      <trkpt lat="48.10002" lon="3.2944">
        <ele>155</ele>
        <time>2024-03-30T16:06:56.000Z</time>
      </trkpt>
      <trkpt lat="48.10002" lon="3.2944">
        <ele>155</ele>
        <time>2024-03-30T16:06:57.000Z</time>
      </trkpt>
      <trkpt lat="48.10004" lon="3.29439">
        <ele>155.3</ele>
        <time>2024-03-30T16:06:58.000Z</time>
      </trkpt>
      <trkpt lat="48.10005" lon="3.29438">
        <ele>155.4</ele>
        <time>2024-03-30T16:06:59.000Z</time>
      </trkpt>
      <trkpt lat="48.10006" lon="3.29437">
        <ele>155.4</ele>
        <time>2024-03-30T16:07:00.000Z</time>
      </trkpt>
      <trkpt lat="48.10007" lon="3.29435">
        <ele>155.4</ele>
        <time>2024-03-30T16:07:01.000Z</time>
      </trkpt>
      <trkpt lat="48.10008" lon="3.29433">
        <ele>155.4</ele>
        <time>2024-03-30T16:07:02.000Z</time>
      </trkpt>
      <trkpt lat="48.10008" lon="3.29432">
        <ele>155.3</ele>
        <time>2024-03-30T16:07:03.000Z</time>
      </trkpt>
      <trkpt lat="48.10008" lon="3.2943">
        <ele>155.1</ele>
        <time>2024-03-30T16:07:04.000Z</time>
      </trkpt>
      <trkpt lat="48.10009" lon="3.29428">
        <ele>155.1</ele>
        <time>2024-03-30T16:07:05.000Z</time>
      </trkpt>
      <trkpt lat="48.10013" lon="3.2942">
        <ele>154.8</ele>
        <time>2024-03-30T16:07:08.000Z</time>
      </trkpt>
      <trkpt lat="48.10013" lon="3.29417">
        <ele>154.4</ele>
        <time>2024-03-30T16:07:09.000Z</time>
      </trkpt>
      <trkpt lat="48.10013" lon="3.29413">
        <ele>154</ele>
        <time>2024-03-30T16:07:10.000Z</time>
      </trkpt>
      <trkpt lat="48.10013" lon="3.2941">
        <ele>153.7</ele>
        <time>2024-03-30T16:07:11.000Z</time>
      </trkpt>
      <trkpt lat="48.10014" lon="3.29407">
        <ele>153.5</ele>
        <time>2024-03-30T16:07:12.000Z</time>
      </trkpt>
      <trkpt lat="48.10016" lon="3.29398">
        <ele>152.8</ele>
        <time>2024-03-30T16:07:15.000Z</time>
      </trkpt>
      <trkpt lat="48.10017" lon="3.29397">
        <ele>152.9</ele>
        <time>2024-03-30T16:07:16.000Z</time>
      </trkpt>
      <trkpt lat="48.10019" lon="3.29395">
        <ele>153</ele>
        <time>2024-03-30T16:07:17.000Z</time>
      </trkpt>
      <trkpt lat="48.1002" lon="3.29393">
        <ele>153</ele>
        <time>2024-03-30T16:07:18.000Z</time>
      </trkpt>
      <trkpt lat="48.10022" lon="3.29393">
        <ele>153.3</ele>
        <time>2024-03-30T16:07:19.000Z</time>
      </trkpt>
      <trkpt lat="48.10023" lon="3.29393">
        <ele>153.5</ele>
        <time>2024-03-30T16:07:20.000Z</time>
      </trkpt>
      <trkpt lat="48.10024" lon="3.29394">
        <ele>153.7</ele>
        <time>2024-03-30T16:07:21.000Z</time>
      </trkpt>
      <trkpt lat="48.10024" lon="3.29396">
        <ele>153.9</ele>
        <time>2024-03-30T16:07:22.000Z</time>
      </trkpt>
      <trkpt lat="48.10025" lon="3.29397">
        <ele>154.1</ele>
        <time>2024-03-30T16:07:23.000Z</time>
      </trkpt>
      <trkpt lat="48.10029" lon="3.29398">
        <ele>154.8</ele>
        <time>2024-03-30T16:07:24.000Z</time>
      </trkpt>
      <trkpt lat="48.10033" lon="3.29399">
        <ele>155.5</ele>
        <time>2024-03-30T16:07:25.000Z</time>
      </trkpt>
      <trkpt lat="48.10035" lon="3.29397">
        <ele>155.7</ele>
        <time>2024-03-30T16:07:26.000Z</time>
      </trkpt>
      <trkpt lat="48.10036" lon="3.29395">
        <ele>155.7</ele>
        <time>2024-03-30T16:07:27.000Z</time>
      </trkpt>
      <trkpt lat="48.10039" lon="3.29395">
        <ele>156.1</ele>
        <time>2024-03-30T16:07:29.000Z</time>
      </trkpt>
      <trkpt lat="48.10041" lon="3.29393">
        <ele>156.3</ele>
        <time>2024-03-30T16:07:31.000Z</time>
      </trkpt>
      <trkpt lat="48.10044" lon="3.2939">
        <ele>156.4</ele>
        <time>2024-03-30T16:07:34.000Z</time>
      </trkpt>
      <trkpt lat="48.10045" lon="3.2939">
        <ele>156.6</ele>
        <time>2024-03-30T16:07:35.000Z</time>
      </trkpt>
      <trkpt lat="48.10046" lon="3.29391">
        <ele>156.8</ele>
        <time>2024-03-30T16:07:36.000Z</time>
      </trkpt>
      <trkpt lat="48.10048" lon="3.29391">
        <ele>157.1</ele>
        <time>2024-03-30T16:07:37.000Z</time>
      </trkpt>
      <trkpt lat="48.10049" lon="3.2939">
        <ele>157.2</ele>
        <time>2024-03-30T16:07:38.000Z</time>
      </trkpt>
      <trkpt lat="48.1005" lon="3.29388">
        <ele>157.1</ele>
        <time>2024-03-30T16:07:39.000Z</time>
      </trkpt>
      <trkpt lat="48.1005" lon="3.29386">
        <ele>156.9</ele>
        <time>2024-03-30T16:07:40.000Z</time>
      </trkpt>
      <trkpt lat="48.10052" lon="3.29383">
        <ele>156.9</ele>
        <time>2024-03-30T16:07:41.000Z</time>
      </trkpt>
      <trkpt lat="48.10053" lon="3.2938">
        <ele>156.7</ele>
        <time>2024-03-30T16:07:42.000Z</time>
      </trkpt>
      <trkpt lat="48.10054" lon="3.29376">
        <ele>156.4</ele>
        <time>2024-03-30T16:07:44.000Z</time>
      </trkpt>
      <trkpt lat="48.10055" lon="3.29375">
        <ele>156.4</ele>
        <time>2024-03-30T16:07:45.000Z</time>
      </trkpt>
      <trkpt lat="48.10056" lon="3.29374">
        <ele>156.5</ele>
        <time>2024-03-30T16:07:46.000Z</time>
      </trkpt>
      <trkpt lat="48.10058" lon="3.29373">
        <ele>156.7</ele>
        <time>2024-03-30T16:07:47.000Z</time>
      </trkpt>
      <trkpt lat="48.1006" lon="3.29373">
        <ele>157</ele>
        <time>2024-03-30T16:07:48.000Z</time>
      </trkpt>
      <trkpt lat="48.10062" lon="3.29372">
        <ele>157.2</ele>
        <time>2024-03-30T16:07:49.000Z</time>
      </trkpt>
      <trkpt lat="48.10063" lon="3.29371">
        <ele>157.3</ele>
        <time>2024-03-30T16:07:50.000Z</time>
      </trkpt>
      <trkpt lat="48.10064" lon="3.2937">
        <ele>157.4</ele>
        <time>2024-03-30T16:07:51.000Z</time>
      </trkpt>
      <trkpt lat="48.10066" lon="3.29369">
        <ele>157.6</ele>
        <time>2024-03-30T16:07:52.000Z</time>
      </trkpt>
      <trkpt lat="48.10067" lon="3.29368">
        <ele>157.7</ele>
        <time>2024-03-30T16:07:53.000Z</time>
      </trkpt>
      <trkpt lat="48.10068" lon="3.29368">
        <ele>157.9</ele>
        <time>2024-03-30T16:07:54.000Z</time>
      </trkpt>
      <trkpt lat="48.10069" lon="3.29367">
        <ele>158</ele>
        <time>2024-03-30T16:07:55.000Z</time>
      </trkpt>
      <trkpt lat="48.10071" lon="3.29366">
        <ele>158.2</ele>
        <time>2024-03-30T16:07:57.000Z</time>
      </trkpt>
      <trkpt lat="48.10072" lon="3.29366">
        <ele>158.4</ele>
        <time>2024-03-30T16:07:58.000Z</time>
      </trkpt>
      <trkpt lat="48.10073" lon="3.29364">
        <ele>158.4</ele>
        <time>2024-03-30T16:08:00.000Z</time>
      </trkpt>
      <trkpt lat="48.10073" lon="3.29362">
        <ele>158.2</ele>
        <time>2024-03-30T16:08:01.000Z</time>
      </trkpt>
      <trkpt lat="48.10071" lon="3.2935">
        <ele>156.9</ele>
        <time>2024-03-30T16:08:05.000Z</time>
      </trkpt>
      <trkpt lat="48.10071" lon="3.29347">
        <ele>156.7</ele>
        <time>2024-03-30T16:08:06.000Z</time>
      </trkpt>
      <trkpt lat="48.1007" lon="3.29344">
        <ele>156.3</ele>
        <time>2024-03-30T16:08:07.000Z</time>
      </trkpt>
      <trkpt lat="48.1007" lon="3.2934">
        <ele>156</ele>
        <time>2024-03-30T16:08:08.000Z</time>
      </trkpt>
      <trkpt lat="48.10071" lon="3.29336">
        <ele>155.9</ele>
        <time>2024-03-30T16:08:09.000Z</time>
      </trkpt>
      <trkpt lat="48.10072" lon="3.29333">
        <ele>155.8</ele>
        <time>2024-03-30T16:08:10.000Z</time>
      </trkpt>
      <trkpt lat="48.10072" lon="3.29331">
        <ele>155.6</ele>
        <time>2024-03-30T16:08:11.000Z</time>
      </trkpt>
      <trkpt lat="48.10073" lon="3.29328">
        <ele>155.5</ele>
        <time>2024-03-30T16:08:12.000Z</time>
      </trkpt>
      <trkpt lat="48.10075" lon="3.29325">
        <ele>155.5</ele>
        <time>2024-03-30T16:08:14.000Z</time>
      </trkpt>
      <trkpt lat="48.10075" lon="3.29322">
        <ele>155.3</ele>
        <time>2024-03-30T16:08:15.000Z</time>
      </trkpt>
      <trkpt lat="48.10075" lon="3.29318">
        <ele>155</ele>
        <time>2024-03-30T16:08:16.000Z</time>
      </trkpt>
      <trkpt lat="48.10074" lon="3.29314">
        <ele>154.6</ele>
        <time>2024-03-30T16:08:17.000Z</time>
      </trkpt>
      <trkpt lat="48.10074" lon="3.29311">
        <ele>154.4</ele>
        <time>2024-03-30T16:08:18.000Z</time>
      </trkpt>
      <trkpt lat="48.10075" lon="3.29309">
        <ele>154.3</ele>
        <time>2024-03-30T16:08:19.000Z</time>
      </trkpt>
      <trkpt lat="48.10075" lon="3.29306">
        <ele>154.1</ele>
        <time>2024-03-30T16:08:20.000Z</time>
      </trkpt>
      <trkpt lat="48.10078" lon="3.29299">
        <ele>153.7</ele>
        <time>2024-03-30T16:08:22.000Z</time>
      </trkpt>
      <trkpt lat="48.1008" lon="3.29297">
        <ele>153.7</ele>
        <time>2024-03-30T16:08:23.000Z</time>
      </trkpt>
      <trkpt lat="48.10082" lon="3.29296">
        <ele>153.8</ele>
        <time>2024-03-30T16:08:24.000Z</time>
      </trkpt>
      <trkpt lat="48.10083" lon="3.29294">
        <ele>153.7</ele>
        <time>2024-03-30T16:08:25.000Z</time>
      </trkpt>
      <trkpt lat="48.10084" lon="3.29292">
        <ele>153.6</ele>
        <time>2024-03-30T16:08:26.000Z</time>
      </trkpt>
      <trkpt lat="48.10086" lon="3.29292">
        <ele>153.9</ele>
        <time>2024-03-30T16:08:27.000Z</time>
      </trkpt>
      <trkpt lat="48.10087" lon="3.29292">
        <ele>154.1</ele>
        <time>2024-03-30T16:08:28.000Z</time>
      </trkpt>
      <trkpt lat="48.10088" lon="3.29292">
        <ele>154.2</ele>
        <time>2024-03-30T16:08:29.000Z</time>
      </trkpt>
      <trkpt lat="48.10089" lon="3.29291">
        <ele>154.2</ele>
        <time>2024-03-30T16:08:30.000Z</time>
      </trkpt>
      <trkpt lat="48.10092" lon="3.29289">
        <ele>154.5</ele>
        <time>2024-03-30T16:08:32.000Z</time>
      </trkpt>
      <trkpt lat="48.10093" lon="3.29288">
        <ele>154.5</ele>
        <time>2024-03-30T16:08:33.000Z</time>
      </trkpt>
      <trkpt lat="48.10094" lon="3.29286">
        <ele>154.4</ele>
        <time>2024-03-30T16:08:34.000Z</time>
      </trkpt>
      <trkpt lat="48.10095" lon="3.29285">
        <ele>154.5</ele>
        <time>2024-03-30T16:08:35.000Z</time>
      </trkpt>
      <trkpt lat="48.10095" lon="3.29282">
        <ele>154.1</ele>
        <time>2024-03-30T16:08:36.000Z</time>
      </trkpt>
      <trkpt lat="48.10096" lon="3.2928">
        <ele>154.1</ele>
        <time>2024-03-30T16:08:37.000Z</time>
      </trkpt>
      <trkpt lat="48.10096" lon="3.29278">
        <ele>153.8</ele>
        <time>2024-03-30T16:08:38.000Z</time>
      </trkpt>
      <trkpt lat="48.10097" lon="3.29276">
        <ele>153.8</ele>
        <time>2024-03-30T16:08:39.000Z</time>
      </trkpt>
      <trkpt lat="48.10099" lon="3.29275">
        <ele>154.1</ele>
        <time>2024-03-30T16:08:41.000Z</time>
      </trkpt>
      <trkpt lat="48.101" lon="3.29275">
        <ele>154.2</ele>
        <time>2024-03-30T16:08:42.000Z</time>
      </trkpt>
      <trkpt lat="48.10101" lon="3.29271">
        <ele>154.1</ele>
        <time>2024-03-30T16:08:44.000Z</time>
      </trkpt>
      <trkpt lat="48.10101" lon="3.29269">
        <ele>153.9</ele>
        <time>2024-03-30T16:08:45.000Z</time>
      </trkpt>
      <trkpt lat="48.10102" lon="3.29268">
        <ele>154</ele>
        <time>2024-03-30T16:08:46.000Z</time>
      </trkpt>
      <trkpt lat="48.10104" lon="3.29267">
        <ele>154.2</ele>
        <time>2024-03-30T16:08:47.000Z</time>
      </trkpt>
      <trkpt lat="48.10105" lon="3.29266">
        <ele>154.3</ele>
        <time>2024-03-30T16:08:48.000Z</time>
      </trkpt>
      <trkpt lat="48.10106" lon="3.29265">
        <ele>154.3</ele>
        <time>2024-03-30T16:08:49.000Z</time>
      </trkpt>
      <trkpt lat="48.10108" lon="3.29265">
        <ele>154.6</ele>
        <time>2024-03-30T16:08:50.000Z</time>
      </trkpt>
      <trkpt lat="48.10109" lon="3.29264">
        <ele>154.7</ele>
        <time>2024-03-30T16:08:51.000Z</time>
      </trkpt>
      <trkpt lat="48.1011" lon="3.29263">
        <ele>154.8</ele>
        <time>2024-03-30T16:08:52.000Z</time>
      </trkpt>
      <trkpt lat="48.10114" lon="3.29261">
        <ele>155.4</ele>
        <time>2024-03-30T16:08:55.000Z</time>
      </trkpt>
      <trkpt lat="48.10114" lon="3.2926">
        <ele>155.3</ele>
        <time>2024-03-30T16:08:56.000Z</time>
      </trkpt>
      <trkpt lat="48.10115" lon="3.29259">
        <ele>155.4</ele>
        <time>2024-03-30T16:08:57.000Z</time>
      </trkpt>
      <trkpt lat="48.10116" lon="3.29257">
        <ele>155.5</ele>
        <time>2024-03-30T16:08:58.000Z</time>
      </trkpt>
      <trkpt lat="48.10117" lon="3.29257">
        <ele>155.7</ele>
        <time>2024-03-30T16:08:59.000Z</time>
      </trkpt>
      <trkpt lat="48.10117" lon="3.29255">
        <ele>155.6</ele>
        <time>2024-03-30T16:09:00.000Z</time>
      </trkpt>
      <trkpt lat="48.10118" lon="3.29254">
        <ele>155.7</ele>
        <time>2024-03-30T16:09:01.000Z</time>
      </trkpt>
      <trkpt lat="48.1012" lon="3.29251">
        <ele>156</ele>
        <time>2024-03-30T16:09:03.000Z</time>
      </trkpt>
      <trkpt lat="48.1012" lon="3.29249">
        <ele>155.8</ele>
        <time>2024-03-30T16:09:04.000Z</time>
      </trkpt>
      <trkpt lat="48.10121" lon="3.29247">
        <ele>155.9</ele>
        <time>2024-03-30T16:09:05.000Z</time>
      </trkpt>
      <trkpt lat="48.10122" lon="3.29246">
        <ele>156</ele>
        <time>2024-03-30T16:09:06.000Z</time>
      </trkpt>
      <trkpt lat="48.10122" lon="3.29244">
        <ele>155.8</ele>
        <time>2024-03-30T16:09:07.000Z</time>
      </trkpt>
      <trkpt lat="48.10123" lon="3.29243">
        <ele>155.9</ele>
        <time>2024-03-30T16:09:08.000Z</time>
      </trkpt>
      <trkpt lat="48.10123" lon="3.29242">
        <ele>155.8</ele>
        <time>2024-03-30T16:09:13.000Z</time>
      </trkpt>
      <trkpt lat="48.10123" lon="3.29242">
        <ele>155.8</ele>
        <time>2024-03-30T16:09:20.000Z</time>
      </trkpt>
      <trkpt lat="48.10124" lon="3.29242">
        <ele>156.1</ele>
        <time>2024-03-30T16:09:25.000Z</time>
      </trkpt>
      <trkpt lat="48.10124" lon="3.29241">
        <ele>156</ele>
        <time>2024-03-30T16:09:26.000Z</time>
      </trkpt>
      <trkpt lat="48.10125" lon="3.2924">
        <ele>156.1</ele>
        <time>2024-03-30T16:09:27.000Z</time>
      </trkpt>
      <trkpt lat="48.10126" lon="3.29238">
        <ele>156.2</ele>
        <time>2024-03-30T16:09:28.000Z</time>
      </trkpt>
      <trkpt lat="48.10129" lon="3.29237">
        <ele>156.8</ele>
        <time>2024-03-30T16:09:30.000Z</time>
      </trkpt>
      <trkpt lat="48.1013" lon="3.29236">
        <ele>156.9</ele>
        <time>2024-03-30T16:09:31.000Z</time>
      </trkpt>
      <trkpt lat="48.10131" lon="3.29236">
        <ele>157.1</ele>
        <time>2024-03-30T16:09:32.000Z</time>
      </trkpt>
      <trkpt lat="48.10132" lon="3.29235">
        <ele>157.3</ele>
        <time>2024-03-30T16:09:33.000Z</time>
      </trkpt>
      <trkpt lat="48.10134" lon="3.29233">
        <ele>157.6</ele>
        <time>2024-03-30T16:09:35.000Z</time>
      </trkpt>
      <trkpt lat="48.10137" lon="3.29233">
        <ele>158.3</ele>
        <time>2024-03-30T16:09:37.000Z</time>
      </trkpt>
      <trkpt lat="48.10139" lon="3.29232">
        <ele>158.7</ele>
        <time>2024-03-30T16:09:38.000Z</time>
      </trkpt>
      <trkpt lat="48.1014" lon="3.29231">
        <ele>158.7</ele>
        <time>2024-03-30T16:09:39.000Z</time>
      </trkpt>
      <trkpt lat="48.10141" lon="3.2923">
        <ele>158.7</ele>
        <time>2024-03-30T16:09:40.000Z</time>
      </trkpt>
      <trkpt lat="48.10144" lon="3.29229">
        <ele>158.8</ele>
        <time>2024-03-30T16:09:42.000Z</time>
      </trkpt>
      <trkpt lat="48.10146" lon="3.29228">
        <ele>158.9</ele>
        <time>2024-03-30T16:09:44.000Z</time>
      </trkpt>
      <trkpt lat="48.10146" lon="3.29228">
        <ele>158.9</ele>
        <time>2024-03-30T16:09:45.000Z</time>
      </trkpt>
      <trkpt lat="48.10147" lon="3.29227">
        <ele>158.9</ele>
        <time>2024-03-30T16:09:46.000Z</time>
      </trkpt>
      <trkpt lat="48.10149" lon="3.29226">
        <ele>159</ele>
        <time>2024-03-30T16:09:48.000Z</time>
      </trkpt>
      <trkpt lat="48.1015" lon="3.29225">
        <ele>159</ele>
        <time>2024-03-30T16:09:49.000Z</time>
      </trkpt>
      <trkpt lat="48.10151" lon="3.29225">
        <ele>159</ele>
        <time>2024-03-30T16:09:50.000Z</time>
      </trkpt>
      <trkpt lat="48.10153" lon="3.2923">
        <ele>159.4</ele>
        <time>2024-03-30T16:09:53.000Z</time>
      </trkpt>
      <trkpt lat="48.10153" lon="3.29232">
        <ele>159.5</ele>
        <time>2024-03-30T16:09:54.000Z</time>
      </trkpt>
      <trkpt lat="48.10153" lon="3.29232">
        <ele>159.5</ele>
        <time>2024-03-30T16:09:55.000Z</time>
      </trkpt>
      <trkpt lat="48.10153" lon="3.29234">
        <ele>159.6</ele>
        <time>2024-03-30T16:09:56.000Z</time>
      </trkpt>
      <trkpt lat="48.10153" lon="3.29236">
        <ele>159.8</ele>
        <time>2024-03-30T16:09:57.000Z</time>
      </trkpt>
      <trkpt lat="48.10154" lon="3.29237">
        <ele>159.9</ele>
        <time>2024-03-30T16:09:58.000Z</time>
      </trkpt>
      <trkpt lat="48.10153" lon="3.29238">
        <ele>159.9</ele>
        <time>2024-03-30T16:09:59.000Z</time>
      </trkpt>
      <trkpt lat="48.10152" lon="3.29239">
        <ele>159.9</ele>
        <time>2024-03-30T16:10:00.000Z</time>
      </trkpt>
      <trkpt lat="48.10153" lon="3.29241">
        <ele>160</ele>
        <time>2024-03-30T16:10:01.000Z</time>
      </trkpt>
      <trkpt lat="48.10153" lon="3.29242">
        <ele>160.1</ele>
        <time>2024-03-30T16:10:02.000Z</time>
      </trkpt>
      <trkpt lat="48.10154" lon="3.29242">
        <ele>160.1</ele>
        <time>2024-03-30T16:10:03.000Z</time>
      </trkpt>
      <trkpt lat="48.10153" lon="3.29244">
        <ele>160.2</ele>
        <time>2024-03-30T16:10:04.000Z</time>
      </trkpt>
      <trkpt lat="48.10152" lon="3.29247">
        <ele>160.3</ele>
        <time>2024-03-30T16:10:05.000Z</time>
      </trkpt>
      <trkpt lat="48.10152" lon="3.29249">
        <ele>160.4</ele>
        <time>2024-03-30T16:10:06.000Z</time>
      </trkpt>
      <trkpt lat="48.10152" lon="3.29251">
        <ele>160.5</ele>
        <time>2024-03-30T16:10:07.000Z</time>
      </trkpt>
      <trkpt lat="48.10152" lon="3.29253">
        <ele>160.6</ele>
        <time>2024-03-30T16:10:08.000Z</time>
      </trkpt>
      <trkpt lat="48.10152" lon="3.29255">
        <ele>160.7</ele>
        <time>2024-03-30T16:10:09.000Z</time>
      </trkpt>
      <trkpt lat="48.10151" lon="3.29256">
        <ele>160.7</ele>
        <time>2024-03-30T16:10:10.000Z</time>
      </trkpt>
      <trkpt lat="48.1015" lon="3.29258">
        <ele>160.7</ele>
        <time>2024-03-30T16:10:11.000Z</time>
      </trkpt>
      <trkpt lat="48.10148" lon="3.2926">
        <ele>160.7</ele>
        <time>2024-03-30T16:10:12.000Z</time>
      </trkpt>
      <trkpt lat="48.10148" lon="3.29262">
        <ele>160.8</ele>
        <time>2024-03-30T16:10:13.000Z</time>
      </trkpt>
      <trkpt lat="48.10149" lon="3.29269">
        <ele>161</ele>
        <time>2024-03-30T16:10:16.000Z</time>
      </trkpt>
      <trkpt lat="48.10149" lon="3.29272">
        <ele>161.2</ele>
        <time>2024-03-30T16:10:17.000Z</time>
      </trkpt>
      <trkpt lat="48.10148" lon="3.29274">
        <ele>161.2</ele>
        <time>2024-03-30T16:10:18.000Z</time>
      </trkpt>
      <trkpt lat="48.10148" lon="3.29276">
        <ele>161.3</ele>
        <time>2024-03-30T16:10:19.000Z</time>
      </trkpt>
      <trkpt lat="48.10147" lon="3.29281">
        <ele>161.5</ele>
        <time>2024-03-30T16:10:21.000Z</time>
      </trkpt>
      <trkpt lat="48.10146" lon="3.29283">
        <ele>161.5</ele>
        <time>2024-03-30T16:10:22.000Z</time>
      </trkpt>
      <trkpt lat="48.10144" lon="3.29285">
        <ele>161.6</ele>
        <time>2024-03-30T16:10:23.000Z</time>
      </trkpt>
      <trkpt lat="48.10143" lon="3.29287">
        <ele>161.7</ele>
        <time>2024-03-30T16:10:24.000Z</time>
      </trkpt>
      <trkpt lat="48.10142" lon="3.29289">
        <ele>161.8</ele>
        <time>2024-03-30T16:10:25.000Z</time>
      </trkpt>
      <trkpt lat="48.1014" lon="3.29292">
        <ele>162</ele>
        <time>2024-03-30T16:10:26.000Z</time>
      </trkpt>
      <trkpt lat="48.10139" lon="3.29295">
        <ele>162.2</ele>
        <time>2024-03-30T16:10:27.000Z</time>
      </trkpt>
      <trkpt lat="48.10139" lon="3.29297">
        <ele>162.4</ele>
        <time>2024-03-30T16:10:28.000Z</time>
      </trkpt>
      <trkpt lat="48.10138" lon="3.29299">
        <ele>162.4</ele>
        <time>2024-03-30T16:10:29.000Z</time>
      </trkpt>
      <trkpt lat="48.10138" lon="3.29301">
        <ele>162.5</ele>
        <time>2024-03-30T16:10:30.000Z</time>
      </trkpt>
      <trkpt lat="48.10137" lon="3.29303">
        <ele>162.5</ele>
        <time>2024-03-30T16:10:31.000Z</time>
      </trkpt>
      <trkpt lat="48.10134" lon="3.29305">
        <ele>162.3</ele>
        <time>2024-03-30T16:10:32.000Z</time>
      </trkpt>
      <trkpt lat="48.10132" lon="3.29305">
        <ele>162</ele>
        <time>2024-03-30T16:10:33.000Z</time>
      </trkpt>
      <trkpt lat="48.10131" lon="3.29306">
        <ele>161.9</ele>
        <time>2024-03-30T16:10:34.000Z</time>
      </trkpt>
      <trkpt lat="48.10127" lon="3.29307">
        <ele>161.3</ele>
        <time>2024-03-30T16:10:36.000Z</time>
      </trkpt>
      <trkpt lat="48.10122" lon="3.2931">
        <ele>160.8</ele>
        <time>2024-03-30T16:10:38.000Z</time>
      </trkpt>
      <trkpt lat="48.1012" lon="3.29312">
        <ele>160.6</ele>
        <time>2024-03-30T16:10:39.000Z</time>
      </trkpt>
      <trkpt lat="48.10118" lon="3.29314">
        <ele>160.4</ele>
        <time>2024-03-30T16:10:40.000Z</time>
      </trkpt>
      <trkpt lat="48.10116" lon="3.29315">
        <ele>160.3</ele>
        <time>2024-03-30T16:10:41.000Z</time>
      </trkpt>
      <trkpt lat="48.10114" lon="3.29315">
        <ele>160</ele>
        <time>2024-03-30T16:10:42.000Z</time>
      </trkpt>
      <trkpt lat="48.10113" lon="3.29316">
        <ele>160</ele>
        <time>2024-03-30T16:10:43.000Z</time>
      </trkpt>
      <trkpt lat="48.10112" lon="3.29317">
        <ele>159.9</ele>
        <time>2024-03-30T16:10:44.000Z</time>
      </trkpt>
      <trkpt lat="48.10111" lon="3.29319">
        <ele>160</ele>
        <time>2024-03-30T16:10:45.000Z</time>
      </trkpt>
      <trkpt lat="48.1011" lon="3.2932">
        <ele>159.9</ele>
        <time>2024-03-30T16:10:46.000Z</time>
      </trkpt>
      <trkpt lat="48.10109" lon="3.29322">
        <ele>159.9</ele>
        <time>2024-03-30T16:10:47.000Z</time>
      </trkpt>
      <trkpt lat="48.10108" lon="3.29325">
        <ele>160</ele>
        <time>2024-03-30T16:10:48.000Z</time>
      </trkpt>
      <trkpt lat="48.10107" lon="3.29327">
        <ele>160</ele>
        <time>2024-03-30T16:10:49.000Z</time>
      </trkpt>
      <trkpt lat="48.10106" lon="3.29329">
        <ele>160</ele>
        <time>2024-03-30T16:10:50.000Z</time>
      </trkpt>
      <trkpt lat="48.10104" lon="3.2933">
        <ele>159.7</ele>
        <time>2024-03-30T16:10:51.000Z</time>
      </trkpt>
      <trkpt lat="48.10103" lon="3.29332">
        <ele>159.7</ele>
        <time>2024-03-30T16:10:52.000Z</time>
      </trkpt>
      <trkpt lat="48.10101" lon="3.29332">
        <ele>159.4</ele>
        <time>2024-03-30T16:10:53.000Z</time>
      </trkpt>
      <trkpt lat="48.101" lon="3.29333">
        <ele>159.4</ele>
        <time>2024-03-30T16:10:54.000Z</time>
      </trkpt>
      <trkpt lat="48.10099" lon="3.29333">
        <ele>159.2</ele>
        <time>2024-03-30T16:10:55.000Z</time>
      </trkpt>
      <trkpt lat="48.10097" lon="3.29333">
        <ele>158.9</ele>
        <time>2024-03-30T16:10:57.000Z</time>
      </trkpt>
      <trkpt lat="48.10096" lon="3.29332">
        <ele>158.7</ele>
        <time>2024-03-30T16:10:58.000Z</time>
      </trkpt>
      <trkpt lat="48.10096" lon="3.29332">
        <ele>158.7</ele>
        <time>2024-03-30T16:10:59.000Z</time>
      </trkpt>
      <trkpt lat="48.10096" lon="3.29334">
        <ele>158.9</ele>
        <time>2024-03-30T16:11:00.000Z</time>
      </trkpt>
      <trkpt lat="48.10095" lon="3.29334">
        <ele>158.8</ele>
        <time>2024-03-30T16:11:01.000Z</time>
      </trkpt>
      <trkpt lat="48.10095" lon="3.29335">
        <ele>158.9</ele>
        <time>2024-03-30T16:11:02.000Z</time>
      </trkpt>
      <trkpt lat="48.10092" lon="3.29342">
        <ele>159.2</ele>
        <time>2024-03-30T16:11:05.000Z</time>
      </trkpt>
      <trkpt lat="48.10091" lon="3.29348">
        <ele>159.7</ele>
        <time>2024-03-30T16:11:07.000Z</time>
      </trkpt>
      <trkpt lat="48.10091" lon="3.29355">
        <ele>160.4</ele>
        <time>2024-03-30T16:11:09.000Z</time>
      </trkpt>
      <trkpt lat="48.10091" lon="3.29358">
        <ele>160.8</ele>
        <time>2024-03-30T16:11:10.000Z</time>
      </trkpt>
      <trkpt lat="48.10092" lon="3.2936">
        <ele>161.1</ele>
        <time>2024-03-30T16:11:11.000Z</time>
      </trkpt>
      <trkpt lat="48.10093" lon="3.29361">
        <ele>161.4</ele>
        <time>2024-03-30T16:11:12.000Z</time>
      </trkpt>
      <trkpt lat="48.10093" lon="3.29363">
        <ele>161.5</ele>
        <time>2024-03-30T16:11:13.000Z</time>
      </trkpt>
      <trkpt lat="48.10094" lon="3.29365">
        <ele>161.7</ele>
        <time>2024-03-30T16:11:14.000Z</time>
      </trkpt>
      <trkpt lat="48.10096" lon="3.29367">
        <ele>162.1</ele>
        <time>2024-03-30T16:11:15.000Z</time>
      </trkpt>
      <trkpt lat="48.10096" lon="3.2937">
        <ele>162.2</ele>
        <time>2024-03-30T16:11:16.000Z</time>
      </trkpt>
      <trkpt lat="48.10096" lon="3.29371">
        <ele>162.2</ele>
        <time>2024-03-30T16:11:17.000Z</time>
      </trkpt>
      <trkpt lat="48.10096" lon="3.29371">
        <ele>162.2</ele>
        <time>2024-03-30T16:11:18.000Z</time>
      </trkpt>
      <trkpt lat="48.10096" lon="3.29371">
        <ele>162.2</ele>
        <time>2024-03-30T16:11:19.000Z</time>
      </trkpt>
      <trkpt lat="48.10092" lon="3.29373">
        <ele>161.8</ele>
        <time>2024-03-30T16:11:21.000Z</time>
      </trkpt>
      <trkpt lat="48.1009" lon="3.29378">
        <ele>161.9</ele>
        <time>2024-03-30T16:11:23.000Z</time>
      </trkpt>
      <trkpt lat="48.10089" lon="3.29379">
        <ele>161.8</ele>
        <time>2024-03-30T16:11:24.000Z</time>
      </trkpt>
      <trkpt lat="48.10087" lon="3.29379">
        <ele>161.6</ele>
        <time>2024-03-30T16:11:25.000Z</time>
      </trkpt>
      <trkpt lat="48.10083" lon="3.2938">
        <ele>161.3</ele>
        <time>2024-03-30T16:11:28.000Z</time>
      </trkpt>
      <trkpt lat="48.10083" lon="3.29381">
        <ele>161.4</ele>
        <time>2024-03-30T16:11:29.000Z</time>
      </trkpt>
      <trkpt lat="48.10082" lon="3.29381">
        <ele>161.2</ele>
        <time>2024-03-30T16:11:30.000Z</time>
      </trkpt>
      <trkpt lat="48.10081" lon="3.29382">
        <ele>161.1</ele>
        <time>2024-03-30T16:11:31.000Z</time>
      </trkpt>
      <trkpt lat="48.1008" lon="3.29382">
        <ele>161</ele>
        <time>2024-03-30T16:11:32.000Z</time>
      </trkpt>
      <trkpt lat="48.1008" lon="3.29382">
        <ele>161</ele>
        <time>2024-03-30T16:11:33.000Z</time>
      </trkpt>
      <trkpt lat="48.1008" lon="3.29382">
        <ele>161</ele>
        <time>2024-03-30T16:11:34.000Z</time>
      </trkpt>
      <trkpt lat="48.1008" lon="3.29382">
        <ele>161</ele>
        <time>2024-03-30T16:11:36.000Z</time>
      </trkpt>
      <trkpt lat="48.1008" lon="3.29382">
        <ele>161</ele>
        <time>2024-03-30T16:11:37.000Z</time>
      </trkpt>
      <trkpt lat="48.1008" lon="3.29382">
        <ele>161</ele>
        <time>2024-03-30T16:11:38.000Z</time>
      </trkpt>
      <trkpt lat="48.1008" lon="3.29382">
        <ele>161</ele>
        <time>2024-03-30T16:11:41.000Z</time>
      </trkpt>
      <trkpt lat="48.10081" lon="3.29382">
        <ele>161.1</ele>
        <time>2024-03-30T16:11:47.000Z</time>
      </trkpt>
      <trkpt lat="48.10081" lon="3.29382">
        <ele>161.1</ele>
        <time>2024-03-30T16:11:49.000Z</time>
      </trkpt>
      <trkpt lat="48.1008" lon="3.29383">
        <ele>161.1</ele>
        <time>2024-03-30T16:11:57.000Z</time>
      </trkpt>
      <trkpt lat="48.10079" lon="3.29384">
        <ele>161</ele>
        <time>2024-03-30T16:11:59.000Z</time>
      </trkpt>
      <trkpt lat="48.10077" lon="3.29387">
        <ele>160.9</ele>
        <time>2024-03-30T16:12:00.000Z</time>
      </trkpt>
      <trkpt lat="48.10076" lon="3.29389">
        <ele>161</ele>
        <time>2024-03-30T16:12:01.000Z</time>
      </trkpt>
      <trkpt lat="48.10075" lon="3.2939">
        <ele>160.9</ele>
        <time>2024-03-30T16:12:02.000Z</time>
      </trkpt>
      <trkpt lat="48.10074" lon="3.29391">
        <ele>160.8</ele>
        <time>2024-03-30T16:12:03.000Z</time>
      </trkpt>
      <trkpt lat="48.10075" lon="3.29392">
        <ele>161.1</ele>
        <time>2024-03-30T16:12:04.000Z</time>
      </trkpt>
      <trkpt lat="48.10075" lon="3.29392">
        <ele>161.1</ele>
        <time>2024-03-30T16:12:05.000Z</time>
      </trkpt>
      <trkpt lat="48.10075" lon="3.29392">
        <ele>161.1</ele>
        <time>2024-03-30T16:12:06.000Z</time>
      </trkpt>
      <trkpt lat="48.10074" lon="3.29393">
        <ele>161</ele>
        <time>2024-03-30T16:12:07.000Z</time>
      </trkpt>
      <trkpt lat="48.10071" lon="3.29395">
        <ele>160.8</ele>
        <time>2024-03-30T16:12:09.000Z</time>
      </trkpt>
      <trkpt lat="48.10069" lon="3.29399">
        <ele>160.9</ele>
        <time>2024-03-30T16:12:11.000Z</time>
      </trkpt>
      <trkpt lat="48.10061" lon="3.29405">
        <ele>160.4</ele>
        <time>2024-03-30T16:12:14.000Z</time>
      </trkpt>
      <trkpt lat="48.10058" lon="3.29406">
        <ele>160.1</ele>
        <time>2024-03-30T16:12:15.000Z</time>
      </trkpt>
      <trkpt lat="48.10056" lon="3.29409">
        <ele>160.2</ele>
        <time>2024-03-30T16:12:16.000Z</time>
      </trkpt>
      <trkpt lat="48.10055" lon="3.29412">
        <ele>160.4</ele>
        <time>2024-03-30T16:12:17.000Z</time>
      </trkpt>
      <trkpt lat="48.10053" lon="3.29414">
        <ele>160.3</ele>
        <time>2024-03-30T16:12:18.000Z</time>
      </trkpt>
      <trkpt lat="48.10051" lon="3.29417">
        <ele>160.2</ele>
        <time>2024-03-30T16:12:19.000Z</time>
      </trkpt>
      <trkpt lat="48.10048" lon="3.2942">
        <ele>159.9</ele>
        <time>2024-03-30T16:12:20.000Z</time>
      </trkpt>
      <trkpt lat="48.10047" lon="3.29422">
        <ele>160</ele>
        <time>2024-03-30T16:12:21.000Z</time>
      </trkpt>
      <trkpt lat="48.10046" lon="3.29425">
        <ele>160.1</ele>
        <time>2024-03-30T16:12:22.000Z</time>
      </trkpt>
      <trkpt lat="48.10045" lon="3.29428">
        <ele>160.2</ele>
        <time>2024-03-30T16:12:24.000Z</time>
      </trkpt>
      <trkpt lat="48.10044" lon="3.29429">
        <ele>160.2</ele>
        <time>2024-03-30T16:12:25.000Z</time>
      </trkpt>
      <trkpt lat="48.10044" lon="3.29429">
        <ele>160.2</ele>
        <time>2024-03-30T16:12:26.000Z</time>
      </trkpt>
      <trkpt lat="48.10044" lon="3.29429">
        <ele>160.2</ele>
        <time>2024-03-30T16:12:27.000Z</time>
      </trkpt>
      <trkpt lat="48.10045" lon="3.29431">
        <ele>160.5</ele>
        <time>2024-03-30T16:12:32.000Z</time>
      </trkpt>
      <trkpt lat="48.10044" lon="3.29434">
        <ele>160.7</ele>
        <time>2024-03-30T16:12:34.000Z</time>
      </trkpt>
      <trkpt lat="48.10044" lon="3.29436">
        <ele>160.9</ele>
        <time>2024-03-30T16:12:35.000Z</time>
      </trkpt>
      <trkpt lat="48.10044" lon="3.29438">
        <ele>161.1</ele>
        <time>2024-03-30T16:12:36.000Z</time>
      </trkpt>
      <trkpt lat="48.10044" lon="3.2944">
        <ele>161.3</ele>
        <time>2024-03-30T16:12:37.000Z</time>
      </trkpt>
      <trkpt lat="48.10045" lon="3.2944">
        <ele>161.4</ele>
        <time>2024-03-30T16:12:38.000Z</time>
      </trkpt>
      <trkpt lat="48.10045" lon="3.29442">
        <ele>161.6</ele>
        <time>2024-03-30T16:12:39.000Z</time>
      </trkpt>
      <trkpt lat="48.10047" lon="3.29449">
        <ele>162.2</ele>
        <time>2024-03-30T16:12:43.000Z</time>
      </trkpt>
      <trkpt lat="48.10048" lon="3.2945">
        <ele>162.4</ele>
        <time>2024-03-30T16:12:44.000Z</time>
      </trkpt>
      <trkpt lat="48.10049" lon="3.29453">
        <ele>162.6</ele>
        <time>2024-03-30T16:12:45.000Z</time>
      </trkpt>
      <trkpt lat="48.10049" lon="3.29455">
        <ele>162.7</ele>
        <time>2024-03-30T16:12:46.000Z</time>
      </trkpt>
      <trkpt lat="48.10049" lon="3.29457">
        <ele>162.7</ele>
        <time>2024-03-30T16:12:47.000Z</time>
      </trkpt>
      <trkpt lat="48.10048" lon="3.29459">
        <ele>162.7</ele>
        <time>2024-03-30T16:12:48.000Z</time>
      </trkpt>
      <trkpt lat="48.10047" lon="3.2946">
        <ele>162.6</ele>
        <time>2024-03-30T16:12:50.000Z</time>
      </trkpt>
      <trkpt lat="48.10046" lon="3.2946">
        <ele>162.5</ele>
        <time>2024-03-30T16:12:51.000Z</time>
      </trkpt>
      <trkpt lat="48.10046" lon="3.29463">
        <ele>162.6</ele>
        <time>2024-03-30T16:12:52.000Z</time>
      </trkpt>
      <trkpt lat="48.10046" lon="3.29466">
        <ele>162.7</ele>
        <time>2024-03-30T16:12:53.000Z</time>
      </trkpt>
      <trkpt lat="48.10047" lon="3.2947">
        <ele>163</ele>
        <time>2024-03-30T16:12:55.000Z</time>
      </trkpt>
      <trkpt lat="48.10046" lon="3.29471">
        <ele>162.9</ele>
        <time>2024-03-30T16:12:56.000Z</time>
      </trkpt>
      <trkpt lat="48.10047" lon="3.29473">
        <ele>163.1</ele>
        <time>2024-03-30T16:12:57.000Z</time>
      </trkpt>
      <trkpt lat="48.10047" lon="3.29476">
        <ele>163</ele>
        <time>2024-03-30T16:12:58.000Z</time>
      </trkpt>
      <trkpt lat="48.10047" lon="3.29479">
        <ele>163</ele>
        <time>2024-03-30T16:12:59.000Z</time>
      </trkpt>
      <trkpt lat="48.10047" lon="3.2948">
        <ele>163</ele>
        <time>2024-03-30T16:13:00.000Z</time>
      </trkpt>
      <trkpt lat="48.10047" lon="3.29481">
        <ele>163</ele>
        <time>2024-03-30T16:13:01.000Z</time>
      </trkpt>
      <trkpt lat="48.10047" lon="3.29483">
        <ele>162.9</ele>
        <time>2024-03-30T16:13:02.000Z</time>
      </trkpt>
      <trkpt lat="48.10048" lon="3.29483">
        <ele>163</ele>
        <time>2024-03-30T16:13:03.000Z</time>
      </trkpt>
      <trkpt lat="48.10048" lon="3.29483">
        <ele>163</ele>
        <time>2024-03-30T16:13:04.000Z</time>
      </trkpt>
      <trkpt lat="48.10048" lon="3.29483">
        <ele>163</ele>
        <time>2024-03-30T16:13:23.000Z</time>
      </trkpt>
      <trkpt lat="48.10048" lon="3.29483">
        <ele>163</ele>
        <time>2024-03-30T16:13:42.000Z</time>
      </trkpt>
      <trkpt lat="48.10048" lon="3.29483">
        <ele>163</ele>
        <time>2024-03-30T16:13:56.000Z</time>
      </trkpt>
      <trkpt lat="48.10048" lon="3.29484">
        <ele>163</ele>
        <time>2024-03-30T16:14:07.000Z</time>
      </trkpt>
      <trkpt lat="48.10048" lon="3.29484">
        <ele>163</ele>
        <time>2024-03-30T16:14:26.000Z</time>
      </trkpt>
      <trkpt lat="48.10051" lon="3.2948">
        <ele>163.3</ele>
        <time>2024-03-30T16:14:38.000Z</time>
      </trkpt>
      <trkpt lat="48.10052" lon="3.29479">
        <ele>163.4</ele>
        <time>2024-03-30T16:14:39.000Z</time>
      </trkpt>
      <trkpt lat="48.10055" lon="3.29473">
        <ele>163.9</ele>
        <time>2024-03-30T16:14:43.000Z</time>
      </trkpt>
      <trkpt lat="48.10058" lon="3.2947">
        <ele>163.9</ele>
        <time>2024-03-30T16:14:45.000Z</time>
      </trkpt>
      <trkpt lat="48.10064" lon="3.29465">
        <ele>163.8</ele>
        <time>2024-03-30T16:14:49.000Z</time>
      </trkpt>
      <trkpt lat="48.10067" lon="3.29465">
        <ele>163.8</ele>
        <time>2024-03-30T16:14:50.000Z</time>
      </trkpt>
      <trkpt lat="48.10071" lon="3.29465">
        <ele>163.9</ele>
        <time>2024-03-30T16:14:51.000Z</time>
      </trkpt>
      <trkpt lat="48.10074" lon="3.29466">
        <ele>163.9</ele>
        <time>2024-03-30T16:14:52.000Z</time>
      </trkpt>
      <trkpt lat="48.10075" lon="3.29466">
        <ele>163.9</ele>
        <time>2024-03-30T16:14:53.000Z</time>
      </trkpt>
      <trkpt lat="48.10077" lon="3.29465">
        <ele>163.9</ele>
        <time>2024-03-30T16:14:54.000Z</time>
      </trkpt>
      <trkpt lat="48.10078" lon="3.29465">
        <ele>164</ele>
        <time>2024-03-30T16:14:55.000Z</time>
      </trkpt>
      <trkpt lat="48.10092" lon="3.2946">
        <ele>164</ele>
        <time>2024-03-30T16:15:01.000Z</time>
      </trkpt>
      <trkpt lat="48.10094" lon="3.29458">
        <ele>164</ele>
        <time>2024-03-30T16:15:02.000Z</time>
      </trkpt>
      <trkpt lat="48.10096" lon="3.29455">
        <ele>164</ele>
        <time>2024-03-30T16:15:03.000Z</time>
      </trkpt>
      <trkpt lat="48.10097" lon="3.29451">
        <ele>164</ele>
        <time>2024-03-30T16:15:04.000Z</time>
      </trkpt>
      <trkpt lat="48.10099" lon="3.29448">
        <ele>164</ele>
        <time>2024-03-30T16:15:05.000Z</time>
      </trkpt>
      <trkpt lat="48.10099" lon="3.29445">
        <ele>164</ele>
        <time>2024-03-30T16:15:06.000Z</time>
      </trkpt>
      <trkpt lat="48.101" lon="3.29442">
        <ele>164</ele>
        <time>2024-03-30T16:15:07.000Z</time>
      </trkpt>
      <trkpt lat="48.10108" lon="3.29417">
        <ele>164</ele>
        <time>2024-03-30T16:15:12.000Z</time>
      </trkpt>
      <trkpt lat="48.10106" lon="3.29407">
        <ele>163.9</ele>
        <time>2024-03-30T16:15:15.000Z</time>
      </trkpt>
      <trkpt lat="48.10107" lon="3.29405">
        <ele>163.9</ele>
        <time>2024-03-30T16:15:16.000Z</time>
      </trkpt>
      <trkpt lat="48.10107" lon="3.29404">
        <ele>163.9</ele>
        <time>2024-03-30T16:15:17.000Z</time>
      </trkpt>
      <trkpt lat="48.10107" lon="3.29403">
        <ele>163.9</ele>
        <time>2024-03-30T16:15:18.000Z</time>
      </trkpt>
      <trkpt lat="48.10107" lon="3.29403">
        <ele>163.9</ele>
        <time>2024-03-30T16:15:19.000Z</time>
      </trkpt>
      <trkpt lat="48.10107" lon="3.29403">
        <ele>163.9</ele>
        <time>2024-03-30T16:15:20.000Z</time>
      </trkpt>
      <trkpt lat="48.10107" lon="3.29401">
        <ele>163.8</ele>
        <time>2024-03-30T16:15:21.000Z</time>
      </trkpt>
      <trkpt lat="48.10107" lon="3.29393">
        <ele>163.7</ele>
        <time>2024-03-30T16:15:24.000Z</time>
      </trkpt>
      <trkpt lat="48.10109" lon="3.29379">
        <ele>163.8</ele>
        <time>2024-03-30T16:15:28.000Z</time>
      </trkpt>
      <trkpt lat="48.10113" lon="3.29367">
        <ele>164</ele>
        <time>2024-03-30T16:15:31.000Z</time>
      </trkpt>
      <trkpt lat="48.10115" lon="3.29363">
        <ele>164</ele>
        <time>2024-03-30T16:15:32.000Z</time>
      </trkpt>
      <trkpt lat="48.10117" lon="3.29359">
        <ele>163.8</ele>
        <time>2024-03-30T16:15:33.000Z</time>
      </trkpt>
      <trkpt lat="48.10121" lon="3.29352">
        <ele>163.2</ele>
        <time>2024-03-30T16:15:35.000Z</time>
      </trkpt>
      <trkpt lat="48.1013" lon="3.29342">
        <ele>162.9</ele>
        <time>2024-03-30T16:15:38.000Z</time>
      </trkpt>
      <trkpt lat="48.10147" lon="3.29333">
        <ele>163</ele>
        <time>2024-03-30T16:15:43.000Z</time>
      </trkpt>
      <trkpt lat="48.10163" lon="3.29329">
        <ele>162.9</ele>
        <time>2024-03-30T16:15:48.000Z</time>
      </trkpt>
      <trkpt lat="48.10181" lon="3.29323">
        <ele>162.1</ele>
        <time>2024-03-30T16:15:53.000Z</time>
      </trkpt>
      <trkpt lat="48.10184" lon="3.29321">
        <ele>161.9</ele>
        <time>2024-03-30T16:15:54.000Z</time>
      </trkpt>
      <trkpt lat="48.10185" lon="3.29318">
        <ele>161.8</ele>
        <time>2024-03-30T16:15:55.000Z</time>
      </trkpt>
      <trkpt lat="48.10185" lon="3.29314">
        <ele>161.6</ele>
        <time>2024-03-30T16:15:56.000Z</time>
      </trkpt>
      <trkpt lat="48.10186" lon="3.2931">
        <ele>161.5</ele>
        <time>2024-03-30T16:15:57.000Z</time>
      </trkpt>
      <trkpt lat="48.10186" lon="3.29304">
        <ele>161.3</ele>
        <time>2024-03-30T16:15:58.000Z</time>
      </trkpt>
      <trkpt lat="48.10186" lon="3.29298">
        <ele>161.3</ele>
        <time>2024-03-30T16:15:59.000Z</time>
      </trkpt>
      <trkpt lat="48.10186" lon="3.29287">
        <ele>161.3</ele>
        <time>2024-03-30T16:16:01.000Z</time>
      </trkpt>
      <trkpt lat="48.10185" lon="3.29267">
        <ele>161.2</ele>
        <time>2024-03-30T16:16:05.000Z</time>
      </trkpt>
      <trkpt lat="48.10188" lon="3.29235">
        <ele>160.5</ele>
        <time>2024-03-30T16:16:10.000Z</time>
      </trkpt>
      <trkpt lat="48.10188" lon="3.29222">
        <ele>160</ele>
        <time>2024-03-30T16:16:12.000Z</time>
      </trkpt>
      <trkpt lat="48.10187" lon="3.2919">
        <ele>160</ele>
        <time>2024-03-30T16:16:17.000Z</time>
      </trkpt>
      <trkpt lat="48.10187" lon="3.29185">
        <ele>159.9</ele>
        <time>2024-03-30T16:16:18.000Z</time>
      </trkpt>
      <trkpt lat="48.10187" lon="3.29178">
        <ele>159.8</ele>
        <time>2024-03-30T16:16:19.000Z</time>
      </trkpt>
      <trkpt lat="48.10186" lon="3.29174">
        <ele>159.8</ele>
        <time>2024-03-30T16:16:20.000Z</time>
      </trkpt>
      <trkpt lat="48.10184" lon="3.2917">
        <ele>159.7</ele>
        <time>2024-03-30T16:16:21.000Z</time>
      </trkpt>
      <trkpt lat="48.10182" lon="3.2916">
        <ele>159.2</ele>
        <time>2024-03-30T16:16:23.000Z</time>
      </trkpt>
      <trkpt lat="48.10181" lon="3.29155">
        <ele>158.9</ele>
        <time>2024-03-30T16:16:24.000Z</time>
      </trkpt>
      <trkpt lat="48.10181" lon="3.29151">
        <ele>158.7</ele>
        <time>2024-03-30T16:16:25.000Z</time>
      </trkpt>
      <trkpt lat="48.1018" lon="3.29148">
        <ele>158.5</ele>
        <time>2024-03-30T16:16:26.000Z</time>
      </trkpt>
      <trkpt lat="48.10179" lon="3.29144">
        <ele>158.2</ele>
        <time>2024-03-30T16:16:27.000Z</time>
      </trkpt>
      <trkpt lat="48.10179" lon="3.29141">
        <ele>158</ele>
        <time>2024-03-30T16:16:28.000Z</time>
      </trkpt>
      <trkpt lat="48.10179" lon="3.29137">
        <ele>157.8</ele>
        <time>2024-03-30T16:16:29.000Z</time>
      </trkpt>
      <trkpt lat="48.1018" lon="3.29133">
        <ele>157.6</ele>
        <time>2024-03-30T16:16:30.000Z</time>
      </trkpt>
      <trkpt lat="48.1018" lon="3.2913">
        <ele>157.5</ele>
        <time>2024-03-30T16:16:31.000Z</time>
      </trkpt>
      <trkpt lat="48.10181" lon="3.29127">
        <ele>157.4</ele>
        <time>2024-03-30T16:16:32.000Z</time>
      </trkpt>
      <trkpt lat="48.10181" lon="3.29112">
        <ele>156.6</ele>
        <time>2024-03-30T16:16:35.000Z</time>
      </trkpt>
      <trkpt lat="48.10181" lon="3.29106">
        <ele>156.1</ele>
        <time>2024-03-30T16:16:36.000Z</time>
      </trkpt>
      <trkpt lat="48.10183" lon="3.29097">
        <ele>155.4</ele>
        <time>2024-03-30T16:16:38.000Z</time>
      </trkpt>
      <trkpt lat="48.10186" lon="3.29085">
        <ele>154.5</ele>
        <time>2024-03-30T16:16:40.000Z</time>
      </trkpt>
      <trkpt lat="48.10187" lon="3.29073">
        <ele>153.7</ele>
        <time>2024-03-30T16:16:42.000Z</time>
      </trkpt>
      <trkpt lat="48.10191" lon="3.29061">
        <ele>153.1</ele>
        <time>2024-03-30T16:16:44.000Z</time>
      </trkpt>
      <trkpt lat="48.10193" lon="3.29054">
        <ele>152.7</ele>
        <time>2024-03-30T16:16:45.000Z</time>
      </trkpt>
      <trkpt lat="48.10195" lon="3.29048">
        <ele>152.2</ele>
        <time>2024-03-30T16:16:46.000Z</time>
      </trkpt>
      <trkpt lat="48.10198" lon="3.29043">
        <ele>151.7</ele>
        <time>2024-03-30T16:16:47.000Z</time>
      </trkpt>
      <trkpt lat="48.10203" lon="3.29038">
        <ele>151.3</ele>
        <time>2024-03-30T16:16:48.000Z</time>
      </trkpt>
      <trkpt lat="48.10205" lon="3.29033">
        <ele>150.9</ele>
        <time>2024-03-30T16:16:49.000Z</time>
      </trkpt>
      <trkpt lat="48.10207" lon="3.29021">
        <ele>149.7</ele>
        <time>2024-03-30T16:16:51.000Z</time>
      </trkpt>
      <trkpt lat="48.10209" lon="3.29017">
        <ele>149.4</ele>
        <time>2024-03-30T16:16:52.000Z</time>
      </trkpt>
      <trkpt lat="48.10209" lon="3.29016">
        <ele>149.3</ele>
        <time>2024-03-30T16:16:53.000Z</time>
      </trkpt>
      <trkpt lat="48.10209" lon="3.29016">
        <ele>149.3</ele>
        <time>2024-03-30T16:16:56.000Z</time>
      </trkpt>
      <trkpt lat="48.10209" lon="3.29016">
        <ele>149.3</ele>
        <time>2024-03-30T16:16:59.000Z</time>
      </trkpt>
      <trkpt lat="48.10209" lon="3.29016">
        <ele>149.3</ele>
        <time>2024-03-30T16:17:00.000Z</time>
      </trkpt>
      <trkpt lat="48.10209" lon="3.29016">
        <ele>149.3</ele>
        <time>2024-03-30T16:17:01.000Z</time>
      </trkpt>
      <trkpt lat="48.10209" lon="3.29016">
        <ele>149.3</ele>
        <time>2024-03-30T16:17:02.000Z</time>
      </trkpt>
      <trkpt lat="48.10209" lon="3.29016">
        <ele>149.3</ele>
        <time>2024-03-30T16:17:10.000Z</time>
      </trkpt>
      <trkpt lat="48.10209" lon="3.29016">
        <ele>149.3</ele>
        <time>2024-03-30T16:17:20.000Z</time>
      </trkpt>
      <trkpt lat="48.10211" lon="3.29011">
        <ele>148.9</ele>
        <time>2024-03-30T16:17:32.000Z</time>
      </trkpt>
      <trkpt lat="48.10212" lon="3.29004">
        <ele>148.3</ele>
        <time>2024-03-30T16:17:35.000Z</time>
      </trkpt>
      <trkpt lat="48.10213" lon="3.29003">
        <ele>148.3</ele>
        <time>2024-03-30T16:17:36.000Z</time>
      </trkpt>
      <trkpt lat="48.10213" lon="3.29002">
        <ele>148.2</ele>
        <time>2024-03-30T16:17:38.000Z</time>
      </trkpt>
      <trkpt lat="48.10214" lon="3.28999">
        <ele>147.9</ele>
        <time>2024-03-30T16:17:42.000Z</time>
      </trkpt>
      <trkpt lat="48.10216" lon="3.28996">
        <ele>147.7</ele>
        <time>2024-03-30T16:17:44.000Z</time>
      </trkpt>
      <trkpt lat="48.10226" lon="3.28976">
        <ele>145.5</ele>
        <time>2024-03-30T16:17:49.000Z</time>
      </trkpt>
      <trkpt lat="48.10228" lon="3.28972">
        <ele>145</ele>
        <time>2024-03-30T16:17:50.000Z</time>
      </trkpt>
      <trkpt lat="48.1024" lon="3.28951">
        <ele>141.7</ele>
        <time>2024-03-30T16:17:56.000Z</time>
      </trkpt>
      <trkpt lat="48.10243" lon="3.28949">
        <ele>141.4</ele>
        <time>2024-03-30T16:17:57.000Z</time>
      </trkpt>
      <trkpt lat="48.10247" lon="3.28945">
        <ele>141</ele>
        <time>2024-03-30T16:17:59.000Z</time>
      </trkpt>
      <trkpt lat="48.10249" lon="3.28943">
        <ele>140.7</ele>
        <time>2024-03-30T16:18:00.000Z</time>
      </trkpt>
      <trkpt lat="48.1025" lon="3.28942">
        <ele>140.6</ele>
        <time>2024-03-30T16:18:01.000Z</time>
      </trkpt>
      <trkpt lat="48.1025" lon="3.28942">
        <ele>140.6</ele>
        <time>2024-03-30T16:18:02.000Z</time>
      </trkpt>
      <trkpt lat="48.1025" lon="3.28942">
        <ele>140.6</ele>
        <time>2024-03-30T16:18:04.000Z</time>
      </trkpt>
      <trkpt lat="48.1025" lon="3.28942">
        <ele>140.6</ele>
        <time>2024-03-30T16:18:07.000Z</time>
      </trkpt>
      <trkpt lat="48.1025" lon="3.28942">
        <ele>140.6</ele>
        <time>2024-03-30T16:18:12.000Z</time>
      </trkpt>
      <trkpt lat="48.1025" lon="3.28942">
        <ele>140.6</ele>
        <time>2024-03-30T16:18:13.000Z</time>
      </trkpt>
      <trkpt lat="48.1025" lon="3.28942">
        <ele>140.6</ele>
        <time>2024-03-30T16:18:48.000Z</time>
      </trkpt>
      <trkpt lat="48.1025" lon="3.28942">
        <ele>140.6</ele>
        <time>2024-03-30T16:19:06.000Z</time>
      </trkpt>
      <trkpt lat="48.10251" lon="3.2894">
        <ele>140.1</ele>
        <time>2024-03-30T16:19:12.000Z</time>
      </trkpt>
      <trkpt lat="48.10252" lon="3.28935">
        <ele>139.1</ele>
        <time>2024-03-30T16:19:14.000Z</time>
      </trkpt>
      <trkpt lat="48.10252" lon="3.28931">
        <ele>138.4</ele>
        <time>2024-03-30T16:19:15.000Z</time>
      </trkpt>
      <trkpt lat="48.10252" lon="3.28927">
        <ele>137.7</ele>
        <time>2024-03-30T16:19:16.000Z</time>
      </trkpt>
      <trkpt lat="48.10256" lon="3.28917">
        <ele>135.8</ele>
        <time>2024-03-30T16:19:19.000Z</time>
      </trkpt>
      <trkpt lat="48.10257" lon="3.28914">
        <ele>135.1</ele>
        <time>2024-03-30T16:19:20.000Z</time>
      </trkpt>
      <trkpt lat="48.10257" lon="3.28911">
        <ele>134.4</ele>
        <time>2024-03-30T16:19:21.000Z</time>
      </trkpt>
      <trkpt lat="48.10258" lon="3.28909">
        <ele>133.9</ele>
        <time>2024-03-30T16:19:22.000Z</time>
      </trkpt>
      <trkpt lat="48.10258" lon="3.28907">
        <ele>133.4</ele>
        <time>2024-03-30T16:19:23.000Z</time>
      </trkpt>
      <trkpt lat="48.10258" lon="3.28905">
        <ele>132.9</ele>
        <time>2024-03-30T16:19:24.000Z</time>
      </trkpt>
      <trkpt lat="48.10259" lon="3.28903">
        <ele>132.4</ele>
        <time>2024-03-30T16:19:25.000Z</time>
      </trkpt>
      <trkpt lat="48.10261" lon="3.28901">
        <ele>131.9</ele>
        <time>2024-03-30T16:19:26.000Z</time>
      </trkpt>
      <trkpt lat="48.10263" lon="3.28901">
        <ele>131.8</ele>
        <time>2024-03-30T16:19:27.000Z</time>
      </trkpt>
      <trkpt lat="48.10265" lon="3.289">
        <ele>131.6</ele>
        <time>2024-03-30T16:19:28.000Z</time>
      </trkpt>
      <trkpt lat="48.10267" lon="3.289">
        <ele>131.6</ele>
        <time>2024-03-30T16:19:29.000Z</time>
      </trkpt>
      <trkpt lat="48.10269" lon="3.289">
        <ele>131.5</ele>
        <time>2024-03-30T16:19:30.000Z</time>
      </trkpt>
      <trkpt lat="48.10273" lon="3.28899">
        <ele>131.2</ele>
        <time>2024-03-30T16:19:32.000Z</time>
      </trkpt>
      <trkpt lat="48.10275" lon="3.289">
        <ele>131.4</ele>
        <time>2024-03-30T16:19:33.000Z</time>
      </trkpt>
      <trkpt lat="48.10277" lon="3.28901">
        <ele>131.6</ele>
        <time>2024-03-30T16:19:34.000Z</time>
      </trkpt>
      <trkpt lat="48.10278" lon="3.28903">
        <ele>132</ele>
        <time>2024-03-30T16:19:35.000Z</time>
      </trkpt>
      <trkpt lat="48.10279" lon="3.28905">
        <ele>132.4</ele>
        <time>2024-03-30T16:19:36.000Z</time>
      </trkpt>
      <trkpt lat="48.1028" lon="3.28906">
        <ele>132.5</ele>
        <time>2024-03-30T16:19:37.000Z</time>
      </trkpt>
      <trkpt lat="48.10281" lon="3.28907">
        <ele>132.6</ele>
        <time>2024-03-30T16:19:38.000Z</time>
      </trkpt>
      <trkpt lat="48.10284" lon="3.28917">
        <ele>134.1</ele>
        <time>2024-03-30T16:19:42.000Z</time>
      </trkpt>
      <trkpt lat="48.10285" lon="3.28921">
        <ele>134.4</ele>
        <time>2024-03-30T16:19:44.000Z</time>
      </trkpt>
      <trkpt lat="48.10286" lon="3.28923">
        <ele>134.4</ele>
        <time>2024-03-30T16:19:45.000Z</time>
      </trkpt>
      <trkpt lat="48.10286" lon="3.28924">
        <ele>134.5</ele>
        <time>2024-03-30T16:19:46.000Z</time>
      </trkpt>
      <trkpt lat="48.10287" lon="3.28925">
        <ele>134.5</ele>
        <time>2024-03-30T16:19:47.000Z</time>
      </trkpt>
      <trkpt lat="48.10288" lon="3.28926">
        <ele>134.4</ele>
        <time>2024-03-30T16:19:48.000Z</time>
      </trkpt>
      <trkpt lat="48.10291" lon="3.28925">
        <ele>133.9</ele>
        <time>2024-03-30T16:19:50.000Z</time>
      </trkpt>
      <trkpt lat="48.10293" lon="3.28924">
        <ele>133.5</ele>
        <time>2024-03-30T16:19:51.000Z</time>
      </trkpt>
      <trkpt lat="48.10294" lon="3.28924">
        <ele>133.3</ele>
        <time>2024-03-30T16:19:52.000Z</time>
      </trkpt>
      <trkpt lat="48.10299" lon="3.28925">
        <ele>132.6</ele>
        <time>2024-03-30T16:19:54.000Z</time>
      </trkpt>
      <trkpt lat="48.103" lon="3.28925">
        <ele>132.5</ele>
        <time>2024-03-30T16:19:55.000Z</time>
      </trkpt>
      <trkpt lat="48.10302" lon="3.28924">
        <ele>132.1</ele>
        <time>2024-03-30T16:19:56.000Z</time>
      </trkpt>
      <trkpt lat="48.10304" lon="3.28923">
        <ele>131.7</ele>
        <time>2024-03-30T16:19:57.000Z</time>
      </trkpt>
      <trkpt lat="48.10306" lon="3.28923">
        <ele>131.4</ele>
        <time>2024-03-30T16:19:58.000Z</time>
      </trkpt>
      <trkpt lat="48.10312" lon="3.28916">
        <ele>129.5</ele>
        <time>2024-03-30T16:20:02.000Z</time>
      </trkpt>
      <trkpt lat="48.10314" lon="3.28914">
        <ele>128.9</ele>
        <time>2024-03-30T16:20:03.000Z</time>
      </trkpt>
      <trkpt lat="48.10315" lon="3.28913">
        <ele>128.6</ele>
        <time>2024-03-30T16:20:04.000Z</time>
      </trkpt>
      <trkpt lat="48.10317" lon="3.28912">
        <ele>128.1</ele>
        <time>2024-03-30T16:20:05.000Z</time>
      </trkpt>
      <trkpt lat="48.10318" lon="3.2891">
        <ele>127.7</ele>
        <time>2024-03-30T16:20:06.000Z</time>
      </trkpt>
      <trkpt lat="48.10318" lon="3.28907">
        <ele>127.4</ele>
        <time>2024-03-30T16:20:07.000Z</time>
      </trkpt>
      <trkpt lat="48.10318" lon="3.28905">
        <ele>127.2</ele>
        <time>2024-03-30T16:20:08.000Z</time>
      </trkpt>
      <trkpt lat="48.10318" lon="3.28903">
        <ele>127.1</ele>
        <time>2024-03-30T16:20:09.000Z</time>
      </trkpt>
      <trkpt lat="48.10318" lon="3.289">
        <ele>126.8</ele>
        <time>2024-03-30T16:20:10.000Z</time>
      </trkpt>
      <trkpt lat="48.10319" lon="3.28899">
        <ele>126.5</ele>
        <time>2024-03-30T16:20:11.000Z</time>
      </trkpt>
      <trkpt lat="48.1032" lon="3.28897">
        <ele>126.1</ele>
        <time>2024-03-30T16:20:12.000Z</time>
      </trkpt>
      <trkpt lat="48.10319" lon="3.28895">
        <ele>126.1</ele>
        <time>2024-03-30T16:20:13.000Z</time>
      </trkpt>
      <trkpt lat="48.10318" lon="3.28894">
        <ele>126.2</ele>
        <time>2024-03-30T16:20:14.000Z</time>
      </trkpt>
      <trkpt lat="48.10316" lon="3.28893">
        <ele>126.5</ele>
        <time>2024-03-30T16:20:16.000Z</time>
      </trkpt>
      <trkpt lat="48.10316" lon="3.28893">
        <ele>126.5</ele>
        <time>2024-03-30T16:20:17.000Z</time>
      </trkpt>
      <trkpt lat="48.10315" lon="3.28892">
        <ele>126.6</ele>
        <time>2024-03-30T16:20:18.000Z</time>
      </trkpt>
      <trkpt lat="48.10314" lon="3.28892">
        <ele>126.8</ele>
        <time>2024-03-30T16:20:19.000Z</time>
      </trkpt>
      <trkpt lat="48.10312" lon="3.2889">
        <ele>127</ele>
        <time>2024-03-30T16:20:20.000Z</time>
      </trkpt>
      <trkpt lat="48.10312" lon="3.28888">
        <ele>126.7</ele>
        <time>2024-03-30T16:20:21.000Z</time>
      </trkpt>
      <trkpt lat="48.10311" lon="3.28884">
        <ele>126.2</ele>
        <time>2024-03-30T16:20:23.000Z</time>
      </trkpt>
      <trkpt lat="48.10313" lon="3.28876">
        <ele>124.7</ele>
        <time>2024-03-30T16:20:26.000Z</time>
      </trkpt>
      <trkpt lat="48.10314" lon="3.28874">
        <ele>124.3</ele>
        <time>2024-03-30T16:20:27.000Z</time>
      </trkpt>
      <trkpt lat="48.10315" lon="3.28873">
        <ele>124</ele>
        <time>2024-03-30T16:20:28.000Z</time>
      </trkpt>
      <trkpt lat="48.10317" lon="3.28873">
        <ele>123.8</ele>
        <time>2024-03-30T16:20:29.000Z</time>
      </trkpt>
      <trkpt lat="48.10319" lon="3.28873">
        <ele>123.6</ele>
        <time>2024-03-30T16:20:30.000Z</time>
      </trkpt>
      <trkpt lat="48.1032" lon="3.28873">
        <ele>123.4</ele>
        <time>2024-03-30T16:20:31.000Z</time>
      </trkpt>
      <trkpt lat="48.10321" lon="3.28874">
        <ele>123.4</ele>
        <time>2024-03-30T16:20:32.000Z</time>
      </trkpt>
      <trkpt lat="48.10321" lon="3.28876">
        <ele>123.7</ele>
        <time>2024-03-30T16:20:33.000Z</time>
      </trkpt>
      <trkpt lat="48.10321" lon="3.28878">
        <ele>123.9</ele>
        <time>2024-03-30T16:20:34.000Z</time>
      </trkpt>
      <trkpt lat="48.10321" lon="3.2888">
        <ele>124.2</ele>
        <time>2024-03-30T16:20:36.000Z</time>
      </trkpt>
      <trkpt lat="48.10322" lon="3.28881">
        <ele>124.1</ele>
        <time>2024-03-30T16:20:37.000Z</time>
      </trkpt>
      <trkpt lat="48.10322" lon="3.28882">
        <ele>124.2</ele>
        <time>2024-03-30T16:20:38.000Z</time>
      </trkpt>
      <trkpt lat="48.10323" lon="3.28883">
        <ele>124.2</ele>
        <time>2024-03-30T16:20:39.000Z</time>
      </trkpt>
      <trkpt lat="48.10324" lon="3.28884">
        <ele>124.2</ele>
        <time>2024-03-30T16:20:40.000Z</time>
      </trkpt>
      <trkpt lat="48.10326" lon="3.28885">
        <ele>123.9</ele>
        <time>2024-03-30T16:20:41.000Z</time>
      </trkpt>
      <trkpt lat="48.10328" lon="3.28885">
        <ele>123.6</ele>
        <time>2024-03-30T16:20:42.000Z</time>
      </trkpt>
      <trkpt lat="48.10331" lon="3.28885">
        <ele>123.1</ele>
        <time>2024-03-30T16:20:43.000Z</time>
      </trkpt>
      <trkpt lat="48.10333" lon="3.28885">
        <ele>122.8</ele>
        <time>2024-03-30T16:20:44.000Z</time>
      </trkpt>
      <trkpt lat="48.10335" lon="3.28886">
        <ele>122.5</ele>
        <time>2024-03-30T16:20:45.000Z</time>
      </trkpt>
      <trkpt lat="48.10337" lon="3.28886">
        <ele>122.1</ele>
        <time>2024-03-30T16:20:46.000Z</time>
      </trkpt>
      <trkpt lat="48.10338" lon="3.28886">
        <ele>122</ele>
        <time>2024-03-30T16:20:47.000Z</time>
      </trkpt>
      <trkpt lat="48.10344" lon="3.28885">
        <ele>120.8</ele>
        <time>2024-03-30T16:20:50.000Z</time>
      </trkpt>
      <trkpt lat="48.10345" lon="3.28884">
        <ele>120.5</ele>
        <time>2024-03-30T16:20:51.000Z</time>
      </trkpt>
      <trkpt lat="48.1035" lon="3.28885">
        <ele>119.7</ele>
        <time>2024-03-30T16:20:53.000Z</time>
      </trkpt>
      <trkpt lat="48.10351" lon="3.28884">
        <ele>119.5</ele>
        <time>2024-03-30T16:20:54.000Z</time>
      </trkpt>
      <trkpt lat="48.10352" lon="3.28883">
        <ele>119.2</ele>
        <time>2024-03-30T16:20:55.000Z</time>
      </trkpt>
      <trkpt lat="48.10354" lon="3.2888">
        <ele>118.6</ele>
        <time>2024-03-30T16:20:56.000Z</time>
      </trkpt>
      <trkpt lat="48.10356" lon="3.28878">
        <ele>118.1</ele>
        <time>2024-03-30T16:20:57.000Z</time>
      </trkpt>
      <trkpt lat="48.10357" lon="3.28876">
        <ele>117.8</ele>
        <time>2024-03-30T16:20:58.000Z</time>
      </trkpt>
      <trkpt lat="48.10358" lon="3.28875">
        <ele>117.6</ele>
        <time>2024-03-30T16:20:59.000Z</time>
      </trkpt>
      <trkpt lat="48.10361" lon="3.28873">
        <ele>116.9</ele>
        <time>2024-03-30T16:21:00.000Z</time>
      </trkpt>
      <trkpt lat="48.10361" lon="3.28873">
        <ele>116.9</ele>
        <time>2024-03-30T16:21:01.000Z</time>
      </trkpt>
      <trkpt lat="48.10361" lon="3.28873">
        <ele>116.9</ele>
        <time>2024-03-30T16:21:02.000Z</time>
      </trkpt>
      <trkpt lat="48.10361" lon="3.28873">
        <ele>116.9</ele>
        <time>2024-03-30T16:21:03.000Z</time>
      </trkpt>
      <trkpt lat="48.10361" lon="3.28873">
        <ele>116.9</ele>
        <time>2024-03-30T16:21:04.000Z</time>
      </trkpt>
      <trkpt lat="48.1036" lon="3.28872">
        <ele>117</ele>
        <time>2024-03-30T16:21:06.000Z</time>
      </trkpt>
      <trkpt lat="48.1036" lon="3.28872">
        <ele>117</ele>
        <time>2024-03-30T16:21:07.000Z</time>
      </trkpt>
      <trkpt lat="48.1036" lon="3.28871">
        <ele>116.9</ele>
        <time>2024-03-30T16:21:08.000Z</time>
      </trkpt>
      <trkpt lat="48.10361" lon="3.28869">
        <ele>116.6</ele>
        <time>2024-03-30T16:21:09.000Z</time>
      </trkpt>
      <trkpt lat="48.10365" lon="3.28866">
        <ele>115.8</ele>
        <time>2024-03-30T16:21:11.000Z</time>
      </trkpt>
      <trkpt lat="48.10366" lon="3.28866">
        <ele>115.6</ele>
        <time>2024-03-30T16:21:12.000Z</time>
      </trkpt>
      <trkpt lat="48.10367" lon="3.28864">
        <ele>115.3</ele>
        <time>2024-03-30T16:21:13.000Z</time>
      </trkpt>
      <trkpt lat="48.10368" lon="3.28863">
        <ele>115.1</ele>
        <time>2024-03-30T16:21:14.000Z</time>
      </trkpt>
      <trkpt lat="48.1037" lon="3.2886">
        <ele>114.7</ele>
        <time>2024-03-30T16:21:15.000Z</time>
      </trkpt>
      <trkpt lat="48.1037" lon="3.28858">
        <ele>114.5</ele>
        <time>2024-03-30T16:21:16.000Z</time>
      </trkpt>
      <trkpt lat="48.1037" lon="3.28856">
        <ele>114.4</ele>
        <time>2024-03-30T16:21:18.000Z</time>
      </trkpt>
      <trkpt lat="48.1037" lon="3.28854">
        <ele>114.3</ele>
        <time>2024-03-30T16:21:19.000Z</time>
      </trkpt>
      <trkpt lat="48.1037" lon="3.28852">
        <ele>114.2</ele>
        <time>2024-03-30T16:21:20.000Z</time>
      </trkpt>
      <trkpt lat="48.1037" lon="3.28851">
        <ele>114.1</ele>
        <time>2024-03-30T16:21:21.000Z</time>
      </trkpt>
      <trkpt lat="48.1037" lon="3.28848">
        <ele>113.9</ele>
        <time>2024-03-30T16:21:22.000Z</time>
      </trkpt>
      <trkpt lat="48.10369" lon="3.28846">
        <ele>113.9</ele>
        <time>2024-03-30T16:21:23.000Z</time>
      </trkpt>
      <trkpt lat="48.10369" lon="3.28844">
        <ele>113.8</ele>
        <time>2024-03-30T16:21:24.000Z</time>
      </trkpt>
      <trkpt lat="48.10368" lon="3.28842">
        <ele>113.8</ele>
        <time>2024-03-30T16:21:25.000Z</time>
      </trkpt>
      <trkpt lat="48.10367" lon="3.2884">
        <ele>113.8</ele>
        <time>2024-03-30T16:21:26.000Z</time>
      </trkpt>
      <trkpt lat="48.10366" lon="3.28838">
        <ele>113.8</ele>
        <time>2024-03-30T16:21:27.000Z</time>
      </trkpt>
      <trkpt lat="48.10367" lon="3.28832">
        <ele>113.2</ele>
        <time>2024-03-30T16:21:29.000Z</time>
      </trkpt>
      <trkpt lat="48.10366" lon="3.28829">
        <ele>112.9</ele>
        <time>2024-03-30T16:21:30.000Z</time>
      </trkpt>
      <trkpt lat="48.10365" lon="3.28822">
        <ele>112.1</ele>
        <time>2024-03-30T16:21:32.000Z</time>
      </trkpt>
      <trkpt lat="48.10365" lon="3.28814">
        <ele>111</ele>
        <time>2024-03-30T16:21:34.000Z</time>
      </trkpt>
      <trkpt lat="48.10366" lon="3.28809">
        <ele>110.3</ele>
        <time>2024-03-30T16:21:35.000Z</time>
      </trkpt>
      <trkpt lat="48.10366" lon="3.28806">
        <ele>109.9</ele>
        <time>2024-03-30T16:21:36.000Z</time>
      </trkpt>
      <trkpt lat="48.10366" lon="3.28804">
        <ele>109.5</ele>
        <time>2024-03-30T16:21:37.000Z</time>
      </trkpt>
      <trkpt lat="48.10366" lon="3.28802">
        <ele>109</ele>
        <time>2024-03-30T16:21:38.000Z</time>
      </trkpt>
      <trkpt lat="48.10365" lon="3.28799">
        <ele>108.3</ele>
        <time>2024-03-30T16:21:39.000Z</time>
      </trkpt>
      <trkpt lat="48.10365" lon="3.28796">
        <ele>107.6</ele>
        <time>2024-03-30T16:21:40.000Z</time>
      </trkpt>
      <trkpt lat="48.10365" lon="3.28794">
        <ele>107.1</ele>
        <time>2024-03-30T16:21:41.000Z</time>
      </trkpt>
      <trkpt lat="48.10365" lon="3.28793">
        <ele>106.9</ele>
        <time>2024-03-30T16:21:42.000Z</time>
      </trkpt>
      <trkpt lat="48.10366" lon="3.28791">
        <ele>106.4</ele>
        <time>2024-03-30T16:21:43.000Z</time>
      </trkpt>
      <trkpt lat="48.10367" lon="3.28789">
        <ele>106</ele>
        <time>2024-03-30T16:21:44.000Z</time>
      </trkpt>
      <trkpt lat="48.10368" lon="3.28788">
        <ele>105.8</ele>
        <time>2024-03-30T16:21:45.000Z</time>
      </trkpt>
      <trkpt lat="48.1037" lon="3.28788">
        <ele>105.9</ele>
        <time>2024-03-30T16:21:46.000Z</time>
      </trkpt>
      <trkpt lat="48.1037" lon="3.28788">
        <ele>105.9</ele>
        <time>2024-03-30T16:21:47.000Z</time>
      </trkpt>
      <trkpt lat="48.1037" lon="3.28788">
        <ele>105.9</ele>
        <time>2024-03-30T16:21:48.000Z</time>
      </trkpt>
      <trkpt lat="48.1037" lon="3.28788">
        <ele>105.9</ele>
        <time>2024-03-30T16:21:49.000Z</time>
      </trkpt>
      <trkpt lat="48.1037" lon="3.28788">
        <ele>105.9</ele>
        <time>2024-03-30T16:21:50.000Z</time>
      </trkpt>
      <trkpt lat="48.1037" lon="3.28788">
        <ele>105.9</ele>
        <time>2024-03-30T16:21:52.000Z</time>
      </trkpt>
      <trkpt lat="48.10372" lon="3.28787">
        <ele>105.7</ele>
        <time>2024-03-30T16:21:56.000Z</time>
      </trkpt>
      <trkpt lat="48.10372" lon="3.28787">
        <ele>105.7</ele>
        <time>2024-03-30T16:21:58.000Z</time>
      </trkpt>
      <trkpt lat="48.10378" lon="3.28783">
        <ele>105.2</ele>
        <time>2024-03-30T16:22:05.000Z</time>
      </trkpt>
      <trkpt lat="48.10379" lon="3.28782">
        <ele>105.1</ele>
        <time>2024-03-30T16:22:06.000Z</time>
      </trkpt>
      <trkpt lat="48.1038" lon="3.28782">
        <ele>105.1</ele>
        <time>2024-03-30T16:22:07.000Z</time>
      </trkpt>
      <trkpt lat="48.10381" lon="3.28782">
        <ele>105.2</ele>
        <time>2024-03-30T16:22:08.000Z</time>
      </trkpt>
      <trkpt lat="48.10381" lon="3.28782">
        <ele>105.2</ele>
        <time>2024-03-30T16:22:09.000Z</time>
      </trkpt>
      <trkpt lat="48.10381" lon="3.28782">
        <ele>105.2</ele>
        <time>2024-03-30T16:22:10.000Z</time>
      </trkpt>
      <trkpt lat="48.10382" lon="3.28782">
        <ele>105.2</ele>
        <time>2024-03-30T16:22:12.000Z</time>
      </trkpt>
      <trkpt lat="48.10382" lon="3.28782">
        <ele>105.2</ele>
        <time>2024-03-30T16:22:13.000Z</time>
      </trkpt>
      <trkpt lat="48.10383" lon="3.28784">
        <ele>105.6</ele>
        <time>2024-03-30T16:22:17.000Z</time>
      </trkpt>
      <trkpt lat="48.10387" lon="3.28786">
        <ele>106.1</ele>
        <time>2024-03-30T16:22:21.000Z</time>
      </trkpt>
      <trkpt lat="48.10389" lon="3.28789">
        <ele>106.6</ele>
        <time>2024-03-30T16:22:23.000Z</time>
      </trkpt>
      <trkpt lat="48.1039" lon="3.2879">
        <ele>106.7</ele>
        <time>2024-03-30T16:22:24.000Z</time>
      </trkpt>
      <trkpt lat="48.10392" lon="3.28793">
        <ele>107.1</ele>
        <time>2024-03-30T16:22:30.000Z</time>
      </trkpt>
      <trkpt lat="48.10392" lon="3.28793">
        <ele>107.1</ele>
        <time>2024-03-30T16:22:31.000Z</time>
      </trkpt>
      <trkpt lat="48.10392" lon="3.28793">
        <ele>107.1</ele>
        <time>2024-03-30T16:22:43.000Z</time>
      </trkpt>
      <trkpt lat="48.10392" lon="3.28794">
        <ele>107.2</ele>
        <time>2024-03-30T16:22:53.000Z</time>
      </trkpt>
      <trkpt lat="48.10392" lon="3.28794">
        <ele>107.2</ele>
        <time>2024-03-30T16:23:04.000Z</time>
      </trkpt>
      <trkpt lat="48.10392" lon="3.28794">
        <ele>107.2</ele>
        <time>2024-03-30T16:23:16.000Z</time>
      </trkpt>
      <trkpt lat="48.10392" lon="3.28794">
        <ele>107.2</ele>
        <time>2024-03-30T16:23:28.000Z</time>
      </trkpt>
      <trkpt lat="48.10391" lon="3.28794">
        <ele>107.2</ele>
        <time>2024-03-30T16:23:38.000Z</time>
      </trkpt>
      <trkpt lat="48.10391" lon="3.28794">
        <ele>107.2</ele>
        <time>2024-03-30T16:23:55.000Z</time>
      </trkpt>
      <trkpt lat="48.10391" lon="3.28794">
        <ele>107.2</ele>
        <time>2024-03-30T16:24:02.000Z</time>
      </trkpt>
      <trkpt lat="48.10393" lon="3.28796">
        <ele>107.4</ele>
        <time>2024-03-30T16:24:05.000Z</time>
      </trkpt>
      <trkpt lat="48.10394" lon="3.28797">
        <ele>107.5</ele>
        <time>2024-03-30T16:24:06.000Z</time>
      </trkpt>
      <trkpt lat="48.10394" lon="3.28797">
        <ele>107.5</ele>
        <time>2024-03-30T16:24:07.000Z</time>
      </trkpt>
      <trkpt lat="48.10394" lon="3.28797">
        <ele>107.5</ele>
        <time>2024-03-30T16:24:08.000Z</time>
      </trkpt>
      <trkpt lat="48.10394" lon="3.28798">
        <ele>107.6</ele>
        <time>2024-03-30T16:24:13.000Z</time>
      </trkpt>
      <trkpt lat="48.10394" lon="3.288">
        <ele>107.9</ele>
        <time>2024-03-30T16:24:19.000Z</time>
      </trkpt>
      <trkpt lat="48.10395" lon="3.28802">
        <ele>108.1</ele>
        <time>2024-03-30T16:24:20.000Z</time>
      </trkpt>
      <trkpt lat="48.10396" lon="3.28804">
        <ele>108.3</ele>
        <time>2024-03-30T16:24:21.000Z</time>
      </trkpt>
      <trkpt lat="48.10398" lon="3.28806">
        <ele>108.4</ele>
        <time>2024-03-30T16:24:22.000Z</time>
      </trkpt>
      <trkpt lat="48.104" lon="3.28811">
        <ele>108.5</ele>
        <time>2024-03-30T16:24:24.000Z</time>
      </trkpt>
      <trkpt lat="48.104" lon="3.28813">
        <ele>108.6</ele>
        <time>2024-03-30T16:24:25.000Z</time>
      </trkpt>
      <trkpt lat="48.10405" lon="3.28828">
        <ele>109</ele>
        <time>2024-03-30T16:24:31.000Z</time>
      </trkpt>
      <trkpt lat="48.10405" lon="3.2883">
        <ele>109.1</ele>
        <time>2024-03-30T16:24:32.000Z</time>
      </trkpt>
      <trkpt lat="48.10406" lon="3.28832">
        <ele>109.1</ele>
        <time>2024-03-30T16:24:33.000Z</time>
      </trkpt>
      <trkpt lat="48.10407" lon="3.28833">
        <ele>109</ele>
        <time>2024-03-30T16:24:34.000Z</time>
      </trkpt>
      <trkpt lat="48.10407" lon="3.28835">
        <ele>109.1</ele>
        <time>2024-03-30T16:24:35.000Z</time>
      </trkpt>
      <trkpt lat="48.10407" lon="3.28836">
        <ele>109.1</ele>
        <time>2024-03-30T16:24:36.000Z</time>
      </trkpt>
      <trkpt lat="48.10407" lon="3.28838">
        <ele>109.1</ele>
        <time>2024-03-30T16:24:37.000Z</time>
      </trkpt>
      <trkpt lat="48.10408" lon="3.28839">
        <ele>109</ele>
        <time>2024-03-30T16:24:38.000Z</time>
      </trkpt>
      <trkpt lat="48.10407" lon="3.2884">
        <ele>109.1</ele>
        <time>2024-03-30T16:24:39.000Z</time>
      </trkpt>
      <trkpt lat="48.10408" lon="3.28842">
        <ele>109</ele>
        <time>2024-03-30T16:24:40.000Z</time>
      </trkpt>
      <trkpt lat="48.10408" lon="3.28844">
        <ele>109.1</ele>
        <time>2024-03-30T16:24:41.000Z</time>
      </trkpt>
      <trkpt lat="48.10408" lon="3.28845">
        <ele>109.1</ele>
        <time>2024-03-30T16:24:42.000Z</time>
      </trkpt>
      <trkpt lat="48.10409" lon="3.28847">
        <ele>109</ele>
        <time>2024-03-30T16:24:43.000Z</time>
      </trkpt>
      <trkpt lat="48.10409" lon="3.28848">
        <ele>109</ele>
        <time>2024-03-30T16:24:44.000Z</time>
      </trkpt>
      <trkpt lat="48.1041" lon="3.28849">
        <ele>108.9</ele>
        <time>2024-03-30T16:24:45.000Z</time>
      </trkpt>
      <trkpt lat="48.10411" lon="3.2885">
        <ele>108.7</ele>
        <time>2024-03-30T16:24:46.000Z</time>
      </trkpt>
      <trkpt lat="48.10411" lon="3.28851">
        <ele>108.7</ele>
        <time>2024-03-30T16:24:47.000Z</time>
      </trkpt>
      <trkpt lat="48.10412" lon="3.28853">
        <ele>108.6</ele>
        <time>2024-03-30T16:24:48.000Z</time>
      </trkpt>
      <trkpt lat="48.10412" lon="3.28854">
        <ele>108.6</ele>
        <time>2024-03-30T16:24:49.000Z</time>
      </trkpt>
      <trkpt lat="48.10413" lon="3.28857">
        <ele>108.5</ele>
        <time>2024-03-30T16:24:50.000Z</time>
      </trkpt>
      <trkpt lat="48.10413" lon="3.28859">
        <ele>108.5</ele>
        <time>2024-03-30T16:24:51.000Z</time>
      </trkpt>
      <trkpt lat="48.10413" lon="3.2886">
        <ele>108.5</ele>
        <time>2024-03-30T16:24:52.000Z</time>
      </trkpt>
      <trkpt lat="48.10413" lon="3.28862">
        <ele>108.6</ele>
        <time>2024-03-30T16:24:53.000Z</time>
      </trkpt>
      <trkpt lat="48.10413" lon="3.28863">
        <ele>108.6</ele>
        <time>2024-03-30T16:24:54.000Z</time>
      </trkpt>
      <trkpt lat="48.10413" lon="3.28865">
        <ele>108.7</ele>
        <time>2024-03-30T16:24:55.000Z</time>
      </trkpt>
      <trkpt lat="48.10413" lon="3.28866">
        <ele>108.7</ele>
        <time>2024-03-30T16:24:56.000Z</time>
      </trkpt>
      <trkpt lat="48.10413" lon="3.28867">
        <ele>108.7</ele>
        <time>2024-03-30T16:24:57.000Z</time>
      </trkpt>
      <trkpt lat="48.10413" lon="3.28868">
        <ele>108.8</ele>
        <time>2024-03-30T16:24:58.000Z</time>
      </trkpt>
      <trkpt lat="48.10414" lon="3.2887">
        <ele>108.7</ele>
        <time>2024-03-30T16:24:59.000Z</time>
      </trkpt>
      <trkpt lat="48.10414" lon="3.28872">
        <ele>108.8</ele>
        <time>2024-03-30T16:25:00.000Z</time>
      </trkpt>
      <trkpt lat="48.10415" lon="3.28874">
        <ele>108.7</ele>
        <time>2024-03-30T16:25:01.000Z</time>
      </trkpt>
      <trkpt lat="48.10415" lon="3.28876">
        <ele>108.8</ele>
        <time>2024-03-30T16:25:02.000Z</time>
      </trkpt>
      <trkpt lat="48.10415" lon="3.28878">
        <ele>108.8</ele>
        <time>2024-03-30T16:25:03.000Z</time>
      </trkpt>
      <trkpt lat="48.10416" lon="3.28886">
        <ele>109</ele>
        <time>2024-03-30T16:25:07.000Z</time>
      </trkpt>
      <trkpt lat="48.10416" lon="3.28888">
        <ele>109.1</ele>
        <time>2024-03-30T16:25:08.000Z</time>
      </trkpt>
      <trkpt lat="48.10416" lon="3.28892">
        <ele>109.3</ele>
        <time>2024-03-30T16:25:10.000Z</time>
      </trkpt>
      <trkpt lat="48.10417" lon="3.28906">
        <ele>110.2</ele>
        <time>2024-03-30T16:25:19.000Z</time>
      </trkpt>
      <trkpt lat="48.10418" lon="3.2892">
        <ele>110.8</ele>
        <time>2024-03-30T16:25:26.000Z</time>
      </trkpt>
      <trkpt lat="48.1042" lon="3.28926">
        <ele>110.5</ele>
        <time>2024-03-30T16:25:29.000Z</time>
      </trkpt>
      <trkpt lat="48.10425" lon="3.28948">
        <ele>109.9</ele>
        <time>2024-03-30T16:25:38.000Z</time>
      </trkpt>
      <trkpt lat="48.10426" lon="3.28955">
        <ele>110</ele>
        <time>2024-03-30T16:25:41.000Z</time>
      </trkpt>
      <trkpt lat="48.10427" lon="3.28957">
        <ele>110</ele>
        <time>2024-03-30T16:25:42.000Z</time>
      </trkpt>
      <trkpt lat="48.10427" lon="3.28959">
        <ele>110</ele>
        <time>2024-03-30T16:25:43.000Z</time>
      </trkpt>
      <trkpt lat="48.10427" lon="3.28961">
        <ele>110.1</ele>
        <time>2024-03-30T16:25:44.000Z</time>
      </trkpt>
      <trkpt lat="48.10427" lon="3.28963">
        <ele>110.2</ele>
        <time>2024-03-30T16:25:45.000Z</time>
      </trkpt>
      <trkpt lat="48.10428" lon="3.28965">
        <ele>110.1</ele>
        <time>2024-03-30T16:25:46.000Z</time>
      </trkpt>
      <trkpt lat="48.10428" lon="3.28967">
        <ele>110.2</ele>
        <time>2024-03-30T16:25:47.000Z</time>
      </trkpt>
      <trkpt lat="48.1043" lon="3.28983">
        <ele>110.5</ele>
        <time>2024-03-30T16:25:53.000Z</time>
      </trkpt>
      <trkpt lat="48.10434" lon="3.29002">
        <ele>110.6</ele>
        <time>2024-03-30T16:26:00.000Z</time>
      </trkpt>
      <trkpt lat="48.10435" lon="3.29008">
        <ele>110.6</ele>
        <time>2024-03-30T16:26:02.000Z</time>
      </trkpt>
      <trkpt lat="48.10437" lon="3.29011">
        <ele>110.5</ele>
        <time>2024-03-30T16:26:03.000Z</time>
      </trkpt>
      <trkpt lat="48.10438" lon="3.29013">
        <ele>110.4</ele>
        <time>2024-03-30T16:26:04.000Z</time>
      </trkpt>
      <trkpt lat="48.10439" lon="3.29015">
        <ele>110.3</ele>
        <time>2024-03-30T16:26:05.000Z</time>
      </trkpt>
      <trkpt lat="48.1044" lon="3.29018">
        <ele>110.3</ele>
        <time>2024-03-30T16:26:06.000Z</time>
      </trkpt>
      <trkpt lat="48.10441" lon="3.29023">
        <ele>110.3</ele>
        <time>2024-03-30T16:26:08.000Z</time>
      </trkpt>
      <trkpt lat="48.10441" lon="3.29026">
        <ele>110.4</ele>
        <time>2024-03-30T16:26:09.000Z</time>
      </trkpt>
      <trkpt lat="48.10441" lon="3.2903">
        <ele>110.6</ele>
        <time>2024-03-30T16:26:10.000Z</time>
      </trkpt>
      <trkpt lat="48.10442" lon="3.29032">
        <ele>110.5</ele>
        <time>2024-03-30T16:26:11.000Z</time>
      </trkpt>
      <trkpt lat="48.10444" lon="3.29041">
        <ele>110.5</ele>
        <time>2024-03-30T16:26:14.000Z</time>
      </trkpt>
      <trkpt lat="48.10444" lon="3.29044">
        <ele>110.6</ele>
        <time>2024-03-30T16:26:15.000Z</time>
      </trkpt>
      <trkpt lat="48.10445" lon="3.29046">
        <ele>110.6</ele>
        <time>2024-03-30T16:26:16.000Z</time>
      </trkpt>
      <trkpt lat="48.10446" lon="3.29049">
        <ele>110.5</ele>
        <time>2024-03-30T16:26:17.000Z</time>
      </trkpt>
      <trkpt lat="48.1045" lon="3.2907">
        <ele>110.1</ele>
        <time>2024-03-30T16:26:24.000Z</time>
      </trkpt>
      <trkpt lat="48.10453" lon="3.29082">
        <ele>109.8</ele>
        <time>2024-03-30T16:26:28.000Z</time>
      </trkpt>
      <trkpt lat="48.10453" lon="3.29085">
        <ele>109.8</ele>
        <time>2024-03-30T16:26:29.000Z</time>
      </trkpt>
      <trkpt lat="48.10454" lon="3.29087">
        <ele>109.8</ele>
        <time>2024-03-30T16:26:30.000Z</time>
      </trkpt>
      <trkpt lat="48.10454" lon="3.29091">
        <ele>109.9</ele>
        <time>2024-03-30T16:26:31.000Z</time>
      </trkpt>
      <trkpt lat="48.10454" lon="3.29093">
        <ele>110</ele>
        <time>2024-03-30T16:26:32.000Z</time>
      </trkpt>
      <trkpt lat="48.10455" lon="3.29096">
        <ele>109.9</ele>
        <time>2024-03-30T16:26:33.000Z</time>
      </trkpt>
      <trkpt lat="48.10455" lon="3.291">
        <ele>110.1</ele>
        <time>2024-03-30T16:26:34.000Z</time>
      </trkpt>
      <trkpt lat="48.10455" lon="3.29102">
        <ele>110.2</ele>
        <time>2024-03-30T16:26:35.000Z</time>
      </trkpt>
      <trkpt lat="48.10456" lon="3.29104">
        <ele>110.1</ele>
        <time>2024-03-30T16:26:36.000Z</time>
      </trkpt>
      <trkpt lat="48.10456" lon="3.2911">
        <ele>110.3</ele>
        <time>2024-03-30T16:26:38.000Z</time>
      </trkpt>
      <trkpt lat="48.10456" lon="3.29112">
        <ele>110.4</ele>
        <time>2024-03-30T16:26:39.000Z</time>
      </trkpt>
      <trkpt lat="48.10456" lon="3.29115">
        <ele>110.5</ele>
        <time>2024-03-30T16:26:40.000Z</time>
      </trkpt>
      <trkpt lat="48.10457" lon="3.29117">
        <ele>110.4</ele>
        <time>2024-03-30T16:26:41.000Z</time>
      </trkpt>
      <trkpt lat="48.10457" lon="3.29119">
        <ele>110.5</ele>
        <time>2024-03-30T16:26:42.000Z</time>
      </trkpt>
      <trkpt lat="48.10457" lon="3.29122">
        <ele>110.6</ele>
        <time>2024-03-30T16:26:43.000Z</time>
      </trkpt>
      <trkpt lat="48.10457" lon="3.29124">
        <ele>110.7</ele>
        <time>2024-03-30T16:26:44.000Z</time>
      </trkpt>
      <trkpt lat="48.10457" lon="3.29126">
        <ele>110.7</ele>
        <time>2024-03-30T16:26:45.000Z</time>
      </trkpt>
      <trkpt lat="48.10457" lon="3.29128">
        <ele>110.8</ele>
        <time>2024-03-30T16:26:46.000Z</time>
      </trkpt>
      <trkpt lat="48.10457" lon="3.2913">
        <ele>110.9</ele>
        <time>2024-03-30T16:26:47.000Z</time>
      </trkpt>
      <trkpt lat="48.10456" lon="3.29132">
        <ele>111.1</ele>
        <time>2024-03-30T16:26:48.000Z</time>
      </trkpt>
      <trkpt lat="48.10456" lon="3.29134">
        <ele>111.2</ele>
        <time>2024-03-30T16:26:49.000Z</time>
      </trkpt>
      <trkpt lat="48.10456" lon="3.29136">
        <ele>111.2</ele>
        <time>2024-03-30T16:26:50.000Z</time>
      </trkpt>
      <trkpt lat="48.10456" lon="3.29139">
        <ele>111.3</ele>
        <time>2024-03-30T16:26:51.000Z</time>
      </trkpt>
      <trkpt lat="48.10456" lon="3.29142">
        <ele>111.3</ele>
        <time>2024-03-30T16:26:52.000Z</time>
      </trkpt>
      <trkpt lat="48.10456" lon="3.29145">
        <ele>111.3</ele>
        <time>2024-03-30T16:26:53.000Z</time>
      </trkpt>
      <trkpt lat="48.10463" lon="3.29174">
        <ele>110.6</ele>
        <time>2024-03-30T16:27:03.000Z</time>
      </trkpt>
      <trkpt lat="48.10468" lon="3.29206">
        <ele>110.6</ele>
        <time>2024-03-30T16:27:13.000Z</time>
      </trkpt>
      <trkpt lat="48.10468" lon="3.29209">
        <ele>110.6</ele>
        <time>2024-03-30T16:27:14.000Z</time>
      </trkpt>
      <trkpt lat="48.10468" lon="3.29211">
        <ele>110.6</ele>
        <time>2024-03-30T16:27:15.000Z</time>
      </trkpt>
      <trkpt lat="48.10469" lon="3.29214">
        <ele>110.5</ele>
        <time>2024-03-30T16:27:16.000Z</time>
      </trkpt>
      <trkpt lat="48.10469" lon="3.29216">
        <ele>110.5</ele>
        <time>2024-03-30T16:27:17.000Z</time>
      </trkpt>
      <trkpt lat="48.1047" lon="3.29219">
        <ele>110.3</ele>
        <time>2024-03-30T16:27:18.000Z</time>
      </trkpt>
      <trkpt lat="48.1047" lon="3.29221">
        <ele>110.3</ele>
        <time>2024-03-30T16:27:19.000Z</time>
      </trkpt>
      <trkpt lat="48.10471" lon="3.29224">
        <ele>110.2</ele>
        <time>2024-03-30T16:27:20.000Z</time>
      </trkpt>
      <trkpt lat="48.10471" lon="3.29227">
        <ele>110.3</ele>
        <time>2024-03-30T16:27:21.000Z</time>
      </trkpt>
      <trkpt lat="48.10472" lon="3.29229">
        <ele>110.3</ele>
        <time>2024-03-30T16:27:22.000Z</time>
      </trkpt>
      <trkpt lat="48.10472" lon="3.2923">
        <ele>110.3</ele>
        <time>2024-03-30T16:27:23.000Z</time>
      </trkpt>
      <trkpt lat="48.10472" lon="3.2923">
        <ele>110.3</ele>
        <time>2024-03-30T16:27:24.000Z</time>
      </trkpt>
      <trkpt lat="48.10472" lon="3.2923">
        <ele>110.3</ele>
        <time>2024-03-30T16:27:25.000Z</time>
      </trkpt>
      <trkpt lat="48.10472" lon="3.2923">
        <ele>110.3</ele>
        <time>2024-03-30T16:27:36.000Z</time>
      </trkpt>
      <trkpt lat="48.10472" lon="3.2923">
        <ele>110.3</ele>
        <time>2024-03-30T16:28:02.000Z</time>
      </trkpt>
      <trkpt lat="48.10472" lon="3.2923">
        <ele>110.3</ele>
        <time>2024-03-30T16:28:46.000Z</time>
      </trkpt>
      <trkpt lat="48.10472" lon="3.2923">
        <ele>110.3</ele>
        <time>2024-03-30T16:29:10.000Z</time>
      </trkpt>
      <trkpt lat="48.10472" lon="3.2923">
        <ele>110.3</ele>
        <time>2024-03-30T16:29:45.000Z</time>
      </trkpt>
      <trkpt lat="48.10472" lon="3.2923">
        <ele>110.3</ele>
        <time>2024-03-30T16:30:18.000Z</time>
      </trkpt>
      <trkpt lat="48.10471" lon="3.29232">
        <ele>110.5</ele>
        <time>2024-03-30T16:30:28.000Z</time>
      </trkpt>
      <trkpt lat="48.10471" lon="3.29233">
        <ele>110.5</ele>
        <time>2024-03-30T16:30:29.000Z</time>
      </trkpt>
      <trkpt lat="48.1047" lon="3.29233">
        <ele>110.7</ele>
        <time>2024-03-30T16:30:30.000Z</time>
      </trkpt>
      <trkpt lat="48.10469" lon="3.29233">
        <ele>110.8</ele>
        <time>2024-03-30T16:30:31.000Z</time>
      </trkpt>
      <trkpt lat="48.10468" lon="3.29233">
        <ele>110.9</ele>
        <time>2024-03-30T16:30:32.000Z</time>
      </trkpt>
      <trkpt lat="48.10468" lon="3.29232">
        <ele>110.9</ele>
        <time>2024-03-30T16:30:33.000Z</time>
      </trkpt>
      <trkpt lat="48.10467" lon="3.29232">
        <ele>111</ele>
        <time>2024-03-30T16:30:34.000Z</time>
      </trkpt>
      <trkpt lat="48.10466" lon="3.29231">
        <ele>111.1</ele>
        <time>2024-03-30T16:30:35.000Z</time>
      </trkpt>
      <trkpt lat="48.10464" lon="3.29231">
        <ele>111.4</ele>
        <time>2024-03-30T16:30:37.000Z</time>
      </trkpt>
      <trkpt lat="48.10463" lon="3.29232">
        <ele>111.6</ele>
        <time>2024-03-30T16:30:38.000Z</time>
      </trkpt>
      <trkpt lat="48.10462" lon="3.29232">
        <ele>111.7</ele>
        <time>2024-03-30T16:30:39.000Z</time>
      </trkpt>
      <trkpt lat="48.10457" lon="3.29234">
        <ele>112.4</ele>
        <time>2024-03-30T16:30:44.000Z</time>
      </trkpt>
      <trkpt lat="48.10455" lon="3.29235">
        <ele>112.7</ele>
        <time>2024-03-30T16:30:46.000Z</time>
      </trkpt>
      <trkpt lat="48.10454" lon="3.29236">
        <ele>112.8</ele>
        <time>2024-03-30T16:30:47.000Z</time>
      </trkpt>
      <trkpt lat="48.10453" lon="3.29236">
        <ele>112.9</ele>
        <time>2024-03-30T16:30:48.000Z</time>
      </trkpt>
      <trkpt lat="48.1045" lon="3.29237">
        <ele>113.3</ele>
        <time>2024-03-30T16:30:51.000Z</time>
      </trkpt>
      <trkpt lat="48.10449" lon="3.29237">
        <ele>113.4</ele>
        <time>2024-03-30T16:30:52.000Z</time>
      </trkpt>
      <trkpt lat="48.10449" lon="3.29237">
        <ele>113.4</ele>
        <time>2024-03-30T16:30:53.000Z</time>
      </trkpt>
      <trkpt lat="48.10448" lon="3.29237">
        <ele>113.6</ele>
        <time>2024-03-30T16:30:54.000Z</time>
      </trkpt>
      <trkpt lat="48.10447" lon="3.29238">
        <ele>113.7</ele>
        <time>2024-03-30T16:30:55.000Z</time>
      </trkpt>
      <trkpt lat="48.10446" lon="3.29238">
        <ele>113.8</ele>
        <time>2024-03-30T16:30:56.000Z</time>
      </trkpt>
      <trkpt lat="48.10443" lon="3.29239">
        <ele>114.3</ele>
        <time>2024-03-30T16:30:59.000Z</time>
      </trkpt>
      <trkpt lat="48.10439" lon="3.2924">
        <ele>115</ele>
        <time>2024-03-30T16:31:03.000Z</time>
      </trkpt>
      <trkpt lat="48.10438" lon="3.2924">
        <ele>115.2</ele>
        <time>2024-03-30T16:31:05.000Z</time>
      </trkpt>
      <trkpt lat="48.10438" lon="3.2924">
        <ele>115.2</ele>
        <time>2024-03-30T16:31:06.000Z</time>
      </trkpt>
      <trkpt lat="48.10438" lon="3.2924">
        <ele>115.2</ele>
        <time>2024-03-30T16:31:08.000Z</time>
      </trkpt>
      <trkpt lat="48.10438" lon="3.2924">
        <ele>115.2</ele>
        <time>2024-03-30T16:31:10.000Z</time>
      </trkpt>
      <trkpt lat="48.10438" lon="3.2924">
        <ele>115.2</ele>
        <time>2024-03-30T16:31:16.000Z</time>
      </trkpt>
      <trkpt lat="48.10437" lon="3.2924">
        <ele>115.3</ele>
        <time>2024-03-30T16:31:17.000Z</time>
      </trkpt>
      <trkpt lat="48.10437" lon="3.2924">
        <ele>115.3</ele>
        <time>2024-03-30T16:31:18.000Z</time>
      </trkpt>
      <trkpt lat="48.10436" lon="3.2924">
        <ele>115.5</ele>
        <time>2024-03-30T16:31:19.000Z</time>
      </trkpt>
      <trkpt lat="48.10434" lon="3.2924">
        <ele>115.9</ele>
        <time>2024-03-30T16:31:22.000Z</time>
      </trkpt>
      <trkpt lat="48.10434" lon="3.2924">
        <ele>115.9</ele>
        <time>2024-03-30T16:31:23.000Z</time>
      </trkpt>
      <trkpt lat="48.10434" lon="3.2924">
        <ele>115.9</ele>
        <time>2024-03-30T16:31:24.000Z</time>
      </trkpt>
      <trkpt lat="48.10433" lon="3.29239">
        <ele>116.1</ele>
        <time>2024-03-30T16:31:25.000Z</time>
      </trkpt>
      <trkpt lat="48.10433" lon="3.29239">
        <ele>116.1</ele>
        <time>2024-03-30T16:31:26.000Z</time>
      </trkpt>
      <trkpt lat="48.10433" lon="3.29239">
        <ele>116.1</ele>
        <time>2024-03-30T16:31:27.000Z</time>
      </trkpt>
      <trkpt lat="48.10433" lon="3.29239">
        <ele>116.1</ele>
        <time>2024-03-30T16:31:28.000Z</time>
      </trkpt>
      <trkpt lat="48.10433" lon="3.29239">
        <ele>116.1</ele>
        <time>2024-03-30T16:31:31.000Z</time>
      </trkpt>
      <trkpt lat="48.10432" lon="3.29238">
        <ele>116.2</ele>
        <time>2024-03-30T16:31:34.000Z</time>
      </trkpt>
      <trkpt lat="48.10431" lon="3.29238">
        <ele>116.4</ele>
        <time>2024-03-30T16:31:35.000Z</time>
      </trkpt>
      <trkpt lat="48.10431" lon="3.29237">
        <ele>116.4</ele>
        <time>2024-03-30T16:31:36.000Z</time>
      </trkpt>
      <trkpt lat="48.10428" lon="3.29236">
        <ele>117</ele>
        <time>2024-03-30T16:31:38.000Z</time>
      </trkpt>
      <trkpt lat="48.10427" lon="3.29235">
        <ele>117.1</ele>
        <time>2024-03-30T16:31:41.000Z</time>
      </trkpt>
      <trkpt lat="48.10423" lon="3.29231">
        <ele>117.9</ele>
        <time>2024-03-30T16:31:48.000Z</time>
      </trkpt>
      <trkpt lat="48.10419" lon="3.29229">
        <ele>118.6</ele>
        <time>2024-03-30T16:31:51.000Z</time>
      </trkpt>
      <trkpt lat="48.10418" lon="3.29229">
        <ele>118.8</ele>
        <time>2024-03-30T16:31:52.000Z</time>
      </trkpt>
      <trkpt lat="48.10418" lon="3.29227">
        <ele>118.8</ele>
        <time>2024-03-30T16:31:53.000Z</time>
      </trkpt>
      <trkpt lat="48.10417" lon="3.29227">
        <ele>118.9</ele>
        <time>2024-03-30T16:31:54.000Z</time>
      </trkpt>
      <trkpt lat="48.10416" lon="3.29226">
        <ele>119.2</ele>
        <time>2024-03-30T16:31:55.000Z</time>
      </trkpt>
      <trkpt lat="48.10415" lon="3.29225">
        <ele>119.5</ele>
        <time>2024-03-30T16:31:56.000Z</time>
      </trkpt>
      <trkpt lat="48.10414" lon="3.29225">
        <ele>119.8</ele>
        <time>2024-03-30T16:31:57.000Z</time>
      </trkpt>
      <trkpt lat="48.10413" lon="3.29224">
        <ele>120.1</ele>
        <time>2024-03-30T16:31:58.000Z</time>
      </trkpt>
      <trkpt lat="48.10413" lon="3.29223">
        <ele>120.1</ele>
        <time>2024-03-30T16:31:59.000Z</time>
      </trkpt>
      <trkpt lat="48.10412" lon="3.29223">
        <ele>120.3</ele>
        <time>2024-03-30T16:32:00.000Z</time>
      </trkpt>
      <trkpt lat="48.10411" lon="3.29222">
        <ele>120.6</ele>
        <time>2024-03-30T16:32:01.000Z</time>
      </trkpt>
      <trkpt lat="48.10411" lon="3.29221">
        <ele>120.6</ele>
        <time>2024-03-30T16:32:02.000Z</time>
      </trkpt>
      <trkpt lat="48.10411" lon="3.29221">
        <ele>120.6</ele>
        <time>2024-03-30T16:32:03.000Z</time>
      </trkpt>
      <trkpt lat="48.10411" lon="3.29221">
        <ele>120.6</ele>
        <time>2024-03-30T16:32:04.000Z</time>
      </trkpt>
      <trkpt lat="48.1041" lon="3.2922">
        <ele>120.8</ele>
        <time>2024-03-30T16:32:05.000Z</time>
      </trkpt>
      <trkpt lat="48.1041" lon="3.2922">
        <ele>120.8</ele>
        <time>2024-03-30T16:32:06.000Z</time>
      </trkpt>
      <trkpt lat="48.10409" lon="3.29219">
        <ele>121.1</ele>
        <time>2024-03-30T16:32:07.000Z</time>
      </trkpt>
      <trkpt lat="48.10409" lon="3.29218">
        <ele>121</ele>
        <time>2024-03-30T16:32:08.000Z</time>
      </trkpt>
      <trkpt lat="48.10408" lon="3.29218">
        <ele>121.3</ele>
        <time>2024-03-30T16:32:09.000Z</time>
      </trkpt>
      <trkpt lat="48.10408" lon="3.29218">
        <ele>121.3</ele>
        <time>2024-03-30T16:32:10.000Z</time>
      </trkpt>
      <trkpt lat="48.10408" lon="3.29218">
        <ele>121.3</ele>
        <time>2024-03-30T16:32:11.000Z</time>
      </trkpt>
      <trkpt lat="48.10407" lon="3.29218">
        <ele>121.6</ele>
        <time>2024-03-30T16:32:12.000Z</time>
      </trkpt>
      <trkpt lat="48.10407" lon="3.29217">
        <ele>121.5</ele>
        <time>2024-03-30T16:32:13.000Z</time>
      </trkpt>
      <trkpt lat="48.10406" lon="3.29217">
        <ele>121.8</ele>
        <time>2024-03-30T16:32:14.000Z</time>
      </trkpt>
      <trkpt lat="48.10406" lon="3.29217">
        <ele>121.8</ele>
        <time>2024-03-30T16:32:15.000Z</time>
      </trkpt>
      <trkpt lat="48.10406" lon="3.29217">
        <ele>121.8</ele>
        <time>2024-03-30T16:32:16.000Z</time>
      </trkpt>
      <trkpt lat="48.10406" lon="3.29216">
        <ele>121.8</ele>
        <time>2024-03-30T16:32:17.000Z</time>
      </trkpt>
      <trkpt lat="48.10406" lon="3.29216">
        <ele>121.8</ele>
        <time>2024-03-30T16:32:18.000Z</time>
      </trkpt>
      <trkpt lat="48.10405" lon="3.29216">
        <ele>122</ele>
        <time>2024-03-30T16:32:19.000Z</time>
      </trkpt>
      <trkpt lat="48.10405" lon="3.29216">
        <ele>122</ele>
        <time>2024-03-30T16:32:20.000Z</time>
      </trkpt>
      <trkpt lat="48.10405" lon="3.29215">
        <ele>122</ele>
        <time>2024-03-30T16:32:21.000Z</time>
      </trkpt>
      <trkpt lat="48.10405" lon="3.29216">
        <ele>122</ele>
        <time>2024-03-30T16:32:22.000Z</time>
      </trkpt>
      <trkpt lat="48.10404" lon="3.29216">
        <ele>122.3</ele>
        <time>2024-03-30T16:32:25.000Z</time>
      </trkpt>
      <trkpt lat="48.10404" lon="3.29216">
        <ele>122.3</ele>
        <time>2024-03-30T16:32:28.000Z</time>
      </trkpt>
      <trkpt lat="48.10404" lon="3.29214">
        <ele>122.2</ele>
        <time>2024-03-30T16:32:32.000Z</time>
      </trkpt>
      <trkpt lat="48.10404" lon="3.29214">
        <ele>122.2</ele>
        <time>2024-03-30T16:32:33.000Z</time>
      </trkpt>
      <trkpt lat="48.10403" lon="3.29214">
        <ele>122.5</ele>
        <time>2024-03-30T16:32:34.000Z</time>
      </trkpt>
      <trkpt lat="48.10402" lon="3.29214">
        <ele>122.8</ele>
        <time>2024-03-30T16:32:35.000Z</time>
      </trkpt>
      <trkpt lat="48.10402" lon="3.29214">
        <ele>122.8</ele>
        <time>2024-03-30T16:32:36.000Z</time>
      </trkpt>
      <trkpt lat="48.10401" lon="3.29214">
        <ele>123</ele>
        <time>2024-03-30T16:32:37.000Z</time>
      </trkpt>
      <trkpt lat="48.10401" lon="3.29213">
        <ele>123</ele>
        <time>2024-03-30T16:32:38.000Z</time>
      </trkpt>
      <trkpt lat="48.104" lon="3.29213">
        <ele>123.3</ele>
        <time>2024-03-30T16:32:39.000Z</time>
      </trkpt>
      <trkpt lat="48.104" lon="3.29213">
        <ele>123.3</ele>
        <time>2024-03-30T16:32:40.000Z</time>
      </trkpt>
      <trkpt lat="48.104" lon="3.29213">
        <ele>123.3</ele>
        <time>2024-03-30T16:32:41.000Z</time>
      </trkpt>
      <trkpt lat="48.10399" lon="3.29213">
        <ele>123.5</ele>
        <time>2024-03-30T16:32:42.000Z</time>
      </trkpt>
      <trkpt lat="48.10398" lon="3.29213">
        <ele>123.8</ele>
        <time>2024-03-30T16:32:43.000Z</time>
      </trkpt>
      <trkpt lat="48.10398" lon="3.29213">
        <ele>123.8</ele>
        <time>2024-03-30T16:32:44.000Z</time>
      </trkpt>
      <trkpt lat="48.10398" lon="3.29213">
        <ele>123.8</ele>
        <time>2024-03-30T16:32:45.000Z</time>
      </trkpt>
      <trkpt lat="48.10398" lon="3.29213">
        <ele>123.8</ele>
        <time>2024-03-30T16:32:46.000Z</time>
      </trkpt>
      <trkpt lat="48.10398" lon="3.29213">
        <ele>123.8</ele>
        <time>2024-03-30T16:32:51.000Z</time>
      </trkpt>
      <trkpt lat="48.10398" lon="3.29213">
        <ele>123.8</ele>
        <time>2024-03-30T16:32:54.000Z</time>
      </trkpt>
      <trkpt lat="48.10398" lon="3.29212">
        <ele>123.8</ele>
        <time>2024-03-30T16:32:56.000Z</time>
      </trkpt>
      <trkpt lat="48.10397" lon="3.29212">
        <ele>124</ele>
        <time>2024-03-30T16:33:03.000Z</time>
      </trkpt>
      <trkpt lat="48.10397" lon="3.29212">
        <ele>124</ele>
        <time>2024-03-30T16:33:07.000Z</time>
      </trkpt>
      <trkpt lat="48.10397" lon="3.29212">
        <ele>124</ele>
        <time>2024-03-30T16:33:12.000Z</time>
      </trkpt>
      <trkpt lat="48.10397" lon="3.29212">
        <ele>124</ele>
        <time>2024-03-30T16:33:15.000Z</time>
      </trkpt>
      <trkpt lat="48.10397" lon="3.29212">
        <ele>124</ele>
        <time>2024-03-30T16:33:24.000Z</time>
      </trkpt>
      <trkpt lat="48.10396" lon="3.29212">
        <ele>124.3</ele>
        <time>2024-03-30T16:33:25.000Z</time>
      </trkpt>
      <trkpt lat="48.10392" lon="3.2921">
        <ele>125.3</ele>
        <time>2024-03-30T16:33:31.000Z</time>
      </trkpt>
      <trkpt lat="48.10391" lon="3.2921">
        <ele>125.5</ele>
        <time>2024-03-30T16:33:32.000Z</time>
      </trkpt>
      <trkpt lat="48.10391" lon="3.2921">
        <ele>125.5</ele>
        <time>2024-03-30T16:33:35.000Z</time>
      </trkpt>
      <trkpt lat="48.1039" lon="3.2921">
        <ele>125.8</ele>
        <time>2024-03-30T16:33:36.000Z</time>
      </trkpt>
      <trkpt lat="48.1039" lon="3.2921">
        <ele>125.8</ele>
        <time>2024-03-30T16:33:39.000Z</time>
      </trkpt>
      <trkpt lat="48.1039" lon="3.2921">
        <ele>125.8</ele>
        <time>2024-03-30T16:33:40.000Z</time>
      </trkpt>
      <trkpt lat="48.10389" lon="3.2921">
        <ele>126.1</ele>
        <time>2024-03-30T16:33:53.000Z</time>
      </trkpt>
      <trkpt lat="48.10389" lon="3.2921">
        <ele>126.1</ele>
        <time>2024-03-30T16:33:56.000Z</time>
      </trkpt>
      <trkpt lat="48.10389" lon="3.2921">
        <ele>126.1</ele>
        <time>2024-03-30T16:34:05.000Z</time>
      </trkpt>
      <trkpt lat="48.10389" lon="3.29209">
        <ele>126</ele>
        <time>2024-03-30T16:34:08.000Z</time>
      </trkpt>
      <trkpt lat="48.10389" lon="3.29209">
        <ele>126</ele>
        <time>2024-03-30T16:34:09.000Z</time>
      </trkpt>
      <trkpt lat="48.10385" lon="3.29208">
        <ele>127.2</ele>
        <time>2024-03-30T16:34:18.000Z</time>
      </trkpt>
      <trkpt lat="48.10385" lon="3.29208">
        <ele>127.2</ele>
        <time>2024-03-30T16:34:23.000Z</time>
      </trkpt>
      <trkpt lat="48.10384" lon="3.29207">
        <ele>127.5</ele>
        <time>2024-03-30T16:34:26.000Z</time>
      </trkpt>
      <trkpt lat="48.10381" lon="3.29207">
        <ele>128.5</ele>
        <time>2024-03-30T16:34:29.000Z</time>
      </trkpt>
      <trkpt lat="48.10378" lon="3.29207">
        <ele>129.5</ele>
        <time>2024-03-30T16:34:31.000Z</time>
      </trkpt>
      <trkpt lat="48.10376" lon="3.29207">
        <ele>130.1</ele>
        <time>2024-03-30T16:34:33.000Z</time>
      </trkpt>
      <trkpt lat="48.10374" lon="3.29207">
        <ele>130.8</ele>
        <time>2024-03-30T16:34:35.000Z</time>
      </trkpt>
      <trkpt lat="48.10374" lon="3.29207">
        <ele>130.8</ele>
        <time>2024-03-30T16:34:36.000Z</time>
      </trkpt>
      <trkpt lat="48.10374" lon="3.29207">
        <ele>130.8</ele>
        <time>2024-03-30T16:34:41.000Z</time>
      </trkpt>
      <trkpt lat="48.10373" lon="3.29207">
        <ele>131.1</ele>
        <time>2024-03-30T16:34:43.000Z</time>
      </trkpt>
      <trkpt lat="48.1037" lon="3.29207">
        <ele>132.1</ele>
        <time>2024-03-30T16:34:47.000Z</time>
      </trkpt>
      <trkpt lat="48.10369" lon="3.29208">
        <ele>132.4</ele>
        <time>2024-03-30T16:34:48.000Z</time>
      </trkpt>
      <trkpt lat="48.10369" lon="3.29208">
        <ele>132.4</ele>
        <time>2024-03-30T16:34:49.000Z</time>
      </trkpt>
      <trkpt lat="48.10368" lon="3.29207">
        <ele>132.7</ele>
        <time>2024-03-30T16:34:56.000Z</time>
      </trkpt>
      <trkpt lat="48.10368" lon="3.29207">
        <ele>132.7</ele>
        <time>2024-03-30T16:34:57.000Z</time>
      </trkpt>
      <trkpt lat="48.10368" lon="3.29207">
        <ele>132.7</ele>
        <time>2024-03-30T16:34:59.000Z</time>
      </trkpt>
      <trkpt lat="48.10367" lon="3.29205">
        <ele>133</ele>
        <time>2024-03-30T16:35:02.000Z</time>
      </trkpt>
      <trkpt lat="48.10366" lon="3.29203">
        <ele>133.3</ele>
        <time>2024-03-30T16:35:05.000Z</time>
      </trkpt>
      <trkpt lat="48.10365" lon="3.29203">
        <ele>133.7</ele>
        <time>2024-03-30T16:35:06.000Z</time>
      </trkpt>
      <trkpt lat="48.10364" lon="3.29203">
        <ele>134</ele>
        <time>2024-03-30T16:35:07.000Z</time>
      </trkpt>
      <trkpt lat="48.10363" lon="3.29203">
        <ele>134.4</ele>
        <time>2024-03-30T16:35:08.000Z</time>
      </trkpt>
      <trkpt lat="48.10363" lon="3.29203">
        <ele>134.4</ele>
        <time>2024-03-30T16:35:09.000Z</time>
      </trkpt>
      <trkpt lat="48.10362" lon="3.29203">
        <ele>134.7</ele>
        <time>2024-03-30T16:35:10.000Z</time>
      </trkpt>
      <trkpt lat="48.10361" lon="3.29203">
        <ele>135</ele>
        <time>2024-03-30T16:35:11.000Z</time>
      </trkpt>
      <trkpt lat="48.10352" lon="3.29202">
        <ele>136.7</ele>
        <time>2024-03-30T16:35:17.000Z</time>
      </trkpt>
      <trkpt lat="48.10352" lon="3.29202">
        <ele>136.7</ele>
        <time>2024-03-30T16:35:18.000Z</time>
      </trkpt>
      <trkpt lat="48.10351" lon="3.29201">
        <ele>136.9</ele>
        <time>2024-03-30T16:35:19.000Z</time>
      </trkpt>
      <trkpt lat="48.1035" lon="3.29201">
        <ele>137.1</ele>
        <time>2024-03-30T16:35:20.000Z</time>
      </trkpt>
      <trkpt lat="48.10349" lon="3.29201">
        <ele>137.3</ele>
        <time>2024-03-30T16:35:21.000Z</time>
      </trkpt>
      <trkpt lat="48.10349" lon="3.292">
        <ele>137.3</ele>
        <time>2024-03-30T16:35:22.000Z</time>
      </trkpt>
      <trkpt lat="48.10348" lon="3.29199">
        <ele>137.4</ele>
        <time>2024-03-30T16:35:23.000Z</time>
      </trkpt>
      <trkpt lat="48.10347" lon="3.29199">
        <ele>137.6</ele>
        <time>2024-03-30T16:35:24.000Z</time>
      </trkpt>
      <trkpt lat="48.10346" lon="3.29199">
        <ele>137.8</ele>
        <time>2024-03-30T16:35:25.000Z</time>
      </trkpt>
      <trkpt lat="48.10346" lon="3.29199">
        <ele>137.8</ele>
        <time>2024-03-30T16:35:26.000Z</time>
      </trkpt>
      <trkpt lat="48.10345" lon="3.29199">
        <ele>138</ele>
        <time>2024-03-30T16:35:27.000Z</time>
      </trkpt>
      <trkpt lat="48.10345" lon="3.292">
        <ele>138</ele>
        <time>2024-03-30T16:35:28.000Z</time>
      </trkpt>
      <trkpt lat="48.10344" lon="3.29199">
        <ele>138.2</ele>
        <time>2024-03-30T16:35:29.000Z</time>
      </trkpt>
      <trkpt lat="48.10344" lon="3.292">
        <ele>138.2</ele>
        <time>2024-03-30T16:35:30.000Z</time>
      </trkpt>
      <trkpt lat="48.10343" lon="3.292">
        <ele>138.4</ele>
        <time>2024-03-30T16:35:31.000Z</time>
      </trkpt>
      <trkpt lat="48.10343" lon="3.292">
        <ele>138.4</ele>
        <time>2024-03-30T16:35:32.000Z</time>
      </trkpt>
      <trkpt lat="48.10342" lon="3.292">
        <ele>138.6</ele>
        <time>2024-03-30T16:35:33.000Z</time>
      </trkpt>
      <trkpt lat="48.10341" lon="3.29201">
        <ele>138.8</ele>
        <time>2024-03-30T16:35:34.000Z</time>
      </trkpt>
      <trkpt lat="48.10341" lon="3.29201">
        <ele>138.8</ele>
        <time>2024-03-30T16:35:35.000Z</time>
      </trkpt>
      <trkpt lat="48.10341" lon="3.29201">
        <ele>138.8</ele>
        <time>2024-03-30T16:35:36.000Z</time>
      </trkpt>
      <trkpt lat="48.10341" lon="3.29201">
        <ele>138.8</ele>
        <time>2024-03-30T16:35:37.000Z</time>
      </trkpt>
      <trkpt lat="48.1034" lon="3.29202">
        <ele>139</ele>
        <time>2024-03-30T16:35:38.000Z</time>
      </trkpt>
      <trkpt lat="48.1034" lon="3.29202">
        <ele>139</ele>
        <time>2024-03-30T16:35:39.000Z</time>
      </trkpt>
      <trkpt lat="48.1034" lon="3.29202">
        <ele>139</ele>
        <time>2024-03-30T16:35:40.000Z</time>
      </trkpt>
      <trkpt lat="48.1034" lon="3.29202">
        <ele>139</ele>
        <time>2024-03-30T16:35:41.000Z</time>
      </trkpt>
      <trkpt lat="48.1034" lon="3.29202">
        <ele>139</ele>
        <time>2024-03-30T16:35:42.000Z</time>
      </trkpt>
      <trkpt lat="48.1034" lon="3.29202">
        <ele>139</ele>
        <time>2024-03-30T16:35:43.000Z</time>
      </trkpt>
      <trkpt lat="48.1034" lon="3.29202">
        <ele>139</ele>
        <time>2024-03-30T16:35:47.000Z</time>
      </trkpt>
      <trkpt lat="48.1034" lon="3.29202">
        <ele>139</ele>
        <time>2024-03-30T16:35:49.000Z</time>
      </trkpt>
      <trkpt lat="48.10339" lon="3.29203">
        <ele>139.2</ele>
        <time>2024-03-30T16:36:01.000Z</time>
      </trkpt>
      <trkpt lat="48.10339" lon="3.29204">
        <ele>139.3</ele>
        <time>2024-03-30T16:36:02.000Z</time>
      </trkpt>
      <trkpt lat="48.1034" lon="3.29205">
        <ele>139.1</ele>
        <time>2024-03-30T16:36:03.000Z</time>
      </trkpt>
      <trkpt lat="48.1034" lon="3.29205">
        <ele>139.1</ele>
        <time>2024-03-30T16:36:04.000Z</time>
      </trkpt>
      <trkpt lat="48.1034" lon="3.29205">
        <ele>139.1</ele>
        <time>2024-03-30T16:36:13.000Z</time>
      </trkpt>
      <trkpt lat="48.1034" lon="3.29205">
        <ele>139.1</ele>
        <time>2024-03-30T16:36:39.000Z</time>
      </trkpt>
      <trkpt lat="48.1034" lon="3.29205">
        <ele>139.1</ele>
        <time>2024-03-30T16:36:45.000Z</time>
      </trkpt>
      <trkpt lat="48.10341" lon="3.29208">
        <ele>139</ele>
        <time>2024-03-30T16:36:48.000Z</time>
      </trkpt>
      <trkpt lat="48.10342" lon="3.29208">
        <ele>138.8</ele>
        <time>2024-03-30T16:36:49.000Z</time>
      </trkpt>
      <trkpt lat="48.10343" lon="3.2921">
        <ele>138.6</ele>
        <time>2024-03-30T16:36:50.000Z</time>
      </trkpt>
      <trkpt lat="48.10343" lon="3.29211">
        <ele>138.6</ele>
        <time>2024-03-30T16:36:51.000Z</time>
      </trkpt>
      <trkpt lat="48.10343" lon="3.29214">
        <ele>138.7</ele>
        <time>2024-03-30T16:36:52.000Z</time>
      </trkpt>
      <trkpt lat="48.10343" lon="3.29215">
        <ele>138.7</ele>
        <time>2024-03-30T16:36:53.000Z</time>
      </trkpt>
      <trkpt lat="48.10343" lon="3.29218">
        <ele>138.8</ele>
        <time>2024-03-30T16:36:54.000Z</time>
      </trkpt>
      <trkpt lat="48.10343" lon="3.29222">
        <ele>138.9</ele>
        <time>2024-03-30T16:36:56.000Z</time>
      </trkpt>
      <trkpt lat="48.10344" lon="3.29225">
        <ele>138.8</ele>
        <time>2024-03-30T16:36:57.000Z</time>
      </trkpt>
      <trkpt lat="48.10349" lon="3.29244">
        <ele>138.8</ele>
        <time>2024-03-30T16:37:02.000Z</time>
      </trkpt>
      <trkpt lat="48.10352" lon="3.29259">
        <ele>139</ele>
        <time>2024-03-30T16:37:06.000Z</time>
      </trkpt>
      <trkpt lat="48.10351" lon="3.29262">
        <ele>139.3</ele>
        <time>2024-03-30T16:37:07.000Z</time>
      </trkpt>
      <trkpt lat="48.10351" lon="3.29266">
        <ele>139.4</ele>
        <time>2024-03-30T16:37:08.000Z</time>
      </trkpt>
      <trkpt lat="48.10351" lon="3.29269">
        <ele>139.5</ele>
        <time>2024-03-30T16:37:09.000Z</time>
      </trkpt>
      <trkpt lat="48.10352" lon="3.29272">
        <ele>139.4</ele>
        <time>2024-03-30T16:37:10.000Z</time>
      </trkpt>
      <trkpt lat="48.10352" lon="3.29275">
        <ele>139.5</ele>
        <time>2024-03-30T16:37:11.000Z</time>
      </trkpt>
      <trkpt lat="48.10352" lon="3.29278">
        <ele>139.7</ele>
        <time>2024-03-30T16:37:12.000Z</time>
      </trkpt>
      <trkpt lat="48.10352" lon="3.29282">
        <ele>139.9</ele>
        <time>2024-03-30T16:37:13.000Z</time>
      </trkpt>
      <trkpt lat="48.10352" lon="3.29285">
        <ele>140.1</ele>
        <time>2024-03-30T16:37:14.000Z</time>
      </trkpt>
      <trkpt lat="48.10353" lon="3.2929">
        <ele>140.2</ele>
        <time>2024-03-30T16:37:15.000Z</time>
      </trkpt>
      <trkpt lat="48.10355" lon="3.29294">
        <ele>140.1</ele>
        <time>2024-03-30T16:37:16.000Z</time>
      </trkpt>
      <trkpt lat="48.10358" lon="3.29303">
        <ele>140.3</ele>
        <time>2024-03-30T16:37:18.000Z</time>
      </trkpt>
      <trkpt lat="48.10359" lon="3.29307">
        <ele>140.4</ele>
        <time>2024-03-30T16:37:19.000Z</time>
      </trkpt>
      <trkpt lat="48.10362" lon="3.29321">
        <ele>140.3</ele>
        <time>2024-03-30T16:37:22.000Z</time>
      </trkpt>
      <trkpt lat="48.10367" lon="3.29334">
        <ele>139.1</ele>
        <time>2024-03-30T16:37:26.000Z</time>
      </trkpt>
      <trkpt lat="48.10369" lon="3.2934">
        <ele>138.9</ele>
        <time>2024-03-30T16:37:28.000Z</time>
      </trkpt>
      <trkpt lat="48.10369" lon="3.29343">
        <ele>139.1</ele>
        <time>2024-03-30T16:37:29.000Z</time>
      </trkpt>
      <trkpt lat="48.1037" lon="3.29347">
        <ele>139.1</ele>
        <time>2024-03-30T16:37:30.000Z</time>
      </trkpt>
      <trkpt lat="48.1037" lon="3.2935">
        <ele>139.3</ele>
        <time>2024-03-30T16:37:31.000Z</time>
      </trkpt>
      <trkpt lat="48.10371" lon="3.29353">
        <ele>139.2</ele>
        <time>2024-03-30T16:37:32.000Z</time>
      </trkpt>
      <trkpt lat="48.10371" lon="3.29355">
        <ele>139.4</ele>
        <time>2024-03-30T16:37:33.000Z</time>
      </trkpt>
      <trkpt lat="48.10371" lon="3.29357">
        <ele>139.5</ele>
        <time>2024-03-30T16:37:34.000Z</time>
      </trkpt>
      <trkpt lat="48.10371" lon="3.29359">
        <ele>139.6</ele>
        <time>2024-03-30T16:37:35.000Z</time>
      </trkpt>
      <trkpt lat="48.10371" lon="3.29361">
        <ele>139.8</ele>
        <time>2024-03-30T16:37:36.000Z</time>
      </trkpt>
      <trkpt lat="48.10372" lon="3.29364">
        <ele>139.6</ele>
        <time>2024-03-30T16:37:37.000Z</time>
      </trkpt>
      <trkpt lat="48.10373" lon="3.29367">
        <ele>139.5</ele>
        <time>2024-03-30T16:37:38.000Z</time>
      </trkpt>
      <trkpt lat="48.10373" lon="3.2937">
        <ele>139.6</ele>
        <time>2024-03-30T16:37:39.000Z</time>
      </trkpt>
      <trkpt lat="48.10372" lon="3.29372">
        <ele>140</ele>
        <time>2024-03-30T16:37:40.000Z</time>
      </trkpt>
      <trkpt lat="48.10371" lon="3.29375">
        <ele>140.5</ele>
        <time>2024-03-30T16:37:41.000Z</time>
      </trkpt>
      <trkpt lat="48.10371" lon="3.29377">
        <ele>140.6</ele>
        <time>2024-03-30T16:37:42.000Z</time>
      </trkpt>
      <trkpt lat="48.10371" lon="3.29379">
        <ele>140.7</ele>
        <time>2024-03-30T16:37:43.000Z</time>
      </trkpt>
      <trkpt lat="48.10371" lon="3.29381">
        <ele>140.8</ele>
        <time>2024-03-30T16:37:44.000Z</time>
      </trkpt>
      <trkpt lat="48.10372" lon="3.29384">
        <ele>140.6</ele>
        <time>2024-03-30T16:37:45.000Z</time>
      </trkpt>
      <trkpt lat="48.10371" lon="3.29386">
        <ele>141</ele>
        <time>2024-03-30T16:37:46.000Z</time>
      </trkpt>
      <trkpt lat="48.1037" lon="3.29393">
        <ele>141.7</ele>
        <time>2024-03-30T16:37:49.000Z</time>
      </trkpt>
      <trkpt lat="48.1037" lon="3.29396">
        <ele>142</ele>
        <time>2024-03-30T16:37:50.000Z</time>
      </trkpt>
      <trkpt lat="48.10367" lon="3.29401">
        <ele>143.2</ele>
        <time>2024-03-30T16:37:52.000Z</time>
      </trkpt>
      <trkpt lat="48.10366" lon="3.29403">
        <ele>143.6</ele>
        <time>2024-03-30T16:37:53.000Z</time>
      </trkpt>
      <trkpt lat="48.10366" lon="3.29406">
        <ele>143.8</ele>
        <time>2024-03-30T16:37:54.000Z</time>
      </trkpt>
      <trkpt lat="48.10364" lon="3.29409">
        <ele>144.6</ele>
        <time>2024-03-30T16:37:55.000Z</time>
      </trkpt>
      <trkpt lat="48.10364" lon="3.29411">
        <ele>144.8</ele>
        <time>2024-03-30T16:37:56.000Z</time>
      </trkpt>
      <trkpt lat="48.10363" lon="3.29414">
        <ele>145.3</ele>
        <time>2024-03-30T16:37:57.000Z</time>
      </trkpt>
      <trkpt lat="48.10363" lon="3.29416">
        <ele>145.4</ele>
        <time>2024-03-30T16:37:58.000Z</time>
      </trkpt>
      <trkpt lat="48.10363" lon="3.29419">
        <ele>145.6</ele>
        <time>2024-03-30T16:37:59.000Z</time>
      </trkpt>
      <trkpt lat="48.10362" lon="3.29422">
        <ele>145.9</ele>
        <time>2024-03-30T16:38:00.000Z</time>
      </trkpt>
      <trkpt lat="48.10361" lon="3.29425">
        <ele>146.3</ele>
        <time>2024-03-30T16:38:01.000Z</time>
      </trkpt>
      <trkpt lat="48.10362" lon="3.29427">
        <ele>146.1</ele>
        <time>2024-03-30T16:38:02.000Z</time>
      </trkpt>
      <trkpt lat="48.10362" lon="3.29429">
        <ele>146.2</ele>
        <time>2024-03-30T16:38:03.000Z</time>
      </trkpt>
      <trkpt lat="48.10362" lon="3.29432">
        <ele>146.3</ele>
        <time>2024-03-30T16:38:04.000Z</time>
      </trkpt>
      <trkpt lat="48.10362" lon="3.29434">
        <ele>146.4</ele>
        <time>2024-03-30T16:38:05.000Z</time>
      </trkpt>
      <trkpt lat="48.1036" lon="3.29436">
        <ele>146.9</ele>
        <time>2024-03-30T16:38:06.000Z</time>
      </trkpt>
      <trkpt lat="48.1036" lon="3.29438">
        <ele>146.9</ele>
        <time>2024-03-30T16:38:07.000Z</time>
      </trkpt>
      <trkpt lat="48.10359" lon="3.29441">
        <ele>147.2</ele>
        <time>2024-03-30T16:38:08.000Z</time>
      </trkpt>
      <trkpt lat="48.1036" lon="3.29445">
        <ele>147.2</ele>
        <time>2024-03-30T16:38:09.000Z</time>
      </trkpt>
      <trkpt lat="48.1036" lon="3.29448">
        <ele>147.3</ele>
        <time>2024-03-30T16:38:10.000Z</time>
      </trkpt>
      <trkpt lat="48.10361" lon="3.29451">
        <ele>147.3</ele>
        <time>2024-03-30T16:38:11.000Z</time>
      </trkpt>
      <trkpt lat="48.10363" lon="3.29453">
        <ele>146.9</ele>
        <time>2024-03-30T16:38:12.000Z</time>
      </trkpt>
      <trkpt lat="48.10365" lon="3.29454">
        <ele>146.6</ele>
        <time>2024-03-30T16:38:13.000Z</time>
      </trkpt>
      <trkpt lat="48.10366" lon="3.29457">
        <ele>146.5</ele>
        <time>2024-03-30T16:38:14.000Z</time>
      </trkpt>
      <trkpt lat="48.10367" lon="3.29461">
        <ele>146.5</ele>
        <time>2024-03-30T16:38:15.000Z</time>
      </trkpt>
      <trkpt lat="48.10368" lon="3.29464">
        <ele>146.4</ele>
        <time>2024-03-30T16:38:16.000Z</time>
      </trkpt>
      <trkpt lat="48.10369" lon="3.29467">
        <ele>146.3</ele>
        <time>2024-03-30T16:38:17.000Z</time>
      </trkpt>
      <trkpt lat="48.1037" lon="3.29471">
        <ele>146.3</ele>
        <time>2024-03-30T16:38:18.000Z</time>
      </trkpt>
      <trkpt lat="48.10372" lon="3.29475">
        <ele>146.2</ele>
        <time>2024-03-30T16:38:19.000Z</time>
      </trkpt>
      <trkpt lat="48.10371" lon="3.29479">
        <ele>146.6</ele>
        <time>2024-03-30T16:38:20.000Z</time>
      </trkpt>
      <trkpt lat="48.10371" lon="3.29482">
        <ele>146.7</ele>
        <time>2024-03-30T16:38:21.000Z</time>
      </trkpt>
      <trkpt lat="48.10371" lon="3.29485">
        <ele>146.8</ele>
        <time>2024-03-30T16:38:22.000Z</time>
      </trkpt>
      <trkpt lat="48.1037" lon="3.29488">
        <ele>147.1</ele>
        <time>2024-03-30T16:38:23.000Z</time>
      </trkpt>
      <trkpt lat="48.1037" lon="3.29489">
        <ele>147.2</ele>
        <time>2024-03-30T16:38:24.000Z</time>
      </trkpt>
      <trkpt lat="48.10371" lon="3.2949">
        <ele>147.1</ele>
        <time>2024-03-30T16:38:25.000Z</time>
      </trkpt>
      <trkpt lat="48.1037" lon="3.29493">
        <ele>147.4</ele>
        <time>2024-03-30T16:38:26.000Z</time>
      </trkpt>
      <trkpt lat="48.10371" lon="3.29498">
        <ele>147.5</ele>
        <time>2024-03-30T16:38:27.000Z</time>
      </trkpt>
      <trkpt lat="48.10372" lon="3.29502">
        <ele>147.5</ele>
        <time>2024-03-30T16:38:28.000Z</time>
      </trkpt>
      <trkpt lat="48.10374" lon="3.29506">
        <ele>147.4</ele>
        <time>2024-03-30T16:38:29.000Z</time>
      </trkpt>
      <trkpt lat="48.10375" lon="3.29509">
        <ele>147.3</ele>
        <time>2024-03-30T16:38:30.000Z</time>
      </trkpt>
      <trkpt lat="48.10377" lon="3.29512">
        <ele>147.1</ele>
        <time>2024-03-30T16:38:31.000Z</time>
      </trkpt>
      <trkpt lat="48.10387" lon="3.29527">
        <ele>146.2</ele>
        <time>2024-03-30T16:38:35.000Z</time>
      </trkpt>
      <trkpt lat="48.10406" lon="3.29549">
        <ele>143.5</ele>
        <time>2024-03-30T16:38:40.000Z</time>
      </trkpt>
      <trkpt lat="48.10412" lon="3.29557">
        <ele>142.9</ele>
        <time>2024-03-30T16:38:41.000Z</time>
      </trkpt>
      <trkpt lat="48.10424" lon="3.29576">
        <ele>141.4</ele>
        <time>2024-03-30T16:38:43.000Z</time>
      </trkpt>
      <trkpt lat="48.10429" lon="3.29586">
        <ele>140.6</ele>
        <time>2024-03-30T16:38:44.000Z</time>
      </trkpt>
      <trkpt lat="48.10433" lon="3.29595">
        <ele>140.2</ele>
        <time>2024-03-30T16:38:45.000Z</time>
      </trkpt>
      <trkpt lat="48.10435" lon="3.29603">
        <ele>140.4</ele>
        <time>2024-03-30T16:38:46.000Z</time>
      </trkpt>
      <trkpt lat="48.10436" lon="3.29611">
        <ele>140.8</ele>
        <time>2024-03-30T16:38:47.000Z</time>
      </trkpt>
      <trkpt lat="48.10437" lon="3.2962">
        <ele>141.2</ele>
        <time>2024-03-30T16:38:48.000Z</time>
      </trkpt>
      <trkpt lat="48.10438" lon="3.29628">
        <ele>141.5</ele>
        <time>2024-03-30T16:38:49.000Z</time>
      </trkpt>
      <trkpt lat="48.1044" lon="3.29635">
        <ele>141.5</ele>
        <time>2024-03-30T16:38:50.000Z</time>
      </trkpt>
      <trkpt lat="48.10443" lon="3.29642">
        <ele>141.4</ele>
        <time>2024-03-30T16:38:51.000Z</time>
      </trkpt>
      <trkpt lat="48.10446" lon="3.29649">
        <ele>140.9</ele>
        <time>2024-03-30T16:38:52.000Z</time>
      </trkpt>
      <trkpt lat="48.10448" lon="3.29657">
        <ele>140.7</ele>
        <time>2024-03-30T16:38:53.000Z</time>
      </trkpt>
      <trkpt lat="48.1045" lon="3.29664">
        <ele>140.5</ele>
        <time>2024-03-30T16:38:54.000Z</time>
      </trkpt>
      <trkpt lat="48.1045" lon="3.29669">
        <ele>140.6</ele>
        <time>2024-03-30T16:38:55.000Z</time>
      </trkpt>
      <trkpt lat="48.1045" lon="3.29676">
        <ele>140.7</ele>
        <time>2024-03-30T16:38:56.000Z</time>
      </trkpt>
      <trkpt lat="48.10448" lon="3.29685">
        <ele>141.2</ele>
        <time>2024-03-30T16:38:57.000Z</time>
      </trkpt>
      <trkpt lat="48.10448" lon="3.29693">
        <ele>141.2</ele>
        <time>2024-03-30T16:38:58.000Z</time>
      </trkpt>
      <trkpt lat="48.1045" lon="3.2971">
        <ele>141.5</ele>
        <time>2024-03-30T16:39:00.000Z</time>
      </trkpt>
      <trkpt lat="48.10452" lon="3.2972">
        <ele>141.5</ele>
        <time>2024-03-30T16:39:01.000Z</time>
      </trkpt>
      <trkpt lat="48.10453" lon="3.29727">
        <ele>141.6</ele>
        <time>2024-03-30T16:39:02.000Z</time>
      </trkpt>
      <trkpt lat="48.10455" lon="3.2974">
        <ele>141.7</ele>
        <time>2024-03-30T16:39:04.000Z</time>
      </trkpt>
      <trkpt lat="48.10456" lon="3.29747">
        <ele>141.8</ele>
        <time>2024-03-30T16:39:05.000Z</time>
      </trkpt>
      <trkpt lat="48.10457" lon="3.29753">
        <ele>141.8</ele>
        <time>2024-03-30T16:39:06.000Z</time>
      </trkpt>
      <trkpt lat="48.10458" lon="3.2976">
        <ele>141.9</ele>
        <time>2024-03-30T16:39:07.000Z</time>
      </trkpt>
      <trkpt lat="48.10461" lon="3.29767">
        <ele>141.6</ele>
        <time>2024-03-30T16:39:08.000Z</time>
      </trkpt>
      <trkpt lat="48.10466" lon="3.29782">
        <ele>141.4</ele>
        <time>2024-03-30T16:39:10.000Z</time>
      </trkpt>
      <trkpt lat="48.10467" lon="3.29788">
        <ele>141.6</ele>
        <time>2024-03-30T16:39:11.000Z</time>
      </trkpt>
      <trkpt lat="48.10471" lon="3.29801">
        <ele>141.9</ele>
        <time>2024-03-30T16:39:13.000Z</time>
      </trkpt>
      <trkpt lat="48.10474" lon="3.29808">
        <ele>141.7</ele>
        <time>2024-03-30T16:39:14.000Z</time>
      </trkpt>
      <trkpt lat="48.10481" lon="3.29844">
        <ele>141.6</ele>
        <time>2024-03-30T16:39:20.000Z</time>
      </trkpt>
      <trkpt lat="48.10482" lon="3.29848">
        <ele>141.6</ele>
        <time>2024-03-30T16:39:21.000Z</time>
      </trkpt>
      <trkpt lat="48.10482" lon="3.29853">
        <ele>141.8</ele>
        <time>2024-03-30T16:39:22.000Z</time>
      </trkpt>
      <trkpt lat="48.10483" lon="3.29857">
        <ele>141.9</ele>
        <time>2024-03-30T16:39:23.000Z</time>
      </trkpt>
      <trkpt lat="48.10484" lon="3.29861">
        <ele>141.9</ele>
        <time>2024-03-30T16:39:24.000Z</time>
      </trkpt>
      <trkpt lat="48.10485" lon="3.29865">
        <ele>141.8</ele>
        <time>2024-03-30T16:39:25.000Z</time>
      </trkpt>
      <trkpt lat="48.10486" lon="3.29869">
        <ele>141.7</ele>
        <time>2024-03-30T16:39:26.000Z</time>
      </trkpt>
      <trkpt lat="48.10488" lon="3.29877">
        <ele>141.5</ele>
        <time>2024-03-30T16:39:28.000Z</time>
      </trkpt>
      <trkpt lat="48.1049" lon="3.29889">
        <ele>141.4</ele>
        <time>2024-03-30T16:39:31.000Z</time>
      </trkpt>
      <trkpt lat="48.10492" lon="3.29892">
        <ele>141.3</ele>
        <time>2024-03-30T16:39:32.000Z</time>
      </trkpt>
      <trkpt lat="48.10494" lon="3.29895">
        <ele>141.1</ele>
        <time>2024-03-30T16:39:33.000Z</time>
      </trkpt>
      <trkpt lat="48.10503" lon="3.29898">
        <ele>139.8</ele>
        <time>2024-03-30T16:39:35.000Z</time>
      </trkpt>
      <trkpt lat="48.10508" lon="3.29898">
        <ele>139</ele>
        <time>2024-03-30T16:39:36.000Z</time>
      </trkpt>
      <trkpt lat="48.10512" lon="3.29897">
        <ele>138.3</ele>
        <time>2024-03-30T16:39:37.000Z</time>
      </trkpt>
      <trkpt lat="48.10518" lon="3.29896">
        <ele>137.2</ele>
        <time>2024-03-30T16:39:38.000Z</time>
      </trkpt>
      <trkpt lat="48.10523" lon="3.29895">
        <ele>136.3</ele>
        <time>2024-03-30T16:39:39.000Z</time>
      </trkpt>
      <trkpt lat="48.10527" lon="3.29894">
        <ele>135.5</ele>
        <time>2024-03-30T16:39:40.000Z</time>
      </trkpt>
      <trkpt lat="48.10531" lon="3.29895">
        <ele>134.5</ele>
        <time>2024-03-30T16:39:41.000Z</time>
      </trkpt>
      <trkpt lat="48.10535" lon="3.29896">
        <ele>133.4</ele>
        <time>2024-03-30T16:39:42.000Z</time>
      </trkpt>
      <trkpt lat="48.10537" lon="3.29898">
        <ele>133</ele>
        <time>2024-03-30T16:39:43.000Z</time>
      </trkpt>
      <trkpt lat="48.1054" lon="3.29899">
        <ele>132.2</ele>
        <time>2024-03-30T16:39:44.000Z</time>
      </trkpt>
      <trkpt lat="48.10542" lon="3.29901">
        <ele>131.8</ele>
        <time>2024-03-30T16:39:45.000Z</time>
      </trkpt>
      <trkpt lat="48.10547" lon="3.29904">
        <ele>130.6</ele>
        <time>2024-03-30T16:39:47.000Z</time>
      </trkpt>
      <trkpt lat="48.10549" lon="3.29905">
        <ele>130</ele>
        <time>2024-03-30T16:39:48.000Z</time>
      </trkpt>
      <trkpt lat="48.1055" lon="3.29906">
        <ele>129.8</ele>
        <time>2024-03-30T16:39:49.000Z</time>
      </trkpt>
      <trkpt lat="48.10551" lon="3.29907">
        <ele>129.6</ele>
        <time>2024-03-30T16:39:50.000Z</time>
      </trkpt>
      <trkpt lat="48.10551" lon="3.29907">
        <ele>129.6</ele>
        <time>2024-03-30T16:39:51.000Z</time>
      </trkpt>
      <trkpt lat="48.10551" lon="3.29907">
        <ele>129.6</ele>
        <time>2024-03-30T16:39:52.000Z</time>
      </trkpt>
      <trkpt lat="48.10551" lon="3.29907">
        <ele>129.6</ele>
        <time>2024-03-30T16:39:54.000Z</time>
      </trkpt>
      <trkpt lat="48.10551" lon="3.29907">
        <ele>129.6</ele>
        <time>2024-03-30T16:39:55.000Z</time>
      </trkpt>
      <trkpt lat="48.10551" lon="3.29907">
        <ele>129.6</ele>
        <time>2024-03-30T16:39:58.000Z</time>
      </trkpt>
      <trkpt lat="48.10551" lon="3.29907">
        <ele>129.6</ele>
        <time>2024-03-30T16:40:05.000Z</time>
      </trkpt>
      <trkpt lat="48.10551" lon="3.29907">
        <ele>129.6</ele>
        <time>2024-03-30T16:40:21.000Z</time>
      </trkpt>
      <trkpt lat="48.10551" lon="3.29907">
        <ele>129.6</ele>
        <time>2024-03-30T16:40:31.000Z</time>
      </trkpt>
      <trkpt lat="48.10551" lon="3.29907">
        <ele>129.6</ele>
        <time>2024-03-30T16:40:50.000Z</time>
      </trkpt>
      <trkpt lat="48.10551" lon="3.29907">
        <ele>129.6</ele>
        <time>2024-03-30T16:41:08.000Z</time>
      </trkpt>
      <trkpt lat="48.10552" lon="3.29908">
        <ele>129.4</ele>
        <time>2024-03-30T16:41:23.000Z</time>
      </trkpt>
      <trkpt lat="48.10552" lon="3.29908">
        <ele>129.4</ele>
        <time>2024-03-30T16:41:30.000Z</time>
      </trkpt>
      <trkpt lat="48.10553" lon="3.2991">
        <ele>129.3</ele>
        <time>2024-03-30T16:41:31.000Z</time>
      </trkpt>
      <trkpt lat="48.10555" lon="3.29911">
        <ele>128.8</ele>
        <time>2024-03-30T16:41:32.000Z</time>
      </trkpt>
      <trkpt lat="48.10565" lon="3.29921">
        <ele>126.9</ele>
        <time>2024-03-30T16:41:37.000Z</time>
      </trkpt>
      <trkpt lat="48.10574" lon="3.29931">
        <ele>125.4</ele>
        <time>2024-03-30T16:41:40.000Z</time>
      </trkpt>
      <trkpt lat="48.10576" lon="3.29934">
        <ele>125.1</ele>
        <time>2024-03-30T16:41:41.000Z</time>
      </trkpt>
      <trkpt lat="48.10579" lon="3.29938">
        <ele>124.6</ele>
        <time>2024-03-30T16:41:42.000Z</time>
      </trkpt>
      <trkpt lat="48.10586" lon="3.29947">
        <ele>123.5</ele>
        <time>2024-03-30T16:41:44.000Z</time>
      </trkpt>
      <trkpt lat="48.1059" lon="3.29953">
        <ele>122.9</ele>
        <time>2024-03-30T16:41:45.000Z</time>
      </trkpt>
      <trkpt lat="48.10596" lon="3.29964">
        <ele>121.9</ele>
        <time>2024-03-30T16:41:47.000Z</time>
      </trkpt>
      <trkpt lat="48.10598" lon="3.29968">
        <ele>121.6</ele>
        <time>2024-03-30T16:41:48.000Z</time>
      </trkpt>
      <trkpt lat="48.106" lon="3.29971">
        <ele>121.1</ele>
        <time>2024-03-30T16:41:49.000Z</time>
      </trkpt>
      <trkpt lat="48.10601" lon="3.29974">
        <ele>121</ele>
        <time>2024-03-30T16:41:50.000Z</time>
      </trkpt>
      <trkpt lat="48.10602" lon="3.29975">
        <ele>120.7</ele>
        <time>2024-03-30T16:41:51.000Z</time>
      </trkpt>
      <trkpt lat="48.10604" lon="3.29977">
        <ele>120.2</ele>
        <time>2024-03-30T16:41:52.000Z</time>
      </trkpt>
      <trkpt lat="48.10606" lon="3.29979">
        <ele>119.7</ele>
        <time>2024-03-30T16:41:53.000Z</time>
      </trkpt>
      <trkpt lat="48.10607" lon="3.29981">
        <ele>119.5</ele>
        <time>2024-03-30T16:41:54.000Z</time>
      </trkpt>
      <trkpt lat="48.10607" lon="3.29981">
        <ele>119.5</ele>
        <time>2024-03-30T16:41:55.000Z</time>
      </trkpt>
      <trkpt lat="48.10607" lon="3.29981">
        <ele>119.5</ele>
        <time>2024-03-30T16:41:56.000Z</time>
      </trkpt>
      <trkpt lat="48.10607" lon="3.29981">
        <ele>119.5</ele>
        <time>2024-03-30T16:41:59.000Z</time>
      </trkpt>
      <trkpt lat="48.10607" lon="3.29981">
        <ele>119.5</ele>
        <time>2024-03-30T16:42:02.000Z</time>
      </trkpt>
      <trkpt lat="48.10608" lon="3.29982">
        <ele>119.2</ele>
        <time>2024-03-30T16:42:06.000Z</time>
      </trkpt>
      <trkpt lat="48.1061" lon="3.29985">
        <ele>118.8</ele>
        <time>2024-03-30T16:42:07.000Z</time>
      </trkpt>
      <trkpt lat="48.10613" lon="3.29989">
        <ele>118.3</ele>
        <time>2024-03-30T16:42:08.000Z</time>
      </trkpt>
      <trkpt lat="48.10616" lon="3.29994">
        <ele>117.9</ele>
        <time>2024-03-30T16:42:09.000Z</time>
      </trkpt>
      <trkpt lat="48.10631" lon="3.30019">
        <ele>115.8</ele>
        <time>2024-03-30T16:42:13.000Z</time>
      </trkpt>
      <trkpt lat="48.10632" lon="3.30022">
        <ele>115.6</ele>
        <time>2024-03-30T16:42:14.000Z</time>
      </trkpt>
      <trkpt lat="48.10632" lon="3.30022">
        <ele>115.6</ele>
        <time>2024-03-30T16:42:15.000Z</time>
      </trkpt>
      <trkpt lat="48.10632" lon="3.30022">
        <ele>115.6</ele>
        <time>2024-03-30T16:42:16.000Z</time>
      </trkpt>
      <trkpt lat="48.10632" lon="3.30022">
        <ele>115.6</ele>
        <time>2024-03-30T16:42:17.000Z</time>
      </trkpt>
      <trkpt lat="48.10632" lon="3.30022">
        <ele>115.6</ele>
        <time>2024-03-30T16:42:20.000Z</time>
      </trkpt>
      <trkpt lat="48.10631" lon="3.30022">
        <ele>115.9</ele>
        <time>2024-03-30T16:42:22.000Z</time>
      </trkpt>
      <trkpt lat="48.10631" lon="3.30023">
        <ele>115.9</ele>
        <time>2024-03-30T16:42:24.000Z</time>
      </trkpt>
      <trkpt lat="48.10631" lon="3.30023">
        <ele>115.9</ele>
        <time>2024-03-30T16:42:26.000Z</time>
      </trkpt>
      <trkpt lat="48.10631" lon="3.30023">
        <ele>115.9</ele>
        <time>2024-03-30T16:42:35.000Z</time>
      </trkpt>
      <trkpt lat="48.10632" lon="3.30024">
        <ele>115.7</ele>
        <time>2024-03-30T16:42:38.000Z</time>
      </trkpt>
      <trkpt lat="48.10633" lon="3.30026">
        <ele>115.5</ele>
        <time>2024-03-30T16:42:39.000Z</time>
      </trkpt>
      <trkpt lat="48.10633" lon="3.30028">
        <ele>115.5</ele>
        <time>2024-03-30T16:42:40.000Z</time>
      </trkpt>
      <trkpt lat="48.10633" lon="3.30029">
        <ele>115.5</ele>
        <time>2024-03-30T16:42:41.000Z</time>
      </trkpt>
      <trkpt lat="48.10633" lon="3.3003">
        <ele>115.6</ele>
        <time>2024-03-30T16:42:42.000Z</time>
      </trkpt>
      <trkpt lat="48.10633" lon="3.3003">
        <ele>115.6</ele>
        <time>2024-03-30T16:42:43.000Z</time>
      </trkpt>
      <trkpt lat="48.10633" lon="3.30031">
        <ele>115.6</ele>
        <time>2024-03-30T16:42:44.000Z</time>
      </trkpt>
      <trkpt lat="48.10633" lon="3.30031">
        <ele>115.6</ele>
        <time>2024-03-30T16:42:45.000Z</time>
      </trkpt>
      <trkpt lat="48.10633" lon="3.30031">
        <ele>115.6</ele>
        <time>2024-03-30T16:42:46.000Z</time>
      </trkpt>
      <trkpt lat="48.10633" lon="3.30031">
        <ele>115.6</ele>
        <time>2024-03-30T16:42:48.000Z</time>
      </trkpt>
      <trkpt lat="48.10633" lon="3.30031">
        <ele>115.6</ele>
        <time>2024-03-30T16:42:50.000Z</time>
      </trkpt>
      <trkpt lat="48.10633" lon="3.30031">
        <ele>115.6</ele>
        <time>2024-03-30T16:42:54.000Z</time>
      </trkpt>
      <trkpt lat="48.10635" lon="3.30032">
        <ele>115.1</ele>
        <time>2024-03-30T16:42:56.000Z</time>
      </trkpt>
      <trkpt lat="48.1064" lon="3.3003">
        <ele>113.9</ele>
        <time>2024-03-30T16:42:58.000Z</time>
      </trkpt>
      <trkpt lat="48.10642" lon="3.3003">
        <ele>113.6</ele>
        <time>2024-03-30T16:42:59.000Z</time>
      </trkpt>
      <trkpt lat="48.10645" lon="3.30029">
        <ele>113.2</ele>
        <time>2024-03-30T16:43:00.000Z</time>
      </trkpt>
      <trkpt lat="48.10649" lon="3.30026">
        <ele>112.5</ele>
        <time>2024-03-30T16:43:02.000Z</time>
      </trkpt>
      <trkpt lat="48.10655" lon="3.30024">
        <ele>111.6</ele>
        <time>2024-03-30T16:43:04.000Z</time>
      </trkpt>
      <trkpt lat="48.10658" lon="3.30023">
        <ele>111.1</ele>
        <time>2024-03-30T16:43:05.000Z</time>
      </trkpt>
      <trkpt lat="48.10661" lon="3.3002">
        <ele>110.6</ele>
        <time>2024-03-30T16:43:07.000Z</time>
      </trkpt>
      <trkpt lat="48.10664" lon="3.3002">
        <ele>110.1</ele>
        <time>2024-03-30T16:43:08.000Z</time>
      </trkpt>
      <trkpt lat="48.10668" lon="3.30021">
        <ele>109.7</ele>
        <time>2024-03-30T16:43:10.000Z</time>
      </trkpt>
      <trkpt lat="48.10671" lon="3.30026">
        <ele>109.6</ele>
        <time>2024-03-30T16:43:12.000Z</time>
      </trkpt>
      <trkpt lat="48.10673" lon="3.30029">
        <ele>109.6</ele>
        <time>2024-03-30T16:43:13.000Z</time>
      </trkpt>
      <trkpt lat="48.10674" lon="3.30034">
        <ele>109.7</ele>
        <time>2024-03-30T16:43:14.000Z</time>
      </trkpt>
      <trkpt lat="48.10676" lon="3.30037">
        <ele>109.7</ele>
        <time>2024-03-30T16:43:15.000Z</time>
      </trkpt>
      <trkpt lat="48.10679" lon="3.30041">
        <ele>109.6</ele>
        <time>2024-03-30T16:43:16.000Z</time>
      </trkpt>
      <trkpt lat="48.10682" lon="3.30047">
        <ele>109.6</ele>
        <time>2024-03-30T16:43:19.000Z</time>
      </trkpt>
      <trkpt lat="48.10685" lon="3.30052">
        <ele>109.6</ele>
        <time>2024-03-30T16:43:20.000Z</time>
      </trkpt>
      <trkpt lat="48.10686" lon="3.30058">
        <ele>109.7</ele>
        <time>2024-03-30T16:43:21.000Z</time>
      </trkpt>
      <trkpt lat="48.10688" lon="3.30064">
        <ele>109.8</ele>
        <time>2024-03-30T16:43:22.000Z</time>
      </trkpt>
      <trkpt lat="48.10689" lon="3.30068">
        <ele>109.8</ele>
        <time>2024-03-30T16:43:24.000Z</time>
      </trkpt>
      <trkpt lat="48.10687" lon="3.30071">
        <ele>110.1</ele>
        <time>2024-03-30T16:43:25.000Z</time>
      </trkpt>
      <trkpt lat="48.10686" lon="3.30072">
        <ele>110.2</ele>
        <time>2024-03-30T16:43:26.000Z</time>
      </trkpt>
      <trkpt lat="48.10686" lon="3.30074">
        <ele>110.3</ele>
        <time>2024-03-30T16:43:27.000Z</time>
      </trkpt>
      <trkpt lat="48.10685" lon="3.30076">
        <ele>110.4</ele>
        <time>2024-03-30T16:43:28.000Z</time>
      </trkpt>
      <trkpt lat="48.10684" lon="3.30078">
        <ele>110.6</ele>
        <time>2024-03-30T16:43:29.000Z</time>
      </trkpt>
      <trkpt lat="48.10683" lon="3.3008">
        <ele>110.7</ele>
        <time>2024-03-30T16:43:30.000Z</time>
      </trkpt>
      <trkpt lat="48.10683" lon="3.30082">
        <ele>110.8</ele>
        <time>2024-03-30T16:43:31.000Z</time>
      </trkpt>
      <trkpt lat="48.10683" lon="3.30084">
        <ele>110.8</ele>
        <time>2024-03-30T16:43:32.000Z</time>
      </trkpt>
      <trkpt lat="48.10683" lon="3.30085">
        <ele>110.9</ele>
        <time>2024-03-30T16:43:33.000Z</time>
      </trkpt>
      <trkpt lat="48.10682" lon="3.30087">
        <ele>111</ele>
        <time>2024-03-30T16:43:34.000Z</time>
      </trkpt>
      <trkpt lat="48.10681" lon="3.30089">
        <ele>111.2</ele>
        <time>2024-03-30T16:43:35.000Z</time>
      </trkpt>
      <trkpt lat="48.10681" lon="3.3009">
        <ele>111.2</ele>
        <time>2024-03-30T16:43:36.000Z</time>
      </trkpt>
      <trkpt lat="48.10681" lon="3.30091">
        <ele>111.2</ele>
        <time>2024-03-30T16:43:37.000Z</time>
      </trkpt>
      <trkpt lat="48.1068" lon="3.30093">
        <ele>111.4</ele>
        <time>2024-03-30T16:43:38.000Z</time>
      </trkpt>
      <trkpt lat="48.1068" lon="3.30095">
        <ele>111.5</ele>
        <time>2024-03-30T16:43:39.000Z</time>
      </trkpt>
      <trkpt lat="48.1068" lon="3.30097">
        <ele>111.5</ele>
        <time>2024-03-30T16:43:40.000Z</time>
      </trkpt>
      <trkpt lat="48.1068" lon="3.30099">
        <ele>111.6</ele>
        <time>2024-03-30T16:43:41.000Z</time>
      </trkpt>
      <trkpt lat="48.10679" lon="3.301">
        <ele>111.7</ele>
        <time>2024-03-30T16:43:42.000Z</time>
      </trkpt>
      <trkpt lat="48.10678" lon="3.30102">
        <ele>111.9</ele>
        <time>2024-03-30T16:43:43.000Z</time>
      </trkpt>
      <trkpt lat="48.10679" lon="3.30104">
        <ele>111.9</ele>
        <time>2024-03-30T16:43:44.000Z</time>
      </trkpt>
      <trkpt lat="48.10679" lon="3.30107">
        <ele>112</ele>
        <time>2024-03-30T16:43:45.000Z</time>
      </trkpt>
      <trkpt lat="48.10679" lon="3.30109">
        <ele>112</ele>
        <time>2024-03-30T16:43:46.000Z</time>
      </trkpt>
      <trkpt lat="48.10679" lon="3.30112">
        <ele>112.1</ele>
        <time>2024-03-30T16:43:48.000Z</time>
      </trkpt>
      <trkpt lat="48.1068" lon="3.30115">
        <ele>112.2</ele>
        <time>2024-03-30T16:43:49.000Z</time>
      </trkpt>
      <trkpt lat="48.1068" lon="3.30116">
        <ele>112.2</ele>
        <time>2024-03-30T16:43:50.000Z</time>
      </trkpt>
      <trkpt lat="48.10681" lon="3.30118">
        <ele>112.2</ele>
        <time>2024-03-30T16:43:51.000Z</time>
      </trkpt>
      <trkpt lat="48.10682" lon="3.30121">
        <ele>112.3</ele>
        <time>2024-03-30T16:43:52.000Z</time>
      </trkpt>
      <trkpt lat="48.10682" lon="3.30126">
        <ele>112.4</ele>
        <time>2024-03-30T16:43:54.000Z</time>
      </trkpt>
      <trkpt lat="48.10682" lon="3.30128">
        <ele>112.5</ele>
        <time>2024-03-30T16:43:55.000Z</time>
      </trkpt>
      <trkpt lat="48.10682" lon="3.30129">
        <ele>112.5</ele>
        <time>2024-03-30T16:43:56.000Z</time>
      </trkpt>
      <trkpt lat="48.10682" lon="3.3013">
        <ele>112.6</ele>
        <time>2024-03-30T16:43:57.000Z</time>
      </trkpt>
      <trkpt lat="48.10682" lon="3.3013">
        <ele>112.6</ele>
        <time>2024-03-30T16:43:58.000Z</time>
      </trkpt>
      <trkpt lat="48.10682" lon="3.3013">
        <ele>112.6</ele>
        <time>2024-03-30T16:43:59.000Z</time>
      </trkpt>
      <trkpt lat="48.10684" lon="3.30132">
        <ele>112.5</ele>
        <time>2024-03-30T16:44:00.000Z</time>
      </trkpt>
      <trkpt lat="48.10686" lon="3.30133">
        <ele>112.4</ele>
        <time>2024-03-30T16:44:01.000Z</time>
      </trkpt>
      <trkpt lat="48.10689" lon="3.30135">
        <ele>112.3</ele>
        <time>2024-03-30T16:44:02.000Z</time>
      </trkpt>
      <trkpt lat="48.1069" lon="3.30137">
        <ele>112.3</ele>
        <time>2024-03-30T16:44:03.000Z</time>
      </trkpt>
      <trkpt lat="48.10692" lon="3.30139">
        <ele>112.2</ele>
        <time>2024-03-30T16:44:04.000Z</time>
      </trkpt>
      <trkpt lat="48.10694" lon="3.30142">
        <ele>112</ele>
        <time>2024-03-30T16:44:05.000Z</time>
      </trkpt>
      <trkpt lat="48.10695" lon="3.30144">
        <ele>112</ele>
        <time>2024-03-30T16:44:06.000Z</time>
      </trkpt>
      <trkpt lat="48.10696" lon="3.30146">
        <ele>111.9</ele>
        <time>2024-03-30T16:44:07.000Z</time>
      </trkpt>
      <trkpt lat="48.10697" lon="3.30148">
        <ele>111.8</ele>
        <time>2024-03-30T16:44:08.000Z</time>
      </trkpt>
      <trkpt lat="48.10699" lon="3.30151">
        <ele>111.7</ele>
        <time>2024-03-30T16:44:09.000Z</time>
      </trkpt>
      <trkpt lat="48.10701" lon="3.30154">
        <ele>111.5</ele>
        <time>2024-03-30T16:44:10.000Z</time>
      </trkpt>
      <trkpt lat="48.10702" lon="3.30161">
        <ele>111.5</ele>
        <time>2024-03-30T16:44:12.000Z</time>
      </trkpt>
      <trkpt lat="48.10703" lon="3.30165">
        <ele>111.4</ele>
        <time>2024-03-30T16:44:13.000Z</time>
      </trkpt>
      <trkpt lat="48.10705" lon="3.30169">
        <ele>111.3</ele>
        <time>2024-03-30T16:44:14.000Z</time>
      </trkpt>
      <trkpt lat="48.10706" lon="3.30171">
        <ele>111.3</ele>
        <time>2024-03-30T16:44:15.000Z</time>
      </trkpt>
      <trkpt lat="48.10707" lon="3.30173">
        <ele>111.3</ele>
        <time>2024-03-30T16:44:16.000Z</time>
      </trkpt>
      <trkpt lat="48.10707" lon="3.30175">
        <ele>111.4</ele>
        <time>2024-03-30T16:44:17.000Z</time>
      </trkpt>
      <trkpt lat="48.10708" lon="3.30178">
        <ele>111.4</ele>
        <time>2024-03-30T16:44:18.000Z</time>
      </trkpt>
      <trkpt lat="48.1071" lon="3.30184">
        <ele>111.5</ele>
        <time>2024-03-30T16:44:20.000Z</time>
      </trkpt>
      <trkpt lat="48.1071" lon="3.30187">
        <ele>111.6</ele>
        <time>2024-03-30T16:44:21.000Z</time>
      </trkpt>
      <trkpt lat="48.10711" lon="3.30192">
        <ele>111.7</ele>
        <time>2024-03-30T16:44:23.000Z</time>
      </trkpt>
      <trkpt lat="48.10712" lon="3.30195">
        <ele>111.7</ele>
        <time>2024-03-30T16:44:24.000Z</time>
      </trkpt>
      <trkpt lat="48.10713" lon="3.30197">
        <ele>111.7</ele>
        <time>2024-03-30T16:44:25.000Z</time>
      </trkpt>
      <trkpt lat="48.10713" lon="3.30199">
        <ele>111.7</ele>
        <time>2024-03-30T16:44:26.000Z</time>
      </trkpt>
      <trkpt lat="48.10713" lon="3.30203">
        <ele>111.8</ele>
        <time>2024-03-30T16:44:28.000Z</time>
      </trkpt>
      <trkpt lat="48.10714" lon="3.30206">
        <ele>111.7</ele>
        <time>2024-03-30T16:44:29.000Z</time>
      </trkpt>
      <trkpt lat="48.10714" lon="3.30208">
        <ele>111.7</ele>
        <time>2024-03-30T16:44:30.000Z</time>
      </trkpt>
      <trkpt lat="48.10714" lon="3.30211">
        <ele>111.8</ele>
        <time>2024-03-30T16:44:31.000Z</time>
      </trkpt>
      <trkpt lat="48.10714" lon="3.30212">
        <ele>111.8</ele>
        <time>2024-03-30T16:44:32.000Z</time>
      </trkpt>
      <trkpt lat="48.10714" lon="3.30214">
        <ele>111.8</ele>
        <time>2024-03-30T16:44:33.000Z</time>
      </trkpt>
      <trkpt lat="48.10714" lon="3.30215">
        <ele>111.8</ele>
        <time>2024-03-30T16:44:34.000Z</time>
      </trkpt>
      <trkpt lat="48.10714" lon="3.30218">
        <ele>111.8</ele>
        <time>2024-03-30T16:44:36.000Z</time>
      </trkpt>
      <trkpt lat="48.10713" lon="3.3022">
        <ele>112</ele>
        <time>2024-03-30T16:44:37.000Z</time>
      </trkpt>
      <trkpt lat="48.10713" lon="3.30223">
        <ele>112</ele>
        <time>2024-03-30T16:44:38.000Z</time>
      </trkpt>
      <trkpt lat="48.10714" lon="3.30226">
        <ele>112</ele>
        <time>2024-03-30T16:44:39.000Z</time>
      </trkpt>
      <trkpt lat="48.10715" lon="3.30228">
        <ele>112</ele>
        <time>2024-03-30T16:44:40.000Z</time>
      </trkpt>
      <trkpt lat="48.10715" lon="3.3023">
        <ele>112.1</ele>
        <time>2024-03-30T16:44:41.000Z</time>
      </trkpt>
      <trkpt lat="48.10717" lon="3.30231">
        <ele>111.9</ele>
        <time>2024-03-30T16:44:42.000Z</time>
      </trkpt>
      <trkpt lat="48.10718" lon="3.30233">
        <ele>111.8</ele>
        <time>2024-03-30T16:44:43.000Z</time>
      </trkpt>
      <trkpt lat="48.10718" lon="3.30235">
        <ele>111.9</ele>
        <time>2024-03-30T16:44:44.000Z</time>
      </trkpt>
      <trkpt lat="48.10718" lon="3.30236">
        <ele>112</ele>
        <time>2024-03-30T16:44:45.000Z</time>
      </trkpt>
      <trkpt lat="48.10717" lon="3.30238">
        <ele>112.1</ele>
        <time>2024-03-30T16:44:46.000Z</time>
      </trkpt>
      <trkpt lat="48.10717" lon="3.3024">
        <ele>112.2</ele>
        <time>2024-03-30T16:44:47.000Z</time>
      </trkpt>
      <trkpt lat="48.10718" lon="3.30243">
        <ele>112.2</ele>
        <time>2024-03-30T16:44:48.000Z</time>
      </trkpt>
      <trkpt lat="48.1072" lon="3.30246">
        <ele>112.1</ele>
        <time>2024-03-30T16:44:49.000Z</time>
      </trkpt>
      <trkpt lat="48.1072" lon="3.30249">
        <ele>112.2</ele>
        <time>2024-03-30T16:44:50.000Z</time>
      </trkpt>
      <trkpt lat="48.1072" lon="3.30251">
        <ele>112.3</ele>
        <time>2024-03-30T16:44:51.000Z</time>
      </trkpt>
      <trkpt lat="48.10723" lon="3.30259">
        <ele>112.2</ele>
        <time>2024-03-30T16:44:54.000Z</time>
      </trkpt>
      <trkpt lat="48.10722" lon="3.30261">
        <ele>112.4</ele>
        <time>2024-03-30T16:44:55.000Z</time>
      </trkpt>
      <trkpt lat="48.10722" lon="3.30263">
        <ele>112.5</ele>
        <time>2024-03-30T16:44:56.000Z</time>
      </trkpt>
      <trkpt lat="48.10723" lon="3.30265">
        <ele>112.5</ele>
        <time>2024-03-30T16:44:57.000Z</time>
      </trkpt>
      <trkpt lat="48.10725" lon="3.30269">
        <ele>112.4</ele>
        <time>2024-03-30T16:44:58.000Z</time>
      </trkpt>
      <trkpt lat="48.10726" lon="3.30272">
        <ele>112.4</ele>
        <time>2024-03-30T16:44:59.000Z</time>
      </trkpt>
      <trkpt lat="48.10726" lon="3.30273">
        <ele>112.4</ele>
        <time>2024-03-30T16:45:00.000Z</time>
      </trkpt>
      <trkpt lat="48.10726" lon="3.30273">
        <ele>112.4</ele>
        <time>2024-03-30T16:45:01.000Z</time>
      </trkpt>
      <trkpt lat="48.10726" lon="3.30273">
        <ele>112.4</ele>
        <time>2024-03-30T16:45:05.000Z</time>
      </trkpt>
      <trkpt lat="48.10726" lon="3.30273">
        <ele>112.4</ele>
        <time>2024-03-30T16:45:06.000Z</time>
      </trkpt>
      <trkpt lat="48.10726" lon="3.30275">
        <ele>112.5</ele>
        <time>2024-03-30T16:45:13.000Z</time>
      </trkpt>
      <trkpt lat="48.10728" lon="3.30278">
        <ele>112.4</ele>
        <time>2024-03-30T16:45:14.000Z</time>
      </trkpt>
      <trkpt lat="48.10728" lon="3.3028">
        <ele>112.5</ele>
        <time>2024-03-30T16:45:15.000Z</time>
      </trkpt>
      <trkpt lat="48.1073" lon="3.30286">
        <ele>112.5</ele>
        <time>2024-03-30T16:45:17.000Z</time>
      </trkpt>
      <trkpt lat="48.1073" lon="3.30288">
        <ele>112.5</ele>
        <time>2024-03-30T16:45:18.000Z</time>
      </trkpt>
      <trkpt lat="48.10731" lon="3.30291">
        <ele>112.5</ele>
        <time>2024-03-30T16:45:19.000Z</time>
      </trkpt>
      <trkpt lat="48.10732" lon="3.30294">
        <ele>112.5</ele>
        <time>2024-03-30T16:45:20.000Z</time>
      </trkpt>
      <trkpt lat="48.10734" lon="3.30302">
        <ele>112.6</ele>
        <time>2024-03-30T16:45:23.000Z</time>
      </trkpt>
      <trkpt lat="48.10734" lon="3.30305">
        <ele>112.7</ele>
        <time>2024-03-30T16:45:24.000Z</time>
      </trkpt>
      <trkpt lat="48.10734" lon="3.30306">
        <ele>112.8</ele>
        <time>2024-03-30T16:45:25.000Z</time>
      </trkpt>
      <trkpt lat="48.10735" lon="3.30309">
        <ele>112.9</ele>
        <time>2024-03-30T16:45:26.000Z</time>
      </trkpt>
      <trkpt lat="48.10736" lon="3.30312">
        <ele>113</ele>
        <time>2024-03-30T16:45:27.000Z</time>
      </trkpt>
      <trkpt lat="48.10737" lon="3.30315">
        <ele>113.1</ele>
        <time>2024-03-30T16:45:28.000Z</time>
      </trkpt>
      <trkpt lat="48.1074" lon="3.30319">
        <ele>113</ele>
        <time>2024-03-30T16:45:29.000Z</time>
      </trkpt>
      <trkpt lat="48.1075" lon="3.30333">
        <ele>113</ele>
        <time>2024-03-30T16:45:32.000Z</time>
      </trkpt>
      <trkpt lat="48.10757" lon="3.30342">
        <ele>112.6</ele>
        <time>2024-03-30T16:45:34.000Z</time>
      </trkpt>
      <trkpt lat="48.10759" lon="3.30345">
        <ele>112.4</ele>
        <time>2024-03-30T16:45:35.000Z</time>
      </trkpt>
      <trkpt lat="48.1076" lon="3.30348">
        <ele>112.4</ele>
        <time>2024-03-30T16:45:36.000Z</time>
      </trkpt>
      <trkpt lat="48.10761" lon="3.30351">
        <ele>112.4</ele>
        <time>2024-03-30T16:45:37.000Z</time>
      </trkpt>
      <trkpt lat="48.10772" lon="3.30376">
        <ele>112.2</ele>
        <time>2024-03-30T16:45:42.000Z</time>
      </trkpt>
      <trkpt lat="48.10772" lon="3.30378">
        <ele>112.2</ele>
        <time>2024-03-30T16:45:43.000Z</time>
      </trkpt>
      <trkpt lat="48.10774" lon="3.30382">
        <ele>112.2</ele>
        <time>2024-03-30T16:45:44.000Z</time>
      </trkpt>
      <trkpt lat="48.10776" lon="3.30386">
        <ele>112.1</ele>
        <time>2024-03-30T16:45:45.000Z</time>
      </trkpt>
      <trkpt lat="48.10775" lon="3.3039">
        <ele>112.3</ele>
        <time>2024-03-30T16:45:46.000Z</time>
      </trkpt>
      <trkpt lat="48.10775" lon="3.30396">
        <ele>112.6</ele>
        <time>2024-03-30T16:45:47.000Z</time>
      </trkpt>
      <trkpt lat="48.10779" lon="3.30403">
        <ele>112.4</ele>
        <time>2024-03-30T16:45:49.000Z</time>
      </trkpt>
      <trkpt lat="48.10783" lon="3.30409">
        <ele>112.2</ele>
        <time>2024-03-30T16:45:51.000Z</time>
      </trkpt>
      <trkpt lat="48.10785" lon="3.30412">
        <ele>112.1</ele>
        <time>2024-03-30T16:45:52.000Z</time>
      </trkpt>
      <trkpt lat="48.10789" lon="3.30423">
        <ele>112</ele>
        <time>2024-03-30T16:45:56.000Z</time>
      </trkpt>
      <trkpt lat="48.1079" lon="3.30424">
        <ele>111.9</ele>
        <time>2024-03-30T16:45:57.000Z</time>
      </trkpt>
      <trkpt lat="48.1079" lon="3.30424">
        <ele>111.9</ele>
        <time>2024-03-30T16:45:58.000Z</time>
      </trkpt>
      <trkpt lat="48.1079" lon="3.30424">
        <ele>111.9</ele>
        <time>2024-03-30T16:46:02.000Z</time>
      </trkpt>
      <trkpt lat="48.1079" lon="3.30424">
        <ele>111.9</ele>
        <time>2024-03-30T16:46:09.000Z</time>
      </trkpt>
      <trkpt lat="48.1079" lon="3.30427">
        <ele>112.1</ele>
        <time>2024-03-30T16:46:18.000Z</time>
      </trkpt>
      <trkpt lat="48.10791" lon="3.30429">
        <ele>112</ele>
        <time>2024-03-30T16:46:20.000Z</time>
      </trkpt>
      <trkpt lat="48.10791" lon="3.30431">
        <ele>112.1</ele>
        <time>2024-03-30T16:46:21.000Z</time>
      </trkpt>
      <trkpt lat="48.10791" lon="3.30432">
        <ele>112.1</ele>
        <time>2024-03-30T16:46:22.000Z</time>
      </trkpt>
      <trkpt lat="48.10792" lon="3.30437">
        <ele>112.2</ele>
        <time>2024-03-30T16:46:25.000Z</time>
      </trkpt>
      <trkpt lat="48.10793" lon="3.30439">
        <ele>112.2</ele>
        <time>2024-03-30T16:46:26.000Z</time>
      </trkpt>
      <trkpt lat="48.10794" lon="3.30442">
        <ele>112.2</ele>
        <time>2024-03-30T16:46:27.000Z</time>
      </trkpt>
      <trkpt lat="48.10795" lon="3.30444">
        <ele>112.1</ele>
        <time>2024-03-30T16:46:28.000Z</time>
      </trkpt>
      <trkpt lat="48.10797" lon="3.30448">
        <ele>112.1</ele>
        <time>2024-03-30T16:46:30.000Z</time>
      </trkpt>
      <trkpt lat="48.10797" lon="3.30449">
        <ele>112.1</ele>
        <time>2024-03-30T16:46:31.000Z</time>
      </trkpt>
      <trkpt lat="48.10797" lon="3.3045">
        <ele>112.2</ele>
        <time>2024-03-30T16:46:32.000Z</time>
      </trkpt>
      <trkpt lat="48.10797" lon="3.30451">
        <ele>112.2</ele>
        <time>2024-03-30T16:46:34.000Z</time>
      </trkpt>
      <trkpt lat="48.10798" lon="3.30454">
        <ele>112.3</ele>
        <time>2024-03-30T16:46:35.000Z</time>
      </trkpt>
      <trkpt lat="48.10798" lon="3.30454">
        <ele>112.3</ele>
        <time>2024-03-30T16:46:36.000Z</time>
      </trkpt>
      <trkpt lat="48.10798" lon="3.30454">
        <ele>112.3</ele>
        <time>2024-03-30T16:46:37.000Z</time>
      </trkpt>
      <trkpt lat="48.108" lon="3.30462">
        <ele>112.4</ele>
        <time>2024-03-30T16:46:43.000Z</time>
      </trkpt>
      <trkpt lat="48.10803" lon="3.30466">
        <ele>112.1</ele>
        <time>2024-03-30T16:46:44.000Z</time>
      </trkpt>
      <trkpt lat="48.10805" lon="3.30469">
        <ele>112</ele>
        <time>2024-03-30T16:46:45.000Z</time>
      </trkpt>
      <trkpt lat="48.10807" lon="3.30472">
        <ele>111.9</ele>
        <time>2024-03-30T16:46:46.000Z</time>
      </trkpt>
      <trkpt lat="48.10812" lon="3.3048">
        <ele>111.8</ele>
        <time>2024-03-30T16:46:50.000Z</time>
      </trkpt>
      <trkpt lat="48.10812" lon="3.3048">
        <ele>111.8</ele>
        <time>2024-03-30T16:46:51.000Z</time>
      </trkpt>
      <trkpt lat="48.10812" lon="3.3048">
        <ele>111.8</ele>
        <time>2024-03-30T16:46:52.000Z</time>
      </trkpt>
      <trkpt lat="48.10812" lon="3.3048">
        <ele>111.8</ele>
        <time>2024-03-30T16:47:02.000Z</time>
      </trkpt>
      <trkpt lat="48.10813" lon="3.30482">
        <ele>111.8</ele>
        <time>2024-03-30T16:47:06.000Z</time>
      </trkpt>
      <trkpt lat="48.10813" lon="3.30483">
        <ele>111.9</ele>
        <time>2024-03-30T16:47:07.000Z</time>
      </trkpt>
      <trkpt lat="48.10813" lon="3.30483">
        <ele>111.9</ele>
        <time>2024-03-30T16:47:08.000Z</time>
      </trkpt>
      <trkpt lat="48.10813" lon="3.30483">
        <ele>111.9</ele>
        <time>2024-03-30T16:47:09.000Z</time>
      </trkpt>
      <trkpt lat="48.10814" lon="3.30483">
        <ele>111.8</ele>
        <time>2024-03-30T16:47:10.000Z</time>
      </trkpt>
      <trkpt lat="48.10814" lon="3.30483">
        <ele>111.8</ele>
        <time>2024-03-30T16:47:11.000Z</time>
      </trkpt>
      <trkpt lat="48.10814" lon="3.30483">
        <ele>111.8</ele>
        <time>2024-03-30T16:47:19.000Z</time>
      </trkpt>
      <trkpt lat="48.10814" lon="3.30483">
        <ele>111.8</ele>
        <time>2024-03-30T16:47:33.000Z</time>
      </trkpt>
      <trkpt lat="48.10813" lon="3.30483">
        <ele>111.9</ele>
        <time>2024-03-30T16:47:43.000Z</time>
      </trkpt>
      <trkpt lat="48.10814" lon="3.30485">
        <ele>111.9</ele>
        <time>2024-03-30T16:47:51.000Z</time>
      </trkpt>
      <trkpt lat="48.10814" lon="3.30487">
        <ele>111.9</ele>
        <time>2024-03-30T16:48:02.000Z</time>
      </trkpt>
      <trkpt lat="48.10815" lon="3.30487">
        <ele>111.9</ele>
        <time>2024-03-30T16:48:03.000Z</time>
      </trkpt>
      <trkpt lat="48.10815" lon="3.30488">
        <ele>111.9</ele>
        <time>2024-03-30T16:48:04.000Z</time>
      </trkpt>
      <trkpt lat="48.10816" lon="3.30489">
        <ele>111.9</ele>
        <time>2024-03-30T16:48:05.000Z</time>
      </trkpt>
      <trkpt lat="48.10817" lon="3.30492">
        <ele>111.9</ele>
        <time>2024-03-30T16:48:06.000Z</time>
      </trkpt>
      <trkpt lat="48.10817" lon="3.30493">
        <ele>111.9</ele>
        <time>2024-03-30T16:48:07.000Z</time>
      </trkpt>
      <trkpt lat="48.10817" lon="3.30494">
        <ele>112</ele>
        <time>2024-03-30T16:48:08.000Z</time>
      </trkpt>
      <trkpt lat="48.1082" lon="3.30497">
        <ele>111.9</ele>
        <time>2024-03-30T16:48:10.000Z</time>
      </trkpt>
      <trkpt lat="48.10823" lon="3.30499">
        <ele>111.7</ele>
        <time>2024-03-30T16:48:11.000Z</time>
      </trkpt>
      <trkpt lat="48.10825" lon="3.30503">
        <ele>111.7</ele>
        <time>2024-03-30T16:48:12.000Z</time>
      </trkpt>
      <trkpt lat="48.10827" lon="3.30507">
        <ele>111.8</ele>
        <time>2024-03-30T16:48:13.000Z</time>
      </trkpt>
      <trkpt lat="48.10828" lon="3.30511">
        <ele>111.9</ele>
        <time>2024-03-30T16:48:14.000Z</time>
      </trkpt>
      <trkpt lat="48.10828" lon="3.30513">
        <ele>111.9</ele>
        <time>2024-03-30T16:48:15.000Z</time>
      </trkpt>
      <trkpt lat="48.10828" lon="3.30513">
        <ele>111.9</ele>
        <time>2024-03-30T16:48:16.000Z</time>
      </trkpt>
      <trkpt lat="48.10828" lon="3.30514">
        <ele>112</ele>
        <time>2024-03-30T16:48:17.000Z</time>
      </trkpt>
      <trkpt lat="48.10829" lon="3.30514">
        <ele>111.9</ele>
        <time>2024-03-30T16:48:19.000Z</time>
      </trkpt>
      <trkpt lat="48.10829" lon="3.30514">
        <ele>111.9</ele>
        <time>2024-03-30T16:48:28.000Z</time>
      </trkpt>
      <trkpt lat="48.10829" lon="3.30514">
        <ele>111.9</ele>
        <time>2024-03-30T16:48:40.000Z</time>
      </trkpt>
      <trkpt lat="48.10829" lon="3.30514">
        <ele>111.9</ele>
        <time>2024-03-30T16:49:08.000Z</time>
      </trkpt>
      <trkpt lat="48.1083" lon="3.30518">
        <ele>112</ele>
        <time>2024-03-30T16:49:22.000Z</time>
      </trkpt>
      <trkpt lat="48.10831" lon="3.3052">
        <ele>111.9</ele>
        <time>2024-03-30T16:49:23.000Z</time>
      </trkpt>
      <trkpt lat="48.10831" lon="3.30523">
        <ele>112.1</ele>
        <time>2024-03-30T16:49:24.000Z</time>
      </trkpt>
      <trkpt lat="48.10832" lon="3.30531">
        <ele>112.3</ele>
        <time>2024-03-30T16:49:27.000Z</time>
      </trkpt>
      <trkpt lat="48.10833" lon="3.30535">
        <ele>112.3</ele>
        <time>2024-03-30T16:49:28.000Z</time>
      </trkpt>
      <trkpt lat="48.10834" lon="3.30541">
        <ele>112.4</ele>
        <time>2024-03-30T16:49:30.000Z</time>
      </trkpt>
      <trkpt lat="48.10837" lon="3.30563">
        <ele>113</ele>
        <time>2024-03-30T16:49:37.000Z</time>
      </trkpt>
      <trkpt lat="48.10835" lon="3.30576">
        <ele>113.6</ele>
        <time>2024-03-30T16:49:41.000Z</time>
      </trkpt>
      <trkpt lat="48.10835" lon="3.30578">
        <ele>113.7</ele>
        <time>2024-03-30T16:49:42.000Z</time>
      </trkpt>
      <trkpt lat="48.10834" lon="3.30581">
        <ele>113.9</ele>
        <time>2024-03-30T16:49:43.000Z</time>
      </trkpt>
      <trkpt lat="48.10834" lon="3.30584">
        <ele>114</ele>
        <time>2024-03-30T16:49:44.000Z</time>
      </trkpt>
      <trkpt lat="48.10834" lon="3.30587">
        <ele>114.1</ele>
        <time>2024-03-30T16:49:45.000Z</time>
      </trkpt>
      <trkpt lat="48.10833" lon="3.30589">
        <ele>114.2</ele>
        <time>2024-03-30T16:49:46.000Z</time>
      </trkpt>
      <trkpt lat="48.10834" lon="3.30596">
        <ele>114.4</ele>
        <time>2024-03-30T16:49:48.000Z</time>
      </trkpt>
      <trkpt lat="48.10834" lon="3.30599">
        <ele>114.5</ele>
        <time>2024-03-30T16:49:49.000Z</time>
      </trkpt>
      <trkpt lat="48.10835" lon="3.30602">
        <ele>114.6</ele>
        <time>2024-03-30T16:49:50.000Z</time>
      </trkpt>
      <trkpt lat="48.10836" lon="3.30605">
        <ele>114.6</ele>
        <time>2024-03-30T16:49:51.000Z</time>
      </trkpt>
      <trkpt lat="48.10836" lon="3.30608">
        <ele>114.7</ele>
        <time>2024-03-30T16:49:52.000Z</time>
      </trkpt>
      <trkpt lat="48.10837" lon="3.30611">
        <ele>114.7</ele>
        <time>2024-03-30T16:49:53.000Z</time>
      </trkpt>
      <trkpt lat="48.10839" lon="3.30617">
        <ele>114.8</ele>
        <time>2024-03-30T16:49:55.000Z</time>
      </trkpt>
      <trkpt lat="48.10841" lon="3.30622">
        <ele>114.9</ele>
        <time>2024-03-30T16:49:57.000Z</time>
      </trkpt>
      <trkpt lat="48.10844" lon="3.30637">
        <ele>115.5</ele>
        <time>2024-03-30T16:50:02.000Z</time>
      </trkpt>
      <trkpt lat="48.10844" lon="3.3064">
        <ele>115.7</ele>
        <time>2024-03-30T16:50:03.000Z</time>
      </trkpt>
      <trkpt lat="48.10844" lon="3.30642">
        <ele>115.9</ele>
        <time>2024-03-30T16:50:04.000Z</time>
      </trkpt>
      <trkpt lat="48.10843" lon="3.30644">
        <ele>116.1</ele>
        <time>2024-03-30T16:50:05.000Z</time>
      </trkpt>
      <trkpt lat="48.10842" lon="3.30647">
        <ele>116.4</ele>
        <time>2024-03-30T16:50:06.000Z</time>
      </trkpt>
      <trkpt lat="48.10842" lon="3.30649">
        <ele>116.6</ele>
        <time>2024-03-30T16:50:07.000Z</time>
      </trkpt>
      <trkpt lat="48.10841" lon="3.3065">
        <ele>116.7</ele>
        <time>2024-03-30T16:50:08.000Z</time>
      </trkpt>
      <trkpt lat="48.10841" lon="3.30652">
        <ele>116.9</ele>
        <time>2024-03-30T16:50:09.000Z</time>
      </trkpt>
      <trkpt lat="48.1084" lon="3.30654">
        <ele>117.1</ele>
        <time>2024-03-30T16:50:10.000Z</time>
      </trkpt>
      <trkpt lat="48.10839" lon="3.30655">
        <ele>117.3</ele>
        <time>2024-03-30T16:50:11.000Z</time>
      </trkpt>
      <trkpt lat="48.10839" lon="3.30656">
        <ele>117.4</ele>
        <time>2024-03-30T16:50:12.000Z</time>
      </trkpt>
      <trkpt lat="48.10839" lon="3.30657">
        <ele>117.5</ele>
        <time>2024-03-30T16:50:13.000Z</time>
      </trkpt>
      <trkpt lat="48.10838" lon="3.30659">
        <ele>117.8</ele>
        <time>2024-03-30T16:50:14.000Z</time>
      </trkpt>
      <trkpt lat="48.10838" lon="3.30661">
        <ele>118</ele>
        <time>2024-03-30T16:50:15.000Z</time>
      </trkpt>
      <trkpt lat="48.10837" lon="3.30662">
        <ele>118.1</ele>
        <time>2024-03-30T16:50:16.000Z</time>
      </trkpt>
      <trkpt lat="48.10837" lon="3.30664">
        <ele>118.3</ele>
        <time>2024-03-30T16:50:17.000Z</time>
      </trkpt>
      <trkpt lat="48.10836" lon="3.30667">
        <ele>118.7</ele>
        <time>2024-03-30T16:50:19.000Z</time>
      </trkpt>
      <trkpt lat="48.10836" lon="3.30669">
        <ele>118.9</ele>
        <time>2024-03-30T16:50:20.000Z</time>
      </trkpt>
      <trkpt lat="48.10834" lon="3.30671">
        <ele>119.2</ele>
        <time>2024-03-30T16:50:22.000Z</time>
      </trkpt>
      <trkpt lat="48.10833" lon="3.30673">
        <ele>119.5</ele>
        <time>2024-03-30T16:50:23.000Z</time>
      </trkpt>
      <trkpt lat="48.10833" lon="3.30675">
        <ele>119.6</ele>
        <time>2024-03-30T16:50:24.000Z</time>
      </trkpt>
      <trkpt lat="48.10832" lon="3.30677">
        <ele>119.9</ele>
        <time>2024-03-30T16:50:25.000Z</time>
      </trkpt>
      <trkpt lat="48.10831" lon="3.30678">
        <ele>120.1</ele>
        <time>2024-03-30T16:50:26.000Z</time>
      </trkpt>
      <trkpt lat="48.10831" lon="3.3068">
        <ele>120.2</ele>
        <time>2024-03-30T16:50:27.000Z</time>
      </trkpt>
      <trkpt lat="48.1083" lon="3.30681">
        <ele>120.4</ele>
        <time>2024-03-30T16:50:28.000Z</time>
      </trkpt>
      <trkpt lat="48.10829" lon="3.30682">
        <ele>120.6</ele>
        <time>2024-03-30T16:50:29.000Z</time>
      </trkpt>
      <trkpt lat="48.10829" lon="3.30684">
        <ele>120.7</ele>
        <time>2024-03-30T16:50:30.000Z</time>
      </trkpt>
      <trkpt lat="48.10829" lon="3.30684">
        <ele>120.7</ele>
        <time>2024-03-30T16:50:31.000Z</time>
      </trkpt>
      <trkpt lat="48.10829" lon="3.30685">
        <ele>120.8</ele>
        <time>2024-03-30T16:50:32.000Z</time>
      </trkpt>
      <trkpt lat="48.10828" lon="3.30686">
        <ele>121</ele>
        <time>2024-03-30T16:50:33.000Z</time>
      </trkpt>
      <trkpt lat="48.10828" lon="3.30688">
        <ele>121.1</ele>
        <time>2024-03-30T16:50:34.000Z</time>
      </trkpt>
      <trkpt lat="48.10827" lon="3.3069">
        <ele>121.4</ele>
        <time>2024-03-30T16:50:35.000Z</time>
      </trkpt>
      <trkpt lat="48.10826" lon="3.30691">
        <ele>121.5</ele>
        <time>2024-03-30T16:50:36.000Z</time>
      </trkpt>
      <trkpt lat="48.10826" lon="3.30693">
        <ele>121.7</ele>
        <time>2024-03-30T16:50:37.000Z</time>
      </trkpt>
      <trkpt lat="48.10826" lon="3.30695">
        <ele>121.8</ele>
        <time>2024-03-30T16:50:38.000Z</time>
      </trkpt>
      <trkpt lat="48.10826" lon="3.30696">
        <ele>121.9</ele>
        <time>2024-03-30T16:50:39.000Z</time>
      </trkpt>
      <trkpt lat="48.10826" lon="3.30698">
        <ele>122</ele>
        <time>2024-03-30T16:50:40.000Z</time>
      </trkpt>
      <trkpt lat="48.10826" lon="3.307">
        <ele>122.2</ele>
        <time>2024-03-30T16:50:41.000Z</time>
      </trkpt>
      <trkpt lat="48.10826" lon="3.30702">
        <ele>122.3</ele>
        <time>2024-03-30T16:50:42.000Z</time>
      </trkpt>
      <trkpt lat="48.10826" lon="3.30703">
        <ele>122.4</ele>
        <time>2024-03-30T16:50:43.000Z</time>
      </trkpt>
      <trkpt lat="48.10827" lon="3.30705">
        <ele>122.4</ele>
        <time>2024-03-30T16:50:44.000Z</time>
      </trkpt>
      <trkpt lat="48.10827" lon="3.30707">
        <ele>122.6</ele>
        <time>2024-03-30T16:50:45.000Z</time>
      </trkpt>
      <trkpt lat="48.10827" lon="3.30709">
        <ele>122.7</ele>
        <time>2024-03-30T16:50:46.000Z</time>
      </trkpt>
      <trkpt lat="48.10827" lon="3.30711">
        <ele>122.9</ele>
        <time>2024-03-30T16:50:47.000Z</time>
      </trkpt>
      <trkpt lat="48.10827" lon="3.30713">
        <ele>123</ele>
        <time>2024-03-30T16:50:48.000Z</time>
      </trkpt>
      <trkpt lat="48.10828" lon="3.30715">
        <ele>123.1</ele>
        <time>2024-03-30T16:50:49.000Z</time>
      </trkpt>
      <trkpt lat="48.10828" lon="3.30716">
        <ele>123.1</ele>
        <time>2024-03-30T16:50:50.000Z</time>
      </trkpt>
      <trkpt lat="48.10827" lon="3.30718">
        <ele>123.4</ele>
        <time>2024-03-30T16:50:51.000Z</time>
      </trkpt>
      <trkpt lat="48.10827" lon="3.30719">
        <ele>123.5</ele>
        <time>2024-03-30T16:50:52.000Z</time>
      </trkpt>
      <trkpt lat="48.10827" lon="3.30721">
        <ele>123.6</ele>
        <time>2024-03-30T16:50:53.000Z</time>
      </trkpt>
      <trkpt lat="48.10827" lon="3.30723">
        <ele>123.8</ele>
        <time>2024-03-30T16:50:54.000Z</time>
      </trkpt>
      <trkpt lat="48.10827" lon="3.30725">
        <ele>124</ele>
        <time>2024-03-30T16:50:55.000Z</time>
      </trkpt>
      <trkpt lat="48.10828" lon="3.30727">
        <ele>124.1</ele>
        <time>2024-03-30T16:50:56.000Z</time>
      </trkpt>
      <trkpt lat="48.10828" lon="3.30728">
        <ele>124.2</ele>
        <time>2024-03-30T16:50:57.000Z</time>
      </trkpt>
      <trkpt lat="48.10828" lon="3.30729">
        <ele>124.3</ele>
        <time>2024-03-30T16:50:58.000Z</time>
      </trkpt>
      <trkpt lat="48.10829" lon="3.3073">
        <ele>124.3</ele>
        <time>2024-03-30T16:50:59.000Z</time>
      </trkpt>
      <trkpt lat="48.10829" lon="3.30732">
        <ele>124.5</ele>
        <time>2024-03-30T16:51:00.000Z</time>
      </trkpt>
      <trkpt lat="48.10829" lon="3.30735">
        <ele>124.8</ele>
        <time>2024-03-30T16:51:01.000Z</time>
      </trkpt>
      <trkpt lat="48.1083" lon="3.30737">
        <ele>124.9</ele>
        <time>2024-03-30T16:51:02.000Z</time>
      </trkpt>
      <trkpt lat="48.1083" lon="3.30739">
        <ele>125.1</ele>
        <time>2024-03-30T16:51:03.000Z</time>
      </trkpt>
      <trkpt lat="48.1083" lon="3.3074">
        <ele>125.2</ele>
        <time>2024-03-30T16:51:04.000Z</time>
      </trkpt>
      <trkpt lat="48.1083" lon="3.30741">
        <ele>125.3</ele>
        <time>2024-03-30T16:51:05.000Z</time>
      </trkpt>
      <trkpt lat="48.1083" lon="3.30743">
        <ele>125.5</ele>
        <time>2024-03-30T16:51:06.000Z</time>
      </trkpt>
      <trkpt lat="48.10831" lon="3.30746">
        <ele>125.7</ele>
        <time>2024-03-30T16:51:07.000Z</time>
      </trkpt>
      <trkpt lat="48.10831" lon="3.30748">
        <ele>126</ele>
        <time>2024-03-30T16:51:08.000Z</time>
      </trkpt>
      <trkpt lat="48.10832" lon="3.3075">
        <ele>126.1</ele>
        <time>2024-03-30T16:51:09.000Z</time>
      </trkpt>
      <trkpt lat="48.10832" lon="3.30752">
        <ele>126.2</ele>
        <time>2024-03-30T16:51:10.000Z</time>
      </trkpt>
      <trkpt lat="48.10833" lon="3.30754">
        <ele>126.3</ele>
        <time>2024-03-30T16:51:11.000Z</time>
      </trkpt>
      <trkpt lat="48.10834" lon="3.30755">
        <ele>126.3</ele>
        <time>2024-03-30T16:51:12.000Z</time>
      </trkpt>
      <trkpt lat="48.10834" lon="3.30757">
        <ele>126.4</ele>
        <time>2024-03-30T16:51:13.000Z</time>
      </trkpt>
      <trkpt lat="48.10834" lon="3.30758">
        <ele>126.5</ele>
        <time>2024-03-30T16:51:14.000Z</time>
      </trkpt>
      <trkpt lat="48.10835" lon="3.3076">
        <ele>126.5</ele>
        <time>2024-03-30T16:51:15.000Z</time>
      </trkpt>
      <trkpt lat="48.10835" lon="3.30761">
        <ele>126.6</ele>
        <time>2024-03-30T16:51:16.000Z</time>
      </trkpt>
      <trkpt lat="48.10836" lon="3.30764">
        <ele>126.7</ele>
        <time>2024-03-30T16:51:17.000Z</time>
      </trkpt>
      <trkpt lat="48.10836" lon="3.30766">
        <ele>126.9</ele>
        <time>2024-03-30T16:51:18.000Z</time>
      </trkpt>
      <trkpt lat="48.10836" lon="3.30768">
        <ele>127</ele>
        <time>2024-03-30T16:51:19.000Z</time>
      </trkpt>
      <trkpt lat="48.10837" lon="3.30769">
        <ele>127</ele>
        <time>2024-03-30T16:51:20.000Z</time>
      </trkpt>
      <trkpt lat="48.10837" lon="3.30771">
        <ele>127.1</ele>
        <time>2024-03-30T16:51:21.000Z</time>
      </trkpt>
      <trkpt lat="48.10838" lon="3.30773">
        <ele>127.2</ele>
        <time>2024-03-30T16:51:22.000Z</time>
      </trkpt>
      <trkpt lat="48.10839" lon="3.30775">
        <ele>127.2</ele>
        <time>2024-03-30T16:51:23.000Z</time>
      </trkpt>
      <trkpt lat="48.10839" lon="3.30776">
        <ele>127.3</ele>
        <time>2024-03-30T16:51:24.000Z</time>
      </trkpt>
      <trkpt lat="48.1084" lon="3.30778">
        <ele>127.3</ele>
        <time>2024-03-30T16:51:25.000Z</time>
      </trkpt>
      <trkpt lat="48.1084" lon="3.3078">
        <ele>127.5</ele>
        <time>2024-03-30T16:51:26.000Z</time>
      </trkpt>
      <trkpt lat="48.1084" lon="3.30782">
        <ele>127.6</ele>
        <time>2024-03-30T16:51:27.000Z</time>
      </trkpt>
      <trkpt lat="48.1084" lon="3.30784">
        <ele>127.8</ele>
        <time>2024-03-30T16:51:28.000Z</time>
      </trkpt>
      <trkpt lat="48.10841" lon="3.30786">
        <ele>127.8</ele>
        <time>2024-03-30T16:51:29.000Z</time>
      </trkpt>
      <trkpt lat="48.10841" lon="3.30788">
        <ele>128</ele>
        <time>2024-03-30T16:51:30.000Z</time>
      </trkpt>
      <trkpt lat="48.10842" lon="3.3079">
        <ele>128.1</ele>
        <time>2024-03-30T16:51:31.000Z</time>
      </trkpt>
      <trkpt lat="48.10843" lon="3.30791">
        <ele>128.1</ele>
        <time>2024-03-30T16:51:32.000Z</time>
      </trkpt>
      <trkpt lat="48.10843" lon="3.30793">
        <ele>128.2</ele>
        <time>2024-03-30T16:51:33.000Z</time>
      </trkpt>
      <trkpt lat="48.10844" lon="3.30795">
        <ele>128.3</ele>
        <time>2024-03-30T16:51:34.000Z</time>
      </trkpt>
      <trkpt lat="48.10845" lon="3.30797">
        <ele>128.4</ele>
        <time>2024-03-30T16:51:35.000Z</time>
      </trkpt>
      <trkpt lat="48.10846" lon="3.30799">
        <ele>128.5</ele>
        <time>2024-03-30T16:51:36.000Z</time>
      </trkpt>
      <trkpt lat="48.10846" lon="3.30802">
        <ele>128.8</ele>
        <time>2024-03-30T16:51:37.000Z</time>
      </trkpt>
      <trkpt lat="48.10847" lon="3.30804">
        <ele>128.9</ele>
        <time>2024-03-30T16:51:38.000Z</time>
      </trkpt>
      <trkpt lat="48.10848" lon="3.30806">
        <ele>129</ele>
        <time>2024-03-30T16:51:39.000Z</time>
      </trkpt>
      <trkpt lat="48.10849" lon="3.30808">
        <ele>129.1</ele>
        <time>2024-03-30T16:51:40.000Z</time>
      </trkpt>
      <trkpt lat="48.10849" lon="3.30809">
        <ele>129.2</ele>
        <time>2024-03-30T16:51:41.000Z</time>
      </trkpt>
      <trkpt lat="48.1085" lon="3.30812">
        <ele>129.4</ele>
        <time>2024-03-30T16:51:42.000Z</time>
      </trkpt>
      <trkpt lat="48.10851" lon="3.30815">
        <ele>129.5</ele>
        <time>2024-03-30T16:51:43.000Z</time>
      </trkpt>
      <trkpt lat="48.10851" lon="3.30818">
        <ele>129.8</ele>
        <time>2024-03-30T16:51:44.000Z</time>
      </trkpt>
      <trkpt lat="48.10852" lon="3.3082">
        <ele>129.9</ele>
        <time>2024-03-30T16:51:45.000Z</time>
      </trkpt>
      <trkpt lat="48.10852" lon="3.30822">
        <ele>130</ele>
        <time>2024-03-30T16:51:46.000Z</time>
      </trkpt>
      <trkpt lat="48.10853" lon="3.30824">
        <ele>130.1</ele>
        <time>2024-03-30T16:51:47.000Z</time>
      </trkpt>
      <trkpt lat="48.10854" lon="3.30827">
        <ele>130.3</ele>
        <time>2024-03-30T16:51:48.000Z</time>
      </trkpt>
      <trkpt lat="48.10855" lon="3.30828">
        <ele>130.2</ele>
        <time>2024-03-30T16:51:49.000Z</time>
      </trkpt>
      <trkpt lat="48.10856" lon="3.30831">
        <ele>130.4</ele>
        <time>2024-03-30T16:51:50.000Z</time>
      </trkpt>
      <trkpt lat="48.10857" lon="3.30833">
        <ele>130.4</ele>
        <time>2024-03-30T16:51:51.000Z</time>
      </trkpt>
      <trkpt lat="48.10858" lon="3.30836">
        <ele>130.6</ele>
        <time>2024-03-30T16:51:52.000Z</time>
      </trkpt>
      <trkpt lat="48.10859" lon="3.30839">
        <ele>130.8</ele>
        <time>2024-03-30T16:51:53.000Z</time>
      </trkpt>
      <trkpt lat="48.10859" lon="3.30842">
        <ele>131.1</ele>
        <time>2024-03-30T16:51:54.000Z</time>
      </trkpt>
      <trkpt lat="48.1086" lon="3.30843">
        <ele>131.2</ele>
        <time>2024-03-30T16:51:55.000Z</time>
      </trkpt>
      <trkpt lat="48.1086" lon="3.30846">
        <ele>131.5</ele>
        <time>2024-03-30T16:51:56.000Z</time>
      </trkpt>
      <trkpt lat="48.10861" lon="3.30849">
        <ele>131.7</ele>
        <time>2024-03-30T16:51:57.000Z</time>
      </trkpt>
      <trkpt lat="48.10862" lon="3.30851">
        <ele>131.8</ele>
        <time>2024-03-30T16:51:58.000Z</time>
      </trkpt>
      <trkpt lat="48.10863" lon="3.30854">
        <ele>132</ele>
        <time>2024-03-30T16:51:59.000Z</time>
      </trkpt>
      <trkpt lat="48.10864" lon="3.30856">
        <ele>132.1</ele>
        <time>2024-03-30T16:52:00.000Z</time>
      </trkpt>
      <trkpt lat="48.10865" lon="3.30858">
        <ele>132.2</ele>
        <time>2024-03-30T16:52:01.000Z</time>
      </trkpt>
      <trkpt lat="48.10865" lon="3.30861">
        <ele>132.6</ele>
        <time>2024-03-30T16:52:02.000Z</time>
      </trkpt>
      <trkpt lat="48.10866" lon="3.30863">
        <ele>132.6</ele>
        <time>2024-03-30T16:52:03.000Z</time>
      </trkpt>
      <trkpt lat="48.10867" lon="3.30865">
        <ele>132.6</ele>
        <time>2024-03-30T16:52:04.000Z</time>
      </trkpt>
      <trkpt lat="48.10868" lon="3.30868">
        <ele>132.7</ele>
        <time>2024-03-30T16:52:05.000Z</time>
      </trkpt>
      <trkpt lat="48.10869" lon="3.3087">
        <ele>132.7</ele>
        <time>2024-03-30T16:52:06.000Z</time>
      </trkpt>
      <trkpt lat="48.1087" lon="3.30872">
        <ele>132.7</ele>
        <time>2024-03-30T16:52:07.000Z</time>
      </trkpt>
      <trkpt lat="48.10871" lon="3.30874">
        <ele>132.7</ele>
        <time>2024-03-30T16:52:08.000Z</time>
      </trkpt>
      <trkpt lat="48.10871" lon="3.30876">
        <ele>132.8</ele>
        <time>2024-03-30T16:52:09.000Z</time>
      </trkpt>
      <trkpt lat="48.10872" lon="3.30878">
        <ele>132.8</ele>
        <time>2024-03-30T16:52:10.000Z</time>
      </trkpt>
      <trkpt lat="48.10873" lon="3.30881">
        <ele>132.8</ele>
        <time>2024-03-30T16:52:11.000Z</time>
      </trkpt>
      <trkpt lat="48.10873" lon="3.30883">
        <ele>133</ele>
        <time>2024-03-30T16:52:12.000Z</time>
      </trkpt>
      <trkpt lat="48.10874" lon="3.30885">
        <ele>132.9</ele>
        <time>2024-03-30T16:52:13.000Z</time>
      </trkpt>
      <trkpt lat="48.10875" lon="3.30888">
        <ele>133</ele>
        <time>2024-03-30T16:52:14.000Z</time>
      </trkpt>
      <trkpt lat="48.10875" lon="3.3089">
        <ele>133.1</ele>
        <time>2024-03-30T16:52:15.000Z</time>
      </trkpt>
      <trkpt lat="48.10876" lon="3.30892">
        <ele>133.1</ele>
        <time>2024-03-30T16:52:16.000Z</time>
      </trkpt>
      <trkpt lat="48.10877" lon="3.30895">
        <ele>133.3</ele>
        <time>2024-03-30T16:52:17.000Z</time>
      </trkpt>
      <trkpt lat="48.10878" lon="3.30897">
        <ele>133.3</ele>
        <time>2024-03-30T16:52:18.000Z</time>
      </trkpt>
      <trkpt lat="48.10878" lon="3.30898">
        <ele>133.4</ele>
        <time>2024-03-30T16:52:19.000Z</time>
      </trkpt>
      <trkpt lat="48.10879" lon="3.309">
        <ele>133.5</ele>
        <time>2024-03-30T16:52:20.000Z</time>
      </trkpt>
      <trkpt lat="48.10881" lon="3.30902">
        <ele>133.4</ele>
        <time>2024-03-30T16:52:21.000Z</time>
      </trkpt>
      <trkpt lat="48.10882" lon="3.30905">
        <ele>133.6</ele>
        <time>2024-03-30T16:52:22.000Z</time>
      </trkpt>
      <trkpt lat="48.10883" lon="3.30908">
        <ele>133.8</ele>
        <time>2024-03-30T16:52:23.000Z</time>
      </trkpt>
      <trkpt lat="48.10884" lon="3.30909">
        <ele>133.7</ele>
        <time>2024-03-30T16:52:24.000Z</time>
      </trkpt>
      <trkpt lat="48.10885" lon="3.30912">
        <ele>133.9</ele>
        <time>2024-03-30T16:52:25.000Z</time>
      </trkpt>
      <trkpt lat="48.10886" lon="3.30914">
        <ele>134</ele>
        <time>2024-03-30T16:52:26.000Z</time>
      </trkpt>
      <trkpt lat="48.10887" lon="3.30917">
        <ele>134.2</ele>
        <time>2024-03-30T16:52:27.000Z</time>
      </trkpt>
      <trkpt lat="48.10888" lon="3.30919">
        <ele>134.3</ele>
        <time>2024-03-30T16:52:28.000Z</time>
      </trkpt>
      <trkpt lat="48.1089" lon="3.30923">
        <ele>134.3</ele>
        <time>2024-03-30T16:52:29.000Z</time>
      </trkpt>
      <trkpt lat="48.10891" lon="3.30926">
        <ele>134.3</ele>
        <time>2024-03-30T16:52:30.000Z</time>
      </trkpt>
      <trkpt lat="48.10892" lon="3.30928">
        <ele>134.3</ele>
        <time>2024-03-30T16:52:31.000Z</time>
      </trkpt>
      <trkpt lat="48.10894" lon="3.30931">
        <ele>134.1</ele>
        <time>2024-03-30T16:52:32.000Z</time>
      </trkpt>
      <trkpt lat="48.10902" lon="3.30949">
        <ele>133.9</ele>
        <time>2024-03-30T16:52:38.000Z</time>
      </trkpt>
      <trkpt lat="48.10914" lon="3.30975">
        <ele>133.5</ele>
        <time>2024-03-30T16:52:45.000Z</time>
      </trkpt>
      <trkpt lat="48.10927" lon="3.31001">
        <ele>131.5</ele>
        <time>2024-03-30T16:52:51.000Z</time>
      </trkpt>
      <trkpt lat="48.10939" lon="3.31023">
        <ele>130</ele>
        <time>2024-03-30T16:52:54.000Z</time>
      </trkpt>
      <trkpt lat="48.10944" lon="3.3103">
        <ele>129.2</ele>
        <time>2024-03-30T16:52:55.000Z</time>
      </trkpt>
      <trkpt lat="48.10959" lon="3.31055">
        <ele>127.3</ele>
        <time>2024-03-30T16:52:58.000Z</time>
      </trkpt>
      <trkpt lat="48.10964" lon="3.31062">
        <ele>126.5</ele>
        <time>2024-03-30T16:52:59.000Z</time>
      </trkpt>
      <trkpt lat="48.10969" lon="3.31069">
        <ele>125.6</ele>
        <time>2024-03-30T16:53:00.000Z</time>
      </trkpt>
      <trkpt lat="48.10974" lon="3.31075">
        <ele>124.7</ele>
        <time>2024-03-30T16:53:01.000Z</time>
      </trkpt>
      <trkpt lat="48.10977" lon="3.31079">
        <ele>124.2</ele>
        <time>2024-03-30T16:53:02.000Z</time>
      </trkpt>
      <trkpt lat="48.10979" lon="3.31081">
        <ele>123.8</ele>
        <time>2024-03-30T16:53:03.000Z</time>
      </trkpt>
      <trkpt lat="48.10981" lon="3.31082">
        <ele>123.4</ele>
        <time>2024-03-30T16:53:04.000Z</time>
      </trkpt>
      <trkpt lat="48.10983" lon="3.31084">
        <ele>123.1</ele>
        <time>2024-03-30T16:53:05.000Z</time>
      </trkpt>
      <trkpt lat="48.10983" lon="3.31085">
        <ele>123</ele>
        <time>2024-03-30T16:53:06.000Z</time>
      </trkpt>
      <trkpt lat="48.10984" lon="3.31086">
        <ele>122.9</ele>
        <time>2024-03-30T16:53:07.000Z</time>
      </trkpt>
      <trkpt lat="48.10986" lon="3.31087">
        <ele>122.5</ele>
        <time>2024-03-30T16:53:08.000Z</time>
      </trkpt>
      <trkpt lat="48.10986" lon="3.31088">
        <ele>122.5</ele>
        <time>2024-03-30T16:53:09.000Z</time>
      </trkpt>
      <trkpt lat="48.10986" lon="3.31089">
        <ele>122.5</ele>
        <time>2024-03-30T16:53:10.000Z</time>
      </trkpt>
      <trkpt lat="48.10987" lon="3.31091">
        <ele>122.4</ele>
        <time>2024-03-30T16:53:11.000Z</time>
      </trkpt>
      <trkpt lat="48.10989" lon="3.31094">
        <ele>122.1</ele>
        <time>2024-03-30T16:53:13.000Z</time>
      </trkpt>
      <trkpt lat="48.10989" lon="3.31095">
        <ele>122.1</ele>
        <time>2024-03-30T16:53:14.000Z</time>
      </trkpt>
      <trkpt lat="48.10989" lon="3.31095">
        <ele>122.1</ele>
        <time>2024-03-30T16:53:15.000Z</time>
      </trkpt>
      <trkpt lat="48.1099" lon="3.31097">
        <ele>121.9</ele>
        <time>2024-03-30T16:53:16.000Z</time>
      </trkpt>
      <trkpt lat="48.10991" lon="3.31098">
        <ele>121.8</ele>
        <time>2024-03-30T16:53:17.000Z</time>
      </trkpt>
      <trkpt lat="48.10997" lon="3.31108">
        <ele>121.2</ele>
        <time>2024-03-30T16:53:20.000Z</time>
      </trkpt>
      <trkpt lat="48.10999" lon="3.31114">
        <ele>121.3</ele>
        <time>2024-03-30T16:53:22.000Z</time>
      </trkpt>
      <trkpt lat="48.10999" lon="3.31116">
        <ele>121.5</ele>
        <time>2024-03-30T16:53:23.000Z</time>
      </trkpt>
      <trkpt lat="48.11" lon="3.31118">
        <ele>121.5</ele>
        <time>2024-03-30T16:53:24.000Z</time>
      </trkpt>
      <trkpt lat="48.11" lon="3.3112">
        <ele>121.6</ele>
        <time>2024-03-30T16:53:25.000Z</time>
      </trkpt>
      <trkpt lat="48.11001" lon="3.31121">
        <ele>121.7</ele>
        <time>2024-03-30T16:53:26.000Z</time>
      </trkpt>
      <trkpt lat="48.11001" lon="3.31123">
        <ele>121.8</ele>
        <time>2024-03-30T16:53:27.000Z</time>
      </trkpt>
      <trkpt lat="48.11002" lon="3.31125">
        <ele>121.9</ele>
        <time>2024-03-30T16:53:28.000Z</time>
      </trkpt>
      <trkpt lat="48.11002" lon="3.31125">
        <ele>121.9</ele>
        <time>2024-03-30T16:53:29.000Z</time>
      </trkpt>
      <trkpt lat="48.11002" lon="3.31125">
        <ele>121.9</ele>
        <time>2024-03-30T16:53:30.000Z</time>
      </trkpt>
      <trkpt lat="48.11002" lon="3.31125">
        <ele>121.9</ele>
        <time>2024-03-30T16:53:39.000Z</time>
      </trkpt>
      <trkpt lat="48.11002" lon="3.31125">
        <ele>121.9</ele>
        <time>2024-03-30T16:53:48.000Z</time>
      </trkpt>
      <trkpt lat="48.11002" lon="3.31125">
        <ele>121.9</ele>
        <time>2024-03-30T16:54:03.000Z</time>
      </trkpt>
      <trkpt lat="48.11004" lon="3.31132">
        <ele>122.3</ele>
        <time>2024-03-30T16:54:12.000Z</time>
      </trkpt>
      <trkpt lat="48.11004" lon="3.31139">
        <ele>122.9</ele>
        <time>2024-03-30T16:54:15.000Z</time>
      </trkpt>
      <trkpt lat="48.11005" lon="3.31141">
        <ele>123.1</ele>
        <time>2024-03-30T16:54:16.000Z</time>
      </trkpt>
      <trkpt lat="48.11006" lon="3.31145">
        <ele>123.5</ele>
        <time>2024-03-30T16:54:18.000Z</time>
      </trkpt>
      <trkpt lat="48.11007" lon="3.31147">
        <ele>123.7</ele>
        <time>2024-03-30T16:54:19.000Z</time>
      </trkpt>
      <trkpt lat="48.11007" lon="3.31149">
        <ele>123.9</ele>
        <time>2024-03-30T16:54:20.000Z</time>
      </trkpt>
      <trkpt lat="48.11007" lon="3.31149">
        <ele>123.9</ele>
        <time>2024-03-30T16:54:23.000Z</time>
      </trkpt>
      <trkpt lat="48.11007" lon="3.3115">
        <ele>124</ele>
        <time>2024-03-30T16:54:24.000Z</time>
      </trkpt>
      <trkpt lat="48.11009" lon="3.31151">
        <ele>124.1</ele>
        <time>2024-03-30T16:54:25.000Z</time>
      </trkpt>
      <trkpt lat="48.1101" lon="3.31151">
        <ele>124.1</ele>
        <time>2024-03-30T16:54:26.000Z</time>
      </trkpt>
      <trkpt lat="48.11011" lon="3.31151">
        <ele>124.1</ele>
        <time>2024-03-30T16:54:28.000Z</time>
      </trkpt>
      <trkpt lat="48.11011" lon="3.31151">
        <ele>124.1</ele>
        <time>2024-03-30T16:54:29.000Z</time>
      </trkpt>
      <trkpt lat="48.11012" lon="3.31152">
        <ele>124.2</ele>
        <time>2024-03-30T16:54:30.000Z</time>
      </trkpt>
      <trkpt lat="48.11013" lon="3.31152">
        <ele>124.2</ele>
        <time>2024-03-30T16:54:31.000Z</time>
      </trkpt>
      <trkpt lat="48.11013" lon="3.31154">
        <ele>124.4</ele>
        <time>2024-03-30T16:54:33.000Z</time>
      </trkpt>
      <trkpt lat="48.11014" lon="3.31154">
        <ele>124.4</ele>
        <time>2024-03-30T16:54:34.000Z</time>
      </trkpt>
      <trkpt lat="48.11014" lon="3.31154">
        <ele>124.4</ele>
        <time>2024-03-30T16:54:35.000Z</time>
      </trkpt>
      <trkpt lat="48.11014" lon="3.31154">
        <ele>124.4</ele>
        <time>2024-03-30T16:54:36.000Z</time>
      </trkpt>
      <trkpt lat="48.11014" lon="3.31154">
        <ele>124.4</ele>
        <time>2024-03-30T16:54:38.000Z</time>
      </trkpt>
      <trkpt lat="48.11014" lon="3.31154">
        <ele>124.4</ele>
        <time>2024-03-30T16:54:43.000Z</time>
      </trkpt>
      <trkpt lat="48.11015" lon="3.31154">
        <ele>124.4</ele>
        <time>2024-03-30T16:54:44.000Z</time>
      </trkpt>
      <trkpt lat="48.11015" lon="3.31153">
        <ele>124.3</ele>
        <time>2024-03-30T16:54:45.000Z</time>
      </trkpt>
      <trkpt lat="48.11016" lon="3.31148">
        <ele>123.6</ele>
        <time>2024-03-30T16:54:47.000Z</time>
      </trkpt>
      <trkpt lat="48.11017" lon="3.31146">
        <ele>123.3</ele>
        <time>2024-03-30T16:54:48.000Z</time>
      </trkpt>
      <trkpt lat="48.11018" lon="3.31145">
        <ele>123.2</ele>
        <time>2024-03-30T16:54:49.000Z</time>
      </trkpt>
      <trkpt lat="48.11018" lon="3.31144">
        <ele>123</ele>
        <time>2024-03-30T16:54:50.000Z</time>
      </trkpt>
      <trkpt lat="48.11019" lon="3.31144">
        <ele>123</ele>
        <time>2024-03-30T16:54:51.000Z</time>
      </trkpt>
      <trkpt lat="48.1102" lon="3.31144">
        <ele>123</ele>
        <time>2024-03-30T16:54:53.000Z</time>
      </trkpt>
      <trkpt lat="48.11022" lon="3.31144">
        <ele>122.9</ele>
        <time>2024-03-30T16:54:54.000Z</time>
      </trkpt>
      <trkpt lat="48.11024" lon="3.31143">
        <ele>122.7</ele>
        <time>2024-03-30T16:54:55.000Z</time>
      </trkpt>
      <trkpt lat="48.11025" lon="3.31143">
        <ele>122.7</ele>
        <time>2024-03-30T16:54:56.000Z</time>
      </trkpt>
      <trkpt lat="48.11026" lon="3.31143">
        <ele>122.6</ele>
        <time>2024-03-30T16:54:57.000Z</time>
      </trkpt>
      <trkpt lat="48.11027" lon="3.31143">
        <ele>122.6</ele>
        <time>2024-03-30T16:54:58.000Z</time>
      </trkpt>
      <trkpt lat="48.11029" lon="3.31143">
        <ele>122.6</ele>
        <time>2024-03-30T16:54:59.000Z</time>
      </trkpt>
      <trkpt lat="48.11032" lon="3.31143">
        <ele>122.6</ele>
        <time>2024-03-30T16:55:01.000Z</time>
      </trkpt>
      <trkpt lat="48.11034" lon="3.31141">
        <ele>122.3</ele>
        <time>2024-03-30T16:55:03.000Z</time>
      </trkpt>
      <trkpt lat="48.11036" lon="3.3114">
        <ele>122.1</ele>
        <time>2024-03-30T16:55:04.000Z</time>
      </trkpt>
      <trkpt lat="48.11037" lon="3.31139">
        <ele>122</ele>
        <time>2024-03-30T16:55:05.000Z</time>
      </trkpt>
      <trkpt lat="48.11039" lon="3.3114">
        <ele>122.1</ele>
        <time>2024-03-30T16:55:06.000Z</time>
      </trkpt>
      <trkpt lat="48.11045" lon="3.31138">
        <ele>121.9</ele>
        <time>2024-03-30T16:55:08.000Z</time>
      </trkpt>
      <trkpt lat="48.11049" lon="3.31135">
        <ele>121.6</ele>
        <time>2024-03-30T16:55:10.000Z</time>
      </trkpt>
      <trkpt lat="48.1105" lon="3.31132">
        <ele>121.3</ele>
        <time>2024-03-30T16:55:11.000Z</time>
      </trkpt>
      <trkpt lat="48.11051" lon="3.3113">
        <ele>121</ele>
        <time>2024-03-30T16:55:12.000Z</time>
      </trkpt>
      <trkpt lat="48.11051" lon="3.31128">
        <ele>120.8</ele>
        <time>2024-03-30T16:55:13.000Z</time>
      </trkpt>
      <trkpt lat="48.11049" lon="3.3112">
        <ele>120</ele>
        <time>2024-03-30T16:55:17.000Z</time>
      </trkpt>
      <trkpt lat="48.11049" lon="3.3112">
        <ele>120</ele>
        <time>2024-03-30T16:55:18.000Z</time>
      </trkpt>
      <trkpt lat="48.11049" lon="3.3112">
        <ele>120</ele>
        <time>2024-03-30T16:55:19.000Z</time>
      </trkpt>
      <trkpt lat="48.11049" lon="3.3112">
        <ele>120</ele>
        <time>2024-03-30T16:55:20.000Z</time>
      </trkpt>
      <trkpt lat="48.11048" lon="3.31119">
        <ele>119.9</ele>
        <time>2024-03-30T16:55:21.000Z</time>
      </trkpt>
      <trkpt lat="48.11045" lon="3.31109">
        <ele>118.8</ele>
        <time>2024-03-30T16:55:25.000Z</time>
      </trkpt>
      <trkpt lat="48.11046" lon="3.31108">
        <ele>118.7</ele>
        <time>2024-03-30T16:55:26.000Z</time>
      </trkpt>
      <trkpt lat="48.11046" lon="3.31108">
        <ele>118.7</ele>
        <time>2024-03-30T16:55:27.000Z</time>
      </trkpt>
      <trkpt lat="48.11046" lon="3.31108">
        <ele>118.7</ele>
        <time>2024-03-30T16:55:28.000Z</time>
      </trkpt>
      <trkpt lat="48.11046" lon="3.31107">
        <ele>118.7</ele>
        <time>2024-03-30T16:55:29.000Z</time>
      </trkpt>
      <trkpt lat="48.11047" lon="3.31104">
        <ele>118.4</ele>
        <time>2024-03-30T16:55:30.000Z</time>
      </trkpt>
      <trkpt lat="48.11051" lon="3.31091">
        <ele>117.1</ele>
        <time>2024-03-30T16:55:33.000Z</time>
      </trkpt>
      <trkpt lat="48.11054" lon="3.31086">
        <ele>116.4</ele>
        <time>2024-03-30T16:55:34.000Z</time>
      </trkpt>
      <trkpt lat="48.11056" lon="3.31083">
        <ele>116</ele>
        <time>2024-03-30T16:55:35.000Z</time>
      </trkpt>
      <trkpt lat="48.11058" lon="3.31081">
        <ele>115.7</ele>
        <time>2024-03-30T16:55:36.000Z</time>
      </trkpt>
      <trkpt lat="48.1106" lon="3.31078">
        <ele>115.5</ele>
        <time>2024-03-30T16:55:37.000Z</time>
      </trkpt>
      <trkpt lat="48.1106" lon="3.31077">
        <ele>115.4</ele>
        <time>2024-03-30T16:55:38.000Z</time>
      </trkpt>
      <trkpt lat="48.11062" lon="3.31075">
        <ele>115.2</ele>
        <time>2024-03-30T16:55:39.000Z</time>
      </trkpt>
      <trkpt lat="48.11063" lon="3.31073">
        <ele>115</ele>
        <time>2024-03-30T16:55:40.000Z</time>
      </trkpt>
      <trkpt lat="48.11065" lon="3.31072">
        <ele>114.8</ele>
        <time>2024-03-30T16:55:41.000Z</time>
      </trkpt>
      <trkpt lat="48.11067" lon="3.3107">
        <ele>114.6</ele>
        <time>2024-03-30T16:55:42.000Z</time>
      </trkpt>
      <trkpt lat="48.11067" lon="3.3107">
        <ele>114.6</ele>
        <time>2024-03-30T16:55:43.000Z</time>
      </trkpt>
      <trkpt lat="48.11067" lon="3.3107">
        <ele>114.6</ele>
        <time>2024-03-30T16:55:44.000Z</time>
      </trkpt>
      <trkpt lat="48.11067" lon="3.3107">
        <ele>114.6</ele>
        <time>2024-03-30T16:55:47.000Z</time>
      </trkpt>
      <trkpt lat="48.11067" lon="3.3107">
        <ele>114.6</ele>
        <time>2024-03-30T16:55:48.000Z</time>
      </trkpt>
      <trkpt lat="48.11067" lon="3.3107">
        <ele>114.6</ele>
        <time>2024-03-30T16:55:56.000Z</time>
      </trkpt>
      <trkpt lat="48.11067" lon="3.3107">
        <ele>114.6</ele>
        <time>2024-03-30T16:56:09.000Z</time>
      </trkpt>
      <trkpt lat="48.11069" lon="3.31067">
        <ele>114.3</ele>
        <time>2024-03-30T16:56:17.000Z</time>
      </trkpt>
      <trkpt lat="48.11069" lon="3.31067">
        <ele>114.3</ele>
        <time>2024-03-30T16:56:18.000Z</time>
      </trkpt>
      <trkpt lat="48.11069" lon="3.31067">
        <ele>114.3</ele>
        <time>2024-03-30T16:56:19.000Z</time>
      </trkpt>
      <trkpt lat="48.11072" lon="3.31066">
        <ele>114.2</ele>
        <time>2024-03-30T16:56:28.000Z</time>
      </trkpt>
      <trkpt lat="48.11077" lon="3.3106">
        <ele>113.5</ele>
        <time>2024-03-30T16:56:36.000Z</time>
      </trkpt>
      <trkpt lat="48.11078" lon="3.31059">
        <ele>113.4</ele>
        <time>2024-03-30T16:56:37.000Z</time>
      </trkpt>
      <trkpt lat="48.11079" lon="3.31057">
        <ele>113.3</ele>
        <time>2024-03-30T16:56:38.000Z</time>
      </trkpt>
      <trkpt lat="48.1108" lon="3.31057">
        <ele>113.2</ele>
        <time>2024-03-30T16:56:39.000Z</time>
      </trkpt>
      <trkpt lat="48.1108" lon="3.31057">
        <ele>113.2</ele>
        <time>2024-03-30T16:56:40.000Z</time>
      </trkpt>
      <trkpt lat="48.11088" lon="3.31061">
        <ele>113.1</ele>
        <time>2024-03-30T17:01:22.000Z</time>
      </trkpt>
      <trkpt lat="48.11089" lon="3.31062">
        <ele>113.1</ele>
        <time>2024-03-30T17:01:24.000Z</time>
      </trkpt>
      <trkpt lat="48.11091" lon="3.31065">
        <ele>113.1</ele>
      </trkpt>
      <trkpt lat="48.11095" lon="3.31072">
        <ele>113.3</ele>
        <time>2024-03-30T17:01:32.000Z</time>
      </trkpt>
      <trkpt lat="48.11096" lon="3.31073">
        <ele>113.3</ele>
        <time>2024-03-30T17:01:34.000Z</time>
      </trkpt>
      <trkpt lat="48.11097" lon="3.31075">
        <ele>113.4</ele>
        <time>2024-03-30T17:01:35.000Z</time>
      </trkpt>
      <trkpt lat="48.11098" lon="3.31076">
        <ele>113.4</ele>
        <time>2024-03-30T17:01:37.000Z</time>
      </trkpt>
      <trkpt lat="48.11103" lon="3.31084">
        <ele>113.6</ele>
        <time>2024-03-30T17:01:43.000Z</time>
      </trkpt>
      <trkpt lat="48.11105" lon="3.31086">
        <ele>113.6</ele>
        <time>2024-03-30T17:01:44.000Z</time>
      </trkpt>
      <trkpt lat="48.11107" lon="3.31089">
        <ele>113.7</ele>
        <time>2024-03-30T17:01:45.000Z</time>
      </trkpt>
      <trkpt lat="48.11111" lon="3.31094">
        <ele>113.8</ele>
        <time>2024-03-30T17:01:47.000Z</time>
      </trkpt>
      <trkpt lat="48.11122" lon="3.3111">
        <ele>113.7</ele>
        <time>2024-03-30T17:01:52.000Z</time>
      </trkpt>
      <trkpt lat="48.11146" lon="3.31137">
        <ele>113.1</ele>
        <time>2024-03-30T17:02:00.000Z</time>
      </trkpt>
      <trkpt lat="48.11149" lon="3.31139">
        <ele>112.9</ele>
        <time>2024-03-30T17:02:01.000Z</time>
      </trkpt>
      <trkpt lat="48.11152" lon="3.31141">
        <ele>112.7</ele>
        <time>2024-03-30T17:02:02.000Z</time>
      </trkpt>
      <trkpt lat="48.11153" lon="3.31143">
        <ele>112.7</ele>
        <time>2024-03-30T17:02:03.000Z</time>
      </trkpt>
      <trkpt lat="48.11155" lon="3.31145">
        <ele>112.6</ele>
        <time>2024-03-30T17:02:04.000Z</time>
      </trkpt>
      <trkpt lat="48.11164" lon="3.31158">
        <ele>112.6</ele>
        <time>2024-03-30T17:02:08.000Z</time>
      </trkpt>
      <trkpt lat="48.11167" lon="3.31162">
        <ele>112.6</ele>
        <time>2024-03-30T17:02:09.000Z</time>
      </trkpt>
      <trkpt lat="48.1117" lon="3.31165">
        <ele>112.5</ele>
        <time>2024-03-30T17:02:10.000Z</time>
      </trkpt>
      <trkpt lat="48.11173" lon="3.31169">
        <ele>112.4</ele>
        <time>2024-03-30T17:02:11.000Z</time>
      </trkpt>
      <trkpt lat="48.11177" lon="3.31174">
        <ele>112.1</ele>
        <time>2024-03-30T17:02:12.000Z</time>
      </trkpt>
      <trkpt lat="48.11183" lon="3.31184">
        <ele>111.9</ele>
        <time>2024-03-30T17:02:14.000Z</time>
      </trkpt>
      <trkpt lat="48.11184" lon="3.31185">
        <ele>111.8</ele>
        <time>2024-03-30T17:02:15.000Z</time>
      </trkpt>
      <trkpt lat="48.11184" lon="3.31185">
        <ele>111.8</ele>
        <time>2024-03-30T17:02:16.000Z</time>
      </trkpt>
      <trkpt lat="48.11185" lon="3.31186">
        <ele>111.7</ele>
        <time>2024-03-30T17:02:17.000Z</time>
      </trkpt>
      <trkpt lat="48.11191" lon="3.31193">
        <ele>111.3</ele>
        <time>2024-03-30T17:02:20.000Z</time>
      </trkpt>
      <trkpt lat="48.11197" lon="3.31202">
        <ele>111.3</ele>
        <time>2024-03-30T17:02:24.000Z</time>
      </trkpt>
      <trkpt lat="48.11198" lon="3.31203">
        <ele>111.2</ele>
        <time>2024-03-30T17:02:25.000Z</time>
      </trkpt>
      <trkpt lat="48.11204" lon="3.31208">
        <ele>110.9</ele>
        <time>2024-03-30T17:02:27.000Z</time>
      </trkpt>
      <trkpt lat="48.11212" lon="3.31218">
        <ele>110.8</ele>
        <time>2024-03-30T17:02:32.000Z</time>
      </trkpt>
      <trkpt lat="48.11214" lon="3.31219">
        <ele>110.7</ele>
        <time>2024-03-30T17:02:33.000Z</time>
      </trkpt>
      <trkpt lat="48.11216" lon="3.31218">
        <ele>110.4</ele>
        <time>2024-03-30T17:02:34.000Z</time>
      </trkpt>
      <trkpt lat="48.11217" lon="3.31216">
        <ele>110.1</ele>
        <time>2024-03-30T17:02:35.000Z</time>
      </trkpt>
      <trkpt lat="48.11218" lon="3.31214">
        <ele>109.9</ele>
        <time>2024-03-30T17:02:36.000Z</time>
      </trkpt>
      <trkpt lat="48.11219" lon="3.31212">
        <ele>109.6</ele>
        <time>2024-03-30T17:02:37.000Z</time>
      </trkpt>
      <trkpt lat="48.11219" lon="3.31212">
        <ele>109.6</ele>
        <time>2024-03-30T17:02:38.000Z</time>
      </trkpt>
      <trkpt lat="48.11219" lon="3.31211">
        <ele>109.5</ele>
        <time>2024-03-30T17:02:39.000Z</time>
      </trkpt>
      <trkpt lat="48.1122" lon="3.31211">
        <ele>109.4</ele>
        <time>2024-03-30T17:02:40.000Z</time>
      </trkpt>
      <trkpt lat="48.1122" lon="3.3121">
        <ele>109.4</ele>
        <time>2024-03-30T17:02:41.000Z</time>
      </trkpt>
      <trkpt lat="48.1122" lon="3.3121">
        <ele>109.4</ele>
        <time>2024-03-30T17:02:44.000Z</time>
      </trkpt>
      <trkpt lat="48.1122" lon="3.3121">
        <ele>109.4</ele>
        <time>2024-03-30T17:02:48.000Z</time>
      </trkpt>
      <trkpt lat="48.1122" lon="3.3121">
        <ele>109.4</ele>
        <time>2024-03-30T17:02:49.000Z</time>
      </trkpt>
      <trkpt lat="48.11221" lon="3.31201">
        <ele>108.6</ele>
        <time>2024-03-30T17:02:55.000Z</time>
      </trkpt>
      <trkpt lat="48.11225" lon="3.31175">
        <ele>107.1</ele>
        <time>2024-03-30T17:03:00.000Z</time>
      </trkpt>
      <trkpt lat="48.11226" lon="3.3117">
        <ele>106.8</ele>
        <time>2024-03-30T17:03:01.000Z</time>
      </trkpt>
      <trkpt lat="48.11228" lon="3.31165">
        <ele>106.5</ele>
        <time>2024-03-30T17:03:02.000Z</time>
      </trkpt>
      <trkpt lat="48.11229" lon="3.31159">
        <ele>106.2</ele>
        <time>2024-03-30T17:03:03.000Z</time>
      </trkpt>
      <trkpt lat="48.11231" lon="3.31149">
        <ele>105.7</ele>
        <time>2024-03-30T17:03:05.000Z</time>
      </trkpt>
      <trkpt lat="48.1123" lon="3.31137">
        <ele>105.4</ele>
        <time>2024-03-30T17:03:07.000Z</time>
      </trkpt>
      <trkpt lat="48.11229" lon="3.31132">
        <ele>105.3</ele>
        <time>2024-03-30T17:03:08.000Z</time>
      </trkpt>
      <trkpt lat="48.1123" lon="3.31126">
        <ele>105</ele>
        <time>2024-03-30T17:03:09.000Z</time>
      </trkpt>
      <trkpt lat="48.1123" lon="3.3112">
        <ele>104.8</ele>
        <time>2024-03-30T17:03:10.000Z</time>
      </trkpt>
      <trkpt lat="48.11231" lon="3.31114">
        <ele>104.5</ele>
        <time>2024-03-30T17:03:11.000Z</time>
      </trkpt>
      <trkpt lat="48.11231" lon="3.3111">
        <ele>104.3</ele>
        <time>2024-03-30T17:03:12.000Z</time>
      </trkpt>
      <trkpt lat="48.11231" lon="3.31105">
        <ele>104.1</ele>
        <time>2024-03-30T17:03:13.000Z</time>
      </trkpt>
      <trkpt lat="48.11231" lon="3.31101">
        <ele>104</ele>
        <time>2024-03-30T17:03:14.000Z</time>
      </trkpt>
      <trkpt lat="48.11232" lon="3.31097">
        <ele>103.8</ele>
        <time>2024-03-30T17:03:15.000Z</time>
      </trkpt>
      <trkpt lat="48.11233" lon="3.31095">
        <ele>103.6</ele>
        <time>2024-03-30T17:03:16.000Z</time>
      </trkpt>
      <trkpt lat="48.11234" lon="3.31093">
        <ele>103.5</ele>
        <time>2024-03-30T17:03:17.000Z</time>
      </trkpt>
      <trkpt lat="48.11235" lon="3.31092">
        <ele>103.4</ele>
        <time>2024-03-30T17:03:18.000Z</time>
      </trkpt>
      <trkpt lat="48.11236" lon="3.31091">
        <ele>103.3</ele>
        <time>2024-03-30T17:03:19.000Z</time>
      </trkpt>
      <trkpt lat="48.11237" lon="3.3109">
        <ele>103.2</ele>
        <time>2024-03-30T17:03:20.000Z</time>
      </trkpt>
      <trkpt lat="48.1124" lon="3.31087">
        <ele>102.9</ele>
        <time>2024-03-30T17:03:22.000Z</time>
      </trkpt>
      <trkpt lat="48.1124" lon="3.31086">
        <ele>102.8</ele>
        <time>2024-03-30T17:03:23.000Z</time>
      </trkpt>
      <trkpt lat="48.1124" lon="3.31083">
        <ele>102.7</ele>
        <time>2024-03-30T17:03:24.000Z</time>
      </trkpt>
      <trkpt lat="48.11244" lon="3.31077">
        <ele>102.4</ele>
        <time>2024-03-30T17:03:26.000Z</time>
      </trkpt>
      <trkpt lat="48.11248" lon="3.31073">
        <ele>102.1</ele>
        <time>2024-03-30T17:03:27.000Z</time>
      </trkpt>
      <trkpt lat="48.11252" lon="3.31074">
        <ele>101.9</ele>
        <time>2024-03-30T17:03:29.000Z</time>
      </trkpt>
      <trkpt lat="48.11254" lon="3.31073">
        <ele>101.8</ele>
        <time>2024-03-30T17:03:30.000Z</time>
      </trkpt>
      <trkpt lat="48.11256" lon="3.31072">
        <ele>101.7</ele>
        <time>2024-03-30T17:03:31.000Z</time>
      </trkpt>
      <trkpt lat="48.11258" lon="3.3107">
        <ele>101.6</ele>
        <time>2024-03-30T17:03:32.000Z</time>
      </trkpt>
      <trkpt lat="48.11262" lon="3.31065">
        <ele>101.3</ele>
        <time>2024-03-30T17:03:34.000Z</time>
      </trkpt>
      <trkpt lat="48.11269" lon="3.31059">
        <ele>100.7</ele>
        <time>2024-03-30T17:03:37.000Z</time>
      </trkpt>
      <trkpt lat="48.11272" lon="3.31057">
        <ele>100.5</ele>
        <time>2024-03-30T17:03:38.000Z</time>
      </trkpt>
      <trkpt lat="48.11276" lon="3.31056">
        <ele>100.1</ele>
        <time>2024-03-30T17:03:39.000Z</time>
      </trkpt>
      <trkpt lat="48.1128" lon="3.3106">
        <ele>100.1</ele>
        <time>2024-03-30T17:03:40.000Z</time>
      </trkpt>
      <trkpt lat="48.1128" lon="3.31059">
        <ele>100</ele>
        <time>2024-03-30T17:03:41.000Z</time>
      </trkpt>
      <trkpt lat="48.1128" lon="3.31057">
        <ele>100</ele>
        <time>2024-03-30T17:03:42.000Z</time>
      </trkpt>
      <trkpt lat="48.1128" lon="3.31055">
        <ele>99.9</ele>
        <time>2024-03-30T17:03:43.000Z</time>
      </trkpt>
      <trkpt lat="48.11282" lon="3.31049">
        <ele>99.8</ele>
        <time>2024-03-30T17:03:45.000Z</time>
      </trkpt>
      <trkpt lat="48.11284" lon="3.31047">
        <ele>99.8</ele>
        <time>2024-03-30T17:03:46.000Z</time>
      </trkpt>
      <trkpt lat="48.11287" lon="3.31044">
        <ele>99.7</ele>
        <time>2024-03-30T17:03:48.000Z</time>
      </trkpt>
      <trkpt lat="48.11289" lon="3.31042">
        <ele>99.6</ele>
        <time>2024-03-30T17:03:49.000Z</time>
      </trkpt>
      <trkpt lat="48.11291" lon="3.31038">
        <ele>99.5</ele>
        <time>2024-03-30T17:03:50.000Z</time>
      </trkpt>
      <trkpt lat="48.11292" lon="3.31034">
        <ele>99.5</ele>
        <time>2024-03-30T17:03:51.000Z</time>
      </trkpt>
      <trkpt lat="48.11293" lon="3.3103">
        <ele>99.5</ele>
        <time>2024-03-30T17:03:52.000Z</time>
      </trkpt>
      <trkpt lat="48.11295" lon="3.31026">
        <ele>99.3</ele>
        <time>2024-03-30T17:03:53.000Z</time>
      </trkpt>
      <trkpt lat="48.11296" lon="3.31023">
        <ele>99.2</ele>
        <time>2024-03-30T17:03:54.000Z</time>
      </trkpt>
      <trkpt lat="48.11297" lon="3.31021">
        <ele>99.1</ele>
        <time>2024-03-30T17:03:55.000Z</time>
      </trkpt>
      <trkpt lat="48.11297" lon="3.31017">
        <ele>98.9</ele>
        <time>2024-03-30T17:03:56.000Z</time>
      </trkpt>
      <trkpt lat="48.11298" lon="3.31013">
        <ele>98.7</ele>
        <time>2024-03-30T17:03:57.000Z</time>
      </trkpt>
      <trkpt lat="48.113" lon="3.31002">
        <ele>98.3</ele>
        <time>2024-03-30T17:04:00.000Z</time>
      </trkpt>
      <trkpt lat="48.11302" lon="3.31">
        <ele>98.1</ele>
        <time>2024-03-30T17:04:01.000Z</time>
      </trkpt>
      <trkpt lat="48.11304" lon="3.30996">
        <ele>97.9</ele>
        <time>2024-03-30T17:04:02.000Z</time>
      </trkpt>
      <trkpt lat="48.11305" lon="3.30994">
        <ele>97.8</ele>
        <time>2024-03-30T17:04:03.000Z</time>
      </trkpt>
      <trkpt lat="48.11307" lon="3.30992">
        <ele>97.7</ele>
        <time>2024-03-30T17:04:04.000Z</time>
      </trkpt>
      <trkpt lat="48.11308" lon="3.30988">
        <ele>97.5</ele>
        <time>2024-03-30T17:04:05.000Z</time>
      </trkpt>
      <trkpt lat="48.11309" lon="3.30982">
        <ele>97.2</ele>
        <time>2024-03-30T17:04:06.000Z</time>
      </trkpt>
      <trkpt lat="48.1131" lon="3.30978">
        <ele>97</ele>
        <time>2024-03-30T17:04:07.000Z</time>
      </trkpt>
      <trkpt lat="48.11311" lon="3.30975">
        <ele>96.9</ele>
        <time>2024-03-30T17:04:08.000Z</time>
      </trkpt>
      <trkpt lat="48.11314" lon="3.30968">
        <ele>96.7</ele>
        <time>2024-03-30T17:04:10.000Z</time>
      </trkpt>
      <trkpt lat="48.11315" lon="3.30966">
        <ele>96.7</ele>
        <time>2024-03-30T17:04:11.000Z</time>
      </trkpt>
      <trkpt lat="48.11317" lon="3.30962">
        <ele>96.6</ele>
        <time>2024-03-30T17:04:13.000Z</time>
      </trkpt>
      <trkpt lat="48.11318" lon="3.3096">
        <ele>96.6</ele>
        <time>2024-03-30T17:04:14.000Z</time>
      </trkpt>
      <trkpt lat="48.11319" lon="3.3096">
        <ele>96.5</ele>
        <time>2024-03-30T17:04:15.000Z</time>
      </trkpt>
      <trkpt lat="48.1132" lon="3.30959">
        <ele>96.5</ele>
        <time>2024-03-30T17:04:16.000Z</time>
      </trkpt>
      <trkpt lat="48.11327" lon="3.30956">
        <ele>96.2</ele>
        <time>2024-03-30T17:04:19.000Z</time>
      </trkpt>
      <trkpt lat="48.1133" lon="3.30956">
        <ele>96.1</ele>
        <time>2024-03-30T17:04:20.000Z</time>
      </trkpt>
      <trkpt lat="48.11332" lon="3.30956">
        <ele>96</ele>
        <time>2024-03-30T17:04:21.000Z</time>
      </trkpt>
      <trkpt lat="48.11333" lon="3.30957">
        <ele>96</ele>
        <time>2024-03-30T17:04:22.000Z</time>
      </trkpt>
      <trkpt lat="48.11335" lon="3.30958">
        <ele>96</ele>
        <time>2024-03-30T17:04:23.000Z</time>
      </trkpt>
      <trkpt lat="48.11336" lon="3.30959">
        <ele>96</ele>
        <time>2024-03-30T17:04:24.000Z</time>
      </trkpt>
      <trkpt lat="48.11337" lon="3.3096">
        <ele>95.9</ele>
        <time>2024-03-30T17:04:25.000Z</time>
      </trkpt>
      <trkpt lat="48.11338" lon="3.30961">
        <ele>95.9</ele>
        <time>2024-03-30T17:04:26.000Z</time>
      </trkpt>
      <trkpt lat="48.11339" lon="3.30961">
        <ele>95.9</ele>
        <time>2024-03-30T17:04:27.000Z</time>
      </trkpt>
      <trkpt lat="48.11339" lon="3.30961">
        <ele>95.9</ele>
        <time>2024-03-30T17:04:28.000Z</time>
      </trkpt>
      <trkpt lat="48.11341" lon="3.30962">
        <ele>95.9</ele>
        <time>2024-03-30T17:04:29.000Z</time>
      </trkpt>
      <trkpt lat="48.11343" lon="3.30962">
        <ele>95.9</ele>
        <time>2024-03-30T17:04:30.000Z</time>
      </trkpt>
      <trkpt lat="48.11345" lon="3.30963">
        <ele>95.9</ele>
        <time>2024-03-30T17:04:31.000Z</time>
      </trkpt>
      <trkpt lat="48.11348" lon="3.30963">
        <ele>95.8</ele>
        <time>2024-03-30T17:04:33.000Z</time>
      </trkpt>
      <trkpt lat="48.11351" lon="3.30964">
        <ele>95.8</ele>
        <time>2024-03-30T17:04:34.000Z</time>
      </trkpt>
      <trkpt lat="48.11357" lon="3.30966">
        <ele>95.8</ele>
        <time>2024-03-30T17:04:37.000Z</time>
      </trkpt>
      <trkpt lat="48.11364" lon="3.30969">
        <ele>95.8</ele>
        <time>2024-03-30T17:04:40.000Z</time>
      </trkpt>
      <trkpt lat="48.11369" lon="3.30971">
        <ele>95.7</ele>
        <time>2024-03-30T17:04:42.000Z</time>
      </trkpt>
      <trkpt lat="48.11371" lon="3.30972">
        <ele>95.6</ele>
        <time>2024-03-30T17:04:43.000Z</time>
      </trkpt>
      <trkpt lat="48.11372" lon="3.30973">
        <ele>95.6</ele>
        <time>2024-03-30T17:04:44.000Z</time>
      </trkpt>
      <trkpt lat="48.11373" lon="3.30975">
        <ele>95.6</ele>
        <time>2024-03-30T17:04:45.000Z</time>
      </trkpt>
      <trkpt lat="48.11374" lon="3.30977">
        <ele>95.5</ele>
        <time>2024-03-30T17:04:46.000Z</time>
      </trkpt>
      <trkpt lat="48.11374" lon="3.30977">
        <ele>95.5</ele>
        <time>2024-03-30T17:04:47.000Z</time>
      </trkpt>
      <trkpt lat="48.11374" lon="3.30977">
        <ele>95.5</ele>
        <time>2024-03-30T17:04:49.000Z</time>
      </trkpt>
      <trkpt lat="48.11377" lon="3.30983">
        <ele>95.4</ele>
        <time>2024-03-30T17:04:53.000Z</time>
      </trkpt>
      <trkpt lat="48.11378" lon="3.30985">
        <ele>95.4</ele>
        <time>2024-03-30T17:04:54.000Z</time>
      </trkpt>
      <trkpt lat="48.11378" lon="3.30986">
        <ele>95.4</ele>
        <time>2024-03-30T17:04:55.000Z</time>
      </trkpt>
      <trkpt lat="48.11378" lon="3.30988">
        <ele>95.4</ele>
        <time>2024-03-30T17:04:56.000Z</time>
      </trkpt>
      <trkpt lat="48.11378" lon="3.3099">
        <ele>95.4</ele>
        <time>2024-03-30T17:04:57.000Z</time>
      </trkpt>
      <trkpt lat="48.11377" lon="3.30991">
        <ele>95.4</ele>
        <time>2024-03-30T17:04:58.000Z</time>
      </trkpt>
      <trkpt lat="48.11377" lon="3.30992">
        <ele>95.4</ele>
        <time>2024-03-30T17:04:59.000Z</time>
      </trkpt>
      <trkpt lat="48.11377" lon="3.30992">
        <ele>95.4</ele>
        <time>2024-03-30T17:05:00.000Z</time>
      </trkpt>
      <trkpt lat="48.11377" lon="3.30993">
        <ele>95.4</ele>
        <time>2024-03-30T17:05:01.000Z</time>
      </trkpt>
      <trkpt lat="48.11378" lon="3.30994">
        <ele>95.4</ele>
        <time>2024-03-30T17:05:02.000Z</time>
      </trkpt>
      <trkpt lat="48.11378" lon="3.30994">
        <ele>95.4</ele>
        <time>2024-03-30T17:05:03.000Z</time>
      </trkpt>
      <trkpt lat="48.11379" lon="3.30996">
        <ele>95.4</ele>
        <time>2024-03-30T17:05:05.000Z</time>
      </trkpt>
      <trkpt lat="48.11381" lon="3.31003">
        <ele>95.4</ele>
        <time>2024-03-30T17:05:07.000Z</time>
      </trkpt>
      <trkpt lat="48.11382" lon="3.31005">
        <ele>95.4</ele>
        <time>2024-03-30T17:05:08.000Z</time>
      </trkpt>
      <trkpt lat="48.11382" lon="3.31008">
        <ele>95.5</ele>
        <time>2024-03-30T17:05:09.000Z</time>
      </trkpt>
      <trkpt lat="48.11383" lon="3.31011">
        <ele>95.6</ele>
        <time>2024-03-30T17:05:10.000Z</time>
      </trkpt>
      <trkpt lat="48.11383" lon="3.31014">
        <ele>95.7</ele>
        <time>2024-03-30T17:05:11.000Z</time>
      </trkpt>
      <trkpt lat="48.11383" lon="3.31016">
        <ele>95.8</ele>
        <time>2024-03-30T17:05:12.000Z</time>
      </trkpt>
      <trkpt lat="48.11383" lon="3.31019">
        <ele>95.9</ele>
        <time>2024-03-30T17:05:13.000Z</time>
      </trkpt>
      <trkpt lat="48.11384" lon="3.31022">
        <ele>96</ele>
        <time>2024-03-30T17:05:14.000Z</time>
      </trkpt>
      <trkpt lat="48.11384" lon="3.31027">
        <ele>96.1</ele>
        <time>2024-03-30T17:05:16.000Z</time>
      </trkpt>
      <trkpt lat="48.11384" lon="3.31029">
        <ele>96.2</ele>
        <time>2024-03-30T17:05:17.000Z</time>
      </trkpt>
      <trkpt lat="48.11384" lon="3.31031">
        <ele>96.3</ele>
        <time>2024-03-30T17:05:18.000Z</time>
      </trkpt>
      <trkpt lat="48.11384" lon="3.31033">
        <ele>96.4</ele>
        <time>2024-03-30T17:05:19.000Z</time>
      </trkpt>
      <trkpt lat="48.11385" lon="3.31037">
        <ele>96.5</ele>
        <time>2024-03-30T17:05:20.000Z</time>
      </trkpt>
      <trkpt lat="48.11385" lon="3.31041">
        <ele>96.6</ele>
        <time>2024-03-30T17:05:22.000Z</time>
      </trkpt>
      <trkpt lat="48.11384" lon="3.31042">
        <ele>96.7</ele>
        <time>2024-03-30T17:05:23.000Z</time>
      </trkpt>
      <trkpt lat="48.11385" lon="3.31043">
        <ele>96.7</ele>
        <time>2024-03-30T17:05:24.000Z</time>
      </trkpt>
      <trkpt lat="48.11385" lon="3.31046">
        <ele>96.8</ele>
        <time>2024-03-30T17:05:25.000Z</time>
      </trkpt>
      <trkpt lat="48.11385" lon="3.31048">
        <ele>96.9</ele>
        <time>2024-03-30T17:05:26.000Z</time>
      </trkpt>
      <trkpt lat="48.11386" lon="3.3105">
        <ele>96.9</ele>
        <time>2024-03-30T17:05:27.000Z</time>
      </trkpt>
      <trkpt lat="48.11386" lon="3.31051">
        <ele>96.9</ele>
        <time>2024-03-30T17:05:28.000Z</time>
      </trkpt>
      <trkpt lat="48.11387" lon="3.31052">
        <ele>96.9</ele>
        <time>2024-03-30T17:05:29.000Z</time>
      </trkpt>
      <trkpt lat="48.11389" lon="3.31059">
        <ele>97.1</ele>
        <time>2024-03-30T17:05:31.000Z</time>
      </trkpt>
      <trkpt lat="48.11389" lon="3.3106">
        <ele>97.2</ele>
        <time>2024-03-30T17:05:32.000Z</time>
      </trkpt>
      <trkpt lat="48.1139" lon="3.31063">
        <ele>97.3</ele>
        <time>2024-03-30T17:05:33.000Z</time>
      </trkpt>
      <trkpt lat="48.1139" lon="3.31065">
        <ele>97.3</ele>
        <time>2024-03-30T17:05:34.000Z</time>
      </trkpt>
      <trkpt lat="48.1139" lon="3.31069">
        <ele>97.5</ele>
        <time>2024-03-30T17:05:35.000Z</time>
      </trkpt>
      <trkpt lat="48.1139" lon="3.31071">
        <ele>97.5</ele>
        <time>2024-03-30T17:05:36.000Z</time>
      </trkpt>
      <trkpt lat="48.1139" lon="3.31073">
        <ele>97.6</ele>
        <time>2024-03-30T17:05:37.000Z</time>
      </trkpt>
      <trkpt lat="48.1139" lon="3.31076">
        <ele>97.7</ele>
        <time>2024-03-30T17:05:38.000Z</time>
      </trkpt>
      <trkpt lat="48.11389" lon="3.31081">
        <ele>97.9</ele>
        <time>2024-03-30T17:05:40.000Z</time>
      </trkpt>
      <trkpt lat="48.11388" lon="3.31086">
        <ele>98.1</ele>
        <time>2024-03-30T17:05:42.000Z</time>
      </trkpt>
      <trkpt lat="48.11388" lon="3.3109">
        <ele>98.2</ele>
        <time>2024-03-30T17:05:43.000Z</time>
      </trkpt>
      <trkpt lat="48.11387" lon="3.31091">
        <ele>98.3</ele>
        <time>2024-03-30T17:05:44.000Z</time>
      </trkpt>
      <trkpt lat="48.11386" lon="3.31093">
        <ele>98.3</ele>
        <time>2024-03-30T17:05:45.000Z</time>
      </trkpt>
      <trkpt lat="48.11386" lon="3.31095">
        <ele>98.4</ele>
        <time>2024-03-30T17:05:46.000Z</time>
      </trkpt>
      <trkpt lat="48.11386" lon="3.31098">
        <ele>98.5</ele>
        <time>2024-03-30T17:05:47.000Z</time>
      </trkpt>
      <trkpt lat="48.11388" lon="3.31102">
        <ele>98.7</ele>
        <time>2024-03-30T17:05:48.000Z</time>
      </trkpt>
      <trkpt lat="48.11389" lon="3.31106">
        <ele>98.8</ele>
        <time>2024-03-30T17:05:49.000Z</time>
      </trkpt>
      <trkpt lat="48.1139" lon="3.3111">
        <ele>98.9</ele>
        <time>2024-03-30T17:05:50.000Z</time>
      </trkpt>
      <trkpt lat="48.11389" lon="3.31115">
        <ele>99</ele>
        <time>2024-03-30T17:05:52.000Z</time>
      </trkpt>
      <trkpt lat="48.11388" lon="3.31115">
        <ele>99</ele>
        <time>2024-03-30T17:05:53.000Z</time>
      </trkpt>
      <trkpt lat="48.11388" lon="3.31115">
        <ele>99</ele>
        <time>2024-03-30T17:05:54.000Z</time>
      </trkpt>
      <trkpt lat="48.11388" lon="3.31116">
        <ele>99</ele>
        <time>2024-03-30T17:05:55.000Z</time>
      </trkpt>
      <trkpt lat="48.11389" lon="3.31118">
        <ele>99</ele>
        <time>2024-03-30T17:05:56.000Z</time>
      </trkpt>
      <trkpt lat="48.11391" lon="3.3112">
        <ele>98.9</ele>
        <time>2024-03-30T17:05:58.000Z</time>
      </trkpt>
      <trkpt lat="48.11392" lon="3.31123">
        <ele>98.9</ele>
        <time>2024-03-30T17:06:00.000Z</time>
      </trkpt>
      <trkpt lat="48.11392" lon="3.31127">
        <ele>99</ele>
        <time>2024-03-30T17:06:02.000Z</time>
      </trkpt>
      <trkpt lat="48.11392" lon="3.31129">
        <ele>99</ele>
        <time>2024-03-30T17:06:03.000Z</time>
      </trkpt>
      <trkpt lat="48.11392" lon="3.31129">
        <ele>99</ele>
        <time>2024-03-30T17:06:04.000Z</time>
      </trkpt>
      <trkpt lat="48.11392" lon="3.31129">
        <ele>99</ele>
        <time>2024-03-30T17:06:05.000Z</time>
      </trkpt>
      <trkpt lat="48.11393" lon="3.3113">
        <ele>99</ele>
        <time>2024-03-30T17:06:06.000Z</time>
      </trkpt>
      <trkpt lat="48.11393" lon="3.31131">
        <ele>99</ele>
        <time>2024-03-30T17:06:07.000Z</time>
      </trkpt>
      <trkpt lat="48.11394" lon="3.31134">
        <ele>99</ele>
        <time>2024-03-30T17:06:08.000Z</time>
      </trkpt>
      <trkpt lat="48.11393" lon="3.31137">
        <ele>99</ele>
        <time>2024-03-30T17:06:09.000Z</time>
      </trkpt>
      <trkpt lat="48.11392" lon="3.3114">
        <ele>99</ele>
        <time>2024-03-30T17:06:10.000Z</time>
      </trkpt>
      <trkpt lat="48.11392" lon="3.31142">
        <ele>99.1</ele>
        <time>2024-03-30T17:06:11.000Z</time>
      </trkpt>
      <trkpt lat="48.11392" lon="3.31144">
        <ele>99.2</ele>
        <time>2024-03-30T17:06:12.000Z</time>
      </trkpt>
      <trkpt lat="48.11391" lon="3.31147">
        <ele>99.3</ele>
        <time>2024-03-30T17:06:13.000Z</time>
      </trkpt>
      <trkpt lat="48.11391" lon="3.31149">
        <ele>99.4</ele>
        <time>2024-03-30T17:06:14.000Z</time>
      </trkpt>
      <trkpt lat="48.11391" lon="3.31152">
        <ele>99.5</ele>
        <time>2024-03-30T17:06:15.000Z</time>
      </trkpt>
      <trkpt lat="48.1139" lon="3.31155">
        <ele>99.6</ele>
        <time>2024-03-30T17:06:16.000Z</time>
      </trkpt>
      <trkpt lat="48.11389" lon="3.31158">
        <ele>99.7</ele>
        <time>2024-03-30T17:06:17.000Z</time>
      </trkpt>
      <trkpt lat="48.11388" lon="3.31161">
        <ele>99.8</ele>
        <time>2024-03-30T17:06:18.000Z</time>
      </trkpt>
      <trkpt lat="48.11388" lon="3.31161">
        <ele>99.8</ele>
        <time>2024-03-30T17:06:19.000Z</time>
      </trkpt>
      <trkpt lat="48.11388" lon="3.31162">
        <ele>99.8</ele>
        <time>2024-03-30T17:06:20.000Z</time>
      </trkpt>
      <trkpt lat="48.11386" lon="3.31164">
        <ele>99.9</ele>
        <time>2024-03-30T17:06:21.000Z</time>
      </trkpt>
      <trkpt lat="48.11385" lon="3.31165">
        <ele>99.9</ele>
        <time>2024-03-30T17:06:22.000Z</time>
      </trkpt>
      <trkpt lat="48.11383" lon="3.31166">
        <ele>100</ele>
        <time>2024-03-30T17:06:23.000Z</time>
      </trkpt>
      <trkpt lat="48.11382" lon="3.31167">
        <ele>100</ele>
        <time>2024-03-30T17:06:24.000Z</time>
      </trkpt>
      <trkpt lat="48.11381" lon="3.31168">
        <ele>100</ele>
        <time>2024-03-30T17:06:25.000Z</time>
      </trkpt>
      <trkpt lat="48.1138" lon="3.31168">
        <ele>100</ele>
        <time>2024-03-30T17:06:26.000Z</time>
      </trkpt>
      <trkpt lat="48.11378" lon="3.31168">
        <ele>100</ele>
        <time>2024-03-30T17:06:27.000Z</time>
      </trkpt>
      <trkpt lat="48.11376" lon="3.31167">
        <ele>100</ele>
        <time>2024-03-30T17:06:28.000Z</time>
      </trkpt>
      <trkpt lat="48.11369" lon="3.31164">
        <ele>100</ele>
        <time>2024-03-30T17:06:31.000Z</time>
      </trkpt>
      <trkpt lat="48.11367" lon="3.31163">
        <ele>100</ele>
        <time>2024-03-30T17:06:32.000Z</time>
      </trkpt>
      <trkpt lat="48.11365" lon="3.31161">
        <ele>100</ele>
        <time>2024-03-30T17:06:33.000Z</time>
      </trkpt>
      <trkpt lat="48.11363" lon="3.31161">
        <ele>100</ele>
        <time>2024-03-30T17:06:34.000Z</time>
      </trkpt>
      <trkpt lat="48.11361" lon="3.3116">
        <ele>100</ele>
        <time>2024-03-30T17:06:35.000Z</time>
      </trkpt>
      <trkpt lat="48.11359" lon="3.31159">
        <ele>100.1</ele>
        <time>2024-03-30T17:06:36.000Z</time>
      </trkpt>
      <trkpt lat="48.11351" lon="3.31158">
        <ele>100.3</ele>
        <time>2024-03-30T17:06:39.000Z</time>
      </trkpt>
      <trkpt lat="48.11345" lon="3.31161">
        <ele>100.5</ele>
        <time>2024-03-30T17:06:41.000Z</time>
      </trkpt>
      <trkpt lat="48.11342" lon="3.31164">
        <ele>100.6</ele>
        <time>2024-03-30T17:06:42.000Z</time>
      </trkpt>
      <trkpt lat="48.1134" lon="3.31166">
        <ele>100.7</ele>
        <time>2024-03-30T17:06:43.000Z</time>
      </trkpt>
      <trkpt lat="48.11339" lon="3.31168">
        <ele>100.8</ele>
        <time>2024-03-30T17:06:44.000Z</time>
      </trkpt>
      <trkpt lat="48.11337" lon="3.31171">
        <ele>101</ele>
        <time>2024-03-30T17:06:45.000Z</time>
      </trkpt>
      <trkpt lat="48.11336" lon="3.31175">
        <ele>101.2</ele>
        <time>2024-03-30T17:06:46.000Z</time>
      </trkpt>
      <trkpt lat="48.11333" lon="3.31177">
        <ele>101.4</ele>
        <time>2024-03-30T17:06:47.000Z</time>
      </trkpt>
      <trkpt lat="48.11331" lon="3.31179">
        <ele>101.5</ele>
        <time>2024-03-30T17:06:48.000Z</time>
      </trkpt>
      <trkpt lat="48.11332" lon="3.31181">
        <ele>101.6</ele>
        <time>2024-03-30T17:06:49.000Z</time>
      </trkpt>
      <trkpt lat="48.11331" lon="3.31183">
        <ele>101.7</ele>
        <time>2024-03-30T17:06:50.000Z</time>
      </trkpt>
      <trkpt lat="48.1133" lon="3.31186">
        <ele>101.8</ele>
        <time>2024-03-30T17:06:51.000Z</time>
      </trkpt>
      <trkpt lat="48.1133" lon="3.31189">
        <ele>101.9</ele>
        <time>2024-03-30T17:06:52.000Z</time>
      </trkpt>
      <trkpt lat="48.1133" lon="3.31191">
        <ele>102</ele>
        <time>2024-03-30T17:06:53.000Z</time>
      </trkpt>
      <trkpt lat="48.11331" lon="3.31193">
        <ele>102</ele>
        <time>2024-03-30T17:06:54.000Z</time>
      </trkpt>
      <trkpt lat="48.11332" lon="3.31196">
        <ele>102.1</ele>
        <time>2024-03-30T17:06:55.000Z</time>
      </trkpt>
      <trkpt lat="48.11331" lon="3.31198">
        <ele>102.2</ele>
        <time>2024-03-30T17:06:56.000Z</time>
      </trkpt>
      <trkpt lat="48.11331" lon="3.312">
        <ele>102.3</ele>
        <time>2024-03-30T17:06:57.000Z</time>
      </trkpt>
      <trkpt lat="48.1133" lon="3.31201">
        <ele>102.3</ele>
        <time>2024-03-30T17:06:58.000Z</time>
      </trkpt>
      <trkpt lat="48.11331" lon="3.31203">
        <ele>102.4</ele>
        <time>2024-03-30T17:06:59.000Z</time>
      </trkpt>
      <trkpt lat="48.11333" lon="3.31206">
        <ele>102.4</ele>
        <time>2024-03-30T17:07:00.000Z</time>
      </trkpt>
      <trkpt lat="48.11334" lon="3.31208">
        <ele>102.5</ele>
        <time>2024-03-30T17:07:01.000Z</time>
      </trkpt>
      <trkpt lat="48.11335" lon="3.3121">
        <ele>102.5</ele>
        <time>2024-03-30T17:07:02.000Z</time>
      </trkpt>
      <trkpt lat="48.11335" lon="3.31212">
        <ele>102.6</ele>
        <time>2024-03-30T17:07:03.000Z</time>
      </trkpt>
      <trkpt lat="48.11335" lon="3.31213">
        <ele>102.6</ele>
        <time>2024-03-30T17:07:04.000Z</time>
      </trkpt>
      <trkpt lat="48.11335" lon="3.31215">
        <ele>102.7</ele>
        <time>2024-03-30T17:07:05.000Z</time>
      </trkpt>
      <trkpt lat="48.11335" lon="3.31217">
        <ele>102.8</ele>
        <time>2024-03-30T17:07:06.000Z</time>
      </trkpt>
      <trkpt lat="48.11336" lon="3.31219">
        <ele>102.8</ele>
        <time>2024-03-30T17:07:07.000Z</time>
      </trkpt>
      <trkpt lat="48.11341" lon="3.31219">
        <ele>102.6</ele>
        <time>2024-03-30T17:07:09.000Z</time>
      </trkpt>
      <trkpt lat="48.11345" lon="3.3122">
        <ele>102.5</ele>
        <time>2024-03-30T17:07:11.000Z</time>
      </trkpt>
      <trkpt lat="48.11346" lon="3.31219">
        <ele>102.4</ele>
        <time>2024-03-30T17:07:12.000Z</time>
      </trkpt>
      <trkpt lat="48.11348" lon="3.31219">
        <ele>102.4</ele>
        <time>2024-03-30T17:07:13.000Z</time>
      </trkpt>
      <trkpt lat="48.11353" lon="3.31219">
        <ele>102.2</ele>
        <time>2024-03-30T17:07:15.000Z</time>
      </trkpt>
      <trkpt lat="48.11355" lon="3.3122">
        <ele>102.1</ele>
        <time>2024-03-30T17:07:16.000Z</time>
      </trkpt>
      <trkpt lat="48.11355" lon="3.31221">
        <ele>102.2</ele>
        <time>2024-03-30T17:07:17.000Z</time>
      </trkpt>
      <trkpt lat="48.11357" lon="3.31221">
        <ele>102.1</ele>
        <time>2024-03-30T17:07:18.000Z</time>
      </trkpt>
      <trkpt lat="48.11356" lon="3.31221">
        <ele>102.1</ele>
        <time>2024-03-30T17:07:19.000Z</time>
      </trkpt>
      <trkpt lat="48.11358" lon="3.31224">
        <ele>102.2</ele>
        <time>2024-03-30T17:07:20.000Z</time>
      </trkpt>
      <trkpt lat="48.1136" lon="3.31227">
        <ele>102.2</ele>
        <time>2024-03-30T17:07:21.000Z</time>
      </trkpt>
      <trkpt lat="48.11359" lon="3.3123">
        <ele>102.4</ele>
        <time>2024-03-30T17:07:22.000Z</time>
      </trkpt>
      <trkpt lat="48.11359" lon="3.31234">
        <ele>102.5</ele>
        <time>2024-03-30T17:07:23.000Z</time>
      </trkpt>
      <trkpt lat="48.11359" lon="3.31237">
        <ele>102.6</ele>
        <time>2024-03-30T17:07:24.000Z</time>
      </trkpt>
      <trkpt lat="48.1136" lon="3.31239">
        <ele>102.6</ele>
        <time>2024-03-30T17:07:25.000Z</time>
      </trkpt>
      <trkpt lat="48.1136" lon="3.31241">
        <ele>102.7</ele>
        <time>2024-03-30T17:07:26.000Z</time>
      </trkpt>
      <trkpt lat="48.1136" lon="3.31242">
        <ele>102.8</ele>
        <time>2024-03-30T17:07:27.000Z</time>
      </trkpt>
      <trkpt lat="48.1136" lon="3.31245">
        <ele>102.9</ele>
        <time>2024-03-30T17:07:28.000Z</time>
      </trkpt>
      <trkpt lat="48.1136" lon="3.31248">
        <ele>103</ele>
        <time>2024-03-30T17:07:29.000Z</time>
      </trkpt>
      <trkpt lat="48.1136" lon="3.3126">
        <ele>103.4</ele>
        <time>2024-03-30T17:07:33.000Z</time>
      </trkpt>
      <trkpt lat="48.11361" lon="3.31264">
        <ele>103.5</ele>
        <time>2024-03-30T17:07:34.000Z</time>
      </trkpt>
      <trkpt lat="48.11361" lon="3.31266">
        <ele>103.6</ele>
        <time>2024-03-30T17:07:35.000Z</time>
      </trkpt>
      <trkpt lat="48.1136" lon="3.31268">
        <ele>103.7</ele>
        <time>2024-03-30T17:07:36.000Z</time>
      </trkpt>
      <trkpt lat="48.1136" lon="3.31269">
        <ele>103.7</ele>
        <time>2024-03-30T17:07:37.000Z</time>
      </trkpt>
      <trkpt lat="48.11359" lon="3.31274">
        <ele>103.9</ele>
        <time>2024-03-30T17:07:38.000Z</time>
      </trkpt>
      <trkpt lat="48.1136" lon="3.31277">
        <ele>104</ele>
        <time>2024-03-30T17:07:39.000Z</time>
      </trkpt>
      <trkpt lat="48.1136" lon="3.3128">
        <ele>104.1</ele>
        <time>2024-03-30T17:07:40.000Z</time>
      </trkpt>
      <trkpt lat="48.11361" lon="3.31283">
        <ele>104.2</ele>
        <time>2024-03-30T17:07:41.000Z</time>
      </trkpt>
      <trkpt lat="48.11361" lon="3.31286">
        <ele>104.3</ele>
        <time>2024-03-30T17:07:42.000Z</time>
      </trkpt>
      <trkpt lat="48.11361" lon="3.31289">
        <ele>104.4</ele>
        <time>2024-03-30T17:07:43.000Z</time>
      </trkpt>
      <trkpt lat="48.11361" lon="3.3129">
        <ele>104.4</ele>
        <time>2024-03-30T17:07:44.000Z</time>
      </trkpt>
      <trkpt lat="48.11361" lon="3.31292">
        <ele>104.5</ele>
        <time>2024-03-30T17:07:45.000Z</time>
      </trkpt>
      <trkpt lat="48.11361" lon="3.31293">
        <ele>104.6</ele>
        <time>2024-03-30T17:07:46.000Z</time>
      </trkpt>
      <trkpt lat="48.11361" lon="3.31296">
        <ele>104.7</ele>
        <time>2024-03-30T17:07:47.000Z</time>
      </trkpt>
      <trkpt lat="48.11361" lon="3.31298">
        <ele>104.7</ele>
        <time>2024-03-30T17:07:48.000Z</time>
      </trkpt>
      <trkpt lat="48.11361" lon="3.313">
        <ele>104.8</ele>
        <time>2024-03-30T17:07:49.000Z</time>
      </trkpt>
      <trkpt lat="48.1136" lon="3.31302">
        <ele>104.9</ele>
        <time>2024-03-30T17:07:50.000Z</time>
      </trkpt>
      <trkpt lat="48.11361" lon="3.31308">
        <ele>105.1</ele>
        <time>2024-03-30T17:07:51.000Z</time>
      </trkpt>
      <trkpt lat="48.11362" lon="3.31309">
        <ele>105.1</ele>
        <time>2024-03-30T17:07:52.000Z</time>
      </trkpt>
      <trkpt lat="48.11363" lon="3.31312">
        <ele>105.2</ele>
        <time>2024-03-30T17:07:53.000Z</time>
      </trkpt>
      <trkpt lat="48.11364" lon="3.31313">
        <ele>105.2</ele>
        <time>2024-03-30T17:07:54.000Z</time>
      </trkpt>
      <trkpt lat="48.11364" lon="3.31314">
        <ele>105.2</ele>
        <time>2024-03-30T17:07:55.000Z</time>
      </trkpt>
      <trkpt lat="48.11364" lon="3.31314">
        <ele>105.2</ele>
        <time>2024-03-30T17:07:56.000Z</time>
      </trkpt>
      <trkpt lat="48.11364" lon="3.31315">
        <ele>105.3</ele>
        <time>2024-03-30T17:07:57.000Z</time>
      </trkpt>
      <trkpt lat="48.11364" lon="3.31316">
        <ele>105.3</ele>
        <time>2024-03-30T17:07:58.000Z</time>
      </trkpt>
      <trkpt lat="48.11364" lon="3.31317">
        <ele>105.4</ele>
        <time>2024-03-30T17:07:59.000Z</time>
      </trkpt>
      <trkpt lat="48.11364" lon="3.31318">
        <ele>105.4</ele>
        <time>2024-03-30T17:08:00.000Z</time>
      </trkpt>
      <trkpt lat="48.11364" lon="3.31319">
        <ele>105.4</ele>
        <time>2024-03-30T17:08:01.000Z</time>
      </trkpt>
      <trkpt lat="48.11363" lon="3.3132">
        <ele>105.5</ele>
        <time>2024-03-30T17:08:02.000Z</time>
      </trkpt>
      <trkpt lat="48.11363" lon="3.31323">
        <ele>105.6</ele>
        <time>2024-03-30T17:08:03.000Z</time>
      </trkpt>
      <trkpt lat="48.11362" lon="3.31325">
        <ele>105.7</ele>
        <time>2024-03-30T17:08:04.000Z</time>
      </trkpt>
      <trkpt lat="48.11362" lon="3.31326">
        <ele>105.7</ele>
        <time>2024-03-30T17:08:05.000Z</time>
      </trkpt>
      <trkpt lat="48.11362" lon="3.31329">
        <ele>105.8</ele>
        <time>2024-03-30T17:08:06.000Z</time>
      </trkpt>
      <trkpt lat="48.11363" lon="3.31332">
        <ele>105.9</ele>
        <time>2024-03-30T17:08:07.000Z</time>
      </trkpt>
      <trkpt lat="48.11363" lon="3.31333">
        <ele>106</ele>
        <time>2024-03-30T17:08:08.000Z</time>
      </trkpt>
      <trkpt lat="48.11363" lon="3.31334">
        <ele>106</ele>
        <time>2024-03-30T17:08:09.000Z</time>
      </trkpt>
      <trkpt lat="48.11363" lon="3.31335">
        <ele>106.1</ele>
        <time>2024-03-30T17:08:10.000Z</time>
      </trkpt>
      <trkpt lat="48.11364" lon="3.31335">
        <ele>106.1</ele>
        <time>2024-03-30T17:08:11.000Z</time>
      </trkpt>
      <trkpt lat="48.11364" lon="3.31336">
        <ele>106.2</ele>
        <time>2024-03-30T17:08:12.000Z</time>
      </trkpt>
      <trkpt lat="48.11364" lon="3.31337">
        <ele>106.3</ele>
        <time>2024-03-30T17:08:13.000Z</time>
      </trkpt>
      <trkpt lat="48.11364" lon="3.31339">
        <ele>106.4</ele>
        <time>2024-03-30T17:08:14.000Z</time>
      </trkpt>
      <trkpt lat="48.11364" lon="3.3134">
        <ele>106.5</ele>
        <time>2024-03-30T17:08:15.000Z</time>
      </trkpt>
      <trkpt lat="48.11363" lon="3.31342">
        <ele>106.6</ele>
        <time>2024-03-30T17:08:16.000Z</time>
      </trkpt>
      <trkpt lat="48.11362" lon="3.31345">
        <ele>106.8</ele>
        <time>2024-03-30T17:08:17.000Z</time>
      </trkpt>
      <trkpt lat="48.11362" lon="3.31346">
        <ele>106.9</ele>
        <time>2024-03-30T17:08:18.000Z</time>
      </trkpt>
      <trkpt lat="48.11362" lon="3.31349">
        <ele>107.1</ele>
        <time>2024-03-30T17:08:19.000Z</time>
      </trkpt>
      <trkpt lat="48.11362" lon="3.31351">
        <ele>107.3</ele>
        <time>2024-03-30T17:08:20.000Z</time>
      </trkpt>
      <trkpt lat="48.11361" lon="3.31352">
        <ele>107.3</ele>
        <time>2024-03-30T17:08:21.000Z</time>
      </trkpt>
      <trkpt lat="48.11361" lon="3.31354">
        <ele>107.5</ele>
        <time>2024-03-30T17:08:22.000Z</time>
      </trkpt>
      <trkpt lat="48.11361" lon="3.31355">
        <ele>107.6</ele>
        <time>2024-03-30T17:08:23.000Z</time>
      </trkpt>
      <trkpt lat="48.1136" lon="3.31356">
        <ele>107.7</ele>
        <time>2024-03-30T17:08:24.000Z</time>
      </trkpt>
      <trkpt lat="48.11359" lon="3.31359">
        <ele>107.9</ele>
        <time>2024-03-30T17:08:26.000Z</time>
      </trkpt>
      <trkpt lat="48.11358" lon="3.31359">
        <ele>108</ele>
        <time>2024-03-30T17:08:27.000Z</time>
      </trkpt>
      <trkpt lat="48.11359" lon="3.31361">
        <ele>108.1</ele>
        <time>2024-03-30T17:08:28.000Z</time>
      </trkpt>
      <trkpt lat="48.11358" lon="3.31362">
        <ele>108.1</ele>
        <time>2024-03-30T17:08:29.000Z</time>
      </trkpt>
      <trkpt lat="48.11359" lon="3.31363">
        <ele>108.1</ele>
        <time>2024-03-30T17:08:30.000Z</time>
      </trkpt>
      <trkpt lat="48.11359" lon="3.31363">
        <ele>108.1</ele>
        <time>2024-03-30T17:08:31.000Z</time>
      </trkpt>
      <trkpt lat="48.11359" lon="3.31364">
        <ele>108.2</ele>
        <time>2024-03-30T17:08:32.000Z</time>
      </trkpt>
      <trkpt lat="48.11358" lon="3.31367">
        <ele>108.3</ele>
        <time>2024-03-30T17:08:33.000Z</time>
      </trkpt>
      <trkpt lat="48.11358" lon="3.31368">
        <ele>108.4</ele>
        <time>2024-03-30T17:08:34.000Z</time>
      </trkpt>
      <trkpt lat="48.11355" lon="3.31372">
        <ele>108.7</ele>
        <time>2024-03-30T17:08:36.000Z</time>
      </trkpt>
      <trkpt lat="48.11355" lon="3.31374">
        <ele>108.8</ele>
        <time>2024-03-30T17:08:37.000Z</time>
      </trkpt>
      <trkpt lat="48.11355" lon="3.31376">
        <ele>108.9</ele>
        <time>2024-03-30T17:08:38.000Z</time>
      </trkpt>
      <trkpt lat="48.11355" lon="3.31377">
        <ele>108.9</ele>
        <time>2024-03-30T17:08:39.000Z</time>
      </trkpt>
      <trkpt lat="48.11355" lon="3.31377">
        <ele>108.9</ele>
        <time>2024-03-30T17:08:40.000Z</time>
      </trkpt>
      <trkpt lat="48.11356" lon="3.31379">
        <ele>108.9</ele>
        <time>2024-03-30T17:08:42.000Z</time>
      </trkpt>
      <trkpt lat="48.11356" lon="3.31379">
        <ele>108.9</ele>
        <time>2024-03-30T17:08:43.000Z</time>
      </trkpt>
      <trkpt lat="48.11356" lon="3.3138">
        <ele>109</ele>
        <time>2024-03-30T17:08:44.000Z</time>
      </trkpt>
      <trkpt lat="48.11357" lon="3.31382">
        <ele>109</ele>
        <time>2024-03-30T17:08:45.000Z</time>
      </trkpt>
      <trkpt lat="48.11357" lon="3.31384">
        <ele>109.1</ele>
        <time>2024-03-30T17:08:46.000Z</time>
      </trkpt>
      <trkpt lat="48.11357" lon="3.31386">
        <ele>109.2</ele>
        <time>2024-03-30T17:08:47.000Z</time>
      </trkpt>
      <trkpt lat="48.11358" lon="3.31387">
        <ele>109.1</ele>
        <time>2024-03-30T17:08:48.000Z</time>
      </trkpt>
      <trkpt lat="48.11358" lon="3.31389">
        <ele>109.2</ele>
        <time>2024-03-30T17:08:49.000Z</time>
      </trkpt>
      <trkpt lat="48.11359" lon="3.31392">
        <ele>109.4</ele>
        <time>2024-03-30T17:08:50.000Z</time>
      </trkpt>
      <trkpt lat="48.11359" lon="3.31392">
        <ele>109.4</ele>
        <time>2024-03-30T17:08:51.000Z</time>
      </trkpt>
      <trkpt lat="48.11359" lon="3.31392">
        <ele>109.4</ele>
        <time>2024-03-30T17:08:52.000Z</time>
      </trkpt>
      <trkpt lat="48.11359" lon="3.31392">
        <ele>109.4</ele>
        <time>2024-03-30T17:09:00.000Z</time>
      </trkpt>
      <trkpt lat="48.11359" lon="3.31392">
        <ele>109.4</ele>
        <time>2024-03-30T17:09:21.000Z</time>
      </trkpt>
      <trkpt lat="48.11361" lon="3.31394">
        <ele>109.4</ele>
        <time>2024-03-30T17:09:45.000Z</time>
      </trkpt>
      <trkpt lat="48.11362" lon="3.31395">
        <ele>109.4</ele>
        <time>2024-03-30T17:09:46.000Z</time>
      </trkpt>
      <trkpt lat="48.11363" lon="3.31397">
        <ele>109.5</ele>
        <time>2024-03-30T17:09:47.000Z</time>
      </trkpt>
      <trkpt lat="48.11364" lon="3.31398">
        <ele>109.6</ele>
        <time>2024-03-30T17:09:48.000Z</time>
      </trkpt>
      <trkpt lat="48.11366" lon="3.31401">
        <ele>109.7</ele>
        <time>2024-03-30T17:09:50.000Z</time>
      </trkpt>
      <trkpt lat="48.11367" lon="3.31402">
        <ele>109.7</ele>
        <time>2024-03-30T17:09:51.000Z</time>
      </trkpt>
      <trkpt lat="48.11375" lon="3.31415">
        <ele>110.4</ele>
        <time>2024-03-30T17:09:56.000Z</time>
      </trkpt>
      <trkpt lat="48.11377" lon="3.31418">
        <ele>110.5</ele>
        <time>2024-03-30T17:09:57.000Z</time>
      </trkpt>
      <trkpt lat="48.11378" lon="3.3142">
        <ele>110.6</ele>
        <time>2024-03-30T17:09:58.000Z</time>
      </trkpt>
      <trkpt lat="48.1138" lon="3.31422">
        <ele>110.6</ele>
        <time>2024-03-30T17:09:59.000Z</time>
      </trkpt>
      <trkpt lat="48.11381" lon="3.31424">
        <ele>110.6</ele>
        <time>2024-03-30T17:10:00.000Z</time>
      </trkpt>
      <trkpt lat="48.11388" lon="3.31434">
        <ele>110.7</ele>
        <time>2024-03-30T17:10:03.000Z</time>
      </trkpt>
      <trkpt lat="48.11389" lon="3.31436">
        <ele>110.7</ele>
        <time>2024-03-30T17:10:04.000Z</time>
      </trkpt>
      <trkpt lat="48.11392" lon="3.31441">
        <ele>110.8</ele>
        <time>2024-03-30T17:10:05.000Z</time>
      </trkpt>
      <trkpt lat="48.11394" lon="3.31444">
        <ele>110.8</ele>
        <time>2024-03-30T17:10:06.000Z</time>
      </trkpt>
      <trkpt lat="48.11398" lon="3.3145">
        <ele>111.1</ele>
        <time>2024-03-30T17:10:07.000Z</time>
      </trkpt>
      <trkpt lat="48.11404" lon="3.31456">
        <ele>111.3</ele>
        <time>2024-03-30T17:10:09.000Z</time>
      </trkpt>
      <trkpt lat="48.1141" lon="3.31466">
        <ele>111.8</ele>
        <time>2024-03-30T17:10:11.000Z</time>
      </trkpt>
      <trkpt lat="48.11412" lon="3.31469">
        <ele>111.9</ele>
        <time>2024-03-30T17:10:12.000Z</time>
      </trkpt>
      <trkpt lat="48.11415" lon="3.3147">
        <ele>111.9</ele>
        <time>2024-03-30T17:10:13.000Z</time>
      </trkpt>
      <trkpt lat="48.11418" lon="3.31474">
        <ele>112.1</ele>
        <time>2024-03-30T17:10:14.000Z</time>
      </trkpt>
      <trkpt lat="48.11419" lon="3.31476">
        <ele>112.3</ele>
        <time>2024-03-30T17:10:15.000Z</time>
      </trkpt>
      <trkpt lat="48.11421" lon="3.31478">
        <ele>112.4</ele>
        <time>2024-03-30T17:10:16.000Z</time>
      </trkpt>
      <trkpt lat="48.11422" lon="3.31478">
        <ele>112.4</ele>
        <time>2024-03-30T17:10:17.000Z</time>
      </trkpt>
      <trkpt lat="48.11424" lon="3.31479">
        <ele>112.5</ele>
        <time>2024-03-30T17:10:18.000Z</time>
      </trkpt>
      <trkpt lat="48.11425" lon="3.31481">
        <ele>112.6</ele>
        <time>2024-03-30T17:10:19.000Z</time>
      </trkpt>
      <trkpt lat="48.11427" lon="3.31483">
        <ele>112.8</ele>
        <time>2024-03-30T17:10:20.000Z</time>
      </trkpt>
      <trkpt lat="48.11427" lon="3.31485">
        <ele>112.9</ele>
        <time>2024-03-30T17:10:21.000Z</time>
      </trkpt>
      <trkpt lat="48.11427" lon="3.31486">
        <ele>113</ele>
        <time>2024-03-30T17:10:22.000Z</time>
      </trkpt>
      <trkpt lat="48.11428" lon="3.31487">
        <ele>113.1</ele>
        <time>2024-03-30T17:10:23.000Z</time>
      </trkpt>
      <trkpt lat="48.1143" lon="3.31488">
        <ele>113.1</ele>
        <time>2024-03-30T17:10:24.000Z</time>
      </trkpt>
      <trkpt lat="48.11431" lon="3.31489">
        <ele>113.2</ele>
        <time>2024-03-30T17:10:25.000Z</time>
      </trkpt>
      <trkpt lat="48.11432" lon="3.31491">
        <ele>113.4</ele>
        <time>2024-03-30T17:10:26.000Z</time>
      </trkpt>
      <trkpt lat="48.11434" lon="3.31492">
        <ele>113.4</ele>
        <time>2024-03-30T17:10:27.000Z</time>
      </trkpt>
      <trkpt lat="48.11435" lon="3.31494">
        <ele>113.6</ele>
        <time>2024-03-30T17:10:28.000Z</time>
      </trkpt>
      <trkpt lat="48.11436" lon="3.31495">
        <ele>113.6</ele>
        <time>2024-03-30T17:10:29.000Z</time>
      </trkpt>
      <trkpt lat="48.11437" lon="3.31496">
        <ele>113.7</ele>
        <time>2024-03-30T17:10:30.000Z</time>
      </trkpt>
      <trkpt lat="48.11438" lon="3.31497">
        <ele>113.8</ele>
        <time>2024-03-30T17:10:31.000Z</time>
      </trkpt>
      <trkpt lat="48.11439" lon="3.31498">
        <ele>113.9</ele>
        <time>2024-03-30T17:10:32.000Z</time>
      </trkpt>
      <trkpt lat="48.1144" lon="3.315">
        <ele>114</ele>
        <time>2024-03-30T17:10:33.000Z</time>
      </trkpt>
      <trkpt lat="48.11441" lon="3.31501">
        <ele>114.1</ele>
        <time>2024-03-30T17:10:34.000Z</time>
      </trkpt>
      <trkpt lat="48.11445" lon="3.31504">
        <ele>114.3</ele>
        <time>2024-03-30T17:10:37.000Z</time>
      </trkpt>
      <trkpt lat="48.11446" lon="3.31506">
        <ele>114.4</ele>
        <time>2024-03-30T17:10:38.000Z</time>
      </trkpt>
      <trkpt lat="48.11447" lon="3.31506">
        <ele>114.4</ele>
        <time>2024-03-30T17:10:39.000Z</time>
      </trkpt>
      <trkpt lat="48.11447" lon="3.31506">
        <ele>114.4</ele>
        <time>2024-03-30T17:10:40.000Z</time>
      </trkpt>
      <trkpt lat="48.11447" lon="3.31506">
        <ele>114.4</ele>
        <time>2024-03-30T17:10:43.000Z</time>
      </trkpt>
      <trkpt lat="48.11447" lon="3.31506">
        <ele>114.4</ele>
        <time>2024-03-30T17:10:45.000Z</time>
      </trkpt>
      <trkpt lat="48.11447" lon="3.31506">
        <ele>114.4</ele>
        <time>2024-03-30T17:10:53.000Z</time>
      </trkpt>
      <trkpt lat="48.11448" lon="3.31506">
        <ele>114.4</ele>
        <time>2024-03-30T17:11:10.000Z</time>
      </trkpt>
      <trkpt lat="48.1145" lon="3.31504">
        <ele>114.3</ele>
        <time>2024-03-30T17:11:12.000Z</time>
      </trkpt>
      <trkpt lat="48.11453" lon="3.31494">
        <ele>113.6</ele>
        <time>2024-03-30T17:11:15.000Z</time>
      </trkpt>
      <trkpt lat="48.11454" lon="3.3149">
        <ele>113.3</ele>
        <time>2024-03-30T17:11:16.000Z</time>
      </trkpt>
      <trkpt lat="48.11459" lon="3.31476">
        <ele>112.3</ele>
        <time>2024-03-30T17:11:19.000Z</time>
      </trkpt>
      <trkpt lat="48.11471" lon="3.31454">
        <ele>111.3</ele>
        <time>2024-03-30T17:11:24.000Z</time>
      </trkpt>
      <trkpt lat="48.11477" lon="3.31442">
        <ele>110.8</ele>
        <time>2024-03-30T17:11:26.000Z</time>
      </trkpt>
      <trkpt lat="48.11482" lon="3.31425">
        <ele>109.8</ele>
        <time>2024-03-30T17:11:29.000Z</time>
      </trkpt>
      <trkpt lat="48.11487" lon="3.31415">
        <ele>109.4</ele>
        <time>2024-03-30T17:11:31.000Z</time>
      </trkpt>
      <trkpt lat="48.11491" lon="3.31411">
        <ele>109.3</ele>
        <time>2024-03-30T17:11:32.000Z</time>
      </trkpt>
      <trkpt lat="48.11495" lon="3.31409">
        <ele>109.3</ele>
        <time>2024-03-30T17:11:33.000Z</time>
      </trkpt>
      <trkpt lat="48.11498" lon="3.31408">
        <ele>109.3</ele>
        <time>2024-03-30T17:11:34.000Z</time>
      </trkpt>
      <trkpt lat="48.11499" lon="3.31407">
        <ele>109.3</ele>
        <time>2024-03-30T17:11:35.000Z</time>
      </trkpt>
      <trkpt lat="48.115" lon="3.31406">
        <ele>109.2</ele>
        <time>2024-03-30T17:11:36.000Z</time>
      </trkpt>
      <trkpt lat="48.11502" lon="3.31408">
        <ele>109.3</ele>
        <time>2024-03-30T17:11:37.000Z</time>
      </trkpt>
      <trkpt lat="48.11504" lon="3.31408">
        <ele>109.1</ele>
        <time>2024-03-30T17:11:38.000Z</time>
      </trkpt>
      <trkpt lat="48.11507" lon="3.3141">
        <ele>109.1</ele>
        <time>2024-03-30T17:11:39.000Z</time>
      </trkpt>
      <trkpt lat="48.11515" lon="3.31415">
        <ele>108.8</ele>
        <time>2024-03-30T17:11:42.000Z</time>
      </trkpt>
      <trkpt lat="48.11531" lon="3.31424">
        <ele>108.3</ele>
        <time>2024-03-30T17:11:48.000Z</time>
      </trkpt>
      <trkpt lat="48.11537" lon="3.31426">
        <ele>108</ele>
        <time>2024-03-30T17:11:50.000Z</time>
      </trkpt>
      <trkpt lat="48.11558" lon="3.31439">
        <ele>107.5</ele>
        <time>2024-03-30T17:11:57.000Z</time>
      </trkpt>
      <trkpt lat="48.11562" lon="3.31442">
        <ele>107.6</ele>
        <time>2024-03-30T17:11:59.000Z</time>
      </trkpt>
      <trkpt lat="48.11564" lon="3.31444">
        <ele>107.7</ele>
        <time>2024-03-30T17:12:00.000Z</time>
      </trkpt>
      <trkpt lat="48.11566" lon="3.31446">
        <ele>107.7</ele>
        <time>2024-03-30T17:12:01.000Z</time>
      </trkpt>
      <trkpt lat="48.11569" lon="3.31448">
        <ele>107.8</ele>
        <time>2024-03-30T17:12:02.000Z</time>
      </trkpt>
      <trkpt lat="48.11573" lon="3.3145">
        <ele>107.8</ele>
        <time>2024-03-30T17:12:04.000Z</time>
      </trkpt>
      <trkpt lat="48.11575" lon="3.31451">
        <ele>107.8</ele>
        <time>2024-03-30T17:12:05.000Z</time>
      </trkpt>
      <trkpt lat="48.11577" lon="3.31452">
        <ele>107.8</ele>
        <time>2024-03-30T17:12:06.000Z</time>
      </trkpt>
      <trkpt lat="48.1158" lon="3.31454">
        <ele>107.8</ele>
        <time>2024-03-30T17:12:07.000Z</time>
      </trkpt>
      <trkpt lat="48.11583" lon="3.31456">
        <ele>107.8</ele>
        <time>2024-03-30T17:12:08.000Z</time>
      </trkpt>
      <trkpt lat="48.11598" lon="3.31466">
        <ele>108</ele>
        <time>2024-03-30T17:12:14.000Z</time>
      </trkpt>
      <trkpt lat="48.11608" lon="3.31471">
        <ele>108</ele>
        <time>2024-03-30T17:12:18.000Z</time>
      </trkpt>
      <trkpt lat="48.1161" lon="3.31473">
        <ele>108.1</ele>
        <time>2024-03-30T17:12:19.000Z</time>
      </trkpt>
      <trkpt lat="48.11613" lon="3.31476">
        <ele>108.1</ele>
        <time>2024-03-30T17:12:20.000Z</time>
      </trkpt>
      <trkpt lat="48.11615" lon="3.31478">
        <ele>108.1</ele>
        <time>2024-03-30T17:12:21.000Z</time>
      </trkpt>
      <trkpt lat="48.11617" lon="3.3148">
        <ele>108.1</ele>
        <time>2024-03-30T17:12:22.000Z</time>
      </trkpt>
      <trkpt lat="48.11619" lon="3.31482">
        <ele>108.1</ele>
        <time>2024-03-30T17:12:23.000Z</time>
      </trkpt>
      <trkpt lat="48.1162" lon="3.31483">
        <ele>108.1</ele>
        <time>2024-03-30T17:12:24.000Z</time>
      </trkpt>
      <trkpt lat="48.11622" lon="3.31486">
        <ele>108.2</ele>
        <time>2024-03-30T17:12:25.000Z</time>
      </trkpt>
      <trkpt lat="48.11624" lon="3.31488">
        <ele>108.2</ele>
        <time>2024-03-30T17:12:26.000Z</time>
      </trkpt>
      <trkpt lat="48.11626" lon="3.3149">
        <ele>108.2</ele>
        <time>2024-03-30T17:12:27.000Z</time>
      </trkpt>
      <trkpt lat="48.11628" lon="3.31492">
        <ele>108.2</ele>
        <time>2024-03-30T17:12:28.000Z</time>
      </trkpt>
      <trkpt lat="48.1163" lon="3.31494">
        <ele>108.2</ele>
        <time>2024-03-30T17:12:29.000Z</time>
      </trkpt>
      <trkpt lat="48.11632" lon="3.31496">
        <ele>108.2</ele>
        <time>2024-03-30T17:12:30.000Z</time>
      </trkpt>
      <trkpt lat="48.11633" lon="3.31497">
        <ele>108.2</ele>
        <time>2024-03-30T17:12:31.000Z</time>
      </trkpt>
      <trkpt lat="48.11636" lon="3.315">
        <ele>108.2</ele>
        <time>2024-03-30T17:12:32.000Z</time>
      </trkpt>
      <trkpt lat="48.11649" lon="3.31512">
        <ele>108.7</ele>
        <time>2024-03-30T17:12:39.000Z</time>
      </trkpt>
      <trkpt lat="48.11669" lon="3.31519">
        <ele>109</ele>
        <time>2024-03-30T17:12:47.000Z</time>
      </trkpt>
      <trkpt lat="48.11708" lon="3.31527">
        <ele>108.4</ele>
        <time>2024-03-30T17:13:00.000Z</time>
      </trkpt>
      <trkpt lat="48.11729" lon="3.3153">
        <ele>107.9</ele>
        <time>2024-03-30T17:13:06.000Z</time>
      </trkpt>
      <trkpt lat="48.11752" lon="3.31535">
        <ele>107.4</ele>
        <time>2024-03-30T17:13:13.000Z</time>
      </trkpt>
      <trkpt lat="48.11786" lon="3.31542">
        <ele>106.7</ele>
        <time>2024-03-30T17:13:22.000Z</time>
      </trkpt>
      <trkpt lat="48.11794" lon="3.31543">
        <ele>106.5</ele>
        <time>2024-03-30T17:13:24.000Z</time>
      </trkpt>
      <trkpt lat="48.11831" lon="3.31556">
        <ele>106.1</ele>
        <time>2024-03-30T17:13:33.000Z</time>
      </trkpt>
      <trkpt lat="48.11842" lon="3.31561">
        <ele>105.6</ele>
        <time>2024-03-30T17:13:36.000Z</time>
      </trkpt>
      <trkpt lat="48.11846" lon="3.31563">
        <ele>105.5</ele>
        <time>2024-03-30T17:13:37.000Z</time>
      </trkpt>
      <trkpt lat="48.11849" lon="3.31564">
        <ele>105.3</ele>
        <time>2024-03-30T17:13:38.000Z</time>
      </trkpt>
      <trkpt lat="48.11853" lon="3.31566">
        <ele>105.2</ele>
        <time>2024-03-30T17:13:39.000Z</time>
      </trkpt>
      <trkpt lat="48.11856" lon="3.31567">
        <ele>105.1</ele>
        <time>2024-03-30T17:13:40.000Z</time>
      </trkpt>
      <trkpt lat="48.1186" lon="3.31569">
        <ele>105</ele>
        <time>2024-03-30T17:13:41.000Z</time>
      </trkpt>
      <trkpt lat="48.11863" lon="3.3157">
        <ele>105</ele>
        <time>2024-03-30T17:13:42.000Z</time>
      </trkpt>
      <trkpt lat="48.11867" lon="3.31572">
        <ele>105.2</ele>
        <time>2024-03-30T17:13:43.000Z</time>
      </trkpt>
      <trkpt lat="48.1187" lon="3.31573">
        <ele>105.3</ele>
        <time>2024-03-30T17:13:44.000Z</time>
      </trkpt>
      <trkpt lat="48.11873" lon="3.31574">
        <ele>105.3</ele>
        <time>2024-03-30T17:13:45.000Z</time>
      </trkpt>
      <trkpt lat="48.11876" lon="3.31576">
        <ele>105.5</ele>
        <time>2024-03-30T17:13:46.000Z</time>
      </trkpt>
      <trkpt lat="48.11879" lon="3.31577">
        <ele>105.5</ele>
        <time>2024-03-30T17:13:47.000Z</time>
      </trkpt>
      <trkpt lat="48.11882" lon="3.31578">
        <ele>105.6</ele>
        <time>2024-03-30T17:13:48.000Z</time>
      </trkpt>
      <trkpt lat="48.11885" lon="3.31579">
        <ele>105.7</ele>
        <time>2024-03-30T17:13:49.000Z</time>
      </trkpt>
      <trkpt lat="48.11888" lon="3.3158">
        <ele>105.8</ele>
        <time>2024-03-30T17:13:50.000Z</time>
      </trkpt>
      <trkpt lat="48.11891" lon="3.31581">
        <ele>105.8</ele>
        <time>2024-03-30T17:13:51.000Z</time>
      </trkpt>
      <trkpt lat="48.11894" lon="3.31582">
        <ele>105.7</ele>
        <time>2024-03-30T17:13:52.000Z</time>
      </trkpt>
      <trkpt lat="48.11897" lon="3.31583">
        <ele>105.7</ele>
        <time>2024-03-30T17:13:53.000Z</time>
      </trkpt>
      <trkpt lat="48.119" lon="3.31584">
        <ele>105.6</ele>
        <time>2024-03-30T17:13:54.000Z</time>
      </trkpt>
      <trkpt lat="48.11909" lon="3.31587">
        <ele>105.4</ele>
        <time>2024-03-30T17:13:57.000Z</time>
      </trkpt>
      <trkpt lat="48.11912" lon="3.31588">
        <ele>105.3</ele>
        <time>2024-03-30T17:13:58.000Z</time>
      </trkpt>
      <trkpt lat="48.11914" lon="3.31588">
        <ele>105.3</ele>
        <time>2024-03-30T17:13:59.000Z</time>
      </trkpt>
      <trkpt lat="48.11917" lon="3.31589">
        <ele>105.2</ele>
        <time>2024-03-30T17:14:00.000Z</time>
      </trkpt>
      <trkpt lat="48.1192" lon="3.3159">
        <ele>105.1</ele>
        <time>2024-03-30T17:14:01.000Z</time>
      </trkpt>
      <trkpt lat="48.11947" lon="3.31601">
        <ele>105.2</ele>
        <time>2024-03-30T17:14:10.000Z</time>
      </trkpt>
      <trkpt lat="48.11953" lon="3.31603">
        <ele>105.2</ele>
        <time>2024-03-30T17:14:12.000Z</time>
      </trkpt>
      <trkpt lat="48.11962" lon="3.31602">
        <ele>104.9</ele>
        <time>2024-03-30T17:14:15.000Z</time>
      </trkpt>
      <trkpt lat="48.11964" lon="3.31601">
        <ele>104.8</ele>
        <time>2024-03-30T17:14:16.000Z</time>
      </trkpt>
      <trkpt lat="48.11967" lon="3.31599">
        <ele>104.7</ele>
        <time>2024-03-30T17:14:17.000Z</time>
      </trkpt>
      <trkpt lat="48.1197" lon="3.31598">
        <ele>104.6</ele>
        <time>2024-03-30T17:14:18.000Z</time>
      </trkpt>
      <trkpt lat="48.11975" lon="3.31595">
        <ele>104.4</ele>
        <time>2024-03-30T17:14:20.000Z</time>
      </trkpt>
      <trkpt lat="48.11976" lon="3.31593">
        <ele>104.3</ele>
        <time>2024-03-30T17:14:21.000Z</time>
      </trkpt>
      <trkpt lat="48.11979" lon="3.31591">
        <ele>104.3</ele>
        <time>2024-03-30T17:14:22.000Z</time>
      </trkpt>
      <trkpt lat="48.11982" lon="3.31589">
        <ele>104.2</ele>
        <time>2024-03-30T17:14:23.000Z</time>
      </trkpt>
      <trkpt lat="48.11985" lon="3.31586">
        <ele>104.1</ele>
        <time>2024-03-30T17:14:24.000Z</time>
      </trkpt>
      <trkpt lat="48.11991" lon="3.31581">
        <ele>103.9</ele>
        <time>2024-03-30T17:14:26.000Z</time>
      </trkpt>
      <trkpt lat="48.12009" lon="3.31564">
        <ele>103.3</ele>
        <time>2024-03-30T17:14:32.000Z</time>
      </trkpt>
      <trkpt lat="48.12016" lon="3.31558">
        <ele>103.1</ele>
        <time>2024-03-30T17:14:34.000Z</time>
      </trkpt>
      <trkpt lat="48.12045" lon="3.31529">
        <ele>102</ele>
        <time>2024-03-30T17:14:43.000Z</time>
      </trkpt>
      <trkpt lat="48.12066" lon="3.31515">
        <ele>102</ele>
        <time>2024-03-30T17:14:49.000Z</time>
      </trkpt>
      <trkpt lat="48.12094" lon="3.31507">
        <ele>102</ele>
        <time>2024-03-30T17:14:57.000Z</time>
      </trkpt>
      <trkpt lat="48.12098" lon="3.31506">
        <ele>102</ele>
        <time>2024-03-30T17:14:58.000Z</time>
      </trkpt>
      <trkpt lat="48.12111" lon="3.31504">
        <ele>102</ele>
        <time>2024-03-30T17:15:02.000Z</time>
      </trkpt>
      <trkpt lat="48.12114" lon="3.31503">
        <ele>101.9</ele>
        <time>2024-03-30T17:15:03.000Z</time>
      </trkpt>
      <trkpt lat="48.12118" lon="3.31502">
        <ele>101.8</ele>
        <time>2024-03-30T17:15:04.000Z</time>
      </trkpt>
      <trkpt lat="48.12137" lon="3.31497">
        <ele>101</ele>
        <time>2024-03-30T17:15:09.000Z</time>
      </trkpt>
      <trkpt lat="48.12157" lon="3.31492">
        <ele>100.7</ele>
        <time>2024-03-30T17:15:14.000Z</time>
      </trkpt>
      <trkpt lat="48.12169" lon="3.3149">
        <ele>100.6</ele>
        <time>2024-03-30T17:15:17.000Z</time>
      </trkpt>
      <trkpt lat="48.12201" lon="3.31481">
        <ele>99.8</ele>
        <time>2024-03-30T17:15:25.000Z</time>
      </trkpt>
      <trkpt lat="48.12205" lon="3.3148">
        <ele>99.6</ele>
        <time>2024-03-30T17:15:26.000Z</time>
      </trkpt>
      <trkpt lat="48.12232" lon="3.31475">
        <ele>98.6</ele>
        <time>2024-03-30T17:15:33.000Z</time>
      </trkpt>
      <trkpt lat="48.12236" lon="3.31474">
        <ele>98.5</ele>
        <time>2024-03-30T17:15:34.000Z</time>
      </trkpt>
      <trkpt lat="48.1224" lon="3.31473">
        <ele>98.4</ele>
        <time>2024-03-30T17:15:35.000Z</time>
      </trkpt>
      <trkpt lat="48.12244" lon="3.31472">
        <ele>98.2</ele>
        <time>2024-03-30T17:15:36.000Z</time>
      </trkpt>
      <trkpt lat="48.12273" lon="3.31465">
        <ele>96.3</ele>
        <time>2024-03-30T17:15:43.000Z</time>
      </trkpt>
      <trkpt lat="48.12276" lon="3.31464">
        <ele>96.1</ele>
        <time>2024-03-30T17:15:44.000Z</time>
      </trkpt>
      <trkpt lat="48.12279" lon="3.31464">
        <ele>95.9</ele>
        <time>2024-03-30T17:15:45.000Z</time>
      </trkpt>
      <trkpt lat="48.12281" lon="3.31464">
        <ele>95.8</ele>
        <time>2024-03-30T17:15:46.000Z</time>
      </trkpt>
      <trkpt lat="48.12283" lon="3.31464">
        <ele>95.6</ele>
        <time>2024-03-30T17:15:47.000Z</time>
      </trkpt>
      <trkpt lat="48.12286" lon="3.31464">
        <ele>95.4</ele>
        <time>2024-03-30T17:15:48.000Z</time>
      </trkpt>
      <trkpt lat="48.12292" lon="3.31462">
        <ele>95</ele>
        <time>2024-03-30T17:15:50.000Z</time>
      </trkpt>
      <trkpt lat="48.12302" lon="3.31456">
        <ele>94.3</ele>
        <time>2024-03-30T17:15:53.000Z</time>
      </trkpt>
      <trkpt lat="48.12316" lon="3.31441">
        <ele>93.6</ele>
        <time>2024-03-30T17:15:57.000Z</time>
      </trkpt>
      <trkpt lat="48.12325" lon="3.31433">
        <ele>93</ele>
        <time>2024-03-30T17:15:59.000Z</time>
      </trkpt>
      <trkpt lat="48.12341" lon="3.31423">
        <ele>91.9</ele>
        <time>2024-03-30T17:16:02.000Z</time>
      </trkpt>
      <trkpt lat="48.12354" lon="3.31417">
        <ele>91.3</ele>
        <time>2024-03-30T17:16:04.000Z</time>
      </trkpt>
      <trkpt lat="48.1236" lon="3.31415">
        <ele>91</ele>
        <time>2024-03-30T17:16:05.000Z</time>
      </trkpt>
      <trkpt lat="48.12366" lon="3.31413">
        <ele>90.8</ele>
        <time>2024-03-30T17:16:06.000Z</time>
      </trkpt>
      <trkpt lat="48.12373" lon="3.31411">
        <ele>90.5</ele>
        <time>2024-03-30T17:16:07.000Z</time>
      </trkpt>
      <trkpt lat="48.12392" lon="3.31402">
        <ele>89.2</ele>
        <time>2024-03-30T17:16:10.000Z</time>
      </trkpt>
      <trkpt lat="48.12404" lon="3.31391">
        <ele>88</ele>
        <time>2024-03-30T17:16:12.000Z</time>
      </trkpt>
      <trkpt lat="48.12414" lon="3.31375">
        <ele>87.2</ele>
        <time>2024-03-30T17:16:14.000Z</time>
      </trkpt>
      <trkpt lat="48.1242" lon="3.31361">
        <ele>86.9</ele>
        <time>2024-03-30T17:16:16.000Z</time>
      </trkpt>
      <trkpt lat="48.12422" lon="3.31358">
        <ele>86.8</ele>
        <time>2024-03-30T17:16:17.000Z</time>
      </trkpt>
      <trkpt lat="48.12423" lon="3.31355">
        <ele>86.8</ele>
        <time>2024-03-30T17:16:18.000Z</time>
      </trkpt>
      <trkpt lat="48.12425" lon="3.31353">
        <ele>86.7</ele>
        <time>2024-03-30T17:16:19.000Z</time>
      </trkpt>
      <trkpt lat="48.12426" lon="3.3135">
        <ele>86.7</ele>
        <time>2024-03-30T17:16:20.000Z</time>
      </trkpt>
      <trkpt lat="48.12428" lon="3.31347">
        <ele>86.6</ele>
        <time>2024-03-30T17:16:21.000Z</time>
      </trkpt>
      <trkpt lat="48.1243" lon="3.31344">
        <ele>86.5</ele>
        <time>2024-03-30T17:16:22.000Z</time>
      </trkpt>
      <trkpt lat="48.12432" lon="3.31341">
        <ele>86.4</ele>
        <time>2024-03-30T17:16:23.000Z</time>
      </trkpt>
      <trkpt lat="48.12436" lon="3.31335">
        <ele>86.3</ele>
        <time>2024-03-30T17:16:25.000Z</time>
      </trkpt>
      <trkpt lat="48.12437" lon="3.31332">
        <ele>86.3</ele>
        <time>2024-03-30T17:16:26.000Z</time>
      </trkpt>
      <trkpt lat="48.12439" lon="3.3133">
        <ele>86.2</ele>
        <time>2024-03-30T17:16:27.000Z</time>
      </trkpt>
      <trkpt lat="48.12441" lon="3.31329">
        <ele>86.1</ele>
        <time>2024-03-30T17:16:28.000Z</time>
      </trkpt>
      <trkpt lat="48.12442" lon="3.31328">
        <ele>86.1</ele>
        <time>2024-03-30T17:16:29.000Z</time>
      </trkpt>
      <trkpt lat="48.12444" lon="3.31327">
        <ele>86</ele>
        <time>2024-03-30T17:16:30.000Z</time>
      </trkpt>
      <trkpt lat="48.12445" lon="3.31326">
        <ele>86</ele>
        <time>2024-03-30T17:16:31.000Z</time>
      </trkpt>
      <trkpt lat="48.12459" lon="3.31323">
        <ele>85.5</ele>
        <time>2024-03-30T17:16:36.000Z</time>
      </trkpt>
      <trkpt lat="48.12469" lon="3.31324">
        <ele>85.1</ele>
        <time>2024-03-30T17:16:39.000Z</time>
      </trkpt>
      <trkpt lat="48.12472" lon="3.31323">
        <ele>85</ele>
        <time>2024-03-30T17:16:40.000Z</time>
      </trkpt>
      <trkpt lat="48.12478" lon="3.31323">
        <ele>85</ele>
        <time>2024-03-30T17:16:42.000Z</time>
      </trkpt>
      <trkpt lat="48.125" lon="3.31318">
        <ele>85</ele>
        <time>2024-03-30T17:16:49.000Z</time>
      </trkpt>
      <trkpt lat="48.12503" lon="3.31315">
        <ele>85</ele>
        <time>2024-03-30T17:16:50.000Z</time>
      </trkpt>
      <trkpt lat="48.12505" lon="3.3131">
        <ele>85</ele>
        <time>2024-03-30T17:16:51.000Z</time>
      </trkpt>
      <trkpt lat="48.12506" lon="3.31305">
        <ele>85</ele>
        <time>2024-03-30T17:16:52.000Z</time>
      </trkpt>
      <trkpt lat="48.12508" lon="3.31299">
        <ele>84.9</ele>
        <time>2024-03-30T17:16:53.000Z</time>
      </trkpt>
      <trkpt lat="48.12509" lon="3.31294">
        <ele>84.9</ele>
        <time>2024-03-30T17:16:54.000Z</time>
      </trkpt>
      <trkpt lat="48.12517" lon="3.31263">
        <ele>84.9</ele>
        <time>2024-03-30T17:16:59.000Z</time>
      </trkpt>
      <trkpt lat="48.12518" lon="3.31257">
        <ele>84.8</ele>
        <time>2024-03-30T17:17:00.000Z</time>
      </trkpt>
      <trkpt lat="48.12532" lon="3.3121">
        <ele>84.3</ele>
        <time>2024-03-30T17:17:08.000Z</time>
      </trkpt>
      <trkpt lat="48.12538" lon="3.3119">
        <ele>84.4</ele>
        <time>2024-03-30T17:17:11.000Z</time>
      </trkpt>
      <trkpt lat="48.12545" lon="3.31154">
        <ele>84.6</ele>
        <time>2024-03-30T17:17:16.000Z</time>
      </trkpt>
      <trkpt lat="48.12546" lon="3.31147">
        <ele>84.5</ele>
        <time>2024-03-30T17:17:17.000Z</time>
      </trkpt>
      <trkpt lat="48.12551" lon="3.31079">
        <ele>83.7</ele>
        <time>2024-03-30T17:17:26.000Z</time>
      </trkpt>
      <trkpt lat="48.12553" lon="3.31058">
        <ele>83</ele>
        <time>2024-03-30T17:17:29.000Z</time>
      </trkpt>
      <trkpt lat="48.12554" lon="3.31051">
        <ele>82.9</ele>
        <time>2024-03-30T17:17:30.000Z</time>
      </trkpt>
      <trkpt lat="48.12556" lon="3.31022">
        <ele>83.1</ele>
        <time>2024-03-30T17:17:34.000Z</time>
      </trkpt>
      <trkpt lat="48.1256" lon="3.30953">
        <ele>82.6</ele>
        <time>2024-03-30T17:17:43.000Z</time>
      </trkpt>
      <trkpt lat="48.12565" lon="3.30917">
        <ele>82.7</ele>
        <time>2024-03-30T17:17:48.000Z</time>
      </trkpt>
      <trkpt lat="48.12569" lon="3.30905">
        <ele>82.6</ele>
        <time>2024-03-30T17:17:50.000Z</time>
      </trkpt>
      <trkpt lat="48.12571" lon="3.309">
        <ele>82.4</ele>
        <time>2024-03-30T17:17:51.000Z</time>
      </trkpt>
      <trkpt lat="48.12573" lon="3.30895">
        <ele>82.3</ele>
        <time>2024-03-30T17:17:52.000Z</time>
      </trkpt>
      <trkpt lat="48.12575" lon="3.30891">
        <ele>82.1</ele>
        <time>2024-03-30T17:17:53.000Z</time>
      </trkpt>
      <trkpt lat="48.12578" lon="3.30886">
        <ele>82</ele>
        <time>2024-03-30T17:17:54.000Z</time>
      </trkpt>
      <trkpt lat="48.1258" lon="3.30882">
        <ele>82</ele>
        <time>2024-03-30T17:17:55.000Z</time>
      </trkpt>
      <trkpt lat="48.12592" lon="3.3087">
        <ele>81.9</ele>
        <time>2024-03-30T17:17:59.000Z</time>
      </trkpt>
      <trkpt lat="48.126" lon="3.30856">
        <ele>81.2</ele>
        <time>2024-03-30T17:18:02.000Z</time>
      </trkpt>
      <trkpt lat="48.12602" lon="3.30852">
        <ele>81</ele>
        <time>2024-03-30T17:18:03.000Z</time>
      </trkpt>
      <trkpt lat="48.12602" lon="3.30847">
        <ele>80.8</ele>
        <time>2024-03-30T17:18:04.000Z</time>
      </trkpt>
      <trkpt lat="48.12601" lon="3.30843">
        <ele>80.7</ele>
        <time>2024-03-30T17:18:05.000Z</time>
      </trkpt>
      <trkpt lat="48.126" lon="3.3084">
        <ele>80.6</ele>
        <time>2024-03-30T17:18:06.000Z</time>
      </trkpt>
      <trkpt lat="48.12598" lon="3.30838">
        <ele>80.6</ele>
        <time>2024-03-30T17:18:07.000Z</time>
      </trkpt>
      <trkpt lat="48.12596" lon="3.30837">
        <ele>80.7</ele>
        <time>2024-03-30T17:18:08.000Z</time>
      </trkpt>
      <trkpt lat="48.12595" lon="3.30836">
        <ele>80.7</ele>
        <time>2024-03-30T17:18:10.000Z</time>
      </trkpt>
      <trkpt lat="48.12595" lon="3.30836">
        <ele>80.7</ele>
        <time>2024-03-30T17:18:13.000Z</time>
      </trkpt>
    </trkseg>
  </trk>
  <trk>
    <name><![CDATA[BR Bonus]]></name>
    <extensions>
      <line xmlns="http://www.topografix.com/GPX/gpx_style/0/2">
        <color>ffbc00</color>
        <width>4</width>
      </line>
    </extensions>
    <trkseg>
      <trkpt lat="48.12612" lon="3.31798">
        <ele>115.9</ele>
        <extensions>
          <visugpx:TrkExtension xmlns:visugpx="https://www.visugpx.com/editgpx/">
            <visugpx:node>2</visugpx:node>
            </visugpx:TrkExtension>
        </extensions>
      </trkpt>
      <trkpt lat="48.12597" lon="3.31856">
        <ele>114.4</ele>
      </trkpt>
      <trkpt lat="48.12591" lon="3.31886">
        <ele>113.6</ele>
      </trkpt>
      <trkpt lat="48.12594" lon="3.31922">
        <ele>114.1</ele>
      </trkpt>
      <trkpt lat="48.12593" lon="3.31923">
        <ele>113.9</ele>
        <time>2023-11-18T08:47:24Z</time>
      </trkpt>
      <trkpt lat="48.12595" lon="3.31934">
        <ele>113.9</ele>
        <time>2023-11-18T08:47:29Z</time>
      </trkpt>
      <trkpt lat="48.12599" lon="3.31964">
        <ele>113.7</ele>
        <time>2023-11-18T08:47:36Z</time>
      </trkpt>
      <trkpt lat="48.12607" lon="3.32014">
        <ele>113.5</ele>
        <time>2023-11-18T08:47:44Z</time>
      </trkpt>
      <trkpt lat="48.12613" lon="3.32055">
        <ele>114.5</ele>
        <time>2023-11-18T08:47:51Z</time>
      </trkpt>
      <trkpt lat="48.12617" lon="3.32089">
        <ele>115.5</ele>
        <time>2023-11-18T08:47:59Z</time>
      </trkpt>
      <trkpt lat="48.12621" lon="3.32134">
        <ele>115.7</ele>
        <time>2023-11-18T08:48:09Z</time>
      </trkpt>
      <trkpt lat="48.12626" lon="3.32177">
        <ele>116.6</ele>
        <time>2023-11-18T08:48:18Z</time>
      </trkpt>
      <trkpt lat="48.12628" lon="3.32195">
        <ele>116.9</ele>
        <time>2023-11-18T08:48:23Z</time>
      </trkpt>
      <trkpt lat="48.12631" lon="3.32224">
        <ele>118.1</ele>
        <time>2023-11-18T08:48:32Z</time>
      </trkpt>
      <trkpt lat="48.12633" lon="3.3225">
        <ele>119.5</ele>
        <time>2023-11-18T08:48:42Z</time>
      </trkpt>
      <trkpt lat="48.12633" lon="3.32257">
        <ele>119.8</ele>
        <time>2023-11-18T08:48:44Z</time>
      </trkpt>
      <trkpt lat="48.12635" lon="3.3227">
        <ele>120.7</ele>
        <time>2023-11-18T08:49:26Z</time>
      </trkpt>
      <trkpt lat="48.12635" lon="3.32271">
        <ele>120.8</ele>
        <time>2023-11-18T08:50:22Z</time>
      </trkpt>
      <trkpt lat="48.12639" lon="3.32291">
        <ele>122</ele>
        <time>2023-11-18T08:50:33Z</time>
      </trkpt>
      <trkpt lat="48.12645" lon="3.32309">
        <ele>123.2</ele>
        <time>2023-11-18T08:50:42Z</time>
      </trkpt>
      <trkpt lat="48.12653" lon="3.32326">
        <ele>124.3</ele>
        <time>2023-11-18T08:50:50Z</time>
      </trkpt>
      <trkpt lat="48.1266" lon="3.32341">
        <ele>125</ele>
        <time>2023-11-18T08:50:58Z</time>
      </trkpt>
      <trkpt lat="48.12669" lon="3.3236">
        <ele>125.7</ele>
        <time>2023-11-18T08:51:07Z</time>
      </trkpt>
      <trkpt lat="48.12673" lon="3.32366">
        <ele>126.2</ele>
        <time>2023-11-18T08:51:10Z</time>
      </trkpt>
      <trkpt lat="48.12676" lon="3.32371">
        <ele>126.5</ele>
        <time>2023-11-18T08:51:13Z</time>
      </trkpt>
      <trkpt lat="48.12678" lon="3.32374">
        <ele>126.7</ele>
        <time>2023-11-18T08:51:17Z</time>
      </trkpt>
      <trkpt lat="48.12681" lon="3.32384">
        <ele>126.5</ele>
        <time>2023-11-18T08:51:21Z</time>
      </trkpt>
      <trkpt lat="48.12689" lon="3.32411">
        <ele>126.2</ele>
        <time>2023-11-18T08:51:29Z</time>
      </trkpt>
      <trkpt lat="48.12699" lon="3.3244">
        <ele>125.6</ele>
        <time>2023-11-18T08:51:38Z</time>
      </trkpt>
      <trkpt lat="48.12707" lon="3.32462">
        <ele>125.9</ele>
        <time>2023-11-18T08:51:44Z</time>
      </trkpt>
      <trkpt lat="48.12717" lon="3.32487">
        <ele>126.1</ele>
        <time>2023-11-18T08:51:52Z</time>
      </trkpt>
      <trkpt lat="48.12726" lon="3.32511">
        <ele>126.1</ele>
        <time>2023-11-18T08:51:58Z</time>
      </trkpt>
      <trkpt lat="48.12734" lon="3.32541">
        <ele>124.8</ele>
        <time>2023-11-18T08:52:04Z</time>
      </trkpt>
      <trkpt lat="48.12742" lon="3.32567">
        <ele>123.9</ele>
        <time>2023-11-18T08:52:08Z</time>
      </trkpt>
      <trkpt lat="48.1275" lon="3.326">
        <ele>122.8</ele>
        <time>2023-11-18T08:52:13Z</time>
      </trkpt>
      <trkpt lat="48.12761" lon="3.32653">
        <ele>121</ele>
        <time>2023-11-18T08:52:20Z</time>
      </trkpt>
      <trkpt lat="48.12774" lon="3.32717">
        <ele>118.8</ele>
        <time>2023-11-18T08:52:29Z</time>
      </trkpt>
      <trkpt lat="48.12786" lon="3.32779">
        <ele>114.8</ele>
        <time>2023-11-18T08:52:37Z</time>
      </trkpt>
      <trkpt lat="48.12792" lon="3.32807">
        <ele>113.5</ele>
        <time>2023-11-18T08:52:41Z</time>
      </trkpt>
      <trkpt lat="48.12794" lon="3.32821">
        <ele>112.9</ele>
        <time>2023-11-18T08:52:46Z</time>
      </trkpt>
      <trkpt lat="48.12795" lon="3.32828">
        <ele>112.6</ele>
      </trkpt>
      <trkpt lat="48.12802" lon="3.32828">
        <ele>113.1</ele>
        <time>2023-11-18T08:52:51Z</time>
      </trkpt>
      <trkpt lat="48.12807" lon="3.32825">
        <ele>113.7</ele>
        <time>2023-11-18T08:52:54Z</time>
      </trkpt>
      <trkpt lat="48.12811" lon="3.32822">
        <ele>114.3</ele>
        <time>2023-11-18T08:52:58Z</time>
      </trkpt>
      <trkpt lat="48.12824" lon="3.32818">
        <ele>115.7</ele>
        <time>2023-11-18T08:53:07Z</time>
      </trkpt>
      <trkpt lat="48.12834" lon="3.32815">
        <ele>116.7</ele>
        <time>2023-11-18T08:53:15Z</time>
      </trkpt>
      <trkpt lat="48.12843" lon="3.32809">
        <ele>118</ele>
        <time>2023-11-18T08:53:21Z</time>
      </trkpt>
      <trkpt lat="48.12854" lon="3.32802">
        <ele>119.5</ele>
        <time>2023-11-18T08:53:29Z</time>
      </trkpt>
      <trkpt lat="48.12861" lon="3.32798">
        <ele>120.5</ele>
        <time>2023-11-18T08:53:34Z</time>
      </trkpt>
      <trkpt lat="48.12874" lon="3.32793">
        <ele>122.8</ele>
        <time>2023-11-18T08:53:43Z</time>
      </trkpt>
      <trkpt lat="48.12882" lon="3.32789">
        <ele>124.1</ele>
        <time>2023-11-18T08:53:49Z</time>
      </trkpt>
      <trkpt lat="48.12902" lon="3.32774">
        <ele>127.5</ele>
        <time>2023-11-18T08:54:05Z</time>
      </trkpt>
      <trkpt lat="48.12932" lon="3.32761">
        <ele>132.6</ele>
        <time>2023-11-18T08:54:42Z</time>
      </trkpt>
      <trkpt lat="48.12946" lon="3.32751">
        <ele>134.4</ele>
        <time>2023-11-18T08:54:59Z</time>
      </trkpt>
      <trkpt lat="48.12957" lon="3.32746">
        <ele>136.5</ele>
        <time>2023-11-18T08:55:14Z</time>
      </trkpt>
      <trkpt lat="48.12968" lon="3.32743">
        <ele>138.5</ele>
        <time>2023-11-18T08:55:20Z</time>
      </trkpt>
      <trkpt lat="48.12978" lon="3.32736">
        <ele>140.2</ele>
        <time>2023-11-18T08:55:28Z</time>
      </trkpt>
      <trkpt lat="48.12989" lon="3.32731">
        <ele>141.7</ele>
        <time>2023-11-18T08:55:35Z</time>
      </trkpt>
      <trkpt lat="48.12998" lon="3.3273">
        <ele>142.8</ele>
        <time>2023-11-18T08:55:42Z</time>
      </trkpt>
      <trkpt lat="48.13005" lon="3.32733">
        <ele>143.7</ele>
        <time>2023-11-18T08:55:49Z</time>
      </trkpt>
      <trkpt lat="48.1301" lon="3.32733">
        <ele>144.3</ele>
        <time>2023-11-18T08:55:51Z</time>
      </trkpt>
      <trkpt lat="48.1302" lon="3.32741">
        <ele>145.4</ele>
        <time>2023-11-18T08:56:00Z</time>
      </trkpt>
      <trkpt lat="48.13029" lon="3.32742">
        <ele>146.4</ele>
      </trkpt>
      <trkpt lat="48.13039" lon="3.32748">
        <ele>147.3</ele>
        <time>2023-11-18T08:56:15Z</time>
      </trkpt>
      <trkpt lat="48.13045" lon="3.32751">
        <ele>147.9</ele>
        <time>2023-11-18T08:56:22Z</time>
      </trkpt>
      <trkpt lat="48.1305" lon="3.32755">
        <ele>148.5</ele>
        <time>2023-11-18T08:56:27Z</time>
      </trkpt>
      <trkpt lat="48.13061" lon="3.32762">
        <ele>149.5</ele>
        <time>2023-11-18T08:56:35Z</time>
      </trkpt>
      <trkpt lat="48.1307" lon="3.32767">
        <ele>150.2</ele>
        <time>2023-11-18T08:56:43Z</time>
      </trkpt>
      <trkpt lat="48.1308" lon="3.32773">
        <ele>150.9</ele>
        <time>2023-11-18T08:56:51Z</time>
      </trkpt>
      <trkpt lat="48.1309" lon="3.32783">
        <ele>151.6</ele>
        <time>2023-11-18T08:57:00Z</time>
      </trkpt>
      <trkpt lat="48.13096" lon="3.32789">
        <ele>152.1</ele>
        <time>2023-11-18T08:57:07Z</time>
      </trkpt>
      <trkpt lat="48.13102" lon="3.32798">
        <ele>152.6</ele>
        <time>2023-11-18T08:57:14Z</time>
      </trkpt>
      <trkpt lat="48.13105" lon="3.32801">
        <ele>152.7</ele>
        <time>2023-11-18T08:57:16Z</time>
      </trkpt>
      <trkpt lat="48.1311" lon="3.32807">
        <ele>153</ele>
        <time>2023-11-18T08:57:24Z</time>
      </trkpt>
      <trkpt lat="48.13112" lon="3.32811">
        <ele>153.3</ele>
        <time>2023-11-18T08:57:55Z</time>
      </trkpt>
      <trkpt lat="48.13122" lon="3.32821">
        <ele>154.1</ele>
      </trkpt>
      <trkpt lat="48.13128" lon="3.32824">
        <ele>154.5</ele>
        <time>2023-11-18T08:58:02Z</time>
      </trkpt>
      <trkpt lat="48.13131" lon="3.32825">
        <ele>154.6</ele>
        <time>2023-11-18T08:58:04Z</time>
      </trkpt>
      <trkpt lat="48.13133" lon="3.32826">
        <ele>154.7</ele>
        <time>2023-11-18T08:58:07Z</time>
      </trkpt>
      <trkpt lat="48.13134" lon="3.32831">
        <ele>154.8</ele>
        <time>2023-11-18T08:58:10Z</time>
      </trkpt>
      <trkpt lat="48.13134" lon="3.32834">
        <ele>154.9</ele>
        <time>2023-11-18T08:58:33Z</time>
      </trkpt>
      <trkpt lat="48.13138" lon="3.32845">
        <ele>155.4</ele>
        <time>2023-11-18T08:58:39Z</time>
      </trkpt>
      <trkpt lat="48.13139" lon="3.32849">
        <ele>155.6</ele>
        <time>2023-11-18T08:58:47Z</time>
      </trkpt>
      <trkpt lat="48.1314" lon="3.32853">
        <ele>155.8</ele>
      </trkpt>
      <trkpt lat="48.13143" lon="3.32855">
        <ele>156</ele>
        <time>2023-11-18T08:59:16Z</time>
      </trkpt>
      <trkpt lat="48.13147" lon="3.32856">
        <ele>156.2</ele>
        <time>2023-11-18T08:59:24Z</time>
      </trkpt>
      <trkpt lat="48.13152" lon="3.32859">
        <ele>156.4</ele>
        <time>2023-11-18T08:59:45Z</time>
      </trkpt>
      <trkpt lat="48.13156" lon="3.32862">
        <ele>156.7</ele>
        <time>2023-11-18T08:59:51Z</time>
      </trkpt>
      <trkpt lat="48.13157" lon="3.32869">
        <ele>157.2</ele>
        <time>2023-11-18T08:59:58Z</time>
      </trkpt>
      <trkpt lat="48.13158" lon="3.32873">
        <ele>157.5</ele>
        <time>2023-11-18T09:00:05Z</time>
      </trkpt>
      <trkpt lat="48.13157" lon="3.32879">
        <ele>157.9</ele>
      </trkpt>
      <trkpt lat="48.13157" lon="3.32882">
        <ele>158.2</ele>
        <time>2023-11-18T09:01:31Z</time>
      </trkpt>
      <trkpt lat="48.13157" lon="3.32889">
        <ele>158.7</ele>
      </trkpt>
      <trkpt lat="48.13158" lon="3.32893">
        <ele>158.9</ele>
        <time>2023-11-18T09:02:05Z</time>
      </trkpt>
      <trkpt lat="48.13164" lon="3.32906">
        <ele>159.6</ele>
        <time>2023-11-18T09:02:16Z</time>
      </trkpt>
      <trkpt lat="48.13169" lon="3.32917">
        <ele>160.1</ele>
        <time>2023-11-18T09:02:23Z</time>
      </trkpt>
      <trkpt lat="48.1317" lon="3.32919">
        <ele>160.2</ele>
        <time>2023-11-18T09:02:24Z</time>
      </trkpt>
      <trkpt lat="48.13172" lon="3.32926">
        <ele>160.5</ele>
      </trkpt>
      <trkpt lat="48.13178" lon="3.32922">
        <ele>160.6</ele>
      </trkpt>
      <trkpt lat="48.13202" lon="3.32934">
        <ele>162.4</ele>
      </trkpt>
      <trkpt lat="48.13225" lon="3.32968">
        <ele>166.1</ele>
      </trkpt>
      <trkpt lat="48.13258" lon="3.33041">
        <ele>170.9</ele>
        <time>2023-11-18T09:02:32Z</time>
      </trkpt>
      <trkpt lat="48.13258" lon="3.33041">
        <ele>170.9</ele>
        <time>2023-11-18T09:38:34Z</time>
      </trkpt>
      <trkpt lat="48.13267" lon="3.33036">
        <ele>171.3</ele>
        <time>2023-11-18T09:39:02Z</time>
      </trkpt>
      <trkpt lat="48.13276" lon="3.33027">
        <ele>171.8</ele>
        <time>2023-11-18T09:39:10Z</time>
      </trkpt>
      <trkpt lat="48.13278" lon="3.33026">
        <ele>171.9</ele>
        <time>2023-11-18T09:39:12Z</time>
      </trkpt>
      <trkpt lat="48.1328" lon="3.33022">
        <ele>171.9</ele>
        <time>2023-11-18T09:39:15Z</time>
      </trkpt>
      <trkpt lat="48.13297" lon="3.3299">
        <ele>172.4</ele>
        <time>2023-11-18T09:39:34Z</time>
      </trkpt>
      <trkpt lat="48.13299" lon="3.3298">
        <ele>172.5</ele>
      </trkpt>
      <trkpt lat="48.13299" lon="3.32966">
        <ele>172.5</ele>
      </trkpt>
      <trkpt lat="48.13315" lon="3.32955">
        <ele>173.5</ele>
      </trkpt>
      <trkpt lat="48.1332" lon="3.3295">
        <ele>173.6</ele>
      </trkpt>
      <trkpt lat="48.13324" lon="3.32948">
        <ele>173.7</ele>
        <time>2023-11-18T09:39:50Z</time>
      </trkpt>
      <trkpt lat="48.1333" lon="3.32943">
        <ele>173.9</ele>
        <time>2023-11-18T09:39:52Z</time>
      </trkpt>
      <trkpt lat="48.13343" lon="3.32925">
        <ele>174.5</ele>
        <time>2023-11-18T09:40:00Z</time>
      </trkpt>
      <trkpt lat="48.13355" lon="3.32912">
        <ele>174.7</ele>
      </trkpt>
      <trkpt lat="48.13347" lon="3.32895">
        <ele>174.1</ele>
        <time>2023-11-18T09:40:13Z</time>
      </trkpt>
      <trkpt lat="48.13338" lon="3.3287">
        <ele>173.3</ele>
        <time>2023-11-18T09:40:20Z</time>
      </trkpt>
      <trkpt lat="48.13331" lon="3.32853">
        <ele>172.8</ele>
        <time>2023-11-18T09:40:23Z</time>
      </trkpt>
      <trkpt lat="48.13318" lon="3.32826">
        <ele>171.9</ele>
        <time>2023-11-18T09:40:30Z</time>
      </trkpt>
      <trkpt lat="48.13308" lon="3.32808">
        <ele>171.2</ele>
        <time>2023-11-18T09:40:36Z</time>
      </trkpt>
      <trkpt lat="48.13297" lon="3.32788">
        <ele>171</ele>
      </trkpt>
      <trkpt lat="48.13277" lon="3.32766">
        <ele>170.4</ele>
        <time>2023-11-18T09:40:49Z</time>
      </trkpt>
      <trkpt lat="48.13247" lon="3.32733">
        <ele>170</ele>
        <time>2023-11-18T09:41:03Z</time>
      </trkpt>
      <trkpt lat="48.13237" lon="3.32709">
        <ele>170.5</ele>
        <time>2023-11-18T09:41:09Z</time>
      </trkpt>
      <trkpt lat="48.13226" lon="3.32684">
        <ele>170.6</ele>
        <time>2023-11-18T09:41:17Z</time>
      </trkpt>
      <trkpt lat="48.1321" lon="3.32647">
        <ele>171.1</ele>
        <time>2023-11-18T09:41:25Z</time>
      </trkpt>
      <trkpt lat="48.13206" lon="3.32639">
        <ele>171.4</ele>
        <time>2023-11-18T09:41:31Z</time>
      </trkpt>
      <trkpt lat="48.13168" lon="3.32591">
        <ele>172.5</ele>
        <time>2023-11-18T09:42:05Z</time>
      </trkpt>
      <trkpt lat="48.13149" lon="3.32561">
        <ele>172.5</ele>
        <time>2023-11-18T09:42:17Z</time>
      </trkpt>
      <trkpt lat="48.13106" lon="3.32496">
        <ele>172.7</ele>
        <time>2023-11-18T09:42:39Z</time>
      </trkpt>
      <trkpt lat="48.13092" lon="3.32474">
        <ele>172.3</ele>
        <time>2023-11-18T09:42:45Z</time>
      </trkpt>
      <trkpt lat="48.13076" lon="3.3245">
        <ele>172.7</ele>
        <time>2023-11-18T09:42:53Z</time>
      </trkpt>
      <trkpt lat="48.13033" lon="3.32338">
        <ele>172.8</ele>
        <time>2023-11-18T09:43:24Z</time>
      </trkpt>
      <trkpt lat="48.13019" lon="3.32299">
        <ele>172.1</ele>
        <time>2023-11-18T09:43:33Z</time>
      </trkpt>
      <trkpt lat="48.13005" lon="3.32262">
        <ele>171.3</ele>
        <time>2023-11-18T09:43:41Z</time>
      </trkpt>
      <trkpt lat="48.12993" lon="3.32234">
        <ele>170.7</ele>
        <time>2023-11-18T09:43:47Z</time>
      </trkpt>
      <trkpt lat="48.12986" lon="3.32216">
        <ele>170.4</ele>
      </trkpt>
      <trkpt lat="48.12983" lon="3.32206">
        <ele>170.4</ele>
      </trkpt>
      <trkpt lat="48.12979" lon="3.32197">
        <ele>170.5</ele>
        <time>2023-11-18T09:43:54Z</time>
      </trkpt>
      <trkpt lat="48.12964" lon="3.32158">
        <ele>169.3</ele>
        <time>2023-11-18T09:44:01Z</time>
      </trkpt>
      <trkpt lat="48.12963" lon="3.32139">
        <ele>168.7</ele>
        <time>2023-11-18T09:44:07Z</time>
      </trkpt>
      <trkpt lat="48.12962" lon="3.32117">
        <ele>167.2</ele>
        <time>2023-11-18T09:44:10Z</time>
      </trkpt>
      <trkpt lat="48.12962" lon="3.32098">
        <ele>166</ele>
        <time>2023-11-18T09:44:13Z</time>
      </trkpt>
      <trkpt lat="48.12959" lon="3.32041">
        <ele>162.4</ele>
        <time>2023-11-18T09:44:25Z</time>
      </trkpt>
      <trkpt lat="48.12957" lon="3.32011">
        <ele>160.4</ele>
        <time>2023-11-18T09:44:32Z</time>
      </trkpt>
      <trkpt lat="48.12955" lon="3.3201">
        <ele>160.6</ele>
        <time>2023-11-18T12:03:16.182Z</time>
      </trkpt>
      <trkpt lat="48.12953" lon="3.32009">
        <ele>160.7</ele>
        <time>2023-11-18T12:03:17.855Z</time>
      </trkpt>
      <trkpt lat="48.12952" lon="3.32007">
        <ele>160.7</ele>
        <time>2023-11-18T12:03:19.528Z</time>
      </trkpt>
      <trkpt lat="48.1295" lon="3.32007">
        <ele>160.9</ele>
        <time>2023-11-18T12:03:21.202Z</time>
      </trkpt>
      <trkpt lat="48.12949" lon="3.32006">
        <ele>160.9</ele>
        <time>2023-11-18T12:03:22.876Z</time>
      </trkpt>
      <trkpt lat="48.12947" lon="3.32005">
        <ele>161.1</ele>
        <time>2023-11-18T12:03:24.550Z</time>
      </trkpt>
      <trkpt lat="48.12935" lon="3.31999">
        <ele>161.9</ele>
        <time>2023-11-18T12:03:26.227Z</time>
      </trkpt>
      <trkpt lat="48.12929" lon="3.31994">
        <ele>162.1</ele>
        <time>2023-11-18T12:03:27.905Z</time>
      </trkpt>
      <trkpt lat="48.12927" lon="3.31993">
        <ele>162.2</ele>
        <time>2023-11-18T12:03:29.584Z</time>
      </trkpt>
      <trkpt lat="48.12925" lon="3.31991">
        <ele>162.2</ele>
        <time>2023-11-18T12:03:31.263Z</time>
      </trkpt>
      <trkpt lat="48.12923" lon="3.31991">
        <ele>162.4</ele>
        <time>2023-11-18T12:03:32.943Z</time>
      </trkpt>
      <trkpt lat="48.12922" lon="3.3199">
        <ele>162.4</ele>
        <time>2023-11-18T12:03:34.623Z</time>
      </trkpt>
      <trkpt lat="48.12921" lon="3.31989">
        <ele>162.4</ele>
        <time>2023-11-18T12:03:36.303Z</time>
      </trkpt>
      <trkpt lat="48.1292" lon="3.31989">
        <ele>162.5</ele>
        <time>2023-11-18T12:03:37.983Z</time>
      </trkpt>
      <trkpt lat="48.12916" lon="3.31988">
        <ele>162.8</ele>
        <time>2023-11-18T12:03:39.664Z</time>
      </trkpt>
      <trkpt lat="48.12913" lon="3.31987">
        <ele>162.9</ele>
        <time>2023-11-18T12:03:41.346Z</time>
      </trkpt>
      <trkpt lat="48.1291" lon="3.31986">
        <ele>163.1</ele>
        <time>2023-11-18T12:03:43.028Z</time>
      </trkpt>
      <trkpt lat="48.12907" lon="3.31985">
        <ele>163.3</ele>
        <time>2023-11-18T12:03:44.711Z</time>
      </trkpt>
      <trkpt lat="48.12905" lon="3.31984">
        <ele>163.4</ele>
        <time>2023-11-18T12:03:46.394Z</time>
      </trkpt>
      <trkpt lat="48.12902" lon="3.31984">
        <ele>163.6</ele>
        <time>2023-11-18T12:03:48.078Z</time>
      </trkpt>
      <trkpt lat="48.129" lon="3.31984">
        <ele>163.8</ele>
        <time>2023-11-18T12:03:49.762Z</time>
      </trkpt>
      <trkpt lat="48.12898" lon="3.31982">
        <ele>163.8</ele>
        <time>2023-11-18T12:03:51.447Z</time>
      </trkpt>
      <trkpt lat="48.12897" lon="3.31982">
        <ele>163.9</ele>
        <time>2023-11-18T12:03:53.132Z</time>
      </trkpt>
      <trkpt lat="48.12896" lon="3.31981">
        <ele>163.9</ele>
        <time>2023-11-18T12:03:54.817Z</time>
      </trkpt>
      <trkpt lat="48.12893" lon="3.31979">
        <ele>164.1</ele>
        <time>2023-11-18T12:03:56.503Z</time>
      </trkpt>
      <trkpt lat="48.12892" lon="3.31979">
        <ele>164.2</ele>
        <time>2023-11-18T12:03:58.189Z</time>
      </trkpt>
      <trkpt lat="48.1289" lon="3.31978">
        <ele>164.3</ele>
        <time>2023-11-18T12:03:59.875Z</time>
      </trkpt>
      <trkpt lat="48.12888" lon="3.31977">
        <ele>164.3</ele>
        <time>2023-11-18T12:04:01.562Z</time>
      </trkpt>
      <trkpt lat="48.12886" lon="3.31975">
        <ele>164.2</ele>
        <time>2023-11-18T12:04:03.249Z</time>
      </trkpt>
      <trkpt lat="48.12876" lon="3.31972">
        <ele>164</ele>
        <time>2023-11-18T12:04:04.938Z</time>
      </trkpt>
      <trkpt lat="48.12872" lon="3.3197">
        <ele>163.8</ele>
        <time>2023-11-18T12:04:06.628Z</time>
      </trkpt>
      <trkpt lat="48.12864" lon="3.31969">
        <ele>163.8</ele>
        <time>2023-11-18T12:04:08.320Z</time>
      </trkpt>
      <trkpt lat="48.12862" lon="3.3197">
        <ele>163.8</ele>
        <time>2023-11-18T12:04:10.012Z</time>
      </trkpt>
      <trkpt lat="48.1286" lon="3.3197">
        <ele>163.8</ele>
        <time>2023-11-18T12:04:11.705Z</time>
      </trkpt>
      <trkpt lat="48.12857" lon="3.3197">
        <ele>163.7</ele>
        <time>2023-11-18T12:04:13.398Z</time>
      </trkpt>
      <trkpt lat="48.12856" lon="3.31969">
        <ele>163.6</ele>
        <time>2023-11-18T12:04:15.091Z</time>
      </trkpt>
      <trkpt lat="48.12854" lon="3.31968">
        <ele>163.4</ele>
        <time>2023-11-18T12:04:16.785Z</time>
      </trkpt>
      <trkpt lat="48.12853" lon="3.31968">
        <ele>163.4</ele>
        <time>2023-11-18T12:04:18.479Z</time>
      </trkpt>
      <trkpt lat="48.12851" lon="3.31968">
        <ele>163.3</ele>
        <time>2023-11-18T12:04:20.173Z</time>
      </trkpt>
      <trkpt lat="48.12849" lon="3.31967">
        <ele>163.2</ele>
        <time>2023-11-18T12:04:21.868Z</time>
      </trkpt>
      <trkpt lat="48.12848" lon="3.31968">
        <ele>163.2</ele>
        <time>2023-11-18T12:04:23.563Z</time>
      </trkpt>
      <trkpt lat="48.12846" lon="3.31968">
        <ele>163.2</ele>
        <time>2023-11-18T12:04:25.259Z</time>
      </trkpt>
      <trkpt lat="48.12843" lon="3.31967">
        <ele>163</ele>
        <time>2023-11-18T12:04:26.955Z</time>
      </trkpt>
      <trkpt lat="48.12841" lon="3.31967">
        <ele>162.9</ele>
        <time>2023-11-18T12:04:28.652Z</time>
      </trkpt>
      <trkpt lat="48.1284" lon="3.31968">
        <ele>162.9</ele>
        <time>2023-11-18T12:04:30.349Z</time>
      </trkpt>
      <trkpt lat="48.12836" lon="3.31969">
        <ele>162.9</ele>
        <time>2023-11-18T12:04:32.046Z</time>
      </trkpt>
      <trkpt lat="48.12832" lon="3.3197">
        <ele>162.7</ele>
        <time>2023-11-18T12:04:33.744Z</time>
      </trkpt>
      <trkpt lat="48.12829" lon="3.31968">
        <ele>162.1</ele>
        <time>2023-11-18T12:04:35.443Z</time>
      </trkpt>
      <trkpt lat="48.12828" lon="3.31966">
        <ele>161.8</ele>
        <time>2023-11-18T12:04:37.142Z</time>
      </trkpt>
      <trkpt lat="48.12828" lon="3.31964">
        <ele>161.7</ele>
        <time>2023-11-18T12:04:38.842Z</time>
      </trkpt>
      <trkpt lat="48.12828" lon="3.31963">
        <ele>161.6</ele>
        <time>2023-11-18T12:04:40.542Z</time>
      </trkpt>
      <trkpt lat="48.12827" lon="3.3196">
        <ele>161.3</ele>
        <time>2023-11-18T12:04:42.242Z</time>
      </trkpt>
      <trkpt lat="48.12826" lon="3.3196">
        <ele>161.2</ele>
        <time>2023-11-18T12:04:43.942Z</time>
      </trkpt>
      <trkpt lat="48.12826" lon="3.31958">
        <ele>161.1</ele>
        <time>2023-11-18T12:04:45.643Z</time>
      </trkpt>
      <trkpt lat="48.12826" lon="3.31957">
        <ele>161</ele>
        <time>2023-11-18T12:04:47.344Z</time>
      </trkpt>
      <trkpt lat="48.12826" lon="3.31955">
        <ele>160.9</ele>
        <time>2023-11-18T12:04:49.045Z</time>
      </trkpt>
      <trkpt lat="48.12826" lon="3.31953">
        <ele>160.7</ele>
        <time>2023-11-18T12:04:50.746Z</time>
      </trkpt>
      <trkpt lat="48.12825" lon="3.31951">
        <ele>160.5</ele>
        <time>2023-11-18T12:04:52.448Z</time>
      </trkpt>
      <trkpt lat="48.12825" lon="3.3195">
        <ele>160.4</ele>
        <time>2023-11-18T12:04:54.150Z</time>
      </trkpt>
      <trkpt lat="48.12824" lon="3.31948">
        <ele>160.2</ele>
        <time>2023-11-18T12:04:55.852Z</time>
      </trkpt>
      <trkpt lat="48.12823" lon="3.31947">
        <ele>160</ele>
        <time>2023-11-18T12:04:57.554Z</time>
      </trkpt>
      <trkpt lat="48.12822" lon="3.31946">
        <ele>159.9</ele>
        <time>2023-11-18T12:04:59.256Z</time>
      </trkpt>
      <trkpt lat="48.12821" lon="3.31946">
        <ele>159.8</ele>
        <time>2023-11-18T12:05:00.959Z</time>
      </trkpt>
      <trkpt lat="48.12821" lon="3.31945">
        <ele>159.7</ele>
        <time>2023-11-18T12:05:02.662Z</time>
      </trkpt>
      <trkpt lat="48.1282" lon="3.31945">
        <ele>159.6</ele>
        <time>2023-11-18T12:05:04.365Z</time>
      </trkpt>
      <trkpt lat="48.12818" lon="3.31943">
        <ele>159.2</ele>
        <time>2023-11-18T12:05:06.068Z</time>
      </trkpt>
      <trkpt lat="48.12816" lon="3.31942">
        <ele>159</ele>
        <time>2023-11-18T12:05:07.772Z</time>
      </trkpt>
      <trkpt lat="48.12814" lon="3.3194">
        <ele>158.6</ele>
        <time>2023-11-18T12:05:09.476Z</time>
      </trkpt>
      <trkpt lat="48.12813" lon="3.31939">
        <ele>158.4</ele>
        <time>2023-11-18T12:05:11.181Z</time>
      </trkpt>
      <trkpt lat="48.12811" lon="3.31938">
        <ele>158.1</ele>
        <time>2023-11-18T12:05:12.886Z</time>
      </trkpt>
      <trkpt lat="48.12809" lon="3.31935">
        <ele>157.7</ele>
        <time>2023-11-18T12:05:14.591Z</time>
      </trkpt>
      <trkpt lat="48.12809" lon="3.31932">
        <ele>157.5</ele>
        <time>2023-11-18T12:05:16.297Z</time>
      </trkpt>
      <trkpt lat="48.12808" lon="3.31929">
        <ele>157.2</ele>
        <time>2023-11-18T12:05:18.003Z</time>
      </trkpt>
      <trkpt lat="48.12808" lon="3.31928">
        <ele>157.1</ele>
        <time>2023-11-18T12:05:19.709Z</time>
      </trkpt>
      <trkpt lat="48.12807" lon="3.31926">
        <ele>156.8</ele>
        <time>2023-11-18T12:05:21.416Z</time>
      </trkpt>
      <trkpt lat="48.12806" lon="3.31924">
        <ele>156.6</ele>
        <time>2023-11-18T12:05:23.123Z</time>
      </trkpt>
      <trkpt lat="48.12806" lon="3.31922">
        <ele>156.4</ele>
        <time>2023-11-18T12:05:24.830Z</time>
      </trkpt>
      <trkpt lat="48.12806" lon="3.3192">
        <ele>156.3</ele>
        <time>2023-11-18T12:05:26.538Z</time>
      </trkpt>
      <trkpt lat="48.12806" lon="3.31918">
        <ele>156.1</ele>
        <time>2023-11-18T12:05:28.246Z</time>
      </trkpt>
      <trkpt lat="48.12806" lon="3.31916">
        <ele>156</ele>
        <time>2023-11-18T12:05:29.954Z</time>
      </trkpt>
      <trkpt lat="48.12806" lon="3.31913">
        <ele>156</ele>
        <time>2023-11-18T12:05:31.663Z</time>
      </trkpt>
      <trkpt lat="48.12805" lon="3.3191">
        <ele>155.9</ele>
        <time>2023-11-18T12:05:33.372Z</time>
      </trkpt>
      <trkpt lat="48.12803" lon="3.31903">
        <ele>155.8</ele>
        <time>2023-11-18T12:05:35.082Z</time>
        <extensions>
          <visugpx:TrkExtension xmlns:visugpx="https://www.visugpx.com/editgpx/">
            <visugpx:node>1</visugpx:node>
            </visugpx:TrkExtension>
        </extensions>
      </trkpt>
      <trkpt lat="48.12797" lon="3.31888">
        <ele>155.4</ele>
        <extensions>
          <visugpx:TrkExtension xmlns:visugpx="https://www.visugpx.com/editgpx/">
            <visugpx:node>3</visugpx:node>
            </visugpx:TrkExtension>
        </extensions>
      </trkpt>
    </trkseg>
  </trk>
  <trk>
    <name><![CDATA[BR6 Normal]]></name>
    <extensions>
      <line xmlns="http://www.topografix.com/GPX/gpx_style/0/2">
        <color>00ffff</color>
        <opacity>1</opacity>
        <width>6</width>
      </line>
    </extensions>
    <trkseg>
      <trkpt lat="48.12597" lon="3.30839">
        <ele>80.7</ele>
        <time>2023-11-18T09:58:50Z</time>
      </trkpt>
      <trkpt lat="48.12606" lon="3.30849">
        <ele>80.7</ele>
      </trkpt>
      <trkpt lat="48.12583" lon="3.3088">
        <ele>82</ele>
        <time>2023-11-18T09:58:43Z</time>
      </trkpt>
      <trkpt lat="48.12579" lon="3.30886">
        <ele>82</ele>
        <time>2023-11-18T09:58:42Z</time>
      </trkpt>
      <trkpt lat="48.12586" lon="3.30893">
        <ele>82.4</ele>
        <time>2023-11-18T09:58:40Z</time>
      </trkpt>
      <trkpt lat="48.12597" lon="3.30903">
        <ele>83.5</ele>
        <time>2023-11-18T09:58:37Z</time>
      </trkpt>
      <trkpt lat="48.12622" lon="3.30929">
        <ele>85.3</ele>
        <time>2023-11-18T09:58:29Z</time>
      </trkpt>
      <trkpt lat="48.12628" lon="3.30936">
        <ele>85.6</ele>
      </trkpt>
      <trkpt lat="48.1263" lon="3.30941">
        <ele>86</ele>
      </trkpt>
      <trkpt lat="48.1263" lon="3.30948">
        <ele>86.6</ele>
        <time>2023-11-18T09:58:24Z</time>
      </trkpt>
      <trkpt lat="48.12622" lon="3.30973">
        <ele>88.7</ele>
        <time>2023-11-18T09:58:22Z</time>
      </trkpt>
      <trkpt lat="48.12623" lon="3.30979">
        <ele>89</ele>
        <time>2023-11-18T09:58:17Z</time>
      </trkpt>
      <trkpt lat="48.12628" lon="3.30988">
        <ele>89.2</ele>
        <time>2023-11-18T09:58:14Z</time>
      </trkpt>
      <trkpt lat="48.1263" lon="3.30991">
        <ele>89.2</ele>
        <time>2023-11-18T09:58:13Z</time>
      </trkpt>
      <trkpt lat="48.12634" lon="3.30996">
        <ele>89.2</ele>
      </trkpt>
      <trkpt lat="48.12635" lon="3.31008">
        <ele>89.5</ele>
      </trkpt>
      <trkpt lat="48.12634" lon="3.3102">
        <ele>89.9</ele>
        <time>2023-11-18T09:58:08Z</time>
      </trkpt>
      <trkpt lat="48.12631" lon="3.31037">
        <ele>90.6</ele>
      </trkpt>
      <trkpt lat="48.12621" lon="3.31094">
        <ele>93.4</ele>
        <time>2023-11-18T09:57:55Z</time>
      </trkpt>
      <trkpt lat="48.12618" lon="3.31117">
        <ele>94.4</ele>
        <time>2023-11-18T09:57:50Z</time>
      </trkpt>
      <trkpt lat="48.12642" lon="3.31125">
        <ele>94.9</ele>
        <time>2023-11-18T09:57:42Z</time>
      </trkpt>
      <trkpt lat="48.12659" lon="3.31132">
        <ele>94.8</ele>
        <time>2023-11-18T09:57:34Z</time>
      </trkpt>
      <trkpt lat="48.1267" lon="3.31138">
        <ele>94.8</ele>
      </trkpt>
      <trkpt lat="48.12681" lon="3.31148">
        <ele>95.3</ele>
        <time>2023-11-18T09:57:25Z</time>
      </trkpt>
      <trkpt lat="48.12696" lon="3.31166">
        <ele>95.8</ele>
        <time>2023-11-18T09:57:16Z</time>
      </trkpt>
      <trkpt lat="48.12697" lon="3.31166">
        <ele>95.8</ele>
        <time>2023-11-18T09:56:25Z</time>
      </trkpt>
      <trkpt lat="48.12708" lon="3.31178">
        <ele>96</ele>
        <time>2023-11-18T09:56:09Z</time>
      </trkpt>
      <trkpt lat="48.12732" lon="3.31201">
        <ele>96.5</ele>
        <time>2023-11-18T09:56:00Z</time>
      </trkpt>
      <trkpt lat="48.12752" lon="3.31218">
        <ele>96.3</ele>
        <time>2023-11-18T09:55:52Z</time>
      </trkpt>
      <trkpt lat="48.12757" lon="3.31222">
        <ele>96</ele>
        <time>2023-11-18T09:55:50Z</time>
      </trkpt>
      <trkpt lat="48.12766" lon="3.3123">
        <ele>95.5</ele>
        <time>2023-11-18T09:55:46Z</time>
      </trkpt>
      <trkpt lat="48.12794" lon="3.31261">
        <ele>95</ele>
        <time>2023-11-18T09:55:37Z</time>
      </trkpt>
      <trkpt lat="48.12803" lon="3.3127">
        <ele>94.6</ele>
        <time>2023-11-18T09:55:35Z</time>
      </trkpt>
      <trkpt lat="48.12815" lon="3.31286">
        <ele>95.3</ele>
        <time>2023-11-18T09:55:30Z</time>
      </trkpt>
      <trkpt lat="48.12824" lon="3.31315">
        <ele>97.5</ele>
      </trkpt>
      <trkpt lat="48.12829" lon="3.31329">
        <ele>98.3</ele>
        <time>2023-11-18T09:55:26Z</time>
      </trkpt>
      <trkpt lat="48.12865" lon="3.31359">
        <ele>98.4</ele>
        <time>2023-11-18T09:55:12Z</time>
      </trkpt>
      <trkpt lat="48.1289" lon="3.31378">
        <ele>97.8</ele>
        <time>2023-11-18T09:55:03Z</time>
      </trkpt>
      <trkpt lat="48.12907" lon="3.31389">
        <ele>97.7</ele>
        <time>2023-11-18T09:54:55Z</time>
      </trkpt>
      <trkpt lat="48.12914" lon="3.31391">
        <ele>97.4</ele>
      </trkpt>
      <trkpt lat="48.12909" lon="3.31413">
        <ele>100.2</ele>
        <time>2023-11-18T09:54:46Z</time>
      </trkpt>
      <trkpt lat="48.12906" lon="3.31426">
        <ele>102.1</ele>
      </trkpt>
      <trkpt lat="48.12904" lon="3.31436">
        <ele>103.7</ele>
        <time>2023-11-18T09:52:39Z</time>
      </trkpt>
      <trkpt lat="48.12903" lon="3.3145">
        <ele>105.7</ele>
        <time>2023-11-18T09:52:29Z</time>
      </trkpt>
      <trkpt lat="48.12906" lon="3.31457">
        <ele>106.3</ele>
        <time>2023-11-18T09:52:22Z</time>
      </trkpt>
      <trkpt lat="48.12915" lon="3.31481">
        <ele>108.4</ele>
        <time>2023-11-18T09:52:17Z</time>
      </trkpt>
      <trkpt lat="48.12927" lon="3.31509">
        <ele>111</ele>
        <time>2023-11-18T09:52:12Z</time>
      </trkpt>
      <trkpt lat="48.12937" lon="3.3154">
        <ele>114</ele>
        <time>2023-11-18T09:52:07Z</time>
      </trkpt>
      <trkpt lat="48.12941" lon="3.31553">
        <ele>115.1</ele>
        <time>2023-11-18T09:52:05Z</time>
      </trkpt>
      <trkpt lat="48.12948" lon="3.3158">
        <ele>117.4</ele>
        <time>2023-11-18T09:52:00Z</time>
      </trkpt>
      <trkpt lat="48.12957" lon="3.31614">
        <ele>120.4</ele>
        <time>2023-11-18T09:51:54Z</time>
      </trkpt>
      <trkpt lat="48.12972" lon="3.3166">
        <ele>123.3</ele>
        <time>2023-11-18T09:51:45Z</time>
      </trkpt>
      <trkpt lat="48.12979" lon="3.31682">
        <ele>124.9</ele>
        <time>2023-11-18T09:51:38Z</time>
      </trkpt>
      <trkpt lat="48.12979" lon="3.31685">
        <ele>125.2</ele>
        <time>2023-11-18T08:30:42Z</time>
      </trkpt>
      <trkpt lat="48.12982" lon="3.31693">
        <ele>125.8</ele>
      </trkpt>
      <trkpt lat="48.12981" lon="3.31691">
        <ele>125.7</ele>
        <time>2023-11-18T11:25:17.740Z</time>
        <extensions>
          <visugpx:TrkExtension xmlns:visugpx="https://www.visugpx.com/editgpx/">
            <visugpx:node>1</visugpx:node>
            </visugpx:TrkExtension>
        </extensions>
      </trkpt>
      <trkpt lat="48.1298" lon="3.31689">
        <ele>125.6</ele>
        <time>2023-11-18T11:25:17.499Z</time>
      </trkpt>
      <trkpt lat="48.12979" lon="3.31689">
        <ele>125.7</ele>
        <time>2023-11-18T11:25:17.258Z</time>
      </trkpt>
      <trkpt lat="48.12978" lon="3.3169">
        <ele>125.9</ele>
        <time>2023-11-18T11:25:17.018Z</time>
      </trkpt>
      <trkpt lat="48.1297" lon="3.317">
        <ele>127.9</ele>
        <time>2023-11-18T11:25:16.778Z</time>
      </trkpt>
      <trkpt lat="48.12969" lon="3.31703">
        <ele>128.4</ele>
        <time>2023-11-18T11:25:16.540Z</time>
      </trkpt>
      <trkpt lat="48.12966" lon="3.31707">
        <ele>129.3</ele>
        <time>2023-11-18T11:25:16.302Z</time>
      </trkpt>
      <trkpt lat="48.12964" lon="3.3171">
        <ele>129.9</ele>
        <time>2023-11-18T11:25:16.065Z</time>
      </trkpt>
      <trkpt lat="48.12962" lon="3.31712">
        <ele>130.4</ele>
        <time>2023-11-18T11:25:15.829Z</time>
      </trkpt>
      <trkpt lat="48.1296" lon="3.31713">
        <ele>130.8</ele>
        <time>2023-11-18T11:25:15.593Z</time>
      </trkpt>
      <trkpt lat="48.12955" lon="3.31714">
        <ele>131.6</ele>
        <time>2023-11-18T11:25:15.357Z</time>
      </trkpt>
      <trkpt lat="48.12954" lon="3.31713">
        <ele>131.6</ele>
        <time>2023-11-18T11:25:15.122Z</time>
      </trkpt>
      <trkpt lat="48.12953" lon="3.31712">
        <ele>131.7</ele>
        <time>2023-11-18T11:25:14.888Z</time>
      </trkpt>
      <trkpt lat="48.12952" lon="3.31711">
        <ele>131.7</ele>
        <time>2023-11-18T11:25:14.654Z</time>
      </trkpt>
      <trkpt lat="48.12949" lon="3.31711">
        <ele>132.1</ele>
        <time>2023-11-18T11:25:14.420Z</time>
      </trkpt>
      <trkpt lat="48.12946" lon="3.31712">
        <ele>132.7</ele>
        <time>2023-11-18T11:25:14.187Z</time>
      </trkpt>
      <trkpt lat="48.12945" lon="3.31712">
        <ele>132.8</ele>
        <time>2023-11-18T11:25:13.954Z</time>
      </trkpt>
      <trkpt lat="48.12944" lon="3.31713">
        <ele>133.1</ele>
        <time>2023-11-18T11:25:13.722Z</time>
      </trkpt>
      <trkpt lat="48.12942" lon="3.31713">
        <ele>133.3</ele>
        <time>2023-11-18T11:25:13.490Z</time>
      </trkpt>
      <trkpt lat="48.12938" lon="3.3171">
        <ele>133.5</ele>
        <time>2023-11-18T11:25:13.258Z</time>
      </trkpt>
      <trkpt lat="48.12937" lon="3.31709">
        <ele>133.5</ele>
        <time>2023-11-18T11:25:13.027Z</time>
      </trkpt>
      <trkpt lat="48.12936" lon="3.31708">
        <ele>133.5</ele>
        <time>2023-11-18T11:25:12.797Z</time>
      </trkpt>
      <trkpt lat="48.12936" lon="3.31708">
        <ele>133.5</ele>
        <time>2023-11-18T11:25:12.567Z</time>
      </trkpt>
      <trkpt lat="48.12934" lon="3.31708">
        <ele>133.8</ele>
        <time>2023-11-18T11:25:12.337Z</time>
      </trkpt>
      <trkpt lat="48.12933" lon="3.3171">
        <ele>134.1</ele>
        <time>2023-11-18T11:25:12.107Z</time>
      </trkpt>
      <trkpt lat="48.1293" lon="3.31724">
        <ele>136.3</ele>
        <time>2023-11-18T11:25:11.877Z</time>
      </trkpt>
      <trkpt lat="48.12929" lon="3.3173">
        <ele>137.2</ele>
        <time>2023-11-18T11:25:11.649Z</time>
      </trkpt>
      <trkpt lat="48.12929" lon="3.31735">
        <ele>137.8</ele>
        <time>2023-11-18T11:25:11.422Z</time>
      </trkpt>
      <trkpt lat="48.12929" lon="3.31737">
        <ele>138.1</ele>
        <time>2023-11-18T11:25:11.196Z</time>
      </trkpt>
      <trkpt lat="48.12929" lon="3.31738">
        <ele>138.2</ele>
        <time>2023-11-18T11:25:10.970Z</time>
      </trkpt>
      <trkpt lat="48.12926" lon="3.3174">
        <ele>138.8</ele>
        <time>2023-11-18T11:25:10.744Z</time>
      </trkpt>
      <trkpt lat="48.12925" lon="3.31742">
        <ele>139.1</ele>
        <time>2023-11-18T11:25:10.519Z</time>
      </trkpt>
      <trkpt lat="48.12923" lon="3.31742">
        <ele>139.4</ele>
        <time>2023-11-18T11:25:10.294Z</time>
      </trkpt>
      <trkpt lat="48.12922" lon="3.31742">
        <ele>139.5</ele>
        <time>2023-11-18T11:25:10.070Z</time>
      </trkpt>
      <trkpt lat="48.1292" lon="3.31742">
        <ele>139.7</ele>
        <time>2023-11-18T11:25:09.846Z</time>
      </trkpt>
      <trkpt lat="48.12918" lon="3.31742">
        <ele>140</ele>
        <time>2023-11-18T11:25:09.622Z</time>
      </trkpt>
      <trkpt lat="48.12918" lon="3.31742">
        <ele>140</ele>
        <time>2023-11-18T11:25:09.399Z</time>
      </trkpt>
      <trkpt lat="48.12917" lon="3.31741">
        <ele>140</ele>
        <time>2023-11-18T11:25:09.176Z</time>
      </trkpt>
      <trkpt lat="48.12915" lon="3.31742">
        <ele>140.4</ele>
        <time>2023-11-18T11:25:08.953Z</time>
      </trkpt>
      <trkpt lat="48.12914" lon="3.31742">
        <ele>140.5</ele>
        <time>2023-11-18T11:25:08.730Z</time>
      </trkpt>
      <trkpt lat="48.12913" lon="3.31744">
        <ele>140.9</ele>
        <time>2023-11-18T11:25:08.508Z</time>
      </trkpt>
      <trkpt lat="48.12913" lon="3.31745">
        <ele>141</ele>
        <time>2023-11-18T11:25:08.286Z</time>
      </trkpt>
      <trkpt lat="48.12909" lon="3.31748">
        <ele>141.9</ele>
        <time>2023-11-18T11:25:08.064Z</time>
      </trkpt>
      <trkpt lat="48.12906" lon="3.31749">
        <ele>142.4</ele>
        <time>2023-11-18T11:25:07.843Z</time>
      </trkpt>
      <trkpt lat="48.12903" lon="3.3175">
        <ele>143</ele>
        <time>2023-11-18T11:25:07.622Z</time>
      </trkpt>
      <trkpt lat="48.12902" lon="3.3175">
        <ele>143.1</ele>
        <time>2023-11-18T11:25:07.402Z</time>
      </trkpt>
      <trkpt lat="48.129" lon="3.31752">
        <ele>143.6</ele>
        <time>2023-11-18T11:25:07.182Z</time>
      </trkpt>
      <trkpt lat="48.12899" lon="3.31755">
        <ele>144.1</ele>
        <time>2023-11-18T11:25:06.963Z</time>
      </trkpt>
      <trkpt lat="48.12899" lon="3.31757">
        <ele>144.4</ele>
        <time>2023-11-18T11:25:06.744Z</time>
      </trkpt>
      <trkpt lat="48.12899" lon="3.3176">
        <ele>144.8</ele>
        <time>2023-11-18T11:25:06.526Z</time>
      </trkpt>
      <trkpt lat="48.12899" lon="3.31761">
        <ele>144.9</ele>
        <time>2023-11-18T11:25:06.308Z</time>
      </trkpt>
      <trkpt lat="48.12899" lon="3.31763">
        <ele>145.1</ele>
        <time>2023-11-18T11:25:06.090Z</time>
      </trkpt>
      <trkpt lat="48.12898" lon="3.31765">
        <ele>145.5</ele>
        <time>2023-11-18T11:25:05.872Z</time>
      </trkpt>
      <trkpt lat="48.12898" lon="3.31768">
        <ele>145.8</ele>
        <time>2023-11-18T11:25:05.655Z</time>
      </trkpt>
      <trkpt lat="48.12898" lon="3.3177">
        <ele>146.1</ele>
        <time>2023-11-18T11:25:05.438Z</time>
      </trkpt>
      <trkpt lat="48.12897" lon="3.31772">
        <ele>146.4</ele>
        <time>2023-11-18T11:25:05.221Z</time>
      </trkpt>
      <trkpt lat="48.12895" lon="3.31775">
        <ele>147</ele>
        <time>2023-11-18T11:25:05.005Z</time>
      </trkpt>
      <trkpt lat="48.12893" lon="3.31777">
        <ele>147.5</ele>
        <time>2023-11-18T11:25:04.789Z</time>
      </trkpt>
      <trkpt lat="48.12893" lon="3.31778">
        <ele>147.6</ele>
        <time>2023-11-18T11:25:04.574Z</time>
      </trkpt>
      <trkpt lat="48.12892" lon="3.31782">
        <ele>148</ele>
        <time>2023-11-18T11:25:04.359Z</time>
      </trkpt>
      <trkpt lat="48.1289" lon="3.31784">
        <ele>148.3</ele>
        <time>2023-11-18T11:25:04.144Z</time>
      </trkpt>
      <trkpt lat="48.12889" lon="3.31784">
        <ele>148.4</ele>
        <time>2023-11-18T11:25:03.930Z</time>
      </trkpt>
      <trkpt lat="48.12887" lon="3.31784">
        <ele>148.6</ele>
        <time>2023-11-18T11:25:03.716Z</time>
      </trkpt>
      <trkpt lat="48.12886" lon="3.31784">
        <ele>148.7</ele>
        <time>2023-11-18T11:25:03.502Z</time>
      </trkpt>
      <trkpt lat="48.12881" lon="3.31787">
        <ele>149.2</ele>
        <time>2023-11-18T11:25:03.289Z</time>
      </trkpt>
      <trkpt lat="48.12879" lon="3.31787">
        <ele>149.4</ele>
        <time>2023-11-18T11:25:03.077Z</time>
      </trkpt>
      <trkpt lat="48.12875" lon="3.31787">
        <ele>149.7</ele>
        <time>2023-11-18T11:25:02.865Z</time>
      </trkpt>
      <trkpt lat="48.12874" lon="3.31786">
        <ele>149.7</ele>
        <time>2023-11-18T11:25:02.654Z</time>
      </trkpt>
      <trkpt lat="48.12872" lon="3.31787">
        <ele>149.9</ele>
        <time>2023-11-18T11:25:02.443Z</time>
      </trkpt>
      <trkpt lat="48.1287" lon="3.31788">
        <ele>150.1</ele>
        <time>2023-11-18T11:25:02.233Z</time>
      </trkpt>
      <trkpt lat="48.12869" lon="3.31789">
        <ele>150.2</ele>
        <time>2023-11-18T11:25:02.023Z</time>
      </trkpt>
      <trkpt lat="48.12867" lon="3.3179">
        <ele>150.5</ele>
        <time>2023-11-18T11:25:01.813Z</time>
      </trkpt>
      <trkpt lat="48.12866" lon="3.31792">
        <ele>150.7</ele>
        <time>2023-11-18T11:25:01.604Z</time>
      </trkpt>
      <trkpt lat="48.12864" lon="3.31798">
        <ele>151.2</ele>
        <time>2023-11-18T11:25:01.395Z</time>
      </trkpt>
      <trkpt lat="48.12864" lon="3.31798">
        <ele>151.2</ele>
        <time>2023-11-18T11:25:01.187Z</time>
      </trkpt>
      <trkpt lat="48.12863" lon="3.31801">
        <ele>151.5</ele>
        <time>2023-11-18T11:25:00.979Z</time>
      </trkpt>
      <trkpt lat="48.12862" lon="3.31803">
        <ele>151.8</ele>
        <time>2023-11-18T11:25:00.771Z</time>
      </trkpt>
      <trkpt lat="48.12861" lon="3.31805">
        <ele>152</ele>
        <time>2023-11-18T11:25:00.564Z</time>
      </trkpt>
      <trkpt lat="48.1286" lon="3.31806">
        <ele>152.1</ele>
        <time>2023-11-18T11:25:00.357Z</time>
      </trkpt>
      <trkpt lat="48.12858" lon="3.31808">
        <ele>152.4</ele>
        <time>2023-11-18T11:25:00.150Z</time>
      </trkpt>
      <trkpt lat="48.12856" lon="3.31811">
        <ele>152.7</ele>
        <time>2023-11-18T11:24:59.944Z</time>
      </trkpt>
      <trkpt lat="48.12855" lon="3.31814">
        <ele>153</ele>
        <time>2023-11-18T11:24:59.738Z</time>
      </trkpt>
      <trkpt lat="48.12855" lon="3.31819">
        <ele>153.3</ele>
        <time>2023-11-18T11:24:59.533Z</time>
      </trkpt>
      <trkpt lat="48.12854" lon="3.31822">
        <ele>153.5</ele>
        <time>2023-11-18T11:24:59.328Z</time>
      </trkpt>
      <trkpt lat="48.12853" lon="3.31823">
        <ele>153.7</ele>
        <time>2023-11-18T11:24:59.124Z</time>
      </trkpt>
      <trkpt lat="48.12851" lon="3.31825">
        <ele>153.9</ele>
        <time>2023-11-18T11:24:58.920Z</time>
      </trkpt>
      <trkpt lat="48.1285" lon="3.31825">
        <ele>153.9</ele>
        <time>2023-11-18T11:24:58.716Z</time>
      </trkpt>
      <trkpt lat="48.12849" lon="3.31826">
        <ele>154</ele>
        <time>2023-11-18T11:24:58.513Z</time>
      </trkpt>
      <trkpt lat="48.12846" lon="3.31834">
        <ele>154.6</ele>
        <time>2023-11-18T11:24:58.310Z</time>
      </trkpt>
      <trkpt lat="48.12845" lon="3.31835">
        <ele>154.7</ele>
        <time>2023-11-18T11:24:58.108Z</time>
      </trkpt>
      <trkpt lat="48.12847" lon="3.31843">
        <ele>155</ele>
        <time>2023-11-18T11:24:57.906Z</time>
      </trkpt>
      <trkpt lat="48.12838" lon="3.31856">
        <ele>155.8</ele>
        <time>2023-11-18T11:24:57.706Z</time>
      </trkpt>
      <trkpt lat="48.12835" lon="3.31858">
        <ele>155.9</ele>
        <time>2023-11-18T11:24:57.508Z</time>
      </trkpt>
      <trkpt lat="48.12833" lon="3.3186">
        <ele>156</ele>
        <time>2023-11-18T11:24:57.311Z</time>
      </trkpt>
      <trkpt lat="48.12831" lon="3.3186">
        <ele>156</ele>
        <time>2023-11-18T11:24:57.114Z</time>
      </trkpt>
      <trkpt lat="48.12829" lon="3.31862">
        <ele>156</ele>
        <time>2023-11-18T11:24:56.918Z</time>
      </trkpt>
      <trkpt lat="48.12823" lon="3.31863">
        <ele>156</ele>
        <time>2023-11-18T11:24:56.722Z</time>
      </trkpt>
      <trkpt lat="48.1282" lon="3.31863">
        <ele>156</ele>
        <time>2023-11-18T11:24:56.527Z</time>
      </trkpt>
      <trkpt lat="48.12818" lon="3.31863">
        <ele>156</ele>
        <time>2023-11-18T11:24:56.333Z</time>
      </trkpt>
      <trkpt lat="48.12815" lon="3.31862">
        <ele>156</ele>
        <time>2023-11-18T11:24:56.139Z</time>
      </trkpt>
      <trkpt lat="48.1281" lon="3.31868">
        <ele>156</ele>
        <time>2023-11-18T11:24:55.946Z</time>
      </trkpt>
      <trkpt lat="48.12809" lon="3.3187">
        <ele>156</ele>
        <time>2023-11-18T11:24:55.754Z</time>
      </trkpt>
      <trkpt lat="48.12807" lon="3.31874">
        <ele>156</ele>
        <time>2023-11-18T11:24:55.563Z</time>
      </trkpt>
      <trkpt lat="48.12804" lon="3.31879">
        <ele>155.9</ele>
        <time>2023-11-18T11:24:55.372Z</time>
      </trkpt>
      <trkpt lat="48.12804" lon="3.3188">
        <ele>155.9</ele>
        <time>2023-11-18T11:24:55.182Z</time>
      </trkpt>
      <trkpt lat="48.12803" lon="3.31881">
        <ele>155.8</ele>
        <time>2023-11-18T11:24:54.992Z</time>
      </trkpt>
      <trkpt lat="48.12801" lon="3.31883">
        <ele>155.7</ele>
        <time>2023-11-18T11:24:54.803Z</time>
      </trkpt>
      <trkpt lat="48.128" lon="3.31884">
        <ele>155.6</ele>
        <time>2023-11-18T11:24:54.614Z</time>
      </trkpt>
      <trkpt lat="48.12799" lon="3.31885">
        <ele>155.6</ele>
        <time>2023-11-18T11:24:54.425Z</time>
      </trkpt>
      <trkpt lat="48.12798" lon="3.31886">
        <ele>155.5</ele>
        <time>2023-11-18T11:24:54.236Z</time>
      </trkpt>
      <trkpt lat="48.12797" lon="3.31886">
        <ele>155.4</ele>
        <time>2023-11-18T11:24:54.048Z</time>
      </trkpt>
      <trkpt lat="48.12795" lon="3.31886">
        <ele>155.3</ele>
        <time>2023-11-18T11:24:53.860Z</time>
      </trkpt>
      <trkpt lat="48.12794" lon="3.31885">
        <ele>155.2</ele>
        <time>2023-11-18T11:24:53.672Z</time>
      </trkpt>
      <trkpt lat="48.12793" lon="3.31884">
        <ele>155.2</ele>
        <time>2023-11-18T11:24:53.484Z</time>
      </trkpt>
      <trkpt lat="48.12792" lon="3.31882">
        <ele>155.1</ele>
        <time>2023-11-18T11:24:53.297Z</time>
      </trkpt>
      <trkpt lat="48.12792" lon="3.31882">
        <ele>155.1</ele>
        <time>2023-11-18T11:24:53.110Z</time>
      </trkpt>
      <trkpt lat="48.1279" lon="3.31882">
        <ele>155</ele>
        <time>2023-11-18T11:24:52.923Z</time>
      </trkpt>
      <trkpt lat="48.12788" lon="3.31883">
        <ele>154.9</ele>
        <time>2023-11-18T11:24:52.736Z</time>
      </trkpt>
      <trkpt lat="48.12787" lon="3.31883">
        <ele>154.8</ele>
        <time>2023-11-18T11:24:52.550Z</time>
      </trkpt>
      <trkpt lat="48.12784" lon="3.31883">
        <ele>154.6</ele>
        <time>2023-11-18T11:24:52.364Z</time>
      </trkpt>
      <trkpt lat="48.12783" lon="3.31883">
        <ele>154.5</ele>
        <time>2023-11-18T11:24:52.179Z</time>
      </trkpt>
      <trkpt lat="48.12782" lon="3.31884">
        <ele>154.5</ele>
        <time>2023-11-18T11:24:51.994Z</time>
      </trkpt>
      <trkpt lat="48.12782" lon="3.31884">
        <ele>154.5</ele>
        <time>2023-11-18T11:24:51.809Z</time>
      </trkpt>
      <trkpt lat="48.12781" lon="3.31885">
        <ele>154.4</ele>
        <time>2023-11-18T11:24:51.624Z</time>
      </trkpt>
      <trkpt lat="48.12779" lon="3.31887">
        <ele>154.2</ele>
        <time>2023-11-18T11:24:51.439Z</time>
      </trkpt>
      <trkpt lat="48.12778" lon="3.31888">
        <ele>154</ele>
        <time>2023-11-18T11:24:51.255Z</time>
      </trkpt>
      <trkpt lat="48.12775" lon="3.31892">
        <ele>153.5</ele>
        <time>2023-11-18T11:24:51.071Z</time>
      </trkpt>
      <trkpt lat="48.12774" lon="3.31892">
        <ele>153.3</ele>
        <time>2023-11-18T11:24:50.888Z</time>
      </trkpt>
      <trkpt lat="48.12774" lon="3.31892">
        <ele>153.3</ele>
        <time>2023-11-18T11:24:50.705Z</time>
      </trkpt>
      <trkpt lat="48.12774" lon="3.31892">
        <ele>153.3</ele>
        <time>2023-11-18T11:24:50.522Z</time>
      </trkpt>
      <trkpt lat="48.12773" lon="3.31892">
        <ele>153.2</ele>
        <time>2023-11-18T11:24:50.339Z</time>
      </trkpt>
      <trkpt lat="48.12768" lon="3.31892">
        <ele>152.5</ele>
        <time>2023-11-18T11:24:50.156Z</time>
      </trkpt>
      <trkpt lat="48.12766" lon="3.31893">
        <ele>152.2</ele>
        <time>2023-11-18T11:24:49.974Z</time>
      </trkpt>
      <trkpt lat="48.12765" lon="3.31892">
        <ele>152</ele>
        <time>2023-11-18T11:24:49.793Z</time>
      </trkpt>
      <trkpt lat="48.12765" lon="3.31892">
        <ele>152</ele>
        <time>2023-11-18T11:24:49.612Z</time>
      </trkpt>
      <trkpt lat="48.12764" lon="3.31889">
        <ele>152</ele>
        <time>2023-11-18T11:24:49.431Z</time>
      </trkpt>
      <trkpt lat="48.12764" lon="3.31887">
        <ele>152.1</ele>
        <time>2023-11-18T11:24:49.250Z</time>
      </trkpt>
      <trkpt lat="48.12763" lon="3.31885">
        <ele>151.9</ele>
        <time>2023-11-18T11:24:49.070Z</time>
      </trkpt>
      <trkpt lat="48.12763" lon="3.31884">
        <ele>152</ele>
        <time>2023-11-18T11:24:48.890Z</time>
      </trkpt>
      <trkpt lat="48.12763" lon="3.31882">
        <ele>152</ele>
        <time>2023-11-18T11:24:48.710Z</time>
      </trkpt>
      <trkpt lat="48.12762" lon="3.31881">
        <ele>151.9</ele>
        <time>2023-11-18T11:24:48.530Z</time>
      </trkpt>
      <trkpt lat="48.12762" lon="3.31881">
        <ele>151.9</ele>
        <time>2023-11-18T11:24:48.351Z</time>
      </trkpt>
      <trkpt lat="48.12762" lon="3.31881">
        <ele>151.9</ele>
        <time>2023-11-18T11:24:48.172Z</time>
      </trkpt>
      <trkpt lat="48.12762" lon="3.3188">
        <ele>151.9</ele>
        <time>2023-11-18T11:24:47.993Z</time>
      </trkpt>
      <trkpt lat="48.12761" lon="3.3188">
        <ele>151.7</ele>
        <time>2023-11-18T11:24:47.814Z</time>
      </trkpt>
      <trkpt lat="48.12761" lon="3.31879">
        <ele>151.7</ele>
        <time>2023-11-18T11:24:47.635Z</time>
      </trkpt>
      <trkpt lat="48.12759" lon="3.31878">
        <ele>151.4</ele>
        <time>2023-11-18T11:24:47.456Z</time>
      </trkpt>
      <trkpt lat="48.12759" lon="3.31878">
        <ele>151.4</ele>
        <time>2023-11-18T11:24:47.277Z</time>
      </trkpt>
      <trkpt lat="48.12758" lon="3.31878">
        <ele>151.3</ele>
        <time>2023-11-18T11:24:47.098Z</time>
      </trkpt>
      <trkpt lat="48.12758" lon="3.31877">
        <ele>151.3</ele>
        <time>2023-11-18T11:24:46.919Z</time>
      </trkpt>
      <trkpt lat="48.12757" lon="3.31876">
        <ele>151.1</ele>
        <time>2023-11-18T11:24:46.741Z</time>
      </trkpt>
      <trkpt lat="48.12756" lon="3.31876">
        <ele>151</ele>
        <time>2023-11-18T11:24:46.563Z</time>
      </trkpt>
      <trkpt lat="48.12755" lon="3.31875">
        <ele>150.8</ele>
        <time>2023-11-18T11:24:46.385Z</time>
      </trkpt>
      <trkpt lat="48.12755" lon="3.31874">
        <ele>150.8</ele>
        <time>2023-11-18T11:24:46.207Z</time>
      </trkpt>
      <trkpt lat="48.12755" lon="3.31874">
        <ele>150.8</ele>
        <time>2023-11-18T11:24:46.029Z</time>
      </trkpt>
      <trkpt lat="48.12754" lon="3.31874">
        <ele>150.7</ele>
        <time>2023-11-18T11:24:45.851Z</time>
      </trkpt>
      <trkpt lat="48.12753" lon="3.31873">
        <ele>150.5</ele>
        <time>2023-11-18T11:24:45.674Z</time>
      </trkpt>
      <trkpt lat="48.12753" lon="3.31872">
        <ele>150.5</ele>
        <time>2023-11-18T11:24:45.497Z</time>
      </trkpt>
      <trkpt lat="48.12753" lon="3.31871">
        <ele>150.5</ele>
        <time>2023-11-18T11:24:45.320Z</time>
      </trkpt>
      <trkpt lat="48.12752" lon="3.3187">
        <ele>150.3</ele>
        <time>2023-11-18T11:24:45.143Z</time>
      </trkpt>
      <trkpt lat="48.12752" lon="3.3187">
        <ele>150.3</ele>
        <time>2023-11-18T11:24:44.966Z</time>
      </trkpt>
      <trkpt lat="48.12751" lon="3.31869">
        <ele>150.2</ele>
        <time>2023-11-18T11:24:44.789Z</time>
      </trkpt>
      <trkpt lat="48.12751" lon="3.31868">
        <ele>150.2</ele>
        <time>2023-11-18T11:24:44.612Z</time>
      </trkpt>
      <trkpt lat="48.1275" lon="3.31868">
        <ele>150</ele>
        <time>2023-11-18T11:24:44.436Z</time>
      </trkpt>
      <trkpt lat="48.12749" lon="3.31867">
        <ele>149.7</ele>
        <time>2023-11-18T11:24:44.260Z</time>
      </trkpt>
      <trkpt lat="48.12749" lon="3.31867">
        <ele>149.7</ele>
        <time>2023-11-18T11:24:44.084Z</time>
      </trkpt>
      <trkpt lat="48.12749" lon="3.31866">
        <ele>149.7</ele>
        <time>2023-11-18T11:24:43.908Z</time>
      </trkpt>
      <trkpt lat="48.12748" lon="3.31866">
        <ele>149.4</ele>
        <time>2023-11-18T11:24:43.732Z</time>
      </trkpt>
      <trkpt lat="48.12748" lon="3.31865">
        <ele>149.4</ele>
        <time>2023-11-18T11:24:43.556Z</time>
      </trkpt>
      <trkpt lat="48.12747" lon="3.31865">
        <ele>149.1</ele>
        <time>2023-11-18T11:24:43.380Z</time>
      </trkpt>
      <trkpt lat="48.12746" lon="3.31865">
        <ele>148.8</ele>
        <time>2023-11-18T11:24:43.205Z</time>
      </trkpt>
      <trkpt lat="48.12745" lon="3.31865">
        <ele>148.6</ele>
        <time>2023-11-18T11:24:43.030Z</time>
      </trkpt>
      <trkpt lat="48.12745" lon="3.31864">
        <ele>148.6</ele>
        <time>2023-11-18T11:24:42.855Z</time>
      </trkpt>
      <trkpt lat="48.12744" lon="3.31864">
        <ele>148.3</ele>
        <time>2023-11-18T11:24:42.680Z</time>
      </trkpt>
      <trkpt lat="48.12743" lon="3.31864">
        <ele>148</ele>
        <time>2023-11-18T11:24:42.505Z</time>
      </trkpt>
      <trkpt lat="48.12742" lon="3.31865">
        <ele>147.7</ele>
        <time>2023-11-18T11:24:42.330Z</time>
      </trkpt>
      <trkpt lat="48.12742" lon="3.31865">
        <ele>147.7</ele>
        <time>2023-11-18T11:24:42.155Z</time>
      </trkpt>
      <trkpt lat="48.12741" lon="3.31865">
        <ele>147.4</ele>
        <time>2023-11-18T11:24:41.981Z</time>
      </trkpt>
      <trkpt lat="48.1274" lon="3.31865">
        <ele>147.1</ele>
        <time>2023-11-18T11:24:41.807Z</time>
      </trkpt>
      <trkpt lat="48.1274" lon="3.31866">
        <ele>147.1</ele>
        <time>2023-11-18T11:24:41.633Z</time>
      </trkpt>
      <trkpt lat="48.12739" lon="3.31866">
        <ele>146.8</ele>
        <time>2023-11-18T11:24:41.459Z</time>
      </trkpt>
      <trkpt lat="48.12739" lon="3.31866">
        <ele>146.8</ele>
        <time>2023-11-18T11:24:41.285Z</time>
      </trkpt>
      <trkpt lat="48.12738" lon="3.31866">
        <ele>146.5</ele>
        <time>2023-11-18T11:24:41.111Z</time>
      </trkpt>
      <trkpt lat="48.12737" lon="3.31865">
        <ele>146.3</ele>
        <time>2023-11-18T11:24:40.937Z</time>
      </trkpt>
      <trkpt lat="48.12737" lon="3.31865">
        <ele>146.3</ele>
        <time>2023-11-18T11:24:40.764Z</time>
      </trkpt>
      <trkpt lat="48.12736" lon="3.31864">
        <ele>146</ele>
        <time>2023-11-18T11:24:40.591Z</time>
      </trkpt>
      <trkpt lat="48.12735" lon="3.31864">
        <ele>145.7</ele>
        <time>2023-11-18T11:24:40.418Z</time>
      </trkpt>
      <trkpt lat="48.12734" lon="3.31864">
        <ele>145.4</ele>
        <time>2023-11-18T11:24:40.245Z</time>
      </trkpt>
      <trkpt lat="48.12734" lon="3.31865">
        <ele>145.4</ele>
        <time>2023-11-18T11:24:40.072Z</time>
      </trkpt>
      <trkpt lat="48.12733" lon="3.31865">
        <ele>145.1</ele>
        <time>2023-11-18T11:24:39.899Z</time>
      </trkpt>
      <trkpt lat="48.12732" lon="3.31864">
        <ele>144.8</ele>
        <time>2023-11-18T11:24:39.726Z</time>
      </trkpt>
      <trkpt lat="48.12731" lon="3.31865">
        <ele>144.5</ele>
        <time>2023-11-18T11:24:39.554Z</time>
      </trkpt>
      <trkpt lat="48.12731" lon="3.31865">
        <ele>144.5</ele>
        <time>2023-11-18T11:24:39.382Z</time>
      </trkpt>
      <trkpt lat="48.1273" lon="3.31865">
        <ele>144.2</ele>
        <time>2023-11-18T11:24:39.210Z</time>
      </trkpt>
      <trkpt lat="48.12729" lon="3.31865">
        <ele>144</ele>
        <time>2023-11-18T11:24:39.038Z</time>
      </trkpt>
      <trkpt lat="48.12728" lon="3.31864">
        <ele>143.7</ele>
        <time>2023-11-18T11:24:38.866Z</time>
      </trkpt>
      <trkpt lat="48.12727" lon="3.31864">
        <ele>143.4</ele>
        <time>2023-11-18T11:24:38.694Z</time>
      </trkpt>
      <trkpt lat="48.12726" lon="3.31864">
        <ele>143.1</ele>
        <time>2023-11-18T11:24:38.523Z</time>
      </trkpt>
      <trkpt lat="48.12726" lon="3.31864">
        <ele>143.1</ele>
        <time>2023-11-18T11:24:38.352Z</time>
      </trkpt>
      <trkpt lat="48.12724" lon="3.31864">
        <ele>142.5</ele>
        <time>2023-11-18T11:24:38.181Z</time>
      </trkpt>
      <trkpt lat="48.12723" lon="3.31864">
        <ele>142.2</ele>
        <time>2023-11-18T11:24:38.010Z</time>
      </trkpt>
      <trkpt lat="48.12722" lon="3.31863">
        <ele>141.9</ele>
        <time>2023-11-18T11:24:37.839Z</time>
      </trkpt>
      <trkpt lat="48.12722" lon="3.31864">
        <ele>141.9</ele>
        <time>2023-11-18T11:24:37.669Z</time>
      </trkpt>
      <trkpt lat="48.12722" lon="3.31863">
        <ele>141.9</ele>
        <time>2023-11-18T11:24:37.499Z</time>
      </trkpt>
      <trkpt lat="48.12721" lon="3.31863">
        <ele>141.7</ele>
        <time>2023-11-18T11:24:37.329Z</time>
      </trkpt>
      <trkpt lat="48.12721" lon="3.31863">
        <ele>141.7</ele>
        <time>2023-11-18T11:24:37.159Z</time>
      </trkpt>
      <trkpt lat="48.1272" lon="3.31863">
        <ele>141.4</ele>
        <time>2023-11-18T11:24:36.989Z</time>
      </trkpt>
      <trkpt lat="48.12719" lon="3.31863">
        <ele>141.2</ele>
        <time>2023-11-18T11:24:36.819Z</time>
      </trkpt>
      <trkpt lat="48.12719" lon="3.31863">
        <ele>141.2</ele>
        <time>2023-11-18T11:24:36.649Z</time>
      </trkpt>
      <trkpt lat="48.12719" lon="3.31863">
        <ele>141.2</ele>
        <time>2023-11-18T11:24:36.479Z</time>
      </trkpt>
      <trkpt lat="48.12718" lon="3.31863">
        <ele>140.9</ele>
        <time>2023-11-18T11:24:36.309Z</time>
      </trkpt>
      <trkpt lat="48.12718" lon="3.31863">
        <ele>140.9</ele>
        <time>2023-11-18T11:24:36.140Z</time>
      </trkpt>
      <trkpt lat="48.12716" lon="3.31863">
        <ele>140.4</ele>
        <time>2023-11-18T11:24:35.971Z</time>
      </trkpt>
      <trkpt lat="48.12715" lon="3.31864">
        <ele>140.2</ele>
        <time>2023-11-18T11:24:35.802Z</time>
      </trkpt>
      <trkpt lat="48.12715" lon="3.31864">
        <ele>140.2</ele>
        <time>2023-11-18T11:24:35.633Z</time>
      </trkpt>
      <trkpt lat="48.12714" lon="3.31865">
        <ele>139.9</ele>
        <time>2023-11-18T11:24:35.464Z</time>
      </trkpt>
      <trkpt lat="48.12713" lon="3.31865">
        <ele>139.7</ele>
        <time>2023-11-18T11:24:35.295Z</time>
      </trkpt>
      <trkpt lat="48.12712" lon="3.31866">
        <ele>139.4</ele>
        <time>2023-11-18T11:24:35.127Z</time>
      </trkpt>
      <trkpt lat="48.12711" lon="3.31865">
        <ele>139.2</ele>
        <time>2023-11-18T11:24:34.959Z</time>
      </trkpt>
      <trkpt lat="48.1271" lon="3.31865">
        <ele>138.9</ele>
        <time>2023-11-18T11:24:34.791Z</time>
      </trkpt>
      <trkpt lat="48.12709" lon="3.31866">
        <ele>138.7</ele>
        <time>2023-11-18T11:24:34.623Z</time>
      </trkpt>
      <trkpt lat="48.12709" lon="3.31866">
        <ele>138.7</ele>
        <time>2023-11-18T11:24:34.455Z</time>
      </trkpt>
      <trkpt lat="48.12708" lon="3.31866">
        <ele>138.4</ele>
        <time>2023-11-18T11:24:34.287Z</time>
      </trkpt>
      <trkpt lat="48.12708" lon="3.31866">
        <ele>138.4</ele>
        <time>2023-11-18T11:24:34.120Z</time>
      </trkpt>
      <trkpt lat="48.12706" lon="3.31865">
        <ele>137.9</ele>
        <time>2023-11-18T11:24:33.953Z</time>
      </trkpt>
      <trkpt lat="48.12706" lon="3.31865">
        <ele>137.9</ele>
        <time>2023-11-18T11:24:33.786Z</time>
      </trkpt>
      <trkpt lat="48.12706" lon="3.31865">
        <ele>137.9</ele>
        <time>2023-11-18T11:24:33.619Z</time>
      </trkpt>
      <trkpt lat="48.12705" lon="3.31865">
        <ele>137.7</ele>
        <time>2023-11-18T11:24:33.452Z</time>
      </trkpt>
      <trkpt lat="48.12705" lon="3.31865">
        <ele>137.7</ele>
        <time>2023-11-18T11:24:33.285Z</time>
      </trkpt>
      <trkpt lat="48.12704" lon="3.31865">
        <ele>137.4</ele>
        <time>2023-11-18T11:24:33.118Z</time>
      </trkpt>
      <trkpt lat="48.12702" lon="3.31864">
        <ele>136.9</ele>
        <time>2023-11-18T11:24:32.952Z</time>
      </trkpt>
      <trkpt lat="48.12702" lon="3.31864">
        <ele>136.9</ele>
        <time>2023-11-18T11:24:32.786Z</time>
      </trkpt>
      <trkpt lat="48.12701" lon="3.31864">
        <ele>136.7</ele>
        <time>2023-11-18T11:24:32.620Z</time>
      </trkpt>
      <trkpt lat="48.127" lon="3.31863">
        <ele>136.4</ele>
        <time>2023-11-18T11:24:32.454Z</time>
      </trkpt>
      <trkpt lat="48.127" lon="3.31863">
        <ele>136.4</ele>
        <time>2023-11-18T11:24:32.288Z</time>
      </trkpt>
      <trkpt lat="48.12699" lon="3.31863">
        <ele>136.1</ele>
        <time>2023-11-18T11:24:32.122Z</time>
      </trkpt>
      <trkpt lat="48.12697" lon="3.31863">
        <ele>135.6</ele>
        <time>2023-11-18T11:24:31.957Z</time>
      </trkpt>
      <trkpt lat="48.12696" lon="3.31862">
        <ele>135.4</ele>
        <time>2023-11-18T11:24:31.792Z</time>
      </trkpt>
      <trkpt lat="48.12695" lon="3.31862">
        <ele>135.1</ele>
        <time>2023-11-18T11:24:31.627Z</time>
      </trkpt>
      <trkpt lat="48.12694" lon="3.31862">
        <ele>134.9</ele>
        <time>2023-11-18T11:24:31.462Z</time>
      </trkpt>
      <trkpt lat="48.12694" lon="3.31862">
        <ele>134.9</ele>
        <time>2023-11-18T11:24:31.297Z</time>
      </trkpt>
      <trkpt lat="48.12694" lon="3.31862">
        <ele>134.9</ele>
        <time>2023-11-18T11:24:31.133Z</time>
      </trkpt>
      <trkpt lat="48.12693" lon="3.31862">
        <ele>134.7</ele>
        <time>2023-11-18T11:24:30.969Z</time>
      </trkpt>
      <trkpt lat="48.12693" lon="3.31861">
        <ele>134.7</ele>
        <time>2023-11-18T11:24:30.805Z</time>
      </trkpt>
      <trkpt lat="48.12692" lon="3.31861">
        <ele>134.5</ele>
        <time>2023-11-18T11:24:30.641Z</time>
      </trkpt>
      <trkpt lat="48.12692" lon="3.31861">
        <ele>134.5</ele>
        <time>2023-11-18T11:24:30.477Z</time>
      </trkpt>
      <trkpt lat="48.1269" lon="3.3186">
        <ele>134</ele>
        <time>2023-11-18T11:24:30.313Z</time>
      </trkpt>
      <trkpt lat="48.1269" lon="3.31859">
        <ele>134</ele>
        <time>2023-11-18T11:24:30.149Z</time>
      </trkpt>
      <trkpt lat="48.1269" lon="3.31859">
        <ele>134</ele>
        <time>2023-11-18T11:24:29.985Z</time>
      </trkpt>
      <trkpt lat="48.12689" lon="3.31859">
        <ele>133.8</ele>
        <time>2023-11-18T11:24:29.822Z</time>
      </trkpt>
      <trkpt lat="48.12689" lon="3.31859">
        <ele>133.8</ele>
        <time>2023-11-18T11:24:29.659Z</time>
      </trkpt>
      <trkpt lat="48.12688" lon="3.31858">
        <ele>133.6</ele>
        <time>2023-11-18T11:24:29.496Z</time>
      </trkpt>
      <trkpt lat="48.12688" lon="3.31859">
        <ele>133.6</ele>
        <time>2023-11-18T11:24:29.333Z</time>
      </trkpt>
      <trkpt lat="48.12688" lon="3.31859">
        <ele>133.6</ele>
        <time>2023-11-18T11:24:29.170Z</time>
      </trkpt>
      <trkpt lat="48.12687" lon="3.31859">
        <ele>133.4</ele>
        <time>2023-11-18T11:24:29.007Z</time>
      </trkpt>
      <trkpt lat="48.12687" lon="3.31859">
        <ele>133.4</ele>
        <time>2023-11-18T11:24:28.844Z</time>
      </trkpt>
      <trkpt lat="48.12685" lon="3.31858">
        <ele>132.9</ele>
        <time>2023-11-18T11:24:28.681Z</time>
      </trkpt>
      <trkpt lat="48.12684" lon="3.31857">
        <ele>132.7</ele>
        <time>2023-11-18T11:24:28.519Z</time>
      </trkpt>
      <trkpt lat="48.12684" lon="3.31857">
        <ele>132.7</ele>
        <time>2023-11-18T11:24:28.357Z</time>
      </trkpt>
      <trkpt lat="48.12684" lon="3.31857">
        <ele>132.7</ele>
        <time>2023-11-18T11:24:28.195Z</time>
      </trkpt>
      <trkpt lat="48.12683" lon="3.31856">
        <ele>132.5</ele>
        <time>2023-11-18T11:24:28.033Z</time>
      </trkpt>
      <trkpt lat="48.12684" lon="3.31856">
        <ele>132.7</ele>
        <time>2023-11-18T11:24:27.871Z</time>
      </trkpt>
      <trkpt lat="48.12683" lon="3.31855">
        <ele>132.4</ele>
        <time>2023-11-18T11:24:27.709Z</time>
      </trkpt>
      <trkpt lat="48.12683" lon="3.31855">
        <ele>132.4</ele>
        <time>2023-11-18T11:24:27.547Z</time>
      </trkpt>
      <trkpt lat="48.12683" lon="3.31855">
        <ele>132.4</ele>
        <time>2023-11-18T11:24:27.385Z</time>
      </trkpt>
      <trkpt lat="48.12683" lon="3.31853">
        <ele>132.4</ele>
        <time>2023-11-18T11:24:27.223Z</time>
      </trkpt>
      <trkpt lat="48.12682" lon="3.31852">
        <ele>132.2</ele>
        <time>2023-11-18T11:24:27.061Z</time>
      </trkpt>
      <trkpt lat="48.12682" lon="3.31852">
        <ele>132.2</ele>
        <time>2023-11-18T11:24:26.900Z</time>
      </trkpt>
      <trkpt lat="48.12682" lon="3.31852">
        <ele>132.2</ele>
        <time>2023-11-18T11:24:26.739Z</time>
      </trkpt>
      <trkpt lat="48.12682" lon="3.31851">
        <ele>132.1</ele>
        <time>2023-11-18T11:24:26.578Z</time>
      </trkpt>
      <trkpt lat="48.12681" lon="3.3185">
        <ele>131.9</ele>
        <time>2023-11-18T11:24:26.417Z</time>
      </trkpt>
      <trkpt lat="48.12681" lon="3.31849">
        <ele>131.9</ele>
        <time>2023-11-18T11:24:26.256Z</time>
      </trkpt>
      <trkpt lat="48.1268" lon="3.31849">
        <ele>131.7</ele>
        <time>2023-11-18T11:24:26.095Z</time>
      </trkpt>
      <trkpt lat="48.1268" lon="3.31848">
        <ele>131.6</ele>
        <time>2023-11-18T11:24:25.934Z</time>
      </trkpt>
      <trkpt lat="48.12679" lon="3.31847">
        <ele>131.4</ele>
        <time>2023-11-18T11:24:25.773Z</time>
      </trkpt>
      <trkpt lat="48.12678" lon="3.31846">
        <ele>131.1</ele>
        <time>2023-11-18T11:24:25.613Z</time>
      </trkpt>
      <trkpt lat="48.12678" lon="3.31845">
        <ele>131.1</ele>
        <time>2023-11-18T11:24:25.453Z</time>
      </trkpt>
      <trkpt lat="48.12677" lon="3.31844">
        <ele>130.8</ele>
        <time>2023-11-18T11:24:25.293Z</time>
      </trkpt>
      <trkpt lat="48.12676" lon="3.31844">
        <ele>130.6</ele>
        <time>2023-11-18T11:24:25.133Z</time>
      </trkpt>
      <trkpt lat="48.12675" lon="3.31843">
        <ele>130.3</ele>
        <time>2023-11-18T11:24:24.973Z</time>
      </trkpt>
      <trkpt lat="48.12674" lon="3.31843">
        <ele>130.1</ele>
        <time>2023-11-18T11:24:24.814Z</time>
      </trkpt>
      <trkpt lat="48.12674" lon="3.31842">
        <ele>130.1</ele>
        <time>2023-11-18T11:24:24.655Z</time>
      </trkpt>
      <trkpt lat="48.12673" lon="3.31842">
        <ele>129.8</ele>
        <time>2023-11-18T11:24:24.496Z</time>
      </trkpt>
      <trkpt lat="48.12673" lon="3.31842">
        <ele>129.8</ele>
        <time>2023-11-18T11:24:24.337Z</time>
      </trkpt>
      <trkpt lat="48.12673" lon="3.31841">
        <ele>129.8</ele>
        <time>2023-11-18T11:24:24.178Z</time>
      </trkpt>
      <trkpt lat="48.12672" lon="3.31841">
        <ele>129.6</ele>
        <time>2023-11-18T11:24:24.019Z</time>
      </trkpt>
      <trkpt lat="48.12672" lon="3.3184">
        <ele>129.5</ele>
        <time>2023-11-18T11:24:23.860Z</time>
      </trkpt>
      <trkpt lat="48.12671" lon="3.3184">
        <ele>129.3</ele>
        <time>2023-11-18T11:24:23.701Z</time>
      </trkpt>
      <trkpt lat="48.12671" lon="3.31839">
        <ele>129.3</ele>
        <time>2023-11-18T11:24:23.543Z</time>
      </trkpt>
      <trkpt lat="48.1267" lon="3.31839">
        <ele>129</ele>
        <time>2023-11-18T11:24:23.385Z</time>
      </trkpt>
      <trkpt lat="48.12669" lon="3.3184">
        <ele>128.8</ele>
        <time>2023-11-18T11:24:23.227Z</time>
      </trkpt>
      <trkpt lat="48.12668" lon="3.3184">
        <ele>128.6</ele>
        <time>2023-11-18T11:24:23.069Z</time>
      </trkpt>
      <trkpt lat="48.12667" lon="3.3184">
        <ele>128.3</ele>
        <time>2023-11-18T11:24:22.911Z</time>
      </trkpt>
      <trkpt lat="48.12666" lon="3.31839">
        <ele>128.1</ele>
        <time>2023-11-18T11:24:22.753Z</time>
      </trkpt>
      <trkpt lat="48.12666" lon="3.31839">
        <ele>128.1</ele>
        <time>2023-11-18T11:24:22.596Z</time>
      </trkpt>
      <trkpt lat="48.12665" lon="3.31839">
        <ele>127.9</ele>
        <time>2023-11-18T11:24:22.439Z</time>
      </trkpt>
      <trkpt lat="48.12664" lon="3.31839">
        <ele>127.7</ele>
        <time>2023-11-18T11:24:22.282Z</time>
      </trkpt>
      <trkpt lat="48.12663" lon="3.31838">
        <ele>127.5</ele>
        <time>2023-11-18T11:24:22.125Z</time>
      </trkpt>
      <trkpt lat="48.12662" lon="3.31838">
        <ele>127.3</ele>
        <time>2023-11-18T11:24:21.968Z</time>
      </trkpt>
      <trkpt lat="48.12662" lon="3.31837">
        <ele>127.3</ele>
        <time>2023-11-18T11:24:21.811Z</time>
      </trkpt>
      <trkpt lat="48.12661" lon="3.31836">
        <ele>127.1</ele>
        <time>2023-11-18T11:24:21.655Z</time>
      </trkpt>
      <trkpt lat="48.12661" lon="3.31835">
        <ele>127</ele>
        <time>2023-11-18T11:24:21.499Z</time>
      </trkpt>
      <trkpt lat="48.12661" lon="3.31835">
        <ele>127</ele>
        <time>2023-11-18T11:24:21.343Z</time>
      </trkpt>
      <trkpt lat="48.12661" lon="3.31833">
        <ele>127</ele>
        <time>2023-11-18T11:24:21.187Z</time>
      </trkpt>
      <trkpt lat="48.1266" lon="3.31833">
        <ele>126.8</ele>
        <time>2023-11-18T11:24:21.031Z</time>
      </trkpt>
      <trkpt lat="48.1266" lon="3.31832">
        <ele>126.8</ele>
        <time>2023-11-18T11:24:20.875Z</time>
      </trkpt>
      <trkpt lat="48.1266" lon="3.31832">
        <ele>126.8</ele>
        <time>2023-11-18T11:24:20.719Z</time>
      </trkpt>
      <trkpt lat="48.1266" lon="3.31831">
        <ele>126.7</ele>
        <time>2023-11-18T11:24:20.563Z</time>
      </trkpt>
      <trkpt lat="48.12659" lon="3.31831">
        <ele>126.5</ele>
        <time>2023-11-18T11:24:20.407Z</time>
      </trkpt>
      <trkpt lat="48.12658" lon="3.3183">
        <ele>126.3</ele>
        <time>2023-11-18T11:24:20.252Z</time>
      </trkpt>
      <trkpt lat="48.12658" lon="3.3183">
        <ele>126.3</ele>
        <time>2023-11-18T11:24:20.097Z</time>
      </trkpt>
      <trkpt lat="48.12657" lon="3.31829">
        <ele>126.1</ele>
        <time>2023-11-18T11:24:19.942Z</time>
      </trkpt>
      <trkpt lat="48.12657" lon="3.31828">
        <ele>126.1</ele>
        <time>2023-11-18T11:24:19.787Z</time>
      </trkpt>
      <trkpt lat="48.12656" lon="3.31827">
        <ele>125.9</ele>
        <time>2023-11-18T11:24:19.632Z</time>
      </trkpt>
      <trkpt lat="48.12655" lon="3.31826">
        <ele>125.6</ele>
        <time>2023-11-18T11:24:19.477Z</time>
      </trkpt>
      <trkpt lat="48.12654" lon="3.31824">
        <ele>125.4</ele>
        <time>2023-11-18T11:24:19.323Z</time>
      </trkpt>
      <trkpt lat="48.12653" lon="3.31824">
        <ele>125.2</ele>
        <time>2023-11-18T11:24:19.169Z</time>
      </trkpt>
      <trkpt lat="48.12653" lon="3.31824">
        <ele>125.2</ele>
        <time>2023-11-18T11:24:19.015Z</time>
      </trkpt>
      <trkpt lat="48.12652" lon="3.31823">
        <ele>125</ele>
        <time>2023-11-18T11:24:18.861Z</time>
      </trkpt>
      <trkpt lat="48.12652" lon="3.31822">
        <ele>125</ele>
        <time>2023-11-18T11:24:18.707Z</time>
      </trkpt>
      <trkpt lat="48.12651" lon="3.31821">
        <ele>124.7</ele>
        <time>2023-11-18T11:24:18.554Z</time>
      </trkpt>
      <trkpt lat="48.12649" lon="3.3182">
        <ele>124.3</ele>
        <time>2023-11-18T11:24:18.401Z</time>
      </trkpt>
      <trkpt lat="48.12649" lon="3.31819">
        <ele>124.3</ele>
        <time>2023-11-18T11:24:18.248Z</time>
      </trkpt>
      <trkpt lat="48.12648" lon="3.31818">
        <ele>124.1</ele>
        <time>2023-11-18T11:24:18.095Z</time>
      </trkpt>
      <trkpt lat="48.12648" lon="3.31817">
        <ele>124.1</ele>
        <time>2023-11-18T11:24:17.942Z</time>
      </trkpt>
      <trkpt lat="48.12647" lon="3.31815">
        <ele>123.8</ele>
        <time>2023-11-18T11:24:17.790Z</time>
      </trkpt>
      <trkpt lat="48.12645" lon="3.31813">
        <ele>123.4</ele>
        <time>2023-11-18T11:24:17.638Z</time>
      </trkpt>
      <trkpt lat="48.12644" lon="3.31812">
        <ele>123.2</ele>
        <time>2023-11-18T11:24:17.486Z</time>
      </trkpt>
      <trkpt lat="48.12642" lon="3.31812">
        <ele>122.8</ele>
        <time>2023-11-18T11:24:17.335Z</time>
      </trkpt>
      <trkpt lat="48.12641" lon="3.31812">
        <ele>122.6</ele>
        <time>2023-11-18T11:24:17.184Z</time>
      </trkpt>
      <trkpt lat="48.1264" lon="3.31813">
        <ele>122.5</ele>
        <time>2023-11-18T11:24:17.033Z</time>
      </trkpt>
      <trkpt lat="48.12639" lon="3.31813">
        <ele>122.3</ele>
        <time>2023-11-18T11:24:16.882Z</time>
      </trkpt>
      <trkpt lat="48.12637" lon="3.31813">
        <ele>121.9</ele>
        <time>2023-11-18T11:24:16.732Z</time>
      </trkpt>
      <trkpt lat="48.12636" lon="3.31813">
        <ele>121.6</ele>
        <time>2023-11-18T11:24:16.582Z</time>
      </trkpt>
      <trkpt lat="48.12635" lon="3.31813">
        <ele>121.4</ele>
        <time>2023-11-18T11:24:16.432Z</time>
      </trkpt>
      <trkpt lat="48.12634" lon="3.31814">
        <ele>121.2</ele>
        <time>2023-11-18T11:24:16.283Z</time>
      </trkpt>
      <trkpt lat="48.12633" lon="3.31814">
        <ele>121</ele>
        <time>2023-11-18T11:24:16.134Z</time>
      </trkpt>
      <trkpt lat="48.12627" lon="3.3181">
        <ele>119.6</ele>
        <time>2023-11-18T11:24:15.985Z</time>
      </trkpt>
      <trkpt lat="48.12626" lon="3.31809">
        <ele>119.3</ele>
        <time>2023-11-18T11:24:15.837Z</time>
      </trkpt>
      <trkpt lat="48.12625" lon="3.31808">
        <ele>119.1</ele>
        <time>2023-11-18T11:24:15.689Z</time>
      </trkpt>
      <trkpt lat="48.12624" lon="3.31808">
        <ele>118.9</ele>
        <time>2023-11-18T11:24:15.542Z</time>
      </trkpt>
      <trkpt lat="48.12623" lon="3.31806">
        <ele>118.6</ele>
        <time>2023-11-18T11:24:15.395Z</time>
      </trkpt>
      <trkpt lat="48.12622" lon="3.31805">
        <ele>118.3</ele>
        <time>2023-11-18T11:24:15.248Z</time>
      </trkpt>
      <trkpt lat="48.12621" lon="3.31803">
        <ele>118</ele>
        <time>2023-11-18T11:24:14.955Z</time>
      </trkpt>
      <trkpt lat="48.12614" lon="3.31796">
        <ele>116.3</ele>
        <time>2023-11-18T11:24:14.809Z</time>
      </trkpt>
      <trkpt lat="48.12613" lon="3.31795">
        <ele>116</ele>
        <time>2023-11-18T11:24:14.086Z</time>
      </trkpt>
      <trkpt lat="48.12617" lon="3.31779">
        <ele>116.3</ele>
        <time>2023-11-18T11:24:13.655Z</time>
      </trkpt>
      <trkpt lat="48.12618" lon="3.31775">
        <ele>116.3</ele>
        <time>2023-11-18T11:24:13.226Z</time>
      </trkpt>
      <trkpt lat="48.12618" lon="3.31772">
        <ele>116.1</ele>
        <time>2023-11-18T11:24:13.084Z</time>
      </trkpt>
      <trkpt lat="48.12619" lon="3.3177">
        <ele>116.1</ele>
        <time>2023-11-18T11:24:12.942Z</time>
      </trkpt>
      <trkpt lat="48.12619" lon="3.31767">
        <ele>115.9</ele>
        <time>2023-11-18T11:24:12.800Z</time>
      </trkpt>
      <trkpt lat="48.1262" lon="3.31765">
        <ele>116</ele>
        <time>2023-11-18T11:24:12.659Z</time>
      </trkpt>
      <trkpt lat="48.12621" lon="3.31762">
        <ele>116</ele>
        <time>2023-11-18T11:24:12.518Z</time>
      </trkpt>
      <trkpt lat="48.12621" lon="3.31759">
        <ele>115.8</ele>
        <time>2023-11-18T11:24:12.378Z</time>
      </trkpt>
      <trkpt lat="48.12623" lon="3.31749">
        <ele>115.5</ele>
        <time>2023-11-18T11:24:12.238Z</time>
      </trkpt>
      <trkpt lat="48.12624" lon="3.31746">
        <ele>115.5</ele>
        <time>2023-11-18T11:24:12.099Z</time>
      </trkpt>
      <trkpt lat="48.12633" lon="3.31717">
        <ele>115.4</ele>
        <time>2023-11-18T11:24:11.961Z</time>
      </trkpt>
      <trkpt lat="48.12638" lon="3.31696">
        <ele>114.9</ele>
        <time>2023-11-18T11:24:11.827Z</time>
      </trkpt>
      <trkpt lat="48.12639" lon="3.3169">
        <ele>114.9</ele>
        <time>2023-11-18T11:24:11.696Z</time>
      </trkpt>
      <trkpt lat="48.1264" lon="3.31686">
        <ele>115</ele>
        <time>2023-11-18T11:24:11.566Z</time>
      </trkpt>
      <trkpt lat="48.1264" lon="3.31683">
        <ele>114.9</ele>
        <time>2023-11-18T11:24:11.436Z</time>
      </trkpt>
      <trkpt lat="48.12641" lon="3.3168">
        <ele>115</ele>
        <time>2023-11-18T11:24:11.307Z</time>
      </trkpt>
      <trkpt lat="48.12641" lon="3.31677">
        <ele>114.9</ele>
        <time>2023-11-18T11:24:11.178Z</time>
      </trkpt>
      <trkpt lat="48.12642" lon="3.31674">
        <ele>115</ele>
        <time>2023-11-18T11:24:11.050Z</time>
      </trkpt>
      <trkpt lat="48.12642" lon="3.31672">
        <ele>115</ele>
        <time>2023-11-18T11:24:10.922Z</time>
      </trkpt>
      <trkpt lat="48.12643" lon="3.31669">
        <ele>115.1</ele>
        <time>2023-11-18T11:24:10.794Z</time>
      </trkpt>
      <trkpt lat="48.12643" lon="3.31665">
        <ele>115</ele>
        <time>2023-11-18T11:24:10.667Z</time>
      </trkpt>
      <trkpt lat="48.12643" lon="3.31662">
        <ele>114.9</ele>
        <time>2023-11-18T11:24:10.540Z</time>
      </trkpt>
      <trkpt lat="48.12644" lon="3.31659">
        <ele>115</ele>
        <time>2023-11-18T11:24:10.414Z</time>
      </trkpt>
      <trkpt lat="48.12644" lon="3.31656">
        <ele>114.9</ele>
        <time>2023-11-18T11:24:10.288Z</time>
      </trkpt>
      <trkpt lat="48.12645" lon="3.31654">
        <ele>115.1</ele>
        <time>2023-11-18T11:24:10.162Z</time>
      </trkpt>
      <trkpt lat="48.12645" lon="3.31651">
        <ele>115</ele>
        <time>2023-11-18T11:24:10.037Z</time>
      </trkpt>
      <trkpt lat="48.12645" lon="3.31648">
        <ele>114.9</ele>
        <time>2023-11-18T11:24:09.912Z</time>
      </trkpt>
      <trkpt lat="48.12645" lon="3.31646">
        <ele>114.8</ele>
        <time>2023-11-18T11:24:09.788Z</time>
      </trkpt>
      <trkpt lat="48.12645" lon="3.31643">
        <ele>114.7</ele>
        <time>2023-11-18T11:24:09.664Z</time>
      </trkpt>
      <trkpt lat="48.12646" lon="3.3164">
        <ele>114.8</ele>
        <time>2023-11-18T11:24:09.540Z</time>
      </trkpt>
      <trkpt lat="48.12646" lon="3.31637">
        <ele>114.7</ele>
        <time>2023-11-18T11:24:09.417Z</time>
      </trkpt>
      <trkpt lat="48.12646" lon="3.31634">
        <ele>114.6</ele>
        <time>2023-11-18T11:24:09.294Z</time>
      </trkpt>
      <trkpt lat="48.12646" lon="3.31631">
        <ele>114.4</ele>
        <time>2023-11-18T11:24:09.172Z</time>
      </trkpt>
      <trkpt lat="48.12646" lon="3.31628">
        <ele>114.3</ele>
        <time>2023-11-18T11:24:09.050Z</time>
      </trkpt>
      <trkpt lat="48.12646" lon="3.31626">
        <ele>114.2</ele>
        <time>2023-11-18T11:24:08.928Z</time>
      </trkpt>
      <trkpt lat="48.12647" lon="3.31624">
        <ele>114.4</ele>
        <time>2023-11-18T11:24:08.807Z</time>
      </trkpt>
      <trkpt lat="48.12648" lon="3.31621">
        <ele>114.4</ele>
        <time>2023-11-18T11:24:08.686Z</time>
      </trkpt>
      <trkpt lat="48.12648" lon="3.31618">
        <ele>114.3</ele>
        <time>2023-11-18T11:24:08.565Z</time>
      </trkpt>
      <trkpt lat="48.12648" lon="3.31616">
        <ele>114.2</ele>
        <time>2023-11-18T11:24:08.445Z</time>
      </trkpt>
      <trkpt lat="48.12649" lon="3.31613">
        <ele>114.3</ele>
        <time>2023-11-18T11:24:08.325Z</time>
      </trkpt>
      <trkpt lat="48.12649" lon="3.31611">
        <ele>114.2</ele>
        <time>2023-11-18T11:24:08.205Z</time>
      </trkpt>
      <trkpt lat="48.12649" lon="3.31609">
        <ele>114</ele>
        <time>2023-11-18T11:24:08.086Z</time>
      </trkpt>
      <trkpt lat="48.12649" lon="3.31607">
        <ele>113.9</ele>
        <time>2023-11-18T11:24:07.967Z</time>
      </trkpt>
      <trkpt lat="48.1265" lon="3.31604">
        <ele>113.9</ele>
        <time>2023-11-18T11:24:07.848Z</time>
      </trkpt>
      <trkpt lat="48.1265" lon="3.31602">
        <ele>113.7</ele>
        <time>2023-11-18T11:24:07.730Z</time>
      </trkpt>
      <trkpt lat="48.12651" lon="3.31599">
        <ele>113.7</ele>
        <time>2023-11-18T11:24:07.612Z</time>
      </trkpt>
      <trkpt lat="48.12651" lon="3.31593">
        <ele>113.3</ele>
        <time>2023-11-18T11:24:07.494Z</time>
      </trkpt>
      <trkpt lat="48.12652" lon="3.3159">
        <ele>113.3</ele>
        <time>2023-11-18T11:24:07.377Z</time>
      </trkpt>
      <trkpt lat="48.12652" lon="3.31588">
        <ele>113.2</ele>
        <time>2023-11-18T11:24:07.260Z</time>
      </trkpt>
      <trkpt lat="48.12652" lon="3.31585">
        <ele>113</ele>
        <time>2023-11-18T11:24:07.144Z</time>
      </trkpt>
      <trkpt lat="48.12652" lon="3.31582">
        <ele>112.7</ele>
        <time>2023-11-18T11:24:07.028Z</time>
      </trkpt>
      <trkpt lat="48.12653" lon="3.31579">
        <ele>112.7</ele>
        <time>2023-11-18T11:24:06.913Z</time>
      </trkpt>
      <trkpt lat="48.12653" lon="3.31576">
        <ele>112.5</ele>
        <time>2023-11-18T11:24:06.798Z</time>
      </trkpt>
      <trkpt lat="48.12653" lon="3.31573">
        <ele>112.3</ele>
        <time>2023-11-18T11:24:06.683Z</time>
      </trkpt>
      <trkpt lat="48.12654" lon="3.31571">
        <ele>112.4</ele>
        <time>2023-11-18T11:24:06.569Z</time>
      </trkpt>
      <trkpt lat="48.12654" lon="3.31567">
        <ele>112.1</ele>
        <time>2023-11-18T11:24:06.455Z</time>
      </trkpt>
      <trkpt lat="48.12655" lon="3.31561">
        <ele>111.9</ele>
        <time>2023-11-18T11:24:06.342Z</time>
      </trkpt>
      <trkpt lat="48.12655" lon="3.31555">
        <ele>111.4</ele>
        <time>2023-11-18T11:24:06.229Z</time>
      </trkpt>
      <trkpt lat="48.12656" lon="3.31535">
        <ele>110.5</ele>
        <time>2023-11-18T11:24:06.117Z</time>
      </trkpt>
      <trkpt lat="48.12657" lon="3.31528">
        <ele>110.3</ele>
        <time>2023-11-18T11:24:06.008Z</time>
      </trkpt>
      <trkpt lat="48.12657" lon="3.31525">
        <ele>110.2</ele>
        <time>2023-11-18T11:24:05.900Z</time>
      </trkpt>
      <trkpt lat="48.12658" lon="3.31518">
        <ele>110.1</ele>
        <time>2023-11-18T11:24:05.792Z</time>
      </trkpt>
      <trkpt lat="48.12658" lon="3.31515">
        <ele>110</ele>
        <time>2023-11-18T11:24:05.685Z</time>
      </trkpt>
      <trkpt lat="48.12658" lon="3.31512">
        <ele>109.9</ele>
        <time>2023-11-18T11:24:05.579Z</time>
      </trkpt>
      <trkpt lat="48.12658" lon="3.31509">
        <ele>109.8</ele>
        <time>2023-11-18T11:24:05.473Z</time>
      </trkpt>
      <trkpt lat="48.12658" lon="3.31505">
        <ele>109.6</ele>
        <time>2023-11-18T11:24:05.368Z</time>
      </trkpt>
      <trkpt lat="48.12659" lon="3.31501">
        <ele>109.7</ele>
        <time>2023-11-18T11:24:05.263Z</time>
      </trkpt>
      <trkpt lat="48.12659" lon="3.31497">
        <ele>109.5</ele>
        <time>2023-11-18T11:24:05.159Z</time>
      </trkpt>
      <trkpt lat="48.12659" lon="3.31494">
        <ele>109.4</ele>
        <time>2023-11-18T11:24:05.055Z</time>
      </trkpt>
      <trkpt lat="48.1266" lon="3.31483">
        <ele>109.2</ele>
        <time>2023-11-18T11:24:04.951Z</time>
      </trkpt>
      <trkpt lat="48.12661" lon="3.31479">
        <ele>109.2</ele>
        <time>2023-11-18T11:24:04.849Z</time>
      </trkpt>
      <trkpt lat="48.12662" lon="3.31469">
        <ele>109.1</ele>
        <time>2023-11-18T11:24:04.748Z</time>
      </trkpt>
      <trkpt lat="48.12662" lon="3.31466">
        <ele>109</ele>
        <time>2023-11-18T11:24:04.648Z</time>
      </trkpt>
      <trkpt lat="48.12663" lon="3.31462">
        <ele>109</ele>
        <time>2023-11-18T11:24:04.548Z</time>
      </trkpt>
      <trkpt lat="48.12664" lon="3.31447">
        <ele>108.7</ele>
        <time>2023-11-18T11:24:04.449Z</time>
      </trkpt>
      <trkpt lat="48.12667" lon="3.31409">
        <ele>109</ele>
        <time>2023-11-18T11:24:04.352Z</time>
      </trkpt>
      <trkpt lat="48.12669" lon="3.31391">
        <ele>109.3</ele>
        <time>2023-11-18T11:24:04.260Z</time>
      </trkpt>
      <trkpt lat="48.1267" lon="3.31388">
        <ele>109.5</ele>
        <time>2023-11-18T11:24:04.170Z</time>
      </trkpt>
      <trkpt lat="48.1267" lon="3.31383">
        <ele>109.5</ele>
        <time>2023-11-18T11:24:04.081Z</time>
      </trkpt>
      <trkpt lat="48.1267" lon="3.31381">
        <ele>109.5</ele>
        <time>2023-11-18T11:24:03.993Z</time>
      </trkpt>
      <trkpt lat="48.12671" lon="3.31377">
        <ele>109.6</ele>
        <time>2023-11-18T11:24:03.905Z</time>
      </trkpt>
      <trkpt lat="48.12671" lon="3.31374">
        <ele>109.6</ele>
        <time>2023-11-18T11:24:03.817Z</time>
      </trkpt>
      <trkpt lat="48.12671" lon="3.3137">
        <ele>109.6</ele>
        <time>2023-11-18T11:24:03.730Z</time>
      </trkpt>
      <trkpt lat="48.12672" lon="3.31366">
        <ele>109.8</ele>
        <time>2023-11-18T11:24:03.643Z</time>
      </trkpt>
      <trkpt lat="48.12672" lon="3.31364">
        <ele>109.8</ele>
        <time>2023-11-18T11:24:03.557Z</time>
      </trkpt>
      <trkpt lat="48.12673" lon="3.3136">
        <ele>109.9</ele>
        <time>2023-11-18T11:24:03.471Z</time>
      </trkpt>
      <trkpt lat="48.12674" lon="3.31357">
        <ele>110</ele>
        <time>2023-11-18T11:24:03.386Z</time>
      </trkpt>
      <trkpt lat="48.12674" lon="3.31354">
        <ele>110</ele>
        <time>2023-11-18T11:24:03.301Z</time>
      </trkpt>
      <trkpt lat="48.12675" lon="3.3135">
        <ele>110.1</ele>
        <time>2023-11-18T11:24:03.216Z</time>
      </trkpt>
      <trkpt lat="48.12675" lon="3.31348">
        <ele>110.1</ele>
        <time>2023-11-18T11:24:03.132Z</time>
      </trkpt>
      <trkpt lat="48.12675" lon="3.31345">
        <ele>110</ele>
        <time>2023-11-18T11:24:03.048Z</time>
      </trkpt>
      <trkpt lat="48.12675" lon="3.31341">
        <ele>110</ele>
        <time>2023-11-18T11:24:02.965Z</time>
      </trkpt>
      <trkpt lat="48.12675" lon="3.31339">
        <ele>110</ele>
        <time>2023-11-18T11:24:02.882Z</time>
      </trkpt>
      <trkpt lat="48.12675" lon="3.31336">
        <ele>109.9</ele>
        <time>2023-11-18T11:24:02.800Z</time>
      </trkpt>
      <trkpt lat="48.12674" lon="3.31333">
        <ele>109.8</ele>
        <time>2023-11-18T11:24:02.718Z</time>
      </trkpt>
      <trkpt lat="48.12673" lon="3.31331">
        <ele>109.6</ele>
        <time>2023-11-18T11:24:02.636Z</time>
      </trkpt>
      <trkpt lat="48.12672" lon="3.31329">
        <ele>109.5</ele>
        <time>2023-11-18T11:24:02.555Z</time>
      </trkpt>
      <trkpt lat="48.12671" lon="3.31327">
        <ele>109.4</ele>
        <time>2023-11-18T11:24:02.474Z</time>
      </trkpt>
      <trkpt lat="48.12669" lon="3.31325">
        <ele>109.2</ele>
        <time>2023-11-18T11:24:02.393Z</time>
      </trkpt>
      <trkpt lat="48.12667" lon="3.31324">
        <ele>109</ele>
        <time>2023-11-18T11:24:02.313Z</time>
      </trkpt>
      <trkpt lat="48.12666" lon="3.31323">
        <ele>108.9</ele>
        <time>2023-11-18T11:24:02.233Z</time>
      </trkpt>
      <trkpt lat="48.12665" lon="3.31322">
        <ele>108.8</ele>
        <time>2023-11-18T11:24:02.153Z</time>
      </trkpt>
      <trkpt lat="48.12663" lon="3.31322">
        <ele>108.6</ele>
        <time>2023-11-18T11:24:02.074Z</time>
      </trkpt>
      <trkpt lat="48.12662" lon="3.31322">
        <ele>108.5</ele>
        <time>2023-11-18T11:24:01.995Z</time>
      </trkpt>
      <trkpt lat="48.1266" lon="3.31321">
        <ele>108.3</ele>
        <time>2023-11-18T11:24:01.916Z</time>
      </trkpt>
      <trkpt lat="48.12659" lon="3.3132">
        <ele>108.2</ele>
        <time>2023-11-18T11:24:01.838Z</time>
      </trkpt>
      <trkpt lat="48.12657" lon="3.3132">
        <ele>108</ele>
        <time>2023-11-18T11:24:01.760Z</time>
      </trkpt>
      <trkpt lat="48.12655" lon="3.31319">
        <ele>107.7</ele>
        <time>2023-11-18T11:24:01.682Z</time>
      </trkpt>
      <trkpt lat="48.12654" lon="3.31319">
        <ele>107.6</ele>
        <time>2023-11-18T11:24:01.605Z</time>
      </trkpt>
      <trkpt lat="48.12653" lon="3.31318">
        <ele>107.5</ele>
        <time>2023-11-18T11:24:01.528Z</time>
      </trkpt>
      <trkpt lat="48.12651" lon="3.31317">
        <ele>107.3</ele>
        <time>2023-11-18T11:24:01.451Z</time>
      </trkpt>
      <trkpt lat="48.1265" lon="3.31317">
        <ele>107.2</ele>
        <time>2023-11-18T11:24:01.375Z</time>
      </trkpt>
      <trkpt lat="48.12649" lon="3.31316">
        <ele>107.1</ele>
        <time>2023-11-18T11:24:01.299Z</time>
      </trkpt>
      <trkpt lat="48.12648" lon="3.31315">
        <ele>107</ele>
        <time>2023-11-18T11:24:01.223Z</time>
      </trkpt>
      <trkpt lat="48.12646" lon="3.31315">
        <ele>106.8</ele>
        <time>2023-11-18T11:24:01.147Z</time>
      </trkpt>
      <trkpt lat="48.12645" lon="3.31314">
        <ele>106.7</ele>
        <time>2023-11-18T11:24:01.072Z</time>
      </trkpt>
      <trkpt lat="48.12644" lon="3.31314">
        <ele>106.6</ele>
        <time>2023-11-18T11:24:00.997Z</time>
      </trkpt>
      <trkpt lat="48.12642" lon="3.31313">
        <ele>106.3</ele>
        <time>2023-11-18T11:24:00.922Z</time>
      </trkpt>
      <trkpt lat="48.12641" lon="3.31313">
        <ele>106.2</ele>
        <time>2023-11-18T11:24:00.847Z</time>
      </trkpt>
      <trkpt lat="48.12639" lon="3.31312">
        <ele>106</ele>
        <time>2023-11-18T11:24:00.773Z</time>
      </trkpt>
      <trkpt lat="48.12637" lon="3.31312">
        <ele>105.7</ele>
        <time>2023-11-18T11:24:00.699Z</time>
      </trkpt>
      <trkpt lat="48.12636" lon="3.31311">
        <ele>105.6</ele>
        <time>2023-11-18T11:24:00.625Z</time>
      </trkpt>
      <trkpt lat="48.12634" lon="3.31309">
        <ele>105.3</ele>
        <time>2023-11-18T11:24:00.552Z</time>
      </trkpt>
      <trkpt lat="48.12633" lon="3.31308">
        <ele>105.1</ele>
        <time>2023-11-18T11:24:00.479Z</time>
      </trkpt>
      <trkpt lat="48.12631" lon="3.31307">
        <ele>104.8</ele>
        <time>2023-11-18T11:24:00.407Z</time>
      </trkpt>
      <trkpt lat="48.1263" lon="3.31305">
        <ele>104.7</ele>
        <time>2023-11-18T11:24:00.335Z</time>
      </trkpt>
      <trkpt lat="48.12628" lon="3.31304">
        <ele>104.4</ele>
        <time>2023-11-18T11:24:00.263Z</time>
      </trkpt>
      <trkpt lat="48.12627" lon="3.31303">
        <ele>104.2</ele>
        <time>2023-11-18T11:24:00.192Z</time>
      </trkpt>
      <trkpt lat="48.12625" lon="3.31301">
        <ele>103.9</ele>
        <time>2023-11-18T11:24:00.121Z</time>
      </trkpt>
      <trkpt lat="48.12624" lon="3.31299">
        <ele>103.7</ele>
        <time>2023-11-18T11:24:00.050Z</time>
      </trkpt>
      <trkpt lat="48.12623" lon="3.31297">
        <ele>103.6</ele>
        <time>2023-11-18T11:23:59.980Z</time>
      </trkpt>
      <trkpt lat="48.12621" lon="3.31295">
        <ele>103.3</ele>
        <time>2023-11-18T11:23:59.910Z</time>
      </trkpt>
      <trkpt lat="48.1262" lon="3.31294">
        <ele>103.1</ele>
        <time>2023-11-18T11:23:59.840Z</time>
      </trkpt>
      <trkpt lat="48.12619" lon="3.31292">
        <ele>103</ele>
        <time>2023-11-18T11:23:59.771Z</time>
      </trkpt>
      <trkpt lat="48.12618" lon="3.3129">
        <ele>102.9</ele>
        <time>2023-11-18T11:23:59.702Z</time>
      </trkpt>
      <trkpt lat="48.12617" lon="3.31288">
        <ele>102.7</ele>
        <time>2023-11-18T11:23:59.633Z</time>
      </trkpt>
      <trkpt lat="48.12615" lon="3.31286">
        <ele>102.5</ele>
        <time>2023-11-18T11:23:59.565Z</time>
      </trkpt>
      <trkpt lat="48.12615" lon="3.31283">
        <ele>102.4</ele>
        <time>2023-11-18T11:23:59.497Z</time>
      </trkpt>
      <trkpt lat="48.12614" lon="3.3128">
        <ele>102.3</ele>
        <time>2023-11-18T11:23:59.430Z</time>
      </trkpt>
      <trkpt lat="48.12613" lon="3.31278">
        <ele>102.2</ele>
        <time>2023-11-18T11:23:59.363Z</time>
      </trkpt>
      <trkpt lat="48.12613" lon="3.31276">
        <ele>102.1</ele>
        <time>2023-11-18T11:23:59.296Z</time>
      </trkpt>
      <trkpt lat="48.12612" lon="3.31273">
        <ele>101.9</ele>
        <time>2023-11-18T11:23:59.230Z</time>
      </trkpt>
      <trkpt lat="48.12611" lon="3.31271">
        <ele>101.7</ele>
        <time>2023-11-18T11:23:59.164Z</time>
      </trkpt>
      <trkpt lat="48.12611" lon="3.31268">
        <ele>101.6</ele>
        <time>2023-11-18T11:23:59.098Z</time>
      </trkpt>
      <trkpt lat="48.1261" lon="3.31266">
        <ele>101.4</ele>
        <time>2023-11-18T11:23:59.033Z</time>
      </trkpt>
      <trkpt lat="48.1261" lon="3.31262">
        <ele>101.2</ele>
        <time>2023-11-18T11:23:58.968Z</time>
      </trkpt>
      <trkpt lat="48.1261" lon="3.31259">
        <ele>101.1</ele>
        <time>2023-11-18T11:23:58.904Z</time>
      </trkpt>
      <trkpt lat="48.1261" lon="3.31256">
        <ele>101</ele>
        <time>2023-11-18T11:23:58.840Z</time>
      </trkpt>
      <trkpt lat="48.1261" lon="3.31254">
        <ele>100.9</ele>
        <time>2023-11-18T11:23:58.776Z</time>
      </trkpt>
      <trkpt lat="48.1261" lon="3.31251">
        <ele>100.8</ele>
        <time>2023-11-18T11:23:58.713Z</time>
      </trkpt>
      <trkpt lat="48.1261" lon="3.31248">
        <ele>100.7</ele>
        <time>2023-11-18T11:23:58.650Z</time>
      </trkpt>
      <trkpt lat="48.1261" lon="3.31245">
        <ele>100.6</ele>
        <time>2023-11-18T11:23:58.587Z</time>
      </trkpt>
      <trkpt lat="48.1261" lon="3.31242">
        <ele>100.5</ele>
        <time>2023-11-18T11:23:58.525Z</time>
      </trkpt>
      <trkpt lat="48.1261" lon="3.3124">
        <ele>100.5</ele>
        <time>2023-11-18T11:23:58.463Z</time>
      </trkpt>
      <trkpt lat="48.12611" lon="3.31236">
        <ele>100.5</ele>
        <time>2023-11-18T11:23:58.402Z</time>
      </trkpt>
      <trkpt lat="48.12612" lon="3.31233">
        <ele>100.5</ele>
        <time>2023-11-18T11:23:58.341Z</time>
      </trkpt>
      <trkpt lat="48.12612" lon="3.31231">
        <ele>100.4</ele>
        <time>2023-11-18T11:23:58.280Z</time>
      </trkpt>
      <trkpt lat="48.12613" lon="3.31228">
        <ele>100.4</ele>
        <time>2023-11-18T11:23:58.220Z</time>
      </trkpt>
      <trkpt lat="48.12613" lon="3.31225">
        <ele>100.2</ele>
        <time>2023-11-18T11:23:58.160Z</time>
      </trkpt>
      <trkpt lat="48.12614" lon="3.31222">
        <ele>100.2</ele>
        <time>2023-11-18T11:23:58.101Z</time>
      </trkpt>
      <trkpt lat="48.12614" lon="3.31219">
        <ele>100.1</ele>
        <time>2023-11-18T11:23:58.042Z</time>
      </trkpt>
      <trkpt lat="48.12614" lon="3.31217">
        <ele>100</ele>
        <time>2023-11-18T11:23:57.983Z</time>
      </trkpt>
      <trkpt lat="48.12614" lon="3.31214">
        <ele>99.9</ele>
        <time>2023-11-18T11:23:57.925Z</time>
      </trkpt>
      <trkpt lat="48.12615" lon="3.31211">
        <ele>99.8</ele>
        <time>2023-11-18T11:23:57.867Z</time>
      </trkpt>
      <trkpt lat="48.12615" lon="3.31208">
        <ele>99.7</ele>
        <time>2023-11-18T11:23:57.809Z</time>
      </trkpt>
      <trkpt lat="48.12616" lon="3.31205">
        <ele>99.6</ele>
        <time>2023-11-18T11:23:57.752Z</time>
      </trkpt>
      <trkpt lat="48.12616" lon="3.31202">
        <ele>99.5</ele>
        <time>2023-11-18T11:23:57.695Z</time>
      </trkpt>
      <trkpt lat="48.12616" lon="3.31199">
        <ele>99.4</ele>
        <time>2023-11-18T11:23:57.639Z</time>
      </trkpt>
      <trkpt lat="48.12616" lon="3.31197">
        <ele>99.3</ele>
        <time>2023-11-18T11:23:57.583Z</time>
      </trkpt>
      <trkpt lat="48.12617" lon="3.31194">
        <ele>99.2</ele>
        <time>2023-11-18T11:23:57.527Z</time>
      </trkpt>
      <trkpt lat="48.12618" lon="3.31188">
        <ele>98.8</ele>
        <time>2023-11-18T11:23:57.472Z</time>
      </trkpt>
      <trkpt lat="48.12617" lon="3.31169">
        <ele>97.4</ele>
        <time>2023-11-18T11:23:57.418Z</time>
      </trkpt>
      <trkpt lat="48.12617" lon="3.31166">
        <ele>97.2</ele>
        <time>2023-11-18T11:23:57.366Z</time>
      </trkpt>
      <trkpt lat="48.12617" lon="3.3116">
        <ele>96.9</ele>
        <time>2023-11-18T11:23:57.315Z</time>
      </trkpt>
      <trkpt lat="48.12617" lon="3.31151">
        <ele>96.5</ele>
        <time>2023-11-18T11:23:57.264Z</time>
      </trkpt>
      <trkpt lat="48.12617" lon="3.31148">
        <ele>96.4</ele>
        <time>2023-11-18T11:23:57.215Z</time>
      </trkpt>
      <trkpt lat="48.12617" lon="3.31128">
        <ele>95.2</ele>
        <time>2023-11-18T11:23:57.166Z</time>
      </trkpt>
      <trkpt lat="48.12635" lon="3.31014">
        <ele>89.7</ele>
      </trkpt>
      <trkpt lat="48.12635" lon="3.31">
        <ele>89.3</ele>
      </trkpt>
      <trkpt lat="48.12631" lon="3.30993">
        <ele>89.2</ele>
      </trkpt>
      <trkpt lat="48.12626" lon="3.30985">
        <ele>89.1</ele>
      </trkpt>
      <trkpt lat="48.12623" lon="3.30979">
        <ele>89</ele>
      </trkpt>
      <trkpt lat="48.12622" lon="3.30972">
        <ele>88.6</ele>
      </trkpt>
      <trkpt lat="48.1263" lon="3.3095">
        <ele>86.7</ele>
      </trkpt>
      <trkpt lat="48.1263" lon="3.30944">
        <ele>86.3</ele>
      </trkpt>
      <trkpt lat="48.12629" lon="3.30938">
        <ele>85.7</ele>
      </trkpt>
      <trkpt lat="48.12625" lon="3.30931">
        <ele>85.3</ele>
      </trkpt>
      <trkpt lat="48.12579" lon="3.30886">
        <ele>82</ele>
      </trkpt>
      <trkpt lat="48.12606" lon="3.30849">
        <ele>80.7</ele>
      </trkpt>
      <trkpt lat="48.12596" lon="3.3084">
        <ele>80.8</ele>
        <time>2023-11-18T11:23:57.120Z</time>
        <extensions>
          <visugpx:TrkExtension xmlns:visugpx="https://www.visugpx.com/editgpx/">
            <visugpx:node>2</visugpx:node>
            </visugpx:TrkExtension>
        </extensions>
      </trkpt>
    </trkseg>
  </trk>
  <trk>
    <name><![CDATA[VTT7 B1]]></name>
    <extensions>
      <line xmlns="http://www.topografix.com/GPX/gpx_style/0/2">
        <color>ff0000</color>
        <width>4</width>
      </line>
    </extensions>
    <trkseg>
      <trkpt lat="48.13475" lon="3.31695">
        <ele>107.4</ele>
        <time>2023-09-16T09:17:11Z</time>
      </trkpt>
      <trkpt lat="48.13468" lon="3.31737">
        <ele>109.9</ele>
        <time>2023-09-16T09:17:19Z</time>
      </trkpt>
      <trkpt lat="48.13471" lon="3.31754">
        <ele>111</ele>
        <time>2023-09-16T09:17:29Z</time>
      </trkpt>
      <trkpt lat="48.13476" lon="3.31771">
        <ele>114.5</ele>
        <time>2023-09-16T09:17:38Z</time>
      </trkpt>
      <trkpt lat="48.13476" lon="3.31783">
        <ele>116.2</ele>
        <time>2023-09-16T09:17:45Z</time>
      </trkpt>
      <trkpt lat="48.13477" lon="3.31789">
        <ele>117.1</ele>
        <time>2023-09-16T09:17:52Z</time>
      </trkpt>
      <trkpt lat="48.13479" lon="3.31792">
        <ele>117.8</ele>
        <time>2023-09-16T09:18:01Z</time>
      </trkpt>
      <trkpt lat="48.1348" lon="3.31798">
        <ele>118.6</ele>
        <time>2023-09-16T09:18:11Z</time>
      </trkpt>
      <trkpt lat="48.13481" lon="3.31801">
        <ele>119.1</ele>
        <time>2023-09-16T09:18:19Z</time>
      </trkpt>
      <trkpt lat="48.13479" lon="3.31811">
        <ele>119.8</ele>
        <time>2023-09-16T09:18:25Z</time>
      </trkpt>
      <trkpt lat="48.13479" lon="3.31824">
        <ele>121.2</ele>
        <time>2023-09-16T09:18:34Z</time>
      </trkpt>
      <trkpt lat="48.13478" lon="3.31834">
        <ele>122.1</ele>
        <time>2023-09-16T09:18:40Z</time>
      </trkpt>
      <trkpt lat="48.13477" lon="3.3184">
        <ele>122.8</ele>
        <time>2023-09-16T09:18:44Z</time>
      </trkpt>
      <trkpt lat="48.13479" lon="3.31857">
        <ele>125.4</ele>
        <time>2023-09-16T09:18:53Z</time>
      </trkpt>
      <trkpt lat="48.13479" lon="3.31866">
        <ele>126.6</ele>
        <time>2023-09-16T09:18:59Z</time>
      </trkpt>
      <trkpt lat="48.1348" lon="3.31877">
        <ele>128.1</ele>
        <time>2023-09-16T09:19:06Z</time>
      </trkpt>
      <trkpt lat="48.13482" lon="3.31886">
        <ele>129.4</ele>
        <time>2023-09-16T09:19:12Z</time>
      </trkpt>
      <trkpt lat="48.13483" lon="3.31895">
        <ele>130.3</ele>
        <time>2023-09-16T09:19:19Z</time>
      </trkpt>
      <trkpt lat="48.13485" lon="3.31904">
        <ele>131.1</ele>
        <time>2023-09-16T09:19:26Z</time>
      </trkpt>
      <trkpt lat="48.13485" lon="3.31908">
        <ele>131.4</ele>
        <time>2023-09-16T09:19:29Z</time>
      </trkpt>
      <trkpt lat="48.13486" lon="3.31918">
        <ele>132.1</ele>
        <time>2023-09-16T09:19:35Z</time>
      </trkpt>
      <trkpt lat="48.13487" lon="3.31923">
        <ele>132.3</ele>
        <time>2023-09-16T09:19:45Z</time>
      </trkpt>
      <trkpt lat="48.13488" lon="3.3193">
        <ele>132.7</ele>
        <time>2023-09-16T09:19:54Z</time>
      </trkpt>
      <trkpt lat="48.13488" lon="3.31932">
        <ele>132.8</ele>
        <time>2023-09-16T09:20:00Z</time>
      </trkpt>
      <trkpt lat="48.1349" lon="3.3194">
        <ele>133.1</ele>
        <time>2023-09-16T09:20:10Z</time>
      </trkpt>
      <trkpt lat="48.13492" lon="3.3195">
        <ele>134.1</ele>
        <time>2023-09-16T09:20:18Z</time>
      </trkpt>
      <trkpt lat="48.13493" lon="3.31962">
        <ele>135.8</ele>
        <time>2023-09-16T09:20:25Z</time>
      </trkpt>
      <trkpt lat="48.13495" lon="3.31981">
        <ele>138.4</ele>
        <time>2023-09-16T09:20:35Z</time>
      </trkpt>
      <trkpt lat="48.13495" lon="3.31994">
        <ele>140.2</ele>
        <time>2023-09-16T09:20:42Z</time>
      </trkpt>
      <trkpt lat="48.13496" lon="3.32001">
        <ele>141.1</ele>
        <time>2023-09-16T09:20:50Z</time>
      </trkpt>
      <trkpt lat="48.13494" lon="3.32009">
        <ele>142</ele>
        <time>2023-09-16T09:21:05Z</time>
      </trkpt>
      <trkpt lat="48.13492" lon="3.32021">
        <ele>143.3</ele>
        <time>2023-09-16T09:21:12Z</time>
      </trkpt>
      <trkpt lat="48.13489" lon="3.32029">
        <ele>144.1</ele>
        <time>2023-09-16T09:21:17Z</time>
      </trkpt>
      <trkpt lat="48.13487" lon="3.3204">
        <ele>145.1</ele>
        <time>2023-09-16T09:21:23Z</time>
      </trkpt>
      <trkpt lat="48.13486" lon="3.32042">
        <ele>145.3</ele>
        <time>2023-09-16T09:21:24Z</time>
      </trkpt>
      <trkpt lat="48.13483" lon="3.3205">
        <ele>146.1</ele>
        <time>2023-09-16T09:21:32Z</time>
      </trkpt>
      <trkpt lat="48.13482" lon="3.32052">
        <ele>146.3</ele>
        <time>2023-09-16T09:21:49Z</time>
      </trkpt>
      <trkpt lat="48.13481" lon="3.32056">
        <ele>146.7</ele>
        <time>2023-09-16T09:21:57Z</time>
      </trkpt>
      <trkpt lat="48.1348" lon="3.32059">
        <ele>147</ele>
        <time>2023-09-16T09:22:04Z</time>
      </trkpt>
      <trkpt lat="48.1348" lon="3.32062">
        <ele>147.3</ele>
        <time>2023-09-16T09:22:13Z</time>
      </trkpt>
      <trkpt lat="48.13482" lon="3.32071">
        <ele>148.2</ele>
        <time>2023-09-16T09:22:22Z</time>
      </trkpt>
      <trkpt lat="48.1348" lon="3.32075">
        <ele>148.5</ele>
        <time>2023-09-16T09:22:31Z</time>
      </trkpt>
      <trkpt lat="48.13479" lon="3.32085">
        <ele>149.4</ele>
        <time>2023-09-16T09:22:40Z</time>
      </trkpt>
      <trkpt lat="48.1348" lon="3.32097">
        <ele>150.6</ele>
        <time>2023-09-16T09:22:49Z</time>
      </trkpt>
      <trkpt lat="48.13485" lon="3.32104">
        <ele>151.3</ele>
        <time>2023-09-16T09:22:58Z</time>
      </trkpt>
      <trkpt lat="48.13488" lon="3.32115">
        <ele>152.4</ele>
        <time>2023-09-16T09:23:06Z</time>
      </trkpt>
      <trkpt lat="48.13493" lon="3.32122">
        <ele>153.2</ele>
        <time>2023-09-16T09:23:16Z</time>
      </trkpt>
      <trkpt lat="48.13496" lon="3.32126">
        <ele>153.6</ele>
        <time>2023-09-16T09:23:24Z</time>
      </trkpt>
      <trkpt lat="48.13499" lon="3.32128">
        <ele>153.8</ele>
        <time>2023-09-16T09:23:32Z</time>
      </trkpt>
      <trkpt lat="48.13505" lon="3.32128">
        <ele>154.3</ele>
        <time>2023-09-16T09:23:36Z</time>
      </trkpt>
      <trkpt lat="48.13515" lon="3.32128">
        <ele>155.1</ele>
        <time>2023-09-16T09:23:44Z</time>
      </trkpt>
      <trkpt lat="48.13525" lon="3.3213">
        <ele>156.1</ele>
        <time>2023-09-16T09:23:52Z</time>
      </trkpt>
      <trkpt lat="48.13531" lon="3.32131">
        <ele>156.7</ele>
        <time>2023-09-16T09:23:59Z</time>
      </trkpt>
      <trkpt lat="48.13538" lon="3.32131">
        <ele>157.3</ele>
        <time>2023-09-16T09:24:05Z</time>
      </trkpt>
      <trkpt lat="48.1355" lon="3.32133">
        <ele>158.3</ele>
        <time>2023-09-16T09:24:15Z</time>
      </trkpt>
      <trkpt lat="48.13561" lon="3.32136">
        <ele>159.5</ele>
        <time>2023-09-16T09:24:24Z</time>
      </trkpt>
      <trkpt lat="48.13569" lon="3.32143">
        <ele>160.7</ele>
        <time>2023-09-16T09:24:32Z</time>
      </trkpt>
      <trkpt lat="48.13578" lon="3.32143">
        <ele>161.6</ele>
        <time>2023-09-16T09:24:41Z</time>
      </trkpt>
      <trkpt lat="48.13585" lon="3.32146">
        <ele>162.4</ele>
        <time>2023-09-16T09:24:48Z</time>
      </trkpt>
      <trkpt lat="48.13586" lon="3.32147">
        <ele>162.5</ele>
        <time>2023-09-16T09:24:49Z</time>
      </trkpt>
      <trkpt lat="48.13596" lon="3.32145">
        <ele>163.1</ele>
        <time>2023-09-16T09:24:57Z</time>
      </trkpt>
      <trkpt lat="48.13597" lon="3.32144">
        <ele>163.2</ele>
        <time>2023-09-16T09:24:58Z</time>
      </trkpt>
      <trkpt lat="48.13606" lon="3.32135">
        <ele>163.5</ele>
        <time>2023-09-16T09:25:04Z</time>
      </trkpt>
      <trkpt lat="48.13613" lon="3.32126">
        <ele>163.6</ele>
        <time>2023-09-16T09:25:09Z</time>
      </trkpt>
      <trkpt lat="48.13616" lon="3.32109">
        <ele>163.3</ele>
        <time>2023-09-16T09:25:16Z</time>
      </trkpt>
      <trkpt lat="48.13616" lon="3.32104">
        <ele>163.1</ele>
        <time>2023-09-16T09:25:18Z</time>
      </trkpt>
      <trkpt lat="48.13616" lon="3.32097">
        <ele>162.8</ele>
        <time>2023-09-16T09:25:21Z</time>
      </trkpt>
      <trkpt lat="48.13615" lon="3.32079">
        <ele>162</ele>
        <time>2023-09-16T09:25:28Z</time>
      </trkpt>
      <trkpt lat="48.13619" lon="3.32059">
        <ele>161.1</ele>
        <time>2023-09-16T09:25:37Z</time>
      </trkpt>
      <trkpt lat="48.13626" lon="3.32048">
        <ele>161.2</ele>
        <time>2023-09-16T09:25:43Z</time>
      </trkpt>
      <trkpt lat="48.13631" lon="3.32048">
        <ele>161.7</ele>
        <time>2023-09-16T09:25:49Z</time>
      </trkpt>
      <trkpt lat="48.13639" lon="3.32049">
        <ele>162.5</ele>
        <time>2023-09-16T09:25:57Z</time>
      </trkpt>
      <trkpt lat="48.13647" lon="3.32047">
        <ele>162.7</ele>
        <time>2023-09-16T09:26:04Z</time>
      </trkpt>
      <trkpt lat="48.1365" lon="3.32046">
        <ele>162.7</ele>
        <time>2023-09-16T09:26:07Z</time>
      </trkpt>
      <trkpt lat="48.13657" lon="3.32048">
        <ele>163.1</ele>
        <time>2023-09-16T09:26:12Z</time>
      </trkpt>
      <trkpt lat="48.13663" lon="3.32052">
        <ele>163.6</ele>
        <time>2023-09-16T09:26:16Z</time>
      </trkpt>
      <trkpt lat="48.13675" lon="3.32059">
        <ele>164.4</ele>
        <time>2023-09-16T09:26:26Z</time>
      </trkpt>
      <trkpt lat="48.13684" lon="3.32064">
        <ele>164.9</ele>
        <time>2023-09-16T09:26:34Z</time>
      </trkpt>
      <trkpt lat="48.13691" lon="3.32057">
        <ele>164.9</ele>
        <time>2023-09-16T09:26:41Z</time>
      </trkpt>
      <trkpt lat="48.13698" lon="3.32049">
        <ele>164.6</ele>
        <time>2023-09-16T09:26:46Z</time>
      </trkpt>
      <trkpt lat="48.13707" lon="3.32044">
        <ele>164.4</ele>
        <time>2023-09-16T09:26:52Z</time>
      </trkpt>
      <trkpt lat="48.1371" lon="3.32035">
        <ele>163.9</ele>
        <time>2023-09-16T09:26:59Z</time>
      </trkpt>
      <trkpt lat="48.13711" lon="3.32028">
        <ele>163.6</ele>
        <time>2023-09-16T09:27:05Z</time>
      </trkpt>
      <trkpt lat="48.13712" lon="3.32027">
        <ele>163.6</ele>
        <time>2023-09-16T09:27:06Z</time>
      </trkpt>
      <trkpt lat="48.13713" lon="3.32017">
        <ele>162.9</ele>
        <time>2023-09-16T09:27:10Z</time>
      </trkpt>
      <trkpt lat="48.13717" lon="3.31992">
        <ele>161.2</ele>
        <time>2023-09-16T09:27:17Z</time>
      </trkpt>
      <trkpt lat="48.13723" lon="3.31981">
        <ele>160.6</ele>
        <time>2023-09-16T09:27:22Z</time>
      </trkpt>
      <trkpt lat="48.13724" lon="3.3198">
        <ele>160.6</ele>
        <time>2023-09-16T09:27:24Z</time>
      </trkpt>
      <trkpt lat="48.13732" lon="3.31979">
        <ele>160.5</ele>
        <time>2023-09-16T09:27:29Z</time>
      </trkpt>
      <trkpt lat="48.13734" lon="3.31977">
        <ele>160.3</ele>
        <time>2023-09-16T09:27:30Z</time>
      </trkpt>
      <trkpt lat="48.13742" lon="3.3196">
        <ele>159.1</ele>
        <time>2023-09-16T09:27:35Z</time>
      </trkpt>
      <trkpt lat="48.13749" lon="3.3195">
        <ele>158.4</ele>
        <time>2023-09-16T09:27:39Z</time>
      </trkpt>
      <trkpt lat="48.1375" lon="3.3195">
        <ele>158.4</ele>
        <time>2023-09-16T09:27:40Z</time>
      </trkpt>
      <trkpt lat="48.13754" lon="3.31948">
        <ele>158.1</ele>
        <time>2023-09-16T09:27:43Z</time>
      </trkpt>
      <trkpt lat="48.13763" lon="3.31948">
        <ele>157.8</ele>
        <time>2023-09-16T09:27:49Z</time>
      </trkpt>
      <trkpt lat="48.13767" lon="3.31944">
        <ele>157.3</ele>
        <time>2023-09-16T09:27:52Z</time>
      </trkpt>
      <trkpt lat="48.13776" lon="3.31936">
        <ele>156.2</ele>
        <time>2023-09-16T09:27:57Z</time>
      </trkpt>
      <trkpt lat="48.13793" lon="3.31922">
        <ele>152.9</ele>
        <time>2023-09-16T09:28:05Z</time>
      </trkpt>
      <trkpt lat="48.13798" lon="3.31921">
        <ele>152.3</ele>
        <time>2023-09-16T09:28:11Z</time>
      </trkpt>
      <trkpt lat="48.13805" lon="3.3192">
        <ele>151.4</ele>
        <time>2023-09-16T09:28:19Z</time>
      </trkpt>
      <trkpt lat="48.13819" lon="3.31914">
        <ele>148.4</ele>
        <time>2023-09-16T09:28:25Z</time>
      </trkpt>
      <trkpt lat="48.13826" lon="3.31905">
        <ele>146.5</ele>
        <time>2023-09-16T09:28:31Z</time>
      </trkpt>
      <trkpt lat="48.13829" lon="3.31904">
        <ele>145.9</ele>
        <time>2023-09-16T09:28:33Z</time>
      </trkpt>
      <trkpt lat="48.13833" lon="3.3191">
        <ele>145.6</ele>
        <time>2023-09-16T09:28:37Z</time>
      </trkpt>
      <trkpt lat="48.13839" lon="3.3193">
        <ele>146.9</ele>
        <time>2023-09-16T09:28:45Z</time>
      </trkpt>
      <trkpt lat="48.13843" lon="3.31933">
        <ele>146.6</ele>
        <time>2023-09-16T09:28:51Z</time>
      </trkpt>
      <trkpt lat="48.13844" lon="3.31932">
        <ele>146.3</ele>
        <time>2023-09-16T09:28:54Z</time>
      </trkpt>
      <trkpt lat="48.1385" lon="3.31917">
        <ele>143</ele>
        <time>2023-09-16T09:29:01Z</time>
      </trkpt>
      <trkpt lat="48.13858" lon="3.3191">
        <ele>140.9</ele>
        <time>2023-09-16T09:29:09Z</time>
      </trkpt>
      <trkpt lat="48.1386" lon="3.3191">
        <ele>140.5</ele>
        <time>2023-09-16T09:29:11Z</time>
      </trkpt>
      <trkpt lat="48.13867" lon="3.3191">
        <ele>139.4</ele>
        <time>2023-09-16T09:29:16Z</time>
      </trkpt>
      <trkpt lat="48.13873" lon="3.31913">
        <ele>138.8</ele>
        <time>2023-09-16T09:29:22Z</time>
      </trkpt>
      <trkpt lat="48.13876" lon="3.31915">
        <ele>138.6</ele>
        <time>2023-09-16T09:29:31Z</time>
      </trkpt>
      <trkpt lat="48.13882" lon="3.31915">
        <ele>137.8</ele>
        <time>2023-09-16T09:29:38Z</time>
      </trkpt>
      <trkpt lat="48.13885" lon="3.31916">
        <ele>137.5</ele>
        <time>2023-09-16T09:29:40Z</time>
      </trkpt>
      <trkpt lat="48.13891" lon="3.31915">
        <ele>136.6</ele>
        <time>2023-09-16T09:29:42Z</time>
      </trkpt>
      <trkpt lat="48.13896" lon="3.31909">
        <ele>135.4</ele>
        <time>2023-09-16T09:29:45Z</time>
      </trkpt>
      <trkpt lat="48.13899" lon="3.31907">
        <ele>134.9</ele>
        <time>2023-09-16T09:29:47Z</time>
      </trkpt>
      <trkpt lat="48.13912" lon="3.31904">
        <ele>133.5</ele>
        <time>2023-09-16T09:29:55Z</time>
      </trkpt>
      <trkpt lat="48.1392" lon="3.31904">
        <ele>133.2</ele>
        <time>2023-09-16T09:29:59Z</time>
      </trkpt>
      <trkpt lat="48.13929" lon="3.31902">
        <ele>132.9</ele>
        <time>2023-09-16T09:30:06Z</time>
      </trkpt>
      <trkpt lat="48.1394" lon="3.31903">
        <ele>133</ele>
        <time>2023-09-16T09:30:11Z</time>
      </trkpt>
      <trkpt lat="48.13943" lon="3.31902">
        <ele>132.9</ele>
        <time>2023-09-16T09:30:13Z</time>
      </trkpt>
      <trkpt lat="48.13955" lon="3.31899">
        <ele>132.5</ele>
        <time>2023-09-16T09:30:20Z</time>
      </trkpt>
      <trkpt lat="48.13963" lon="3.31895">
        <ele>131.9</ele>
        <time>2023-09-16T09:30:24Z</time>
      </trkpt>
      <trkpt lat="48.13972" lon="3.31895">
        <ele>131.9</ele>
        <time>2023-09-16T09:30:27Z</time>
      </trkpt>
      <trkpt lat="48.13982" lon="3.31892">
        <ele>131.1</ele>
        <time>2023-09-16T09:30:33Z</time>
      </trkpt>
      <trkpt lat="48.13992" lon="3.3189">
        <ele>130.5</ele>
        <time>2023-09-16T09:30:39Z</time>
      </trkpt>
      <trkpt lat="48.14006" lon="3.31896">
        <ele>131.7</ele>
        <time>2023-09-16T09:30:46Z</time>
      </trkpt>
      <trkpt lat="48.14014" lon="3.31898">
        <ele>132.5</ele>
        <time>2023-09-16T09:30:51Z</time>
      </trkpt>
      <trkpt lat="48.1402" lon="3.31897">
        <ele>132.7</ele>
        <time>2023-09-16T09:30:55Z</time>
      </trkpt>
      <trkpt lat="48.14019" lon="3.31894">
        <ele>132.2</ele>
        <time>2023-09-16T09:32:16Z</time>
      </trkpt>
      <trkpt lat="48.14018" lon="3.31893">
        <ele>131.9</ele>
        <time>2023-09-16T09:32:25Z</time>
      </trkpt>
      <trkpt lat="48.14018" lon="3.31891">
        <ele>131.6</ele>
        <time>2023-09-16T09:32:32Z</time>
      </trkpt>
      <trkpt lat="48.14018" lon="3.31891">
        <ele>131.6</ele>
        <time>2023-09-16T09:32:36Z</time>
      </trkpt>
      <trkpt lat="48.14013" lon="3.31877">
        <ele>129</ele>
        <time>2023-09-16T09:32:41Z</time>
      </trkpt>
      <trkpt lat="48.14012" lon="3.31874">
        <ele>128.4</ele>
        <time>2023-09-16T09:32:42Z</time>
      </trkpt>
      <trkpt lat="48.14011" lon="3.31858">
        <ele>125.8</ele>
        <time>2023-09-16T09:32:45Z</time>
      </trkpt>
      <trkpt lat="48.14008" lon="3.31837">
        <ele>123</ele>
        <time>2023-09-16T09:32:49Z</time>
      </trkpt>
      <trkpt lat="48.14008" lon="3.31828">
        <ele>121.8</ele>
        <time>2023-09-16T09:32:51Z</time>
      </trkpt>
      <trkpt lat="48.14009" lon="3.31825">
        <ele>121.4</ele>
        <time>2023-09-16T09:32:56Z</time>
      </trkpt>
      <trkpt lat="48.14009" lon="3.3182">
        <ele>120.7</ele>
        <time>2023-09-16T09:33:03Z</time>
      </trkpt>
      <trkpt lat="48.14009" lon="3.31819">
        <ele>120.6</ele>
        <time>2023-09-16T09:33:06Z</time>
      </trkpt>
      <trkpt lat="48.14011" lon="3.31815">
        <ele>120.2</ele>
        <time>2023-09-16T09:33:08Z</time>
      </trkpt>
      <trkpt lat="48.1401" lon="3.31797">
        <ele>117.7</ele>
        <time>2023-09-16T09:33:12Z</time>
      </trkpt>
      <trkpt lat="48.14009" lon="3.31788">
        <ele>116.5</ele>
        <time>2023-09-16T09:33:13Z</time>
      </trkpt>
      <trkpt lat="48.14004" lon="3.31764">
        <ele>112.7</ele>
        <time>2023-09-16T09:33:16Z</time>
      </trkpt>
      <trkpt lat="48.14002" lon="3.31727">
        <ele>106.9</ele>
        <time>2023-09-16T09:33:20Z</time>
      </trkpt>
      <trkpt lat="48.14003" lon="3.31689">
        <ele>103.5</ele>
        <time>2023-09-16T09:33:23Z</time>
      </trkpt>
      <trkpt lat="48.14004" lon="3.31641">
        <ele>98.4</ele>
        <time>2023-09-16T09:33:27Z</time>
      </trkpt>
      <trkpt lat="48.14005" lon="3.31598">
        <ele>94.7</ele>
        <time>2023-09-16T09:33:29Z</time>
      </trkpt>
    </trkseg>
  </trk>
  <trk>
    <name><![CDATA[VTT7 Normal]]></name>
    <extensions>
      <line xmlns="http://www.topografix.com/GPX/gpx_style/0/2">
        <color>ff00bb</color>
        <width>5</width>
      </line>
    </extensions>
    <trkseg>
      <trkpt lat="48.12595" lon="3.30846">
        <ele>81</ele>
        <time>2023-09-16T09:07:01Z</time>
        <extensions>
          <visugpx:TrkExtension xmlns:visugpx="https://www.visugpx.com/editgpx/">
            <visugpx:node>1</visugpx:node>
            </visugpx:TrkExtension>
        </extensions>
      </trkpt>
      <trkpt lat="48.12594" lon="3.3084">
        <ele>80.9</ele>
        <time>2023-09-16T09:07:17Z</time>
      </trkpt>
      <trkpt lat="48.12595" lon="3.30842">
        <ele>80.9</ele>
        <time>2023-09-16T09:07:24Z</time>
      </trkpt>
      <trkpt lat="48.12597" lon="3.30843">
        <ele>80.9</ele>
        <time>2023-09-16T09:07:25Z</time>
      </trkpt>
      <trkpt lat="48.12599" lon="3.30844">
        <ele>80.8</ele>
        <time>2023-09-16T09:07:26Z</time>
      </trkpt>
      <trkpt lat="48.126" lon="3.30845">
        <ele>80.8</ele>
        <time>2023-09-16T09:07:27Z</time>
      </trkpt>
      <trkpt lat="48.12602" lon="3.30847">
        <ele>80.8</ele>
        <time>2023-09-16T09:07:28Z</time>
      </trkpt>
      <trkpt lat="48.12603" lon="3.3085">
        <ele>80.9</ele>
        <time>2023-09-16T09:07:29Z</time>
      </trkpt>
      <trkpt lat="48.12603" lon="3.30853">
        <ele>81</ele>
        <time>2023-09-16T09:07:30Z</time>
      </trkpt>
      <trkpt lat="48.12602" lon="3.30855">
        <ele>81.1</ele>
        <time>2023-09-16T09:07:31Z</time>
      </trkpt>
      <trkpt lat="48.12601" lon="3.30857">
        <ele>81.2</ele>
        <time>2023-09-16T09:07:32Z</time>
      </trkpt>
      <trkpt lat="48.12599" lon="3.30859">
        <ele>81.4</ele>
        <time>2023-09-16T09:07:33Z</time>
      </trkpt>
      <trkpt lat="48.12598" lon="3.30862">
        <ele>81.5</ele>
        <time>2023-09-16T09:07:34Z</time>
      </trkpt>
      <trkpt lat="48.12596" lon="3.30863">
        <ele>81.6</ele>
        <time>2023-09-16T09:07:35Z</time>
      </trkpt>
      <trkpt lat="48.12594" lon="3.30866">
        <ele>81.8</ele>
        <time>2023-09-16T09:07:36Z</time>
      </trkpt>
      <trkpt lat="48.12592" lon="3.30868">
        <ele>81.8</ele>
        <time>2023-09-16T09:07:37Z</time>
      </trkpt>
      <trkpt lat="48.12584" lon="3.30885">
        <ele>82</ele>
        <time>2023-09-16T09:07:43Z</time>
      </trkpt>
      <trkpt lat="48.12584" lon="3.30887">
        <ele>82</ele>
        <time>2023-09-16T09:07:44Z</time>
      </trkpt>
      <trkpt lat="48.12588" lon="3.30894">
        <ele>82.5</ele>
        <time>2023-09-16T09:07:48Z</time>
      </trkpt>
      <trkpt lat="48.12602" lon="3.30907">
        <ele>84</ele>
        <time>2023-09-16T09:07:57Z</time>
      </trkpt>
      <trkpt lat="48.1262" lon="3.30925">
        <ele>85.1</ele>
        <time>2023-09-16T09:08:09Z</time>
      </trkpt>
      <trkpt lat="48.12629" lon="3.30942">
        <ele>86.1</ele>
        <time>2023-09-16T09:08:17Z</time>
      </trkpt>
      <trkpt lat="48.12625" lon="3.3096">
        <ele>87.6</ele>
        <time>2023-09-16T09:08:24Z</time>
      </trkpt>
      <trkpt lat="48.12621" lon="3.30975">
        <ele>88.8</ele>
        <time>2023-09-16T09:08:31Z</time>
      </trkpt>
      <trkpt lat="48.12625" lon="3.30983">
        <ele>89.1</ele>
        <time>2023-09-16T09:08:35Z</time>
      </trkpt>
      <trkpt lat="48.12636" lon="3.31004">
        <ele>89.3</ele>
        <time>2023-09-16T09:08:45Z</time>
      </trkpt>
      <trkpt lat="48.12634" lon="3.31028">
        <ele>90.2</ele>
        <time>2023-09-16T09:08:53Z</time>
      </trkpt>
      <trkpt lat="48.12628" lon="3.31053">
        <ele>91.3</ele>
        <time>2023-09-16T09:09:02Z</time>
      </trkpt>
      <trkpt lat="48.12624" lon="3.31075">
        <ele>92.6</ele>
        <time>2023-09-16T09:09:10Z</time>
      </trkpt>
      <trkpt lat="48.12621" lon="3.31093">
        <ele>93.3</ele>
        <time>2023-09-16T09:09:17Z</time>
      </trkpt>
      <trkpt lat="48.12629" lon="3.31098">
        <ele>93.5</ele>
        <time>2023-09-16T09:09:23Z</time>
      </trkpt>
      <trkpt lat="48.12648" lon="3.31101">
        <ele>93.2</ele>
        <time>2023-09-16T09:09:30Z</time>
      </trkpt>
      <trkpt lat="48.12667" lon="3.31103">
        <ele>92.4</ele>
        <time>2023-09-16T09:09:37Z</time>
      </trkpt>
      <trkpt lat="48.12694" lon="3.31105">
        <ele>91.4</ele>
        <time>2023-09-16T09:09:45Z</time>
      </trkpt>
      <trkpt lat="48.12718" lon="3.31107">
        <ele>88.4</ele>
        <time>2023-09-16T09:09:51Z</time>
      </trkpt>
      <trkpt lat="48.12723" lon="3.31106">
        <ele>87.4</ele>
        <time>2023-09-16T09:09:53Z</time>
      </trkpt>
      <trkpt lat="48.12726" lon="3.31108">
        <ele>87.2</ele>
        <time>2023-09-16T09:09:55Z</time>
      </trkpt>
      <trkpt lat="48.12747" lon="3.31114">
        <ele>83.4</ele>
        <time>2023-09-16T09:09:59Z</time>
      </trkpt>
      <trkpt lat="48.12771" lon="3.31118">
        <ele>82.4</ele>
        <time>2023-09-16T09:10:02Z</time>
      </trkpt>
      <trkpt lat="48.12818" lon="3.31133">
        <ele>80.6</ele>
        <time>2023-09-16T09:10:08Z</time>
      </trkpt>
      <trkpt lat="48.12855" lon="3.31148">
        <ele>80.7</ele>
        <time>2023-09-16T09:10:14Z</time>
      </trkpt>
      <trkpt lat="48.12859" lon="3.31148">
        <ele>80.7</ele>
        <time>2023-09-16T09:10:15Z</time>
      </trkpt>
      <trkpt lat="48.12872" lon="3.31149">
        <ele>80.5</ele>
        <time>2023-09-16T09:10:18Z</time>
      </trkpt>
      <trkpt lat="48.12903" lon="3.31152">
        <ele>80.4</ele>
        <time>2023-09-16T09:10:26Z</time>
      </trkpt>
      <trkpt lat="48.12941" lon="3.31163">
        <ele>80.8</ele>
        <time>2023-09-16T09:10:36Z</time>
      </trkpt>
      <trkpt lat="48.12965" lon="3.31171">
        <ele>80.5</ele>
        <time>2023-09-16T09:10:44Z</time>
      </trkpt>
      <trkpt lat="48.12968" lon="3.31172">
        <ele>80.4</ele>
        <time>2023-09-16T09:10:46Z</time>
      </trkpt>
      <trkpt lat="48.12915" lon="3.31422">
        <ele>100.9</ele>
      </trkpt>
      <trkpt lat="48.13027" lon="3.31465">
        <ele>97.4</ele>
        <time>2023-09-16T09:14:26Z</time>
      </trkpt>
      <trkpt lat="48.13147" lon="3.31512">
        <ele>94.6</ele>
        <time>2023-09-16T09:14:35Z</time>
      </trkpt>
      <trkpt lat="48.1317" lon="3.3162">
        <ele>101.9</ele>
        <time>2023-09-16T09:14:43Z</time>
      </trkpt>
      <trkpt lat="48.13491" lon="3.31693">
        <ele>109.4</ele>
        <time>2023-09-16T09:14:51Z</time>
      </trkpt>
      <trkpt lat="48.13493" lon="3.3144">
        <ele>85.6</ele>
        <time>2023-09-16T09:15:05Z</time>
      </trkpt>
      <trkpt lat="48.13647" lon="3.31452">
        <ele>87.8</ele>
        <time>2023-09-16T09:16:58Z</time>
      </trkpt>
      <trkpt lat="48.13731" lon="3.31468">
        <ele>89.4</ele>
        <time>2023-09-16T09:33:27Z</time>
      </trkpt>
      <trkpt lat="48.139" lon="3.31531">
        <ele>89.9</ele>
        <time>2023-09-16T09:33:29Z</time>
      </trkpt>
      <trkpt lat="48.13961" lon="3.31555">
        <ele>91.3</ele>
        <time>2023-09-16T09:33:32Z</time>
      </trkpt>
      <trkpt lat="48.14016" lon="3.31597">
        <ele>95.1</ele>
        <time>2023-09-16T09:33:34Z</time>
      </trkpt>
      <trkpt lat="48.14022" lon="3.31598">
        <ele>95.4</ele>
        <time>2023-09-16T09:33:36Z</time>
      </trkpt>
      <trkpt lat="48.14055" lon="3.31609">
        <ele>97.7</ele>
        <time>2023-09-16T09:33:50Z</time>
      </trkpt>
      <trkpt lat="48.14068" lon="3.31614">
        <ele>98.3</ele>
        <time>2023-09-16T09:33:57Z</time>
      </trkpt>
      <trkpt lat="48.14088" lon="3.31621">
        <ele>99.1</ele>
        <time>2023-09-16T09:34:06Z</time>
      </trkpt>
      <trkpt lat="48.14111" lon="3.31626">
        <ele>100.1</ele>
        <time>2023-09-16T09:34:15Z</time>
      </trkpt>
      <trkpt lat="48.14142" lon="3.31639">
        <ele>101.1</ele>
        <time>2023-09-16T09:34:25Z</time>
      </trkpt>
      <trkpt lat="48.14168" lon="3.31639">
        <ele>102</ele>
        <time>2023-09-16T09:34:33Z</time>
      </trkpt>
      <trkpt lat="48.14191" lon="3.3164">
        <ele>101.2</ele>
        <time>2023-09-16T09:34:39Z</time>
      </trkpt>
      <trkpt lat="48.14195" lon="3.3164">
        <ele>101.1</ele>
        <time>2023-09-16T09:34:40Z</time>
      </trkpt>
      <trkpt lat="48.14199" lon="3.31641">
        <ele>101.2</ele>
        <time>2023-09-16T09:34:41Z</time>
      </trkpt>
      <trkpt lat="48.14223" lon="3.31638">
        <ele>100.9</ele>
        <time>2023-09-16T09:34:47Z</time>
      </trkpt>
      <trkpt lat="48.14232" lon="3.31636">
        <ele>100.6</ele>
        <time>2023-09-16T09:34:49Z</time>
      </trkpt>
      <trkpt lat="48.14237" lon="3.31634">
        <ele>100.3</ele>
        <time>2023-09-16T09:34:50Z</time>
      </trkpt>
      <trkpt lat="48.14252" lon="3.31626">
        <ele>99.1</ele>
        <time>2023-09-16T09:34:53Z</time>
      </trkpt>
      <trkpt lat="48.14281" lon="3.31617">
        <ele>97.9</ele>
        <time>2023-09-16T09:34:58Z</time>
      </trkpt>
      <trkpt lat="48.14288" lon="3.31616">
        <ele>97.9</ele>
        <time>2023-09-16T09:34:59Z</time>
      </trkpt>
      <trkpt lat="48.14294" lon="3.31614">
        <ele>97.9</ele>
        <time>2023-09-16T09:35:00Z</time>
      </trkpt>
      <trkpt lat="48.143" lon="3.3161">
        <ele>97.6</ele>
        <time>2023-09-16T09:35:01Z</time>
      </trkpt>
      <trkpt lat="48.14306" lon="3.31608">
        <ele>97.4</ele>
        <time>2023-09-16T09:35:02Z</time>
      </trkpt>
      <trkpt lat="48.14313" lon="3.31607">
        <ele>97.3</ele>
        <time>2023-09-16T09:35:03Z</time>
      </trkpt>
      <trkpt lat="48.1432" lon="3.31604">
        <ele>96.9</ele>
        <time>2023-09-16T09:35:04Z</time>
      </trkpt>
      <trkpt lat="48.14326" lon="3.316">
        <ele>96.3</ele>
        <time>2023-09-16T09:35:05Z</time>
      </trkpt>
      <trkpt lat="48.14332" lon="3.31598">
        <ele>96.1</ele>
        <time>2023-09-16T09:35:06Z</time>
      </trkpt>
      <trkpt lat="48.14339" lon="3.31596">
        <ele>96</ele>
        <time>2023-09-16T09:35:07Z</time>
      </trkpt>
      <trkpt lat="48.14346" lon="3.31593">
        <ele>96</ele>
        <time>2023-09-16T09:35:08Z</time>
      </trkpt>
      <trkpt lat="48.14352" lon="3.31589">
        <ele>95.9</ele>
        <time>2023-09-16T09:35:09Z</time>
      </trkpt>
      <trkpt lat="48.14358" lon="3.31586">
        <ele>96</ele>
        <time>2023-09-16T09:35:10Z</time>
      </trkpt>
      <trkpt lat="48.14378" lon="3.31577">
        <ele>94.9</ele>
        <time>2023-09-16T09:35:13Z</time>
      </trkpt>
      <trkpt lat="48.14391" lon="3.31573">
        <ele>94.6</ele>
        <time>2023-09-16T09:35:15Z</time>
      </trkpt>
      <trkpt lat="48.14397" lon="3.31571">
        <ele>94.8</ele>
        <time>2023-09-16T09:35:16Z</time>
      </trkpt>
      <trkpt lat="48.14404" lon="3.3157">
        <ele>95.1</ele>
        <time>2023-09-16T09:35:17Z</time>
      </trkpt>
      <trkpt lat="48.1441" lon="3.31567">
        <ele>95.3</ele>
        <time>2023-09-16T09:35:18Z</time>
      </trkpt>
      <trkpt lat="48.14415" lon="3.31564">
        <ele>95.5</ele>
        <time>2023-09-16T09:35:19Z</time>
      </trkpt>
      <trkpt lat="48.14421" lon="3.31562">
        <ele>95.5</ele>
        <time>2023-09-16T09:35:20Z</time>
      </trkpt>
      <trkpt lat="48.14426" lon="3.3156">
        <ele>95.4</ele>
        <time>2023-09-16T09:35:21Z</time>
      </trkpt>
      <trkpt lat="48.14458" lon="3.31546">
        <ele>93.4</ele>
        <time>2023-09-16T09:35:27Z</time>
      </trkpt>
      <trkpt lat="48.14482" lon="3.31534">
        <ele>92.8</ele>
        <time>2023-09-16T09:35:31Z</time>
      </trkpt>
      <trkpt lat="48.14487" lon="3.3153">
        <ele>92.3</ele>
        <time>2023-09-16T09:35:32Z</time>
      </trkpt>
      <trkpt lat="48.14494" lon="3.31526">
        <ele>91.7</ele>
        <time>2023-09-16T09:35:33Z</time>
      </trkpt>
      <trkpt lat="48.14516" lon="3.31514">
        <ele>90.1</ele>
        <time>2023-09-16T09:35:36Z</time>
      </trkpt>
      <trkpt lat="48.14524" lon="3.31508">
        <ele>89.7</ele>
        <time>2023-09-16T09:35:37Z</time>
      </trkpt>
      <trkpt lat="48.14548" lon="3.31489">
        <ele>87.2</ele>
        <time>2023-09-16T09:35:40Z</time>
      </trkpt>
      <trkpt lat="48.14565" lon="3.31475">
        <ele>86.2</ele>
        <time>2023-09-16T09:35:42Z</time>
      </trkpt>
      <trkpt lat="48.14585" lon="3.31457">
        <ele>84.4</ele>
        <time>2023-09-16T09:35:45Z</time>
      </trkpt>
      <trkpt lat="48.14614" lon="3.31431">
        <ele>82.6</ele>
        <time>2023-09-16T09:35:50Z</time>
      </trkpt>
      <trkpt lat="48.14622" lon="3.31427">
        <ele>82.4</ele>
        <time>2023-09-16T09:35:51Z</time>
      </trkpt>
      <trkpt lat="48.14628" lon="3.31425">
        <ele>82.3</ele>
        <time>2023-09-16T09:35:52Z</time>
      </trkpt>
      <trkpt lat="48.14633" lon="3.31425">
        <ele>82.5</ele>
        <time>2023-09-16T09:35:53Z</time>
      </trkpt>
      <trkpt lat="48.1464" lon="3.31424">
        <ele>82.5</ele>
        <time>2023-09-16T09:35:54Z</time>
      </trkpt>
      <trkpt lat="48.14659" lon="3.31424">
        <ele>82.5</ele>
        <time>2023-09-16T09:35:58Z</time>
      </trkpt>
      <trkpt lat="48.14691" lon="3.31428">
        <ele>82.5</ele>
        <time>2023-09-16T09:36:05Z</time>
      </trkpt>
      <trkpt lat="48.14721" lon="3.31433">
        <ele>82.6</ele>
        <time>2023-09-16T09:36:12Z</time>
      </trkpt>
      <trkpt lat="48.1476" lon="3.3144">
        <ele>83.7</ele>
        <time>2023-09-16T09:36:22Z</time>
      </trkpt>
      <trkpt lat="48.14781" lon="3.31446">
        <ele>84.1</ele>
        <time>2023-09-16T09:36:29Z</time>
      </trkpt>
      <trkpt lat="48.14809" lon="3.3145">
        <ele>84.7</ele>
        <time>2023-09-16T09:36:37Z</time>
      </trkpt>
      <trkpt lat="48.14844" lon="3.31457">
        <ele>86.1</ele>
        <time>2023-09-16T09:36:48Z</time>
      </trkpt>
      <trkpt lat="48.14873" lon="3.31462">
        <ele>86.9</ele>
        <time>2023-09-16T09:36:58Z</time>
      </trkpt>
      <trkpt lat="48.14898" lon="3.31466">
        <ele>87.1</ele>
        <time>2023-09-16T09:37:07Z</time>
      </trkpt>
      <trkpt lat="48.14914" lon="3.31469">
        <ele>87</ele>
        <time>2023-09-16T09:37:14Z</time>
      </trkpt>
      <trkpt lat="48.14923" lon="3.3147">
        <ele>87.1</ele>
        <time>2023-09-16T09:37:20Z</time>
      </trkpt>
      <trkpt lat="48.14925" lon="3.3147">
        <ele>87.2</ele>
        <time>2023-09-16T09:37:26Z</time>
      </trkpt>
      <trkpt lat="48.1493" lon="3.31469">
        <ele>87.3</ele>
        <time>2023-09-16T09:37:34Z</time>
      </trkpt>
      <trkpt lat="48.14932" lon="3.31469">
        <ele>87.4</ele>
        <time>2023-09-16T09:37:36Z</time>
      </trkpt>
      <trkpt lat="48.14933" lon="3.31469">
        <ele>87.4</ele>
        <time>2023-09-16T09:37:37Z</time>
      </trkpt>
      <trkpt lat="48.14949" lon="3.31471">
        <ele>87.7</ele>
        <time>2023-09-16T09:37:46Z</time>
      </trkpt>
      <trkpt lat="48.14972" lon="3.31479">
        <ele>87.7</ele>
        <time>2023-09-16T09:37:55Z</time>
      </trkpt>
      <trkpt lat="48.14996" lon="3.31483">
        <ele>87.3</ele>
        <time>2023-09-16T09:38:04Z</time>
      </trkpt>
      <trkpt lat="48.15027" lon="3.31488">
        <ele>86.2</ele>
        <time>2023-09-16T09:38:13Z</time>
      </trkpt>
      <trkpt lat="48.15047" lon="3.31494">
        <ele>84</ele>
        <time>2023-09-16T09:38:20Z</time>
      </trkpt>
      <trkpt lat="48.1505" lon="3.31495">
        <ele>83.8</ele>
        <time>2023-09-16T09:38:26Z</time>
      </trkpt>
      <trkpt lat="48.15052" lon="3.31494">
        <ele>83.4</ele>
        <time>2023-09-16T09:38:35Z</time>
      </trkpt>
      <trkpt lat="48.15054" lon="3.31494">
        <ele>83.1</ele>
        <time>2023-09-16T09:38:43Z</time>
      </trkpt>
      <trkpt lat="48.15055" lon="3.31494">
        <ele>83</ele>
        <time>2023-09-16T09:38:52Z</time>
      </trkpt>
      <trkpt lat="48.15057" lon="3.31494">
        <ele>82.9</ele>
        <time>2023-09-16T09:39:01Z</time>
      </trkpt>
      <trkpt lat="48.15046" lon="3.31452">
        <ele>81.6</ele>
      </trkpt>
      <trkpt lat="48.15041" lon="3.31431">
        <ele>81.3</ele>
        <time>2023-09-16T09:39:10Z</time>
      </trkpt>
      <trkpt lat="48.15038" lon="3.31409">
        <ele>80.5</ele>
        <time>2023-09-16T09:39:21Z</time>
      </trkpt>
      <trkpt lat="48.15033" lon="3.31364">
        <ele>78.2</ele>
        <time>2023-09-16T09:39:30Z</time>
      </trkpt>
      <trkpt lat="48.15035" lon="3.31365">
        <ele>78.3</ele>
      </trkpt>
      <trkpt lat="48.15041" lon="3.31405">
        <ele>80.3</ele>
      </trkpt>
      <trkpt lat="48.15056" lon="3.31452">
        <ele>80.5</ele>
      </trkpt>
      <trkpt lat="48.1507" lon="3.31498">
        <ele>83.3</ele>
        <time>2023-09-16T09:39:37Z</time>
      </trkpt>
      <trkpt lat="48.15071" lon="3.31499">
        <ele>83.3</ele>
        <time>2023-09-16T09:39:38Z</time>
      </trkpt>
      <trkpt lat="48.15072" lon="3.315">
        <ele>83.4</ele>
        <time>2023-09-16T09:39:39Z</time>
      </trkpt>
      <trkpt lat="48.15075" lon="3.31513">
        <ele>83.6</ele>
        <time>2023-09-16T09:39:45Z</time>
      </trkpt>
      <trkpt lat="48.15079" lon="3.31538">
        <ele>83.9</ele>
        <time>2023-09-16T09:39:54Z</time>
      </trkpt>
      <trkpt lat="48.1508" lon="3.31567">
        <ele>84.5</ele>
        <time>2023-09-16T09:40:02Z</time>
      </trkpt>
      <trkpt lat="48.15079" lon="3.31609">
        <ele>84.6</ele>
        <time>2023-09-16T09:40:12Z</time>
      </trkpt>
      <trkpt lat="48.15075" lon="3.31661">
        <ele>85.2</ele>
        <time>2023-09-16T09:40:22Z</time>
      </trkpt>
      <trkpt lat="48.15069" lon="3.31696">
        <ele>84</ele>
        <time>2023-09-16T09:40:29Z</time>
      </trkpt>
      <trkpt lat="48.1506" lon="3.31739">
        <ele>85.7</ele>
        <time>2023-09-16T09:40:38Z</time>
      </trkpt>
      <trkpt lat="48.15057" lon="3.31754">
        <ele>87</ele>
        <time>2023-09-16T09:40:41Z</time>
      </trkpt>
      <trkpt lat="48.15063" lon="3.31758">
        <ele>87.4</ele>
        <time>2023-09-16T09:40:42Z</time>
      </trkpt>
      <trkpt lat="48.15071" lon="3.3177">
        <ele>88.4</ele>
      </trkpt>
      <trkpt lat="48.15053" lon="3.31804">
        <ele>88.7</ele>
        <time>2023-09-16T09:40:58Z</time>
      </trkpt>
      <trkpt lat="48.15054" lon="3.31861">
        <ele>92.6</ele>
      </trkpt>
      <trkpt lat="48.15038" lon="3.32149">
        <ele>94.8</ele>
      </trkpt>
      <trkpt lat="48.15005" lon="3.32482">
        <ele>104.6</ele>
        <time>2023-09-16T09:41:04Z</time>
      </trkpt>
    </trkseg>
  </trk>
  <trk>
    <name><![CDATA[Trail 8 Bonus]]></name>
    <extensions>
      <line xmlns="http://www.topografix.com/GPX/gpx_style/0/2">
        <color>ff0000</color>
        <width>4</width>
          <extensions>
            <sens>1</sens>
          </extensions>
      </line>
    </extensions>
    <trkseg>
      <trkpt lat="48.15003" lon="3.32527">
        <ele>107.5</ele>
        <time>2024-05-15T11:18:21.000Z</time>
      </trkpt>
      <trkpt lat="48.15005" lon="3.32531">
        <ele>108.1</ele>
        <time>2024-05-15T11:18:20.000Z</time>
      </trkpt>
      <trkpt lat="48.15007" lon="3.32534">
        <ele>108.7</ele>
        <time>2024-05-15T11:18:19.000Z</time>
      </trkpt>
      <trkpt lat="48.1501" lon="3.32535">
        <ele>109.3</ele>
        <time>2024-05-15T11:18:18.000Z</time>
      </trkpt>
      <trkpt lat="48.15013" lon="3.32536">
        <ele>109.9</ele>
        <time>2024-05-15T11:18:17.000Z</time>
      </trkpt>
      <trkpt lat="48.15016" lon="3.32536">
        <ele>110.5</ele>
        <time>2024-05-15T11:18:16.000Z</time>
      </trkpt>
      <trkpt lat="48.15019" lon="3.32535">
        <ele>110.9</ele>
        <time>2024-05-15T11:18:15.000Z</time>
      </trkpt>
      <trkpt lat="48.15023" lon="3.3253">
        <ele>111.3</ele>
        <time>2024-05-15T11:18:13.000Z</time>
      </trkpt>
      <trkpt lat="48.15025" lon="3.32529">
        <ele>111.6</ele>
        <time>2024-05-15T11:18:12.000Z</time>
      </trkpt>
      <trkpt lat="48.15027" lon="3.32529">
        <ele>111.9</ele>
        <time>2024-05-15T11:18:11.000Z</time>
      </trkpt>
      <trkpt lat="48.15029" lon="3.3253">
        <ele>112.5</ele>
        <time>2024-05-15T11:18:10.000Z</time>
      </trkpt>
      <trkpt lat="48.1503" lon="3.32533">
        <ele>113.1</ele>
        <time>2024-05-15T11:18:09.000Z</time>
      </trkpt>
      <trkpt lat="48.15033" lon="3.32538">
        <ele>114.3</ele>
        <time>2024-05-15T11:18:07.000Z</time>
      </trkpt>
      <trkpt lat="48.15035" lon="3.32541">
        <ele>115</ele>
        <time>2024-05-15T11:18:06.000Z</time>
      </trkpt>
      <trkpt lat="48.15037" lon="3.32544">
        <ele>115.8</ele>
        <time>2024-05-15T11:18:05.000Z</time>
      </trkpt>
      <trkpt lat="48.15038" lon="3.32547">
        <ele>116.2</ele>
        <time>2024-05-15T11:18:04.000Z</time>
      </trkpt>
      <trkpt lat="48.1504" lon="3.32553">
        <ele>117</ele>
        <time>2024-05-15T11:18:02.000Z</time>
      </trkpt>
      <trkpt lat="48.15042" lon="3.32554">
        <ele>117.5</ele>
        <time>2024-05-15T11:18:01.000Z</time>
      </trkpt>
      <trkpt lat="48.15044" lon="3.32555">
        <ele>118.1</ele>
        <time>2024-05-15T11:18:00.000Z</time>
      </trkpt>
      <trkpt lat="48.15046" lon="3.32554">
        <ele>118.6</ele>
        <time>2024-05-15T11:17:59.000Z</time>
      </trkpt>
      <trkpt lat="48.15048" lon="3.32553">
        <ele>119</ele>
        <time>2024-05-15T11:17:58.000Z</time>
      </trkpt>
      <trkpt lat="48.15049" lon="3.32552">
        <ele>119.3</ele>
        <time>2024-05-15T11:17:57.000Z</time>
      </trkpt>
      <trkpt lat="48.1505" lon="3.32549">
        <ele>119.5</ele>
        <time>2024-05-15T11:17:56.000Z</time>
      </trkpt>
      <trkpt lat="48.15052" lon="3.32545">
        <ele>120</ele>
        <time>2024-05-15T11:17:55.000Z</time>
      </trkpt>
      <trkpt lat="48.15055" lon="3.32541">
        <ele>120.8</ele>
        <time>2024-05-15T11:17:54.000Z</time>
      </trkpt>
      <trkpt lat="48.15057" lon="3.32539">
        <ele>121.5</ele>
        <time>2024-05-15T11:17:53.000Z</time>
      </trkpt>
      <trkpt lat="48.1506" lon="3.32538">
        <ele>122.4</ele>
        <time>2024-05-15T11:17:52.000Z</time>
      </trkpt>
      <trkpt lat="48.15064" lon="3.32537">
        <ele>123.6</ele>
        <time>2024-05-15T11:17:51.000Z</time>
      </trkpt>
      <trkpt lat="48.15067" lon="3.32538">
        <ele>124.6</ele>
        <time>2024-05-15T11:17:50.000Z</time>
      </trkpt>
      <trkpt lat="48.15069" lon="3.32535">
        <ele>125.1</ele>
        <time>2024-05-15T11:17:49.000Z</time>
      </trkpt>
      <trkpt lat="48.15072" lon="3.32533">
        <ele>126</ele>
        <time>2024-05-15T11:17:48.000Z</time>
      </trkpt>
      <trkpt lat="48.15075" lon="3.32532">
        <ele>126.8</ele>
        <time>2024-05-15T11:17:47.000Z</time>
      </trkpt>
      <trkpt lat="48.15078" lon="3.32529">
        <ele>127.5</ele>
        <time>2024-05-15T11:17:46.000Z</time>
      </trkpt>
      <trkpt lat="48.15083" lon="3.32519">
        <ele>128.6</ele>
        <time>2024-05-15T11:17:44.000Z</time>
      </trkpt>
      <trkpt lat="48.15086" lon="3.32514">
        <ele>129.3</ele>
        <time>2024-05-15T11:17:43.000Z</time>
      </trkpt>
      <trkpt lat="48.15089" lon="3.32511">
        <ele>130.1</ele>
        <time>2024-05-15T11:17:42.000Z</time>
      </trkpt>
      <trkpt lat="48.15091" lon="3.32508">
        <ele>130.6</ele>
        <time>2024-05-15T11:17:41.000Z</time>
      </trkpt>
      <trkpt lat="48.15093" lon="3.32501">
        <ele>130.8</ele>
        <time>2024-05-15T11:17:39.000Z</time>
      </trkpt>
      <trkpt lat="48.15094" lon="3.32498">
        <ele>130.9</ele>
        <time>2024-05-15T11:17:38.000Z</time>
      </trkpt>
      <trkpt lat="48.15097" lon="3.32482">
        <ele>130.6</ele>
        <time>2024-05-15T11:17:34.000Z</time>
      </trkpt>
      <trkpt lat="48.15097" lon="3.3248">
        <ele>130.5</ele>
        <time>2024-05-15T11:17:33.000Z</time>
      </trkpt>
      <trkpt lat="48.15097" lon="3.32476">
        <ele>130.2</ele>
        <time>2024-05-15T11:17:32.000Z</time>
      </trkpt>
      <trkpt lat="48.15098" lon="3.32474">
        <ele>130.4</ele>
        <time>2024-05-15T11:17:31.000Z</time>
      </trkpt>
      <trkpt lat="48.15099" lon="3.32471">
        <ele>130.4</ele>
        <time>2024-05-15T11:17:29.000Z</time>
      </trkpt>
      <trkpt lat="48.15099" lon="3.32469">
        <ele>130.2</ele>
        <time>2024-05-15T11:17:28.000Z</time>
      </trkpt>
      <trkpt lat="48.151" lon="3.32468">
        <ele>130.3</ele>
        <time>2024-05-15T11:17:27.000Z</time>
      </trkpt>
      <trkpt lat="48.151" lon="3.32466">
        <ele>130.1</ele>
        <time>2024-05-15T11:17:26.000Z</time>
      </trkpt>
      <trkpt lat="48.151" lon="3.32463">
        <ele>129.8</ele>
        <time>2024-05-15T11:17:25.000Z</time>
      </trkpt>
      <trkpt lat="48.15101" lon="3.32461">
        <ele>129.9</ele>
        <time>2024-05-15T11:17:24.000Z</time>
      </trkpt>
      <trkpt lat="48.15102" lon="3.32459">
        <ele>129.9</ele>
        <time>2024-05-15T11:17:23.000Z</time>
      </trkpt>
      <trkpt lat="48.15104" lon="3.32457">
        <ele>130.3</ele>
        <time>2024-05-15T11:17:22.000Z</time>
      </trkpt>
      <trkpt lat="48.15105" lon="3.32455">
        <ele>130.4</ele>
        <time>2024-05-15T11:17:21.000Z</time>
      </trkpt>
      <trkpt lat="48.15107" lon="3.32453">
        <ele>130.7</ele>
        <time>2024-05-15T11:17:15.000Z</time>
      </trkpt>
      <trkpt lat="48.15107" lon="3.32453">
        <ele>130.7</ele>
        <time>2024-05-15T11:17:14.000Z</time>
      </trkpt>
      <trkpt lat="48.15109" lon="3.32453">
        <ele>131.3</ele>
        <time>2024-05-15T11:17:04.000Z</time>
      </trkpt>
      <trkpt lat="48.15109" lon="3.32452">
        <ele>131.2</ele>
        <time>2024-05-15T11:17:03.000Z</time>
      </trkpt>
      <trkpt lat="48.15109" lon="3.32451">
        <ele>131.1</ele>
        <time>2024-05-15T11:17:00.000Z</time>
      </trkpt>
      <trkpt lat="48.15109" lon="3.32451">
        <ele>131.1</ele>
        <time>2024-05-15T11:16:59.000Z</time>
      </trkpt>
      <trkpt lat="48.15109" lon="3.32451">
        <ele>131.1</ele>
        <time>2024-05-15T11:16:57.000Z</time>
      </trkpt>
      <trkpt lat="48.15109" lon="3.3245">
        <ele>131</ele>
        <time>2024-05-15T11:16:56.000Z</time>
      </trkpt>
      <trkpt lat="48.15111" lon="3.32448">
        <ele>131.4</ele>
        <time>2024-05-15T11:16:55.000Z</time>
      </trkpt>
      <trkpt lat="48.15116" lon="3.32442">
        <ele>131.9</ele>
        <time>2024-05-15T11:16:53.000Z</time>
      </trkpt>
      <trkpt lat="48.15118" lon="3.32438">
        <ele>131.8</ele>
        <time>2024-05-15T11:16:52.000Z</time>
      </trkpt>
      <trkpt lat="48.15124" lon="3.32433">
        <ele>132.6</ele>
        <time>2024-05-15T11:16:50.000Z</time>
      </trkpt>
      <trkpt lat="48.15126" lon="3.32431">
        <ele>132.8</ele>
        <time>2024-05-15T11:16:49.000Z</time>
      </trkpt>
      <trkpt lat="48.15128" lon="3.3243">
        <ele>133.2</ele>
        <time>2024-05-15T11:16:48.000Z</time>
      </trkpt>
      <trkpt lat="48.15129" lon="3.32429">
        <ele>133.3</ele>
        <time>2024-05-15T11:16:47.000Z</time>
      </trkpt>
      <trkpt lat="48.1513" lon="3.32427">
        <ele>133.2</ele>
        <time>2024-05-15T11:16:46.000Z</time>
      </trkpt>
      <trkpt lat="48.15131" lon="3.32425">
        <ele>133.2</ele>
        <time>2024-05-15T11:16:45.000Z</time>
      </trkpt>
      <trkpt lat="48.15135" lon="3.32428">
        <ele>134.7</ele>
        <time>2024-05-15T11:16:43.000Z</time>
      </trkpt>
      <trkpt lat="48.15136" lon="3.32429">
        <ele>135</ele>
        <time>2024-05-15T11:16:42.000Z</time>
      </trkpt>
      <trkpt lat="48.15136" lon="3.32431">
        <ele>135.3</ele>
        <time>2024-05-15T11:16:41.000Z</time>
      </trkpt>
      <trkpt lat="48.15133" lon="3.32439">
        <ele>135.7</ele>
        <time>2024-05-15T11:16:38.000Z</time>
      </trkpt>
      <trkpt lat="48.15133" lon="3.32442">
        <ele>136.2</ele>
        <time>2024-05-15T11:16:37.000Z</time>
      </trkpt>
      <trkpt lat="48.15133" lon="3.32444">
        <ele>136.5</ele>
        <time>2024-05-15T11:16:36.000Z</time>
      </trkpt>
      <trkpt lat="48.15134" lon="3.32445">
        <ele>136.8</ele>
        <time>2024-05-15T11:16:35.000Z</time>
      </trkpt>
      <trkpt lat="48.15136" lon="3.32446">
        <ele>137.4</ele>
        <time>2024-05-15T11:16:34.000Z</time>
      </trkpt>
      <trkpt lat="48.15139" lon="3.32446">
        <ele>138.2</ele>
        <time>2024-05-15T11:16:32.000Z</time>
      </trkpt>
      <trkpt lat="48.15141" lon="3.32446">
        <ele>138.7</ele>
        <time>2024-05-15T11:16:31.000Z</time>
      </trkpt>
      <trkpt lat="48.15142" lon="3.32445">
        <ele>138.8</ele>
        <time>2024-05-15T11:16:29.000Z</time>
      </trkpt>
      <trkpt lat="48.15142" lon="3.32445">
        <ele>138.8</ele>
        <time>2024-05-15T11:16:28.000Z</time>
      </trkpt>
      <trkpt lat="48.15142" lon="3.32445">
        <ele>138.8</ele>
        <time>2024-05-15T11:16:27.000Z</time>
      </trkpt>
      <trkpt lat="48.15142" lon="3.32444">
        <ele>138.7</ele>
        <time>2024-05-15T11:16:26.000Z</time>
      </trkpt>
      <trkpt lat="48.15143" lon="3.32442">
        <ele>138.7</ele>
        <time>2024-05-15T11:16:25.000Z</time>
      </trkpt>
      <trkpt lat="48.15146" lon="3.32438">
        <ele>138.9</ele>
        <time>2024-05-15T11:16:24.000Z</time>
      </trkpt>
      <trkpt lat="48.15154" lon="3.32435">
        <ele>140.6</ele>
        <time>2024-05-15T11:16:22.000Z</time>
      </trkpt>
      <trkpt lat="48.1517" lon="3.32427">
        <ele>143.8</ele>
        <time>2024-05-15T11:16:16.000Z</time>
      </trkpt>
      <trkpt lat="48.15174" lon="3.32425">
        <ele>144.4</ele>
        <time>2024-05-15T11:16:14.000Z</time>
      </trkpt>
      <trkpt lat="48.15174" lon="3.32424">
        <ele>144.3</ele>
        <time>2024-05-15T11:16:11.000Z</time>
      </trkpt>
      <trkpt lat="48.15174" lon="3.32424">
        <ele>144.3</ele>
        <time>2024-05-15T11:16:09.000Z</time>
      </trkpt>
      <trkpt lat="48.15174" lon="3.32424">
        <ele>144.3</ele>
        <time>2024-05-15T11:16:07.000Z</time>
      </trkpt>
      <trkpt lat="48.15174" lon="3.32424">
        <ele>144.3</ele>
        <time>2024-05-15T11:16:05.000Z</time>
      </trkpt>
      <trkpt lat="48.15174" lon="3.32424">
        <ele>144.3</ele>
        <time>2024-05-15T11:16:04.000Z</time>
      </trkpt>
      <trkpt lat="48.15175" lon="3.32424">
        <ele>144.5</ele>
        <time>2024-05-15T11:16:03.000Z</time>
      </trkpt>
      <trkpt lat="48.15177" lon="3.32424">
        <ele>144.9</ele>
        <time>2024-05-15T11:16:02.000Z</time>
      </trkpt>
      <trkpt lat="48.15179" lon="3.32424">
        <ele>145.3</ele>
        <time>2024-05-15T11:16:01.000Z</time>
      </trkpt>
      <trkpt lat="48.15181" lon="3.32426">
        <ele>145.9</ele>
        <time>2024-05-15T11:16:00.000Z</time>
      </trkpt>
      <trkpt lat="48.15182" lon="3.32429">
        <ele>146.4</ele>
        <time>2024-05-15T11:15:59.000Z</time>
      </trkpt>
      <trkpt lat="48.15183" lon="3.32431">
        <ele>146.8</ele>
        <time>2024-05-15T11:15:58.000Z</time>
      </trkpt>
      <trkpt lat="48.15184" lon="3.32434">
        <ele>147.2</ele>
        <time>2024-05-15T11:15:57.000Z</time>
      </trkpt>
      <trkpt lat="48.15186" lon="3.32435">
        <ele>147.7</ele>
        <time>2024-05-15T11:15:56.000Z</time>
      </trkpt>
      <trkpt lat="48.15188" lon="3.32435">
        <ele>148.1</ele>
        <time>2024-05-15T11:15:55.000Z</time>
      </trkpt>
      <trkpt lat="48.1519" lon="3.32436">
        <ele>148.5</ele>
        <time>2024-05-15T11:15:54.000Z</time>
      </trkpt>
      <trkpt lat="48.15192" lon="3.32436">
        <ele>148.9</ele>
        <time>2024-05-15T11:15:53.000Z</time>
      </trkpt>
      <trkpt lat="48.15194" lon="3.32436">
        <ele>149.3</ele>
        <time>2024-05-15T11:15:52.000Z</time>
      </trkpt>
      <trkpt lat="48.15196" lon="3.32435">
        <ele>149.6</ele>
        <time>2024-05-15T11:15:51.000Z</time>
      </trkpt>
      <trkpt lat="48.152" lon="3.32433">
        <ele>150.2</ele>
        <time>2024-05-15T11:15:49.000Z</time>
      </trkpt>
      <trkpt lat="48.15202" lon="3.32433">
        <ele>150.5</ele>
        <time>2024-05-15T11:15:48.000Z</time>
      </trkpt>
      <trkpt lat="48.15204" lon="3.32433">
        <ele>150.9</ele>
        <time>2024-05-15T11:15:47.000Z</time>
      </trkpt>
      <trkpt lat="48.15206" lon="3.32433">
        <ele>151.3</ele>
        <time>2024-05-15T11:15:46.000Z</time>
      </trkpt>
      <trkpt lat="48.15208" lon="3.32432">
        <ele>151.5</ele>
        <time>2024-05-15T11:15:45.000Z</time>
      </trkpt>
      <trkpt lat="48.15209" lon="3.32432">
        <ele>151.7</ele>
        <time>2024-05-15T11:15:44.000Z</time>
      </trkpt>
      <trkpt lat="48.15212" lon="3.32433">
        <ele>152.3</ele>
        <time>2024-05-15T11:15:43.000Z</time>
      </trkpt>
      <trkpt lat="48.15214" lon="3.32436">
        <ele>152.9</ele>
        <time>2024-05-15T11:15:42.000Z</time>
      </trkpt>
      <trkpt lat="48.15218" lon="3.3244">
        <ele>153.9</ele>
        <time>2024-05-15T11:15:37.000Z</time>
      </trkpt>
      <trkpt lat="48.15218" lon="3.3244">
        <ele>153.9</ele>
        <time>2024-05-15T11:15:36.000Z</time>
      </trkpt>
      <trkpt lat="48.15218" lon="3.3244">
        <ele>153.9</ele>
        <time>2024-05-15T11:15:33.000Z</time>
      </trkpt>
      <trkpt lat="48.15218" lon="3.3244">
        <ele>153.9</ele>
        <time>2024-05-15T11:15:30.000Z</time>
      </trkpt>
      <trkpt lat="48.15218" lon="3.3244">
        <ele>153.9</ele>
        <time>2024-05-15T11:15:29.000Z</time>
      </trkpt>
      <trkpt lat="48.15219" lon="3.3244">
        <ele>154.1</ele>
        <time>2024-05-15T11:15:28.000Z</time>
      </trkpt>
      <trkpt lat="48.15219" lon="3.3244">
        <ele>154.1</ele>
        <time>2024-05-15T11:15:27.000Z</time>
      </trkpt>
      <trkpt lat="48.15219" lon="3.32441">
        <ele>154.2</ele>
        <time>2024-05-15T11:15:26.000Z</time>
      </trkpt>
      <trkpt lat="48.15221" lon="3.32441">
        <ele>154.5</ele>
        <time>2024-05-15T11:15:25.000Z</time>
      </trkpt>
      <trkpt lat="48.15222" lon="3.32443">
        <ele>154.9</ele>
        <time>2024-05-15T11:15:24.000Z</time>
      </trkpt>
      <trkpt lat="48.15223" lon="3.32444">
        <ele>155.1</ele>
        <time>2024-05-15T11:15:23.000Z</time>
      </trkpt>
      <trkpt lat="48.15225" lon="3.32447">
        <ele>155.7</ele>
        <time>2024-05-15T11:15:22.000Z</time>
      </trkpt>
      <trkpt lat="48.15226" lon="3.32449">
        <ele>156</ele>
        <time>2024-05-15T11:15:21.000Z</time>
      </trkpt>
      <trkpt lat="48.15226" lon="3.32451">
        <ele>156.1</ele>
        <time>2024-05-15T11:15:20.000Z</time>
      </trkpt>
      <trkpt lat="48.15227" lon="3.32453">
        <ele>156.4</ele>
        <time>2024-05-15T11:15:19.000Z</time>
      </trkpt>
      <trkpt lat="48.15228" lon="3.32454">
        <ele>156.7</ele>
        <time>2024-05-15T11:15:18.000Z</time>
      </trkpt>
      <trkpt lat="48.1523" lon="3.32456">
        <ele>157.1</ele>
        <time>2024-05-15T11:15:17.000Z</time>
      </trkpt>
      <trkpt lat="48.15231" lon="3.32457">
        <ele>157.3</ele>
        <time>2024-05-15T11:15:16.000Z</time>
      </trkpt>
      <trkpt lat="48.15233" lon="3.32459">
        <ele>157.8</ele>
        <time>2024-05-15T11:15:15.000Z</time>
      </trkpt>
      <trkpt lat="48.15236" lon="3.32461">
        <ele>158.4</ele>
        <time>2024-05-15T11:15:14.000Z</time>
      </trkpt>
      <trkpt lat="48.15238" lon="3.32463">
        <ele>158.8</ele>
        <time>2024-05-15T11:15:13.000Z</time>
      </trkpt>
      <trkpt lat="48.15247" lon="3.32473">
        <ele>160.7</ele>
        <time>2024-05-15T11:15:09.000Z</time>
      </trkpt>
      <trkpt lat="48.15254" lon="3.32485">
        <ele>162.9</ele>
        <time>2024-05-15T11:15:05.000Z</time>
      </trkpt>
      <trkpt lat="48.15256" lon="3.32487">
        <ele>163.3</ele>
        <time>2024-05-15T11:15:02.000Z</time>
      </trkpt>
      <trkpt lat="48.15256" lon="3.32487">
        <ele>163.3</ele>
        <time>2024-05-15T11:14:56.000Z</time>
      </trkpt>
      <trkpt lat="48.15256" lon="3.32487">
        <ele>163.3</ele>
        <time>2024-05-15T11:14:55.000Z</time>
      </trkpt>
      <trkpt lat="48.15257" lon="3.32488">
        <ele>163.6</ele>
        <time>2024-05-15T11:14:54.000Z</time>
      </trkpt>
      <trkpt lat="48.15258" lon="3.32489">
        <ele>163.8</ele>
        <time>2024-05-15T11:14:53.000Z</time>
      </trkpt>
      <trkpt lat="48.15259" lon="3.32489">
        <ele>163.9</ele>
        <time>2024-05-15T11:14:52.000Z</time>
      </trkpt>
      <trkpt lat="48.1526" lon="3.3249">
        <ele>164.1</ele>
        <time>2024-05-15T11:14:51.000Z</time>
      </trkpt>
      <trkpt lat="48.15264" lon="3.32489">
        <ele>164.5</ele>
        <time>2024-05-15T11:14:49.000Z</time>
      </trkpt>
      <trkpt lat="48.15266" lon="3.32487">
        <ele>164.6</ele>
        <time>2024-05-15T11:14:40.000Z</time>
      </trkpt>
      <trkpt lat="48.15266" lon="3.32487">
        <ele>164.6</ele>
        <time>2024-05-15T11:14:24.000Z</time>
      </trkpt>
      <trkpt lat="48.15266" lon="3.32487">
        <ele>164.6</ele>
        <time>2024-05-15T11:14:10.000Z</time>
      </trkpt>
      <trkpt lat="48.15266" lon="3.32487">
        <ele>164.6</ele>
        <time>2024-05-15T11:13:56.000Z</time>
      </trkpt>
      <trkpt lat="48.15266" lon="3.32487">
        <ele>164.6</ele>
        <time>2024-05-15T11:13:53.000Z</time>
      </trkpt>
      <trkpt lat="48.15266" lon="3.32487">
        <ele>164.6</ele>
        <time>2024-05-15T11:13:48.000Z</time>
      </trkpt>
      <trkpt lat="48.15266" lon="3.32487">
        <ele>164.6</ele>
        <time>2024-05-15T11:13:47.000Z</time>
      </trkpt>
      <trkpt lat="48.15269" lon="3.32489">
        <ele>165.1</ele>
        <time>2024-05-15T11:13:45.000Z</time>
      </trkpt>
      <trkpt lat="48.15271" lon="3.32497">
        <ele>166</ele>
        <time>2024-05-15T11:13:43.000Z</time>
      </trkpt>
      <trkpt lat="48.15271" lon="3.325">
        <ele>166.3</ele>
        <time>2024-05-15T11:13:42.000Z</time>
      </trkpt>
      <trkpt lat="48.1527" lon="3.32504">
        <ele>166.3</ele>
        <time>2024-05-15T11:13:39.000Z</time>
      </trkpt>
      <trkpt lat="48.1527" lon="3.32504">
        <ele>166.3</ele>
        <time>2024-05-15T11:13:37.000Z</time>
      </trkpt>
      <trkpt lat="48.1527" lon="3.32504">
        <ele>166.3</ele>
        <time>2024-05-15T11:13:32.000Z</time>
      </trkpt>
      <trkpt lat="48.1527" lon="3.32504">
        <ele>166.3</ele>
        <time>2024-05-15T11:13:31.000Z</time>
      </trkpt>
      <trkpt lat="48.1527" lon="3.32505">
        <ele>166.4</ele>
        <time>2024-05-15T11:13:30.000Z</time>
      </trkpt>
      <trkpt lat="48.15268" lon="3.32512">
        <ele>166.5</ele>
        <time>2024-05-15T11:13:28.000Z</time>
      </trkpt>
      <trkpt lat="48.15266" lon="3.32522">
        <ele>166.9</ele>
        <time>2024-05-15T11:13:26.000Z</time>
      </trkpt>
      <trkpt lat="48.15265" lon="3.32534">
        <ele>167.5</ele>
        <time>2024-05-15T11:13:23.000Z</time>
      </trkpt>
      <trkpt lat="48.15261" lon="3.32547">
        <ele>168.2</ele>
        <time>2024-05-15T11:13:20.000Z</time>
      </trkpt>
      <trkpt lat="48.1526" lon="3.3255">
        <ele>168.3</ele>
        <time>2024-05-15T11:13:19.000Z</time>
      </trkpt>
      <trkpt lat="48.15258" lon="3.32554">
        <ele>168.5</ele>
        <time>2024-05-15T11:13:18.000Z</time>
      </trkpt>
      <trkpt lat="48.15255" lon="3.32565">
        <ele>169</ele>
        <time>2024-05-15T11:13:16.000Z</time>
      </trkpt>
      <trkpt lat="48.15254" lon="3.32568">
        <ele>169.1</ele>
        <time>2024-05-15T11:13:15.000Z</time>
      </trkpt>
      <trkpt lat="48.15255" lon="3.32572">
        <ele>169.4</ele>
        <time>2024-05-15T11:13:14.000Z</time>
      </trkpt>
      <trkpt lat="48.15255" lon="3.32575">
        <ele>169.6</ele>
        <time>2024-05-15T11:13:13.000Z</time>
      </trkpt>
      <trkpt lat="48.15253" lon="3.32588">
        <ele>170.3</ele>
        <time>2024-05-15T11:13:10.000Z</time>
      </trkpt>
      <trkpt lat="48.15252" lon="3.32592">
        <ele>170.4</ele>
        <time>2024-05-15T11:13:09.000Z</time>
      </trkpt>
      <trkpt lat="48.15252" lon="3.32595">
        <ele>170.5</ele>
        <time>2024-05-15T11:13:08.000Z</time>
      </trkpt>
      <trkpt lat="48.15251" lon="3.32597">
        <ele>170.5</ele>
        <time>2024-05-15T11:13:07.000Z</time>
      </trkpt>
      <trkpt lat="48.1525" lon="3.32603">
        <ele>170.7</ele>
        <time>2024-05-15T11:13:05.000Z</time>
      </trkpt>
      <trkpt lat="48.15249" lon="3.3261">
        <ele>170.9</ele>
        <time>2024-05-15T11:13:03.000Z</time>
      </trkpt>
      <trkpt lat="48.1525" lon="3.32615">
        <ele>171.1</ele>
        <time>2024-05-15T11:12:56.000Z</time>
      </trkpt>
      <trkpt lat="48.1525" lon="3.32615">
        <ele>171.1</ele>
        <time>2024-05-15T11:12:55.000Z</time>
      </trkpt>
      <trkpt lat="48.15251" lon="3.32621">
        <ele>171.4</ele>
        <time>2024-05-15T11:12:51.000Z</time>
      </trkpt>
      <trkpt lat="48.15251" lon="3.32623">
        <ele>171.5</ele>
        <time>2024-05-15T11:12:50.000Z</time>
      </trkpt>
      <trkpt lat="48.15251" lon="3.32624">
        <ele>171.5</ele>
        <time>2024-05-15T11:12:49.000Z</time>
      </trkpt>
      <trkpt lat="48.15251" lon="3.32626">
        <ele>171.6</ele>
        <time>2024-05-15T11:12:48.000Z</time>
      </trkpt>
      <trkpt lat="48.15251" lon="3.32626">
        <ele>171.6</ele>
        <time>2024-05-15T11:12:47.000Z</time>
      </trkpt>
      <trkpt lat="48.1525" lon="3.3263">
        <ele>171.7</ele>
        <time>2024-05-15T11:12:46.000Z</time>
      </trkpt>
      <trkpt lat="48.1525" lon="3.32634">
        <ele>171.8</ele>
        <time>2024-05-15T11:12:45.000Z</time>
      </trkpt>
      <trkpt lat="48.15249" lon="3.32639">
        <ele>171.9</ele>
        <time>2024-05-15T11:12:43.000Z</time>
      </trkpt>
      <trkpt lat="48.15249" lon="3.32641">
        <ele>172</ele>
        <time>2024-05-15T11:12:42.000Z</time>
      </trkpt>
      <trkpt lat="48.15247" lon="3.32644">
        <ele>171.8</ele>
        <time>2024-05-15T11:12:40.000Z</time>
      </trkpt>
      <trkpt lat="48.15247" lon="3.32645">
        <ele>171.9</ele>
        <time>2024-05-15T11:12:39.000Z</time>
      </trkpt>
      <trkpt lat="48.15247" lon="3.32645">
        <ele>171.9</ele>
        <time>2024-05-15T11:12:38.000Z</time>
      </trkpt>
      <trkpt lat="48.15247" lon="3.32645">
        <ele>171.9</ele>
        <time>2024-05-15T11:12:35.000Z</time>
      </trkpt>
      <trkpt lat="48.15247" lon="3.32646">
        <ele>171.9</ele>
        <time>2024-05-15T11:12:33.000Z</time>
      </trkpt>
      <trkpt lat="48.15247" lon="3.32646">
        <ele>171.9</ele>
        <time>2024-05-15T11:12:31.000Z</time>
      </trkpt>
      <trkpt lat="48.15247" lon="3.32647">
        <ele>171.9</ele>
        <time>2024-05-15T11:12:30.000Z</time>
      </trkpt>
      <trkpt lat="48.15246" lon="3.3265">
        <ele>171.9</ele>
        <time>2024-05-15T11:12:29.000Z</time>
      </trkpt>
      <trkpt lat="48.15246" lon="3.32652">
        <ele>172</ele>
        <time>2024-05-15T11:12:28.000Z</time>
      </trkpt>
      <trkpt lat="48.15245" lon="3.32654">
        <ele>171.9</ele>
        <time>2024-05-15T11:12:27.000Z</time>
      </trkpt>
      <trkpt lat="48.15245" lon="3.32655">
        <ele>171.9</ele>
        <time>2024-05-15T11:12:26.000Z</time>
      </trkpt>
      <trkpt lat="48.15245" lon="3.32657">
        <ele>172</ele>
        <time>2024-05-15T11:12:25.000Z</time>
      </trkpt>
      <trkpt lat="48.15244" lon="3.3266">
        <ele>171.9</ele>
        <time>2024-05-15T11:12:22.000Z</time>
      </trkpt>
      <trkpt lat="48.15243" lon="3.32662">
        <ele>171.9</ele>
        <time>2024-05-15T11:12:21.000Z</time>
      </trkpt>
      <trkpt lat="48.15243" lon="3.32663">
        <ele>171.9</ele>
        <time>2024-05-15T11:12:20.000Z</time>
      </trkpt>
      <trkpt lat="48.15243" lon="3.32665">
        <ele>171.9</ele>
        <time>2024-05-15T11:12:15.000Z</time>
      </trkpt>
      <trkpt lat="48.15243" lon="3.32665">
        <ele>171.9</ele>
        <time>2024-05-15T11:12:12.000Z</time>
      </trkpt>
      <trkpt lat="48.15243" lon="3.32665">
        <ele>171.9</ele>
        <time>2024-05-15T11:12:11.000Z</time>
      </trkpt>
      <trkpt lat="48.15243" lon="3.32665">
        <ele>171.9</ele>
        <time>2024-05-15T11:12:10.000Z</time>
      </trkpt>
      <trkpt lat="48.15242" lon="3.32666">
        <ele>171.8</ele>
        <time>2024-05-15T11:12:09.000Z</time>
      </trkpt>
      <trkpt lat="48.15241" lon="3.32667">
        <ele>171.7</ele>
        <time>2024-05-15T11:12:08.000Z</time>
      </trkpt>
      <trkpt lat="48.15239" lon="3.32668">
        <ele>171.4</ele>
        <time>2024-05-15T11:12:07.000Z</time>
      </trkpt>
      <trkpt lat="48.15238" lon="3.32668">
        <ele>171.3</ele>
        <time>2024-05-15T11:12:06.000Z</time>
      </trkpt>
      <trkpt lat="48.15237" lon="3.32668">
        <ele>171.1</ele>
        <time>2024-05-15T11:12:05.000Z</time>
      </trkpt>
      <trkpt lat="48.15236" lon="3.32668">
        <ele>171</ele>
        <time>2024-05-15T11:12:04.000Z</time>
      </trkpt>
      <trkpt lat="48.15235" lon="3.32668">
        <ele>170.8</ele>
        <time>2024-05-15T11:12:03.000Z</time>
      </trkpt>
      <trkpt lat="48.15234" lon="3.32669">
        <ele>170.7</ele>
        <time>2024-05-15T11:12:02.000Z</time>
      </trkpt>
      <trkpt lat="48.15233" lon="3.3267">
        <ele>170.6</ele>
        <time>2024-05-15T11:12:01.000Z</time>
      </trkpt>
      <trkpt lat="48.15232" lon="3.3267">
        <ele>170.4</ele>
        <time>2024-05-15T11:12:00.000Z</time>
      </trkpt>
      <trkpt lat="48.15231" lon="3.32671">
        <ele>170.3</ele>
        <time>2024-05-15T11:11:59.000Z</time>
      </trkpt>
      <trkpt lat="48.1523" lon="3.32671">
        <ele>170.1</ele>
        <time>2024-05-15T11:11:58.000Z</time>
      </trkpt>
      <trkpt lat="48.1523" lon="3.32672">
        <ele>170.1</ele>
        <time>2024-05-15T11:11:57.000Z</time>
      </trkpt>
      <trkpt lat="48.15227" lon="3.32675">
        <ele>169.7</ele>
        <time>2024-05-15T11:11:54.000Z</time>
      </trkpt>
      <trkpt lat="48.15224" lon="3.32678">
        <ele>169.3</ele>
        <time>2024-05-15T11:11:52.000Z</time>
      </trkpt>
      <trkpt lat="48.15224" lon="3.3268">
        <ele>169.3</ele>
        <time>2024-05-15T11:11:51.000Z</time>
      </trkpt>
      <trkpt lat="48.15222" lon="3.32681">
        <ele>168.9</ele>
        <time>2024-05-15T11:11:49.000Z</time>
      </trkpt>
      <trkpt lat="48.15221" lon="3.32684">
        <ele>168.7</ele>
        <time>2024-05-15T11:11:47.000Z</time>
      </trkpt>
      <trkpt lat="48.1522" lon="3.32684">
        <ele>168.5</ele>
        <time>2024-05-15T11:11:46.000Z</time>
      </trkpt>
      <trkpt lat="48.15216" lon="3.32689">
        <ele>167.5</ele>
        <time>2024-05-15T11:11:41.000Z</time>
      </trkpt>
      <trkpt lat="48.15215" lon="3.32691">
        <ele>167.2</ele>
        <time>2024-05-15T11:11:36.000Z</time>
      </trkpt>
      <trkpt lat="48.15214" lon="3.32692">
        <ele>167</ele>
        <time>2024-05-15T11:11:35.000Z</time>
      </trkpt>
      <trkpt lat="48.15214" lon="3.32693">
        <ele>166.9</ele>
        <time>2024-05-15T11:11:34.000Z</time>
      </trkpt>
      <trkpt lat="48.15214" lon="3.32693">
        <ele>166.9</ele>
        <time>2024-05-15T11:11:33.000Z</time>
      </trkpt>
      <trkpt lat="48.15214" lon="3.32693">
        <ele>166.9</ele>
        <time>2024-05-15T11:11:32.000Z</time>
      </trkpt>
      <trkpt lat="48.15213" lon="3.32695">
        <ele>166.7</ele>
        <time>2024-05-15T11:11:31.000Z</time>
      </trkpt>
      <trkpt lat="48.15212" lon="3.32701">
        <ele>166.6</ele>
        <time>2024-05-15T11:11:19.000Z</time>
      </trkpt>
      <trkpt lat="48.15212" lon="3.32702">
        <ele>166.6</ele>
        <time>2024-05-15T11:11:11.000Z</time>
      </trkpt>
      <trkpt lat="48.15212" lon="3.32702">
        <ele>166.6</ele>
        <time>2024-05-15T11:11:03.000Z</time>
      </trkpt>
      <trkpt lat="48.15212" lon="3.32702">
        <ele>166.6</ele>
        <time>2024-05-15T11:10:58.000Z</time>
      </trkpt>
      <trkpt lat="48.15212" lon="3.32702">
        <ele>166.6</ele>
        <time>2024-05-15T11:10:55.000Z</time>
      </trkpt>
      <trkpt lat="48.15212" lon="3.32703">
        <ele>166.6</ele>
        <time>2024-05-15T11:10:51.000Z</time>
      </trkpt>
      <trkpt lat="48.15213" lon="3.32711">
        <ele>167.1</ele>
        <time>2024-05-15T11:10:49.000Z</time>
      </trkpt>
      <trkpt lat="48.15215" lon="3.32716">
        <ele>167.8</ele>
        <time>2024-05-15T11:10:48.000Z</time>
      </trkpt>
      <trkpt lat="48.15217" lon="3.32721">
        <ele>168.5</ele>
        <time>2024-05-15T11:10:47.000Z</time>
      </trkpt>
      <trkpt lat="48.15218" lon="3.32725">
        <ele>168.7</ele>
        <time>2024-05-15T11:10:46.000Z</time>
      </trkpt>
      <trkpt lat="48.15219" lon="3.32729">
        <ele>168.9</ele>
        <time>2024-05-15T11:10:45.000Z</time>
      </trkpt>
      <trkpt lat="48.15219" lon="3.32732">
        <ele>168.8</ele>
        <time>2024-05-15T11:10:44.000Z</time>
      </trkpt>
      <trkpt lat="48.15217" lon="3.32741">
        <ele>167.9</ele>
        <time>2024-05-15T11:10:42.000Z</time>
      </trkpt>
      <trkpt lat="48.15217" lon="3.32745">
        <ele>167.8</ele>
        <time>2024-05-15T11:10:41.000Z</time>
      </trkpt>
      <trkpt lat="48.15217" lon="3.32751">
        <ele>167.7</ele>
        <time>2024-05-15T11:10:40.000Z</time>
      </trkpt>
      <trkpt lat="48.15217" lon="3.32755">
        <ele>167.7</ele>
        <time>2024-05-15T11:10:39.000Z</time>
      </trkpt>
      <trkpt lat="48.15217" lon="3.32759">
        <ele>167.7</ele>
        <time>2024-05-15T11:10:38.000Z</time>
      </trkpt>
      <trkpt lat="48.15218" lon="3.32774">
        <ele>168.1</ele>
        <time>2024-05-15T11:10:35.000Z</time>
      </trkpt>
      <trkpt lat="48.15218" lon="3.32778">
        <ele>168.1</ele>
        <time>2024-05-15T11:10:34.000Z</time>
      </trkpt>
      <trkpt lat="48.15219" lon="3.32783">
        <ele>168.3</ele>
        <time>2024-05-15T11:10:33.000Z</time>
      </trkpt>
      <trkpt lat="48.15222" lon="3.32789">
        <ele>169</ele>
        <time>2024-05-15T11:10:31.000Z</time>
      </trkpt>
      <trkpt lat="48.15223" lon="3.32792">
        <ele>169.1</ele>
        <time>2024-05-15T11:10:30.000Z</time>
      </trkpt>
      <trkpt lat="48.15224" lon="3.32794">
        <ele>169.3</ele>
        <time>2024-05-15T11:10:26.000Z</time>
      </trkpt>
      <trkpt lat="48.15224" lon="3.32795">
        <ele>169.3</ele>
        <time>2024-05-15T11:10:25.000Z</time>
      </trkpt>
      <trkpt lat="48.15224" lon="3.32797">
        <ele>169.3</ele>
        <time>2024-05-15T11:10:24.000Z</time>
      </trkpt>
      <trkpt lat="48.15224" lon="3.328">
        <ele>169.3</ele>
        <time>2024-05-15T11:10:23.000Z</time>
      </trkpt>
      <trkpt lat="48.15224" lon="3.32807">
        <ele>169.3</ele>
        <time>2024-05-15T11:10:21.000Z</time>
      </trkpt>
      <trkpt lat="48.15218" lon="3.32831">
        <ele>168.2</ele>
        <time>2024-05-15T11:10:16.000Z</time>
      </trkpt>
      <trkpt lat="48.15219" lon="3.32834">
        <ele>168.4</ele>
        <time>2024-05-15T11:10:15.000Z</time>
      </trkpt>
      <trkpt lat="48.15219" lon="3.32837">
        <ele>168.6</ele>
        <time>2024-05-15T11:10:14.000Z</time>
      </trkpt>
      <trkpt lat="48.15218" lon="3.32839">
        <ele>168.4</ele>
        <time>2024-05-15T11:10:13.000Z</time>
      </trkpt>
      <trkpt lat="48.15217" lon="3.32842">
        <ele>168.4</ele>
        <time>2024-05-15T11:10:12.000Z</time>
      </trkpt>
      <trkpt lat="48.15213" lon="3.32845">
        <ele>167.8</ele>
        <time>2024-05-15T11:10:05.000Z</time>
      </trkpt>
      <trkpt lat="48.15213" lon="3.32845">
        <ele>167.8</ele>
        <time>2024-05-15T11:09:59.000Z</time>
      </trkpt>
      <trkpt lat="48.15212" lon="3.32845">
        <ele>167.6</ele>
        <time>2024-05-15T11:09:58.000Z</time>
      </trkpt>
      <trkpt lat="48.15211" lon="3.32847">
        <ele>167.5</ele>
        <time>2024-05-15T11:09:57.000Z</time>
      </trkpt>
      <trkpt lat="48.15209" lon="3.3285">
        <ele>167.2</ele>
        <time>2024-05-15T11:09:56.000Z</time>
      </trkpt>
      <trkpt lat="48.15207" lon="3.32861">
        <ele>167.3</ele>
        <time>2024-05-15T11:09:53.000Z</time>
      </trkpt>
      <trkpt lat="48.15207" lon="3.3287">
        <ele>167.3</ele>
        <time>2024-05-15T11:09:52.000Z</time>
      </trkpt>
      <trkpt lat="48.15206" lon="3.3288">
        <ele>167.1</ele>
        <time>2024-05-15T11:09:50.000Z</time>
      </trkpt>
      <trkpt lat="48.15203" lon="3.32897">
        <ele>166.7</ele>
        <time>2024-05-15T11:09:45.000Z</time>
      </trkpt>
      <trkpt lat="48.15202" lon="3.32908">
        <ele>166.9</ele>
        <time>2024-05-15T11:09:42.000Z</time>
      </trkpt>
      <trkpt lat="48.15202" lon="3.32911">
        <ele>166.9</ele>
        <time>2024-05-15T11:09:41.000Z</time>
      </trkpt>
      <trkpt lat="48.15201" lon="3.32913">
        <ele>166.8</ele>
        <time>2024-05-15T11:09:40.000Z</time>
      </trkpt>
      <trkpt lat="48.152" lon="3.32919">
        <ele>166.8</ele>
        <time>2024-05-15T11:09:38.000Z</time>
      </trkpt>
      <trkpt lat="48.15199" lon="3.32924">
        <ele>166.7</ele>
        <time>2024-05-15T11:09:36.000Z</time>
      </trkpt>
      <trkpt lat="48.15198" lon="3.32927">
        <ele>166.5</ele>
        <time>2024-05-15T11:09:35.000Z</time>
      </trkpt>
      <trkpt lat="48.15198" lon="3.32928">
        <ele>166.5</ele>
        <time>2024-05-15T11:09:34.000Z</time>
      </trkpt>
      <trkpt lat="48.15198" lon="3.32929">
        <ele>166.5</ele>
        <time>2024-05-15T11:09:33.000Z</time>
      </trkpt>
      <trkpt lat="48.15198" lon="3.32929">
        <ele>166.5</ele>
        <time>2024-05-15T11:09:32.000Z</time>
      </trkpt>
      <trkpt lat="48.15198" lon="3.32929">
        <ele>166.5</ele>
        <time>2024-05-15T11:09:31.000Z</time>
      </trkpt>
      <trkpt lat="48.15198" lon="3.32929">
        <ele>166.5</ele>
        <time>2024-05-15T11:09:30.000Z</time>
      </trkpt>
      <trkpt lat="48.15198" lon="3.3293">
        <ele>166.5</ele>
        <time>2024-05-15T11:09:27.000Z</time>
      </trkpt>
      <trkpt lat="48.15199" lon="3.32934">
        <ele>166.7</ele>
        <time>2024-05-15T11:09:23.000Z</time>
      </trkpt>
      <trkpt lat="48.15199" lon="3.32934">
        <ele>166.7</ele>
        <time>2024-05-15T11:09:22.000Z</time>
      </trkpt>
      <trkpt lat="48.15199" lon="3.32935">
        <ele>166.7</ele>
        <time>2024-05-15T11:09:21.000Z</time>
      </trkpt>
      <trkpt lat="48.15199" lon="3.32936">
        <ele>166.7</ele>
        <time>2024-05-15T11:09:20.000Z</time>
      </trkpt>
      <trkpt lat="48.15199" lon="3.32938">
        <ele>166.7</ele>
        <time>2024-05-15T11:09:19.000Z</time>
      </trkpt>
      <trkpt lat="48.15201" lon="3.32941">
        <ele>166.9</ele>
        <time>2024-05-15T11:09:16.000Z</time>
      </trkpt>
      <trkpt lat="48.15202" lon="3.32941">
        <ele>167.1</ele>
        <time>2024-05-15T11:09:15.000Z</time>
      </trkpt>
      <trkpt lat="48.15202" lon="3.32943">
        <ele>167.1</ele>
        <time>2024-05-15T11:09:14.000Z</time>
      </trkpt>
      <trkpt lat="48.15203" lon="3.32945">
        <ele>167.2</ele>
        <time>2024-05-15T11:09:12.000Z</time>
      </trkpt>
      <trkpt lat="48.15207" lon="3.32949">
        <ele>167.8</ele>
        <time>2024-05-15T11:09:09.000Z</time>
      </trkpt>
      <trkpt lat="48.15208" lon="3.32951">
        <ele>168</ele>
        <time>2024-05-15T11:09:02.000Z</time>
      </trkpt>
      <trkpt lat="48.15208" lon="3.32951">
        <ele>168</ele>
        <time>2024-05-15T11:08:59.000Z</time>
      </trkpt>
      <trkpt lat="48.15208" lon="3.3295">
        <ele>168</ele>
        <time>2024-05-15T11:08:58.000Z</time>
      </trkpt>
      <trkpt lat="48.15208" lon="3.32951">
        <ele>168</ele>
        <time>2024-05-15T11:08:57.000Z</time>
      </trkpt>
      <trkpt lat="48.15208" lon="3.32951">
        <ele>168</ele>
        <time>2024-05-15T11:08:56.000Z</time>
      </trkpt>
      <trkpt lat="48.15207" lon="3.32951">
        <ele>167.8</ele>
        <time>2024-05-15T11:08:55.000Z</time>
      </trkpt>
      <trkpt lat="48.15206" lon="3.32955">
        <ele>167.7</ele>
        <time>2024-05-15T11:08:52.000Z</time>
      </trkpt>
      <trkpt lat="48.15205" lon="3.32957">
        <ele>167.5</ele>
        <time>2024-05-15T11:08:51.000Z</time>
      </trkpt>
      <trkpt lat="48.15205" lon="3.32959">
        <ele>167.5</ele>
        <time>2024-05-15T11:08:50.000Z</time>
      </trkpt>
      <trkpt lat="48.15203" lon="3.32963">
        <ele>167.2</ele>
        <time>2024-05-15T11:08:48.000Z</time>
      </trkpt>
      <trkpt lat="48.15202" lon="3.32964">
        <ele>167.1</ele>
        <time>2024-05-15T11:08:47.000Z</time>
      </trkpt>
      <trkpt lat="48.152" lon="3.3297">
        <ele>166.8</ele>
        <time>2024-05-15T11:08:44.000Z</time>
      </trkpt>
      <trkpt lat="48.15199" lon="3.32972">
        <ele>166.7</ele>
        <time>2024-05-15T11:08:43.000Z</time>
      </trkpt>
      <trkpt lat="48.15196" lon="3.32979">
        <ele>166.5</ele>
        <time>2024-05-15T11:08:39.000Z</time>
      </trkpt>
      <trkpt lat="48.15196" lon="3.32981">
        <ele>166.5</ele>
        <time>2024-05-15T11:08:38.000Z</time>
      </trkpt>
      <trkpt lat="48.15196" lon="3.32988">
        <ele>166.8</ele>
        <time>2024-05-15T11:08:34.000Z</time>
      </trkpt>
      <trkpt lat="48.15196" lon="3.32989">
        <ele>166.8</ele>
        <time>2024-05-15T11:08:33.000Z</time>
      </trkpt>
      <trkpt lat="48.15196" lon="3.3299">
        <ele>166.9</ele>
        <time>2024-05-15T11:08:32.000Z</time>
      </trkpt>
      <trkpt lat="48.15195" lon="3.32992">
        <ele>166.8</ele>
        <time>2024-05-15T11:08:31.000Z</time>
      </trkpt>
      <trkpt lat="48.15194" lon="3.32996">
        <ele>166.8</ele>
        <time>2024-05-15T11:08:28.000Z</time>
      </trkpt>
      <trkpt lat="48.15193" lon="3.32999">
        <ele>166.8</ele>
        <time>2024-05-15T11:08:26.000Z</time>
      </trkpt>
      <trkpt lat="48.15194" lon="3.33003">
        <ele>167</ele>
        <time>2024-05-15T11:08:20.000Z</time>
      </trkpt>
      <trkpt lat="48.15194" lon="3.33003">
        <ele>167</ele>
        <time>2024-05-15T11:08:19.000Z</time>
      </trkpt>
      <trkpt lat="48.15195" lon="3.33003">
        <ele>167.2</ele>
        <time>2024-05-15T11:08:11.000Z</time>
      </trkpt>
      <trkpt lat="48.15195" lon="3.33003">
        <ele>167.2</ele>
        <time>2024-05-15T11:07:56.000Z</time>
      </trkpt>
      <trkpt lat="48.15195" lon="3.33003">
        <ele>167.2</ele>
        <time>2024-05-15T11:07:53.000Z</time>
      </trkpt>
      <trkpt lat="48.15195" lon="3.33003">
        <ele>167.2</ele>
        <time>2024-05-15T11:07:46.000Z</time>
      </trkpt>
      <trkpt lat="48.15195" lon="3.33003">
        <ele>167.2</ele>
        <time>2024-05-15T11:07:45.000Z</time>
      </trkpt>
      <trkpt lat="48.15195" lon="3.33003">
        <ele>167.2</ele>
        <time>2024-05-15T11:07:44.000Z</time>
      </trkpt>
      <trkpt lat="48.15195" lon="3.33003">
        <ele>167.2</ele>
        <time>2024-05-15T11:07:43.000Z</time>
      </trkpt>
      <trkpt lat="48.15196" lon="3.33002">
        <ele>167.3</ele>
        <time>2024-05-15T11:07:42.000Z</time>
      </trkpt>
      <trkpt lat="48.15198" lon="3.33">
        <ele>167.5</ele>
        <time>2024-05-15T11:07:41.000Z</time>
      </trkpt>
      <trkpt lat="48.15202" lon="3.32997">
        <ele>168</ele>
        <time>2024-05-15T11:07:40.000Z</time>
      </trkpt>
      <trkpt lat="48.15204" lon="3.32995">
        <ele>168.2</ele>
        <time>2024-05-15T11:07:39.000Z</time>
      </trkpt>
      <trkpt lat="48.15205" lon="3.32992">
        <ele>168.2</ele>
        <time>2024-05-15T11:07:38.000Z</time>
      </trkpt>
      <trkpt lat="48.15213" lon="3.32983">
        <ele>169.1</ele>
        <time>2024-05-15T11:07:35.000Z</time>
      </trkpt>
      <trkpt lat="48.15214" lon="3.32969">
        <ele>168.8</ele>
        <time>2024-05-15T11:07:32.000Z</time>
      </trkpt>
      <trkpt lat="48.15215" lon="3.32966">
        <ele>169</ele>
        <time>2024-05-15T11:07:31.000Z</time>
      </trkpt>
      <trkpt lat="48.15217" lon="3.32964">
        <ele>169.2</ele>
        <time>2024-05-15T11:07:30.000Z</time>
      </trkpt>
      <trkpt lat="48.15218" lon="3.32961">
        <ele>169.4</ele>
        <time>2024-05-15T11:07:29.000Z</time>
      </trkpt>
      <trkpt lat="48.15219" lon="3.32958">
        <ele>169.5</ele>
        <time>2024-05-15T11:07:28.000Z</time>
      </trkpt>
      <trkpt lat="48.15221" lon="3.32953">
        <ele>169.8</ele>
        <time>2024-05-15T11:07:26.000Z</time>
      </trkpt>
      <trkpt lat="48.15222" lon="3.32948">
        <ele>170</ele>
        <time>2024-05-15T11:07:24.000Z</time>
      </trkpt>
      <trkpt lat="48.15222" lon="3.32945">
        <ele>170</ele>
        <time>2024-05-15T11:07:23.000Z</time>
      </trkpt>
      <trkpt lat="48.15223" lon="3.32943">
        <ele>170.1</ele>
        <time>2024-05-15T11:07:22.000Z</time>
      </trkpt>
      <trkpt lat="48.15224" lon="3.32941">
        <ele>170.3</ele>
        <time>2024-05-15T11:07:21.000Z</time>
      </trkpt>
      <trkpt lat="48.15225" lon="3.32938">
        <ele>170.4</ele>
        <time>2024-05-15T11:07:20.000Z</time>
      </trkpt>
      <trkpt lat="48.15226" lon="3.32935">
        <ele>170.5</ele>
        <time>2024-05-15T11:07:19.000Z</time>
      </trkpt>
      <trkpt lat="48.15229" lon="3.32929">
        <ele>171</ele>
        <time>2024-05-15T11:07:17.000Z</time>
      </trkpt>
      <trkpt lat="48.15231" lon="3.32926">
        <ele>171.3</ele>
        <time>2024-05-15T11:07:16.000Z</time>
      </trkpt>
      <trkpt lat="48.15233" lon="3.32923">
        <ele>171.6</ele>
        <time>2024-05-15T11:07:15.000Z</time>
      </trkpt>
      <trkpt lat="48.15236" lon="3.32921">
        <ele>172</ele>
        <time>2024-05-15T11:07:14.000Z</time>
      </trkpt>
      <trkpt lat="48.1524" lon="3.32913">
        <ele>172.6</ele>
        <time>2024-05-15T11:07:10.000Z</time>
      </trkpt>
      <trkpt lat="48.15241" lon="3.32912">
        <ele>172.7</ele>
        <time>2024-05-15T11:07:09.000Z</time>
      </trkpt>
      <trkpt lat="48.15241" lon="3.32911">
        <ele>172.7</ele>
        <time>2024-05-15T11:07:02.000Z</time>
      </trkpt>
      <trkpt lat="48.15241" lon="3.32911">
        <ele>172.7</ele>
        <time>2024-05-15T11:06:47.000Z</time>
      </trkpt>
      <trkpt lat="48.15241" lon="3.32911">
        <ele>172.7</ele>
        <time>2024-05-15T11:06:37.000Z</time>
      </trkpt>
      <trkpt lat="48.15241" lon="3.32911">
        <ele>172.7</ele>
        <time>2024-05-15T11:06:30.000Z</time>
      </trkpt>
      <trkpt lat="48.15241" lon="3.32911">
        <ele>172.7</ele>
        <time>2024-05-15T11:06:28.000Z</time>
      </trkpt>
      <trkpt lat="48.15241" lon="3.32911">
        <ele>172.7</ele>
        <time>2024-05-15T11:06:19.000Z</time>
      </trkpt>
      <trkpt lat="48.15241" lon="3.32911">
        <ele>172.7</ele>
        <time>2024-05-15T11:06:18.000Z</time>
      </trkpt>
      <trkpt lat="48.15241" lon="3.32911">
        <ele>172.7</ele>
        <time>2024-05-15T11:06:17.000Z</time>
      </trkpt>
      <trkpt lat="48.15242" lon="3.32914">
        <ele>172.8</ele>
        <time>2024-05-15T11:06:16.000Z</time>
      </trkpt>
      <trkpt lat="48.15244" lon="3.32916">
        <ele>173.1</ele>
        <time>2024-05-15T11:06:15.000Z</time>
      </trkpt>
      <trkpt lat="48.15245" lon="3.32917">
        <ele>173.3</ele>
        <time>2024-05-15T11:06:14.000Z</time>
      </trkpt>
      <trkpt lat="48.15249" lon="3.32918">
        <ele>173.9</ele>
        <time>2024-05-15T11:06:12.000Z</time>
      </trkpt>
      <trkpt lat="48.15251" lon="3.32919">
        <ele>174.1</ele>
        <time>2024-05-15T11:06:11.000Z</time>
      </trkpt>
      <trkpt lat="48.15253" lon="3.32919">
        <ele>174.2</ele>
        <time>2024-05-15T11:06:10.000Z</time>
      </trkpt>
      <trkpt lat="48.15253" lon="3.32919">
        <ele>174.2</ele>
        <time>2024-05-15T11:06:09.000Z</time>
      </trkpt>
      <trkpt lat="48.15254" lon="3.32919">
        <ele>174.3</ele>
        <time>2024-05-15T11:06:08.000Z</time>
      </trkpt>
      <trkpt lat="48.15254" lon="3.32919">
        <ele>174.3</ele>
        <time>2024-05-15T11:06:07.000Z</time>
      </trkpt>
      <trkpt lat="48.15256" lon="3.3292">
        <ele>174.4</ele>
        <time>2024-05-15T11:06:06.000Z</time>
      </trkpt>
      <trkpt lat="48.15259" lon="3.32924">
        <ele>174.6</ele>
        <time>2024-05-15T11:06:02.000Z</time>
      </trkpt>
      <trkpt lat="48.1526" lon="3.32924">
        <ele>174.6</ele>
        <time>2024-05-15T11:06:01.000Z</time>
      </trkpt>
      <trkpt lat="48.15261" lon="3.32924">
        <ele>174.7</ele>
        <time>2024-05-15T11:06:00.000Z</time>
      </trkpt>
      <trkpt lat="48.15261" lon="3.32925">
        <ele>174.7</ele>
        <time>2024-05-15T11:05:59.000Z</time>
      </trkpt>
      <trkpt lat="48.15261" lon="3.32925">
        <ele>174.7</ele>
        <time>2024-05-15T11:05:58.000Z</time>
      </trkpt>
      <trkpt lat="48.15261" lon="3.32926">
        <ele>174.7</ele>
        <time>2024-05-15T11:05:57.000Z</time>
      </trkpt>
      <trkpt lat="48.15261" lon="3.32926">
        <ele>174.7</ele>
        <time>2024-05-15T11:05:56.000Z</time>
      </trkpt>
      <trkpt lat="48.15261" lon="3.32927">
        <ele>174.6</ele>
        <time>2024-05-15T11:05:55.000Z</time>
      </trkpt>
      <trkpt lat="48.15261" lon="3.32928">
        <ele>174.6</ele>
        <time>2024-05-15T11:05:54.000Z</time>
      </trkpt>
      <trkpt lat="48.1526" lon="3.32932">
        <ele>174.5</ele>
        <time>2024-05-15T11:05:52.000Z</time>
      </trkpt>
      <trkpt lat="48.1526" lon="3.32932">
        <ele>174.5</ele>
        <time>2024-05-15T11:05:51.000Z</time>
      </trkpt>
      <trkpt lat="48.1526" lon="3.32932">
        <ele>174.5</ele>
        <time>2024-05-15T11:05:50.000Z</time>
      </trkpt>
      <trkpt lat="48.15261" lon="3.32935">
        <ele>174.5</ele>
        <time>2024-05-15T11:05:48.000Z</time>
      </trkpt>
      <trkpt lat="48.15263" lon="3.32941">
        <ele>174.5</ele>
        <time>2024-05-15T11:05:46.000Z</time>
      </trkpt>
      <trkpt lat="48.15263" lon="3.32944">
        <ele>174.5</ele>
        <time>2024-05-15T11:05:45.000Z</time>
      </trkpt>
      <trkpt lat="48.15265" lon="3.32946">
        <ele>174.5</ele>
        <time>2024-05-15T11:05:44.000Z</time>
      </trkpt>
      <trkpt lat="48.15266" lon="3.32948">
        <ele>174.6</ele>
        <time>2024-05-15T11:05:43.000Z</time>
      </trkpt>
      <trkpt lat="48.1527" lon="3.32956">
        <ele>174.7</ele>
        <time>2024-05-15T11:05:40.000Z</time>
      </trkpt>
      <trkpt lat="48.15271" lon="3.32962">
        <ele>174.8</ele>
        <time>2024-05-15T11:05:38.000Z</time>
      </trkpt>
      <trkpt lat="48.15272" lon="3.32965">
        <ele>174.8</ele>
        <time>2024-05-15T11:05:35.000Z</time>
      </trkpt>
      <trkpt lat="48.15272" lon="3.32965">
        <ele>174.8</ele>
        <time>2024-05-15T11:05:29.000Z</time>
      </trkpt>
      <trkpt lat="48.15272" lon="3.32965">
        <ele>174.8</ele>
        <time>2024-05-15T11:05:23.000Z</time>
      </trkpt>
      <trkpt lat="48.15272" lon="3.32965">
        <ele>174.8</ele>
        <time>2024-05-15T11:05:21.000Z</time>
      </trkpt>
      <trkpt lat="48.15272" lon="3.32965">
        <ele>174.8</ele>
        <time>2024-05-15T11:05:20.000Z</time>
      </trkpt>
      <trkpt lat="48.15272" lon="3.32963">
        <ele>174.8</ele>
        <time>2024-05-15T11:05:19.000Z</time>
      </trkpt>
      <trkpt lat="48.15288" lon="3.32967">
        <ele>175.7</ele>
        <time>2024-05-15T11:05:13.000Z</time>
      </trkpt>
      <trkpt lat="48.15292" lon="3.32967">
        <ele>176</ele>
        <time>2024-05-15T11:05:12.000Z</time>
      </trkpt>
      <trkpt lat="48.15293" lon="3.32967">
        <ele>176.1</ele>
        <time>2024-05-15T11:05:11.000Z</time>
      </trkpt>
      <trkpt lat="48.15296" lon="3.32967">
        <ele>176.3</ele>
        <time>2024-05-15T11:05:10.000Z</time>
      </trkpt>
      <trkpt lat="48.15298" lon="3.32966">
        <ele>176.5</ele>
        <time>2024-05-15T11:05:09.000Z</time>
      </trkpt>
      <trkpt lat="48.153" lon="3.32966">
        <ele>176.6</ele>
        <time>2024-05-15T11:05:08.000Z</time>
      </trkpt>
      <trkpt lat="48.15307" lon="3.32965">
        <ele>177</ele>
        <time>2024-05-15T11:05:06.000Z</time>
      </trkpt>
      <trkpt lat="48.15315" lon="3.32968">
        <ele>177</ele>
        <time>2024-05-15T11:05:03.000Z</time>
      </trkpt>
      <trkpt lat="48.15317" lon="3.32968">
        <ele>177</ele>
        <time>2024-05-15T11:05:02.000Z</time>
      </trkpt>
      <trkpt lat="48.15321" lon="3.3297">
        <ele>177</ele>
        <time>2024-05-15T11:05:01.000Z</time>
      </trkpt>
      <trkpt lat="48.15323" lon="3.32971">
        <ele>177</ele>
        <time>2024-05-15T11:05:00.000Z</time>
      </trkpt>
      <trkpt lat="48.15338" lon="3.32976">
        <ele>177</ele>
        <time>2024-05-15T11:04:56.000Z</time>
      </trkpt>
      <trkpt lat="48.15343" lon="3.32978">
        <ele>177</ele>
        <time>2024-05-15T11:04:54.000Z</time>
      </trkpt>
      <trkpt lat="48.15349" lon="3.32982">
        <ele>177</ele>
        <time>2024-05-15T11:04:51.000Z</time>
      </trkpt>
      <trkpt lat="48.1535" lon="3.32985">
        <ele>177</ele>
        <time>2024-05-15T11:04:50.000Z</time>
      </trkpt>
      <trkpt lat="48.15361" lon="3.32993">
        <ele>177</ele>
        <time>2024-05-15T11:04:45.000Z</time>
      </trkpt>
      <trkpt lat="48.15363" lon="3.32994">
        <ele>177</ele>
        <time>2024-05-15T11:04:44.000Z</time>
      </trkpt>
      <trkpt lat="48.15365" lon="3.32995">
        <ele>177</ele>
        <time>2024-05-15T11:04:43.000Z</time>
      </trkpt>
      <trkpt lat="48.15367" lon="3.32996">
        <ele>177</ele>
        <time>2024-05-15T11:04:42.000Z</time>
      </trkpt>
      <trkpt lat="48.15368" lon="3.32997">
        <ele>177</ele>
        <time>2024-05-15T11:04:41.000Z</time>
      </trkpt>
      <trkpt lat="48.15369" lon="3.32999">
        <ele>177</ele>
        <time>2024-05-15T11:04:40.000Z</time>
      </trkpt>
      <trkpt lat="48.15371" lon="3.33001">
        <ele>177</ele>
        <time>2024-05-15T11:04:39.000Z</time>
      </trkpt>
      <trkpt lat="48.15373" lon="3.33004">
        <ele>177</ele>
        <time>2024-05-15T11:04:36.000Z</time>
      </trkpt>
      <trkpt lat="48.15375" lon="3.33004">
        <ele>177</ele>
        <time>2024-05-15T11:04:35.000Z</time>
      </trkpt>
      <trkpt lat="48.15378" lon="3.33003">
        <ele>177</ele>
        <time>2024-05-15T11:04:34.000Z</time>
      </trkpt>
      <trkpt lat="48.15379" lon="3.33001">
        <ele>177</ele>
        <time>2024-05-15T11:04:33.000Z</time>
      </trkpt>
      <trkpt lat="48.15379" lon="3.32998">
        <ele>177</ele>
        <time>2024-05-15T11:04:32.000Z</time>
      </trkpt>
      <trkpt lat="48.15384" lon="3.32984">
        <ele>177</ele>
        <time>2024-05-15T11:04:28.000Z</time>
      </trkpt>
      <trkpt lat="48.15385" lon="3.3298">
        <ele>177</ele>
        <time>2024-05-15T11:04:27.000Z</time>
      </trkpt>
      <trkpt lat="48.15386" lon="3.32978">
        <ele>177</ele>
        <time>2024-05-15T11:04:26.000Z</time>
      </trkpt>
      <trkpt lat="48.15387" lon="3.32977">
        <ele>177</ele>
        <time>2024-05-15T11:04:25.000Z</time>
      </trkpt>
      <trkpt lat="48.15388" lon="3.32975">
        <ele>177</ele>
        <time>2024-05-15T11:04:24.000Z</time>
      </trkpt>
      <trkpt lat="48.15389" lon="3.32974">
        <ele>177</ele>
        <time>2024-05-15T11:04:23.000Z</time>
      </trkpt>
      <trkpt lat="48.15389" lon="3.32974">
        <ele>177</ele>
        <time>2024-05-15T11:04:22.000Z</time>
      </trkpt>
      <trkpt lat="48.1539" lon="3.32974">
        <ele>177</ele>
        <time>2024-05-15T11:04:21.000Z</time>
      </trkpt>
      <trkpt lat="48.15391" lon="3.32973">
        <ele>177</ele>
        <time>2024-05-15T11:04:20.000Z</time>
      </trkpt>
      <trkpt lat="48.15392" lon="3.32972">
        <ele>177</ele>
        <time>2024-05-15T11:04:19.000Z</time>
      </trkpt>
      <trkpt lat="48.15394" lon="3.32971">
        <ele>177</ele>
        <time>2024-05-15T11:04:18.000Z</time>
      </trkpt>
      <trkpt lat="48.15395" lon="3.3297">
        <ele>177</ele>
        <time>2024-05-15T11:04:17.000Z</time>
      </trkpt>
      <trkpt lat="48.15396" lon="3.32968">
        <ele>177</ele>
        <time>2024-05-15T11:04:16.000Z</time>
      </trkpt>
      <trkpt lat="48.15397" lon="3.32966">
        <ele>176.9</ele>
        <time>2024-05-15T11:04:15.000Z</time>
      </trkpt>
      <trkpt lat="48.15399" lon="3.32965">
        <ele>176.9</ele>
        <time>2024-05-15T11:04:14.000Z</time>
      </trkpt>
      <trkpt lat="48.15401" lon="3.32964">
        <ele>176.9</ele>
        <time>2024-05-15T11:04:13.000Z</time>
      </trkpt>
      <trkpt lat="48.15401" lon="3.32964">
        <ele>176.9</ele>
        <time>2024-05-15T11:04:12.000Z</time>
      </trkpt>
      <trkpt lat="48.15401" lon="3.32964">
        <ele>176.9</ele>
        <time>2024-05-15T11:04:11.000Z</time>
      </trkpt>
      <trkpt lat="48.15402" lon="3.32964">
        <ele>176.9</ele>
        <time>2024-05-15T11:04:10.000Z</time>
      </trkpt>
      <trkpt lat="48.15403" lon="3.32963">
        <ele>176.8</ele>
        <time>2024-05-15T11:04:09.000Z</time>
      </trkpt>
      <trkpt lat="48.1541" lon="3.32962">
        <ele>176.7</ele>
        <time>2024-05-15T11:04:06.000Z</time>
      </trkpt>
      <trkpt lat="48.15419" lon="3.32958">
        <ele>176.4</ele>
        <time>2024-05-15T11:04:02.000Z</time>
      </trkpt>
      <trkpt lat="48.15421" lon="3.32957">
        <ele>176.4</ele>
        <time>2024-05-15T11:04:01.000Z</time>
      </trkpt>
      <trkpt lat="48.15423" lon="3.32957">
        <ele>176.3</ele>
        <time>2024-05-15T11:04:00.000Z</time>
      </trkpt>
      <trkpt lat="48.15424" lon="3.32956">
        <ele>176.3</ele>
        <time>2024-05-15T11:03:59.000Z</time>
      </trkpt>
      <trkpt lat="48.15425" lon="3.32954">
        <ele>176.2</ele>
        <time>2024-05-15T11:03:58.000Z</time>
      </trkpt>
      <trkpt lat="48.1543" lon="3.32957">
        <ele>176.2</ele>
        <time>2024-05-15T11:03:52.000Z</time>
      </trkpt>
      <trkpt lat="48.15431" lon="3.32957">
        <ele>176.2</ele>
        <time>2024-05-15T11:03:49.000Z</time>
      </trkpt>
      <trkpt lat="48.15432" lon="3.32957">
        <ele>176.2</ele>
        <time>2024-05-15T11:03:47.000Z</time>
      </trkpt>
      <trkpt lat="48.15434" lon="3.32958">
        <ele>176.2</ele>
        <time>2024-05-15T11:03:46.000Z</time>
      </trkpt>
      <trkpt lat="48.15436" lon="3.32959">
        <ele>176.2</ele>
        <time>2024-05-15T11:03:42.000Z</time>
      </trkpt>
      <trkpt lat="48.15437" lon="3.32959">
        <ele>176.1</ele>
        <time>2024-05-15T11:03:41.000Z</time>
      </trkpt>
      <trkpt lat="48.15438" lon="3.32958">
        <ele>176.1</ele>
        <time>2024-05-15T11:03:40.000Z</time>
      </trkpt>
      <trkpt lat="48.15443" lon="3.32957">
        <ele>176</ele>
        <time>2024-05-15T11:03:38.000Z</time>
      </trkpt>
      <trkpt lat="48.15446" lon="3.32956">
        <ele>176</ele>
        <time>2024-05-15T11:03:37.000Z</time>
      </trkpt>
      <trkpt lat="48.15449" lon="3.32956">
        <ele>175.9</ele>
        <time>2024-05-15T11:03:36.000Z</time>
      </trkpt>
      <trkpt lat="48.15457" lon="3.32954">
        <ele>175.7</ele>
        <time>2024-05-15T11:03:33.000Z</time>
      </trkpt>
      <trkpt lat="48.1546" lon="3.32953">
        <ele>175.6</ele>
        <time>2024-05-15T11:03:32.000Z</time>
      </trkpt>
      <trkpt lat="48.15463" lon="3.32952">
        <ele>175.5</ele>
        <time>2024-05-15T11:03:31.000Z</time>
      </trkpt>
      <trkpt lat="48.15464" lon="3.32951">
        <ele>175.5</ele>
        <time>2024-05-15T11:03:30.000Z</time>
      </trkpt>
      <trkpt lat="48.15467" lon="3.32951">
        <ele>175.4</ele>
        <time>2024-05-15T11:03:27.000Z</time>
      </trkpt>
      <trkpt lat="48.15471" lon="3.32951">
        <ele>175.3</ele>
        <time>2024-05-15T11:03:23.000Z</time>
      </trkpt>
      <trkpt lat="48.15471" lon="3.32951">
        <ele>175.3</ele>
        <time>2024-05-15T11:03:22.000Z</time>
      </trkpt>
      <trkpt lat="48.15474" lon="3.32951">
        <ele>175.2</ele>
        <time>2024-05-15T11:03:20.000Z</time>
      </trkpt>
      <trkpt lat="48.15475" lon="3.32951">
        <ele>175.2</ele>
        <time>2024-05-15T11:03:19.000Z</time>
      </trkpt>
      <trkpt lat="48.15477" lon="3.32951">
        <ele>175.2</ele>
        <time>2024-05-15T11:03:18.000Z</time>
      </trkpt>
      <trkpt lat="48.15481" lon="3.32952">
        <ele>175.2</ele>
        <time>2024-05-15T11:03:16.000Z</time>
      </trkpt>
      <trkpt lat="48.15492" lon="3.3295">
        <ele>175.1</ele>
        <time>2024-05-15T11:03:13.000Z</time>
      </trkpt>
      <trkpt lat="48.15494" lon="3.32949">
        <ele>175</ele>
        <time>2024-05-15T11:03:12.000Z</time>
      </trkpt>
      <trkpt lat="48.15496" lon="3.32948">
        <ele>175</ele>
        <time>2024-05-15T11:03:11.000Z</time>
      </trkpt>
      <trkpt lat="48.15498" lon="3.32947">
        <ele>175</ele>
        <time>2024-05-15T11:03:10.000Z</time>
      </trkpt>
      <trkpt lat="48.155" lon="3.32946">
        <ele>175</ele>
        <time>2024-05-15T11:03:09.000Z</time>
      </trkpt>
      <trkpt lat="48.15502" lon="3.32946">
        <ele>174.9</ele>
        <time>2024-05-15T11:03:08.000Z</time>
      </trkpt>
      <trkpt lat="48.15505" lon="3.32944">
        <ele>174.8</ele>
        <time>2024-05-15T11:03:06.000Z</time>
      </trkpt>
      <trkpt lat="48.15506" lon="3.32941">
        <ele>174.7</ele>
        <time>2024-05-15T11:03:05.000Z</time>
      </trkpt>
      <trkpt lat="48.15507" lon="3.32938">
        <ele>174.5</ele>
        <time>2024-05-15T11:03:04.000Z</time>
      </trkpt>
      <trkpt lat="48.15509" lon="3.32935">
        <ele>174.3</ele>
        <time>2024-05-15T11:03:03.000Z</time>
      </trkpt>
      <trkpt lat="48.1551" lon="3.32932">
        <ele>174.2</ele>
        <time>2024-05-15T11:03:02.000Z</time>
      </trkpt>
      <trkpt lat="48.15512" lon="3.3293">
        <ele>174</ele>
        <time>2024-05-15T11:03:01.000Z</time>
      </trkpt>
      <trkpt lat="48.15514" lon="3.32929">
        <ele>173.9</ele>
        <time>2024-05-15T11:03:00.000Z</time>
      </trkpt>
      <trkpt lat="48.15516" lon="3.32927">
        <ele>173.8</ele>
        <time>2024-05-15T11:02:58.000Z</time>
      </trkpt>
      <trkpt lat="48.15518" lon="3.32925">
        <ele>173.7</ele>
        <time>2024-05-15T11:02:57.000Z</time>
      </trkpt>
      <trkpt lat="48.1552" lon="3.32923">
        <ele>173.5</ele>
        <time>2024-05-15T11:02:56.000Z</time>
      </trkpt>
      <trkpt lat="48.15521" lon="3.32921">
        <ele>173.4</ele>
        <time>2024-05-15T11:02:55.000Z</time>
      </trkpt>
      <trkpt lat="48.15523" lon="3.32918">
        <ele>173.2</ele>
        <time>2024-05-15T11:02:54.000Z</time>
      </trkpt>
      <trkpt lat="48.15524" lon="3.32917">
        <ele>173.1</ele>
        <time>2024-05-15T11:02:53.000Z</time>
      </trkpt>
      <trkpt lat="48.15526" lon="3.32918">
        <ele>173.1</ele>
        <time>2024-05-15T11:02:52.000Z</time>
      </trkpt>
      <trkpt lat="48.15531" lon="3.32918">
        <ele>173</ele>
        <time>2024-05-15T11:02:50.000Z</time>
      </trkpt>
      <trkpt lat="48.15533" lon="3.32916">
        <ele>173</ele>
        <time>2024-05-15T11:02:49.000Z</time>
      </trkpt>
      <trkpt lat="48.15538" lon="3.32915">
        <ele>173</ele>
        <time>2024-05-15T11:02:47.000Z</time>
      </trkpt>
      <trkpt lat="48.15543" lon="3.32917">
        <ele>173</ele>
        <time>2024-05-15T11:02:46.000Z</time>
      </trkpt>
      <trkpt lat="48.15546" lon="3.32918">
        <ele>173</ele>
        <time>2024-05-15T11:02:45.000Z</time>
      </trkpt>
      <trkpt lat="48.15548" lon="3.32919">
        <ele>173.1</ele>
        <time>2024-05-15T11:02:44.000Z</time>
      </trkpt>
      <trkpt lat="48.15551" lon="3.3292">
        <ele>173.1</ele>
        <time>2024-05-15T11:02:43.000Z</time>
      </trkpt>
      <trkpt lat="48.15554" lon="3.3292">
        <ele>173.1</ele>
        <time>2024-05-15T11:02:42.000Z</time>
      </trkpt>
      <trkpt lat="48.15556" lon="3.32919">
        <ele>173.1</ele>
        <time>2024-05-15T11:02:41.000Z</time>
      </trkpt>
      <trkpt lat="48.15557" lon="3.32918">
        <ele>173</ele>
        <time>2024-05-15T11:02:40.000Z</time>
      </trkpt>
      <trkpt lat="48.15559" lon="3.32916">
        <ele>172.9</ele>
        <time>2024-05-15T11:02:39.000Z</time>
      </trkpt>
      <trkpt lat="48.15563" lon="3.32916">
        <ele>172.7</ele>
        <time>2024-05-15T11:02:37.000Z</time>
      </trkpt>
      <trkpt lat="48.15566" lon="3.32916">
        <ele>172.6</ele>
        <time>2024-05-15T11:02:36.000Z</time>
      </trkpt>
      <trkpt lat="48.15568" lon="3.32915">
        <ele>172.5</ele>
        <time>2024-05-15T11:02:35.000Z</time>
      </trkpt>
      <trkpt lat="48.15569" lon="3.32914">
        <ele>172.4</ele>
        <time>2024-05-15T11:02:34.000Z</time>
      </trkpt>
      <trkpt lat="48.15571" lon="3.32911">
        <ele>172.2</ele>
        <time>2024-05-15T11:02:32.000Z</time>
      </trkpt>
      <trkpt lat="48.15574" lon="3.32909">
        <ele>172.1</ele>
        <time>2024-05-15T11:02:29.000Z</time>
      </trkpt>
      <trkpt lat="48.15577" lon="3.32911">
        <ele>172</ele>
        <time>2024-05-15T11:02:22.000Z</time>
      </trkpt>
      <trkpt lat="48.15577" lon="3.32911">
        <ele>172</ele>
        <time>2024-05-15T11:02:20.000Z</time>
      </trkpt>
      <trkpt lat="48.15577" lon="3.32911">
        <ele>172</ele>
        <time>2024-05-15T11:02:19.000Z</time>
      </trkpt>
      <trkpt lat="48.15577" lon="3.32912">
        <ele>172.1</ele>
        <time>2024-05-15T11:02:18.000Z</time>
      </trkpt>
      <trkpt lat="48.15578" lon="3.32914">
        <ele>172.1</ele>
        <time>2024-05-15T11:02:17.000Z</time>
      </trkpt>
      <trkpt lat="48.15578" lon="3.32914">
        <ele>172.1</ele>
        <time>2024-05-15T11:02:16.000Z</time>
      </trkpt>
      <trkpt lat="48.15579" lon="3.32917">
        <ele>172.2</ele>
        <time>2024-05-15T11:02:14.000Z</time>
      </trkpt>
      <trkpt lat="48.1558" lon="3.32919">
        <ele>172.2</ele>
        <time>2024-05-15T11:02:13.000Z</time>
      </trkpt>
      <trkpt lat="48.15584" lon="3.32928">
        <ele>172.4</ele>
        <time>2024-05-15T11:02:09.000Z</time>
      </trkpt>
      <trkpt lat="48.15585" lon="3.3293">
        <ele>172.4</ele>
        <time>2024-05-15T11:02:08.000Z</time>
      </trkpt>
      <trkpt lat="48.15586" lon="3.32932">
        <ele>172.5</ele>
        <time>2024-05-15T11:02:07.000Z</time>
      </trkpt>
      <trkpt lat="48.15587" lon="3.32934">
        <ele>172.5</ele>
        <time>2024-05-15T11:02:06.000Z</time>
      </trkpt>
      <trkpt lat="48.15588" lon="3.32936">
        <ele>172.5</ele>
        <time>2024-05-15T11:02:05.000Z</time>
      </trkpt>
      <trkpt lat="48.15588" lon="3.32938">
        <ele>172.6</ele>
        <time>2024-05-15T11:02:04.000Z</time>
      </trkpt>
      <trkpt lat="48.15589" lon="3.32939">
        <ele>172.6</ele>
        <time>2024-05-15T11:02:03.000Z</time>
      </trkpt>
      <trkpt lat="48.15589" lon="3.32941">
        <ele>172.7</ele>
        <time>2024-05-15T11:02:02.000Z</time>
      </trkpt>
      <trkpt lat="48.1559" lon="3.32943">
        <ele>172.7</ele>
        <time>2024-05-15T11:02:01.000Z</time>
      </trkpt>
      <trkpt lat="48.15591" lon="3.32945">
        <ele>172.7</ele>
        <time>2024-05-15T11:02:00.000Z</time>
      </trkpt>
      <trkpt lat="48.15593" lon="3.32951">
        <ele>172.9</ele>
        <time>2024-05-15T11:01:57.000Z</time>
      </trkpt>
      <trkpt lat="48.15594" lon="3.32953">
        <ele>172.9</ele>
        <time>2024-05-15T11:01:56.000Z</time>
      </trkpt>
      <trkpt lat="48.15596" lon="3.32953">
        <ele>172.9</ele>
        <time>2024-05-15T11:01:55.000Z</time>
      </trkpt>
      <trkpt lat="48.156" lon="3.32951">
        <ele>172.6</ele>
        <time>2024-05-15T11:01:53.000Z</time>
      </trkpt>
      <trkpt lat="48.15602" lon="3.3295">
        <ele>172.5</ele>
        <time>2024-05-15T11:01:52.000Z</time>
      </trkpt>
      <trkpt lat="48.15607" lon="3.32948">
        <ele>172.3</ele>
        <time>2024-05-15T11:01:49.000Z</time>
      </trkpt>
      <trkpt lat="48.15608" lon="3.32946">
        <ele>172.2</ele>
        <time>2024-05-15T11:01:48.000Z</time>
      </trkpt>
      <trkpt lat="48.15609" lon="3.32945">
        <ele>172.1</ele>
        <time>2024-05-15T11:01:47.000Z</time>
      </trkpt>
      <trkpt lat="48.15612" lon="3.32942">
        <ele>171.9</ele>
        <time>2024-05-15T11:01:41.000Z</time>
      </trkpt>
      <trkpt lat="48.15612" lon="3.32942">
        <ele>171.9</ele>
        <time>2024-05-15T11:01:37.000Z</time>
      </trkpt>
      <trkpt lat="48.15613" lon="3.32942">
        <ele>171.9</ele>
        <time>2024-05-15T11:01:35.000Z</time>
      </trkpt>
      <trkpt lat="48.15613" lon="3.32942">
        <ele>171.9</ele>
        <time>2024-05-15T11:01:34.000Z</time>
      </trkpt>
      <trkpt lat="48.15614" lon="3.32942">
        <ele>171.9</ele>
        <time>2024-05-15T11:01:33.000Z</time>
      </trkpt>
      <trkpt lat="48.15625" lon="3.32945">
        <ele>172</ele>
        <time>2024-05-15T11:01:29.000Z</time>
      </trkpt>
      <trkpt lat="48.15626" lon="3.32948">
        <ele>172.1</ele>
        <time>2024-05-15T11:01:28.000Z</time>
      </trkpt>
      <trkpt lat="48.15627" lon="3.32947">
        <ele>172</ele>
        <time>2024-05-15T11:01:27.000Z</time>
      </trkpt>
      <trkpt lat="48.1563" lon="3.32947">
        <ele>172</ele>
        <time>2024-05-15T11:01:26.000Z</time>
      </trkpt>
      <trkpt lat="48.15635" lon="3.32952">
        <ele>172</ele>
        <time>2024-05-15T11:01:23.000Z</time>
      </trkpt>
      <trkpt lat="48.15636" lon="3.32953">
        <ele>172</ele>
        <time>2024-05-15T11:01:22.000Z</time>
      </trkpt>
      <trkpt lat="48.15636" lon="3.32953">
        <ele>172</ele>
        <time>2024-05-15T11:01:21.000Z</time>
      </trkpt>
      <trkpt lat="48.15637" lon="3.32954">
        <ele>172</ele>
        <time>2024-05-15T11:01:20.000Z</time>
      </trkpt>
      <trkpt lat="48.15643" lon="3.32959">
        <ele>171.9</ele>
        <time>2024-05-15T11:01:16.000Z</time>
      </trkpt>
      <trkpt lat="48.15647" lon="3.32962">
        <ele>171.9</ele>
        <time>2024-05-15T11:01:14.000Z</time>
      </trkpt>
      <trkpt lat="48.15648" lon="3.32964">
        <ele>171.9</ele>
        <time>2024-05-15T11:01:13.000Z</time>
      </trkpt>
      <trkpt lat="48.15649" lon="3.32965">
        <ele>171.9</ele>
        <time>2024-05-15T11:01:12.000Z</time>
      </trkpt>
      <trkpt lat="48.1565" lon="3.32966">
        <ele>171.9</ele>
        <time>2024-05-15T11:01:11.000Z</time>
      </trkpt>
      <trkpt lat="48.15651" lon="3.32968">
        <ele>171.9</ele>
        <time>2024-05-15T11:01:10.000Z</time>
      </trkpt>
      <trkpt lat="48.15652" lon="3.3297">
        <ele>172</ele>
        <time>2024-05-15T11:01:09.000Z</time>
      </trkpt>
      <trkpt lat="48.15655" lon="3.32975">
        <ele>172</ele>
        <time>2024-05-15T11:01:06.000Z</time>
      </trkpt>
      <trkpt lat="48.15656" lon="3.32978">
        <ele>172.1</ele>
        <time>2024-05-15T11:01:05.000Z</time>
      </trkpt>
      <trkpt lat="48.15656" lon="3.32979">
        <ele>172.1</ele>
        <time>2024-05-15T11:01:04.000Z</time>
      </trkpt>
      <trkpt lat="48.15658" lon="3.32987">
        <ele>172.2</ele>
        <time>2024-05-15T11:00:59.000Z</time>
      </trkpt>
      <trkpt lat="48.15658" lon="3.32989">
        <ele>172.2</ele>
        <time>2024-05-15T11:00:58.000Z</time>
      </trkpt>
      <trkpt lat="48.15658" lon="3.32989">
        <ele>172.2</ele>
        <time>2024-05-15T11:00:57.000Z</time>
      </trkpt>
      <trkpt lat="48.15659" lon="3.32989">
        <ele>172.2</ele>
        <time>2024-05-15T11:00:56.000Z</time>
      </trkpt>
      <trkpt lat="48.15658" lon="3.32992">
        <ele>172.2</ele>
        <time>2024-05-15T11:00:55.000Z</time>
      </trkpt>
      <trkpt lat="48.15659" lon="3.32995">
        <ele>172.2</ele>
        <time>2024-05-15T11:00:53.000Z</time>
      </trkpt>
      <trkpt lat="48.15659" lon="3.32995">
        <ele>172.2</ele>
        <time>2024-05-15T11:00:52.000Z</time>
      </trkpt>
      <trkpt lat="48.15659" lon="3.32996">
        <ele>172.2</ele>
        <time>2024-05-15T11:00:51.000Z</time>
      </trkpt>
      <trkpt lat="48.15659" lon="3.32996">
        <ele>172.2</ele>
        <time>2024-05-15T11:00:50.000Z</time>
      </trkpt>
      <trkpt lat="48.1566" lon="3.33">
        <ele>172.2</ele>
        <time>2024-05-15T11:00:47.000Z</time>
      </trkpt>
      <trkpt lat="48.15661" lon="3.33001">
        <ele>172.2</ele>
        <time>2024-05-15T11:00:46.000Z</time>
      </trkpt>
      <trkpt lat="48.15662" lon="3.33002">
        <ele>172.2</ele>
        <time>2024-05-15T11:00:45.000Z</time>
      </trkpt>
      <trkpt lat="48.15662" lon="3.33003">
        <ele>172.2</ele>
        <time>2024-05-15T11:00:44.000Z</time>
      </trkpt>
      <trkpt lat="48.15663" lon="3.33004">
        <ele>172.1</ele>
        <time>2024-05-15T11:00:43.000Z</time>
      </trkpt>
      <trkpt lat="48.15664" lon="3.33006">
        <ele>172.1</ele>
        <time>2024-05-15T11:00:42.000Z</time>
      </trkpt>
      <trkpt lat="48.15665" lon="3.33007">
        <ele>172.1</ele>
        <time>2024-05-15T11:00:41.000Z</time>
      </trkpt>
      <trkpt lat="48.15666" lon="3.33008">
        <ele>172</ele>
        <time>2024-05-15T11:00:40.000Z</time>
      </trkpt>
      <trkpt lat="48.15668" lon="3.33011">
        <ele>172</ele>
        <time>2024-05-15T11:00:38.000Z</time>
      </trkpt>
      <trkpt lat="48.15668" lon="3.33014">
        <ele>172</ele>
        <time>2024-05-15T11:00:30.000Z</time>
      </trkpt>
      <trkpt lat="48.15668" lon="3.33014">
        <ele>172</ele>
        <time>2024-05-15T11:00:14.000Z</time>
      </trkpt>
      <trkpt lat="48.15668" lon="3.33014">
        <ele>172</ele>
        <time>2024-05-15T11:00:07.000Z</time>
      </trkpt>
      <trkpt lat="48.15668" lon="3.33016">
        <ele>172</ele>
        <time>2024-05-15T11:00:06.000Z</time>
      </trkpt>
      <trkpt lat="48.15668" lon="3.33017">
        <ele>172</ele>
        <time>2024-05-15T11:00:05.000Z</time>
      </trkpt>
      <trkpt lat="48.15668" lon="3.33017">
        <ele>172</ele>
        <time>2024-05-15T11:00:04.000Z</time>
      </trkpt>
      <trkpt lat="48.15668" lon="3.33018">
        <ele>172</ele>
        <time>2024-05-15T11:00:00.000Z</time>
      </trkpt>
      <trkpt lat="48.15668" lon="3.33018">
        <ele>172</ele>
        <time>2024-05-15T10:59:59.000Z</time>
      </trkpt>
      <trkpt lat="48.15668" lon="3.33018">
        <ele>172</ele>
        <time>2024-05-15T10:59:58.000Z</time>
      </trkpt>
      <trkpt lat="48.15667" lon="3.33019">
        <ele>172</ele>
        <time>2024-05-15T10:59:57.000Z</time>
      </trkpt>
      <trkpt lat="48.15666" lon="3.3302">
        <ele>172</ele>
        <time>2024-05-15T10:59:56.000Z</time>
      </trkpt>
      <trkpt lat="48.15665" lon="3.33021">
        <ele>172.1</ele>
        <time>2024-05-15T10:59:55.000Z</time>
      </trkpt>
      <trkpt lat="48.15664" lon="3.33021">
        <ele>172.1</ele>
        <time>2024-05-15T10:59:54.000Z</time>
      </trkpt>
      <trkpt lat="48.15662" lon="3.33021">
        <ele>172.2</ele>
        <time>2024-05-15T10:59:53.000Z</time>
      </trkpt>
      <trkpt lat="48.15651" lon="3.33025">
        <ele>172.6</ele>
        <time>2024-05-15T10:59:49.000Z</time>
      </trkpt>
      <trkpt lat="48.15648" lon="3.33027">
        <ele>172.7</ele>
        <time>2024-05-15T10:59:48.000Z</time>
      </trkpt>
      <trkpt lat="48.15642" lon="3.33031">
        <ele>172.9</ele>
        <time>2024-05-15T10:59:45.000Z</time>
      </trkpt>
      <trkpt lat="48.15641" lon="3.33032">
        <ele>172.9</ele>
        <time>2024-05-15T10:59:44.000Z</time>
      </trkpt>
      <trkpt lat="48.15641" lon="3.33034">
        <ele>172.9</ele>
        <time>2024-05-15T10:59:43.000Z</time>
      </trkpt>
      <trkpt lat="48.15641" lon="3.33035">
        <ele>172.9</ele>
        <time>2024-05-15T10:59:37.000Z</time>
      </trkpt>
      <trkpt lat="48.15641" lon="3.33035">
        <ele>172.9</ele>
        <time>2024-05-15T10:59:34.000Z</time>
      </trkpt>
      <trkpt lat="48.15642" lon="3.33038">
        <ele>172.9</ele>
        <time>2024-05-15T10:59:33.000Z</time>
      </trkpt>
      <trkpt lat="48.15643" lon="3.33041">
        <ele>172.9</ele>
        <time>2024-05-15T10:59:32.000Z</time>
      </trkpt>
      <trkpt lat="48.15644" lon="3.33045">
        <ele>172.9</ele>
        <time>2024-05-15T10:59:31.000Z</time>
      </trkpt>
      <trkpt lat="48.15645" lon="3.3305">
        <ele>173</ele>
        <time>2024-05-15T10:59:30.000Z</time>
      </trkpt>
      <trkpt lat="48.15645" lon="3.33056">
        <ele>173</ele>
        <time>2024-05-15T10:59:29.000Z</time>
      </trkpt>
      <trkpt lat="48.15646" lon="3.33062">
        <ele>172.9</ele>
        <time>2024-05-15T10:59:28.000Z</time>
      </trkpt>
      <trkpt lat="48.15647" lon="3.33068">
        <ele>172.9</ele>
        <time>2024-05-15T10:59:27.000Z</time>
      </trkpt>
      <trkpt lat="48.15647" lon="3.33073">
        <ele>172.8</ele>
        <time>2024-05-15T10:59:26.000Z</time>
      </trkpt>
      <trkpt lat="48.15648" lon="3.33079">
        <ele>172.7</ele>
        <time>2024-05-15T10:59:25.000Z</time>
      </trkpt>
      <trkpt lat="48.15649" lon="3.33084">
        <ele>172.6</ele>
        <time>2024-05-15T10:59:24.000Z</time>
      </trkpt>
      <trkpt lat="48.1565" lon="3.33089">
        <ele>172.5</ele>
        <time>2024-05-15T10:59:23.000Z</time>
      </trkpt>
      <trkpt lat="48.1565" lon="3.33094">
        <ele>172.4</ele>
        <time>2024-05-15T10:59:22.000Z</time>
      </trkpt>
      <trkpt lat="48.15651" lon="3.33099">
        <ele>172.2</ele>
        <time>2024-05-15T10:59:21.000Z</time>
      </trkpt>
      <trkpt lat="48.15652" lon="3.33104">
        <ele>172.1</ele>
        <time>2024-05-15T10:59:20.000Z</time>
      </trkpt>
      <trkpt lat="48.15654" lon="3.33108">
        <ele>172.1</ele>
        <time>2024-05-15T10:59:19.000Z</time>
      </trkpt>
      <trkpt lat="48.15655" lon="3.33113">
        <ele>172</ele>
        <time>2024-05-15T10:59:18.000Z</time>
      </trkpt>
      <trkpt lat="48.15656" lon="3.33118">
        <ele>171.8</ele>
        <time>2024-05-15T10:59:17.000Z</time>
      </trkpt>
      <trkpt lat="48.15657" lon="3.33123">
        <ele>171.7</ele>
        <time>2024-05-15T10:59:16.000Z</time>
      </trkpt>
      <trkpt lat="48.15657" lon="3.33128">
        <ele>171.6</ele>
        <time>2024-05-15T10:59:15.000Z</time>
      </trkpt>
      <trkpt lat="48.15658" lon="3.33132">
        <ele>171.5</ele>
        <time>2024-05-15T10:59:14.000Z</time>
      </trkpt>
      <trkpt lat="48.15659" lon="3.33137">
        <ele>171.3</ele>
        <time>2024-05-15T10:59:13.000Z</time>
      </trkpt>
      <trkpt lat="48.1566" lon="3.33142">
        <ele>171.1</ele>
        <time>2024-05-15T10:59:12.000Z</time>
      </trkpt>
      <trkpt lat="48.15661" lon="3.33146">
        <ele>170.9</ele>
        <time>2024-05-15T10:59:11.000Z</time>
      </trkpt>
      <trkpt lat="48.15664" lon="3.33168">
        <ele>170</ele>
        <time>2024-05-15T10:59:07.000Z</time>
      </trkpt>
      <trkpt lat="48.15668" lon="3.33193">
        <ele>169.1</ele>
        <time>2024-05-15T10:59:02.000Z</time>
      </trkpt>
      <trkpt lat="48.15671" lon="3.33232">
        <ele>167.9</ele>
        <time>2024-05-15T10:58:54.000Z</time>
      </trkpt>
      <trkpt lat="48.15671" lon="3.33236">
        <ele>167.9</ele>
        <time>2024-05-15T10:58:53.000Z</time>
      </trkpt>
      <trkpt lat="48.15671" lon="3.3324">
        <ele>167.9</ele>
        <time>2024-05-15T10:58:52.000Z</time>
      </trkpt>
      <trkpt lat="48.15671" lon="3.33244">
        <ele>167.9</ele>
        <time>2024-05-15T10:58:51.000Z</time>
      </trkpt>
      <trkpt lat="48.15671" lon="3.33253">
        <ele>167.7</ele>
        <time>2024-05-15T10:58:49.000Z</time>
      </trkpt>
      <trkpt lat="48.15676" lon="3.33271">
        <ele>166.9</ele>
        <time>2024-05-15T10:58:44.000Z</time>
      </trkpt>
      <trkpt lat="48.15678" lon="3.33278">
        <ele>166.6</ele>
        <time>2024-05-15T10:58:27.000Z</time>
      </trkpt>
      <trkpt lat="48.15678" lon="3.33278">
        <ele>166.6</ele>
        <time>2024-05-15T10:58:24.000Z</time>
      </trkpt>
      <trkpt lat="48.15678" lon="3.33279">
        <ele>166.5</ele>
        <time>2024-05-15T10:58:23.000Z</time>
      </trkpt>
      <trkpt lat="48.15678" lon="3.33281">
        <ele>166.5</ele>
        <time>2024-05-15T10:58:22.000Z</time>
      </trkpt>
      <trkpt lat="48.15678" lon="3.33285">
        <ele>166.3</ele>
        <time>2024-05-15T10:58:21.000Z</time>
      </trkpt>
      <trkpt lat="48.15679" lon="3.33299">
        <ele>165.8</ele>
        <time>2024-05-15T10:58:17.000Z</time>
      </trkpt>
      <trkpt lat="48.15679" lon="3.33302">
        <ele>165.7</ele>
        <time>2024-05-15T10:58:16.000Z</time>
      </trkpt>
      <trkpt lat="48.15678" lon="3.33306">
        <ele>165.6</ele>
        <time>2024-05-15T10:58:15.000Z</time>
      </trkpt>
      <trkpt lat="48.15677" lon="3.3331">
        <ele>165.5</ele>
        <time>2024-05-15T10:58:14.000Z</time>
      </trkpt>
      <trkpt lat="48.15675" lon="3.33317">
        <ele>165.3</ele>
        <time>2024-05-15T10:58:12.000Z</time>
      </trkpt>
      <trkpt lat="48.15669" lon="3.33334">
        <ele>164.9</ele>
        <time>2024-05-15T10:58:07.000Z</time>
      </trkpt>
      <trkpt lat="48.15669" lon="3.33336">
        <ele>164.9</ele>
        <time>2024-05-15T10:58:06.000Z</time>
      </trkpt>
      <trkpt lat="48.15668" lon="3.33339">
        <ele>164.9</ele>
        <time>2024-05-15T10:58:01.000Z</time>
      </trkpt>
      <trkpt lat="48.15668" lon="3.33339">
        <ele>164.9</ele>
        <time>2024-05-15T10:57:52.000Z</time>
      </trkpt>
      <trkpt lat="48.15668" lon="3.33339">
        <ele>164.9</ele>
        <time>2024-05-15T10:57:48.000Z</time>
      </trkpt>
      <trkpt lat="48.15666" lon="3.33342">
        <ele>165</ele>
        <time>2024-05-15T10:57:46.000Z</time>
      </trkpt>
      <trkpt lat="48.15663" lon="3.33344">
        <ele>165.2</ele>
        <time>2024-05-15T10:57:45.000Z</time>
      </trkpt>
      <trkpt lat="48.1566" lon="3.33346">
        <ele>165.4</ele>
        <time>2024-05-15T10:57:44.000Z</time>
      </trkpt>
      <trkpt lat="48.15659" lon="3.33347">
        <ele>165.4</ele>
        <time>2024-05-15T10:57:43.000Z</time>
      </trkpt>
      <trkpt lat="48.15657" lon="3.33349">
        <ele>165.5</ele>
        <time>2024-05-15T10:57:42.000Z</time>
      </trkpt>
      <trkpt lat="48.15653" lon="3.3336">
        <ele>165.5</ele>
        <time>2024-05-15T10:57:39.000Z</time>
      </trkpt>
      <trkpt lat="48.15653" lon="3.33363">
        <ele>165.5</ele>
        <time>2024-05-15T10:57:38.000Z</time>
      </trkpt>
      <trkpt lat="48.15653" lon="3.33367">
        <ele>165.5</ele>
        <time>2024-05-15T10:57:37.000Z</time>
      </trkpt>
      <trkpt lat="48.15653" lon="3.3337">
        <ele>165.5</ele>
        <time>2024-05-15T10:57:36.000Z</time>
      </trkpt>
      <trkpt lat="48.15653" lon="3.33373">
        <ele>165.5</ele>
        <time>2024-05-15T10:57:35.000Z</time>
      </trkpt>
      <trkpt lat="48.15652" lon="3.33376">
        <ele>165.5</ele>
        <time>2024-05-15T10:57:34.000Z</time>
      </trkpt>
      <trkpt lat="48.15651" lon="3.3338">
        <ele>165.6</ele>
        <time>2024-05-15T10:57:33.000Z</time>
      </trkpt>
      <trkpt lat="48.15651" lon="3.33383">
        <ele>165.6</ele>
        <time>2024-05-15T10:57:32.000Z</time>
      </trkpt>
      <trkpt lat="48.15651" lon="3.33386">
        <ele>165.6</ele>
        <time>2024-05-15T10:57:31.000Z</time>
      </trkpt>
      <trkpt lat="48.15649" lon="3.3339">
        <ele>165.6</ele>
        <time>2024-05-15T10:57:30.000Z</time>
      </trkpt>
      <trkpt lat="48.15647" lon="3.33393">
        <ele>165.7</ele>
        <time>2024-05-15T10:57:29.000Z</time>
      </trkpt>
      <trkpt lat="48.15644" lon="3.33396">
        <ele>165.8</ele>
        <time>2024-05-15T10:57:28.000Z</time>
      </trkpt>
      <trkpt lat="48.15642" lon="3.33398">
        <ele>165.9</ele>
        <time>2024-05-15T10:57:27.000Z</time>
      </trkpt>
      <trkpt lat="48.1564" lon="3.33403">
        <ele>166</ele>
        <time>2024-05-15T10:57:26.000Z</time>
      </trkpt>
      <trkpt lat="48.15638" lon="3.33407">
        <ele>166</ele>
        <time>2024-05-15T10:57:25.000Z</time>
      </trkpt>
      <trkpt lat="48.15634" lon="3.33416">
        <ele>166.2</ele>
        <time>2024-05-15T10:57:24.000Z</time>
      </trkpt>
      <trkpt lat="48.15628" lon="3.33432">
        <ele>166.4</ele>
        <time>2024-05-15T10:57:22.000Z</time>
      </trkpt>
      <trkpt lat="48.15623" lon="3.33444">
        <ele>166.6</ele>
        <time>2024-05-15T10:57:20.000Z</time>
      </trkpt>
      <trkpt lat="48.15611" lon="3.33489">
        <ele>167</ele>
        <time>2024-05-15T10:57:12.000Z</time>
      </trkpt>
      <trkpt lat="48.15609" lon="3.33497">
        <ele>167.1</ele>
        <time>2024-05-15T10:57:10.000Z</time>
      </trkpt>
      <trkpt lat="48.15608" lon="3.33501">
        <ele>167.1</ele>
        <time>2024-05-15T10:57:09.000Z</time>
      </trkpt>
      <trkpt lat="48.15607" lon="3.33506">
        <ele>167.1</ele>
        <time>2024-05-15T10:57:07.000Z</time>
      </trkpt>
      <trkpt lat="48.15606" lon="3.33509">
        <ele>167.2</ele>
        <time>2024-05-15T10:57:06.000Z</time>
      </trkpt>
      <trkpt lat="48.15606" lon="3.33511">
        <ele>167.2</ele>
        <time>2024-05-15T10:57:05.000Z</time>
      </trkpt>
      <trkpt lat="48.15605" lon="3.33511">
        <ele>167.2</ele>
        <time>2024-05-15T10:57:02.000Z</time>
      </trkpt>
      <trkpt lat="48.15605" lon="3.33513">
        <ele>167.2</ele>
        <time>2024-05-15T10:56:56.000Z</time>
      </trkpt>
      <trkpt lat="48.15605" lon="3.33514">
        <ele>167.2</ele>
        <time>2024-05-15T10:56:55.000Z</time>
      </trkpt>
      <trkpt lat="48.15603" lon="3.3352">
        <ele>167.3</ele>
        <time>2024-05-15T10:56:53.000Z</time>
      </trkpt>
      <trkpt lat="48.15599" lon="3.33532">
        <ele>167.4</ele>
        <time>2024-05-15T10:56:50.000Z</time>
      </trkpt>
      <trkpt lat="48.15597" lon="3.33537">
        <ele>167.5</ele>
        <time>2024-05-15T10:56:48.000Z</time>
      </trkpt>
      <trkpt lat="48.15596" lon="3.33539">
        <ele>167.5</ele>
        <time>2024-05-15T10:56:45.000Z</time>
      </trkpt>
      <trkpt lat="48.15596" lon="3.33539">
        <ele>167.5</ele>
        <time>2024-05-15T10:56:43.000Z</time>
      </trkpt>
      <trkpt lat="48.15596" lon="3.33539">
        <ele>167.5</ele>
        <time>2024-05-15T10:56:41.000Z</time>
      </trkpt>
      <trkpt lat="48.15596" lon="3.33539">
        <ele>167.5</ele>
        <time>2024-05-15T10:56:40.000Z</time>
      </trkpt>
      <trkpt lat="48.15593" lon="3.33539">
        <ele>167.7</ele>
        <time>2024-05-15T10:56:39.000Z</time>
      </trkpt>
      <trkpt lat="48.15591" lon="3.33541">
        <ele>167.7</ele>
        <time>2024-05-15T10:56:38.000Z</time>
      </trkpt>
      <trkpt lat="48.15588" lon="3.33539">
        <ele>167.8</ele>
        <time>2024-05-15T10:56:37.000Z</time>
      </trkpt>
      <trkpt lat="48.15585" lon="3.33537">
        <ele>167.9</ele>
        <time>2024-05-15T10:56:36.000Z</time>
      </trkpt>
      <trkpt lat="48.15581" lon="3.33534">
        <ele>168.1</ele>
        <time>2024-05-15T10:56:35.000Z</time>
      </trkpt>
      <trkpt lat="48.15577" lon="3.3353">
        <ele>168.2</ele>
        <time>2024-05-15T10:56:34.000Z</time>
      </trkpt>
      <trkpt lat="48.15564" lon="3.33524">
        <ele>168.8</ele>
        <time>2024-05-15T10:56:31.000Z</time>
      </trkpt>
      <trkpt lat="48.15559" lon="3.33523">
        <ele>169</ele>
        <time>2024-05-15T10:56:30.000Z</time>
      </trkpt>
      <trkpt lat="48.1555" lon="3.33516">
        <ele>169.7</ele>
        <time>2024-05-15T10:56:29.000Z</time>
      </trkpt>
      <trkpt lat="48.15531" lon="3.33497">
        <ele>170.9</ele>
        <time>2024-05-15T10:56:26.000Z</time>
      </trkpt>
      <trkpt lat="48.15526" lon="3.33494">
        <ele>171.1</ele>
        <time>2024-05-15T10:56:25.000Z</time>
      </trkpt>
      <trkpt lat="48.15519" lon="3.33489">
        <ele>171.3</ele>
        <time>2024-05-15T10:56:24.000Z</time>
      </trkpt>
      <trkpt lat="48.15514" lon="3.33488">
        <ele>171.5</ele>
        <time>2024-05-15T10:56:23.000Z</time>
      </trkpt>
      <trkpt lat="48.15503" lon="3.33483">
        <ele>171.9</ele>
        <time>2024-05-15T10:56:21.000Z</time>
      </trkpt>
      <trkpt lat="48.15478" lon="3.33472">
        <ele>172.8</ele>
        <time>2024-05-15T10:56:16.000Z</time>
      </trkpt>
      <trkpt lat="48.15474" lon="3.33471">
        <ele>172.9</ele>
        <time>2024-05-15T10:56:15.000Z</time>
      </trkpt>
      <trkpt lat="48.1547" lon="3.33469">
        <ele>173.2</ele>
        <time>2024-05-15T10:56:14.000Z</time>
      </trkpt>
      <trkpt lat="48.15457" lon="3.33465">
        <ele>174.1</ele>
        <time>2024-05-15T10:56:11.000Z</time>
      </trkpt>
      <trkpt lat="48.15444" lon="3.3346">
        <ele>175</ele>
        <time>2024-05-15T10:56:08.000Z</time>
      </trkpt>
      <trkpt lat="48.15442" lon="3.33459">
        <ele>175.1</ele>
        <time>2024-05-15T10:56:07.000Z</time>
      </trkpt>
      <trkpt lat="48.15439" lon="3.33458">
        <ele>175.2</ele>
        <time>2024-05-15T10:56:06.000Z</time>
      </trkpt>
      <trkpt lat="48.15436" lon="3.33457">
        <ele>175.3</ele>
        <time>2024-05-15T10:56:05.000Z</time>
      </trkpt>
      <trkpt lat="48.15435" lon="3.33458">
        <ele>175.3</ele>
        <time>2024-05-15T10:56:04.000Z</time>
      </trkpt>
      <trkpt lat="48.15433" lon="3.33458">
        <ele>175.4</ele>
        <time>2024-05-15T10:56:03.000Z</time>
      </trkpt>
      <trkpt lat="48.15431" lon="3.3346">
        <ele>175.5</ele>
        <time>2024-05-15T10:56:02.000Z</time>
      </trkpt>
      <trkpt lat="48.15429" lon="3.33462">
        <ele>175.6</ele>
        <time>2024-05-15T10:56:01.000Z</time>
      </trkpt>
      <trkpt lat="48.15419" lon="3.3348">
        <ele>175.9</ele>
        <time>2024-05-15T10:55:56.000Z</time>
      </trkpt>
      <trkpt lat="48.15416" lon="3.33497">
        <ele>176</ele>
        <time>2024-05-15T10:55:51.000Z</time>
      </trkpt>
      <trkpt lat="48.15416" lon="3.335">
        <ele>176</ele>
        <time>2024-05-15T10:55:50.000Z</time>
      </trkpt>
      <trkpt lat="48.15413" lon="3.33509">
        <ele>176.1</ele>
        <time>2024-05-15T10:55:41.000Z</time>
      </trkpt>
      <trkpt lat="48.15413" lon="3.33509">
        <ele>176.1</ele>
        <time>2024-05-15T10:55:39.000Z</time>
      </trkpt>
      <trkpt lat="48.15412" lon="3.33511">
        <ele>176.1</ele>
        <time>2024-05-15T10:55:37.000Z</time>
      </trkpt>
      <trkpt lat="48.15411" lon="3.33514">
        <ele>176.1</ele>
        <time>2024-05-15T10:55:35.000Z</time>
      </trkpt>
      <trkpt lat="48.15411" lon="3.33516">
        <ele>176.1</ele>
        <time>2024-05-15T10:55:34.000Z</time>
      </trkpt>
      <trkpt lat="48.15411" lon="3.33517">
        <ele>176.1</ele>
        <time>2024-05-15T10:55:33.000Z</time>
      </trkpt>
      <trkpt lat="48.1541" lon="3.33521">
        <ele>176.1</ele>
        <time>2024-05-15T10:55:29.000Z</time>
      </trkpt>
      <trkpt lat="48.1541" lon="3.33521">
        <ele>176.1</ele>
        <time>2024-05-15T10:55:28.000Z</time>
      </trkpt>
      <trkpt lat="48.1541" lon="3.33521">
        <ele>176.1</ele>
        <time>2024-05-15T10:55:27.000Z</time>
      </trkpt>
      <trkpt lat="48.1541" lon="3.33522">
        <ele>176</ele>
        <time>2024-05-15T10:55:26.000Z</time>
      </trkpt>
      <trkpt lat="48.15409" lon="3.33524">
        <ele>176</ele>
        <time>2024-05-15T10:55:25.000Z</time>
      </trkpt>
      <trkpt lat="48.15408" lon="3.33527">
        <ele>176</ele>
        <time>2024-05-15T10:55:24.000Z</time>
      </trkpt>
      <trkpt lat="48.15408" lon="3.3353">
        <ele>176</ele>
        <time>2024-05-15T10:55:23.000Z</time>
      </trkpt>
      <trkpt lat="48.15406" lon="3.33532">
        <ele>176</ele>
        <time>2024-05-15T10:55:22.000Z</time>
      </trkpt>
      <trkpt lat="48.15405" lon="3.33535">
        <ele>176</ele>
        <time>2024-05-15T10:55:21.000Z</time>
      </trkpt>
      <trkpt lat="48.15397" lon="3.33544">
        <ele>176</ele>
        <time>2024-05-15T10:55:18.000Z</time>
      </trkpt>
      <trkpt lat="48.15391" lon="3.33552">
        <ele>176</ele>
        <time>2024-05-15T10:55:16.000Z</time>
      </trkpt>
      <trkpt lat="48.15388" lon="3.33556">
        <ele>176</ele>
        <time>2024-05-15T10:55:15.000Z</time>
      </trkpt>
      <trkpt lat="48.15386" lon="3.3356">
        <ele>176.1</ele>
        <time>2024-05-15T10:55:14.000Z</time>
      </trkpt>
      <trkpt lat="48.15382" lon="3.33568">
        <ele>176.1</ele>
        <time>2024-05-15T10:55:12.000Z</time>
      </trkpt>
      <trkpt lat="48.1537" lon="3.33596">
        <ele>175.9</ele>
        <time>2024-05-15T10:55:06.000Z</time>
      </trkpt>
      <trkpt lat="48.15363" lon="3.33607">
        <ele>175.9</ele>
        <time>2024-05-15T10:55:03.000Z</time>
      </trkpt>
      <trkpt lat="48.15362" lon="3.33611">
        <ele>176</ele>
        <time>2024-05-15T10:55:02.000Z</time>
      </trkpt>
      <trkpt lat="48.15359" lon="3.33614">
        <ele>176</ele>
        <time>2024-05-15T10:55:01.000Z</time>
      </trkpt>
      <trkpt lat="48.15357" lon="3.33619">
        <ele>176</ele>
        <time>2024-05-15T10:55:00.000Z</time>
      </trkpt>
      <trkpt lat="48.15354" lon="3.33631">
        <ele>176</ele>
        <time>2024-05-15T10:54:58.000Z</time>
      </trkpt>
      <trkpt lat="48.15354" lon="3.33634">
        <ele>176</ele>
        <time>2024-05-15T10:54:57.000Z</time>
      </trkpt>
      <trkpt lat="48.15352" lon="3.33638">
        <ele>176</ele>
        <time>2024-05-15T10:54:56.000Z</time>
      </trkpt>
      <trkpt lat="48.1535" lon="3.33639">
        <ele>176</ele>
        <time>2024-05-15T10:54:55.000Z</time>
      </trkpt>
      <trkpt lat="48.15349" lon="3.33638">
        <ele>176</ele>
        <time>2024-05-15T10:54:54.000Z</time>
      </trkpt>
      <trkpt lat="48.15347" lon="3.33639">
        <ele>176</ele>
        <time>2024-05-15T10:54:53.000Z</time>
      </trkpt>
      <trkpt lat="48.15345" lon="3.3364">
        <ele>176</ele>
        <time>2024-05-15T10:54:52.000Z</time>
      </trkpt>
      <trkpt lat="48.15344" lon="3.33644">
        <ele>175.9</ele>
        <time>2024-05-15T10:54:51.000Z</time>
      </trkpt>
      <trkpt lat="48.15339" lon="3.33652">
        <ele>175.9</ele>
        <time>2024-05-15T10:54:49.000Z</time>
      </trkpt>
      <trkpt lat="48.15333" lon="3.33661">
        <ele>176</ele>
        <time>2024-05-15T10:54:47.000Z</time>
      </trkpt>
      <trkpt lat="48.15331" lon="3.33666">
        <ele>176</ele>
        <time>2024-05-15T10:54:46.000Z</time>
      </trkpt>
      <trkpt lat="48.15329" lon="3.3367">
        <ele>175.9</ele>
        <time>2024-05-15T10:54:45.000Z</time>
      </trkpt>
      <trkpt lat="48.15327" lon="3.33675">
        <ele>175.7</ele>
        <time>2024-05-15T10:54:44.000Z</time>
      </trkpt>
      <trkpt lat="48.15321" lon="3.3369">
        <ele>175.2</ele>
        <time>2024-05-15T10:54:41.000Z</time>
      </trkpt>
      <trkpt lat="48.15311" lon="3.33715">
        <ele>174.1</ele>
        <time>2024-05-15T10:54:36.000Z</time>
      </trkpt>
      <trkpt lat="48.1531" lon="3.33718">
        <ele>174</ele>
        <time>2024-05-15T10:54:35.000Z</time>
      </trkpt>
      <trkpt lat="48.15309" lon="3.33724">
        <ele>173.8</ele>
        <time>2024-05-15T10:54:33.000Z</time>
      </trkpt>
      <trkpt lat="48.15308" lon="3.33726">
        <ele>173.8</ele>
        <time>2024-05-15T10:54:32.000Z</time>
      </trkpt>
      <trkpt lat="48.15307" lon="3.33728">
        <ele>173.8</ele>
        <time>2024-05-15T10:54:31.000Z</time>
      </trkpt>
      <trkpt lat="48.15306" lon="3.33731">
        <ele>173.7</ele>
        <time>2024-05-15T10:54:30.000Z</time>
      </trkpt>
      <trkpt lat="48.15305" lon="3.33732">
        <ele>173.6</ele>
        <time>2024-05-15T10:54:29.000Z</time>
      </trkpt>
      <trkpt lat="48.15303" lon="3.33735">
        <ele>173.5</ele>
        <time>2024-05-15T10:54:23.000Z</time>
      </trkpt>
      <trkpt lat="48.15303" lon="3.33735">
        <ele>173.5</ele>
        <time>2024-05-15T10:54:12.000Z</time>
      </trkpt>
      <trkpt lat="48.15303" lon="3.33735">
        <ele>173.5</ele>
        <time>2024-05-15T10:54:09.000Z</time>
      </trkpt>
      <trkpt lat="48.15303" lon="3.33735">
        <ele>173.5</ele>
        <time>2024-05-15T10:53:53.000Z</time>
      </trkpt>
      <trkpt lat="48.15303" lon="3.33735">
        <ele>173.5</ele>
        <time>2024-05-15T10:53:42.000Z</time>
      </trkpt>
      <trkpt lat="48.15303" lon="3.33735">
        <ele>173.5</ele>
        <time>2024-05-15T10:53:33.000Z</time>
      </trkpt>
      <trkpt lat="48.15303" lon="3.33735">
        <ele>173.5</ele>
        <time>2024-05-15T10:53:21.000Z</time>
      </trkpt>
      <trkpt lat="48.15303" lon="3.33735">
        <ele>173.5</ele>
        <time>2024-05-15T10:53:19.000Z</time>
      </trkpt>
      <trkpt lat="48.15303" lon="3.33735">
        <ele>173.5</ele>
        <time>2024-05-15T10:53:13.000Z</time>
      </trkpt>
      <trkpt lat="48.15303" lon="3.33735">
        <ele>173.5</ele>
        <time>2024-05-15T10:53:11.000Z</time>
      </trkpt>
      <trkpt lat="48.15303" lon="3.33735">
        <ele>173.5</ele>
        <time>2024-05-15T10:53:10.000Z</time>
      </trkpt>
      <trkpt lat="48.15302" lon="3.33735">
        <ele>173.5</ele>
        <time>2024-05-15T10:53:09.000Z</time>
      </trkpt>
      <trkpt lat="48.15299" lon="3.33733">
        <ele>173.6</ele>
        <time>2024-05-15T10:53:08.000Z</time>
      </trkpt>
      <trkpt lat="48.15294" lon="3.33729">
        <ele>173.8</ele>
        <time>2024-05-15T10:53:06.000Z</time>
      </trkpt>
      <trkpt lat="48.15291" lon="3.33726">
        <ele>173.9</ele>
        <time>2024-05-15T10:53:05.000Z</time>
      </trkpt>
      <trkpt lat="48.15288" lon="3.33722">
        <ele>174</ele>
        <time>2024-05-15T10:53:04.000Z</time>
      </trkpt>
      <trkpt lat="48.15272" lon="3.337">
        <ele>174.8</ele>
        <time>2024-05-15T10:52:59.000Z</time>
      </trkpt>
      <trkpt lat="48.15265" lon="3.33689">
        <ele>175.2</ele>
        <time>2024-05-15T10:52:57.000Z</time>
      </trkpt>
      <trkpt lat="48.15262" lon="3.33684">
        <ele>175.4</ele>
        <time>2024-05-15T10:52:56.000Z</time>
      </trkpt>
      <trkpt lat="48.15256" lon="3.33678">
        <ele>175.6</ele>
        <time>2024-05-15T10:52:54.000Z</time>
      </trkpt>
      <trkpt lat="48.15253" lon="3.33675">
        <ele>175.7</ele>
        <time>2024-05-15T10:52:53.000Z</time>
      </trkpt>
      <trkpt lat="48.15246" lon="3.33667">
        <ele>175.8</ele>
        <time>2024-05-15T10:52:51.000Z</time>
      </trkpt>
      <trkpt lat="48.15244" lon="3.33664">
        <ele>175.8</ele>
        <time>2024-05-15T10:52:50.000Z</time>
      </trkpt>
      <trkpt lat="48.15243" lon="3.33662">
        <ele>175.8</ele>
        <time>2024-05-15T10:52:49.000Z</time>
      </trkpt>
      <trkpt lat="48.15241" lon="3.33658">
        <ele>175.8</ele>
        <time>2024-05-15T10:52:48.000Z</time>
      </trkpt>
      <trkpt lat="48.15239" lon="3.33654">
        <ele>175.8</ele>
        <time>2024-05-15T10:52:47.000Z</time>
      </trkpt>
      <trkpt lat="48.15236" lon="3.33651">
        <ele>175.8</ele>
        <time>2024-05-15T10:52:46.000Z</time>
      </trkpt>
      <trkpt lat="48.15234" lon="3.33648">
        <ele>175.8</ele>
        <time>2024-05-15T10:52:45.000Z</time>
      </trkpt>
      <trkpt lat="48.15231" lon="3.33643">
        <ele>175.9</ele>
        <time>2024-05-15T10:52:44.000Z</time>
      </trkpt>
      <trkpt lat="48.15228" lon="3.33638">
        <ele>176</ele>
        <time>2024-05-15T10:52:43.000Z</time>
      </trkpt>
      <trkpt lat="48.15221" lon="3.33626">
        <ele>176</ele>
        <time>2024-05-15T10:52:41.000Z</time>
      </trkpt>
      <trkpt lat="48.15217" lon="3.33617">
        <ele>176</ele>
        <time>2024-05-15T10:52:39.000Z</time>
      </trkpt>
      <trkpt lat="48.15203" lon="3.33596">
        <ele>176.5</ele>
        <time>2024-05-15T10:52:34.000Z</time>
      </trkpt>
      <trkpt lat="48.15189" lon="3.33571">
        <ele>176.8</ele>
        <time>2024-05-15T10:52:27.000Z</time>
      </trkpt>
      <trkpt lat="48.15184" lon="3.33564">
        <ele>176.6</ele>
        <time>2024-05-15T10:52:25.000Z</time>
      </trkpt>
      <trkpt lat="48.15182" lon="3.33562">
        <ele>176.6</ele>
        <time>2024-05-15T10:52:24.000Z</time>
      </trkpt>
      <trkpt lat="48.15177" lon="3.33555">
        <ele>176.4</ele>
        <time>2024-05-15T10:52:21.000Z</time>
      </trkpt>
      <trkpt lat="48.15173" lon="3.33548">
        <ele>176.4</ele>
        <time>2024-05-15T10:52:19.000Z</time>
      </trkpt>
      <trkpt lat="48.15172" lon="3.33546">
        <ele>176.5</ele>
        <time>2024-05-15T10:52:18.000Z</time>
      </trkpt>
      <trkpt lat="48.1517" lon="3.33543">
        <ele>176.5</ele>
        <time>2024-05-15T10:52:17.000Z</time>
      </trkpt>
      <trkpt lat="48.15168" lon="3.33538">
        <ele>176.6</ele>
        <time>2024-05-15T10:52:16.000Z</time>
      </trkpt>
      <trkpt lat="48.15166" lon="3.33534">
        <ele>176.8</ele>
        <time>2024-05-15T10:52:15.000Z</time>
      </trkpt>
      <trkpt lat="48.15164" lon="3.33531">
        <ele>176.8</ele>
        <time>2024-05-15T10:52:14.000Z</time>
      </trkpt>
      <trkpt lat="48.15158" lon="3.33515">
        <ele>176.8</ele>
        <time>2024-05-15T10:52:11.000Z</time>
      </trkpt>
      <trkpt lat="48.15154" lon="3.33512">
        <ele>176.8</ele>
        <time>2024-05-15T10:52:10.000Z</time>
      </trkpt>
      <trkpt lat="48.15151" lon="3.33507">
        <ele>176.9</ele>
        <time>2024-05-15T10:52:09.000Z</time>
      </trkpt>
      <trkpt lat="48.15149" lon="3.33503">
        <ele>176.9</ele>
        <time>2024-05-15T10:52:08.000Z</time>
      </trkpt>
      <trkpt lat="48.15145" lon="3.33497">
        <ele>177</ele>
        <time>2024-05-15T10:52:07.000Z</time>
      </trkpt>
      <trkpt lat="48.15139" lon="3.33487">
        <ele>177</ele>
        <time>2024-05-15T10:52:05.000Z</time>
      </trkpt>
      <trkpt lat="48.15137" lon="3.33482">
        <ele>177</ele>
        <time>2024-05-15T10:52:04.000Z</time>
      </trkpt>
      <trkpt lat="48.15134" lon="3.33472">
        <ele>177</ele>
        <time>2024-05-15T10:52:02.000Z</time>
      </trkpt>
      <trkpt lat="48.15121" lon="3.33453">
        <ele>177</ele>
        <time>2024-05-15T10:51:59.000Z</time>
      </trkpt>
      <trkpt lat="48.15105" lon="3.3342">
        <ele>177</ele>
        <time>2024-05-15T10:51:53.000Z</time>
      </trkpt>
      <trkpt lat="48.15099" lon="3.33398">
        <ele>177</ele>
        <time>2024-05-15T10:51:48.000Z</time>
      </trkpt>
      <trkpt lat="48.15093" lon="3.33386">
        <ele>177</ele>
        <time>2024-05-15T10:51:45.000Z</time>
      </trkpt>
      <trkpt lat="48.15092" lon="3.33383">
        <ele>177</ele>
        <time>2024-05-15T10:51:44.000Z</time>
      </trkpt>
      <trkpt lat="48.15092" lon="3.33379">
        <ele>177</ele>
        <time>2024-05-15T10:51:43.000Z</time>
      </trkpt>
      <trkpt lat="48.15091" lon="3.33377">
        <ele>177</ele>
        <time>2024-05-15T10:51:42.000Z</time>
      </trkpt>
      <trkpt lat="48.1509" lon="3.33373">
        <ele>177</ele>
        <time>2024-05-15T10:51:41.000Z</time>
      </trkpt>
      <trkpt lat="48.1509" lon="3.33369">
        <ele>177</ele>
        <time>2024-05-15T10:51:40.000Z</time>
      </trkpt>
      <trkpt lat="48.1509" lon="3.33366">
        <ele>177</ele>
        <time>2024-05-15T10:51:39.000Z</time>
      </trkpt>
      <trkpt lat="48.15091" lon="3.33363">
        <ele>177</ele>
        <time>2024-05-15T10:51:38.000Z</time>
      </trkpt>
      <trkpt lat="48.15092" lon="3.3336">
        <ele>177</ele>
        <time>2024-05-15T10:51:37.000Z</time>
      </trkpt>
      <trkpt lat="48.151" lon="3.33354">
        <ele>177</ele>
        <time>2024-05-15T10:51:34.000Z</time>
      </trkpt>
      <trkpt lat="48.15103" lon="3.33352">
        <ele>177</ele>
        <time>2024-05-15T10:51:33.000Z</time>
      </trkpt>
      <trkpt lat="48.15105" lon="3.33349">
        <ele>177</ele>
        <time>2024-05-15T10:51:32.000Z</time>
      </trkpt>
      <trkpt lat="48.15107" lon="3.33347">
        <ele>177</ele>
        <time>2024-05-15T10:51:31.000Z</time>
      </trkpt>
      <trkpt lat="48.15109" lon="3.33346">
        <ele>177</ele>
        <time>2024-05-15T10:51:30.000Z</time>
      </trkpt>
      <trkpt lat="48.15111" lon="3.33344">
        <ele>177</ele>
        <time>2024-05-15T10:51:29.000Z</time>
      </trkpt>
      <trkpt lat="48.15112" lon="3.3334">
        <ele>177</ele>
        <time>2024-05-15T10:51:27.000Z</time>
      </trkpt>
      <trkpt lat="48.15112" lon="3.33338">
        <ele>177</ele>
        <time>2024-05-15T10:51:15.000Z</time>
      </trkpt>
      <trkpt lat="48.15112" lon="3.33338">
        <ele>177</ele>
        <time>2024-05-15T10:50:49.000Z</time>
      </trkpt>
      <trkpt lat="48.15112" lon="3.33338">
        <ele>177</ele>
        <time>2024-05-15T10:50:48.000Z</time>
      </trkpt>
      <trkpt lat="48.15112" lon="3.33338">
        <ele>177</ele>
        <time>2024-05-15T10:50:44.000Z</time>
      </trkpt>
      <trkpt lat="48.15112" lon="3.33337">
        <ele>177</ele>
        <time>2024-05-15T10:50:43.000Z</time>
      </trkpt>
      <trkpt lat="48.15111" lon="3.33335">
        <ele>177</ele>
        <time>2024-05-15T10:50:42.000Z</time>
      </trkpt>
      <trkpt lat="48.15111" lon="3.33332">
        <ele>177</ele>
        <time>2024-05-15T10:50:41.000Z</time>
      </trkpt>
      <trkpt lat="48.15111" lon="3.3333">
        <ele>177</ele>
        <time>2024-05-15T10:50:40.000Z</time>
      </trkpt>
      <trkpt lat="48.15111" lon="3.33326">
        <ele>177</ele>
        <time>2024-05-15T10:50:39.000Z</time>
      </trkpt>
      <trkpt lat="48.15111" lon="3.33322">
        <ele>177</ele>
        <time>2024-05-15T10:50:38.000Z</time>
      </trkpt>
      <trkpt lat="48.15112" lon="3.33319">
        <ele>177</ele>
        <time>2024-05-15T10:50:37.000Z</time>
      </trkpt>
      <trkpt lat="48.15112" lon="3.33315">
        <ele>177</ele>
        <time>2024-05-15T10:50:36.000Z</time>
      </trkpt>
      <trkpt lat="48.15113" lon="3.33311">
        <ele>177</ele>
        <time>2024-05-15T10:50:35.000Z</time>
      </trkpt>
      <trkpt lat="48.15114" lon="3.33306">
        <ele>177</ele>
        <time>2024-05-15T10:50:34.000Z</time>
      </trkpt>
      <trkpt lat="48.15115" lon="3.33302">
        <ele>176.9</ele>
        <time>2024-05-15T10:50:33.000Z</time>
      </trkpt>
      <trkpt lat="48.15117" lon="3.33299">
        <ele>176.8</ele>
        <time>2024-05-15T10:50:32.000Z</time>
      </trkpt>
      <trkpt lat="48.1512" lon="3.33295">
        <ele>176.7</ele>
        <time>2024-05-15T10:50:31.000Z</time>
      </trkpt>
      <trkpt lat="48.15122" lon="3.33292">
        <ele>176.7</ele>
        <time>2024-05-15T10:50:30.000Z</time>
      </trkpt>
      <trkpt lat="48.15122" lon="3.33288">
        <ele>176.6</ele>
        <time>2024-05-15T10:50:29.000Z</time>
      </trkpt>
      <trkpt lat="48.15122" lon="3.33284">
        <ele>176.5</ele>
        <time>2024-05-15T10:50:28.000Z</time>
      </trkpt>
      <trkpt lat="48.15122" lon="3.3328">
        <ele>176.4</ele>
        <time>2024-05-15T10:50:27.000Z</time>
      </trkpt>
      <trkpt lat="48.1512" lon="3.33275">
        <ele>176.3</ele>
        <time>2024-05-15T10:50:26.000Z</time>
      </trkpt>
      <trkpt lat="48.15119" lon="3.33269">
        <ele>176.2</ele>
        <time>2024-05-15T10:50:25.000Z</time>
      </trkpt>
      <trkpt lat="48.15119" lon="3.33267">
        <ele>176.2</ele>
        <time>2024-05-15T10:50:24.000Z</time>
      </trkpt>
      <trkpt lat="48.1512" lon="3.33262">
        <ele>176.1</ele>
        <time>2024-05-15T10:50:23.000Z</time>
      </trkpt>
      <trkpt lat="48.15119" lon="3.33256">
        <ele>176.1</ele>
        <time>2024-05-15T10:50:22.000Z</time>
      </trkpt>
      <trkpt lat="48.15119" lon="3.3325">
        <ele>176</ele>
        <time>2024-05-15T10:50:21.000Z</time>
      </trkpt>
      <trkpt lat="48.15117" lon="3.33243">
        <ele>175.8</ele>
        <time>2024-05-15T10:50:20.000Z</time>
      </trkpt>
      <trkpt lat="48.15114" lon="3.33236">
        <ele>175.5</ele>
        <time>2024-05-15T10:50:19.000Z</time>
      </trkpt>
      <trkpt lat="48.15115" lon="3.33234">
        <ele>175.5</ele>
        <time>2024-05-15T10:50:18.000Z</time>
      </trkpt>
      <trkpt lat="48.15117" lon="3.33227">
        <ele>175.3</ele>
        <time>2024-05-15T10:50:16.000Z</time>
      </trkpt>
      <trkpt lat="48.15118" lon="3.33223">
        <ele>175.3</ele>
        <time>2024-05-15T10:50:15.000Z</time>
      </trkpt>
      <trkpt lat="48.15119" lon="3.33219">
        <ele>175.2</ele>
        <time>2024-05-15T10:50:14.000Z</time>
      </trkpt>
      <trkpt lat="48.15118" lon="3.33215">
        <ele>175</ele>
        <time>2024-05-15T10:50:13.000Z</time>
      </trkpt>
      <trkpt lat="48.1511" lon="3.33189">
        <ele>173.6</ele>
        <time>2024-05-15T10:50:08.000Z</time>
      </trkpt>
      <trkpt lat="48.15108" lon="3.33186">
        <ele>173.3</ele>
        <time>2024-05-15T10:50:07.000Z</time>
      </trkpt>
      <trkpt lat="48.15107" lon="3.33183">
        <ele>173</ele>
        <time>2024-05-15T10:50:06.000Z</time>
      </trkpt>
      <trkpt lat="48.15107" lon="3.3318">
        <ele>172.8</ele>
        <time>2024-05-15T10:50:05.000Z</time>
      </trkpt>
      <trkpt lat="48.15109" lon="3.33177">
        <ele>172.7</ele>
        <time>2024-05-15T10:50:04.000Z</time>
      </trkpt>
      <trkpt lat="48.1511" lon="3.33173">
        <ele>172.4</ele>
        <time>2024-05-15T10:50:03.000Z</time>
      </trkpt>
      <trkpt lat="48.1511" lon="3.33168">
        <ele>172.1</ele>
        <time>2024-05-15T10:50:02.000Z</time>
      </trkpt>
      <trkpt lat="48.1511" lon="3.33164">
        <ele>171.7</ele>
        <time>2024-05-15T10:50:01.000Z</time>
      </trkpt>
      <trkpt lat="48.1511" lon="3.33161">
        <ele>171.4</ele>
        <time>2024-05-15T10:50:00.000Z</time>
      </trkpt>
      <trkpt lat="48.1511" lon="3.33157">
        <ele>170.9</ele>
        <time>2024-05-15T10:49:59.000Z</time>
      </trkpt>
      <trkpt lat="48.15111" lon="3.33155">
        <ele>170.7</ele>
        <time>2024-05-15T10:49:58.000Z</time>
      </trkpt>
      <trkpt lat="48.15112" lon="3.33152">
        <ele>170.5</ele>
        <time>2024-05-15T10:49:57.000Z</time>
      </trkpt>
      <trkpt lat="48.1511" lon="3.33149">
        <ele>170.1</ele>
        <time>2024-05-15T10:49:56.000Z</time>
      </trkpt>
      <trkpt lat="48.1511" lon="3.33146">
        <ele>169.8</ele>
        <time>2024-05-15T10:49:55.000Z</time>
      </trkpt>
      <trkpt lat="48.15109" lon="3.33143">
        <ele>169.4</ele>
        <time>2024-05-15T10:49:54.000Z</time>
      </trkpt>
      <trkpt lat="48.15107" lon="3.33138">
        <ele>168.9</ele>
        <time>2024-05-15T10:49:53.000Z</time>
      </trkpt>
      <trkpt lat="48.15106" lon="3.33135">
        <ele>168.7</ele>
        <time>2024-05-15T10:49:52.000Z</time>
      </trkpt>
      <trkpt lat="48.15105" lon="3.33132">
        <ele>168.4</ele>
        <time>2024-05-15T10:49:51.000Z</time>
      </trkpt>
      <trkpt lat="48.15104" lon="3.33131">
        <ele>168.4</ele>
        <time>2024-05-15T10:49:50.000Z</time>
      </trkpt>
      <trkpt lat="48.15104" lon="3.33132">
        <ele>168.4</ele>
        <time>2024-05-15T10:49:49.000Z</time>
      </trkpt>
      <trkpt lat="48.15104" lon="3.33131">
        <ele>168.4</ele>
        <time>2024-05-15T10:49:48.000Z</time>
      </trkpt>
      <trkpt lat="48.15103" lon="3.33128">
        <ele>168.1</ele>
        <time>2024-05-15T10:49:47.000Z</time>
      </trkpt>
      <trkpt lat="48.15101" lon="3.33128">
        <ele>168.1</ele>
        <time>2024-05-15T10:49:46.000Z</time>
      </trkpt>
      <trkpt lat="48.151" lon="3.33129">
        <ele>168.1</ele>
        <time>2024-05-15T10:49:45.000Z</time>
      </trkpt>
      <trkpt lat="48.15098" lon="3.3313">
        <ele>168.2</ele>
        <time>2024-05-15T10:49:44.000Z</time>
      </trkpt>
      <trkpt lat="48.15096" lon="3.33125">
        <ele>167.8</ele>
        <time>2024-05-15T10:47:32.000Z</time>
      </trkpt>
      <trkpt lat="48.15097" lon="3.33118">
        <ele>167.1</ele>
        <time>2024-05-15T10:47:31.000Z</time>
      </trkpt>
      <trkpt lat="48.151" lon="3.33113">
        <ele>166.8</ele>
        <time>2024-05-15T10:47:29.000Z</time>
      </trkpt>
      <trkpt lat="48.15101" lon="3.33111">
        <ele>166.6</ele>
        <time>2024-05-15T10:47:28.000Z</time>
      </trkpt>
      <trkpt lat="48.15103" lon="3.33111">
        <ele>166.7</ele>
        <time>2024-05-15T10:47:27.000Z</time>
      </trkpt>
      <trkpt lat="48.15105" lon="3.3311">
        <ele>166.7</ele>
        <time>2024-05-15T10:47:26.000Z</time>
      </trkpt>
      <trkpt lat="48.15106" lon="3.33109">
        <ele>166.6</ele>
        <time>2024-05-15T10:47:25.000Z</time>
      </trkpt>
      <trkpt lat="48.15111" lon="3.331">
        <ele>165.8</ele>
        <time>2024-05-15T10:47:19.000Z</time>
      </trkpt>
      <trkpt lat="48.15112" lon="3.331">
        <ele>165.9</ele>
        <time>2024-05-15T10:47:18.000Z</time>
      </trkpt>
      <trkpt lat="48.15114" lon="3.33101">
        <ele>166.1</ele>
        <time>2024-05-15T10:47:15.000Z</time>
      </trkpt>
      <trkpt lat="48.15115" lon="3.331">
        <ele>166.1</ele>
        <time>2024-05-15T10:47:11.000Z</time>
      </trkpt>
      <trkpt lat="48.15115" lon="3.331">
        <ele>166.1</ele>
        <time>2024-05-15T10:46:55.000Z</time>
      </trkpt>
      <trkpt lat="48.15115" lon="3.33101">
        <ele>166.2</ele>
        <time>2024-05-15T10:46:45.000Z</time>
      </trkpt>
      <trkpt lat="48.15116" lon="3.33102">
        <ele>166.4</ele>
        <time>2024-05-15T10:46:32.000Z</time>
      </trkpt>
      <trkpt lat="48.15117" lon="3.33102">
        <ele>166.4</ele>
        <time>2024-05-15T10:46:23.000Z</time>
      </trkpt>
      <trkpt lat="48.15117" lon="3.33102">
        <ele>166.4</ele>
        <time>2024-05-15T10:46:11.000Z</time>
      </trkpt>
      <trkpt lat="48.15117" lon="3.33102">
        <ele>166.4</ele>
        <time>2024-05-15T10:45:56.000Z</time>
      </trkpt>
      <trkpt lat="48.15117" lon="3.33102">
        <ele>166.4</ele>
        <time>2024-05-15T10:45:55.000Z</time>
      </trkpt>
      <trkpt lat="48.15117" lon="3.33102">
        <ele>166.4</ele>
        <time>2024-05-15T10:45:44.000Z</time>
      </trkpt>
      <trkpt lat="48.15117" lon="3.33102">
        <ele>166.4</ele>
        <time>2024-05-15T10:45:28.000Z</time>
      </trkpt>
      <trkpt lat="48.15117" lon="3.33102">
        <ele>166.4</ele>
        <time>2024-05-15T10:45:11.000Z</time>
      </trkpt>
      <trkpt lat="48.15117" lon="3.33102">
        <ele>166.4</ele>
        <time>2024-05-15T10:44:55.000Z</time>
      </trkpt>
      <trkpt lat="48.15117" lon="3.33102">
        <ele>166.4</ele>
        <time>2024-05-15T10:44:39.000Z</time>
      </trkpt>
      <trkpt lat="48.15117" lon="3.33102">
        <ele>166.4</ele>
        <time>2024-05-15T10:44:38.000Z</time>
      </trkpt>
      <trkpt lat="48.15117" lon="3.33102">
        <ele>166.4</ele>
        <time>2024-05-15T10:44:19.000Z</time>
      </trkpt>
      <trkpt lat="48.15117" lon="3.33102">
        <ele>166.4</ele>
        <time>2024-05-15T10:44:09.000Z</time>
      </trkpt>
      <trkpt lat="48.15117" lon="3.33102">
        <ele>166.4</ele>
        <time>2024-05-15T10:43:55.000Z</time>
      </trkpt>
      <trkpt lat="48.15117" lon="3.33102">
        <ele>166.4</ele>
        <time>2024-05-15T10:43:52.000Z</time>
      </trkpt>
      <trkpt lat="48.15117" lon="3.33103">
        <ele>166.5</ele>
        <time>2024-05-15T10:43:50.000Z</time>
      </trkpt>
      <trkpt lat="48.15117" lon="3.33102">
        <ele>166.4</ele>
        <time>2024-05-15T10:43:49.000Z</time>
      </trkpt>
      <trkpt lat="48.15118" lon="3.33102">
        <ele>166.5</ele>
        <time>2024-05-15T10:43:48.000Z</time>
      </trkpt>
      <trkpt lat="48.15118" lon="3.33101">
        <ele>166.4</ele>
        <time>2024-05-15T10:43:47.000Z</time>
      </trkpt>
      <trkpt lat="48.15119" lon="3.331">
        <ele>166.4</ele>
        <time>2024-05-15T10:43:46.000Z</time>
      </trkpt>
      <trkpt lat="48.15119" lon="3.33099">
        <ele>166.3</ele>
        <time>2024-05-15T10:43:45.000Z</time>
      </trkpt>
      <trkpt lat="48.1512" lon="3.33098">
        <ele>166.2</ele>
        <time>2024-05-15T10:43:44.000Z</time>
      </trkpt>
      <trkpt lat="48.15121" lon="3.33097">
        <ele>166.2</ele>
        <time>2024-05-15T10:43:43.000Z</time>
      </trkpt>
      <trkpt lat="48.15124" lon="3.33096">
        <ele>166.3</ele>
        <time>2024-05-15T10:43:42.000Z</time>
      </trkpt>
      <trkpt lat="48.15127" lon="3.33095">
        <ele>166.4</ele>
        <time>2024-05-15T10:43:41.000Z</time>
      </trkpt>
      <trkpt lat="48.15127" lon="3.33094">
        <ele>166.3</ele>
        <time>2024-05-15T10:43:40.000Z</time>
      </trkpt>
      <trkpt lat="48.15128" lon="3.33093">
        <ele>166.3</ele>
        <time>2024-05-15T10:43:39.000Z</time>
      </trkpt>
      <trkpt lat="48.15133" lon="3.33084">
        <ele>165.6</ele>
        <time>2024-05-15T10:43:35.000Z</time>
      </trkpt>
      <trkpt lat="48.15134" lon="3.33075">
        <ele>164.7</ele>
        <time>2024-05-15T10:43:33.000Z</time>
      </trkpt>
      <trkpt lat="48.15136" lon="3.3307">
        <ele>164.4</ele>
        <time>2024-05-15T10:43:32.000Z</time>
      </trkpt>
      <trkpt lat="48.15136" lon="3.33065">
        <ele>163.8</ele>
        <time>2024-05-15T10:43:31.000Z</time>
      </trkpt>
      <trkpt lat="48.15137" lon="3.33063">
        <ele>163.7</ele>
        <time>2024-05-15T10:43:30.000Z</time>
      </trkpt>
      <trkpt lat="48.1514" lon="3.33058">
        <ele>163.4</ele>
        <time>2024-05-15T10:43:28.000Z</time>
      </trkpt>
      <trkpt lat="48.15142" lon="3.33056">
        <ele>163.4</ele>
        <time>2024-05-15T10:43:27.000Z</time>
      </trkpt>
      <trkpt lat="48.15145" lon="3.33051">
        <ele>163.2</ele>
        <time>2024-05-15T10:43:25.000Z</time>
      </trkpt>
      <trkpt lat="48.15146" lon="3.33049">
        <ele>163.2</ele>
        <time>2024-05-15T10:43:24.000Z</time>
      </trkpt>
      <trkpt lat="48.15147" lon="3.33047">
        <ele>163.1</ele>
        <time>2024-05-15T10:43:23.000Z</time>
      </trkpt>
      <trkpt lat="48.15147" lon="3.33045">
        <ele>163</ele>
        <time>2024-05-15T10:43:22.000Z</time>
      </trkpt>
      <trkpt lat="48.15148" lon="3.33044">
        <ele>163</ele>
        <time>2024-05-15T10:43:21.000Z</time>
      </trkpt>
      <trkpt lat="48.15149" lon="3.3304">
        <ele>162.8</ele>
        <time>2024-05-15T10:43:19.000Z</time>
      </trkpt>
      <trkpt lat="48.15149" lon="3.33037">
        <ele>162.6</ele>
        <time>2024-05-15T10:43:18.000Z</time>
      </trkpt>
      <trkpt lat="48.1515" lon="3.33033">
        <ele>162.4</ele>
        <time>2024-05-15T10:43:16.000Z</time>
      </trkpt>
      <trkpt lat="48.15149" lon="3.33031">
        <ele>162.1</ele>
        <time>2024-05-15T10:43:06.000Z</time>
      </trkpt>
      <trkpt lat="48.15149" lon="3.33031">
        <ele>162.1</ele>
        <time>2024-05-15T10:42:55.000Z</time>
      </trkpt>
      <trkpt lat="48.1515" lon="3.33031">
        <ele>162.3</ele>
        <time>2024-05-15T10:42:48.000Z</time>
      </trkpt>
      <trkpt lat="48.1515" lon="3.33029">
        <ele>162.1</ele>
        <time>2024-05-15T10:42:47.000Z</time>
      </trkpt>
      <trkpt lat="48.1515" lon="3.33028">
        <ele>162</ele>
        <time>2024-05-15T10:42:46.000Z</time>
      </trkpt>
      <trkpt lat="48.1515" lon="3.33028">
        <ele>162</ele>
        <time>2024-05-15T10:42:45.000Z</time>
      </trkpt>
      <trkpt lat="48.1515" lon="3.33027">
        <ele>161.9</ele>
        <time>2024-05-15T10:42:44.000Z</time>
      </trkpt>
      <trkpt lat="48.1515" lon="3.33026">
        <ele>161.9</ele>
        <time>2024-05-15T10:42:41.000Z</time>
      </trkpt>
      <trkpt lat="48.1515" lon="3.33026">
        <ele>161.9</ele>
        <time>2024-05-15T10:42:40.000Z</time>
      </trkpt>
      <trkpt lat="48.1515" lon="3.33026">
        <ele>161.9</ele>
        <time>2024-05-15T10:42:37.000Z</time>
      </trkpt>
      <trkpt lat="48.1515" lon="3.33026">
        <ele>161.9</ele>
        <time>2024-05-15T10:42:35.000Z</time>
      </trkpt>
      <trkpt lat="48.1515" lon="3.33026">
        <ele>161.9</ele>
        <time>2024-05-15T10:42:33.000Z</time>
      </trkpt>
      <trkpt lat="48.1515" lon="3.33025">
        <ele>161.8</ele>
        <time>2024-05-15T10:42:32.000Z</time>
      </trkpt>
      <trkpt lat="48.1515" lon="3.33025">
        <ele>161.8</ele>
        <time>2024-05-15T10:42:31.000Z</time>
      </trkpt>
      <trkpt lat="48.1515" lon="3.33024">
        <ele>161.7</ele>
        <time>2024-05-15T10:42:30.000Z</time>
      </trkpt>
      <trkpt lat="48.15149" lon="3.33023">
        <ele>161.5</ele>
        <time>2024-05-15T10:42:29.000Z</time>
      </trkpt>
      <trkpt lat="48.15148" lon="3.33021">
        <ele>161.2</ele>
        <time>2024-05-15T10:42:28.000Z</time>
      </trkpt>
      <trkpt lat="48.15148" lon="3.33021">
        <ele>161.2</ele>
        <time>2024-05-15T10:42:27.000Z</time>
      </trkpt>
      <trkpt lat="48.15148" lon="3.33021">
        <ele>161.2</ele>
        <time>2024-05-15T10:42:26.000Z</time>
      </trkpt>
      <trkpt lat="48.15147" lon="3.3302">
        <ele>160.9</ele>
        <time>2024-05-15T10:42:25.000Z</time>
      </trkpt>
      <trkpt lat="48.15147" lon="3.33019">
        <ele>160.8</ele>
        <time>2024-05-15T10:42:24.000Z</time>
      </trkpt>
      <trkpt lat="48.15147" lon="3.33019">
        <ele>160.8</ele>
        <time>2024-05-15T10:42:23.000Z</time>
      </trkpt>
      <trkpt lat="48.15146" lon="3.33019">
        <ele>160.6</ele>
        <time>2024-05-15T10:42:22.000Z</time>
      </trkpt>
      <trkpt lat="48.15146" lon="3.33018">
        <ele>160.6</ele>
        <time>2024-05-15T10:42:21.000Z</time>
      </trkpt>
      <trkpt lat="48.15146" lon="3.33018">
        <ele>160.6</ele>
        <time>2024-05-15T10:42:20.000Z</time>
      </trkpt>
      <trkpt lat="48.15146" lon="3.33018">
        <ele>160.6</ele>
        <time>2024-05-15T10:42:19.000Z</time>
      </trkpt>
      <trkpt lat="48.15145" lon="3.33017">
        <ele>160.3</ele>
        <time>2024-05-15T10:42:18.000Z</time>
      </trkpt>
      <trkpt lat="48.15145" lon="3.33015">
        <ele>160.2</ele>
        <time>2024-05-15T10:42:17.000Z</time>
      </trkpt>
      <trkpt lat="48.15144" lon="3.33013">
        <ele>159.9</ele>
        <time>2024-05-15T10:42:16.000Z</time>
      </trkpt>
      <trkpt lat="48.15143" lon="3.3301">
        <ele>159.5</ele>
        <time>2024-05-15T10:42:15.000Z</time>
      </trkpt>
      <trkpt lat="48.15141" lon="3.33007">
        <ele>158.9</ele>
        <time>2024-05-15T10:42:14.000Z</time>
      </trkpt>
      <trkpt lat="48.15141" lon="3.33005">
        <ele>158.7</ele>
        <time>2024-05-15T10:42:13.000Z</time>
      </trkpt>
      <trkpt lat="48.1514" lon="3.33005">
        <ele>158.6</ele>
        <time>2024-05-15T10:42:12.000Z</time>
      </trkpt>
      <trkpt lat="48.15139" lon="3.33003">
        <ele>158.2</ele>
        <time>2024-05-15T10:42:11.000Z</time>
      </trkpt>
      <trkpt lat="48.15139" lon="3.33002">
        <ele>158.2</ele>
        <time>2024-05-15T10:42:10.000Z</time>
      </trkpt>
      <trkpt lat="48.1514" lon="3.33001">
        <ele>158.3</ele>
        <time>2024-05-15T10:42:09.000Z</time>
      </trkpt>
      <trkpt lat="48.15139" lon="3.33">
        <ele>158</ele>
        <time>2024-05-15T10:42:08.000Z</time>
      </trkpt>
      <trkpt lat="48.15138" lon="3.32998">
        <ele>157.8</ele>
        <time>2024-05-15T10:42:07.000Z</time>
      </trkpt>
      <trkpt lat="48.15138" lon="3.32996">
        <ele>157.7</ele>
        <time>2024-05-15T10:42:06.000Z</time>
      </trkpt>
      <trkpt lat="48.15137" lon="3.32994">
        <ele>157.5</ele>
        <time>2024-05-15T10:42:05.000Z</time>
      </trkpt>
      <trkpt lat="48.15137" lon="3.32992">
        <ele>157.4</ele>
        <time>2024-05-15T10:42:04.000Z</time>
      </trkpt>
      <trkpt lat="48.15137" lon="3.32991">
        <ele>157.4</ele>
        <time>2024-05-15T10:42:03.000Z</time>
      </trkpt>
      <trkpt lat="48.15136" lon="3.32988">
        <ele>157.1</ele>
        <time>2024-05-15T10:42:02.000Z</time>
      </trkpt>
      <trkpt lat="48.15135" lon="3.32986">
        <ele>156.8</ele>
        <time>2024-05-15T10:42:01.000Z</time>
      </trkpt>
      <trkpt lat="48.15134" lon="3.32984">
        <ele>156.5</ele>
        <time>2024-05-15T10:42:00.000Z</time>
      </trkpt>
      <trkpt lat="48.15134" lon="3.32984">
        <ele>156.5</ele>
        <time>2024-05-15T10:41:59.000Z</time>
      </trkpt>
      <trkpt lat="48.15132" lon="3.32982">
        <ele>156</ele>
        <time>2024-05-15T10:41:58.000Z</time>
      </trkpt>
      <trkpt lat="48.15132" lon="3.32982">
        <ele>156</ele>
        <time>2024-05-15T10:41:57.000Z</time>
      </trkpt>
      <trkpt lat="48.15132" lon="3.32982">
        <ele>156</ele>
        <time>2024-05-15T10:41:55.000Z</time>
      </trkpt>
      <trkpt lat="48.15132" lon="3.32982">
        <ele>156</ele>
        <time>2024-05-15T10:41:54.000Z</time>
      </trkpt>
      <trkpt lat="48.15132" lon="3.32982">
        <ele>156</ele>
        <time>2024-05-15T10:41:53.000Z</time>
      </trkpt>
      <trkpt lat="48.15132" lon="3.32982">
        <ele>156</ele>
        <time>2024-05-15T10:41:52.000Z</time>
      </trkpt>
      <trkpt lat="48.15132" lon="3.32981">
        <ele>156</ele>
        <time>2024-05-15T10:41:51.000Z</time>
      </trkpt>
      <trkpt lat="48.15126" lon="3.32975">
        <ele>154.4</ele>
        <time>2024-05-15T10:41:45.000Z</time>
      </trkpt>
      <trkpt lat="48.15123" lon="3.32972">
        <ele>153.6</ele>
        <time>2024-05-15T10:41:38.000Z</time>
      </trkpt>
      <trkpt lat="48.15123" lon="3.32971">
        <ele>153.5</ele>
        <time>2024-05-15T10:41:37.000Z</time>
      </trkpt>
      <trkpt lat="48.15123" lon="3.32971">
        <ele>153.5</ele>
        <time>2024-05-15T10:41:36.000Z</time>
      </trkpt>
      <trkpt lat="48.15123" lon="3.32971">
        <ele>153.5</ele>
        <time>2024-05-15T10:41:35.000Z</time>
      </trkpt>
      <trkpt lat="48.15122" lon="3.3297">
        <ele>153.2</ele>
        <time>2024-05-15T10:41:34.000Z</time>
      </trkpt>
      <trkpt lat="48.15122" lon="3.32969">
        <ele>153.1</ele>
        <time>2024-05-15T10:41:33.000Z</time>
      </trkpt>
      <trkpt lat="48.15121" lon="3.32968">
        <ele>152.8</ele>
        <time>2024-05-15T10:41:32.000Z</time>
      </trkpt>
      <trkpt lat="48.1512" lon="3.32968">
        <ele>152.6</ele>
        <time>2024-05-15T10:41:30.000Z</time>
      </trkpt>
      <trkpt lat="48.1512" lon="3.32968">
        <ele>152.6</ele>
        <time>2024-05-15T10:41:28.000Z</time>
      </trkpt>
      <trkpt lat="48.1512" lon="3.32968">
        <ele>152.6</ele>
        <time>2024-05-15T10:41:23.000Z</time>
      </trkpt>
      <trkpt lat="48.1512" lon="3.32968">
        <ele>152.6</ele>
        <time>2024-05-15T10:41:19.000Z</time>
      </trkpt>
      <trkpt lat="48.1512" lon="3.32968">
        <ele>152.6</ele>
        <time>2024-05-15T10:41:17.000Z</time>
      </trkpt>
      <trkpt lat="48.1512" lon="3.32968">
        <ele>152.6</ele>
        <time>2024-05-15T10:41:15.000Z</time>
      </trkpt>
      <trkpt lat="48.1512" lon="3.32967">
        <ele>152.5</ele>
        <time>2024-05-15T10:41:14.000Z</time>
      </trkpt>
      <trkpt lat="48.15119" lon="3.32966">
        <ele>152.3</ele>
        <time>2024-05-15T10:41:13.000Z</time>
      </trkpt>
      <trkpt lat="48.15118" lon="3.32966">
        <ele>152</ele>
        <time>2024-05-15T10:41:12.000Z</time>
      </trkpt>
      <trkpt lat="48.15118" lon="3.32966">
        <ele>152</ele>
        <time>2024-05-15T10:41:10.000Z</time>
      </trkpt>
      <trkpt lat="48.15118" lon="3.32966">
        <ele>152</ele>
        <time>2024-05-15T10:41:09.000Z</time>
      </trkpt>
      <trkpt lat="48.15118" lon="3.32965">
        <ele>152</ele>
        <time>2024-05-15T10:41:08.000Z</time>
      </trkpt>
      <trkpt lat="48.15117" lon="3.32963">
        <ele>151.6</ele>
        <time>2024-05-15T10:41:07.000Z</time>
      </trkpt>
      <trkpt lat="48.15116" lon="3.32962">
        <ele>151.3</ele>
        <time>2024-05-15T10:41:06.000Z</time>
      </trkpt>
      <trkpt lat="48.15115" lon="3.3296">
        <ele>151</ele>
        <time>2024-05-15T10:41:05.000Z</time>
      </trkpt>
      <trkpt lat="48.15114" lon="3.32959">
        <ele>150.7</ele>
        <time>2024-05-15T10:41:04.000Z</time>
      </trkpt>
      <trkpt lat="48.15114" lon="3.32958">
        <ele>150.6</ele>
        <time>2024-05-15T10:41:03.000Z</time>
      </trkpt>
      <trkpt lat="48.15113" lon="3.32958">
        <ele>150.4</ele>
        <time>2024-05-15T10:41:02.000Z</time>
      </trkpt>
      <trkpt lat="48.15113" lon="3.32958">
        <ele>150.4</ele>
        <time>2024-05-15T10:41:01.000Z</time>
      </trkpt>
      <trkpt lat="48.15113" lon="3.32958">
        <ele>150.4</ele>
        <time>2024-05-15T10:41:00.000Z</time>
      </trkpt>
      <trkpt lat="48.15112" lon="3.32957">
        <ele>150.1</ele>
        <time>2024-05-15T10:40:59.000Z</time>
      </trkpt>
      <trkpt lat="48.15112" lon="3.32957">
        <ele>150.1</ele>
        <time>2024-05-15T10:40:58.000Z</time>
      </trkpt>
      <trkpt lat="48.15111" lon="3.32956">
        <ele>149.8</ele>
        <time>2024-05-15T10:40:57.000Z</time>
      </trkpt>
      <trkpt lat="48.15111" lon="3.32956">
        <ele>149.8</ele>
        <time>2024-05-15T10:40:56.000Z</time>
      </trkpt>
      <trkpt lat="48.15111" lon="3.32956">
        <ele>149.8</ele>
        <time>2024-05-15T10:40:55.000Z</time>
      </trkpt>
      <trkpt lat="48.1511" lon="3.32955">
        <ele>149.7</ele>
        <time>2024-05-15T10:40:54.000Z</time>
      </trkpt>
      <trkpt lat="48.15109" lon="3.32954">
        <ele>149.5</ele>
        <time>2024-05-15T10:40:53.000Z</time>
      </trkpt>
      <trkpt lat="48.15108" lon="3.32953">
        <ele>149.3</ele>
        <time>2024-05-15T10:40:52.000Z</time>
      </trkpt>
      <trkpt lat="48.15108" lon="3.32953">
        <ele>149.3</ele>
        <time>2024-05-15T10:40:51.000Z</time>
      </trkpt>
      <trkpt lat="48.15108" lon="3.32953">
        <ele>149.3</ele>
        <time>2024-05-15T10:40:50.000Z</time>
      </trkpt>
      <trkpt lat="48.15107" lon="3.32952">
        <ele>149.1</ele>
        <time>2024-05-15T10:40:49.000Z</time>
      </trkpt>
      <trkpt lat="48.15106" lon="3.32951">
        <ele>149</ele>
        <time>2024-05-15T10:40:48.000Z</time>
      </trkpt>
      <trkpt lat="48.15105" lon="3.3295">
        <ele>148.8</ele>
        <time>2024-05-15T10:40:47.000Z</time>
      </trkpt>
      <trkpt lat="48.15105" lon="3.32949">
        <ele>148.7</ele>
        <time>2024-05-15T10:40:46.000Z</time>
      </trkpt>
      <trkpt lat="48.15105" lon="3.32949">
        <ele>148.7</ele>
        <time>2024-05-15T10:40:45.000Z</time>
      </trkpt>
      <trkpt lat="48.15104" lon="3.32949">
        <ele>148.6</ele>
        <time>2024-05-15T10:40:44.000Z</time>
      </trkpt>
      <trkpt lat="48.15103" lon="3.32949">
        <ele>148.5</ele>
        <time>2024-05-15T10:40:43.000Z</time>
      </trkpt>
      <trkpt lat="48.15102" lon="3.32948">
        <ele>148.3</ele>
        <time>2024-05-15T10:40:42.000Z</time>
      </trkpt>
      <trkpt lat="48.151" lon="3.32947">
        <ele>148</ele>
        <time>2024-05-15T10:40:41.000Z</time>
      </trkpt>
      <trkpt lat="48.15099" lon="3.32946">
        <ele>147.8</ele>
        <time>2024-05-15T10:40:40.000Z</time>
      </trkpt>
      <trkpt lat="48.15098" lon="3.32946">
        <ele>147.7</ele>
        <time>2024-05-15T10:40:39.000Z</time>
      </trkpt>
      <trkpt lat="48.15097" lon="3.32945">
        <ele>147.5</ele>
        <time>2024-05-15T10:40:38.000Z</time>
      </trkpt>
      <trkpt lat="48.15097" lon="3.32944">
        <ele>147.4</ele>
        <time>2024-05-15T10:40:37.000Z</time>
      </trkpt>
      <trkpt lat="48.15097" lon="3.32944">
        <ele>147.4</ele>
        <time>2024-05-15T10:40:36.000Z</time>
      </trkpt>
      <trkpt lat="48.15096" lon="3.32944">
        <ele>147.3</ele>
        <time>2024-05-15T10:40:35.000Z</time>
      </trkpt>
      <trkpt lat="48.15096" lon="3.32943">
        <ele>147.2</ele>
        <time>2024-05-15T10:40:34.000Z</time>
      </trkpt>
      <trkpt lat="48.15095" lon="3.32943">
        <ele>147.1</ele>
        <time>2024-05-15T10:40:33.000Z</time>
      </trkpt>
      <trkpt lat="48.15095" lon="3.32943">
        <ele>147.1</ele>
        <time>2024-05-15T10:40:32.000Z</time>
      </trkpt>
      <trkpt lat="48.15095" lon="3.32942">
        <ele>147</ele>
        <time>2024-05-15T10:40:31.000Z</time>
      </trkpt>
      <trkpt lat="48.15094" lon="3.32941">
        <ele>146.8</ele>
        <time>2024-05-15T10:40:30.000Z</time>
      </trkpt>
      <trkpt lat="48.15092" lon="3.3294">
        <ele>146.5</ele>
        <time>2024-05-15T10:40:29.000Z</time>
      </trkpt>
      <trkpt lat="48.15091" lon="3.32938">
        <ele>146.2</ele>
        <time>2024-05-15T10:40:27.000Z</time>
      </trkpt>
      <trkpt lat="48.1509" lon="3.32938">
        <ele>146.1</ele>
        <time>2024-05-15T10:40:26.000Z</time>
      </trkpt>
      <trkpt lat="48.1509" lon="3.32937">
        <ele>146</ele>
        <time>2024-05-15T10:40:25.000Z</time>
      </trkpt>
      <trkpt lat="48.1509" lon="3.32937">
        <ele>146</ele>
        <time>2024-05-15T10:40:23.000Z</time>
      </trkpt>
      <trkpt lat="48.1509" lon="3.32937">
        <ele>146</ele>
        <time>2024-05-15T10:40:22.000Z</time>
      </trkpt>
      <trkpt lat="48.1509" lon="3.32937">
        <ele>146</ele>
        <time>2024-05-15T10:40:20.000Z</time>
      </trkpt>
      <trkpt lat="48.1509" lon="3.32937">
        <ele>146</ele>
        <time>2024-05-15T10:40:19.000Z</time>
      </trkpt>
      <trkpt lat="48.1509" lon="3.32937">
        <ele>146</ele>
        <time>2024-05-15T10:40:18.000Z</time>
      </trkpt>
      <trkpt lat="48.15089" lon="3.32937">
        <ele>145.9</ele>
        <time>2024-05-15T10:40:17.000Z</time>
      </trkpt>
      <trkpt lat="48.15088" lon="3.32936">
        <ele>145.6</ele>
        <time>2024-05-15T10:40:16.000Z</time>
      </trkpt>
      <trkpt lat="48.15087" lon="3.32935">
        <ele>145.4</ele>
        <time>2024-05-15T10:40:15.000Z</time>
      </trkpt>
      <trkpt lat="48.15086" lon="3.32932">
        <ele>145</ele>
        <time>2024-05-15T10:40:14.000Z</time>
      </trkpt>
      <trkpt lat="48.15086" lon="3.32932">
        <ele>145</ele>
        <time>2024-05-15T10:40:13.000Z</time>
      </trkpt>
      <trkpt lat="48.15085" lon="3.32931">
        <ele>144.8</ele>
        <time>2024-05-15T10:40:12.000Z</time>
      </trkpt>
      <trkpt lat="48.15084" lon="3.3293">
        <ele>144.5</ele>
        <time>2024-05-15T10:40:10.000Z</time>
      </trkpt>
      <trkpt lat="48.15083" lon="3.32929">
        <ele>144.3</ele>
        <time>2024-05-15T10:40:09.000Z</time>
      </trkpt>
      <trkpt lat="48.1508" lon="3.32923">
        <ele>143.8</ele>
        <time>2024-05-15T10:40:07.000Z</time>
      </trkpt>
      <trkpt lat="48.15079" lon="3.32921">
        <ele>143.6</ele>
        <time>2024-05-15T10:40:00.000Z</time>
      </trkpt>
      <trkpt lat="48.15078" lon="3.3292">
        <ele>143.6</ele>
        <time>2024-05-15T10:39:58.000Z</time>
      </trkpt>
      <trkpt lat="48.15078" lon="3.3292">
        <ele>143.6</ele>
        <time>2024-05-15T10:39:54.000Z</time>
      </trkpt>
      <trkpt lat="48.15078" lon="3.3292">
        <ele>143.6</ele>
        <time>2024-05-15T10:39:53.000Z</time>
      </trkpt>
      <trkpt lat="48.15078" lon="3.3292">
        <ele>143.6</ele>
        <time>2024-05-15T10:39:51.000Z</time>
      </trkpt>
      <trkpt lat="48.15078" lon="3.3292">
        <ele>143.6</ele>
        <time>2024-05-15T10:39:49.000Z</time>
      </trkpt>
      <trkpt lat="48.15078" lon="3.3292">
        <ele>143.6</ele>
        <time>2024-05-15T10:39:48.000Z</time>
      </trkpt>
      <trkpt lat="48.15075" lon="3.32914">
        <ele>143</ele>
        <time>2024-05-15T10:39:47.000Z</time>
      </trkpt>
      <trkpt lat="48.15075" lon="3.32911">
        <ele>142.6</ele>
        <time>2024-05-15T10:39:46.000Z</time>
      </trkpt>
      <trkpt lat="48.15075" lon="3.3291">
        <ele>142.5</ele>
        <time>2024-05-15T10:39:45.000Z</time>
      </trkpt>
      <trkpt lat="48.15076" lon="3.3291">
        <ele>142.5</ele>
        <time>2024-05-15T10:39:44.000Z</time>
      </trkpt>
      <trkpt lat="48.15076" lon="3.3291">
        <ele>142.5</ele>
        <time>2024-05-15T10:39:43.000Z</time>
      </trkpt>
      <trkpt lat="48.15077" lon="3.32909">
        <ele>142.3</ele>
        <time>2024-05-15T10:39:42.000Z</time>
      </trkpt>
      <trkpt lat="48.15077" lon="3.32904">
        <ele>141.8</ele>
        <time>2024-05-15T10:39:41.000Z</time>
      </trkpt>
      <trkpt lat="48.15077" lon="3.32902">
        <ele>141.5</ele>
        <time>2024-05-15T10:39:40.000Z</time>
      </trkpt>
      <trkpt lat="48.15077" lon="3.329">
        <ele>141.3</ele>
        <time>2024-05-15T10:39:39.000Z</time>
      </trkpt>
      <trkpt lat="48.15076" lon="3.32897">
        <ele>141</ele>
        <time>2024-05-15T10:39:38.000Z</time>
      </trkpt>
      <trkpt lat="48.15077" lon="3.32894">
        <ele>140.6</ele>
        <time>2024-05-15T10:39:37.000Z</time>
      </trkpt>
      <trkpt lat="48.15077" lon="3.32893">
        <ele>140.5</ele>
        <time>2024-05-15T10:39:36.000Z</time>
      </trkpt>
      <trkpt lat="48.15078" lon="3.32892">
        <ele>140.4</ele>
        <time>2024-05-15T10:39:35.000Z</time>
      </trkpt>
      <trkpt lat="48.15078" lon="3.3289">
        <ele>140.1</ele>
        <time>2024-05-15T10:39:34.000Z</time>
      </trkpt>
      <trkpt lat="48.15078" lon="3.32888">
        <ele>139.9</ele>
        <time>2024-05-15T10:39:33.000Z</time>
      </trkpt>
      <trkpt lat="48.15078" lon="3.32886">
        <ele>139.8</ele>
        <time>2024-05-15T10:39:32.000Z</time>
      </trkpt>
      <trkpt lat="48.15078" lon="3.32884">
        <ele>139.6</ele>
        <time>2024-05-15T10:39:31.000Z</time>
      </trkpt>
      <trkpt lat="48.15078" lon="3.32881">
        <ele>139.3</ele>
        <time>2024-05-15T10:39:30.000Z</time>
      </trkpt>
      <trkpt lat="48.15078" lon="3.32878">
        <ele>139.1</ele>
        <time>2024-05-15T10:39:29.000Z</time>
      </trkpt>
      <trkpt lat="48.15077" lon="3.32875">
        <ele>138.8</ele>
        <time>2024-05-15T10:39:28.000Z</time>
      </trkpt>
      <trkpt lat="48.15077" lon="3.32873">
        <ele>138.6</ele>
        <time>2024-05-15T10:39:27.000Z</time>
      </trkpt>
      <trkpt lat="48.15077" lon="3.32871">
        <ele>138.4</ele>
        <time>2024-05-15T10:39:26.000Z</time>
      </trkpt>
      <trkpt lat="48.15077" lon="3.32871">
        <ele>138.4</ele>
        <time>2024-05-15T10:39:25.000Z</time>
      </trkpt>
      <trkpt lat="48.15077" lon="3.3287">
        <ele>138.3</ele>
        <time>2024-05-15T10:39:24.000Z</time>
      </trkpt>
      <trkpt lat="48.15077" lon="3.3287">
        <ele>138.3</ele>
        <time>2024-05-15T10:39:23.000Z</time>
      </trkpt>
      <trkpt lat="48.15077" lon="3.32869">
        <ele>138.2</ele>
        <time>2024-05-15T10:39:22.000Z</time>
      </trkpt>
      <trkpt lat="48.15077" lon="3.32867">
        <ele>138.1</ele>
        <time>2024-05-15T10:39:21.000Z</time>
      </trkpt>
      <trkpt lat="48.15077" lon="3.32864">
        <ele>137.8</ele>
        <time>2024-05-15T10:39:20.000Z</time>
      </trkpt>
      <trkpt lat="48.15077" lon="3.3286">
        <ele>137.4</ele>
        <time>2024-05-15T10:39:19.000Z</time>
      </trkpt>
      <trkpt lat="48.15076" lon="3.32858">
        <ele>137.1</ele>
        <time>2024-05-15T10:39:18.000Z</time>
      </trkpt>
      <trkpt lat="48.15076" lon="3.32857">
        <ele>137</ele>
        <time>2024-05-15T10:39:17.000Z</time>
      </trkpt>
      <trkpt lat="48.15076" lon="3.32856">
        <ele>136.9</ele>
        <time>2024-05-15T10:39:16.000Z</time>
      </trkpt>
      <trkpt lat="48.15076" lon="3.32853">
        <ele>136.5</ele>
        <time>2024-05-15T10:39:15.000Z</time>
      </trkpt>
      <trkpt lat="48.15076" lon="3.32852">
        <ele>136.4</ele>
        <time>2024-05-15T10:39:14.000Z</time>
      </trkpt>
      <trkpt lat="48.15076" lon="3.32852">
        <ele>136.4</ele>
        <time>2024-05-15T10:39:13.000Z</time>
      </trkpt>
      <trkpt lat="48.15076" lon="3.3285">
        <ele>136.2</ele>
        <time>2024-05-15T10:39:12.000Z</time>
      </trkpt>
      <trkpt lat="48.15076" lon="3.3285">
        <ele>136.2</ele>
        <time>2024-05-15T10:39:11.000Z</time>
      </trkpt>
      <trkpt lat="48.15076" lon="3.32849">
        <ele>136</ele>
        <time>2024-05-15T10:39:10.000Z</time>
      </trkpt>
      <trkpt lat="48.15076" lon="3.32848">
        <ele>135.9</ele>
        <time>2024-05-15T10:39:09.000Z</time>
      </trkpt>
      <trkpt lat="48.15076" lon="3.32848">
        <ele>135.9</ele>
        <time>2024-05-15T10:39:08.000Z</time>
      </trkpt>
      <trkpt lat="48.15076" lon="3.32848">
        <ele>135.9</ele>
        <time>2024-05-15T10:39:07.000Z</time>
      </trkpt>
      <trkpt lat="48.15076" lon="3.32847">
        <ele>135.8</ele>
        <time>2024-05-15T10:39:06.000Z</time>
      </trkpt>
      <trkpt lat="48.15076" lon="3.32844">
        <ele>135.5</ele>
        <time>2024-05-15T10:39:05.000Z</time>
      </trkpt>
      <trkpt lat="48.15075" lon="3.32842">
        <ele>135.1</ele>
        <time>2024-05-15T10:39:04.000Z</time>
      </trkpt>
      <trkpt lat="48.15075" lon="3.32839">
        <ele>134.8</ele>
        <time>2024-05-15T10:39:03.000Z</time>
      </trkpt>
      <trkpt lat="48.15074" lon="3.32836">
        <ele>134.3</ele>
        <time>2024-05-15T10:39:02.000Z</time>
      </trkpt>
      <trkpt lat="48.15074" lon="3.32833">
        <ele>134</ele>
        <time>2024-05-15T10:39:01.000Z</time>
      </trkpt>
      <trkpt lat="48.15074" lon="3.32831">
        <ele>133.8</ele>
        <time>2024-05-15T10:39:00.000Z</time>
      </trkpt>
      <trkpt lat="48.15073" lon="3.3283">
        <ele>133.6</ele>
        <time>2024-05-15T10:38:59.000Z</time>
      </trkpt>
      <trkpt lat="48.15073" lon="3.32829">
        <ele>133.5</ele>
        <time>2024-05-15T10:38:58.000Z</time>
      </trkpt>
      <trkpt lat="48.15074" lon="3.32828">
        <ele>133.5</ele>
        <time>2024-05-15T10:38:57.000Z</time>
      </trkpt>
      <trkpt lat="48.15074" lon="3.32827">
        <ele>133.5</ele>
        <time>2024-05-15T10:38:56.000Z</time>
      </trkpt>
      <trkpt lat="48.15073" lon="3.32825">
        <ele>133.2</ele>
        <time>2024-05-15T10:38:55.000Z</time>
      </trkpt>
      <trkpt lat="48.15073" lon="3.32824">
        <ele>133.1</ele>
        <time>2024-05-15T10:38:54.000Z</time>
      </trkpt>
      <trkpt lat="48.15073" lon="3.32823">
        <ele>133</ele>
        <time>2024-05-15T10:38:53.000Z</time>
      </trkpt>
      <trkpt lat="48.15073" lon="3.3282">
        <ele>132.7</ele>
        <time>2024-05-15T10:38:52.000Z</time>
      </trkpt>
      <trkpt lat="48.15073" lon="3.32818">
        <ele>132.6</ele>
        <time>2024-05-15T10:38:51.000Z</time>
      </trkpt>
      <trkpt lat="48.15073" lon="3.32816">
        <ele>132.4</ele>
        <time>2024-05-15T10:38:50.000Z</time>
      </trkpt>
      <trkpt lat="48.15072" lon="3.32813">
        <ele>132</ele>
        <time>2024-05-15T10:38:49.000Z</time>
      </trkpt>
      <trkpt lat="48.15072" lon="3.32811">
        <ele>131.8</ele>
        <time>2024-05-15T10:38:48.000Z</time>
      </trkpt>
      <trkpt lat="48.15071" lon="3.32809">
        <ele>131.5</ele>
        <time>2024-05-15T10:38:47.000Z</time>
      </trkpt>
      <trkpt lat="48.15071" lon="3.32807">
        <ele>131.4</ele>
        <time>2024-05-15T10:38:46.000Z</time>
      </trkpt>
      <trkpt lat="48.15071" lon="3.32807">
        <ele>131.4</ele>
        <time>2024-05-15T10:38:45.000Z</time>
      </trkpt>
      <trkpt lat="48.15071" lon="3.32806">
        <ele>131.3</ele>
        <time>2024-05-15T10:38:44.000Z</time>
      </trkpt>
      <trkpt lat="48.1507" lon="3.32803">
        <ele>130.9</ele>
        <time>2024-05-15T10:38:43.000Z</time>
      </trkpt>
      <trkpt lat="48.1507" lon="3.32802">
        <ele>130.8</ele>
        <time>2024-05-15T10:38:42.000Z</time>
      </trkpt>
      <trkpt lat="48.15069" lon="3.328">
        <ele>130.4</ele>
        <time>2024-05-15T10:38:41.000Z</time>
      </trkpt>
      <trkpt lat="48.15069" lon="3.32797">
        <ele>130.2</ele>
        <time>2024-05-15T10:38:40.000Z</time>
      </trkpt>
      <trkpt lat="48.15068" lon="3.32795">
        <ele>129.8</ele>
        <time>2024-05-15T10:38:39.000Z</time>
      </trkpt>
      <trkpt lat="48.15068" lon="3.32792">
        <ele>129.5</ele>
        <time>2024-05-15T10:38:38.000Z</time>
      </trkpt>
      <trkpt lat="48.15067" lon="3.3279">
        <ele>129.2</ele>
        <time>2024-05-15T10:38:37.000Z</time>
      </trkpt>
      <trkpt lat="48.15067" lon="3.32788">
        <ele>129</ele>
        <time>2024-05-15T10:38:36.000Z</time>
      </trkpt>
      <trkpt lat="48.15067" lon="3.32786">
        <ele>128.8</ele>
        <time>2024-05-15T10:38:35.000Z</time>
      </trkpt>
      <trkpt lat="48.15066" lon="3.32785">
        <ele>128.6</ele>
        <time>2024-05-15T10:38:34.000Z</time>
      </trkpt>
      <trkpt lat="48.15066" lon="3.32783">
        <ele>128.4</ele>
        <time>2024-05-15T10:38:33.000Z</time>
      </trkpt>
      <trkpt lat="48.15065" lon="3.32781">
        <ele>128</ele>
        <time>2024-05-15T10:38:32.000Z</time>
      </trkpt>
      <trkpt lat="48.15065" lon="3.3278">
        <ele>127.9</ele>
        <time>2024-05-15T10:38:31.000Z</time>
      </trkpt>
      <trkpt lat="48.15065" lon="3.32778">
        <ele>127.7</ele>
        <time>2024-05-15T10:38:30.000Z</time>
      </trkpt>
      <trkpt lat="48.15065" lon="3.32777">
        <ele>127.7</ele>
        <time>2024-05-15T10:38:29.000Z</time>
      </trkpt>
      <trkpt lat="48.15064" lon="3.32775">
        <ele>127.4</ele>
        <time>2024-05-15T10:38:28.000Z</time>
      </trkpt>
      <trkpt lat="48.15064" lon="3.32773">
        <ele>127.2</ele>
        <time>2024-05-15T10:38:27.000Z</time>
      </trkpt>
      <trkpt lat="48.15063" lon="3.32772">
        <ele>127</ele>
        <time>2024-05-15T10:38:26.000Z</time>
      </trkpt>
      <trkpt lat="48.15062" lon="3.32771">
        <ele>126.7</ele>
        <time>2024-05-15T10:38:25.000Z</time>
      </trkpt>
      <trkpt lat="48.15062" lon="3.3277">
        <ele>126.7</ele>
        <time>2024-05-15T10:38:24.000Z</time>
      </trkpt>
      <trkpt lat="48.1506" lon="3.3277">
        <ele>126.3</ele>
        <time>2024-05-15T10:38:23.000Z</time>
      </trkpt>
      <trkpt lat="48.15059" lon="3.32767">
        <ele>125.9</ele>
        <time>2024-05-15T10:38:22.000Z</time>
      </trkpt>
      <trkpt lat="48.15058" lon="3.32766">
        <ele>125.6</ele>
        <time>2024-05-15T10:38:21.000Z</time>
      </trkpt>
      <trkpt lat="48.15058" lon="3.32766">
        <ele>125.6</ele>
        <time>2024-05-15T10:38:20.000Z</time>
      </trkpt>
      <trkpt lat="48.15057" lon="3.32765">
        <ele>125.4</ele>
        <time>2024-05-15T10:38:19.000Z</time>
      </trkpt>
      <trkpt lat="48.15056" lon="3.32762">
        <ele>125</ele>
        <time>2024-05-15T10:38:18.000Z</time>
      </trkpt>
      <trkpt lat="48.15055" lon="3.32759">
        <ele>124.6</ele>
        <time>2024-05-15T10:38:17.000Z</time>
      </trkpt>
      <trkpt lat="48.15054" lon="3.32756">
        <ele>124.4</ele>
        <time>2024-05-15T10:38:16.000Z</time>
      </trkpt>
      <trkpt lat="48.15053" lon="3.32754">
        <ele>124.2</ele>
        <time>2024-05-15T10:38:15.000Z</time>
      </trkpt>
      <trkpt lat="48.15053" lon="3.32753">
        <ele>124.1</ele>
        <time>2024-05-15T10:38:14.000Z</time>
      </trkpt>
      <trkpt lat="48.15052" lon="3.32752">
        <ele>124</ele>
        <time>2024-05-15T10:38:13.000Z</time>
      </trkpt>
      <trkpt lat="48.15051" lon="3.32749">
        <ele>123.8</ele>
        <time>2024-05-15T10:38:12.000Z</time>
      </trkpt>
      <trkpt lat="48.1505" lon="3.32747">
        <ele>123.7</ele>
        <time>2024-05-15T10:38:11.000Z</time>
      </trkpt>
      <trkpt lat="48.15049" lon="3.32743">
        <ele>123.5</ele>
        <time>2024-05-15T10:38:10.000Z</time>
      </trkpt>
      <trkpt lat="48.15049" lon="3.32741">
        <ele>123.4</ele>
        <time>2024-05-15T10:38:09.000Z</time>
      </trkpt>
      <trkpt lat="48.15048" lon="3.32739">
        <ele>123.2</ele>
        <time>2024-05-15T10:38:08.000Z</time>
      </trkpt>
      <trkpt lat="48.15047" lon="3.32737">
        <ele>123.1</ele>
        <time>2024-05-15T10:38:07.000Z</time>
      </trkpt>
      <trkpt lat="48.15046" lon="3.32735">
        <ele>122.9</ele>
        <time>2024-05-15T10:38:06.000Z</time>
      </trkpt>
      <trkpt lat="48.15045" lon="3.32732">
        <ele>122.7</ele>
        <time>2024-05-15T10:38:05.000Z</time>
      </trkpt>
      <trkpt lat="48.15043" lon="3.32727">
        <ele>122.3</ele>
        <time>2024-05-15T10:38:04.000Z</time>
      </trkpt>
      <trkpt lat="48.15042" lon="3.32724">
        <ele>122.1</ele>
        <time>2024-05-15T10:38:03.000Z</time>
      </trkpt>
      <trkpt lat="48.15042" lon="3.32721">
        <ele>122</ele>
        <time>2024-05-15T10:38:02.000Z</time>
      </trkpt>
      <trkpt lat="48.15042" lon="3.32721">
        <ele>122</ele>
        <time>2024-05-15T10:38:01.000Z</time>
      </trkpt>
      <trkpt lat="48.15042" lon="3.3272">
        <ele>121.9</ele>
        <time>2024-05-15T10:38:00.000Z</time>
      </trkpt>
      <trkpt lat="48.15041" lon="3.32718">
        <ele>121.7</ele>
        <time>2024-05-15T10:37:59.000Z</time>
      </trkpt>
      <trkpt lat="48.1504" lon="3.32714">
        <ele>121.4</ele>
        <time>2024-05-15T10:37:58.000Z</time>
      </trkpt>
      <trkpt lat="48.15039" lon="3.3271">
        <ele>121.1</ele>
        <time>2024-05-15T10:37:57.000Z</time>
      </trkpt>
      <trkpt lat="48.15039" lon="3.32708">
        <ele>121</ele>
        <time>2024-05-15T10:37:56.000Z</time>
      </trkpt>
      <trkpt lat="48.15039" lon="3.32706">
        <ele>120.9</ele>
        <time>2024-05-15T10:37:55.000Z</time>
      </trkpt>
      <trkpt lat="48.15038" lon="3.32703">
        <ele>120.6</ele>
        <time>2024-05-15T10:37:54.000Z</time>
      </trkpt>
      <trkpt lat="48.15038" lon="3.32701">
        <ele>120.5</ele>
        <time>2024-05-15T10:37:53.000Z</time>
      </trkpt>
      <trkpt lat="48.15038" lon="3.327">
        <ele>120.4</ele>
        <time>2024-05-15T10:37:52.000Z</time>
      </trkpt>
      <trkpt lat="48.15038" lon="3.32698">
        <ele>120.3</ele>
        <time>2024-05-15T10:37:51.000Z</time>
      </trkpt>
      <trkpt lat="48.15037" lon="3.32696">
        <ele>120.1</ele>
        <time>2024-05-15T10:37:50.000Z</time>
      </trkpt>
      <trkpt lat="48.15037" lon="3.32694">
        <ele>120</ele>
        <time>2024-05-15T10:37:49.000Z</time>
      </trkpt>
      <trkpt lat="48.15035" lon="3.32691">
        <ele>119.7</ele>
        <time>2024-05-15T10:37:48.000Z</time>
      </trkpt>
      <trkpt lat="48.15034" lon="3.32688">
        <ele>119.5</ele>
        <time>2024-05-15T10:37:47.000Z</time>
      </trkpt>
      <trkpt lat="48.15033" lon="3.32686">
        <ele>119.3</ele>
        <time>2024-05-15T10:37:46.000Z</time>
      </trkpt>
      <trkpt lat="48.15033" lon="3.32682">
        <ele>119.2</ele>
        <time>2024-05-15T10:37:45.000Z</time>
      </trkpt>
      <trkpt lat="48.15032" lon="3.3268">
        <ele>119</ele>
        <time>2024-05-15T10:37:44.000Z</time>
      </trkpt>
      <trkpt lat="48.15032" lon="3.32678">
        <ele>119</ele>
        <time>2024-05-15T10:37:43.000Z</time>
      </trkpt>
      <trkpt lat="48.15031" lon="3.32676">
        <ele>118.8</ele>
        <time>2024-05-15T10:37:42.000Z</time>
      </trkpt>
      <trkpt lat="48.1503" lon="3.32674">
        <ele>118.6</ele>
        <time>2024-05-15T10:37:41.000Z</time>
      </trkpt>
      <trkpt lat="48.1503" lon="3.32672">
        <ele>118.5</ele>
        <time>2024-05-15T10:37:40.000Z</time>
      </trkpt>
      <trkpt lat="48.1503" lon="3.3267">
        <ele>118.4</ele>
        <time>2024-05-15T10:37:39.000Z</time>
      </trkpt>
      <trkpt lat="48.15029" lon="3.3267">
        <ele>118.3</ele>
        <time>2024-05-15T10:37:38.000Z</time>
      </trkpt>
      <trkpt lat="48.15029" lon="3.32669">
        <ele>118.3</ele>
        <time>2024-05-15T10:37:37.000Z</time>
      </trkpt>
      <trkpt lat="48.15029" lon="3.32668">
        <ele>118.2</ele>
        <time>2024-05-15T10:37:36.000Z</time>
      </trkpt>
      <trkpt lat="48.15029" lon="3.32666">
        <ele>118.2</ele>
        <time>2024-05-15T10:37:35.000Z</time>
      </trkpt>
      <trkpt lat="48.15028" lon="3.32663">
        <ele>117.9</ele>
        <time>2024-05-15T10:37:34.000Z</time>
      </trkpt>
      <trkpt lat="48.15029" lon="3.32661">
        <ele>118</ele>
        <time>2024-05-15T10:37:33.000Z</time>
      </trkpt>
      <trkpt lat="48.15028" lon="3.32659">
        <ele>117.8</ele>
        <time>2024-05-15T10:37:32.000Z</time>
      </trkpt>
      <trkpt lat="48.15028" lon="3.32657">
        <ele>117.7</ele>
        <time>2024-05-15T10:37:31.000Z</time>
      </trkpt>
      <trkpt lat="48.15027" lon="3.32656">
        <ele>117.6</ele>
        <time>2024-05-15T10:37:30.000Z</time>
      </trkpt>
      <trkpt lat="48.15027" lon="3.32655">
        <ele>117.5</ele>
        <time>2024-05-15T10:37:29.000Z</time>
      </trkpt>
      <trkpt lat="48.15028" lon="3.32653">
        <ele>117.5</ele>
        <time>2024-05-15T10:37:28.000Z</time>
      </trkpt>
      <trkpt lat="48.15028" lon="3.32652">
        <ele>117.5</ele>
        <time>2024-05-15T10:37:27.000Z</time>
      </trkpt>
      <trkpt lat="48.15027" lon="3.3265">
        <ele>117.4</ele>
        <time>2024-05-15T10:37:26.000Z</time>
      </trkpt>
      <trkpt lat="48.15027" lon="3.32648">
        <ele>117.3</ele>
        <time>2024-05-15T10:37:25.000Z</time>
      </trkpt>
      <trkpt lat="48.15026" lon="3.32646">
        <ele>117.1</ele>
        <time>2024-05-15T10:37:24.000Z</time>
      </trkpt>
      <trkpt lat="48.15025" lon="3.32644">
        <ele>117</ele>
        <time>2024-05-15T10:37:23.000Z</time>
      </trkpt>
      <trkpt lat="48.15025" lon="3.32642">
        <ele>116.9</ele>
        <time>2024-05-15T10:37:22.000Z</time>
      </trkpt>
      <trkpt lat="48.15024" lon="3.32639">
        <ele>116.7</ele>
        <time>2024-05-15T10:37:21.000Z</time>
      </trkpt>
      <trkpt lat="48.15024" lon="3.32637">
        <ele>116.7</ele>
        <time>2024-05-15T10:37:20.000Z</time>
      </trkpt>
      <trkpt lat="48.15023" lon="3.32634">
        <ele>116.4</ele>
        <time>2024-05-15T10:37:19.000Z</time>
      </trkpt>
      <trkpt lat="48.15022" lon="3.32632">
        <ele>116.3</ele>
        <time>2024-05-15T10:37:18.000Z</time>
      </trkpt>
      <trkpt lat="48.15021" lon="3.32629">
        <ele>116.1</ele>
        <time>2024-05-15T10:37:17.000Z</time>
      </trkpt>
      <trkpt lat="48.1502" lon="3.32627">
        <ele>115.9</ele>
        <time>2024-05-15T10:37:16.000Z</time>
      </trkpt>
      <trkpt lat="48.1502" lon="3.32625">
        <ele>115.8</ele>
        <time>2024-05-15T10:37:15.000Z</time>
      </trkpt>
      <trkpt lat="48.15019" lon="3.32622">
        <ele>115.6</ele>
        <time>2024-05-15T10:37:14.000Z</time>
      </trkpt>
      <trkpt lat="48.15018" lon="3.32619">
        <ele>115.3</ele>
        <time>2024-05-15T10:37:13.000Z</time>
      </trkpt>
      <trkpt lat="48.15017" lon="3.32617">
        <ele>115.1</ele>
        <time>2024-05-15T10:37:12.000Z</time>
      </trkpt>
      <trkpt lat="48.15017" lon="3.32615">
        <ele>115</ele>
        <time>2024-05-15T10:37:11.000Z</time>
      </trkpt>
      <trkpt lat="48.15016" lon="3.32612">
        <ele>114.8</ele>
        <time>2024-05-15T10:37:10.000Z</time>
      </trkpt>
      <trkpt lat="48.15015" lon="3.3261">
        <ele>114.6</ele>
        <time>2024-05-15T10:37:09.000Z</time>
      </trkpt>
      <trkpt lat="48.15015" lon="3.32608">
        <ele>114.5</ele>
        <time>2024-05-15T10:37:08.000Z</time>
      </trkpt>
      <trkpt lat="48.15012" lon="3.32602">
        <ele>113.8</ele>
        <time>2024-05-15T10:37:05.000Z</time>
      </trkpt>
      <trkpt lat="48.15011" lon="3.32601">
        <ele>113.6</ele>
        <time>2024-05-15T10:37:04.000Z</time>
      </trkpt>
      <trkpt lat="48.1501" lon="3.32599">
        <ele>113.4</ele>
        <time>2024-05-15T10:37:03.000Z</time>
      </trkpt>
      <trkpt lat="48.15009" lon="3.32598">
        <ele>113.2</ele>
        <time>2024-05-15T10:37:02.000Z</time>
      </trkpt>
      <trkpt lat="48.15009" lon="3.32597">
        <ele>113.1</ele>
        <time>2024-05-15T10:37:01.000Z</time>
      </trkpt>
      <trkpt lat="48.15008" lon="3.32595">
        <ele>112.9</ele>
        <time>2024-05-15T10:37:00.000Z</time>
      </trkpt>
      <trkpt lat="48.15008" lon="3.32593">
        <ele>112.7</ele>
        <time>2024-05-15T10:36:59.000Z</time>
      </trkpt>
      <trkpt lat="48.15005" lon="3.32585">
        <ele>111.8</ele>
        <time>2024-05-15T10:36:55.000Z</time>
      </trkpt>
      <trkpt lat="48.15005" lon="3.32583">
        <ele>111.7</ele>
        <time>2024-05-15T10:36:54.000Z</time>
      </trkpt>
      <trkpt lat="48.15002" lon="3.32568">
        <ele>110.2</ele>
        <time>2024-05-15T10:36:49.000Z</time>
      </trkpt>
      <trkpt lat="48.15" lon="3.32556">
        <ele>109</ele>
        <time>2024-05-15T10:36:45.000Z</time>
      </trkpt>
    </trkseg>
  </trk>
  <trk>
    <name><![CDATA[Trail8 Boucle n°1]]></name>
    <extensions>
      <line xmlns="http://www.topografix.com/GPX/gpx_style/0/2">
        <color>00ff00</color>
        <width>6</width>
          <extensions>
            <sens>1</sens>
          </extensions>
      </line>
    </extensions>
    <trkseg>
      <trkpt lat="48.15" lon="3.3255">
        <ele>108.5</ele>
        <time>2023-12-22T09:50:23Z</time>
      </trkpt>
      <trkpt lat="48.15025" lon="3.32287">
        <ele>98</ele>
        <time>2023-12-22T09:50:15Z</time>
      </trkpt>
      <trkpt lat="48.15026" lon="3.32282">
        <ele>98</ele>
        <time>2023-12-22T09:50:09Z</time>
      </trkpt>
      <trkpt lat="48.15026" lon="3.32277">
        <ele>97.8</ele>
        <time>2023-12-22T09:50:06Z</time>
      </trkpt>
      <trkpt lat="48.15027" lon="3.32274">
        <ele>97.8</ele>
        <time>2023-12-22T09:50:03Z</time>
      </trkpt>
      <trkpt lat="48.15028" lon="3.32273">
        <ele>97.9</ele>
        <time>2023-12-22T09:50:02Z</time>
      </trkpt>
      <trkpt lat="48.15031" lon="3.32273">
        <ele>98.2</ele>
        <time>2023-12-22T09:49:54Z</time>
      </trkpt>
      <trkpt lat="48.15031" lon="3.32273">
        <ele>98.2</ele>
        <time>2023-12-22T09:49:51Z</time>
      </trkpt>
      <trkpt lat="48.15034" lon="3.32272">
        <ele>98.5</ele>
        <time>2023-12-22T09:49:45Z</time>
      </trkpt>
      <trkpt lat="48.15036" lon="3.32271">
        <ele>98.6</ele>
        <time>2023-12-22T09:49:38Z</time>
      </trkpt>
      <trkpt lat="48.15043" lon="3.32266">
        <ele>99.2</ele>
        <time>2023-12-22T09:49:31Z</time>
      </trkpt>
      <trkpt lat="48.15046" lon="3.32266">
        <ele>99.5</ele>
        <time>2023-12-22T09:49:28Z</time>
      </trkpt>
      <trkpt lat="48.15049" lon="3.32266">
        <ele>99.9</ele>
        <time>2023-12-22T09:49:25Z</time>
      </trkpt>
      <trkpt lat="48.15051" lon="3.32259">
        <ele>99.8</ele>
        <time>2023-12-22T09:49:20Z</time>
      </trkpt>
      <trkpt lat="48.15051" lon="3.32254">
        <ele>99.7</ele>
        <time>2023-12-22T09:49:17Z</time>
      </trkpt>
      <trkpt lat="48.15051" lon="3.32241">
        <ele>99.2</ele>
        <time>2023-12-22T09:49:10Z</time>
      </trkpt>
      <trkpt lat="48.15051" lon="3.3223">
        <ele>98.8</ele>
        <time>2023-12-22T09:49:03Z</time>
      </trkpt>
      <trkpt lat="48.15052" lon="3.32216">
        <ele>98.6</ele>
        <time>2023-12-22T09:48:55Z</time>
      </trkpt>
      <trkpt lat="48.15052" lon="3.32208">
        <ele>98.6</ele>
        <time>2023-12-22T09:48:50Z</time>
      </trkpt>
      <trkpt lat="48.15053" lon="3.32206">
        <ele>98.7</ele>
        <time>2023-12-22T09:48:49Z</time>
      </trkpt>
      <trkpt lat="48.15056" lon="3.32195">
        <ele>99.1</ele>
        <time>2023-12-22T09:48:41Z</time>
      </trkpt>
      <trkpt lat="48.15056" lon="3.32194">
        <ele>99.1</ele>
        <time>2023-12-22T09:48:40Z</time>
      </trkpt>
      <trkpt lat="48.15061" lon="3.32181">
        <ele>99.7</ele>
        <time>2023-12-22T09:48:31Z</time>
      </trkpt>
      <trkpt lat="48.15063" lon="3.32171">
        <ele>99.8</ele>
        <time>2023-12-22T09:48:25Z</time>
      </trkpt>
      <trkpt lat="48.15061" lon="3.32162">
        <ele>99</ele>
        <time>2023-12-22T09:48:18Z</time>
      </trkpt>
      <trkpt lat="48.1506" lon="3.32159">
        <ele>98.7</ele>
        <time>2023-12-22T09:48:15Z</time>
      </trkpt>
      <trkpt lat="48.15055" lon="3.32148">
        <ele>97.2</ele>
        <time>2023-12-22T09:48:06Z</time>
      </trkpt>
      <trkpt lat="48.15054" lon="3.32147">
        <ele>97.1</ele>
        <time>2023-12-22T09:48:05Z</time>
      </trkpt>
      <trkpt lat="48.15054" lon="3.32137">
        <ele>96.8</ele>
        <time>2023-12-22T09:47:58Z</time>
      </trkpt>
      <trkpt lat="48.15057" lon="3.32126">
        <ele>97.3</ele>
        <time>2023-12-22T09:47:51Z</time>
      </trkpt>
      <trkpt lat="48.15064" lon="3.32116">
        <ele>98.8</ele>
        <time>2023-12-22T09:47:41Z</time>
      </trkpt>
      <trkpt lat="48.15069" lon="3.32112">
        <ele>99.9</ele>
        <time>2023-12-22T09:47:34Z</time>
      </trkpt>
      <trkpt lat="48.15075" lon="3.32106">
        <ele>101.3</ele>
        <time>2023-12-22T09:47:27Z</time>
      </trkpt>
      <trkpt lat="48.15077" lon="3.32104">
        <ele>101.8</ele>
        <time>2023-12-22T09:47:25Z</time>
      </trkpt>
      <trkpt lat="48.15079" lon="3.32101">
        <ele>102.3</ele>
        <time>2023-12-22T09:47:21Z</time>
      </trkpt>
      <trkpt lat="48.15083" lon="3.32099">
        <ele>103.4</ele>
        <time>2023-12-22T09:47:14Z</time>
      </trkpt>
      <trkpt lat="48.15084" lon="3.32099">
        <ele>103.6</ele>
        <time>2023-12-22T09:47:13Z</time>
      </trkpt>
      <trkpt lat="48.1509" lon="3.32097">
        <ele>105.4</ele>
        <time>2023-12-22T09:47:05Z</time>
      </trkpt>
      <trkpt lat="48.15094" lon="3.32096">
        <ele>106.6</ele>
        <time>2023-12-22T09:46:59Z</time>
      </trkpt>
      <trkpt lat="48.15101" lon="3.32099">
        <ele>108.5</ele>
        <time>2023-12-22T09:46:49Z</time>
      </trkpt>
      <trkpt lat="48.15106" lon="3.32103">
        <ele>109.8</ele>
        <time>2023-12-22T09:46:41Z</time>
      </trkpt>
      <trkpt lat="48.1511" lon="3.32105">
        <ele>110.9</ele>
        <time>2023-12-22T09:46:34Z</time>
      </trkpt>
      <trkpt lat="48.15114" lon="3.32105">
        <ele>112.3</ele>
        <time>2023-12-22T09:46:28Z</time>
      </trkpt>
      <trkpt lat="48.15119" lon="3.32107">
        <ele>114.2</ele>
        <time>2023-12-22T09:46:20Z</time>
      </trkpt>
      <trkpt lat="48.15125" lon="3.32106">
        <ele>116.6</ele>
        <time>2023-12-22T09:46:11Z</time>
      </trkpt>
      <trkpt lat="48.1513" lon="3.32108">
        <ele>118.5</ele>
        <time>2023-12-22T09:46:04Z</time>
      </trkpt>
      <trkpt lat="48.15135" lon="3.3211">
        <ele>120.5</ele>
        <time>2023-12-22T09:45:55Z</time>
      </trkpt>
      <trkpt lat="48.1514" lon="3.32108">
        <ele>122.4</ele>
        <time>2023-12-22T09:45:46Z</time>
      </trkpt>
      <trkpt lat="48.15143" lon="3.32109">
        <ele>123.6</ele>
        <time>2023-12-22T09:45:39Z</time>
      </trkpt>
      <trkpt lat="48.15144" lon="3.3211">
        <ele>124</ele>
        <time>2023-12-22T09:45:38Z</time>
      </trkpt>
      <trkpt lat="48.15148" lon="3.32111">
        <ele>125.6</ele>
        <time>2023-12-22T09:45:30Z</time>
      </trkpt>
      <trkpt lat="48.15149" lon="3.32113">
        <ele>126</ele>
        <time>2023-12-22T09:45:21Z</time>
      </trkpt>
      <trkpt lat="48.15149" lon="3.32113">
        <ele>126</ele>
        <time>2023-12-22T09:45:20Z</time>
      </trkpt>
      <trkpt lat="48.15151" lon="3.32114">
        <ele>126.7</ele>
        <time>2023-12-22T09:45:12Z</time>
      </trkpt>
      <trkpt lat="48.15155" lon="3.3211">
        <ele>128.4</ele>
        <time>2023-12-22T09:45:03Z</time>
      </trkpt>
      <trkpt lat="48.15158" lon="3.32107">
        <ele>129.7</ele>
        <time>2023-12-22T09:44:56Z</time>
      </trkpt>
      <trkpt lat="48.1516" lon="3.32106">
        <ele>130.5</ele>
        <time>2023-12-22T09:44:50Z</time>
      </trkpt>
      <trkpt lat="48.15167" lon="3.32106">
        <ele>133.3</ele>
        <time>2023-12-22T09:44:41Z</time>
      </trkpt>
      <trkpt lat="48.15173" lon="3.32106">
        <ele>135.4</ele>
        <time>2023-12-22T09:44:32Z</time>
      </trkpt>
      <trkpt lat="48.15177" lon="3.32106">
        <ele>136.8</ele>
        <time>2023-12-22T09:44:25Z</time>
      </trkpt>
      <trkpt lat="48.15184" lon="3.32104">
        <ele>139.3</ele>
        <time>2023-12-22T09:44:16Z</time>
      </trkpt>
      <trkpt lat="48.15184" lon="3.32104">
        <ele>139.3</ele>
        <time>2023-12-22T09:44:15Z</time>
      </trkpt>
      <trkpt lat="48.1519" lon="3.32103">
        <ele>141.4</ele>
        <time>2023-12-22T09:44:08Z</time>
      </trkpt>
      <trkpt lat="48.15195" lon="3.32104">
        <ele>143.1</ele>
        <time>2023-12-22T09:44:00Z</time>
      </trkpt>
      <trkpt lat="48.15199" lon="3.32106">
        <ele>143.8</ele>
        <time>2023-12-22T09:43:52Z</time>
      </trkpt>
      <trkpt lat="48.15206" lon="3.32105">
        <ele>145.1</ele>
        <time>2023-12-22T09:43:44Z</time>
      </trkpt>
      <trkpt lat="48.15214" lon="3.32109">
        <ele>146.5</ele>
        <time>2023-12-22T09:43:36Z</time>
      </trkpt>
      <trkpt lat="48.15217" lon="3.32109">
        <ele>147.1</ele>
        <time>2023-12-22T09:43:33Z</time>
      </trkpt>
      <trkpt lat="48.15225" lon="3.32113">
        <ele>148.2</ele>
        <time>2023-12-22T09:43:28Z</time>
      </trkpt>
      <trkpt lat="48.15225" lon="3.32113">
        <ele>148.2</ele>
        <time>2023-12-22T09:43:26Z</time>
      </trkpt>
      <trkpt lat="48.15227" lon="3.32118">
        <ele>148.4</ele>
        <time>2023-12-22T09:43:19Z</time>
      </trkpt>
      <trkpt lat="48.1523" lon="3.32133">
        <ele>149.1</ele>
        <time>2023-12-22T09:43:12Z</time>
      </trkpt>
      <trkpt lat="48.15231" lon="3.32137">
        <ele>149.2</ele>
        <time>2023-12-22T09:43:08Z</time>
      </trkpt>
      <trkpt lat="48.15231" lon="3.3215">
        <ele>149.8</ele>
        <time>2023-12-22T09:43:01Z</time>
      </trkpt>
      <trkpt lat="48.1523" lon="3.32151">
        <ele>149.8</ele>
        <time>2018-12-15T11:56:23Z</time>
      </trkpt>
      <trkpt lat="48.15229" lon="3.32155">
        <ele>150</ele>
        <time>2018-12-15T11:56:22Z</time>
      </trkpt>
      <trkpt lat="48.15227" lon="3.32165">
        <ele>150.3</ele>
        <time>2018-12-15T11:56:20Z</time>
      </trkpt>
      <trkpt lat="48.1523" lon="3.32188">
        <ele>150.8</ele>
        <time>2018-12-15T11:56:15Z</time>
      </trkpt>
      <trkpt lat="48.15241" lon="3.32215">
        <ele>151.8</ele>
        <time>2018-12-15T11:56:08Z</time>
      </trkpt>
      <trkpt lat="48.15245" lon="3.32224">
        <ele>152.2</ele>
        <time>2018-12-15T11:56:04Z</time>
      </trkpt>
      <trkpt lat="48.15255" lon="3.32237">
        <ele>152.7</ele>
        <time>2018-12-15T11:55:59Z</time>
      </trkpt>
      <trkpt lat="48.15266" lon="3.32233">
        <ele>153.4</ele>
        <time>2018-12-15T11:55:56Z</time>
      </trkpt>
      <trkpt lat="48.15269" lon="3.32233">
        <ele>153.6</ele>
        <time>2018-12-15T11:55:55Z</time>
      </trkpt>
      <trkpt lat="48.15284" lon="3.32244">
        <ele>154</ele>
        <time>2018-12-15T11:55:50Z</time>
      </trkpt>
      <trkpt lat="48.15297" lon="3.32259">
        <ele>154.2</ele>
        <time>2018-12-15T11:55:43Z</time>
      </trkpt>
      <trkpt lat="48.15297" lon="3.32262">
        <ele>154.3</ele>
        <time>2018-12-15T11:55:35Z</time>
      </trkpt>
      <trkpt lat="48.15297" lon="3.32274">
        <ele>154.6</ele>
        <time>2018-12-15T11:55:29Z</time>
      </trkpt>
      <trkpt lat="48.15291" lon="3.32281">
        <ele>154.5</ele>
        <time>2018-12-15T11:55:26Z</time>
      </trkpt>
      <trkpt lat="48.15284" lon="3.32294">
        <ele>154.4</ele>
        <time>2018-12-15T11:55:22Z</time>
      </trkpt>
      <trkpt lat="48.1528" lon="3.32306">
        <ele>154.2</ele>
        <time>2018-12-15T11:55:19Z</time>
      </trkpt>
      <trkpt lat="48.15282" lon="3.32327">
        <ele>155.1</ele>
        <time>2018-12-15T11:55:14Z</time>
      </trkpt>
      <trkpt lat="48.15278" lon="3.32338">
        <ele>155.2</ele>
        <time>2018-12-15T11:55:11Z</time>
      </trkpt>
      <trkpt lat="48.15276" lon="3.32341">
        <ele>155.1</ele>
        <time>2018-12-15T11:55:10Z</time>
      </trkpt>
      <trkpt lat="48.15268" lon="3.32357">
        <ele>154.8</ele>
        <time>2018-12-15T11:55:04Z</time>
      </trkpt>
      <trkpt lat="48.15267" lon="3.32361">
        <ele>154.8</ele>
        <time>2018-12-15T11:54:55Z</time>
      </trkpt>
      <trkpt lat="48.15268" lon="3.32373">
        <ele>155.8</ele>
        <time>2018-12-15T11:54:49Z</time>
      </trkpt>
      <trkpt lat="48.15276" lon="3.32386">
        <ele>157.6</ele>
        <time>2018-12-15T11:54:44Z</time>
      </trkpt>
      <trkpt lat="48.15285" lon="3.324">
        <ele>159.3</ele>
        <time>2018-12-15T11:54:39Z</time>
      </trkpt>
      <trkpt lat="48.15285" lon="3.32411">
        <ele>160.1</ele>
        <time>2018-12-15T11:54:34Z</time>
      </trkpt>
      <trkpt lat="48.15285" lon="3.3241">
        <ele>160</ele>
        <time>2018-12-15T11:54:29Z</time>
      </trkpt>
      <trkpt lat="48.15285" lon="3.32414">
        <ele>160.3</ele>
        <time>2018-12-15T11:54:24Z</time>
      </trkpt>
      <trkpt lat="48.15285" lon="3.32426">
        <ele>161.4</ele>
        <time>2018-12-15T11:54:19Z</time>
      </trkpt>
      <trkpt lat="48.15285" lon="3.32448">
        <ele>163.5</ele>
        <time>2018-12-15T11:53:48Z</time>
      </trkpt>
      <trkpt lat="48.15285" lon="3.3245">
        <ele>163.7</ele>
        <time>2018-12-15T11:38:56Z</time>
      </trkpt>
      <trkpt lat="48.15274" lon="3.3245">
        <ele>163</ele>
        <time>2018-12-15T11:38:45Z</time>
      </trkpt>
      <trkpt lat="48.1527" lon="3.32444">
        <ele>162.1</ele>
        <time>2018-12-15T11:38:36Z</time>
      </trkpt>
      <trkpt lat="48.15264" lon="3.32436">
        <ele>160.6</ele>
        <time>2018-12-15T11:38:26Z</time>
      </trkpt>
      <trkpt lat="48.15263" lon="3.32435">
        <ele>160.4</ele>
        <time>2018-12-15T11:38:24Z</time>
      </trkpt>
      <trkpt lat="48.15257" lon="3.32428">
        <ele>159</ele>
        <time>2018-12-15T11:38:15Z</time>
      </trkpt>
      <trkpt lat="48.15256" lon="3.32427">
        <ele>158.8</ele>
        <time>2018-12-15T11:38:14Z</time>
      </trkpt>
      <trkpt lat="48.15252" lon="3.32421">
        <ele>157.7</ele>
        <time>2018-12-15T11:38:06Z</time>
      </trkpt>
      <trkpt lat="48.15247" lon="3.32413">
        <ele>156.3</ele>
        <time>2018-12-15T11:37:57Z</time>
      </trkpt>
      <trkpt lat="48.15241" lon="3.32409">
        <ele>155.2</ele>
        <time>2018-12-15T11:37:48Z</time>
      </trkpt>
      <trkpt lat="48.15234" lon="3.32409">
        <ele>154.1</ele>
        <time>2018-12-15T11:37:40Z</time>
      </trkpt>
      <trkpt lat="48.15228" lon="3.32409">
        <ele>153.3</ele>
        <time>2018-12-15T11:37:32Z</time>
      </trkpt>
      <trkpt lat="48.15223" lon="3.3241">
        <ele>152.6</ele>
        <time>2018-12-15T11:37:24Z</time>
      </trkpt>
      <trkpt lat="48.15218" lon="3.32408">
        <ele>151.6</ele>
        <time>2018-12-15T11:37:16Z</time>
      </trkpt>
      <trkpt lat="48.15212" lon="3.3241">
        <ele>150.6</ele>
        <time>2018-12-15T11:37:06Z</time>
      </trkpt>
      <trkpt lat="48.15206" lon="3.3241">
        <ele>149.5</ele>
        <time>2018-12-15T11:36:58Z</time>
      </trkpt>
      <trkpt lat="48.15203" lon="3.32408">
        <ele>148.7</ele>
        <time>2018-12-15T11:36:51Z</time>
      </trkpt>
      <trkpt lat="48.15197" lon="3.32407">
        <ele>147.4</ele>
        <time>2018-12-15T11:36:43Z</time>
      </trkpt>
      <trkpt lat="48.1519" lon="3.32406">
        <ele>145.8</ele>
        <time>2018-12-15T11:36:32Z</time>
      </trkpt>
      <trkpt lat="48.15185" lon="3.32409">
        <ele>145</ele>
        <time>2018-12-15T11:36:24Z</time>
      </trkpt>
      <trkpt lat="48.15182" lon="3.3241">
        <ele>144.5</ele>
        <time>2018-12-15T11:36:13Z</time>
      </trkpt>
      <trkpt lat="48.15174" lon="3.32412">
        <ele>143</ele>
        <time>2018-12-15T11:36:05Z</time>
      </trkpt>
      <trkpt lat="48.15164" lon="3.32412">
        <ele>140.6</ele>
        <time>2018-12-15T11:35:57Z</time>
      </trkpt>
      <trkpt lat="48.15157" lon="3.32414">
        <ele>138.8</ele>
        <time>2018-12-15T11:35:51Z</time>
      </trkpt>
      <trkpt lat="48.15146" lon="3.32417">
        <ele>136.1</ele>
        <time>2018-12-15T11:35:43Z</time>
      </trkpt>
      <trkpt lat="48.15139" lon="3.3242">
        <ele>134.5</ele>
        <time>2018-12-15T11:35:36Z</time>
      </trkpt>
      <trkpt lat="48.15128" lon="3.32425">
        <ele>132.5</ele>
        <time>2018-12-15T11:35:27Z</time>
      </trkpt>
      <trkpt lat="48.15127" lon="3.32426">
        <ele>132.3</ele>
        <time>2018-12-15T11:35:25Z</time>
      </trkpt>
      <trkpt lat="48.15119" lon="3.32432">
        <ele>131.2</ele>
        <time>2018-12-15T11:35:16Z</time>
      </trkpt>
      <trkpt lat="48.1511" lon="3.32432">
        <ele>128.9</ele>
        <time>2018-12-15T11:35:09Z</time>
      </trkpt>
      <trkpt lat="48.15106" lon="3.32442">
        <ele>129.2</ele>
        <time>2018-12-15T11:35:02Z</time>
      </trkpt>
      <trkpt lat="48.15102" lon="3.32446">
        <ele>128.5</ele>
        <time>2018-12-15T11:34:56Z</time>
      </trkpt>
      <trkpt lat="48.15095" lon="3.32451">
        <ele>127.1</ele>
        <time>2018-12-15T11:34:47Z</time>
      </trkpt>
      <trkpt lat="48.15091" lon="3.32454">
        <ele>126.2</ele>
        <time>2018-12-15T11:34:40Z</time>
      </trkpt>
      <trkpt lat="48.15086" lon="3.32452">
        <ele>124.6</ele>
        <time>2018-12-15T11:34:32Z</time>
      </trkpt>
      <trkpt lat="48.15083" lon="3.32455">
        <ele>124</ele>
        <time>2018-12-15T11:34:25Z</time>
      </trkpt>
      <trkpt lat="48.15072" lon="3.32462">
        <ele>121.4</ele>
        <time>2018-12-15T11:34:16Z</time>
      </trkpt>
      <trkpt lat="48.15064" lon="3.32467">
        <ele>119.3</ele>
        <time>2018-12-15T11:34:09Z</time>
      </trkpt>
      <trkpt lat="48.15062" lon="3.32469">
        <ele>118.8</ele>
        <time>2018-12-15T11:34:07Z</time>
      </trkpt>
      <trkpt lat="48.15058" lon="3.32471">
        <ele>117.7</ele>
        <time>2018-12-15T11:34:03Z</time>
      </trkpt>
      <trkpt lat="48.15049" lon="3.32477">
        <ele>115.5</ele>
        <time>2018-12-15T11:33:56Z</time>
      </trkpt>
      <trkpt lat="48.15038" lon="3.32483">
        <ele>112.7</ele>
        <time>2018-12-15T11:33:47Z</time>
      </trkpt>
      <trkpt lat="48.15034" lon="3.32494">
        <ele>112.4</ele>
        <time>2018-12-15T11:33:41Z</time>
      </trkpt>
      <trkpt lat="48.1503" lon="3.32509">
        <ele>112</ele>
        <time>2018-12-15T11:33:33Z</time>
      </trkpt>
      <trkpt lat="48.15026" lon="3.32523">
        <ele>111.5</ele>
        <time>2018-12-15T11:33:25Z</time>
      </trkpt>
      <trkpt lat="48.15018" lon="3.32534">
        <ele>110.7</ele>
        <time>2018-12-15T11:33:18Z</time>
      </trkpt>
      <trkpt lat="48.15008" lon="3.32548">
        <ele>109.9</ele>
        <time>2018-12-15T11:33:08Z</time>
      </trkpt>
      <trkpt lat="48.15006" lon="3.3255">
        <ele>109.7</ele>
        <time>2018-12-15T11:33:06Z</time>
      </trkpt>
      <trkpt lat="48.14998" lon="3.3256">
        <ele>109.1</ele>
        <time>2018-12-15T11:32:59Z</time>
        <extensions>
          <visugpx:TrkExtension xmlns:visugpx="https://www.visugpx.com/editgpx/">
            <visugpx:node>1</visugpx:node>
            </visugpx:TrkExtension>
        </extensions>
      </trkpt>
    </trkseg>
  </trk>
  <trk>
    <name><![CDATA[Trail8 Boucle n°2]]></name>
    <extensions>
      <line xmlns="http://www.topografix.com/GPX/gpx_style/0/2">
        <color>ff00dd</color>
        <width>5</width>
          <extensions>
            <sens>1</sens>
          </extensions>
      </line>
    </extensions>
    <trkseg>
      <trkpt lat="48.15" lon="3.32555">
        <ele>108.9</ele>
        <time>2023-12-22T08:30:03Z</time>
      </trkpt>
      <trkpt lat="48.15" lon="3.32555">
        <ele>108.9</ele>
        <time>2023-12-22T08:30:04Z</time>
      </trkpt>
      <trkpt lat="48.15" lon="3.32554">
        <ele>109</ele>
        <time>2023-12-22T08:30:05Z</time>
      </trkpt>
      <trkpt lat="48.15009" lon="3.32547">
        <ele>110</ele>
        <time>2023-12-22T08:30:15Z</time>
      </trkpt>
      <trkpt lat="48.15011" lon="3.32546">
        <ele>110.3</ele>
        <time>2023-12-22T08:30:19Z</time>
      </trkpt>
      <trkpt lat="48.15015" lon="3.32539">
        <ele>110.5</ele>
        <time>2023-12-22T08:30:25Z</time>
      </trkpt>
      <trkpt lat="48.15023" lon="3.32528">
        <ele>111.1</ele>
        <time>2023-12-22T08:30:35Z</time>
      </trkpt>
      <trkpt lat="48.15023" lon="3.32524">
        <ele>111</ele>
        <time>2023-12-22T08:30:38Z</time>
      </trkpt>
      <trkpt lat="48.15027" lon="3.32516">
        <ele>111.3</ele>
        <time>2023-12-22T08:30:51Z</time>
      </trkpt>
      <trkpt lat="48.1503" lon="3.32519">
        <ele>112.2</ele>
        <time>2023-12-22T08:31:23Z</time>
      </trkpt>
      <trkpt lat="48.1503" lon="3.32521">
        <ele>112.3</ele>
        <time>2023-12-22T08:31:24Z</time>
      </trkpt>
      <trkpt lat="48.15035" lon="3.32536">
        <ele>114.6</ele>
        <time>2023-12-22T08:31:34Z</time>
      </trkpt>
      <trkpt lat="48.1504" lon="3.32548">
        <ele>116.9</ele>
        <time>2023-12-22T08:31:43Z</time>
      </trkpt>
      <trkpt lat="48.15046" lon="3.32553">
        <ele>118.5</ele>
        <time>2023-12-22T08:35:00Z</time>
      </trkpt>
      <trkpt lat="48.15053" lon="3.32552">
        <ele>120.4</ele>
        <time>2023-12-22T08:35:29Z</time>
      </trkpt>
      <trkpt lat="48.15056" lon="3.32547">
        <ele>121</ele>
        <time>2023-12-22T08:35:34Z</time>
      </trkpt>
      <trkpt lat="48.15061" lon="3.32542">
        <ele>122.9</ele>
        <time>2023-12-22T08:35:42Z</time>
      </trkpt>
      <trkpt lat="48.15063" lon="3.32543">
        <ele>123.3</ele>
        <time>2023-12-22T08:35:44Z</time>
      </trkpt>
      <trkpt lat="48.15066" lon="3.32544">
        <ele>124.4</ele>
        <time>2023-12-22T08:35:50Z</time>
      </trkpt>
      <trkpt lat="48.1507" lon="3.32543">
        <ele>125.8</ele>
        <time>2023-12-22T08:35:57Z</time>
      </trkpt>
      <trkpt lat="48.15074" lon="3.32538">
        <ele>126.6</ele>
        <time>2023-12-22T08:36:03Z</time>
      </trkpt>
      <trkpt lat="48.15076" lon="3.32534">
        <ele>127.2</ele>
        <time>2023-12-22T08:36:09Z</time>
      </trkpt>
      <trkpt lat="48.1508" lon="3.32528">
        <ele>128</ele>
        <time>2023-12-22T08:36:15Z</time>
      </trkpt>
      <trkpt lat="48.15085" lon="3.32522">
        <ele>129.2</ele>
        <time>2023-12-22T08:36:23Z</time>
      </trkpt>
      <trkpt lat="48.15091" lon="3.3251">
        <ele>130.5</ele>
        <time>2023-12-22T08:36:32Z</time>
      </trkpt>
      <trkpt lat="48.15097" lon="3.32501">
        <ele>131.9</ele>
        <time>2023-12-22T08:36:43Z</time>
      </trkpt>
      <trkpt lat="48.15099" lon="3.32489">
        <ele>131.6</ele>
        <time>2023-12-22T08:36:51Z</time>
      </trkpt>
      <trkpt lat="48.15101" lon="3.32476">
        <ele>131.2</ele>
        <time>2023-12-22T08:37:00Z</time>
      </trkpt>
      <trkpt lat="48.15105" lon="3.32463">
        <ele>131.3</ele>
        <time>2023-12-22T08:37:06Z</time>
      </trkpt>
      <trkpt lat="48.15106" lon="3.32462">
        <ele>131.5</ele>
        <time>2023-12-22T08:37:07Z</time>
      </trkpt>
      <trkpt lat="48.15109" lon="3.3246">
        <ele>132</ele>
        <time>2023-12-22T08:37:10Z</time>
      </trkpt>
      <trkpt lat="48.15107" lon="3.32456">
        <ele>131</ele>
        <time>2023-12-22T08:37:16Z</time>
      </trkpt>
      <trkpt lat="48.15114" lon="3.3245">
        <ele>132.3</ele>
        <time>2023-12-22T08:37:23Z</time>
      </trkpt>
      <trkpt lat="48.1512" lon="3.32444">
        <ele>133.1</ele>
        <time>2023-12-22T08:37:29Z</time>
      </trkpt>
      <trkpt lat="48.15124" lon="3.32439">
        <ele>133.5</ele>
        <time>2023-12-22T08:37:36Z</time>
      </trkpt>
      <trkpt lat="48.15127" lon="3.32434">
        <ele>133.4</ele>
        <time>2023-12-22T08:37:41Z</time>
      </trkpt>
      <trkpt lat="48.15131" lon="3.32426">
        <ele>133.3</ele>
        <time>2023-12-22T08:37:50Z</time>
      </trkpt>
      <trkpt lat="48.15133" lon="3.32432">
        <ele>134.9</ele>
        <time>2023-12-22T08:37:58Z</time>
      </trkpt>
      <trkpt lat="48.15133" lon="3.32433">
        <ele>134.9</ele>
        <time>2023-12-22T08:37:59Z</time>
      </trkpt>
      <trkpt lat="48.15131" lon="3.32446">
        <ele>136.1</ele>
        <time>2023-12-22T08:38:08Z</time>
      </trkpt>
      <trkpt lat="48.15134" lon="3.3245">
        <ele>137.3</ele>
        <time>2023-12-22T08:38:14Z</time>
      </trkpt>
      <trkpt lat="48.15138" lon="3.3245">
        <ele>138.3</ele>
        <time>2023-12-22T08:38:18Z</time>
      </trkpt>
      <trkpt lat="48.15142" lon="3.32449">
        <ele>139.2</ele>
        <time>2023-12-22T08:38:25Z</time>
      </trkpt>
      <trkpt lat="48.15145" lon="3.32445">
        <ele>139.5</ele>
        <time>2023-12-22T08:38:32Z</time>
      </trkpt>
      <trkpt lat="48.15151" lon="3.3244">
        <ele>140.4</ele>
        <time>2023-12-22T08:38:39Z</time>
      </trkpt>
      <trkpt lat="48.1516" lon="3.32436">
        <ele>142.2</ele>
        <time>2023-12-22T08:38:48Z</time>
      </trkpt>
      <trkpt lat="48.15168" lon="3.32428">
        <ele>143.4</ele>
        <time>2023-12-22T08:38:56Z</time>
      </trkpt>
      <trkpt lat="48.15174" lon="3.32426">
        <ele>144.6</ele>
        <time>2023-12-22T08:39:06Z</time>
      </trkpt>
      <trkpt lat="48.15177" lon="3.32429">
        <ele>145.4</ele>
        <time>2023-12-22T08:39:09Z</time>
      </trkpt>
      <trkpt lat="48.15182" lon="3.32435">
        <ele>146.9</ele>
        <time>2023-12-22T08:39:16Z</time>
      </trkpt>
      <trkpt lat="48.15185" lon="3.32438">
        <ele>147.8</ele>
        <time>2023-12-22T08:39:23Z</time>
      </trkpt>
      <trkpt lat="48.15185" lon="3.32438">
        <ele>147.8</ele>
        <time>2023-12-22T08:39:25Z</time>
      </trkpt>
      <trkpt lat="48.1519" lon="3.32437">
        <ele>148.6</ele>
        <time>2023-12-22T08:39:30Z</time>
      </trkpt>
      <trkpt lat="48.15196" lon="3.32438">
        <ele>149.8</ele>
        <time>2023-12-22T08:39:38Z</time>
      </trkpt>
      <trkpt lat="48.152" lon="3.32435">
        <ele>150.3</ele>
        <time>2023-12-22T08:39:43Z</time>
      </trkpt>
      <trkpt lat="48.15204" lon="3.32434">
        <ele>151</ele>
        <time>2023-12-22T08:39:47Z</time>
      </trkpt>
      <trkpt lat="48.15206" lon="3.32436">
        <ele>151.5</ele>
        <time>2023-12-22T08:39:51Z</time>
      </trkpt>
      <trkpt lat="48.15208" lon="3.32439">
        <ele>152</ele>
        <time>2023-12-22T08:39:54Z</time>
      </trkpt>
      <trkpt lat="48.15213" lon="3.32442">
        <ele>153.2</ele>
        <time>2023-12-22T08:40:02Z</time>
      </trkpt>
      <trkpt lat="48.15216" lon="3.32441">
        <ele>153.6</ele>
        <time>2023-12-22T08:40:11Z</time>
      </trkpt>
      <trkpt lat="48.15217" lon="3.32441">
        <ele>153.8</ele>
        <time>2023-12-22T08:40:17Z</time>
      </trkpt>
      <trkpt lat="48.1522" lon="3.32448">
        <ele>154.9</ele>
        <time>2023-12-22T08:40:26Z</time>
      </trkpt>
      <trkpt lat="48.15229" lon="3.32455">
        <ele>156.8</ele>
        <time>2023-12-22T08:40:35Z</time>
      </trkpt>
      <trkpt lat="48.1523" lon="3.32455">
        <ele>157</ele>
        <time>2023-12-22T08:40:36Z</time>
      </trkpt>
      <trkpt lat="48.15235" lon="3.32463">
        <ele>158.3</ele>
        <time>2023-12-22T08:40:44Z</time>
      </trkpt>
      <trkpt lat="48.15237" lon="3.32462">
        <ele>158.6</ele>
        <time>2023-12-22T08:40:52Z</time>
      </trkpt>
      <trkpt lat="48.15241" lon="3.32467">
        <ele>159.5</ele>
        <time>2023-12-22T08:40:58Z</time>
      </trkpt>
      <trkpt lat="48.15245" lon="3.32472">
        <ele>160.3</ele>
        <time>2023-12-22T08:41:05Z</time>
      </trkpt>
      <trkpt lat="48.15251" lon="3.32482">
        <ele>162.3</ele>
        <time>2023-12-22T08:41:13Z</time>
      </trkpt>
      <trkpt lat="48.15256" lon="3.32483">
        <ele>162.9</ele>
        <time>2023-12-22T08:41:20Z</time>
      </trkpt>
      <trkpt lat="48.15261" lon="3.32481">
        <ele>163.5</ele>
        <time>2023-12-22T08:41:26Z</time>
      </trkpt>
      <trkpt lat="48.15263" lon="3.32484">
        <ele>163.9</ele>
        <time>2023-12-22T08:41:30Z</time>
      </trkpt>
      <trkpt lat="48.15266" lon="3.32491">
        <ele>164.9</ele>
        <time>2023-12-22T08:41:37Z</time>
      </trkpt>
      <trkpt lat="48.15267" lon="3.32498">
        <ele>165.6</ele>
        <time>2023-12-22T08:41:45Z</time>
      </trkpt>
      <trkpt lat="48.15263" lon="3.32504">
        <ele>165.6</ele>
        <time>2023-12-22T08:41:52Z</time>
      </trkpt>
      <trkpt lat="48.15264" lon="3.32512">
        <ele>166.1</ele>
        <time>2023-12-22T08:41:59Z</time>
      </trkpt>
      <trkpt lat="48.15264" lon="3.32519">
        <ele>166.5</ele>
        <time>2023-12-22T08:42:05Z</time>
      </trkpt>
      <trkpt lat="48.15264" lon="3.32523">
        <ele>166.7</ele>
        <time>2023-12-22T08:42:08Z</time>
      </trkpt>
      <trkpt lat="48.15263" lon="3.32527">
        <ele>166.9</ele>
        <time>2023-12-22T08:42:11Z</time>
      </trkpt>
      <trkpt lat="48.15257" lon="3.32536">
        <ele>167.1</ele>
        <time>2023-12-22T08:42:19Z</time>
      </trkpt>
      <trkpt lat="48.15254" lon="3.32547">
        <ele>167.7</ele>
        <time>2023-12-22T08:42:26Z</time>
      </trkpt>
      <trkpt lat="48.15256" lon="3.32553">
        <ele>168.2</ele>
        <time>2023-12-22T08:42:31Z</time>
      </trkpt>
      <trkpt lat="48.15255" lon="3.32562">
        <ele>168.8</ele>
        <time>2023-12-22T08:42:38Z</time>
      </trkpt>
      <trkpt lat="48.15251" lon="3.32575">
        <ele>169.5</ele>
        <time>2023-12-22T08:42:46Z</time>
      </trkpt>
      <trkpt lat="48.15249" lon="3.32582">
        <ele>169.8</ele>
        <time>2023-12-22T08:42:50Z</time>
      </trkpt>
      <trkpt lat="48.1525" lon="3.32592">
        <ele>170.3</ele>
        <time>2023-12-22T08:42:56Z</time>
      </trkpt>
      <trkpt lat="48.1525" lon="3.32602">
        <ele>170.7</ele>
        <time>2023-12-22T08:43:02Z</time>
      </trkpt>
      <trkpt lat="48.15252" lon="3.32612">
        <ele>171.1</ele>
      </trkpt>
      <trkpt lat="48.15251" lon="3.32619">
        <ele>171.3</ele>
        <time>2023-12-22T08:43:25Z</time>
      </trkpt>
      <trkpt lat="48.15251" lon="3.32635">
        <ele>171.9</ele>
        <time>2023-12-22T08:43:35Z</time>
      </trkpt>
      <trkpt lat="48.15249" lon="3.32643">
        <ele>172</ele>
        <time>2023-12-22T08:43:42Z</time>
      </trkpt>
      <trkpt lat="48.15249" lon="3.32644">
        <ele>172</ele>
      </trkpt>
      <trkpt lat="48.15249" lon="3.32648">
        <ele>172.2</ele>
        <time>2023-10-29T16:20:47Z</time>
      </trkpt>
      <trkpt lat="48.15248" lon="3.32653">
        <ele>172.3</ele>
        <time>2023-10-29T16:20:41Z</time>
      </trkpt>
      <trkpt lat="48.15249" lon="3.32653">
        <ele>172.4</ele>
        <time>2023-10-29T16:20:36Z</time>
      </trkpt>
      <trkpt lat="48.15242" lon="3.32653">
        <ele>171.5</ele>
        <time>2023-10-29T16:20:29Z</time>
      </trkpt>
      <trkpt lat="48.15235" lon="3.32656">
        <ele>170.7</ele>
        <time>2023-10-29T16:20:21Z</time>
      </trkpt>
      <trkpt lat="48.1523" lon="3.32662">
        <ele>170.1</ele>
        <time>2023-10-29T16:20:12Z</time>
      </trkpt>
      <trkpt lat="48.15226" lon="3.32664">
        <ele>169.5</ele>
        <time>2023-10-29T16:20:05Z</time>
      </trkpt>
      <trkpt lat="48.15219" lon="3.32663">
        <ele>168.3</ele>
        <time>2023-10-29T16:19:57Z</time>
      </trkpt>
      <trkpt lat="48.15214" lon="3.32666">
        <ele>167.2</ele>
        <time>2023-10-29T16:19:49Z</time>
      </trkpt>
      <trkpt lat="48.1521" lon="3.32659">
        <ele>166.2</ele>
        <time>2023-10-29T16:19:41Z</time>
      </trkpt>
      <trkpt lat="48.15204" lon="3.32653">
        <ele>164.7</ele>
        <time>2023-10-29T16:19:34Z</time>
      </trkpt>
      <trkpt lat="48.15198" lon="3.32652">
        <ele>163.3</ele>
        <time>2023-10-29T16:19:26Z</time>
      </trkpt>
      <trkpt lat="48.1519" lon="3.32656">
        <ele>161.3</ele>
        <time>2023-10-29T16:19:17Z</time>
      </trkpt>
      <trkpt lat="48.15183" lon="3.32667">
        <ele>159.3</ele>
        <time>2023-10-29T16:19:08Z</time>
      </trkpt>
      <trkpt lat="48.1518" lon="3.32675">
        <ele>158.2</ele>
        <time>2023-10-29T16:19:01Z</time>
      </trkpt>
      <trkpt lat="48.15176" lon="3.32689">
        <ele>156.8</ele>
        <time>2023-10-29T16:18:51Z</time>
      </trkpt>
      <trkpt lat="48.15176" lon="3.32695">
        <ele>156.7</ele>
        <time>2023-10-29T16:18:47Z</time>
      </trkpt>
      <trkpt lat="48.1518" lon="3.32706">
        <ele>157.8</ele>
        <time>2023-10-29T16:18:39Z</time>
      </trkpt>
      <trkpt lat="48.15182" lon="3.32716">
        <ele>158.4</ele>
        <time>2023-10-29T16:18:31Z</time>
      </trkpt>
      <trkpt lat="48.15183" lon="3.32723">
        <ele>158.7</ele>
        <time>2023-10-29T16:18:26Z</time>
      </trkpt>
      <trkpt lat="48.15177" lon="3.32733">
        <ele>157</ele>
        <time>2023-10-29T16:18:19Z</time>
      </trkpt>
      <trkpt lat="48.15174" lon="3.32741">
        <ele>156.1</ele>
        <time>2023-10-29T16:18:13Z</time>
      </trkpt>
      <trkpt lat="48.15173" lon="3.32751">
        <ele>155.9</ele>
        <time>2023-10-29T16:18:07Z</time>
      </trkpt>
      <trkpt lat="48.1517" lon="3.32762">
        <ele>155.4</ele>
        <time>2023-10-29T16:17:59Z</time>
      </trkpt>
      <trkpt lat="48.1517" lon="3.32774">
        <ele>155.8</ele>
        <time>2023-10-29T16:17:51Z</time>
      </trkpt>
      <trkpt lat="48.15171" lon="3.32782">
        <ele>156.4</ele>
        <time>2023-10-29T16:17:44Z</time>
      </trkpt>
      <trkpt lat="48.15173" lon="3.32793">
        <ele>157.2</ele>
        <time>2023-10-29T16:17:35Z</time>
      </trkpt>
      <trkpt lat="48.15178" lon="3.32801">
        <ele>158.8</ele>
        <time>2023-10-29T16:17:27Z</time>
      </trkpt>
      <trkpt lat="48.15179" lon="3.3281">
        <ele>159.3</ele>
        <time>2023-10-29T16:17:18Z</time>
      </trkpt>
      <trkpt lat="48.15176" lon="3.32823">
        <ele>159</ele>
        <time>2023-10-29T16:17:10Z</time>
      </trkpt>
      <trkpt lat="48.15173" lon="3.3283">
        <ele>158.5</ele>
        <time>2023-10-29T16:17:04Z</time>
      </trkpt>
      <trkpt lat="48.15167" lon="3.32838">
        <ele>157.3</ele>
        <time>2023-10-29T16:16:55Z</time>
      </trkpt>
      <trkpt lat="48.15163" lon="3.32846">
        <ele>156.5</ele>
        <time>2023-10-29T16:16:48Z</time>
      </trkpt>
      <trkpt lat="48.15159" lon="3.3286">
        <ele>156</ele>
        <time>2023-10-29T16:16:39Z</time>
      </trkpt>
      <trkpt lat="48.15157" lon="3.3287">
        <ele>155.9</ele>
        <time>2023-10-29T16:16:30Z</time>
      </trkpt>
      <trkpt lat="48.15156" lon="3.32877">
        <ele>155.9</ele>
        <time>2023-10-29T16:16:22Z</time>
      </trkpt>
      <trkpt lat="48.15153" lon="3.32892">
        <ele>155.7</ele>
        <time>2023-10-29T16:16:13Z</time>
      </trkpt>
      <trkpt lat="48.15153" lon="3.32894">
        <ele>155.8</ele>
        <time>2023-10-29T16:16:11Z</time>
      </trkpt>
      <trkpt lat="48.15151" lon="3.32908">
        <ele>156.1</ele>
        <time>2023-10-29T16:16:01Z</time>
      </trkpt>
      <trkpt lat="48.15151" lon="3.32925">
        <ele>156.9</ele>
        <time>2023-10-29T16:15:51Z</time>
      </trkpt>
      <trkpt lat="48.15148" lon="3.32934">
        <ele>156.6</ele>
        <time>2023-10-29T16:15:42Z</time>
      </trkpt>
      <trkpt lat="48.15144" lon="3.32943">
        <ele>156.1</ele>
        <time>2023-10-29T16:15:32Z</time>
      </trkpt>
      <trkpt lat="48.15136" lon="3.32948">
        <ele>154.6</ele>
        <time>2023-10-29T16:15:22Z</time>
      </trkpt>
      <trkpt lat="48.15131" lon="3.32957">
        <ele>154.2</ele>
        <time>2023-10-29T16:15:12Z</time>
      </trkpt>
      <trkpt lat="48.1513" lon="3.32957">
        <ele>154</ele>
        <time>2023-10-29T16:15:01Z</time>
      </trkpt>
      <trkpt lat="48.15123" lon="3.32963">
        <ele>152.9</ele>
        <time>2023-10-29T16:14:48Z</time>
      </trkpt>
      <trkpt lat="48.15116" lon="3.32962">
        <ele>151.3</ele>
        <time>2023-10-29T16:14:38Z</time>
      </trkpt>
      <trkpt lat="48.15107" lon="3.32956">
        <ele>149.4</ele>
        <time>2023-10-29T16:14:28Z</time>
      </trkpt>
      <trkpt lat="48.15101" lon="3.32952">
        <ele>148.6</ele>
        <time>2023-10-29T16:14:20Z</time>
      </trkpt>
      <trkpt lat="48.15096" lon="3.32944">
        <ele>147.3</ele>
        <time>2023-10-29T16:14:10Z</time>
      </trkpt>
      <trkpt lat="48.15094" lon="3.32941">
        <ele>146.8</ele>
        <time>2023-10-29T16:14:02Z</time>
      </trkpt>
      <trkpt lat="48.15092" lon="3.32938">
        <ele>146.3</ele>
        <time>2023-10-29T16:13:57Z</time>
      </trkpt>
      <trkpt lat="48.15088" lon="3.32932">
        <ele>145.2</ele>
        <time>2023-10-29T16:13:49Z</time>
      </trkpt>
      <trkpt lat="48.15082" lon="3.32926">
        <ele>144.1</ele>
        <time>2023-10-29T16:13:32Z</time>
      </trkpt>
      <trkpt lat="48.15084" lon="3.32905">
        <ele>141.8</ele>
      </trkpt>
      <trkpt lat="48.15075" lon="3.32813">
        <ele>132.4</ele>
      </trkpt>
      <trkpt lat="48.15065" lon="3.32774">
        <ele>127.5</ele>
      </trkpt>
      <trkpt lat="48.15054" lon="3.32753">
        <ele>124.2</ele>
      </trkpt>
      <trkpt lat="48.15044" lon="3.32723">
        <ele>122.2</ele>
      </trkpt>
      <trkpt lat="48.15038" lon="3.32702">
        <ele>120.5</ele>
      </trkpt>
      <trkpt lat="48.15023" lon="3.32642">
        <ele>116.8</ele>
      </trkpt>
      <trkpt lat="48.15014" lon="3.32608">
        <ele>114.3</ele>
      </trkpt>
      <trkpt lat="48.15005" lon="3.32589">
        <ele>112.1</ele>
      </trkpt>
      <trkpt lat="48.14999" lon="3.32568">
        <ele>109.8</ele>
      </trkpt>
      <trkpt lat="48.15" lon="3.32552">
        <ele>108.7</ele>
        <extensions>
          <visugpx:TrkExtension xmlns:visugpx="https://www.visugpx.com/editgpx/">
            <visugpx:node>1</visugpx:node>
            </visugpx:TrkExtension>
        </extensions>
      </trkpt>
    </trkseg>
  </trk>
  <trk>
    <name><![CDATA[VTT9]]></name>
    <extensions>
      <line xmlns="http://www.topografix.com/GPX/gpx_style/0/2">
        <color>0000ff</color>
        <width>5</width>
      </line>
    </extensions>
    <trkseg>
      <trkpt lat="48.15002" lon="3.32549">
        <ele>108.9</ele>
        <time>2024-01-20T12:00:51Z</time>
      </trkpt>
      <trkpt lat="48.15003" lon="3.32548">
        <ele>109</ele>
        <time>2024-01-20T12:00:39Z</time>
      </trkpt>
      <trkpt lat="48.15013" lon="3.3254">
        <ele>110.2</ele>
        <time>2024-01-20T12:00:34Z</time>
      </trkpt>
      <trkpt lat="48.15024" lon="3.32526">
        <ele>111.2</ele>
        <time>2024-01-20T12:00:29Z</time>
      </trkpt>
      <trkpt lat="48.15037" lon="3.32497">
        <ele>113.4</ele>
        <time>2024-01-20T12:00:22Z</time>
      </trkpt>
      <trkpt lat="48.15045" lon="3.32479">
        <ele>114.4</ele>
        <time>2024-01-20T12:00:16Z</time>
      </trkpt>
      <trkpt lat="48.15046" lon="3.32477">
        <ele>114.6</ele>
        <time>2024-01-20T12:00:14Z</time>
      </trkpt>
      <trkpt lat="48.15048" lon="3.32475">
        <ele>115</ele>
        <time>2024-01-20T12:00:13Z</time>
      </trkpt>
      <trkpt lat="48.15056" lon="3.32471">
        <ele>117.1</ele>
        <time>2024-01-20T12:00:10Z</time>
      </trkpt>
      <trkpt lat="48.15066" lon="3.32466">
        <ele>119.9</ele>
        <time>2024-01-20T12:00:07Z</time>
      </trkpt>
      <trkpt lat="48.15069" lon="3.32464">
        <ele>120.6</ele>
        <time>2024-01-20T12:00:01Z</time>
      </trkpt>
      <trkpt lat="48.15073" lon="3.32461">
        <ele>121.6</ele>
        <time>2024-01-20T11:59:55Z</time>
      </trkpt>
      <trkpt lat="48.15081" lon="3.32453">
        <ele>123.2</ele>
        <time>2024-01-20T11:59:49Z</time>
      </trkpt>
      <trkpt lat="48.15097" lon="3.32449">
        <ele>127.4</ele>
        <time>2024-01-20T11:59:43Z</time>
      </trkpt>
      <trkpt lat="48.15105" lon="3.32445">
        <ele>129.3</ele>
        <time>2024-01-20T11:59:39Z</time>
      </trkpt>
      <trkpt lat="48.15113" lon="3.32438">
        <ele>130.5</ele>
        <time>2024-01-20T11:59:33Z</time>
      </trkpt>
      <trkpt lat="48.15124" lon="3.32423">
        <ele>131.2</ele>
        <time>2024-01-20T11:59:28Z</time>
      </trkpt>
      <trkpt lat="48.15134" lon="3.32421">
        <ele>133.4</ele>
        <time>2024-01-20T11:59:24Z</time>
      </trkpt>
      <trkpt lat="48.15139" lon="3.32416">
        <ele>133.9</ele>
        <time>2024-01-20T11:59:17Z</time>
      </trkpt>
      <trkpt lat="48.15154" lon="3.32425">
        <ele>139.4</ele>
        <time>2024-01-20T11:59:09Z</time>
      </trkpt>
      <trkpt lat="48.15166" lon="3.32423">
        <ele>142.5</ele>
        <time>2024-01-20T11:59:04Z</time>
      </trkpt>
      <trkpt lat="48.15185" lon="3.32415">
        <ele>145.8</ele>
        <time>2024-01-20T11:58:59Z</time>
      </trkpt>
      <trkpt lat="48.15196" lon="3.32414">
        <ele>148</ele>
        <time>2024-01-20T11:58:56Z</time>
      </trkpt>
      <trkpt lat="48.15211" lon="3.32407">
        <ele>150.1</ele>
        <time>2024-01-20T11:58:51Z</time>
      </trkpt>
      <trkpt lat="48.15234" lon="3.32415">
        <ele>154.6</ele>
        <time>2024-01-20T11:58:47Z</time>
      </trkpt>
      <trkpt lat="48.15249" lon="3.32417">
        <ele>156.9</ele>
        <time>2024-01-20T11:58:42Z</time>
      </trkpt>
      <trkpt lat="48.15255" lon="3.32416">
        <ele>157.5</ele>
        <time>2024-01-20T11:58:40Z</time>
      </trkpt>
      <trkpt lat="48.15268" lon="3.32418">
        <ele>159.1</ele>
        <time>2024-01-20T11:58:36Z</time>
      </trkpt>
      <trkpt lat="48.15274" lon="3.3242">
        <ele>160</ele>
        <time>2024-01-20T11:58:34Z</time>
      </trkpt>
      <trkpt lat="48.15279" lon="3.32425">
        <ele>161</ele>
        <time>2024-01-20T11:58:32Z</time>
      </trkpt>
      <trkpt lat="48.15282" lon="3.32428">
        <ele>161.5</ele>
        <time>2024-01-20T11:58:31Z</time>
      </trkpt>
      <trkpt lat="48.15292" lon="3.32445">
        <ele>163.6</ele>
        <time>2024-01-20T11:58:26Z</time>
      </trkpt>
      <trkpt lat="48.15294" lon="3.3245">
        <ele>164</ele>
        <time>2024-01-20T11:58:24Z</time>
      </trkpt>
      <trkpt lat="48.15299" lon="3.32458">
        <ele>164.7</ele>
        <time>2024-01-20T11:58:21Z</time>
      </trkpt>
      <trkpt lat="48.15306" lon="3.32465">
        <ele>165.5</ele>
        <time>2024-01-20T11:58:17Z</time>
      </trkpt>
      <trkpt lat="48.15313" lon="3.32466">
        <ele>165.3</ele>
        <time>2024-01-20T11:58:14Z</time>
      </trkpt>
      <trkpt lat="48.15316" lon="3.32479">
        <ele>166.2</ele>
        <time>2024-01-20T11:58:08Z</time>
      </trkpt>
      <trkpt lat="48.15327" lon="3.32498">
        <ele>167.8</ele>
        <time>2024-01-20T11:58:03Z</time>
      </trkpt>
      <trkpt lat="48.15335" lon="3.32511">
        <ele>168.4</ele>
        <time>2024-01-20T11:58:00Z</time>
      </trkpt>
      <trkpt lat="48.15354" lon="3.32539">
        <ele>169.5</ele>
        <time>2024-01-20T11:57:53Z</time>
      </trkpt>
      <trkpt lat="48.15369" lon="3.32555">
        <ele>169.7</ele>
        <time>2024-01-20T11:57:49Z</time>
      </trkpt>
      <trkpt lat="48.15381" lon="3.32571">
        <ele>170.4</ele>
        <time>2024-01-20T11:57:45Z</time>
      </trkpt>
      <trkpt lat="48.15394" lon="3.32585">
        <ele>170.7</ele>
        <time>2024-01-20T11:57:41Z</time>
      </trkpt>
      <trkpt lat="48.15397" lon="3.32589">
        <ele>170.7</ele>
        <time>2024-01-20T11:57:40Z</time>
      </trkpt>
      <trkpt lat="48.15416" lon="3.3261">
        <ele>170.9</ele>
        <time>2024-01-20T11:57:34Z</time>
      </trkpt>
      <trkpt lat="48.15435" lon="3.32632">
        <ele>171.1</ele>
        <time>2024-01-20T11:57:27Z</time>
      </trkpt>
      <trkpt lat="48.15454" lon="3.32656">
        <ele>170.5</ele>
        <time>2024-01-20T11:57:20Z</time>
      </trkpt>
      <trkpt lat="48.15467" lon="3.32671">
        <ele>170.2</ele>
        <time>2024-01-20T11:57:15Z</time>
      </trkpt>
      <trkpt lat="48.15478" lon="3.32694">
        <ele>169.8</ele>
        <time>2024-01-20T11:57:09Z</time>
      </trkpt>
      <trkpt lat="48.15497" lon="3.32717">
        <ele>169.2</ele>
        <time>2024-01-20T11:57:02Z</time>
      </trkpt>
      <trkpt lat="48.15514" lon="3.32727">
        <ele>168.7</ele>
        <time>2024-01-20T11:56:58Z</time>
      </trkpt>
      <trkpt lat="48.15532" lon="3.32748">
        <ele>168.8</ele>
        <time>2024-01-20T11:56:52Z</time>
      </trkpt>
      <trkpt lat="48.15552" lon="3.32769">
        <ele>168.8</ele>
        <time>2024-01-20T11:56:46Z</time>
      </trkpt>
      <trkpt lat="48.15577" lon="3.32797">
        <ele>168.1</ele>
        <time>2024-01-20T11:56:39Z</time>
      </trkpt>
      <trkpt lat="48.15592" lon="3.32818">
        <ele>168.1</ele>
        <time>2024-01-20T11:56:34Z</time>
      </trkpt>
      <trkpt lat="48.15613" lon="3.32844">
        <ele>168.7</ele>
        <time>2024-01-20T11:56:27Z</time>
      </trkpt>
      <trkpt lat="48.15633" lon="3.32871">
        <ele>169.5</ele>
        <time>2024-01-20T11:56:20Z</time>
      </trkpt>
      <trkpt lat="48.15647" lon="3.3289">
        <ele>169.7</ele>
        <time>2024-01-20T11:56:14Z</time>
      </trkpt>
      <trkpt lat="48.15664" lon="3.32913">
        <ele>170</ele>
        <time>2024-01-20T11:56:07Z</time>
      </trkpt>
      <trkpt lat="48.15685" lon="3.32938">
        <ele>170.1</ele>
        <time>2024-01-20T11:56:00Z</time>
      </trkpt>
      <trkpt lat="48.15702" lon="3.32958">
        <ele>170.2</ele>
        <time>2024-01-20T11:55:53Z</time>
      </trkpt>
      <trkpt lat="48.15714" lon="3.32974">
        <ele>170.3</ele>
        <time>2024-01-20T11:55:47Z</time>
      </trkpt>
      <trkpt lat="48.1572" lon="3.32981">
        <ele>170.1</ele>
        <time>2024-01-20T11:55:40Z</time>
      </trkpt>
      <trkpt lat="48.15721" lon="3.32979">
        <ele>170</ele>
        <time>2024-01-20T11:55:28Z</time>
      </trkpt>
      <trkpt lat="48.15723" lon="3.32982">
        <ele>170</ele>
        <time>2024-01-20T11:55:24Z</time>
      </trkpt>
      <trkpt lat="48.15738" lon="3.32999">
        <ele>170</ele>
        <time>2024-01-20T11:55:16Z</time>
      </trkpt>
      <trkpt lat="48.15744" lon="3.33007">
        <ele>170.1</ele>
        <time>2024-01-20T11:55:11Z</time>
      </trkpt>
      <trkpt lat="48.1575" lon="3.33009">
        <ele>170</ele>
        <time>2024-01-20T11:55:08Z</time>
      </trkpt>
      <trkpt lat="48.15765" lon="3.33011">
        <ele>169.1</ele>
        <time>2024-01-20T11:55:00Z</time>
      </trkpt>
      <trkpt lat="48.15783" lon="3.33004">
        <ele>168</ele>
        <time>2024-01-20T11:54:52Z</time>
      </trkpt>
      <trkpt lat="48.15797" lon="3.32999">
        <ele>167.3</ele>
        <time>2024-01-20T11:54:45Z</time>
      </trkpt>
      <trkpt lat="48.15809" lon="3.32995">
        <ele>166.6</ele>
        <time>2024-01-20T11:54:38Z</time>
      </trkpt>
      <trkpt lat="48.1582" lon="3.32986">
        <ele>165.7</ele>
        <time>2024-01-20T11:54:31Z</time>
      </trkpt>
      <trkpt lat="48.15826" lon="3.32979">
        <ele>165.3</ele>
        <time>2024-01-20T11:54:25Z</time>
      </trkpt>
      <trkpt lat="48.15839" lon="3.32966">
        <ele>164.4</ele>
        <time>2024-01-20T11:54:17Z</time>
      </trkpt>
      <trkpt lat="48.15848" lon="3.32953">
        <ele>163.3</ele>
        <time>2024-01-20T11:54:11Z</time>
      </trkpt>
      <trkpt lat="48.15858" lon="3.32937">
        <ele>162</ele>
        <time>2024-01-20T11:54:03Z</time>
      </trkpt>
      <trkpt lat="48.15863" lon="3.32929">
        <ele>161.3</ele>
        <time>2024-01-20T11:53:59Z</time>
      </trkpt>
      <trkpt lat="48.15864" lon="3.32924">
        <ele>161.1</ele>
        <time>2024-01-20T11:53:56Z</time>
      </trkpt>
      <trkpt lat="48.15871" lon="3.32911">
        <ele>160.4</ele>
        <time>2024-01-20T11:53:49Z</time>
      </trkpt>
      <trkpt lat="48.15881" lon="3.32898">
        <ele>159.1</ele>
        <time>2024-01-20T11:53:41Z</time>
      </trkpt>
      <trkpt lat="48.15892" lon="3.32884">
        <ele>157.6</ele>
        <time>2024-01-20T11:53:32Z</time>
      </trkpt>
      <trkpt lat="48.15898" lon="3.32873">
        <ele>156.8</ele>
        <time>2024-01-20T11:53:25Z</time>
      </trkpt>
      <trkpt lat="48.15904" lon="3.32864">
        <ele>156</ele>
        <time>2024-01-20T11:53:20Z</time>
      </trkpt>
      <trkpt lat="48.15912" lon="3.32852">
        <ele>155</ele>
        <time>2024-01-20T11:53:12Z</time>
      </trkpt>
      <trkpt lat="48.15919" lon="3.3284">
        <ele>154.1</ele>
        <time>2024-01-20T11:53:05Z</time>
      </trkpt>
      <trkpt lat="48.15929" lon="3.32829">
        <ele>152.9</ele>
        <time>2024-01-20T11:52:57Z</time>
      </trkpt>
      <trkpt lat="48.15941" lon="3.32817">
        <ele>151.1</ele>
        <time>2024-01-20T11:52:49Z</time>
      </trkpt>
      <trkpt lat="48.15949" lon="3.32809">
        <ele>150.1</ele>
        <time>2024-01-20T11:52:43Z</time>
      </trkpt>
      <trkpt lat="48.15959" lon="3.32799">
        <ele>149.1</ele>
        <time>2024-01-20T11:52:36Z</time>
      </trkpt>
      <trkpt lat="48.1597" lon="3.32789">
        <ele>147.9</ele>
        <time>2024-01-20T11:52:27Z</time>
      </trkpt>
      <trkpt lat="48.15979" lon="3.32779">
        <ele>146.6</ele>
        <time>2024-01-20T11:52:19Z</time>
      </trkpt>
      <trkpt lat="48.15985" lon="3.32771">
        <ele>145.8</ele>
        <time>2024-01-20T11:52:12Z</time>
      </trkpt>
      <trkpt lat="48.15993" lon="3.32762">
        <ele>144.9</ele>
        <time>2024-01-20T11:52:04Z</time>
      </trkpt>
      <trkpt lat="48.15997" lon="3.32757">
        <ele>144.5</ele>
        <time>2024-01-20T11:52:00Z</time>
      </trkpt>
      <trkpt lat="48.16005" lon="3.32747">
        <ele>143.3</ele>
        <time>2024-01-20T11:51:52Z</time>
      </trkpt>
      <trkpt lat="48.16013" lon="3.32736">
        <ele>141.8</ele>
        <time>2024-01-20T11:51:44Z</time>
      </trkpt>
      <trkpt lat="48.16022" lon="3.32723">
        <ele>140.4</ele>
        <time>2024-01-20T11:51:36Z</time>
      </trkpt>
      <trkpt lat="48.16031" lon="3.32714">
        <ele>139.1</ele>
        <time>2024-01-20T11:51:30Z</time>
      </trkpt>
      <trkpt lat="48.1604" lon="3.32704">
        <ele>137.7</ele>
        <time>2024-01-20T11:51:24Z</time>
      </trkpt>
      <trkpt lat="48.1605" lon="3.32692">
        <ele>136.3</ele>
        <time>2024-01-20T11:51:17Z</time>
      </trkpt>
      <trkpt lat="48.16061" lon="3.32678">
        <ele>135.2</ele>
        <time>2024-01-20T11:51:08Z</time>
      </trkpt>
      <trkpt lat="48.16067" lon="3.32667">
        <ele>134.6</ele>
        <time>2024-01-20T11:51:01Z</time>
      </trkpt>
      <trkpt lat="48.1607" lon="3.32664">
        <ele>134.3</ele>
        <time>2024-01-20T11:50:58Z</time>
      </trkpt>
      <trkpt lat="48.16074" lon="3.32659">
        <ele>134</ele>
        <time>2024-01-20T11:50:54Z</time>
      </trkpt>
      <trkpt lat="48.16083" lon="3.32648">
        <ele>133.3</ele>
        <time>2024-01-20T11:50:46Z</time>
      </trkpt>
      <trkpt lat="48.16092" lon="3.32638">
        <ele>132.6</ele>
        <time>2024-01-20T11:50:40Z</time>
      </trkpt>
      <trkpt lat="48.16101" lon="3.32623">
        <ele>131.6</ele>
        <time>2024-01-20T11:50:33Z</time>
      </trkpt>
      <trkpt lat="48.16112" lon="3.32605">
        <ele>130.7</ele>
        <time>2024-01-20T11:50:26Z</time>
      </trkpt>
      <trkpt lat="48.16122" lon="3.32581">
        <ele>129.4</ele>
        <time>2024-01-20T11:50:18Z</time>
      </trkpt>
      <trkpt lat="48.16131" lon="3.3256">
        <ele>127.6</ele>
        <time>2024-01-20T11:50:11Z</time>
      </trkpt>
      <trkpt lat="48.16138" lon="3.32543">
        <ele>126.6</ele>
        <time>2024-01-20T11:50:05Z</time>
      </trkpt>
      <trkpt lat="48.16146" lon="3.32521">
        <ele>125.3</ele>
        <time>2024-01-20T11:49:58Z</time>
      </trkpt>
      <trkpt lat="48.1616" lon="3.32495">
        <ele>123.1</ele>
        <time>2024-01-20T11:49:50Z</time>
      </trkpt>
      <trkpt lat="48.16177" lon="3.32469">
        <ele>121.9</ele>
        <time>2024-01-20T11:49:42Z</time>
      </trkpt>
      <trkpt lat="48.16194" lon="3.32438">
        <ele>120.8</ele>
        <time>2024-01-20T11:49:34Z</time>
      </trkpt>
      <trkpt lat="48.16219" lon="3.32405">
        <ele>119.1</ele>
        <time>2024-01-20T11:49:25Z</time>
      </trkpt>
      <trkpt lat="48.16238" lon="3.32379">
        <ele>118.8</ele>
        <time>2024-01-20T11:49:18Z</time>
      </trkpt>
      <trkpt lat="48.16265" lon="3.32348">
        <ele>118.3</ele>
        <time>2024-01-20T11:49:09Z</time>
      </trkpt>
      <trkpt lat="48.16284" lon="3.32332">
        <ele>118</ele>
        <time>2024-01-20T11:49:03Z</time>
      </trkpt>
      <trkpt lat="48.16307" lon="3.32312">
        <ele>117.2</ele>
        <time>2024-01-20T11:48:56Z</time>
      </trkpt>
      <trkpt lat="48.16331" lon="3.32293">
        <ele>116.5</ele>
        <time>2024-01-20T11:48:49Z</time>
      </trkpt>
      <trkpt lat="48.16374" lon="3.32264">
        <ele>115.3</ele>
        <time>2024-01-20T11:48:37Z</time>
      </trkpt>
      <trkpt lat="48.16421" lon="3.32248">
        <ele>113.8</ele>
        <time>2024-01-20T11:48:25Z</time>
      </trkpt>
      <trkpt lat="48.1646" lon="3.32241">
        <ele>112.8</ele>
        <time>2024-01-20T11:48:15Z</time>
      </trkpt>
      <trkpt lat="48.16498" lon="3.32213">
        <ele>112.6</ele>
        <time>2024-01-20T11:48:05Z</time>
      </trkpt>
      <trkpt lat="48.16526" lon="3.32183">
        <ele>112.2</ele>
        <time>2024-01-20T11:47:57Z</time>
      </trkpt>
      <trkpt lat="48.16537" lon="3.32172">
        <ele>111.7</ele>
        <time>2024-01-20T11:47:54Z</time>
      </trkpt>
      <trkpt lat="48.1657" lon="3.32136">
        <ele>111.4</ele>
        <time>2024-01-20T11:47:45Z</time>
      </trkpt>
      <trkpt lat="48.1659" lon="3.32097">
        <ele>110.1</ele>
        <time>2024-01-20T11:47:38Z</time>
      </trkpt>
      <trkpt lat="48.16614" lon="3.32062">
        <ele>109.2</ele>
        <time>2024-01-20T11:47:30Z</time>
      </trkpt>
      <trkpt lat="48.16625" lon="3.3206">
        <ele>109.2</ele>
        <time>2024-01-20T11:47:26Z</time>
      </trkpt>
      <trkpt lat="48.16628" lon="3.32064">
        <ele>109.3</ele>
        <time>2024-01-20T11:47:25Z</time>
      </trkpt>
      <trkpt lat="48.16639" lon="3.32079">
        <ele>109.8</ele>
        <time>2024-01-20T11:47:21Z</time>
      </trkpt>
      <trkpt lat="48.16658" lon="3.32087">
        <ele>110.1</ele>
        <time>2024-01-20T11:47:16Z</time>
      </trkpt>
      <trkpt lat="48.16694" lon="3.32089">
        <ele>109.2</ele>
        <time>2024-01-20T11:47:07Z</time>
      </trkpt>
      <trkpt lat="48.16707" lon="3.32088">
        <ele>109.2</ele>
        <time>2024-01-20T11:47:04Z</time>
      </trkpt>
      <trkpt lat="48.16747" lon="3.32084">
        <ele>109</ele>
        <time>2024-01-20T11:46:55Z</time>
      </trkpt>
      <trkpt lat="48.1676" lon="3.32086">
        <ele>109.1</ele>
        <time>2024-01-20T11:46:52Z</time>
      </trkpt>
      <trkpt lat="48.16769" lon="3.32085">
        <ele>109.1</ele>
        <time>2024-01-20T11:46:50Z</time>
      </trkpt>
      <trkpt lat="48.1679" lon="3.32083">
        <ele>109</ele>
        <time>2024-01-20T11:46:45Z</time>
      </trkpt>
      <trkpt lat="48.16799" lon="3.32084">
        <ele>109</ele>
        <time>2024-01-20T11:46:43Z</time>
      </trkpt>
      <trkpt lat="48.16834" lon="3.32085">
        <ele>109.1</ele>
        <time>2024-01-20T11:46:35Z</time>
      </trkpt>
      <trkpt lat="48.16855" lon="3.32087">
        <ele>109.1</ele>
        <time>2024-01-20T11:46:30Z</time>
      </trkpt>
      <trkpt lat="48.1689" lon="3.32092">
        <ele>109.3</ele>
        <time>2024-01-20T11:46:21Z</time>
      </trkpt>
      <trkpt lat="48.16914" lon="3.32087">
        <ele>109.1</ele>
        <time>2024-01-20T11:46:14Z</time>
      </trkpt>
      <trkpt lat="48.16948" lon="3.3206">
        <ele>108.2</ele>
        <time>2024-01-20T11:46:04Z</time>
      </trkpt>
      <trkpt lat="48.16968" lon="3.32051">
        <ele>107.8</ele>
        <time>2024-01-20T11:45:59Z</time>
      </trkpt>
      <trkpt lat="48.16995" lon="3.32054">
        <ele>108</ele>
        <time>2024-01-20T11:45:51Z</time>
      </trkpt>
      <trkpt lat="48.16998" lon="3.32054">
        <ele>108</ele>
        <time>2024-01-20T11:45:50Z</time>
      </trkpt>
      <trkpt lat="48.17032" lon="3.32064">
        <ele>109</ele>
        <time>2024-01-20T11:45:39Z</time>
      </trkpt>
      <trkpt lat="48.17059" lon="3.32073">
        <ele>108.8</ele>
        <time>2024-01-20T11:45:30Z</time>
      </trkpt>
      <trkpt lat="48.17073" lon="3.32078">
        <ele>108</ele>
        <time>2024-01-20T11:45:23Z</time>
      </trkpt>
      <trkpt lat="48.17081" lon="3.32079">
        <ele>107.5</ele>
        <time>2024-01-20T11:45:16Z</time>
      </trkpt>
      <trkpt lat="48.17084" lon="3.3207">
        <ele>107.7</ele>
        <time>2024-01-20T11:45:10Z</time>
      </trkpt>
      <trkpt lat="48.17088" lon="3.32054">
        <ele>107.5</ele>
        <time>2024-01-20T11:44:59Z</time>
      </trkpt>
      <trkpt lat="48.17088" lon="3.32052">
        <ele>107.4</ele>
        <time>2024-01-20T11:44:58Z</time>
      </trkpt>
      <trkpt lat="48.17091" lon="3.32044">
        <ele>106.4</ele>
        <time>2024-01-20T11:44:50Z</time>
      </trkpt>
      <trkpt lat="48.17094" lon="3.3204">
        <ele>105.6</ele>
        <time>2024-01-20T11:44:41Z</time>
      </trkpt>
      <trkpt lat="48.17101" lon="3.32028">
        <ele>104.2</ele>
        <time>2024-01-20T11:44:30Z</time>
      </trkpt>
      <trkpt lat="48.17106" lon="3.32018">
        <ele>103.7</ele>
        <time>2024-01-20T11:44:22Z</time>
      </trkpt>
      <trkpt lat="48.17109" lon="3.32014">
        <ele>103.4</ele>
        <time>2024-01-20T11:44:15Z</time>
      </trkpt>
      <trkpt lat="48.17114" lon="3.32008">
        <ele>102.3</ele>
        <time>2024-01-20T11:44:07Z</time>
      </trkpt>
      <trkpt lat="48.17118" lon="3.32">
        <ele>101.3</ele>
        <time>2024-01-20T11:43:57Z</time>
      </trkpt>
      <trkpt lat="48.17122" lon="3.31991">
        <ele>99.9</ele>
        <time>2024-01-20T11:43:48Z</time>
      </trkpt>
      <trkpt lat="48.17125" lon="3.31987">
        <ele>99</ele>
        <time>2024-01-20T11:43:41Z</time>
      </trkpt>
      <trkpt lat="48.17131" lon="3.31979">
        <ele>97.2</ele>
        <time>2024-01-20T11:43:32Z</time>
      </trkpt>
      <trkpt lat="48.17135" lon="3.31971">
        <ele>96.3</ele>
        <time>2024-01-20T11:43:23Z</time>
      </trkpt>
      <trkpt lat="48.17138" lon="3.31966">
        <ele>95.7</ele>
        <time>2024-01-20T11:43:15Z</time>
      </trkpt>
      <trkpt lat="48.17138" lon="3.31966">
        <ele>95.7</ele>
        <time>2024-01-20T11:42:59Z</time>
      </trkpt>
      <trkpt lat="48.17138" lon="3.31965">
        <ele>95.8</ele>
        <time>2024-01-20T11:42:50Z</time>
      </trkpt>
      <trkpt lat="48.1714" lon="3.31958">
        <ele>95.6</ele>
        <time>2024-01-20T11:42:42Z</time>
      </trkpt>
      <trkpt lat="48.17143" lon="3.31952">
        <ele>95.1</ele>
        <time>2024-01-20T11:42:34Z</time>
      </trkpt>
      <trkpt lat="48.17145" lon="3.31945">
        <ele>95</ele>
        <time>2024-01-20T11:42:14Z</time>
      </trkpt>
      <trkpt lat="48.17145" lon="3.31944">
        <ele>95</ele>
        <time>2024-01-20T11:42:11Z</time>
      </trkpt>
      <trkpt lat="48.17147" lon="3.31941">
        <ele>94.6</ele>
        <time>2024-01-20T11:41:27Z</time>
      </trkpt>
      <trkpt lat="48.17147" lon="3.3194">
        <ele>94.6</ele>
        <time>2024-01-20T11:41:21Z</time>
      </trkpt>
      <trkpt lat="48.17153" lon="3.31928">
        <ele>93.3</ele>
        <time>2024-01-20T11:41:13Z</time>
      </trkpt>
      <trkpt lat="48.17157" lon="3.31919">
        <ele>92.4</ele>
        <time>2024-01-20T11:41:07Z</time>
      </trkpt>
      <trkpt lat="48.17161" lon="3.31909">
        <ele>91.3</ele>
        <time>2024-01-20T11:41:00Z</time>
      </trkpt>
      <trkpt lat="48.17169" lon="3.31897">
        <ele>89</ele>
        <time>2024-01-20T11:40:52Z</time>
      </trkpt>
      <trkpt lat="48.17177" lon="3.31883">
        <ele>86.8</ele>
        <time>2024-01-20T11:40:44Z</time>
      </trkpt>
      <trkpt lat="48.17183" lon="3.31871">
        <ele>85</ele>
        <time>2024-01-20T11:40:37Z</time>
      </trkpt>
      <trkpt lat="48.17183" lon="3.3187">
        <ele>85</ele>
        <time>2024-01-20T11:40:34Z</time>
      </trkpt>
      <trkpt lat="48.17188" lon="3.31863">
        <ele>83.3</ele>
        <time>2024-01-20T11:40:27Z</time>
      </trkpt>
      <trkpt lat="48.17193" lon="3.31853">
        <ele>82.1</ele>
        <time>2024-01-20T11:40:20Z</time>
      </trkpt>
      <trkpt lat="48.17201" lon="3.31833">
        <ele>82.1</ele>
        <time>2024-01-20T11:40:13Z</time>
      </trkpt>
      <trkpt lat="48.17206" lon="3.31812">
        <ele>81.8</ele>
        <time>2024-01-20T11:40:07Z</time>
      </trkpt>
      <trkpt lat="48.17212" lon="3.31788">
        <ele>81.5</ele>
        <time>2024-01-20T11:40:00Z</time>
      </trkpt>
      <trkpt lat="48.17216" lon="3.31765">
        <ele>81.2</ele>
        <time>2024-01-20T11:39:54Z</time>
      </trkpt>
      <trkpt lat="48.1722" lon="3.31739">
        <ele>80.5</ele>
        <time>2024-01-20T11:39:48Z</time>
      </trkpt>
      <trkpt lat="48.17227" lon="3.31713">
        <ele>80.5</ele>
        <time>2024-01-20T11:39:41Z</time>
      </trkpt>
      <trkpt lat="48.17232" lon="3.31684">
        <ele>81.5</ele>
        <time>2024-01-20T11:39:33Z</time>
      </trkpt>
      <trkpt lat="48.17238" lon="3.31659">
        <ele>81.7</ele>
        <time>2024-01-20T11:39:26Z</time>
      </trkpt>
      <trkpt lat="48.17241" lon="3.31635">
        <ele>82.3</ele>
        <time>2024-01-20T11:39:19Z</time>
      </trkpt>
      <trkpt lat="48.17245" lon="3.316">
        <ele>81.9</ele>
        <time>2024-01-20T11:39:10Z</time>
      </trkpt>
      <trkpt lat="48.17246" lon="3.31574">
        <ele>81.7</ele>
        <time>2024-01-20T11:39:03Z</time>
      </trkpt>
      <trkpt lat="48.17246" lon="3.3155">
        <ele>81.6</ele>
        <time>2024-01-20T11:38:56Z</time>
      </trkpt>
      <trkpt lat="48.17246" lon="3.31547">
        <ele>81.6</ele>
        <time>2024-01-20T11:38:55Z</time>
      </trkpt>
      <trkpt lat="48.1725" lon="3.31514">
        <ele>81</ele>
        <time>2024-01-20T11:38:46Z</time>
      </trkpt>
      <trkpt lat="48.17256" lon="3.31481">
        <ele>80.6</ele>
        <time>2024-01-20T11:38:38Z</time>
      </trkpt>
      <trkpt lat="48.17262" lon="3.31445">
        <ele>81.2</ele>
        <time>2024-01-20T11:38:31Z</time>
      </trkpt>
      <trkpt lat="48.17269" lon="3.31401">
        <ele>80.8</ele>
        <time>2024-01-20T11:38:23Z</time>
      </trkpt>
      <trkpt lat="48.17275" lon="3.31355">
        <ele>80.6</ele>
        <time>2024-01-20T11:38:15Z</time>
      </trkpt>
      <trkpt lat="48.17281" lon="3.31309">
        <ele>79.8</ele>
        <time>2024-01-20T11:38:06Z</time>
      </trkpt>
      <trkpt lat="48.17288" lon="3.31275">
        <ele>81.2</ele>
        <time>2024-01-20T11:37:59Z</time>
      </trkpt>
      <trkpt lat="48.17307" lon="3.31225">
        <ele>78.9</ele>
        <time>2024-01-20T11:37:50Z</time>
      </trkpt>
      <trkpt lat="48.17327" lon="3.31174">
        <ele>79.5</ele>
        <time>2024-01-20T11:37:41Z</time>
      </trkpt>
      <trkpt lat="48.1733" lon="3.31168">
        <ele>79.3</ele>
        <time>2024-01-20T11:37:40Z</time>
      </trkpt>
      <trkpt lat="48.17332" lon="3.31161">
        <ele>79.4</ele>
        <time>2024-01-20T11:37:39Z</time>
      </trkpt>
      <trkpt lat="48.17337" lon="3.31149">
        <ele>79.3</ele>
        <time>2024-01-20T11:37:37Z</time>
      </trkpt>
      <trkpt lat="48.1734" lon="3.31143">
        <ele>79.2</ele>
        <time>2024-01-20T11:37:36Z</time>
      </trkpt>
      <trkpt lat="48.17347" lon="3.31102">
        <ele>79.2</ele>
        <time>2024-01-20T11:37:29Z</time>
      </trkpt>
      <trkpt lat="48.17353" lon="3.31058">
        <ele>79.3</ele>
        <time>2024-01-20T11:37:21Z</time>
      </trkpt>
      <trkpt lat="48.17354" lon="3.31053">
        <ele>79.3</ele>
        <time>2024-01-20T11:37:20Z</time>
      </trkpt>
      <trkpt lat="48.17355" lon="3.31049">
        <ele>79.3</ele>
        <time>2024-01-20T11:37:19Z</time>
      </trkpt>
      <trkpt lat="48.17356" lon="3.31045">
        <ele>79.3</ele>
        <time>2024-01-20T11:37:18Z</time>
      </trkpt>
      <trkpt lat="48.17357" lon="3.31041">
        <ele>79.3</ele>
        <time>2024-01-20T11:37:17Z</time>
      </trkpt>
      <trkpt lat="48.1736" lon="3.31038">
        <ele>79.1</ele>
        <time>2024-01-20T11:37:16Z</time>
      </trkpt>
      <trkpt lat="48.17381" lon="3.31043">
        <ele>78.3</ele>
        <time>2024-01-20T11:37:11Z</time>
      </trkpt>
      <trkpt lat="48.17385" lon="3.31045">
        <ele>78.1</ele>
        <time>2024-01-20T11:37:10Z</time>
      </trkpt>
      <trkpt lat="48.1739" lon="3.31047">
        <ele>78</ele>
        <time>2024-01-20T11:37:09Z</time>
      </trkpt>
      <trkpt lat="48.17395" lon="3.31048">
        <ele>78</ele>
        <time>2024-01-20T11:37:08Z</time>
      </trkpt>
      <trkpt lat="48.174" lon="3.31048">
        <ele>78</ele>
        <time>2024-01-20T11:37:07Z</time>
      </trkpt>
      <trkpt lat="48.17406" lon="3.31048">
        <ele>78</ele>
        <time>2024-01-20T11:37:06Z</time>
      </trkpt>
      <trkpt lat="48.1742" lon="3.31051">
        <ele>78</ele>
        <time>2024-01-20T11:37:03Z</time>
      </trkpt>
      <trkpt lat="48.17469" lon="3.31061">
        <ele>78</ele>
        <time>2024-01-20T11:36:53Z</time>
      </trkpt>
      <trkpt lat="48.17475" lon="3.31062">
        <ele>77.9</ele>
        <time>2024-01-20T11:36:52Z</time>
      </trkpt>
      <trkpt lat="48.17516" lon="3.31065">
        <ele>77</ele>
        <time>2024-01-20T11:36:44Z</time>
      </trkpt>
      <trkpt lat="48.17556" lon="3.31071">
        <ele>76.4</ele>
        <time>2024-01-20T11:36:36Z</time>
      </trkpt>
      <trkpt lat="48.17566" lon="3.31071">
        <ele>76.3</ele>
        <time>2024-01-20T11:36:34Z</time>
      </trkpt>
      <trkpt lat="48.1757" lon="3.31071">
        <ele>76.2</ele>
        <time>2024-01-20T11:36:33Z</time>
      </trkpt>
      <trkpt lat="48.17574" lon="3.31072">
        <ele>76.1</ele>
        <time>2024-01-20T11:36:32Z</time>
      </trkpt>
      <trkpt lat="48.17578" lon="3.31072">
        <ele>76.1</ele>
        <time>2024-01-20T11:36:31Z</time>
      </trkpt>
      <trkpt lat="48.17582" lon="3.31074">
        <ele>76</ele>
        <time>2024-01-20T11:36:30Z</time>
      </trkpt>
      <trkpt lat="48.17585" lon="3.31079">
        <ele>76.1</ele>
        <time>2024-01-20T11:36:29Z</time>
      </trkpt>
      <trkpt lat="48.17587" lon="3.31084">
        <ele>76.1</ele>
        <time>2024-01-20T11:36:28Z</time>
      </trkpt>
      <trkpt lat="48.17587" lon="3.31089">
        <ele>76.1</ele>
        <time>2024-01-20T11:36:27Z</time>
      </trkpt>
      <trkpt lat="48.17587" lon="3.31093">
        <ele>76.1</ele>
        <time>2024-01-20T11:36:26Z</time>
      </trkpt>
      <trkpt lat="48.17587" lon="3.31098">
        <ele>76.1</ele>
        <time>2024-01-20T11:36:25Z</time>
      </trkpt>
      <trkpt lat="48.17588" lon="3.31101">
        <ele>76.2</ele>
        <time>2024-01-20T11:36:24Z</time>
      </trkpt>
      <trkpt lat="48.17589" lon="3.31103">
        <ele>76.2</ele>
        <time>2024-01-20T11:36:23Z</time>
      </trkpt>
      <trkpt lat="48.17591" lon="3.31104">
        <ele>76.3</ele>
        <time>2024-01-20T11:36:22Z</time>
      </trkpt>
      <trkpt lat="48.17628" lon="3.31122">
        <ele>77.8</ele>
        <time>2024-01-20T11:36:14Z</time>
      </trkpt>
      <trkpt lat="48.17669" lon="3.31141">
        <ele>77.8</ele>
        <time>2024-01-20T11:36:05Z</time>
      </trkpt>
      <trkpt lat="48.17674" lon="3.31143">
        <ele>77.6</ele>
        <time>2024-01-20T11:36:04Z</time>
      </trkpt>
      <trkpt lat="48.17678" lon="3.31145">
        <ele>77.5</ele>
        <time>2024-01-20T11:36:03Z</time>
      </trkpt>
      <trkpt lat="48.17683" lon="3.31148">
        <ele>77.3</ele>
        <time>2024-01-20T11:36:02Z</time>
      </trkpt>
      <trkpt lat="48.17687" lon="3.31151">
        <ele>77.2</ele>
        <time>2024-01-20T11:36:01Z</time>
      </trkpt>
      <trkpt lat="48.17691" lon="3.31153">
        <ele>77.1</ele>
        <time>2024-01-20T11:36:00Z</time>
      </trkpt>
      <trkpt lat="48.17696" lon="3.31153">
        <ele>77.1</ele>
        <time>2024-01-20T11:35:59Z</time>
      </trkpt>
      <trkpt lat="48.177" lon="3.31151">
        <ele>77.2</ele>
        <time>2024-01-20T11:35:58Z</time>
      </trkpt>
      <trkpt lat="48.17703" lon="3.31147">
        <ele>77.3</ele>
        <time>2024-01-20T11:35:57Z</time>
      </trkpt>
      <trkpt lat="48.17706" lon="3.31142">
        <ele>77.4</ele>
        <time>2024-01-20T11:35:56Z</time>
      </trkpt>
      <trkpt lat="48.1771" lon="3.31123">
        <ele>77.2</ele>
        <time>2024-01-20T11:35:53Z</time>
      </trkpt>
      <trkpt lat="48.17711" lon="3.31116">
        <ele>77.1</ele>
        <time>2024-01-20T11:35:52Z</time>
      </trkpt>
      <trkpt lat="48.17712" lon="3.31109">
        <ele>77</ele>
        <time>2024-01-20T11:35:51Z</time>
      </trkpt>
      <trkpt lat="48.17713" lon="3.31102">
        <ele>77</ele>
        <time>2024-01-20T11:35:50Z</time>
      </trkpt>
      <trkpt lat="48.17713" lon="3.31095">
        <ele>77</ele>
        <time>2024-01-20T11:35:49Z</time>
      </trkpt>
      <trkpt lat="48.17723" lon="3.31039">
        <ele>77</ele>
        <time>2024-01-20T11:35:41Z</time>
      </trkpt>
      <trkpt lat="48.17735" lon="3.30969">
        <ele>76.1</ele>
        <time>2024-01-20T11:35:31Z</time>
      </trkpt>
      <trkpt lat="48.17749" lon="3.30892">
        <ele>76</ele>
        <time>2024-01-20T11:35:20Z</time>
      </trkpt>
      <trkpt lat="48.17759" lon="3.3083">
        <ele>75.7</ele>
        <time>2024-01-20T11:35:11Z</time>
      </trkpt>
      <trkpt lat="48.17767" lon="3.30785">
        <ele>75.8</ele>
        <time>2024-01-20T11:35:04Z</time>
      </trkpt>
      <trkpt lat="48.17768" lon="3.30779">
        <ele>76</ele>
        <time>2024-01-20T11:35:03Z</time>
      </trkpt>
      <trkpt lat="48.17773" lon="3.30761">
        <ele>74.9</ele>
        <time>2024-01-20T11:35:00Z</time>
      </trkpt>
      <trkpt lat="48.17775" lon="3.30749">
        <ele>74.1</ele>
        <time>2024-01-20T11:34:58Z</time>
      </trkpt>
      <trkpt lat="48.17775" lon="3.30743">
        <ele>74.1</ele>
        <time>2024-01-20T11:34:57Z</time>
      </trkpt>
      <trkpt lat="48.17775" lon="3.30737">
        <ele>74.1</ele>
        <time>2024-01-20T11:34:56Z</time>
      </trkpt>
      <trkpt lat="48.17766" lon="3.30673">
        <ele>73.9</ele>
        <time>2024-01-20T11:34:47Z</time>
      </trkpt>
      <trkpt lat="48.17759" lon="3.30637">
        <ele>73</ele>
        <time>2024-01-20T11:34:40Z</time>
      </trkpt>
      <trkpt lat="48.17759" lon="3.30634">
        <ele>72.9</ele>
        <time>2024-01-20T11:34:39Z</time>
      </trkpt>
      <trkpt lat="48.17763" lon="3.30624">
        <ele>72.7</ele>
        <time>2024-01-20T11:34:36Z</time>
      </trkpt>
      <trkpt lat="48.17766" lon="3.30621">
        <ele>72.6</ele>
        <time>2024-01-20T11:34:35Z</time>
      </trkpt>
      <trkpt lat="48.17768" lon="3.30618">
        <ele>72.5</ele>
        <time>2024-01-20T11:34:34Z</time>
      </trkpt>
      <trkpt lat="48.17771" lon="3.30616">
        <ele>72.4</ele>
        <time>2024-01-20T11:34:33Z</time>
      </trkpt>
      <trkpt lat="48.17774" lon="3.30614">
        <ele>72.2</ele>
        <time>2024-01-20T11:34:32Z</time>
      </trkpt>
      <trkpt lat="48.17778" lon="3.30612">
        <ele>72</ele>
        <time>2024-01-20T11:34:31Z</time>
      </trkpt>
      <trkpt lat="48.17782" lon="3.30611">
        <ele>72.2</ele>
        <time>2024-01-20T11:34:30Z</time>
      </trkpt>
      <trkpt lat="48.17796" lon="3.30612">
        <ele>72.7</ele>
        <time>2024-01-20T11:34:27Z</time>
      </trkpt>
      <trkpt lat="48.1783" lon="3.30606">
        <ele>73</ele>
        <time>2024-01-20T11:34:20Z</time>
      </trkpt>
      <trkpt lat="48.17867" lon="3.30601">
        <ele>72.7</ele>
        <time>2024-01-20T11:34:12Z</time>
      </trkpt>
      <trkpt lat="48.17919" lon="3.30595">
        <ele>72.5</ele>
        <time>2024-01-20T11:34:03Z</time>
      </trkpt>
      <trkpt lat="48.17925" lon="3.30596">
        <ele>72.8</ele>
        <time>2024-01-20T11:34:02Z</time>
      </trkpt>
      <trkpt lat="48.17931" lon="3.30596">
        <ele>73</ele>
        <time>2024-01-20T11:34:01Z</time>
      </trkpt>
      <trkpt lat="48.17937" lon="3.30597">
        <ele>73.2</ele>
        <time>2024-01-20T11:34:00Z</time>
      </trkpt>
      <trkpt lat="48.17942" lon="3.306">
        <ele>73.3</ele>
        <time>2024-01-20T11:33:59Z</time>
      </trkpt>
      <trkpt lat="48.17953" lon="3.30607">
        <ele>73.1</ele>
        <time>2024-01-20T11:33:57Z</time>
      </trkpt>
      <trkpt lat="48.18023" lon="3.30671">
        <ele>73.9</ele>
        <time>2024-01-20T11:33:43Z</time>
      </trkpt>
      <trkpt lat="48.18043" lon="3.30691">
        <ele>74</ele>
        <time>2024-01-20T11:33:39Z</time>
      </trkpt>
      <trkpt lat="48.181" lon="3.30741">
        <ele>74.8</ele>
        <time>2024-01-20T11:33:27Z</time>
      </trkpt>
      <trkpt lat="48.18146" lon="3.30782">
        <ele>75</ele>
        <time>2024-01-20T11:33:17Z</time>
      </trkpt>
      <trkpt lat="48.1815" lon="3.30787">
        <ele>75</ele>
        <time>2024-01-20T11:33:16Z</time>
      </trkpt>
      <trkpt lat="48.18154" lon="3.30791">
        <ele>75</ele>
        <time>2024-01-20T11:33:15Z</time>
      </trkpt>
      <trkpt lat="48.18158" lon="3.30795">
        <ele>75</ele>
        <time>2024-01-20T11:33:14Z</time>
      </trkpt>
      <trkpt lat="48.18162" lon="3.30797">
        <ele>75</ele>
        <time>2024-01-20T11:33:13Z</time>
      </trkpt>
      <trkpt lat="48.18166" lon="3.30797">
        <ele>75</ele>
        <time>2024-01-20T11:33:12Z</time>
      </trkpt>
      <trkpt lat="48.1817" lon="3.30795">
        <ele>75</ele>
        <time>2024-01-20T11:33:11Z</time>
      </trkpt>
      <trkpt lat="48.18174" lon="3.3079">
        <ele>74.9</ele>
        <time>2024-01-20T11:33:10Z</time>
      </trkpt>
      <trkpt lat="48.18176" lon="3.30785">
        <ele>74.8</ele>
        <time>2024-01-20T11:33:09Z</time>
      </trkpt>
      <trkpt lat="48.18189" lon="3.3074">
        <ele>74.2</ele>
        <time>2024-01-20T11:33:02Z</time>
      </trkpt>
      <trkpt lat="48.18191" lon="3.30733">
        <ele>74.1</ele>
        <time>2024-01-20T11:33:01Z</time>
      </trkpt>
      <trkpt lat="48.18208" lon="3.30662">
        <ele>74</ele>
        <time>2024-01-20T11:32:51Z</time>
      </trkpt>
      <trkpt lat="48.18224" lon="3.30602">
        <ele>74</ele>
        <time>2024-01-20T11:32:42Z</time>
      </trkpt>
      <trkpt lat="48.18225" lon="3.30596">
        <ele>74</ele>
        <time>2024-01-20T11:32:41Z</time>
      </trkpt>
      <trkpt lat="48.18227" lon="3.3059">
        <ele>74</ele>
        <time>2024-01-20T11:32:40Z</time>
      </trkpt>
      <trkpt lat="48.18233" lon="3.30544">
        <ele>73</ele>
        <time>2024-01-20T11:32:33Z</time>
      </trkpt>
      <trkpt lat="48.1823" lon="3.30495">
        <ele>73.1</ele>
        <time>2024-01-20T11:32:25Z</time>
      </trkpt>
      <trkpt lat="48.18224" lon="3.30425">
        <ele>73.3</ele>
        <time>2024-01-20T11:32:14Z</time>
      </trkpt>
      <trkpt lat="48.1822" lon="3.30371">
        <ele>73</ele>
        <time>2024-01-20T11:32:05Z</time>
      </trkpt>
      <trkpt lat="48.18221" lon="3.30336">
        <ele>73.9</ele>
        <time>2024-01-20T11:31:58Z</time>
      </trkpt>
      <trkpt lat="48.18217" lon="3.30322">
        <ele>73.6</ele>
        <time>2024-01-20T11:31:53Z</time>
      </trkpt>
      <trkpt lat="48.18221" lon="3.30308">
        <ele>73.1</ele>
        <time>2024-01-20T11:31:48Z</time>
      </trkpt>
      <trkpt lat="48.18222" lon="3.30304">
        <ele>73</ele>
        <time>2024-01-20T11:31:47Z</time>
      </trkpt>
      <trkpt lat="48.18222" lon="3.303">
        <ele>72.8</ele>
        <time>2024-01-20T11:31:46Z</time>
      </trkpt>
      <trkpt lat="48.18222" lon="3.30295">
        <ele>72.6</ele>
        <time>2024-01-20T11:31:45Z</time>
      </trkpt>
      <trkpt lat="48.1822" lon="3.30289">
        <ele>72.5</ele>
        <time>2024-01-20T11:31:44Z</time>
      </trkpt>
      <trkpt lat="48.18218" lon="3.30283">
        <ele>72.5</ele>
        <time>2024-01-20T11:31:43Z</time>
      </trkpt>
      <trkpt lat="48.18215" lon="3.30276">
        <ele>72.5</ele>
        <time>2024-01-20T11:31:42Z</time>
      </trkpt>
      <trkpt lat="48.18213" lon="3.3027">
        <ele>72.5</ele>
        <time>2024-01-20T11:31:41Z</time>
      </trkpt>
      <trkpt lat="48.18212" lon="3.30262">
        <ele>72.3</ele>
        <time>2024-01-20T11:31:40Z</time>
      </trkpt>
      <trkpt lat="48.1821" lon="3.30254">
        <ele>72.1</ele>
        <time>2024-01-20T11:31:39Z</time>
      </trkpt>
      <trkpt lat="48.18208" lon="3.30214">
        <ele>72</ele>
        <time>2024-01-20T11:31:34Z</time>
      </trkpt>
      <trkpt lat="48.18203" lon="3.30135">
        <ele>71.4</ele>
        <time>2024-01-20T11:31:25Z</time>
      </trkpt>
      <trkpt lat="48.18201" lon="3.30044">
        <ele>72</ele>
        <time>2024-01-20T11:31:14Z</time>
      </trkpt>
      <trkpt lat="48.182" lon="3.30036">
        <ele>72</ele>
        <time>2024-01-20T11:31:13Z</time>
      </trkpt>
      <trkpt lat="48.18199" lon="3.30027">
        <ele>72</ele>
        <time>2024-01-20T11:31:12Z</time>
      </trkpt>
      <trkpt lat="48.18194" lon="3.29948">
        <ele>72</ele>
        <time>2024-01-20T11:31:03Z</time>
      </trkpt>
      <trkpt lat="48.182" lon="3.29858">
        <ele>72</ele>
        <time>2024-01-20T11:30:53Z</time>
      </trkpt>
      <trkpt lat="48.18206" lon="3.29798">
        <ele>71.8</ele>
        <time>2024-01-20T11:30:46Z</time>
      </trkpt>
      <trkpt lat="48.18207" lon="3.2979">
        <ele>71.7</ele>
        <time>2024-01-20T11:30:45Z</time>
      </trkpt>
      <trkpt lat="48.18209" lon="3.29776">
        <ele>71.6</ele>
        <time>2024-01-20T11:30:43Z</time>
      </trkpt>
      <trkpt lat="48.18221" lon="3.29736">
        <ele>72</ele>
        <time>2024-01-20T11:30:37Z</time>
      </trkpt>
      <trkpt lat="48.18223" lon="3.2973">
        <ele>72</ele>
        <time>2024-01-20T11:30:36Z</time>
      </trkpt>
      <trkpt lat="48.18225" lon="3.29725">
        <ele>72</ele>
        <time>2024-01-20T11:30:35Z</time>
      </trkpt>
      <trkpt lat="48.18229" lon="3.2972">
        <ele>71.9</ele>
        <time>2024-01-20T11:30:34Z</time>
      </trkpt>
      <trkpt lat="48.18232" lon="3.29718">
        <ele>71.9</ele>
        <time>2024-01-20T11:30:33Z</time>
      </trkpt>
      <trkpt lat="48.18236" lon="3.29719">
        <ele>71.9</ele>
        <time>2024-01-20T11:30:32Z</time>
      </trkpt>
      <trkpt lat="48.18253" lon="3.29724">
        <ele>72</ele>
        <time>2024-01-20T11:30:28Z</time>
      </trkpt>
      <trkpt lat="48.18257" lon="3.29725">
        <ele>72</ele>
        <time>2024-01-20T11:30:27Z</time>
      </trkpt>
      <trkpt lat="48.18291" lon="3.29735">
        <ele>72</ele>
        <time>2024-01-20T11:30:19Z</time>
      </trkpt>
      <trkpt lat="48.18334" lon="3.29748">
        <ele>72</ele>
        <time>2024-01-20T11:30:09Z</time>
      </trkpt>
      <trkpt lat="48.18342" lon="3.29751">
        <ele>72</ele>
        <time>2024-01-20T11:30:07Z</time>
      </trkpt>
      <trkpt lat="48.18368" lon="3.2976">
        <ele>72</ele>
        <time>2024-01-20T11:30:01Z</time>
      </trkpt>
      <trkpt lat="48.18406" lon="3.29772">
        <ele>71.9</ele>
        <time>2024-01-20T11:29:52Z</time>
      </trkpt>
      <trkpt lat="48.18451" lon="3.29776">
        <ele>71.7</ele>
        <time>2024-01-20T11:29:42Z</time>
      </trkpt>
      <trkpt lat="48.18455" lon="3.29776">
        <ele>71.6</ele>
        <time>2024-01-20T11:29:41Z</time>
      </trkpt>
      <trkpt lat="48.18459" lon="3.29776">
        <ele>71.5</ele>
        <time>2024-01-20T11:29:40Z</time>
      </trkpt>
      <trkpt lat="48.18464" lon="3.29777">
        <ele>71.3</ele>
        <time>2024-01-20T11:29:39Z</time>
      </trkpt>
      <trkpt lat="48.18468" lon="3.29777">
        <ele>71.2</ele>
        <time>2024-01-20T11:29:38Z</time>
      </trkpt>
      <trkpt lat="48.18471" lon="3.29776">
        <ele>71.1</ele>
        <time>2024-01-20T11:29:37Z</time>
      </trkpt>
      <trkpt lat="48.18478" lon="3.29762">
        <ele>71.6</ele>
        <time>2024-01-20T11:29:34Z</time>
      </trkpt>
      <trkpt lat="48.18479" lon="3.29756">
        <ele>71.8</ele>
        <time>2024-01-20T11:29:33Z</time>
      </trkpt>
      <trkpt lat="48.1848" lon="3.2975">
        <ele>72</ele>
        <time>2024-01-20T11:29:32Z</time>
      </trkpt>
      <trkpt lat="48.1848" lon="3.29745">
        <ele>71.9</ele>
        <time>2024-01-20T11:29:31Z</time>
      </trkpt>
      <trkpt lat="48.18481" lon="3.29739">
        <ele>71.9</ele>
        <time>2024-01-20T11:29:30Z</time>
      </trkpt>
      <trkpt lat="48.18482" lon="3.29735">
        <ele>71.8</ele>
        <time>2024-01-20T11:29:29Z</time>
      </trkpt>
      <trkpt lat="48.18489" lon="3.29732">
        <ele>71.6</ele>
        <time>2024-01-20T11:29:27Z</time>
      </trkpt>
      <trkpt lat="48.1851" lon="3.29734">
        <ele>71.5</ele>
        <time>2024-01-20T11:29:21Z</time>
      </trkpt>
      <trkpt lat="48.18537" lon="3.29732">
        <ele>71.4</ele>
        <time>2024-01-20T11:29:14Z</time>
      </trkpt>
      <trkpt lat="48.18541" lon="3.29733">
        <ele>71.3</ele>
        <time>2024-01-20T11:29:13Z</time>
      </trkpt>
      <trkpt lat="48.18544" lon="3.29734">
        <ele>71.2</ele>
        <time>2024-01-20T11:29:12Z</time>
      </trkpt>
      <trkpt lat="48.18547" lon="3.29734">
        <ele>71.2</ele>
        <time>2024-01-20T11:29:11Z</time>
      </trkpt>
      <trkpt lat="48.18551" lon="3.29732">
        <ele>71.1</ele>
        <time>2024-01-20T11:29:10Z</time>
      </trkpt>
      <trkpt lat="48.18555" lon="3.2971">
        <ele>71</ele>
        <time>2024-01-20T11:29:04Z</time>
      </trkpt>
      <trkpt lat="48.18563" lon="3.29671">
        <ele>71</ele>
        <time>2024-01-20T11:28:57Z</time>
      </trkpt>
      <trkpt lat="48.18574" lon="3.29621">
        <ele>71</ele>
        <time>2024-01-20T11:28:49Z</time>
      </trkpt>
      <trkpt lat="48.18586" lon="3.29558">
        <ele>71</ele>
        <time>2024-01-20T11:28:40Z</time>
      </trkpt>
      <trkpt lat="48.1859" lon="3.29531">
        <ele>71</ele>
        <time>2024-01-20T11:28:35Z</time>
      </trkpt>
      <trkpt lat="48.18591" lon="3.29526">
        <ele>71</ele>
        <time>2024-01-20T11:28:34Z</time>
      </trkpt>
      <trkpt lat="48.18591" lon="3.29522">
        <ele>71</ele>
        <time>2024-01-20T11:28:33Z</time>
      </trkpt>
      <trkpt lat="48.18592" lon="3.29518">
        <ele>71</ele>
        <time>2024-01-20T11:28:32Z</time>
      </trkpt>
      <trkpt lat="48.18592" lon="3.29515">
        <ele>71</ele>
        <time>2024-01-20T11:28:31Z</time>
      </trkpt>
      <trkpt lat="48.18591" lon="3.29514">
        <ele>71</ele>
        <time>2024-01-20T11:28:30Z</time>
      </trkpt>
      <trkpt lat="48.18591" lon="3.29512">
        <ele>71</ele>
        <time>2024-01-20T11:28:29Z</time>
      </trkpt>
      <trkpt lat="48.18595" lon="3.29512">
        <ele>71</ele>
        <time>2024-01-20T11:28:25Z</time>
      </trkpt>
      <trkpt lat="48.18649" lon="3.29508">
        <ele>71.1</ele>
        <time>2024-01-20T11:28:16Z</time>
      </trkpt>
      <trkpt lat="48.18654" lon="3.29508">
        <ele>71.2</ele>
        <time>2024-01-20T11:28:15Z</time>
      </trkpt>
      <trkpt lat="48.1866" lon="3.29508">
        <ele>71.2</ele>
        <time>2024-01-20T11:28:14Z</time>
      </trkpt>
      <trkpt lat="48.18681" lon="3.29517">
        <ele>71.3</ele>
        <time>2024-01-20T11:28:10Z</time>
      </trkpt>
      <trkpt lat="48.18725" lon="3.29534">
        <ele>71.2</ele>
        <time>2024-01-20T11:28:02Z</time>
      </trkpt>
      <trkpt lat="48.1873" lon="3.29535">
        <ele>71.3</ele>
        <time>2024-01-20T11:28:01Z</time>
      </trkpt>
      <trkpt lat="48.18735" lon="3.29537">
        <ele>71.3</ele>
        <time>2024-01-20T11:28:00Z</time>
      </trkpt>
      <trkpt lat="48.18745" lon="3.2954">
        <ele>71.4</ele>
        <time>2024-01-20T11:27:58Z</time>
      </trkpt>
      <trkpt lat="48.18751" lon="3.29541">
        <ele>71.5</ele>
        <time>2024-01-20T11:27:57Z</time>
      </trkpt>
      <trkpt lat="48.18756" lon="3.29542">
        <ele>71.6</ele>
        <time>2024-01-20T11:27:56Z</time>
      </trkpt>
      <trkpt lat="48.1876" lon="3.29542">
        <ele>71.7</ele>
        <time>2024-01-20T11:27:55Z</time>
      </trkpt>
      <trkpt lat="48.18765" lon="3.2954">
        <ele>71.7</ele>
        <time>2024-01-20T11:27:54Z</time>
      </trkpt>
      <trkpt lat="48.18769" lon="3.29537">
        <ele>71.8</ele>
        <time>2024-01-20T11:27:53Z</time>
      </trkpt>
      <trkpt lat="48.18772" lon="3.29531">
        <ele>71.8</ele>
        <time>2024-01-20T11:27:52Z</time>
      </trkpt>
      <trkpt lat="48.18781" lon="3.29503">
        <ele>72</ele>
        <time>2024-01-20T11:27:48Z</time>
      </trkpt>
      <trkpt lat="48.18795" lon="3.29442">
        <ele>71.6</ele>
        <time>2024-01-20T11:27:40Z</time>
      </trkpt>
      <trkpt lat="48.18808" lon="3.2938">
        <ele>71.7</ele>
        <time>2024-01-20T11:27:31Z</time>
      </trkpt>
      <trkpt lat="48.18809" lon="3.29375">
        <ele>71.6</ele>
        <time>2024-01-20T11:27:30Z</time>
      </trkpt>
      <trkpt lat="48.18811" lon="3.29369">
        <ele>71.4</ele>
        <time>2024-01-20T11:27:29Z</time>
      </trkpt>
      <trkpt lat="48.18812" lon="3.29366">
        <ele>71.4</ele>
        <time>2024-01-20T11:27:28Z</time>
      </trkpt>
      <trkpt lat="48.18815" lon="3.2936">
        <ele>71.3</ele>
        <time>2024-01-20T11:27:27Z</time>
      </trkpt>
      <trkpt lat="48.18817" lon="3.29359">
        <ele>71.4</ele>
        <time>2024-01-20T11:27:26Z</time>
      </trkpt>
      <trkpt lat="48.18863" lon="3.29378">
        <ele>72</ele>
        <time>2024-01-20T11:27:17Z</time>
      </trkpt>
      <trkpt lat="48.18912" lon="3.29404">
        <ele>72.8</ele>
        <time>2024-01-20T11:27:08Z</time>
      </trkpt>
      <trkpt lat="48.18957" lon="3.29416">
        <ele>73</ele>
        <time>2024-01-20T11:27:00Z</time>
      </trkpt>
      <trkpt lat="48.18963" lon="3.29417">
        <ele>73</ele>
        <time>2024-01-20T11:26:59Z</time>
      </trkpt>
      <trkpt lat="48.18969" lon="3.29417">
        <ele>73</ele>
        <time>2024-01-20T11:26:58Z</time>
      </trkpt>
      <trkpt lat="48.18974" lon="3.29416">
        <ele>73</ele>
        <time>2024-01-20T11:26:57Z</time>
      </trkpt>
      <trkpt lat="48.18979" lon="3.29415">
        <ele>73</ele>
        <time>2024-01-20T11:26:56Z</time>
      </trkpt>
      <trkpt lat="48.18982" lon="3.29413">
        <ele>73</ele>
        <time>2024-01-20T11:26:55Z</time>
      </trkpt>
      <trkpt lat="48.18988" lon="3.29407">
        <ele>73</ele>
        <time>2024-01-20T11:26:54Z</time>
      </trkpt>
      <trkpt lat="48.18991" lon="3.29402">
        <ele>73</ele>
        <time>2024-01-20T11:26:53Z</time>
      </trkpt>
      <trkpt lat="48.18995" lon="3.29396">
        <ele>73</ele>
        <time>2024-01-20T11:26:52Z</time>
      </trkpt>
      <trkpt lat="48.19014" lon="3.29352">
        <ele>73</ele>
        <time>2024-01-20T11:26:45Z</time>
      </trkpt>
      <trkpt lat="48.1904" lon="3.29298">
        <ele>73</ele>
        <time>2024-01-20T11:26:36Z</time>
      </trkpt>
      <trkpt lat="48.19044" lon="3.29292">
        <ele>73</ele>
        <time>2024-01-20T11:26:35Z</time>
      </trkpt>
      <trkpt lat="48.19047" lon="3.29286">
        <ele>73</ele>
        <time>2024-01-20T11:26:34Z</time>
      </trkpt>
      <trkpt lat="48.19061" lon="3.29267">
        <ele>72.9</ele>
        <time>2024-01-20T11:26:30Z</time>
      </trkpt>
      <trkpt lat="48.19084" lon="3.29236">
        <ele>73</ele>
        <time>2024-01-20T11:26:23Z</time>
      </trkpt>
      <trkpt lat="48.19097" lon="3.29222">
        <ele>73</ele>
        <time>2024-01-20T11:26:18Z</time>
      </trkpt>
      <trkpt lat="48.19099" lon="3.29217">
        <ele>73</ele>
        <time>2024-01-20T11:26:15Z</time>
      </trkpt>
      <trkpt lat="48.19101" lon="3.29214">
        <ele>73</ele>
        <time>2024-01-20T11:26:01Z</time>
      </trkpt>
      <trkpt lat="48.19103" lon="3.29212">
        <ele>73</ele>
        <time>2024-01-20T11:17:40Z</time>
      </trkpt>
      <trkpt lat="48.19104" lon="3.29212">
        <ele>73</ele>
        <time>2024-01-20T11:17:34Z</time>
      </trkpt>
      <trkpt lat="48.19106" lon="3.29212">
        <ele>73</ele>
        <time>2024-01-20T11:17:33Z</time>
      </trkpt>
      <trkpt lat="48.19136" lon="3.29178">
        <ele>72.9</ele>
        <time>2024-01-20T11:17:24Z</time>
      </trkpt>
      <trkpt lat="48.19145" lon="3.29163">
        <ele>73</ele>
        <time>2024-01-20T11:17:21Z</time>
      </trkpt>
      <trkpt lat="48.19148" lon="3.29157">
        <ele>73</ele>
        <time>2024-01-20T11:17:20Z</time>
      </trkpt>
      <trkpt lat="48.19153" lon="3.29144">
        <ele>73</ele>
        <time>2024-01-20T11:17:18Z</time>
      </trkpt>
      <trkpt lat="48.19167" lon="3.29082">
        <ele>72.9</ele>
        <time>2024-01-20T11:17:09Z</time>
      </trkpt>
      <trkpt lat="48.19172" lon="3.29014">
        <ele>72</ele>
        <time>2024-01-20T11:16:59Z</time>
      </trkpt>
      <trkpt lat="48.19171" lon="3.29007">
        <ele>72</ele>
        <time>2024-01-20T11:16:58Z</time>
      </trkpt>
      <trkpt lat="48.19171" lon="3.28979">
        <ele>72</ele>
        <time>2024-01-20T11:16:53Z</time>
      </trkpt>
      <trkpt lat="48.19173" lon="3.28962">
        <ele>72</ele>
        <time>2024-01-20T11:16:48Z</time>
      </trkpt>
      <trkpt lat="48.19176" lon="3.28918">
        <ele>71</ele>
        <time>2024-01-20T11:16:41Z</time>
      </trkpt>
      <trkpt lat="48.19179" lon="3.28849">
        <ele>71</ele>
        <time>2024-01-20T11:16:32Z</time>
      </trkpt>
      <trkpt lat="48.19181" lon="3.28797">
        <ele>71</ele>
        <time>2024-01-20T11:16:25Z</time>
      </trkpt>
      <trkpt lat="48.19181" lon="3.28791">
        <ele>71</ele>
        <time>2024-01-20T11:16:24Z</time>
      </trkpt>
      <trkpt lat="48.19182" lon="3.28783">
        <ele>71</ele>
        <time>2024-01-20T11:16:23Z</time>
      </trkpt>
      <trkpt lat="48.19184" lon="3.28774">
        <ele>71.1</ele>
        <time>2024-01-20T11:16:21Z</time>
      </trkpt>
      <trkpt lat="48.19186" lon="3.2877">
        <ele>71.2</ele>
        <time>2024-01-20T11:16:20Z</time>
      </trkpt>
      <trkpt lat="48.19189" lon="3.28768">
        <ele>71.3</ele>
        <time>2024-01-20T11:16:19Z</time>
      </trkpt>
      <trkpt lat="48.19194" lon="3.28768">
        <ele>71.3</ele>
        <time>2024-01-20T11:16:18Z</time>
      </trkpt>
      <trkpt lat="48.19238" lon="3.28773">
        <ele>71.1</ele>
        <time>2024-01-20T11:16:09Z</time>
      </trkpt>
      <trkpt lat="48.19262" lon="3.28775">
        <ele>71.1</ele>
        <time>2024-01-20T11:16:03Z</time>
      </trkpt>
      <trkpt lat="48.1927" lon="3.28774">
        <ele>71</ele>
        <time>2024-01-20T11:15:55Z</time>
      </trkpt>
      <trkpt lat="48.1927" lon="3.28774">
        <ele>71</ele>
        <time>2024-01-20T11:15:45Z</time>
      </trkpt>
      <trkpt lat="48.19286" lon="3.28779">
        <ele>71.3</ele>
        <time>2024-01-20T11:15:39Z</time>
      </trkpt>
      <trkpt lat="48.19306" lon="3.28783">
        <ele>71.8</ele>
        <time>2024-01-20T11:15:33Z</time>
      </trkpt>
      <trkpt lat="48.1932" lon="3.28787">
        <ele>71.7</ele>
        <time>2024-01-20T11:15:27Z</time>
      </trkpt>
      <trkpt lat="48.1934" lon="3.28789">
        <ele>71.7</ele>
        <time>2024-01-20T11:15:21Z</time>
      </trkpt>
      <trkpt lat="48.1936" lon="3.28787">
        <ele>72</ele>
        <time>2024-01-20T11:15:16Z</time>
      </trkpt>
      <trkpt lat="48.19365" lon="3.28786">
        <ele>72</ele>
        <time>2024-01-20T11:15:15Z</time>
      </trkpt>
      <trkpt lat="48.19386" lon="3.28787">
        <ele>72</ele>
        <time>2024-01-20T11:15:11Z</time>
      </trkpt>
      <trkpt lat="48.19444" lon="3.28784">
        <ele>72.8</ele>
        <time>2024-01-20T11:15:00Z</time>
      </trkpt>
      <trkpt lat="48.1948" lon="3.28777">
        <ele>73.3</ele>
        <time>2024-01-20T11:14:52Z</time>
      </trkpt>
      <trkpt lat="48.19484" lon="3.28777">
        <ele>73.4</ele>
        <time>2024-01-20T11:14:51Z</time>
      </trkpt>
      <trkpt lat="48.19486" lon="3.28777">
        <ele>73.5</ele>
        <time>2024-01-20T11:14:50Z</time>
      </trkpt>
      <trkpt lat="48.19488" lon="3.28775">
        <ele>73.6</ele>
        <time>2024-01-20T11:14:49Z</time>
      </trkpt>
      <trkpt lat="48.1949" lon="3.28773">
        <ele>73.6</ele>
        <time>2024-01-20T11:14:48Z</time>
      </trkpt>
      <trkpt lat="48.19492" lon="3.28772">
        <ele>73.7</ele>
        <time>2024-01-20T11:14:43Z</time>
      </trkpt>
      <trkpt lat="48.19497" lon="3.28771">
        <ele>73.9</ele>
        <time>2024-01-20T11:14:39Z</time>
      </trkpt>
      <trkpt lat="48.195" lon="3.2877">
        <ele>74</ele>
        <time>2024-01-20T11:14:38Z</time>
      </trkpt>
      <trkpt lat="48.19504" lon="3.28769">
        <ele>74</ele>
        <time>2024-01-20T11:14:37Z</time>
      </trkpt>
      <trkpt lat="48.19508" lon="3.28768">
        <ele>73.9</ele>
        <time>2024-01-20T11:14:36Z</time>
      </trkpt>
      <trkpt lat="48.19513" lon="3.28766">
        <ele>73.8</ele>
        <time>2024-01-20T11:14:35Z</time>
      </trkpt>
      <trkpt lat="48.19517" lon="3.28765">
        <ele>73.7</ele>
        <time>2024-01-20T11:14:34Z</time>
      </trkpt>
      <trkpt lat="48.19541" lon="3.28758">
        <ele>73.3</ele>
        <time>2024-01-20T11:14:28Z</time>
      </trkpt>
      <trkpt lat="48.1956" lon="3.28748">
        <ele>73</ele>
        <time>2024-01-20T11:14:23Z</time>
      </trkpt>
      <trkpt lat="48.19571" lon="3.28741">
        <ele>73</ele>
        <time>2024-01-20T11:14:18Z</time>
      </trkpt>
      <trkpt lat="48.19592" lon="3.28729">
        <ele>73</ele>
        <time>2024-01-20T11:14:11Z</time>
      </trkpt>
      <trkpt lat="48.1961" lon="3.28718">
        <ele>73.1</ele>
        <time>2024-01-20T11:14:06Z</time>
      </trkpt>
      <trkpt lat="48.19625" lon="3.28704">
        <ele>73.8</ele>
        <time>2024-01-20T11:14:02Z</time>
      </trkpt>
      <trkpt lat="48.19634" lon="3.28671">
        <ele>74</ele>
        <time>2024-01-20T11:13:56Z</time>
      </trkpt>
      <trkpt lat="48.19634" lon="3.28652">
        <ele>74</ele>
        <time>2024-01-20T11:13:53Z</time>
      </trkpt>
      <trkpt lat="48.19631" lon="3.28632">
        <ele>74</ele>
        <time>2024-01-20T11:13:50Z</time>
      </trkpt>
      <trkpt lat="48.19628" lon="3.28602">
        <ele>74</ele>
        <time>2024-01-20T11:13:45Z</time>
      </trkpt>
      <trkpt lat="48.19622" lon="3.28573">
        <ele>73.6</ele>
        <time>2024-01-20T11:13:39Z</time>
      </trkpt>
      <trkpt lat="48.19616" lon="3.2855">
        <ele>73</ele>
        <time>2024-01-20T11:13:32Z</time>
      </trkpt>
      <trkpt lat="48.19616" lon="3.2855">
        <ele>73</ele>
        <time>2024-01-20T11:13:31Z</time>
      </trkpt>
      <trkpt lat="48.19616" lon="3.2855">
        <ele>73</ele>
        <time>2024-01-20T11:13:17Z</time>
      </trkpt>
      <trkpt lat="48.19616" lon="3.2855">
        <ele>73</ele>
        <time>2024-01-20T11:13:03Z</time>
      </trkpt>
      <trkpt lat="48.19618" lon="3.28547">
        <ele>73</ele>
        <time>2024-01-20T11:12:57Z</time>
      </trkpt>
      <trkpt lat="48.19632" lon="3.28542">
        <ele>73</ele>
        <time>2024-01-20T11:12:53Z</time>
      </trkpt>
      <trkpt lat="48.19662" lon="3.28535">
        <ele>73.8</ele>
        <time>2024-01-20T11:12:46Z</time>
      </trkpt>
      <trkpt lat="48.19666" lon="3.28534">
        <ele>74</ele>
        <time>2024-01-20T11:12:45Z</time>
      </trkpt>
      <trkpt lat="48.19692" lon="3.28526">
        <ele>73.1</ele>
        <time>2024-01-20T11:12:39Z</time>
      </trkpt>
      <trkpt lat="48.19724" lon="3.28513">
        <ele>74</ele>
        <time>2024-01-20T11:12:32Z</time>
      </trkpt>
      <trkpt lat="48.19729" lon="3.28512">
        <ele>74</ele>
        <time>2024-01-20T11:12:31Z</time>
      </trkpt>
      <trkpt lat="48.19748" lon="3.28507">
        <ele>74</ele>
        <time>2024-01-20T11:12:27Z</time>
      </trkpt>
      <trkpt lat="48.19753" lon="3.28506">
        <ele>74</ele>
        <time>2024-01-20T11:12:26Z</time>
      </trkpt>
      <trkpt lat="48.19753" lon="3.28481">
        <ele>74</ele>
        <time>2024-01-20T11:12:19Z</time>
      </trkpt>
      <trkpt lat="48.19747" lon="3.2845">
        <ele>74</ele>
        <time>2024-01-20T11:12:12Z</time>
      </trkpt>
      <trkpt lat="48.19746" lon="3.28445">
        <ele>74</ele>
        <time>2024-01-20T11:12:11Z</time>
      </trkpt>
      <trkpt lat="48.19745" lon="3.28442">
        <ele>74</ele>
        <time>2024-01-20T11:12:10Z</time>
      </trkpt>
      <trkpt lat="48.19744" lon="3.28438">
        <ele>74</ele>
        <time>2024-01-20T11:12:09Z</time>
      </trkpt>
      <trkpt lat="48.19743" lon="3.28436">
        <ele>74</ele>
        <time>2024-01-20T11:12:08Z</time>
      </trkpt>
      <trkpt lat="48.19741" lon="3.28431">
        <ele>74</ele>
        <time>2024-01-20T11:12:01Z</time>
      </trkpt>
      <trkpt lat="48.19738" lon="3.28351">
        <ele>74</ele>
        <time>2024-01-20T11:11:34Z</time>
      </trkpt>
      <trkpt lat="48.19742" lon="3.28351">
        <ele>74</ele>
        <time>2024-01-20T11:11:33Z</time>
      </trkpt>
      <trkpt lat="48.19745" lon="3.28351">
        <ele>74</ele>
        <time>2024-01-20T11:11:32Z</time>
      </trkpt>
      <trkpt lat="48.19748" lon="3.28353">
        <ele>74</ele>
        <time>2024-01-20T11:11:31Z</time>
      </trkpt>
      <trkpt lat="48.1975" lon="3.28358">
        <ele>74</ele>
        <time>2024-01-20T11:11:30Z</time>
      </trkpt>
      <trkpt lat="48.19752" lon="3.28386">
        <ele>74</ele>
        <time>2024-01-20T11:11:28Z</time>
      </trkpt>
      <trkpt lat="48.19752" lon="3.28391">
        <ele>74</ele>
        <time>2024-01-20T11:11:26Z</time>
      </trkpt>
      <trkpt lat="48.19752" lon="3.28391">
        <ele>74</ele>
        <time>2024-01-20T11:11:03Z</time>
      </trkpt>
      <trkpt lat="48.19752" lon="3.2839">
        <ele>74</ele>
        <time>2024-01-20T11:10:22Z</time>
        <extensions>
          <visugpx:TrkExtension xmlns:visugpx="https://www.visugpx.com/editgpx/">
            <visugpx:node>1</visugpx:node>
            </visugpx:TrkExtension>
        </extensions>
      </trkpt>
    </trkseg>
  </trk>
  <trk>
    <name><![CDATA[CAP13]]></name>
    <extensions>
      <line xmlns="http://www.topografix.com/GPX/gpx_style/0/2">
        <color>ff0000</color>
        <width>7</width>
      </line>
    </extensions>
    <trkseg>
      <trkpt lat="48.19762" lon="3.28405">
        <ele>74</ele>
        <time>2024-01-21T10:22:13.000Z</time>
        <extensions>
          <visugpx:TrkExtension xmlns:visugpx="https://www.visugpx.com/editgpx/">
            <visugpx:node>1</visugpx:node>
            </visugpx:TrkExtension>
        </extensions>
      </trkpt>
      <trkpt lat="48.19764" lon="3.28391">
        <ele>74</ele>
        <time>2024-01-21T10:22:18.000Z</time>
      </trkpt>
      <trkpt lat="48.19766" lon="3.28366">
        <ele>74</ele>
        <time>2024-01-21T10:22:20.000Z</time>
      </trkpt>
      <trkpt lat="48.1977" lon="3.28351">
        <ele>74</ele>
        <time>2024-01-21T10:22:22.000Z</time>
      </trkpt>
      <trkpt lat="48.19771" lon="3.28346">
        <ele>74</ele>
        <time>2024-01-21T10:22:23.000Z</time>
      </trkpt>
      <trkpt lat="48.19772" lon="3.2834">
        <ele>74</ele>
        <time>2024-01-21T10:22:24.000Z</time>
      </trkpt>
      <trkpt lat="48.19776" lon="3.28321">
        <ele>74</ele>
        <time>2024-01-21T10:22:28.000Z</time>
      </trkpt>
      <trkpt lat="48.19776" lon="3.28318">
        <ele>74</ele>
        <time>2024-01-21T10:22:29.000Z</time>
      </trkpt>
      <trkpt lat="48.19778" lon="3.2831">
        <ele>74</ele>
        <time>2024-01-21T10:22:31.000Z</time>
      </trkpt>
      <trkpt lat="48.19778" lon="3.28306">
        <ele>74</ele>
        <time>2024-01-21T10:22:32.000Z</time>
      </trkpt>
      <trkpt lat="48.19778" lon="3.28303">
        <ele>74</ele>
        <time>2024-01-21T10:22:33.000Z</time>
      </trkpt>
      <trkpt lat="48.19778" lon="3.28268">
        <ele>74</ele>
        <time>2024-01-21T10:22:39.000Z</time>
      </trkpt>
      <trkpt lat="48.19778" lon="3.28263">
        <ele>74</ele>
        <time>2024-01-21T10:22:40.000Z</time>
      </trkpt>
      <trkpt lat="48.1978" lon="3.28238">
        <ele>74</ele>
        <time>2024-01-21T10:22:46.000Z</time>
      </trkpt>
      <trkpt lat="48.19778" lon="3.28232">
        <ele>74</ele>
        <time>2024-01-21T10:22:48.000Z</time>
      </trkpt>
      <trkpt lat="48.19778" lon="3.28228">
        <ele>74</ele>
        <time>2024-01-21T10:22:49.000Z</time>
      </trkpt>
      <trkpt lat="48.19777" lon="3.28225">
        <ele>74</ele>
        <time>2024-01-21T10:22:50.000Z</time>
      </trkpt>
      <trkpt lat="48.19776" lon="3.28221">
        <ele>74</ele>
        <time>2024-01-21T10:22:51.000Z</time>
      </trkpt>
      <trkpt lat="48.19775" lon="3.28218">
        <ele>74</ele>
        <time>2024-01-21T10:22:52.000Z</time>
      </trkpt>
      <trkpt lat="48.19771" lon="3.28208">
        <ele>74</ele>
        <time>2024-01-21T10:22:55.000Z</time>
      </trkpt>
      <trkpt lat="48.1977" lon="3.28205">
        <ele>74</ele>
        <time>2024-01-21T10:22:56.000Z</time>
      </trkpt>
      <trkpt lat="48.19769" lon="3.28202">
        <ele>74</ele>
        <time>2024-01-21T10:22:57.000Z</time>
      </trkpt>
      <trkpt lat="48.19762" lon="3.28178">
        <ele>73.4</ele>
        <time>2024-01-21T10:23:02.000Z</time>
      </trkpt>
      <trkpt lat="48.19759" lon="3.28169">
        <ele>73.1</ele>
        <time>2024-01-21T10:23:04.000Z</time>
      </trkpt>
      <trkpt lat="48.19758" lon="3.28166">
        <ele>73</ele>
        <time>2024-01-21T10:23:05.000Z</time>
      </trkpt>
      <trkpt lat="48.19752" lon="3.28146">
        <ele>73</ele>
        <time>2024-01-21T10:23:10.000Z</time>
      </trkpt>
      <trkpt lat="48.19719" lon="3.28153">
        <ele>73</ele>
        <time>2024-01-21T10:23:20.000Z</time>
      </trkpt>
      <trkpt lat="48.19719" lon="3.28139">
        <ele>73</ele>
        <time>2024-01-21T10:23:22.000Z</time>
      </trkpt>
      <trkpt lat="48.1972" lon="3.28131">
        <ele>73</ele>
        <time>2024-01-21T10:23:23.000Z</time>
      </trkpt>
      <trkpt lat="48.19716" lon="3.28055">
        <ele>72.8</ele>
        <time>2024-01-21T10:23:38.000Z</time>
      </trkpt>
      <trkpt lat="48.19715" lon="3.28051">
        <ele>72.6</ele>
        <time>2024-01-21T10:23:39.000Z</time>
      </trkpt>
      <trkpt lat="48.19713" lon="3.28037">
        <ele>72.2</ele>
        <time>2024-01-21T10:23:42.000Z</time>
      </trkpt>
      <trkpt lat="48.19713" lon="3.28032">
        <ele>72.1</ele>
        <time>2024-01-21T10:23:43.000Z</time>
      </trkpt>
      <trkpt lat="48.19713" lon="3.28027">
        <ele>72</ele>
        <time>2024-01-21T10:23:44.000Z</time>
      </trkpt>
      <trkpt lat="48.19712" lon="3.28022">
        <ele>72</ele>
        <time>2024-01-21T10:23:45.000Z</time>
      </trkpt>
      <trkpt lat="48.19711" lon="3.28005">
        <ele>72</ele>
        <time>2024-01-21T10:23:48.000Z</time>
      </trkpt>
      <trkpt lat="48.19711" lon="3.27999">
        <ele>72</ele>
        <time>2024-01-21T10:23:49.000Z</time>
      </trkpt>
      <trkpt lat="48.19711" lon="3.27992">
        <ele>71.9</ele>
        <time>2024-01-21T10:23:50.000Z</time>
      </trkpt>
      <trkpt lat="48.1971" lon="3.27969">
        <ele>71.5</ele>
        <time>2024-01-21T10:23:53.000Z</time>
      </trkpt>
      <trkpt lat="48.19712" lon="3.27938">
        <ele>70.9</ele>
        <time>2024-01-21T10:23:57.000Z</time>
      </trkpt>
      <trkpt lat="48.19713" lon="3.27922">
        <ele>70.5</ele>
        <time>2024-01-21T10:23:59.000Z</time>
      </trkpt>
      <trkpt lat="48.19714" lon="3.27914">
        <ele>70.3</ele>
        <time>2024-01-21T10:24:00.000Z</time>
      </trkpt>
      <trkpt lat="48.19714" lon="3.27904">
        <ele>70.2</ele>
        <time>2024-01-21T10:24:01.000Z</time>
      </trkpt>
      <trkpt lat="48.19716" lon="3.2789">
        <ele>70</ele>
        <time>2024-01-21T10:24:03.000Z</time>
      </trkpt>
      <trkpt lat="48.19715" lon="3.27862">
        <ele>70</ele>
        <time>2024-01-21T10:24:07.000Z</time>
      </trkpt>
      <trkpt lat="48.19716" lon="3.27857">
        <ele>69.9</ele>
        <time>2024-01-21T10:24:08.000Z</time>
      </trkpt>
      <trkpt lat="48.19716" lon="3.2785">
        <ele>69.6</ele>
        <time>2024-01-21T10:24:09.000Z</time>
      </trkpt>
      <trkpt lat="48.19716" lon="3.27843">
        <ele>69.3</ele>
        <time>2024-01-21T10:24:10.000Z</time>
      </trkpt>
      <trkpt lat="48.19716" lon="3.27836">
        <ele>69.1</ele>
        <time>2024-01-21T10:24:11.000Z</time>
      </trkpt>
      <trkpt lat="48.19715" lon="3.27814">
        <ele>68.5</ele>
        <time>2024-01-21T10:24:14.000Z</time>
      </trkpt>
      <trkpt lat="48.19714" lon="3.27794">
        <ele>68.3</ele>
        <time>2024-01-21T10:24:17.000Z</time>
      </trkpt>
      <trkpt lat="48.19715" lon="3.27788">
        <ele>68.3</ele>
        <time>2024-01-21T10:24:18.000Z</time>
      </trkpt>
      <trkpt lat="48.19715" lon="3.27783">
        <ele>68.3</ele>
        <time>2024-01-21T10:24:19.000Z</time>
      </trkpt>
      <trkpt lat="48.19716" lon="3.27777">
        <ele>68.2</ele>
        <time>2024-01-21T10:24:20.000Z</time>
      </trkpt>
      <trkpt lat="48.19716" lon="3.27771">
        <ele>68.2</ele>
        <time>2024-01-21T10:24:21.000Z</time>
      </trkpt>
      <trkpt lat="48.19717" lon="3.27765">
        <ele>68.2</ele>
        <time>2024-01-21T10:24:22.000Z</time>
      </trkpt>
      <trkpt lat="48.19717" lon="3.27758">
        <ele>68.2</ele>
        <time>2024-01-21T10:24:23.000Z</time>
      </trkpt>
      <trkpt lat="48.19718" lon="3.27754">
        <ele>68.2</ele>
        <time>2024-01-21T10:24:24.000Z</time>
      </trkpt>
      <trkpt lat="48.1972" lon="3.27736">
        <ele>68</ele>
        <time>2024-01-21T10:24:27.000Z</time>
      </trkpt>
      <trkpt lat="48.19722" lon="3.27726">
        <ele>68</ele>
        <time>2024-01-21T10:24:29.000Z</time>
      </trkpt>
      <trkpt lat="48.19723" lon="3.27721">
        <ele>68</ele>
        <time>2024-01-21T10:24:30.000Z</time>
      </trkpt>
      <trkpt lat="48.19724" lon="3.27717">
        <ele>68.2</ele>
        <time>2024-01-21T10:24:31.000Z</time>
      </trkpt>
      <trkpt lat="48.19725" lon="3.27714">
        <ele>68.3</ele>
        <time>2024-01-21T10:24:32.000Z</time>
      </trkpt>
      <trkpt lat="48.19726" lon="3.27711">
        <ele>68.4</ele>
        <time>2024-01-21T10:24:33.000Z</time>
      </trkpt>
      <trkpt lat="48.19727" lon="3.27708">
        <ele>68.5</ele>
        <time>2024-01-21T10:24:34.000Z</time>
      </trkpt>
      <trkpt lat="48.19727" lon="3.27705">
        <ele>68.6</ele>
        <time>2024-01-21T10:24:35.000Z</time>
      </trkpt>
      <trkpt lat="48.19728" lon="3.27702">
        <ele>68.7</ele>
        <time>2024-01-21T10:24:36.000Z</time>
      </trkpt>
      <trkpt lat="48.19728" lon="3.277">
        <ele>68.8</ele>
        <time>2024-01-21T10:24:37.000Z</time>
      </trkpt>
      <trkpt lat="48.19728" lon="3.27697">
        <ele>68.9</ele>
        <time>2024-01-21T10:24:38.000Z</time>
      </trkpt>
      <trkpt lat="48.19729" lon="3.27694">
        <ele>69</ele>
        <time>2024-01-21T10:24:39.000Z</time>
      </trkpt>
      <trkpt lat="48.19729" lon="3.27691">
        <ele>69</ele>
        <time>2024-01-21T10:24:40.000Z</time>
      </trkpt>
      <trkpt lat="48.19732" lon="3.27686">
        <ele>68.9</ele>
        <time>2024-01-21T10:24:42.000Z</time>
      </trkpt>
      <trkpt lat="48.19733" lon="3.27683">
        <ele>68.8</ele>
        <time>2024-01-21T10:24:43.000Z</time>
      </trkpt>
      <trkpt lat="48.19734" lon="3.2768">
        <ele>68.8</ele>
        <time>2024-01-21T10:24:44.000Z</time>
      </trkpt>
      <trkpt lat="48.19735" lon="3.27678">
        <ele>68.7</ele>
        <time>2024-01-21T10:24:45.000Z</time>
      </trkpt>
      <trkpt lat="48.19735" lon="3.27675">
        <ele>68.7</ele>
        <time>2024-01-21T10:24:46.000Z</time>
      </trkpt>
      <trkpt lat="48.19736" lon="3.27672">
        <ele>68.6</ele>
        <time>2024-01-21T10:24:47.000Z</time>
      </trkpt>
      <trkpt lat="48.19735" lon="3.27669">
        <ele>68.6</ele>
        <time>2024-01-21T10:24:48.000Z</time>
      </trkpt>
      <trkpt lat="48.19738" lon="3.27653">
        <ele>66</ele>
        <time>2024-01-21T10:24:53.000Z</time>
      </trkpt>
      <trkpt lat="48.19739" lon="3.27643">
        <ele>64.3</ele>
        <time>2024-01-21T10:24:56.000Z</time>
      </trkpt>
      <trkpt lat="48.19743" lon="3.27618">
        <ele>63.9</ele>
        <time>2024-01-21T10:25:03.000Z</time>
      </trkpt>
      <trkpt lat="48.19746" lon="3.27598">
        <ele>64</ele>
        <time>2024-01-21T10:25:08.000Z</time>
      </trkpt>
      <trkpt lat="48.19752" lon="3.27567">
        <ele>66.9</ele>
        <time>2024-01-21T10:25:16.000Z</time>
      </trkpt>
      <trkpt lat="48.19753" lon="3.27564">
        <ele>67.4</ele>
        <time>2024-01-21T10:25:17.000Z</time>
      </trkpt>
      <trkpt lat="48.19757" lon="3.27556">
        <ele>68.4</ele>
        <time>2024-01-21T10:25:20.000Z</time>
      </trkpt>
      <trkpt lat="48.19758" lon="3.27554">
        <ele>68.4</ele>
        <time>2024-01-21T10:25:21.000Z</time>
      </trkpt>
      <trkpt lat="48.19759" lon="3.27552">
        <ele>68.4</ele>
        <time>2024-01-21T10:25:22.000Z</time>
      </trkpt>
      <trkpt lat="48.19761" lon="3.27551">
        <ele>68.3</ele>
        <time>2024-01-21T10:25:23.000Z</time>
      </trkpt>
      <trkpt lat="48.19761" lon="3.27551">
        <ele>68.3</ele>
        <time>2024-01-21T10:25:24.000Z</time>
      </trkpt>
      <trkpt lat="48.19761" lon="3.27551">
        <ele>68.3</ele>
        <time>2024-01-21T10:25:25.000Z</time>
      </trkpt>
      <trkpt lat="48.19762" lon="3.27551">
        <ele>68.2</ele>
        <time>2024-01-21T10:25:28.000Z</time>
      </trkpt>
      <trkpt lat="48.19762" lon="3.27551">
        <ele>68.2</ele>
        <time>2024-01-21T10:25:29.000Z</time>
      </trkpt>
      <trkpt lat="48.19762" lon="3.27551">
        <ele>68.2</ele>
        <time>2024-01-21T10:25:30.000Z</time>
      </trkpt>
      <trkpt lat="48.19762" lon="3.27551">
        <ele>68.2</ele>
        <time>2024-01-21T10:25:32.000Z</time>
      </trkpt>
      <trkpt lat="48.19763" lon="3.27552">
        <ele>68.1</ele>
        <time>2024-01-21T10:25:33.000Z</time>
      </trkpt>
      <trkpt lat="48.19763" lon="3.27552">
        <ele>68.1</ele>
        <time>2024-01-21T10:25:34.000Z</time>
      </trkpt>
      <trkpt lat="48.19763" lon="3.27553">
        <ele>68.1</ele>
        <time>2024-01-21T10:25:35.000Z</time>
      </trkpt>
      <trkpt lat="48.19764" lon="3.27554">
        <ele>68</ele>
        <time>2024-01-21T10:25:37.000Z</time>
      </trkpt>
      <trkpt lat="48.19763" lon="3.27556">
        <ele>68</ele>
        <time>2024-01-21T10:25:38.000Z</time>
      </trkpt>
      <trkpt lat="48.19763" lon="3.27558">
        <ele>67.7</ele>
        <time>2024-01-21T10:25:39.000Z</time>
      </trkpt>
      <trkpt lat="48.19762" lon="3.27564">
        <ele>67</ele>
        <time>2024-01-21T10:25:41.000Z</time>
      </trkpt>
      <trkpt lat="48.19761" lon="3.27567">
        <ele>66.6</ele>
        <time>2024-01-21T10:25:42.000Z</time>
      </trkpt>
      <trkpt lat="48.19761" lon="3.27569">
        <ele>66.4</ele>
        <time>2024-01-21T10:25:43.000Z</time>
      </trkpt>
      <trkpt lat="48.19761" lon="3.27571">
        <ele>66.1</ele>
        <time>2024-01-21T10:25:44.000Z</time>
      </trkpt>
      <trkpt lat="48.1976" lon="3.27571">
        <ele>66.1</ele>
        <time>2024-01-21T10:25:45.000Z</time>
      </trkpt>
      <trkpt lat="48.1976" lon="3.27571">
        <ele>66.1</ele>
        <time>2024-01-21T10:25:46.000Z</time>
      </trkpt>
      <trkpt lat="48.19761" lon="3.27572">
        <ele>66</ele>
        <time>2024-01-21T10:25:49.000Z</time>
      </trkpt>
      <trkpt lat="48.19761" lon="3.27575">
        <ele>65.5</ele>
        <time>2024-01-21T10:25:51.000Z</time>
      </trkpt>
      <trkpt lat="48.19762" lon="3.27576">
        <ele>65.4</ele>
        <time>2024-01-21T10:25:52.000Z</time>
      </trkpt>
      <trkpt lat="48.19762" lon="3.27578">
        <ele>65.1</ele>
        <time>2024-01-21T10:25:54.000Z</time>
      </trkpt>
      <trkpt lat="48.19762" lon="3.27578">
        <ele>65.1</ele>
        <time>2024-01-21T10:25:55.000Z</time>
      </trkpt>
      <trkpt lat="48.19763" lon="3.27579">
        <ele>65</ele>
        <time>2024-01-21T10:25:56.000Z</time>
      </trkpt>
      <trkpt lat="48.19765" lon="3.2758">
        <ele>64.9</ele>
        <time>2024-01-21T10:25:57.000Z</time>
      </trkpt>
      <trkpt lat="48.19766" lon="3.27581">
        <ele>64.9</ele>
        <time>2024-01-21T10:25:58.000Z</time>
      </trkpt>
      <trkpt lat="48.19769" lon="3.27582">
        <ele>64.8</ele>
        <time>2024-01-21T10:25:59.000Z</time>
      </trkpt>
      <trkpt lat="48.19774" lon="3.27582">
        <ele>65</ele>
        <time>2024-01-21T10:26:01.000Z</time>
      </trkpt>
      <trkpt lat="48.19776" lon="3.27582">
        <ele>65</ele>
        <time>2024-01-21T10:26:02.000Z</time>
      </trkpt>
      <trkpt lat="48.19781" lon="3.27582">
        <ele>65</ele>
        <time>2024-01-21T10:26:04.000Z</time>
      </trkpt>
      <trkpt lat="48.19783" lon="3.27581">
        <ele>65</ele>
        <time>2024-01-21T10:26:05.000Z</time>
      </trkpt>
      <trkpt lat="48.19785" lon="3.2758">
        <ele>65</ele>
        <time>2024-01-21T10:26:06.000Z</time>
      </trkpt>
      <trkpt lat="48.19787" lon="3.27579">
        <ele>65</ele>
        <time>2024-01-21T10:26:07.000Z</time>
      </trkpt>
      <trkpt lat="48.19789" lon="3.27578">
        <ele>65</ele>
        <time>2024-01-21T10:26:08.000Z</time>
      </trkpt>
      <trkpt lat="48.1979" lon="3.27577">
        <ele>65</ele>
        <time>2024-01-21T10:26:09.000Z</time>
      </trkpt>
      <trkpt lat="48.1979" lon="3.27575">
        <ele>65.2</ele>
        <time>2024-01-21T10:26:10.000Z</time>
      </trkpt>
      <trkpt lat="48.19791" lon="3.27573">
        <ele>65.3</ele>
        <time>2024-01-21T10:26:11.000Z</time>
      </trkpt>
      <trkpt lat="48.19793" lon="3.27572">
        <ele>65.3</ele>
        <time>2024-01-21T10:26:12.000Z</time>
      </trkpt>
      <trkpt lat="48.19793" lon="3.27574">
        <ele>65.1</ele>
        <time>2024-01-21T10:26:20.000Z</time>
      </trkpt>
      <trkpt lat="48.19793" lon="3.27575">
        <ele>65.1</ele>
        <time>2024-01-21T10:26:22.000Z</time>
      </trkpt>
      <trkpt lat="48.19793" lon="3.27575">
        <ele>65.1</ele>
        <time>2024-01-21T10:26:23.000Z</time>
      </trkpt>
      <trkpt lat="48.19793" lon="3.27575">
        <ele>65.1</ele>
        <time>2024-01-21T10:26:24.000Z</time>
      </trkpt>
      <trkpt lat="48.19795" lon="3.27577">
        <ele>64.8</ele>
        <time>2024-01-21T10:26:26.000Z</time>
      </trkpt>
      <trkpt lat="48.19796" lon="3.27578">
        <ele>64.7</ele>
        <time>2024-01-21T10:26:27.000Z</time>
      </trkpt>
      <trkpt lat="48.19798" lon="3.27579">
        <ele>64.6</ele>
        <time>2024-01-21T10:26:28.000Z</time>
      </trkpt>
      <trkpt lat="48.19803" lon="3.27579">
        <ele>64.4</ele>
        <time>2024-01-21T10:26:30.000Z</time>
      </trkpt>
      <trkpt lat="48.19805" lon="3.27579">
        <ele>64.3</ele>
        <time>2024-01-21T10:26:31.000Z</time>
      </trkpt>
      <trkpt lat="48.1981" lon="3.27579">
        <ele>64.3</ele>
        <time>2024-01-21T10:26:33.000Z</time>
      </trkpt>
      <trkpt lat="48.19813" lon="3.27579">
        <ele>64.3</ele>
        <time>2024-01-21T10:26:34.000Z</time>
      </trkpt>
      <trkpt lat="48.19823" lon="3.27579">
        <ele>64.3</ele>
        <time>2024-01-21T10:26:38.000Z</time>
      </trkpt>
      <trkpt lat="48.19828" lon="3.27579">
        <ele>64.3</ele>
        <time>2024-01-21T10:26:40.000Z</time>
      </trkpt>
      <trkpt lat="48.19846" lon="3.27578">
        <ele>64.3</ele>
        <time>2024-01-21T10:26:47.000Z</time>
      </trkpt>
      <trkpt lat="48.1985" lon="3.27577">
        <ele>64.3</ele>
        <time>2024-01-21T10:26:49.000Z</time>
      </trkpt>
      <trkpt lat="48.19853" lon="3.27577">
        <ele>64.3</ele>
        <time>2024-01-21T10:26:50.000Z</time>
      </trkpt>
      <trkpt lat="48.19854" lon="3.27576">
        <ele>64.3</ele>
        <time>2024-01-21T10:26:51.000Z</time>
      </trkpt>
      <trkpt lat="48.19859" lon="3.27574">
        <ele>64.4</ele>
        <time>2024-01-21T10:26:53.000Z</time>
      </trkpt>
      <trkpt lat="48.19861" lon="3.27573">
        <ele>64.4</ele>
        <time>2024-01-21T10:26:54.000Z</time>
      </trkpt>
      <trkpt lat="48.19862" lon="3.27572">
        <ele>64.4</ele>
        <time>2024-01-21T10:26:55.000Z</time>
      </trkpt>
      <trkpt lat="48.19864" lon="3.27571">
        <ele>64.4</ele>
        <time>2024-01-21T10:26:56.000Z</time>
      </trkpt>
      <trkpt lat="48.19866" lon="3.27569">
        <ele>64.5</ele>
        <time>2024-01-21T10:26:57.000Z</time>
      </trkpt>
      <trkpt lat="48.19868" lon="3.27568">
        <ele>64.6</ele>
        <time>2024-01-21T10:26:58.000Z</time>
      </trkpt>
      <trkpt lat="48.19869" lon="3.27567">
        <ele>64.6</ele>
        <time>2024-01-21T10:26:59.000Z</time>
      </trkpt>
      <trkpt lat="48.19871" lon="3.27566">
        <ele>64.6</ele>
        <time>2024-01-21T10:27:00.000Z</time>
      </trkpt>
      <trkpt lat="48.19872" lon="3.27565">
        <ele>64.7</ele>
        <time>2024-01-21T10:27:01.000Z</time>
      </trkpt>
      <trkpt lat="48.19874" lon="3.27564">
        <ele>64.7</ele>
        <time>2024-01-21T10:27:02.000Z</time>
      </trkpt>
      <trkpt lat="48.19876" lon="3.27563">
        <ele>64.7</ele>
        <time>2024-01-21T10:27:03.000Z</time>
      </trkpt>
      <trkpt lat="48.19878" lon="3.27562">
        <ele>64.8</ele>
        <time>2024-01-21T10:27:04.000Z</time>
      </trkpt>
      <trkpt lat="48.1988" lon="3.27561">
        <ele>64.8</ele>
        <time>2024-01-21T10:27:05.000Z</time>
      </trkpt>
      <trkpt lat="48.19882" lon="3.2756">
        <ele>64.8</ele>
        <time>2024-01-21T10:27:06.000Z</time>
      </trkpt>
      <trkpt lat="48.19883" lon="3.27559">
        <ele>64.9</ele>
        <time>2024-01-21T10:27:07.000Z</time>
      </trkpt>
      <trkpt lat="48.19883" lon="3.27559">
        <ele>64.9</ele>
        <time>2024-01-21T10:27:08.000Z</time>
      </trkpt>
      <trkpt lat="48.19883" lon="3.27559">
        <ele>64.9</ele>
        <time>2024-01-21T10:27:09.000Z</time>
      </trkpt>
      <trkpt lat="48.19884" lon="3.27559">
        <ele>64.9</ele>
        <time>2024-01-21T10:27:11.000Z</time>
      </trkpt>
      <trkpt lat="48.19885" lon="3.27559">
        <ele>64.9</ele>
        <time>2024-01-21T10:27:12.000Z</time>
      </trkpt>
      <trkpt lat="48.19888" lon="3.2756">
        <ele>64.8</ele>
        <time>2024-01-21T10:27:14.000Z</time>
      </trkpt>
      <trkpt lat="48.19901" lon="3.27556">
        <ele>65</ele>
        <time>2024-01-21T10:27:19.000Z</time>
      </trkpt>
      <trkpt lat="48.19905" lon="3.27556">
        <ele>65</ele>
        <time>2024-01-21T10:27:20.000Z</time>
      </trkpt>
      <trkpt lat="48.19916" lon="3.27551">
        <ele>65</ele>
        <time>2024-01-21T10:27:25.000Z</time>
      </trkpt>
      <trkpt lat="48.19918" lon="3.2755">
        <ele>65</ele>
        <time>2024-01-21T10:27:26.000Z</time>
      </trkpt>
      <trkpt lat="48.19919" lon="3.2755">
        <ele>64.9</ele>
        <time>2024-01-21T10:27:27.000Z</time>
      </trkpt>
      <trkpt lat="48.1992" lon="3.27549">
        <ele>64.9</ele>
        <time>2024-01-21T10:27:28.000Z</time>
      </trkpt>
      <trkpt lat="48.19922" lon="3.27549">
        <ele>64.9</ele>
        <time>2024-01-21T10:27:29.000Z</time>
      </trkpt>
      <trkpt lat="48.19946" lon="3.2754">
        <ele>64.6</ele>
      </trkpt>
      <trkpt lat="48.19944" lon="3.27528">
        <ele>65</ele>
        <time>2024-01-21T10:27:45.000Z</time>
      </trkpt>
      <trkpt lat="48.19938" lon="3.275">
        <ele>66</ele>
        <time>2024-01-21T10:27:54.000Z</time>
      </trkpt>
      <trkpt lat="48.19937" lon="3.27496">
        <ele>66</ele>
        <time>2024-01-21T10:27:56.000Z</time>
      </trkpt>
      <trkpt lat="48.19936" lon="3.27485">
        <ele>66</ele>
      </trkpt>
      <trkpt lat="48.19947" lon="3.27483">
        <ele>66</ele>
        <time>2024-01-21T10:28:01.000Z</time>
      </trkpt>
      <trkpt lat="48.19958" lon="3.2748">
        <ele>66</ele>
        <time>2024-01-21T10:28:05.000Z</time>
      </trkpt>
      <trkpt lat="48.19963" lon="3.2748">
        <ele>66</ele>
        <time>2024-01-21T10:28:07.000Z</time>
      </trkpt>
      <trkpt lat="48.19967" lon="3.27478">
        <ele>66</ele>
        <time>2024-01-21T10:28:11.000Z</time>
      </trkpt>
      <trkpt lat="48.19969" lon="3.27476">
        <ele>66</ele>
      </trkpt>
      <trkpt lat="48.19969" lon="3.27472">
        <ele>66</ele>
        <time>2024-01-21T10:28:15.000Z</time>
      </trkpt>
      <trkpt lat="48.19965" lon="3.27401">
        <ele>64.8</ele>
        <time>2024-01-21T10:28:26.000Z</time>
      </trkpt>
      <trkpt lat="48.19962" lon="3.27403">
        <ele>64.8</ele>
        <time>2024-01-21T10:28:33.000Z</time>
      </trkpt>
      <trkpt lat="48.19953" lon="3.27404">
        <ele>64.7</ele>
      </trkpt>
      <trkpt lat="48.19945" lon="3.27407">
        <ele>64.7</ele>
        <time>2024-01-21T10:28:43.000Z</time>
      </trkpt>
      <trkpt lat="48.19936" lon="3.27407">
        <ele>64.7</ele>
        <time>2024-01-21T10:28:47.000Z</time>
      </trkpt>
      <trkpt lat="48.19925" lon="3.27408">
        <ele>64.7</ele>
        <time>2024-01-21T10:28:51.000Z</time>
      </trkpt>
      <trkpt lat="48.19922" lon="3.27409">
        <ele>64.7</ele>
        <time>2024-01-21T10:28:52.000Z</time>
      </trkpt>
      <trkpt lat="48.19919" lon="3.27409">
        <ele>64.7</ele>
        <time>2024-01-21T10:28:53.000Z</time>
      </trkpt>
      <trkpt lat="48.19917" lon="3.2741">
        <ele>64.8</ele>
        <time>2024-01-21T10:28:54.000Z</time>
      </trkpt>
      <trkpt lat="48.19915" lon="3.27411">
        <ele>64.8</ele>
        <time>2024-01-21T10:28:55.000Z</time>
      </trkpt>
      <trkpt lat="48.19913" lon="3.27412">
        <ele>64.8</ele>
        <time>2024-01-21T10:28:56.000Z</time>
      </trkpt>
      <trkpt lat="48.1991" lon="3.27413">
        <ele>64.9</ele>
        <time>2024-01-21T10:28:57.000Z</time>
      </trkpt>
      <trkpt lat="48.19908" lon="3.27414">
        <ele>64.9</ele>
        <time>2024-01-21T10:28:58.000Z</time>
      </trkpt>
      <trkpt lat="48.19898" lon="3.27417">
        <ele>65</ele>
        <time>2024-01-21T10:29:02.000Z</time>
      </trkpt>
      <trkpt lat="48.19896" lon="3.27418">
        <ele>65</ele>
        <time>2024-01-21T10:29:03.000Z</time>
      </trkpt>
      <trkpt lat="48.19894" lon="3.27418">
        <ele>65</ele>
        <time>2024-01-21T10:29:04.000Z</time>
      </trkpt>
      <trkpt lat="48.19892" lon="3.27418">
        <ele>65</ele>
        <time>2024-01-21T10:29:05.000Z</time>
      </trkpt>
      <trkpt lat="48.19891" lon="3.27418">
        <ele>65</ele>
        <time>2024-01-21T10:29:06.000Z</time>
      </trkpt>
    </trkseg>
  </trk>
  <trk>
    <name><![CDATA[VTT14 B2]]></name>
    <extensions>
      <line xmlns="http://www.topografix.com/GPX/gpx_style/0/2">
        <color>fa00c4</color>
        <width>4</width>
      </line>
    </extensions>
    <trkseg>
      <trkpt lat="48.19859" lon="3.24559">
        <ele>103.1</ele>
      </trkpt>
      <trkpt lat="48.19876" lon="3.24538">
        <ele>102.3</ele>
        <time>2020-02-08T10:17:57Z</time>
      </trkpt>
      <trkpt lat="48.19883" lon="3.24536">
        <ele>102</ele>
        <time>2020-02-08T10:18:01Z</time>
      </trkpt>
      <trkpt lat="48.19894" lon="3.24534">
        <ele>101.8</ele>
        <time>2020-02-08T10:18:06Z</time>
      </trkpt>
      <trkpt lat="48.19904" lon="3.24542">
        <ele>101.5</ele>
        <time>2020-02-08T10:18:12Z</time>
      </trkpt>
      <trkpt lat="48.19909" lon="3.24546">
        <ele>101.3</ele>
        <time>2020-02-08T10:18:15Z</time>
      </trkpt>
      <trkpt lat="48.19918" lon="3.24551">
        <ele>101.3</ele>
        <time>2020-02-08T10:18:20Z</time>
      </trkpt>
      <trkpt lat="48.19923" lon="3.24553">
        <ele>101.6</ele>
        <time>2020-02-08T10:18:23Z</time>
      </trkpt>
      <trkpt lat="48.19935" lon="3.24561">
        <ele>102.1</ele>
        <time>2020-02-08T10:18:30Z</time>
      </trkpt>
      <trkpt lat="48.1994" lon="3.24558">
        <ele>102.5</ele>
        <time>2020-02-08T10:18:33Z</time>
      </trkpt>
      <trkpt lat="48.19952" lon="3.24565">
        <ele>102.9</ele>
        <time>2020-02-08T10:18:40Z</time>
      </trkpt>
      <trkpt lat="48.19956" lon="3.24565">
        <ele>103.2</ele>
        <time>2020-02-08T10:18:44Z</time>
      </trkpt>
      <trkpt lat="48.19964" lon="3.24561">
        <ele>104</ele>
        <time>2020-02-08T10:18:51Z</time>
      </trkpt>
      <trkpt lat="48.19965" lon="3.2456">
        <ele>104.2</ele>
        <time>2020-02-08T10:18:54Z</time>
      </trkpt>
      <trkpt lat="48.19972" lon="3.24559">
        <ele>104.7</ele>
        <time>2020-02-08T10:19:01Z</time>
      </trkpt>
      <trkpt lat="48.19978" lon="3.24555">
        <ele>105.9</ele>
        <time>2020-02-08T10:19:09Z</time>
      </trkpt>
      <trkpt lat="48.19984" lon="3.2455">
        <ele>107.3</ele>
        <time>2020-02-08T10:19:17Z</time>
      </trkpt>
      <trkpt lat="48.19988" lon="3.24546">
        <ele>108.3</ele>
        <time>2020-02-08T10:19:25Z</time>
      </trkpt>
      <trkpt lat="48.19996" lon="3.24542">
        <ele>109.9</ele>
        <time>2020-02-08T10:19:34Z</time>
      </trkpt>
      <trkpt lat="48.2" lon="3.24536">
        <ele>111.1</ele>
        <time>2020-02-08T10:19:43Z</time>
      </trkpt>
      <trkpt lat="48.2" lon="3.24533">
        <ele>111.4</ele>
        <time>2020-02-08T10:19:52Z</time>
      </trkpt>
      <trkpt lat="48.19999" lon="3.24533">
        <ele>111.3</ele>
        <time>2020-02-08T10:20:09Z</time>
      </trkpt>
      <trkpt lat="48.19998" lon="3.24531">
        <ele>111.4</ele>
        <time>2020-02-08T10:20:17Z</time>
      </trkpt>
      <trkpt lat="48.19998" lon="3.24527">
        <ele>111.8</ele>
        <time>2020-02-08T10:20:20Z</time>
      </trkpt>
      <trkpt lat="48.2" lon="3.24516">
        <ele>113.3</ele>
        <time>2020-02-08T10:20:29Z</time>
      </trkpt>
      <trkpt lat="48.19998" lon="3.24508">
        <ele>113.8</ele>
        <time>2020-02-08T10:20:36Z</time>
      </trkpt>
      <trkpt lat="48.19999" lon="3.245">
        <ele>114.9</ele>
        <time>2020-02-08T10:20:44Z</time>
      </trkpt>
      <trkpt lat="48.20002" lon="3.245">
        <ele>115.4</ele>
        <time>2020-02-08T10:20:49Z</time>
      </trkpt>
      <trkpt lat="48.20009" lon="3.24509">
        <ele>115.9</ele>
        <time>2020-02-08T10:20:58Z</time>
      </trkpt>
      <trkpt lat="48.20014" lon="3.24507">
        <ele>117.1</ele>
        <time>2020-02-08T10:21:06Z</time>
      </trkpt>
      <trkpt lat="48.20021" lon="3.24508">
        <ele>118.5</ele>
        <time>2020-02-08T10:21:13Z</time>
      </trkpt>
      <trkpt lat="48.20023" lon="3.24507">
        <ele>119</ele>
        <time>2020-02-08T10:21:20Z</time>
      </trkpt>
      <trkpt lat="48.20026" lon="3.24507">
        <ele>119.6</ele>
        <time>2020-02-08T10:21:27Z</time>
      </trkpt>
      <trkpt lat="48.20028" lon="3.24509">
        <ele>119.7</ele>
        <time>2020-02-08T10:21:33Z</time>
      </trkpt>
      <trkpt lat="48.20033" lon="3.2451">
        <ele>120.5</ele>
        <time>2020-02-08T10:21:40Z</time>
      </trkpt>
      <trkpt lat="48.20035" lon="3.2451">
        <ele>120.9</ele>
        <time>2020-02-08T10:21:47Z</time>
      </trkpt>
      <trkpt lat="48.20037" lon="3.24506">
        <ele>121.8</ele>
        <time>2020-02-08T10:21:51Z</time>
      </trkpt>
      <trkpt lat="48.20045" lon="3.24495">
        <ele>124.8</ele>
        <time>2020-02-08T10:22:00Z</time>
      </trkpt>
      <trkpt lat="48.20048" lon="3.24492">
        <ele>125.7</ele>
        <time>2020-02-08T10:22:03Z</time>
      </trkpt>
      <trkpt lat="48.20049" lon="3.24484">
        <ele>127</ele>
        <time>2020-02-08T10:22:10Z</time>
      </trkpt>
      <trkpt lat="48.20053" lon="3.24475">
        <ele>129.1</ele>
        <time>2020-02-08T10:22:18Z</time>
      </trkpt>
      <trkpt lat="48.20059" lon="3.24468">
        <ele>131</ele>
        <time>2020-02-08T10:22:25Z</time>
      </trkpt>
      <trkpt lat="48.20064" lon="3.24457">
        <ele>132.9</ele>
        <time>2020-02-08T10:22:33Z</time>
      </trkpt>
      <trkpt lat="48.20066" lon="3.24445">
        <ele>134.4</ele>
        <time>2020-02-08T10:22:41Z</time>
      </trkpt>
      <trkpt lat="48.2007" lon="3.24439">
        <ele>135.7</ele>
        <time>2020-02-08T10:22:48Z</time>
      </trkpt>
      <trkpt lat="48.20072" lon="3.24438">
        <ele>136.1</ele>
        <time>2020-02-08T10:22:50Z</time>
      </trkpt>
      <trkpt lat="48.20082" lon="3.24433">
        <ele>138</ele>
        <time>2020-02-08T10:22:59Z</time>
      </trkpt>
      <trkpt lat="48.20087" lon="3.24428">
        <ele>139.2</ele>
        <time>2020-02-08T10:23:06Z</time>
      </trkpt>
      <trkpt lat="48.20093" lon="3.2442">
        <ele>140.7</ele>
        <time>2020-02-08T10:23:14Z</time>
      </trkpt>
      <trkpt lat="48.20094" lon="3.24415">
        <ele>141.3</ele>
        <time>2020-02-08T10:23:17Z</time>
      </trkpt>
      <trkpt lat="48.20101" lon="3.24408">
        <ele>142.5</ele>
        <time>2020-02-08T10:23:25Z</time>
      </trkpt>
      <trkpt lat="48.20104" lon="3.24408">
        <ele>142.9</ele>
        <time>2020-02-08T10:23:28Z</time>
      </trkpt>
      <trkpt lat="48.2011" lon="3.24403">
        <ele>143.9</ele>
        <time>2020-02-08T10:23:36Z</time>
      </trkpt>
      <trkpt lat="48.20115" lon="3.24406">
        <ele>144.2</ele>
        <time>2020-02-08T10:23:43Z</time>
      </trkpt>
      <trkpt lat="48.20118" lon="3.24409">
        <ele>144.3</ele>
        <time>2020-02-08T10:23:46Z</time>
      </trkpt>
      <trkpt lat="48.20123" lon="3.24406">
        <ele>145.1</ele>
        <time>2020-02-08T10:23:53Z</time>
      </trkpt>
      <trkpt lat="48.20127" lon="3.24395">
        <ele>146.3</ele>
        <time>2020-02-08T10:24:01Z</time>
      </trkpt>
      <trkpt lat="48.20128" lon="3.24391">
        <ele>146.7</ele>
        <time>2020-02-08T10:24:09Z</time>
      </trkpt>
      <trkpt lat="48.20128" lon="3.2439">
        <ele>146.7</ele>
        <time>2020-02-08T10:24:10Z</time>
      </trkpt>
      <trkpt lat="48.20127" lon="3.24375">
        <ele>147.7</ele>
        <time>2020-02-08T10:24:18Z</time>
      </trkpt>
      <trkpt lat="48.20125" lon="3.24369">
        <ele>147.9</ele>
        <time>2020-02-08T10:24:24Z</time>
      </trkpt>
      <trkpt lat="48.20124" lon="3.24349">
        <ele>149.1</ele>
        <time>2020-02-08T10:24:32Z</time>
      </trkpt>
      <trkpt lat="48.20123" lon="3.24348">
        <ele>149</ele>
        <time>2020-02-08T10:24:33Z</time>
      </trkpt>
      <trkpt lat="48.20121" lon="3.24329">
        <ele>149.8</ele>
        <time>2020-02-08T10:24:41Z</time>
      </trkpt>
      <trkpt lat="48.20121" lon="3.24324">
        <ele>149.8</ele>
        <time>2020-02-08T10:24:43Z</time>
      </trkpt>
      <trkpt lat="48.20126" lon="3.24316">
        <ele>150.4</ele>
        <time>2020-02-08T10:24:51Z</time>
      </trkpt>
      <trkpt lat="48.20126" lon="3.24315">
        <ele>150.4</ele>
        <time>2020-02-08T10:24:56Z</time>
      </trkpt>
      <trkpt lat="48.20132" lon="3.24317">
        <ele>150.9</ele>
        <time>2020-02-08T10:25:01Z</time>
      </trkpt>
      <trkpt lat="48.2014" lon="3.24308">
        <ele>152</ele>
        <time>2020-02-08T10:25:09Z</time>
      </trkpt>
      <trkpt lat="48.20148" lon="3.24299">
        <ele>153.1</ele>
        <time>2020-02-08T10:25:17Z</time>
      </trkpt>
      <trkpt lat="48.20151" lon="3.24297">
        <ele>153.5</ele>
        <time>2020-02-08T10:25:21Z</time>
      </trkpt>
      <trkpt lat="48.20161" lon="3.24301">
        <ele>154.4</ele>
        <time>2020-02-08T10:25:29Z</time>
      </trkpt>
      <trkpt lat="48.20164" lon="3.24304">
        <ele>154.7</ele>
        <time>2020-02-08T10:25:31Z</time>
      </trkpt>
      <trkpt lat="48.20175" lon="3.24311">
        <ele>155.4</ele>
        <time>2020-02-08T10:25:38Z</time>
      </trkpt>
      <trkpt lat="48.20184" lon="3.24315">
        <ele>155.9</ele>
        <time>2020-02-08T10:25:44Z</time>
      </trkpt>
      <trkpt lat="48.20193" lon="3.24324">
        <ele>156.2</ele>
        <time>2020-02-08T10:25:50Z</time>
      </trkpt>
      <trkpt lat="48.20201" lon="3.2433">
        <ele>156.4</ele>
        <time>2020-02-08T10:25:56Z</time>
      </trkpt>
      <trkpt lat="48.20207" lon="3.24334">
        <ele>156.4</ele>
        <time>2020-02-08T10:26:00Z</time>
      </trkpt>
      <trkpt lat="48.20218" lon="3.24339">
        <ele>156.6</ele>
        <time>2020-02-08T10:26:08Z</time>
      </trkpt>
      <trkpt lat="48.20218" lon="3.2434">
        <ele>156.6</ele>
        <time>2020-02-08T10:26:09Z</time>
      </trkpt>
      <trkpt lat="48.2022" lon="3.24341">
        <ele>156.6</ele>
        <time>2020-02-08T10:26:11Z</time>
      </trkpt>
      <trkpt lat="48.2022" lon="3.24343">
        <ele>156.6</ele>
        <time>2020-02-08T10:26:12Z</time>
      </trkpt>
      <trkpt lat="48.20217" lon="3.24341">
        <ele>156.5</ele>
        <time>2020-02-08T10:26:16Z</time>
      </trkpt>
      <trkpt lat="48.20233" lon="3.24344">
        <ele>157.5</ele>
        <time>2020-02-08T10:26:21Z</time>
      </trkpt>
      <trkpt lat="48.20243" lon="3.24345">
        <ele>158.4</ele>
        <time>2020-02-08T10:26:26Z</time>
      </trkpt>
      <trkpt lat="48.20262" lon="3.24351">
        <ele>159.4</ele>
        <time>2020-02-08T10:26:34Z</time>
      </trkpt>
      <trkpt lat="48.2028" lon="3.24359">
        <ele>160.1</ele>
        <time>2020-02-08T10:26:41Z</time>
      </trkpt>
      <trkpt lat="48.20296" lon="3.24371">
        <ele>160.3</ele>
        <time>2020-02-08T10:26:48Z</time>
      </trkpt>
      <trkpt lat="48.20301" lon="3.24373">
        <ele>160.4</ele>
        <time>2020-02-08T10:26:50Z</time>
      </trkpt>
      <trkpt lat="48.20313" lon="3.24395">
        <ele>160</ele>
        <time>2020-02-08T10:26:58Z</time>
      </trkpt>
      <trkpt lat="48.20318" lon="3.24413">
        <ele>159.6</ele>
        <time>2020-02-08T10:27:04Z</time>
      </trkpt>
      <trkpt lat="48.2033" lon="3.24435">
        <ele>159.2</ele>
        <time>2020-02-08T10:27:10Z</time>
      </trkpt>
      <trkpt lat="48.20337" lon="3.24452">
        <ele>158.9</ele>
        <time>2020-02-08T10:27:15Z</time>
      </trkpt>
      <trkpt lat="48.20351" lon="3.24446">
        <ele>159.6</ele>
        <time>2020-02-08T10:28:43Z</time>
      </trkpt>
      <trkpt lat="48.20359" lon="3.24437">
        <ele>160.2</ele>
        <time>2020-02-08T10:28:50Z</time>
      </trkpt>
      <trkpt lat="48.20373" lon="3.24426">
        <ele>160.7</ele>
        <time>2020-02-08T10:28:58Z</time>
      </trkpt>
      <trkpt lat="48.20387" lon="3.24426">
        <ele>160.7</ele>
        <time>2020-02-08T10:29:04Z</time>
      </trkpt>
      <trkpt lat="48.20402" lon="3.24436">
        <ele>160.2</ele>
        <time>2020-02-08T10:29:10Z</time>
      </trkpt>
      <trkpt lat="48.20413" lon="3.24422">
        <ele>160.1</ele>
        <time>2020-02-08T10:29:16Z</time>
      </trkpt>
      <trkpt lat="48.20416" lon="3.24415">
        <ele>160</ele>
        <time>2020-02-08T10:29:18Z</time>
      </trkpt>
      <trkpt lat="48.20424" lon="3.24385">
        <ele>159.2</ele>
        <time>2020-02-08T10:29:26Z</time>
      </trkpt>
      <trkpt lat="48.20428" lon="3.24374">
        <ele>158.8</ele>
        <time>2020-02-08T10:29:31Z</time>
      </trkpt>
      <trkpt lat="48.20432" lon="3.24359">
        <ele>158.2</ele>
        <time>2020-02-08T10:29:37Z</time>
      </trkpt>
      <trkpt lat="48.2044" lon="3.24335">
        <ele>155.8</ele>
        <time>2020-02-08T10:29:43Z</time>
      </trkpt>
      <trkpt lat="48.2045" lon="3.24308">
        <ele>153.5</ele>
        <time>2020-02-08T10:29:48Z</time>
      </trkpt>
      <trkpt lat="48.20457" lon="3.24285">
        <ele>151.6</ele>
        <time>2020-02-08T10:29:52Z</time>
      </trkpt>
      <trkpt lat="48.20463" lon="3.24269">
        <ele>149.7</ele>
        <time>2020-02-08T10:29:55Z</time>
      </trkpt>
      <trkpt lat="48.2048" lon="3.24241">
        <ele>145.5</ele>
        <time>2020-02-08T10:30:00Z</time>
      </trkpt>
      <trkpt lat="48.20485" lon="3.24234">
        <ele>144.5</ele>
        <time>2020-02-08T10:30:02Z</time>
      </trkpt>
      <trkpt lat="48.20488" lon="3.24231">
        <ele>143.9</ele>
        <time>2020-02-08T10:30:10Z</time>
      </trkpt>
      <trkpt lat="48.205" lon="3.24215">
        <ele>141.5</ele>
        <time>2020-02-08T10:30:15Z</time>
      </trkpt>
      <trkpt lat="48.20503" lon="3.24211">
        <ele>140.8</ele>
        <time>2020-02-08T10:30:16Z</time>
      </trkpt>
      <trkpt lat="48.20512" lon="3.24196">
        <ele>138.4</ele>
        <time>2020-02-08T10:30:19Z</time>
      </trkpt>
      <trkpt lat="48.20525" lon="3.24181">
        <ele>135.4</ele>
        <time>2020-02-08T10:30:24Z</time>
      </trkpt>
      <trkpt lat="48.2053" lon="3.2417">
        <ele>134</ele>
        <time>2020-02-08T10:30:27Z</time>
      </trkpt>
      <trkpt lat="48.20543" lon="3.24154">
        <ele>131</ele>
        <time>2020-02-08T10:30:31Z</time>
      </trkpt>
      <trkpt lat="48.20557" lon="3.24141">
        <ele>128</ele>
        <time>2020-02-08T10:30:35Z</time>
      </trkpt>
      <trkpt lat="48.20565" lon="3.24129">
        <ele>125.7</ele>
        <time>2020-02-08T10:30:38Z</time>
      </trkpt>
      <trkpt lat="48.20575" lon="3.24118">
        <ele>123.5</ele>
        <time>2020-02-08T10:30:42Z</time>
      </trkpt>
      <trkpt lat="48.2058" lon="3.24104">
        <ele>122.1</ele>
        <time>2020-02-08T10:30:47Z</time>
      </trkpt>
      <trkpt lat="48.20579" lon="3.24092">
        <ele>121.7</ele>
        <time>2020-02-08T10:30:54Z</time>
      </trkpt>
      <trkpt lat="48.2058" lon="3.24081">
        <ele>121.4</ele>
        <time>2020-02-08T10:31:00Z</time>
      </trkpt>
      <trkpt lat="48.20577" lon="3.24074">
        <ele>122</ele>
        <time>2020-02-08T10:31:03Z</time>
      </trkpt>
      <trkpt lat="48.20576" lon="3.24072">
        <ele>122.1</ele>
        <time>2020-02-08T10:31:04Z</time>
      </trkpt>
      <trkpt lat="48.20563" lon="3.24061">
        <ele>122.9</ele>
        <time>2020-02-08T10:31:10Z</time>
      </trkpt>
      <trkpt lat="48.20549" lon="3.24045">
        <ele>124.1</ele>
        <time>2020-02-08T10:31:17Z</time>
      </trkpt>
      <trkpt lat="48.20545" lon="3.24038">
        <ele>124.5</ele>
        <time>2020-02-08T10:31:20Z</time>
      </trkpt>
      <trkpt lat="48.20538" lon="3.24021">
        <ele>125.2</ele>
        <time>2020-02-08T10:31:26Z</time>
      </trkpt>
      <trkpt lat="48.2053" lon="3.24001">
        <ele>125.2</ele>
        <time>2020-02-08T10:31:32Z</time>
      </trkpt>
      <trkpt lat="48.20519" lon="3.23973">
        <ele>126.3</ele>
        <time>2020-02-08T10:31:39Z</time>
      </trkpt>
      <trkpt lat="48.20512" lon="3.23935">
        <ele>126.6</ele>
        <time>2020-02-08T10:31:48Z</time>
      </trkpt>
      <trkpt lat="48.20507" lon="3.23902">
        <ele>127.3</ele>
        <time>2020-02-08T10:31:55Z</time>
      </trkpt>
      <trkpt lat="48.20505" lon="3.23871">
        <ele>127.5</ele>
        <time>2020-02-08T10:32:01Z</time>
      </trkpt>
      <trkpt lat="48.20502" lon="3.23826">
        <ele>126.1</ele>
        <time>2020-02-08T10:32:10Z</time>
      </trkpt>
      <trkpt lat="48.20498" lon="3.23786">
        <ele>125.2</ele>
        <time>2020-02-08T10:32:19Z</time>
      </trkpt>
      <trkpt lat="48.20492" lon="3.23779">
        <ele>125.9</ele>
        <time>2020-02-08T10:32:22Z</time>
      </trkpt>
      <trkpt lat="48.20476" lon="3.23776">
        <ele>127.6</ele>
        <time>2020-02-08T10:32:31Z</time>
      </trkpt>
      <trkpt lat="48.20462" lon="3.23775">
        <ele>129.5</ele>
        <time>2020-02-08T10:32:40Z</time>
      </trkpt>
      <trkpt lat="48.20452" lon="3.23772">
        <ele>131.1</ele>
        <time>2020-02-08T10:32:48Z</time>
      </trkpt>
      <trkpt lat="48.20438" lon="3.2377">
        <ele>133.4</ele>
        <time>2020-02-08T10:32:59Z</time>
      </trkpt>
      <trkpt lat="48.2043" lon="3.23768">
        <ele>134.8</ele>
        <time>2020-02-08T10:33:05Z</time>
      </trkpt>
      <trkpt lat="48.20429" lon="3.23767">
        <ele>135</ele>
        <time>2020-02-08T10:33:06Z</time>
      </trkpt>
      <trkpt lat="48.20428" lon="3.23767">
        <ele>135.1</ele>
        <time>2020-02-08T10:33:07Z</time>
      </trkpt>
      <trkpt lat="48.20418" lon="3.23766">
        <ele>136.8</ele>
        <time>2020-02-08T10:33:16Z</time>
      </trkpt>
      <trkpt lat="48.20406" lon="3.23765">
        <ele>138.4</ele>
        <time>2020-02-08T10:33:26Z</time>
      </trkpt>
      <trkpt lat="48.20404" lon="3.23764">
        <ele>138.6</ele>
        <time>2020-02-08T10:33:28Z</time>
      </trkpt>
      <trkpt lat="48.20397" lon="3.23763">
        <ele>139.5</ele>
        <time>2020-02-08T10:33:34Z</time>
      </trkpt>
      <trkpt lat="48.20394" lon="3.23762">
        <ele>139.8</ele>
        <time>2020-02-08T10:33:36Z</time>
      </trkpt>
      <trkpt lat="48.20393" lon="3.23762">
        <ele>139.9</ele>
        <time>2020-02-08T10:33:37Z</time>
      </trkpt>
      <trkpt lat="48.20392" lon="3.23762">
        <ele>140</ele>
        <time>2020-02-08T10:33:38Z</time>
      </trkpt>
      <trkpt lat="48.20388" lon="3.23762">
        <ele>140.5</ele>
        <time>2020-02-08T10:33:41Z</time>
      </trkpt>
      <trkpt lat="48.20387" lon="3.23761">
        <ele>140.6</ele>
        <time>2020-02-08T10:33:42Z</time>
      </trkpt>
      <trkpt lat="48.20386" lon="3.23761">
        <ele>140.8</ele>
        <time>2020-02-08T10:33:43Z</time>
      </trkpt>
      <trkpt lat="48.20385" lon="3.23761">
        <ele>140.9</ele>
        <time>2020-02-08T10:33:44Z</time>
      </trkpt>
      <trkpt lat="48.20383" lon="3.23761">
        <ele>141.2</ele>
        <time>2020-02-08T10:33:45Z</time>
      </trkpt>
      <trkpt lat="48.20372" lon="3.23759">
        <ele>142.6</ele>
        <time>2020-02-08T10:33:54Z</time>
      </trkpt>
      <trkpt lat="48.20358" lon="3.23756">
        <ele>144.4</ele>
        <time>2020-02-08T10:34:05Z</time>
      </trkpt>
      <trkpt lat="48.2035" lon="3.23755">
        <ele>145.3</ele>
        <time>2020-02-08T10:34:12Z</time>
      </trkpt>
      <trkpt lat="48.20339" lon="3.23753">
        <ele>146.5</ele>
        <time>2020-02-08T10:34:20Z</time>
      </trkpt>
      <trkpt lat="48.20329" lon="3.23753">
        <ele>147.6</ele>
        <time>2020-02-08T10:34:27Z</time>
      </trkpt>
      <trkpt lat="48.20323" lon="3.23752">
        <ele>148.2</ele>
        <time>2020-02-08T10:34:32Z</time>
      </trkpt>
      <trkpt lat="48.20312" lon="3.23752">
        <ele>149.4</ele>
        <time>2020-02-08T10:34:40Z</time>
      </trkpt>
      <trkpt lat="48.203" lon="3.2375">
        <ele>150.4</ele>
        <time>2020-02-08T10:34:47Z</time>
      </trkpt>
      <trkpt lat="48.20293" lon="3.23749">
        <ele>150.9</ele>
        <time>2020-02-08T10:34:51Z</time>
      </trkpt>
      <trkpt lat="48.20291" lon="3.23749">
        <ele>151</ele>
        <time>2020-02-08T10:34:52Z</time>
      </trkpt>
      <trkpt lat="48.20289" lon="3.23749">
        <ele>151.2</ele>
        <time>2020-02-08T10:34:53Z</time>
      </trkpt>
      <trkpt lat="48.20288" lon="3.23749">
        <ele>151.2</ele>
        <time>2020-02-08T10:34:54Z</time>
      </trkpt>
      <trkpt lat="48.20286" lon="3.23748">
        <ele>151.3</ele>
        <time>2020-02-08T10:34:55Z</time>
      </trkpt>
      <trkpt lat="48.20264" lon="3.23746">
        <ele>152.8</ele>
        <time>2020-02-08T10:35:07Z</time>
      </trkpt>
      <trkpt lat="48.20246" lon="3.23743">
        <ele>154</ele>
        <time>2020-02-08T10:35:17Z</time>
      </trkpt>
      <trkpt lat="48.20233" lon="3.23742">
        <ele>154.9</ele>
        <time>2020-02-08T10:35:24Z</time>
      </trkpt>
      <trkpt lat="48.20232" lon="3.23742">
        <ele>155</ele>
        <time>2020-02-08T10:35:25Z</time>
      </trkpt>
      <trkpt lat="48.2023" lon="3.23742">
        <ele>155.2</ele>
        <time>2020-02-08T10:35:26Z</time>
      </trkpt>
      <trkpt lat="48.20228" lon="3.23742">
        <ele>155.3</ele>
        <time>2020-02-08T10:35:27Z</time>
      </trkpt>
      <trkpt lat="48.20226" lon="3.23742">
        <ele>155.4</ele>
        <time>2020-02-08T10:35:28Z</time>
      </trkpt>
      <trkpt lat="48.20224" lon="3.23742">
        <ele>155.6</ele>
        <time>2020-02-08T10:35:29Z</time>
      </trkpt>
      <trkpt lat="48.20222" lon="3.23742">
        <ele>155.7</ele>
        <time>2020-02-08T10:35:30Z</time>
      </trkpt>
      <trkpt lat="48.20208" lon="3.2374">
        <ele>156.7</ele>
        <time>2020-02-08T10:35:38Z</time>
      </trkpt>
      <trkpt lat="48.20203" lon="3.23739">
        <ele>157</ele>
        <time>2020-02-08T10:35:41Z</time>
      </trkpt>
      <trkpt lat="48.20201" lon="3.23739">
        <ele>157.1</ele>
        <time>2020-02-08T10:35:42Z</time>
      </trkpt>
      <trkpt lat="48.202" lon="3.23739">
        <ele>157.2</ele>
        <time>2020-02-08T10:35:43Z</time>
      </trkpt>
      <trkpt lat="48.20198" lon="3.23739">
        <ele>157.3</ele>
        <time>2020-02-08T10:35:44Z</time>
      </trkpt>
      <trkpt lat="48.20196" lon="3.23739">
        <ele>157.5</ele>
        <time>2020-02-08T10:35:45Z</time>
      </trkpt>
      <trkpt lat="48.20194" lon="3.23738">
        <ele>157.6</ele>
        <time>2020-02-08T10:35:46Z</time>
      </trkpt>
      <trkpt lat="48.20179" lon="3.23736">
        <ele>158.3</ele>
        <time>2020-02-08T10:35:54Z</time>
      </trkpt>
      <trkpt lat="48.20157" lon="3.23733">
        <ele>159.3</ele>
        <time>2020-02-08T10:36:03Z</time>
      </trkpt>
      <trkpt lat="48.20135" lon="3.2373">
        <ele>160.1</ele>
        <time>2020-02-08T10:36:12Z</time>
      </trkpt>
      <trkpt lat="48.20112" lon="3.23726">
        <ele>161</ele>
        <time>2020-02-08T10:36:21Z</time>
      </trkpt>
      <trkpt lat="48.20092" lon="3.23723">
        <ele>161</ele>
        <time>2020-02-08T10:36:29Z</time>
      </trkpt>
      <trkpt lat="48.2007" lon="3.23719">
        <ele>161</ele>
        <time>2020-02-08T10:36:38Z</time>
      </trkpt>
      <trkpt lat="48.20062" lon="3.23718">
        <ele>161</ele>
        <time>2020-02-08T10:36:42Z</time>
      </trkpt>
      <trkpt lat="48.20055" lon="3.23721">
        <ele>161</ele>
        <time>2020-02-08T10:36:48Z</time>
      </trkpt>
      <trkpt lat="48.20055" lon="3.23723">
        <ele>161</ele>
        <time>2020-02-08T10:36:59Z</time>
      </trkpt>
      <trkpt lat="48.20054" lon="3.23721">
        <ele>160.9</ele>
        <time>2020-02-08T10:37:09Z</time>
      </trkpt>
      <trkpt lat="48.20053" lon="3.23717">
        <ele>160.9</ele>
        <time>2020-02-08T10:37:26Z</time>
      </trkpt>
      <trkpt lat="48.20056" lon="3.23719">
        <ele>161</ele>
        <time>2020-02-08T10:37:47Z</time>
      </trkpt>
      <trkpt lat="48.2006" lon="3.2372">
        <ele>161</ele>
        <time>2020-02-08T10:38:01Z</time>
      </trkpt>
      <trkpt lat="48.20058" lon="3.23716">
        <ele>161</ele>
        <time>2020-02-08T10:38:08Z</time>
      </trkpt>
      <trkpt lat="48.20054" lon="3.23711">
        <ele>160.9</ele>
        <time>2020-02-08T10:38:13Z</time>
      </trkpt>
      <trkpt lat="48.20045" lon="3.23714">
        <ele>160.6</ele>
        <time>2020-02-08T10:38:17Z</time>
      </trkpt>
      <trkpt lat="48.20034" lon="3.23723">
        <ele>160.2</ele>
        <time>2020-02-08T10:38:25Z</time>
      </trkpt>
      <trkpt lat="48.20024" lon="3.23735">
        <ele>159.1</ele>
        <time>2020-02-08T10:38:31Z</time>
      </trkpt>
      <trkpt lat="48.20013" lon="3.23743">
        <ele>157.7</ele>
        <time>2020-02-08T10:38:36Z</time>
      </trkpt>
      <trkpt lat="48.19995" lon="3.23759">
        <ele>155</ele>
        <time>2020-02-08T10:38:44Z</time>
      </trkpt>
      <trkpt lat="48.19988" lon="3.23766">
        <ele>153.7</ele>
        <time>2020-02-08T10:38:47Z</time>
      </trkpt>
      <trkpt lat="48.19973" lon="3.23775">
        <ele>151.2</ele>
        <time>2020-02-08T10:38:54Z</time>
      </trkpt>
      <trkpt lat="48.19957" lon="3.23775">
        <ele>148.9</ele>
        <time>2020-02-08T10:39:00Z</time>
      </trkpt>
      <trkpt lat="48.19953" lon="3.23775">
        <ele>148.3</ele>
        <time>2020-02-08T10:39:06Z</time>
      </trkpt>
      <trkpt lat="48.19953" lon="3.23775">
        <ele>148.3</ele>
        <time>2020-02-08T10:39:07Z</time>
      </trkpt>
      <trkpt lat="48.19952" lon="3.23766">
        <ele>148.5</ele>
        <time>2020-02-08T10:39:12Z</time>
      </trkpt>
      <trkpt lat="48.19953" lon="3.23748">
        <ele>149.3</ele>
        <time>2020-02-08T10:39:19Z</time>
      </trkpt>
      <trkpt lat="48.1995" lon="3.23738">
        <ele>149.2</ele>
        <time>2020-02-08T10:39:26Z</time>
      </trkpt>
      <trkpt lat="48.1995" lon="3.23728">
        <ele>149.6</ele>
        <time>2020-02-08T10:39:31Z</time>
      </trkpt>
      <trkpt lat="48.19949" lon="3.23713">
        <ele>150.3</ele>
        <time>2020-02-08T10:39:38Z</time>
      </trkpt>
      <trkpt lat="48.19948" lon="3.23708">
        <ele>150.5</ele>
        <time>2020-02-08T10:39:41Z</time>
      </trkpt>
      <trkpt lat="48.19948" lon="3.23692">
        <ele>151.7</ele>
        <time>2020-02-08T10:39:48Z</time>
      </trkpt>
      <trkpt lat="48.19948" lon="3.23688">
        <ele>152</ele>
        <time>2020-02-08T10:39:50Z</time>
      </trkpt>
      <trkpt lat="48.19946" lon="3.23675">
        <ele>152.6</ele>
        <time>2020-02-08T10:39:57Z</time>
      </trkpt>
      <trkpt lat="48.19944" lon="3.23663">
        <ele>153</ele>
        <time>2020-02-08T10:40:04Z</time>
      </trkpt>
      <trkpt lat="48.19944" lon="3.23656">
        <ele>153.3</ele>
        <time>2020-02-08T10:40:08Z</time>
      </trkpt>
      <trkpt lat="48.19942" lon="3.23638">
        <ele>153.5</ele>
        <time>2020-02-08T10:40:14Z</time>
      </trkpt>
      <trkpt lat="48.19936" lon="3.23616">
        <ele>153</ele>
        <time>2020-02-08T10:40:21Z</time>
      </trkpt>
      <trkpt lat="48.19932" lon="3.23594">
        <ele>152.9</ele>
        <time>2020-02-08T10:40:27Z</time>
      </trkpt>
      <trkpt lat="48.19931" lon="3.23581">
        <ele>153.2</ele>
        <time>2020-02-08T10:40:31Z</time>
      </trkpt>
      <trkpt lat="48.19926" lon="3.23558">
        <ele>153.5</ele>
        <time>2020-02-08T10:40:38Z</time>
      </trkpt>
      <trkpt lat="48.19921" lon="3.23535">
        <ele>153.6</ele>
        <time>2020-02-08T10:40:44Z</time>
      </trkpt>
      <trkpt lat="48.19919" lon="3.23528">
        <ele>153.5</ele>
        <time>2020-02-08T10:40:46Z</time>
      </trkpt>
      <trkpt lat="48.19914" lon="3.23513">
        <ele>153.5</ele>
        <time>2020-02-08T10:40:52Z</time>
      </trkpt>
      <trkpt lat="48.19904" lon="3.23488">
        <ele>153.1</ele>
        <time>2020-02-08T10:40:59Z</time>
      </trkpt>
      <trkpt lat="48.19903" lon="3.23484">
        <ele>153.2</ele>
        <time>2020-02-08T10:41:00Z</time>
      </trkpt>
      <trkpt lat="48.19897" lon="3.23469">
        <ele>153</ele>
        <time>2020-02-08T10:41:05Z</time>
      </trkpt>
      <trkpt lat="48.19892" lon="3.23449">
        <ele>153.3</ele>
        <time>2020-02-08T10:41:10Z</time>
      </trkpt>
      <trkpt lat="48.19882" lon="3.2342">
        <ele>153</ele>
        <time>2020-02-08T10:41:15Z</time>
      </trkpt>
      <trkpt lat="48.19872" lon="3.23391">
        <ele>153.2</ele>
        <time>2020-02-08T10:41:21Z</time>
      </trkpt>
      <trkpt lat="48.19871" lon="3.23388">
        <ele>153.2</ele>
        <time>2020-02-08T10:41:22Z</time>
      </trkpt>
      <trkpt lat="48.19861" lon="3.23363">
        <ele>152.8</ele>
        <time>2020-02-08T10:41:29Z</time>
      </trkpt>
      <trkpt lat="48.19857" lon="3.23344">
        <ele>152.7</ele>
        <time>2020-02-08T10:41:34Z</time>
      </trkpt>
      <trkpt lat="48.19847" lon="3.23327">
        <ele>151.4</ele>
        <time>2020-02-08T10:41:40Z</time>
      </trkpt>
      <trkpt lat="48.19844" lon="3.23321">
        <ele>151.2</ele>
        <time>2020-02-08T10:41:42Z</time>
      </trkpt>
      <trkpt lat="48.19841" lon="3.23317">
        <ele>150.8</ele>
        <time>2020-02-08T10:41:43Z</time>
      </trkpt>
      <trkpt lat="48.19827" lon="3.23294">
        <ele>148.9</ele>
        <time>2020-02-08T10:41:49Z</time>
      </trkpt>
      <trkpt lat="48.19821" lon="3.23283">
        <ele>148.1</ele>
        <time>2020-02-08T10:41:55Z</time>
      </trkpt>
      <trkpt lat="48.19821" lon="3.23281">
        <ele>148.2</ele>
        <time>2020-02-08T10:41:56Z</time>
      </trkpt>
      <trkpt lat="48.19809" lon="3.23263">
        <ele>147.3</ele>
        <time>2020-02-08T10:42:04Z</time>
      </trkpt>
      <trkpt lat="48.19807" lon="3.23259">
        <ele>147.3</ele>
        <time>2020-02-08T10:42:08Z</time>
      </trkpt>
      <trkpt lat="48.19801" lon="3.23248">
        <ele>146.9</ele>
        <time>2020-02-08T10:42:18Z</time>
      </trkpt>
      <trkpt lat="48.19801" lon="3.23246">
        <ele>147</ele>
        <time>2020-02-08T10:42:19Z</time>
      </trkpt>
      <trkpt lat="48.19799" lon="3.23241">
        <ele>146.7</ele>
        <time>2020-02-08T10:42:22Z</time>
      </trkpt>
      <trkpt lat="48.19796" lon="3.23228">
        <ele>146.7</ele>
        <time>2020-02-08T10:42:28Z</time>
      </trkpt>
      <trkpt lat="48.19792" lon="3.23213">
        <ele>146.6</ele>
        <time>2020-02-08T10:42:33Z</time>
      </trkpt>
      <trkpt lat="48.19791" lon="3.23205">
        <ele>146.8</ele>
        <time>2020-02-08T10:42:41Z</time>
      </trkpt>
      <trkpt lat="48.1979" lon="3.23206">
        <ele>146.6</ele>
        <time>2020-02-08T10:42:48Z</time>
      </trkpt>
      <trkpt lat="48.19792" lon="3.23216">
        <ele>146.4</ele>
        <time>2020-02-08T10:43:08Z</time>
      </trkpt>
      <trkpt lat="48.19791" lon="3.23215">
        <ele>146.3</ele>
        <time>2020-02-08T10:43:16Z</time>
      </trkpt>
      <trkpt lat="48.19789" lon="3.23212">
        <ele>146</ele>
        <time>2020-02-08T10:43:21Z</time>
      </trkpt>
      <trkpt lat="48.19787" lon="3.23211">
        <ele>145.7</ele>
        <time>2020-02-08T10:43:24Z</time>
      </trkpt>
      <trkpt lat="48.19787" lon="3.23211">
        <ele>145.7</ele>
        <time>2020-02-08T10:43:30Z</time>
      </trkpt>
      <trkpt lat="48.19786" lon="3.23208">
        <ele>145.6</ele>
        <time>2020-02-08T10:43:35Z</time>
      </trkpt>
      <trkpt lat="48.19775" lon="3.23215">
        <ele>142.8</ele>
        <time>2020-02-08T10:43:42Z</time>
      </trkpt>
      <trkpt lat="48.19771" lon="3.23218">
        <ele>141.6</ele>
        <time>2020-02-08T10:43:44Z</time>
      </trkpt>
      <trkpt lat="48.19759" lon="3.23223">
        <ele>138.2</ele>
        <time>2020-02-08T10:43:49Z</time>
      </trkpt>
      <trkpt lat="48.1975" lon="3.23224">
        <ele>135.9</ele>
        <time>2020-02-08T10:43:52Z</time>
      </trkpt>
      <trkpt lat="48.19737" lon="3.23229">
        <ele>132.1</ele>
        <time>2020-02-08T10:43:55Z</time>
      </trkpt>
      <trkpt lat="48.19721" lon="3.23234">
        <ele>127.5</ele>
        <time>2020-02-08T10:43:59Z</time>
      </trkpt>
      <trkpt lat="48.19709" lon="3.2324">
        <ele>124.4</ele>
        <time>2020-02-08T10:44:03Z</time>
      </trkpt>
      <trkpt lat="48.19692" lon="3.23248">
        <ele>120.8</ele>
        <time>2020-02-08T10:44:08Z</time>
      </trkpt>
      <trkpt lat="48.19685" lon="3.23249">
        <ele>120</ele>
        <time>2020-02-08T10:44:10Z</time>
      </trkpt>
      <trkpt lat="48.19675" lon="3.23255">
        <ele>118.7</ele>
        <time>2020-02-08T10:44:12Z</time>
      </trkpt>
      <trkpt lat="48.19669" lon="3.23268">
        <ele>117.5</ele>
        <time>2020-02-08T10:44:14Z</time>
      </trkpt>
      <trkpt lat="48.19663" lon="3.23279">
        <ele>117</ele>
        <time>2020-02-08T10:44:16Z</time>
      </trkpt>
      <trkpt lat="48.19661" lon="3.2329">
        <ele>116.6</ele>
        <time>2020-02-08T10:44:18Z</time>
      </trkpt>
      <trkpt lat="48.19661" lon="3.23296">
        <ele>116.3</ele>
        <time>2020-02-08T10:44:19Z</time>
      </trkpt>
      <trkpt lat="48.19662" lon="3.23301">
        <ele>116.2</ele>
        <time>2020-02-08T10:44:20Z</time>
      </trkpt>
      <trkpt lat="48.19662" lon="3.23305">
        <ele>116</ele>
        <time>2020-02-08T10:44:21Z</time>
      </trkpt>
      <trkpt lat="48.19662" lon="3.2331">
        <ele>116</ele>
        <time>2020-02-08T10:44:22Z</time>
      </trkpt>
      <trkpt lat="48.19663" lon="3.23313">
        <ele>116</ele>
        <time>2020-02-08T10:44:23Z</time>
      </trkpt>
      <trkpt lat="48.19663" lon="3.23317">
        <ele>116.1</ele>
        <time>2020-02-08T10:44:24Z</time>
      </trkpt>
      <trkpt lat="48.19664" lon="3.23321">
        <ele>116.1</ele>
        <time>2020-02-08T10:44:25Z</time>
      </trkpt>
      <trkpt lat="48.19664" lon="3.23325">
        <ele>116.1</ele>
        <time>2020-02-08T10:44:26Z</time>
      </trkpt>
      <trkpt lat="48.1967" lon="3.23364">
        <ele>116</ele>
        <time>2020-02-08T10:44:36Z</time>
      </trkpt>
      <trkpt lat="48.19676" lon="3.23396">
        <ele>115.7</ele>
        <time>2020-02-08T10:44:44Z</time>
      </trkpt>
      <trkpt lat="48.19681" lon="3.23433">
        <ele>115.2</ele>
        <time>2020-02-08T10:44:53Z</time>
      </trkpt>
      <trkpt lat="48.19684" lon="3.2346">
        <ele>114.8</ele>
        <time>2020-02-08T10:45:00Z</time>
      </trkpt>
      <trkpt lat="48.19687" lon="3.2349">
        <ele>114.5</ele>
        <time>2020-02-08T10:45:08Z</time>
      </trkpt>
      <trkpt lat="48.1969" lon="3.23521">
        <ele>114.2</ele>
        <time>2020-02-08T10:45:16Z</time>
      </trkpt>
      <trkpt lat="48.19694" lon="3.23555">
        <ele>113.1</ele>
        <time>2020-02-08T10:45:25Z</time>
      </trkpt>
      <trkpt lat="48.19696" lon="3.23574">
        <ele>113</ele>
        <time>2020-02-08T10:45:30Z</time>
      </trkpt>
      <trkpt lat="48.197" lon="3.23604">
        <ele>112.8</ele>
        <time>2020-02-08T10:45:38Z</time>
      </trkpt>
      <trkpt lat="48.197" lon="3.23608">
        <ele>112.8</ele>
        <time>2020-02-08T10:45:39Z</time>
      </trkpt>
      <trkpt lat="48.197" lon="3.23611">
        <ele>112.8</ele>
        <time>2020-02-08T10:45:40Z</time>
      </trkpt>
      <trkpt lat="48.19701" lon="3.23615">
        <ele>112.8</ele>
        <time>2020-02-08T10:45:41Z</time>
      </trkpt>
      <trkpt lat="48.19701" lon="3.23618">
        <ele>112.8</ele>
        <time>2020-02-08T10:45:42Z</time>
      </trkpt>
      <trkpt lat="48.19702" lon="3.23621">
        <ele>112.7</ele>
        <time>2020-02-08T10:45:43Z</time>
      </trkpt>
      <trkpt lat="48.19706" lon="3.23647">
        <ele>112.4</ele>
        <time>2020-02-08T10:45:51Z</time>
      </trkpt>
      <trkpt lat="48.19709" lon="3.23669">
        <ele>112</ele>
        <time>2020-02-08T10:45:58Z</time>
      </trkpt>
      <trkpt lat="48.19711" lon="3.23693">
        <ele>111.4</ele>
        <time>2020-02-08T10:46:06Z</time>
      </trkpt>
      <trkpt lat="48.19715" lon="3.23726">
        <ele>111.3</ele>
        <time>2020-02-08T10:46:16Z</time>
      </trkpt>
      <trkpt lat="48.19715" lon="3.23746">
        <ele>111.3</ele>
        <time>2020-02-08T10:46:22Z</time>
      </trkpt>
      <trkpt lat="48.19716" lon="3.23749">
        <ele>111.2</ele>
        <time>2020-02-08T10:46:23Z</time>
      </trkpt>
      <trkpt lat="48.19716" lon="3.23752">
        <ele>111.2</ele>
        <time>2020-02-08T10:46:24Z</time>
      </trkpt>
      <trkpt lat="48.19716" lon="3.23755">
        <ele>111.2</ele>
        <time>2020-02-08T10:46:25Z</time>
      </trkpt>
      <trkpt lat="48.19715" lon="3.23759">
        <ele>111.3</ele>
        <time>2020-02-08T10:46:26Z</time>
      </trkpt>
      <trkpt lat="48.19714" lon="3.23762">
        <ele>111.3</ele>
        <time>2020-02-08T10:46:27Z</time>
      </trkpt>
      <trkpt lat="48.19713" lon="3.23765">
        <ele>111.3</ele>
        <time>2020-02-08T10:46:28Z</time>
      </trkpt>
      <trkpt lat="48.19712" lon="3.23767">
        <ele>111.4</ele>
        <time>2020-02-08T10:46:29Z</time>
      </trkpt>
      <trkpt lat="48.19711" lon="3.23769">
        <ele>111.4</ele>
        <time>2020-02-08T10:46:30Z</time>
      </trkpt>
      <trkpt lat="48.19707" lon="3.23772">
        <ele>111.5</ele>
        <time>2020-02-08T10:46:32Z</time>
      </trkpt>
      <trkpt lat="48.19699" lon="3.2378">
        <ele>111.8</ele>
        <time>2020-02-08T10:46:37Z</time>
      </trkpt>
      <trkpt lat="48.19698" lon="3.23804">
        <ele>111.9</ele>
        <time>2020-02-08T10:46:43Z</time>
      </trkpt>
      <trkpt lat="48.19701" lon="3.2384">
        <ele>111.5</ele>
        <time>2020-02-08T10:46:49Z</time>
      </trkpt>
      <trkpt lat="48.19705" lon="3.23901">
        <ele>111.1</ele>
        <time>2020-02-08T10:46:57Z</time>
      </trkpt>
      <trkpt lat="48.19716" lon="3.2396">
        <ele>109.7</ele>
        <time>2020-02-08T10:47:04Z</time>
      </trkpt>
      <trkpt lat="48.19729" lon="3.24031">
        <ele>108.8</ele>
        <time>2020-02-08T10:47:12Z</time>
      </trkpt>
      <trkpt lat="48.19731" lon="3.24039">
        <ele>108.7</ele>
        <time>2020-02-08T10:47:13Z</time>
      </trkpt>
      <trkpt lat="48.19733" lon="3.24047">
        <ele>108.6</ele>
        <time>2020-02-08T10:47:14Z</time>
      </trkpt>
      <trkpt lat="48.19735" lon="3.24055">
        <ele>108.5</ele>
        <time>2020-02-08T10:47:15Z</time>
      </trkpt>
      <trkpt lat="48.19736" lon="3.24064">
        <ele>108.4</ele>
        <time>2020-02-08T10:47:16Z</time>
      </trkpt>
      <trkpt lat="48.19737" lon="3.24072">
        <ele>108.2</ele>
        <time>2020-02-08T10:47:17Z</time>
      </trkpt>
      <trkpt lat="48.19753" lon="3.24154">
        <ele>107</ele>
        <time>2020-02-08T10:47:26Z</time>
      </trkpt>
      <trkpt lat="48.19774" lon="3.24242">
        <ele>106.1</ele>
        <time>2020-02-08T10:47:36Z</time>
      </trkpt>
      <trkpt lat="48.19793" lon="3.24322">
        <ele>105.5</ele>
        <time>2020-02-08T10:47:45Z</time>
      </trkpt>
      <trkpt lat="48.19813" lon="3.24402">
        <ele>105.1</ele>
        <time>2020-02-08T10:47:54Z</time>
      </trkpt>
      <trkpt lat="48.19826" lon="3.24458">
        <ele>104.4</ele>
        <time>2020-02-08T10:48:01Z</time>
      </trkpt>
      <trkpt lat="48.19856" lon="3.24551">
        <ele>103.2</ele>
        <time>2020-02-08T10:48:10Z</time>
        <extensions>
          <visugpx:TrkExtension xmlns:visugpx="https://www.visugpx.com/editgpx/">
            <visugpx:node>1</visugpx:node>
            </visugpx:TrkExtension>
        </extensions>
      </trkpt>
    </trkseg>
  </trk>
  <trk>
    <name><![CDATA[VTT14 B1]]></name>
    <extensions>
      <line xmlns="http://www.topografix.com/GPX/gpx_style/0/2">
        <color>0000ff</color>
        <width>6</width>
      </line>
    </extensions>
    <trkseg>
      <trkpt lat="48.19794" lon="3.28323">
        <ele>74</ele>
        <time>2020-02-08T09:12:53Z</time>
        <extensions>
          <visugpx:TrkExtension xmlns:visugpx="https://www.visugpx.com/editgpx/">
            <visugpx:node>1</visugpx:node>
            </visugpx:TrkExtension>
        </extensions>
      </trkpt>
      <trkpt lat="48.19794" lon="3.28323">
        <ele>74</ele>
        <time>2020-02-08T09:12:54Z</time>
      </trkpt>
      <trkpt lat="48.19796" lon="3.2831">
        <ele>74</ele>
      </trkpt>
      <trkpt lat="48.198" lon="3.28295">
        <ele>74</ele>
      </trkpt>
      <trkpt lat="48.19804" lon="3.28282">
        <ele>74</ele>
      </trkpt>
      <trkpt lat="48.19816" lon="3.28278">
        <ele>74</ele>
        <time>2020-02-08T09:13:17Z</time>
      </trkpt>
      <trkpt lat="48.19827" lon="3.28273">
        <ele>74</ele>
        <time>2020-02-08T09:13:22Z</time>
      </trkpt>
      <trkpt lat="48.1984" lon="3.28271">
        <ele>73.9</ele>
      </trkpt>
      <trkpt lat="48.19836" lon="3.28247">
        <ele>73.8</ele>
      </trkpt>
      <trkpt lat="48.1983" lon="3.28193">
        <ele>73</ele>
      </trkpt>
      <trkpt lat="48.19826" lon="3.28174">
        <ele>73</ele>
      </trkpt>
      <trkpt lat="48.19821" lon="3.28152">
        <ele>73</ele>
      </trkpt>
      <trkpt lat="48.19821" lon="3.28136">
        <ele>73</ele>
      </trkpt>
      <trkpt lat="48.19821" lon="3.28099">
        <ele>73</ele>
      </trkpt>
      <trkpt lat="48.19818" lon="3.2804">
        <ele>72</ele>
      </trkpt>
      <trkpt lat="48.19816" lon="3.28008">
        <ele>72</ele>
      </trkpt>
      <trkpt lat="48.19811" lon="3.27979">
        <ele>71.4</ele>
      </trkpt>
      <trkpt lat="48.19803" lon="3.2791">
        <ele>70.8</ele>
      </trkpt>
      <trkpt lat="48.19797" lon="3.27857">
        <ele>70</ele>
      </trkpt>
      <trkpt lat="48.19788" lon="3.27856">
        <ele>70</ele>
      </trkpt>
      <trkpt lat="48.19773" lon="3.27856">
        <ele>70</ele>
      </trkpt>
      <trkpt lat="48.19767" lon="3.27787">
        <ele>69.1</ele>
      </trkpt>
      <trkpt lat="48.19753" lon="3.2779">
        <ele>69.4</ele>
      </trkpt>
      <trkpt lat="48.19751" lon="3.27724">
        <ele>68</ele>
      </trkpt>
      <trkpt lat="48.19725" lon="3.27714">
        <ele>68.3</ele>
      </trkpt>
      <trkpt lat="48.19727" lon="3.27694">
        <ele>69</ele>
      </trkpt>
      <trkpt lat="48.1973" lon="3.27668">
        <ele>68.7</ele>
      </trkpt>
      <trkpt lat="48.19736" lon="3.27631">
        <ele>63.6</ele>
      </trkpt>
      <trkpt lat="48.19745" lon="3.27571">
        <ele>66</ele>
      </trkpt>
      <trkpt lat="48.19754" lon="3.27517">
        <ele>68.8</ele>
      </trkpt>
      <trkpt lat="48.19761" lon="3.27443">
        <ele>67.6</ele>
      </trkpt>
      <trkpt lat="48.19766" lon="3.27401">
        <ele>66.7</ele>
      </trkpt>
      <trkpt lat="48.19778" lon="3.27318">
        <ele>67.1</ele>
      </trkpt>
      <trkpt lat="48.19785" lon="3.27238">
        <ele>66</ele>
      </trkpt>
      <trkpt lat="48.19796" lon="3.27165">
        <ele>66</ele>
        <time>2020-02-08T09:16:34Z</time>
      </trkpt>
      <trkpt lat="48.19807" lon="3.27066">
        <ele>66.6</ele>
        <time>2020-02-08T09:16:44Z</time>
      </trkpt>
      <trkpt lat="48.19816" lon="3.26993">
        <ele>67</ele>
        <time>2020-02-08T09:16:52Z</time>
      </trkpt>
      <trkpt lat="48.19826" lon="3.26911">
        <ele>66.5</ele>
        <time>2020-02-08T09:17:01Z</time>
      </trkpt>
      <trkpt lat="48.19829" lon="3.26868">
        <ele>66.8</ele>
        <time>2020-02-08T09:17:06Z</time>
      </trkpt>
      <trkpt lat="48.19829" lon="3.26859">
        <ele>66.9</ele>
        <time>2020-02-08T09:17:07Z</time>
      </trkpt>
      <trkpt lat="48.19828" lon="3.26851">
        <ele>66.9</ele>
        <time>2020-02-08T09:17:08Z</time>
      </trkpt>
      <trkpt lat="48.19825" lon="3.26838">
        <ele>66.9</ele>
        <time>2020-02-08T09:17:10Z</time>
      </trkpt>
      <trkpt lat="48.19823" lon="3.26832">
        <ele>67</ele>
        <time>2020-02-08T09:17:11Z</time>
      </trkpt>
      <trkpt lat="48.19819" lon="3.26824">
        <ele>67.2</ele>
        <time>2020-02-08T09:17:12Z</time>
      </trkpt>
      <trkpt lat="48.19814" lon="3.26818">
        <ele>67.2</ele>
        <time>2020-02-08T09:17:13Z</time>
      </trkpt>
      <trkpt lat="48.1981" lon="3.26815">
        <ele>67.1</ele>
        <time>2020-02-08T09:17:14Z</time>
      </trkpt>
      <trkpt lat="48.19805" lon="3.26813">
        <ele>67</ele>
        <time>2020-02-08T09:17:15Z</time>
      </trkpt>
      <trkpt lat="48.198" lon="3.26812">
        <ele>67</ele>
        <time>2020-02-08T09:17:16Z</time>
      </trkpt>
      <trkpt lat="48.19797" lon="3.26812">
        <ele>67</ele>
        <time>2020-02-08T09:17:17Z</time>
      </trkpt>
      <trkpt lat="48.19789" lon="3.2681">
        <ele>67</ele>
        <time>2020-02-08T09:17:19Z</time>
      </trkpt>
      <trkpt lat="48.19785" lon="3.26804">
        <ele>67.1</ele>
        <time>2020-02-08T09:17:21Z</time>
      </trkpt>
      <trkpt lat="48.19774" lon="3.26795">
        <ele>67.8</ele>
        <time>2020-02-08T09:17:24Z</time>
      </trkpt>
      <trkpt lat="48.19769" lon="3.26792">
        <ele>68</ele>
        <time>2020-02-08T09:17:26Z</time>
      </trkpt>
      <trkpt lat="48.19766" lon="3.26789">
        <ele>68.2</ele>
        <time>2020-02-08T09:17:28Z</time>
      </trkpt>
      <trkpt lat="48.19765" lon="3.26788">
        <ele>68.3</ele>
        <time>2020-02-08T09:17:34Z</time>
      </trkpt>
      <trkpt lat="48.19765" lon="3.26787">
        <ele>68.3</ele>
        <time>2020-02-08T09:17:40Z</time>
      </trkpt>
      <trkpt lat="48.19768" lon="3.26784">
        <ele>68.6</ele>
        <time>2020-02-08T09:17:47Z</time>
      </trkpt>
      <trkpt lat="48.19762" lon="3.26714">
        <ele>68.6</ele>
        <time>2020-02-08T09:18:03Z</time>
      </trkpt>
      <trkpt lat="48.1976" lon="3.26713">
        <ele>68.6</ele>
        <time>2020-02-08T09:18:04Z</time>
      </trkpt>
      <trkpt lat="48.19758" lon="3.26709">
        <ele>68.6</ele>
        <time>2020-02-08T09:18:11Z</time>
      </trkpt>
      <trkpt lat="48.19756" lon="3.26708">
        <ele>68.6</ele>
        <time>2020-02-08T09:18:18Z</time>
      </trkpt>
      <trkpt lat="48.19748" lon="3.26709">
        <ele>68.5</ele>
        <time>2020-02-08T09:18:22Z</time>
      </trkpt>
      <trkpt lat="48.19745" lon="3.2671">
        <ele>68.5</ele>
        <time>2020-02-08T09:18:23Z</time>
      </trkpt>
      <trkpt lat="48.19742" lon="3.26711">
        <ele>68.6</ele>
        <time>2020-02-08T09:18:24Z</time>
      </trkpt>
      <trkpt lat="48.19738" lon="3.26712">
        <ele>68.6</ele>
        <time>2020-02-08T09:18:25Z</time>
      </trkpt>
      <trkpt lat="48.19723" lon="3.26713">
        <ele>69</ele>
        <time>2020-02-08T09:18:29Z</time>
      </trkpt>
      <trkpt lat="48.19719" lon="3.26714">
        <ele>68.9</ele>
        <time>2020-02-08T09:18:30Z</time>
      </trkpt>
      <trkpt lat="48.19715" lon="3.26715">
        <ele>68.7</ele>
        <time>2020-02-08T09:18:31Z</time>
      </trkpt>
      <trkpt lat="48.19712" lon="3.26715">
        <ele>68.6</ele>
        <time>2020-02-08T09:18:32Z</time>
      </trkpt>
      <trkpt lat="48.19708" lon="3.26714">
        <ele>68.5</ele>
        <time>2020-02-08T09:18:33Z</time>
      </trkpt>
      <trkpt lat="48.19706" lon="3.26712">
        <ele>68.4</ele>
        <time>2020-02-08T09:18:34Z</time>
      </trkpt>
      <trkpt lat="48.19696" lon="3.26697">
        <ele>68.1</ele>
        <time>2020-02-08T09:18:40Z</time>
      </trkpt>
      <trkpt lat="48.19685" lon="3.26671">
        <ele>68.6</ele>
        <time>2020-02-08T09:18:45Z</time>
      </trkpt>
      <trkpt lat="48.1967" lon="3.26644">
        <ele>68</ele>
        <time>2020-02-08T09:18:53Z</time>
      </trkpt>
      <trkpt lat="48.19668" lon="3.2664">
        <ele>68</ele>
        <time>2020-02-08T09:18:54Z</time>
      </trkpt>
      <trkpt lat="48.19668" lon="3.26637">
        <ele>68</ele>
        <time>2020-02-08T09:18:55Z</time>
      </trkpt>
      <trkpt lat="48.19669" lon="3.26635">
        <ele>68</ele>
        <time>2020-02-08T09:18:56Z</time>
      </trkpt>
      <trkpt lat="48.19673" lon="3.26621">
        <ele>67.9</ele>
        <time>2020-02-08T09:19:03Z</time>
      </trkpt>
      <trkpt lat="48.19672" lon="3.26618">
        <ele>67.9</ele>
        <time>2020-02-08T09:19:05Z</time>
      </trkpt>
      <trkpt lat="48.19673" lon="3.26616">
        <ele>67.8</ele>
        <time>2020-02-08T09:19:06Z</time>
      </trkpt>
      <trkpt lat="48.19674" lon="3.26614">
        <ele>67.8</ele>
        <time>2020-02-08T09:19:07Z</time>
      </trkpt>
      <trkpt lat="48.19674" lon="3.2661">
        <ele>67.7</ele>
        <time>2020-02-08T09:19:08Z</time>
      </trkpt>
      <trkpt lat="48.19674" lon="3.26605">
        <ele>67.6</ele>
        <time>2020-02-08T09:19:09Z</time>
      </trkpt>
      <trkpt lat="48.19674" lon="3.26599">
        <ele>67.4</ele>
        <time>2020-02-08T09:19:10Z</time>
      </trkpt>
      <trkpt lat="48.19674" lon="3.26593">
        <ele>67.3</ele>
        <time>2020-02-08T09:19:11Z</time>
      </trkpt>
      <trkpt lat="48.19675" lon="3.26577">
        <ele>66.9</ele>
        <time>2020-02-08T09:19:14Z</time>
      </trkpt>
      <trkpt lat="48.19677" lon="3.26572">
        <ele>66.8</ele>
        <time>2020-02-08T09:19:16Z</time>
      </trkpt>
      <trkpt lat="48.19697" lon="3.26561">
        <ele>66.3</ele>
        <time>2020-02-08T09:19:23Z</time>
      </trkpt>
      <trkpt lat="48.19724" lon="3.2655">
        <ele>67.1</ele>
        <time>2020-02-08T09:19:31Z</time>
      </trkpt>
      <trkpt lat="48.19746" lon="3.26539">
        <ele>66.7</ele>
        <time>2020-02-08T09:19:38Z</time>
      </trkpt>
      <trkpt lat="48.19768" lon="3.26531">
        <ele>66.4</ele>
        <time>2020-02-08T09:19:51Z</time>
      </trkpt>
      <trkpt lat="48.19769" lon="3.26531">
        <ele>66.4</ele>
        <time>2020-02-08T09:20:03Z</time>
      </trkpt>
      <trkpt lat="48.19774" lon="3.26527">
        <ele>66.2</ele>
        <time>2020-02-08T09:20:15Z</time>
      </trkpt>
      <trkpt lat="48.19776" lon="3.26525">
        <ele>66.2</ele>
        <time>2020-02-08T09:20:18Z</time>
      </trkpt>
      <trkpt lat="48.19779" lon="3.26523">
        <ele>66.2</ele>
        <time>2020-02-08T09:20:19Z</time>
      </trkpt>
      <trkpt lat="48.19782" lon="3.26522">
        <ele>66.2</ele>
        <time>2020-02-08T09:20:20Z</time>
      </trkpt>
      <trkpt lat="48.19802" lon="3.26514">
        <ele>66.1</ele>
        <time>2020-02-08T09:20:26Z</time>
      </trkpt>
      <trkpt lat="48.19838" lon="3.26493">
        <ele>66.9</ele>
        <time>2020-02-08T09:20:34Z</time>
      </trkpt>
      <trkpt lat="48.1988" lon="3.26467">
        <ele>66.7</ele>
        <time>2020-02-08T09:20:43Z</time>
      </trkpt>
      <trkpt lat="48.19923" lon="3.26447">
        <ele>67.6</ele>
        <time>2020-02-08T09:20:52Z</time>
      </trkpt>
      <trkpt lat="48.19936" lon="3.2644">
        <ele>67.5</ele>
        <time>2020-02-08T09:20:55Z</time>
      </trkpt>
      <trkpt lat="48.19965" lon="3.2643">
        <ele>68</ele>
        <time>2020-02-08T09:22:10Z</time>
      </trkpt>
      <trkpt lat="48.19974" lon="3.2643">
        <ele>68.1</ele>
        <time>2020-02-08T09:22:12Z</time>
      </trkpt>
      <trkpt lat="48.19979" lon="3.26429">
        <ele>68.2</ele>
        <time>2020-02-08T09:22:13Z</time>
      </trkpt>
      <trkpt lat="48.20031" lon="3.26431">
        <ele>68.5</ele>
        <time>2020-02-08T09:22:22Z</time>
      </trkpt>
      <trkpt lat="48.20098" lon="3.26442">
        <ele>68.7</ele>
        <time>2020-02-08T09:22:33Z</time>
      </trkpt>
      <trkpt lat="48.20114" lon="3.26442">
        <ele>69.3</ele>
        <time>2020-02-08T09:22:36Z</time>
      </trkpt>
      <trkpt lat="48.20119" lon="3.26444">
        <ele>69.3</ele>
        <time>2020-02-08T09:22:37Z</time>
      </trkpt>
      <trkpt lat="48.20157" lon="3.26453">
        <ele>69.8</ele>
        <time>2020-02-08T09:22:44Z</time>
      </trkpt>
      <trkpt lat="48.20172" lon="3.26455">
        <ele>70.2</ele>
        <time>2020-02-08T09:22:47Z</time>
      </trkpt>
      <trkpt lat="48.20176" lon="3.26453">
        <ele>70.3</ele>
        <time>2020-02-08T09:22:48Z</time>
      </trkpt>
      <trkpt lat="48.20185" lon="3.26449">
        <ele>70.7</ele>
        <time>2020-02-08T09:22:50Z</time>
      </trkpt>
      <trkpt lat="48.2019" lon="3.26449">
        <ele>70.8</ele>
        <time>2020-02-08T09:22:51Z</time>
      </trkpt>
      <trkpt lat="48.20195" lon="3.26448">
        <ele>71</ele>
        <time>2020-02-08T09:22:52Z</time>
      </trkpt>
      <trkpt lat="48.20199" lon="3.26445">
        <ele>71</ele>
        <time>2020-02-08T09:22:53Z</time>
      </trkpt>
      <trkpt lat="48.20202" lon="3.26443">
        <ele>71.2</ele>
        <time>2020-02-08T09:22:54Z</time>
      </trkpt>
      <trkpt lat="48.20206" lon="3.26441">
        <ele>71.5</ele>
        <time>2020-02-08T09:22:55Z</time>
      </trkpt>
      <trkpt lat="48.2021" lon="3.2644">
        <ele>71.7</ele>
        <time>2020-02-08T09:22:56Z</time>
      </trkpt>
      <trkpt lat="48.20233" lon="3.26432">
        <ele>73.2</ele>
        <time>2020-02-08T09:23:03Z</time>
      </trkpt>
      <trkpt lat="48.20254" lon="3.26421">
        <ele>75</ele>
        <time>2020-02-08T09:23:11Z</time>
      </trkpt>
      <trkpt lat="48.2027" lon="3.26412">
        <ele>75.1</ele>
        <time>2020-02-08T09:23:18Z</time>
      </trkpt>
      <trkpt lat="48.2029" lon="3.26404">
        <ele>75.6</ele>
        <time>2020-02-08T09:23:26Z</time>
      </trkpt>
      <trkpt lat="48.20315" lon="3.26399">
        <ele>75.8</ele>
        <time>2020-02-08T09:23:33Z</time>
      </trkpt>
      <trkpt lat="48.20334" lon="3.26402">
        <ele>74.7</ele>
        <time>2020-02-08T09:23:36Z</time>
      </trkpt>
      <trkpt lat="48.20359" lon="3.26405">
        <ele>74.5</ele>
        <time>2020-02-08T09:23:39Z</time>
      </trkpt>
      <trkpt lat="48.20366" lon="3.26404">
        <ele>74.9</ele>
        <time>2020-02-08T09:23:40Z</time>
      </trkpt>
      <trkpt lat="48.20379" lon="3.26403">
        <ele>75.6</ele>
        <time>2020-02-08T09:23:42Z</time>
      </trkpt>
      <trkpt lat="48.20384" lon="3.26403">
        <ele>75.8</ele>
        <time>2020-02-08T09:23:43Z</time>
      </trkpt>
      <trkpt lat="48.20424" lon="3.26408">
        <ele>76.9</ele>
        <time>2020-02-08T09:23:52Z</time>
      </trkpt>
      <trkpt lat="48.20466" lon="3.26417">
        <ele>79.6</ele>
        <time>2020-02-08T09:24:01Z</time>
      </trkpt>
      <trkpt lat="48.20489" lon="3.26428">
        <ele>78</ele>
        <time>2020-02-08T09:24:08Z</time>
      </trkpt>
      <trkpt lat="48.20518" lon="3.26445">
        <ele>77.1</ele>
        <time>2020-02-08T09:24:16Z</time>
      </trkpt>
      <trkpt lat="48.20539" lon="3.2646">
        <ele>74.6</ele>
        <time>2020-02-08T09:24:20Z</time>
      </trkpt>
      <trkpt lat="48.20552" lon="3.26466">
        <ele>74</ele>
        <time>2020-02-08T09:24:22Z</time>
      </trkpt>
      <trkpt lat="48.20583" lon="3.26472">
        <ele>75</ele>
        <time>2020-02-08T09:24:28Z</time>
      </trkpt>
      <trkpt lat="48.206" lon="3.26474">
        <ele>76.3</ele>
        <time>2020-02-08T09:24:34Z</time>
      </trkpt>
      <trkpt lat="48.20612" lon="3.26466">
        <ele>79.8</ele>
        <time>2020-02-08T09:24:42Z</time>
      </trkpt>
      <trkpt lat="48.20621" lon="3.26462">
        <ele>80.7</ele>
        <time>2020-02-08T09:24:49Z</time>
      </trkpt>
      <trkpt lat="48.20632" lon="3.26458">
        <ele>81.7</ele>
        <time>2020-02-08T09:24:56Z</time>
      </trkpt>
      <trkpt lat="48.20642" lon="3.26453">
        <ele>83</ele>
        <time>2020-02-08T09:25:03Z</time>
      </trkpt>
      <trkpt lat="48.20649" lon="3.2645">
        <ele>83.4</ele>
        <time>2020-02-08T09:25:08Z</time>
      </trkpt>
      <trkpt lat="48.2065" lon="3.26449">
        <ele>83.7</ele>
        <time>2020-02-08T09:25:09Z</time>
      </trkpt>
      <trkpt lat="48.20652" lon="3.26448">
        <ele>83.8</ele>
        <time>2020-02-08T09:25:10Z</time>
      </trkpt>
      <trkpt lat="48.20653" lon="3.26448">
        <ele>83.8</ele>
        <time>2020-02-08T09:25:11Z</time>
      </trkpt>
      <trkpt lat="48.20655" lon="3.26447">
        <ele>84</ele>
        <time>2020-02-08T09:25:12Z</time>
      </trkpt>
      <trkpt lat="48.20664" lon="3.26443">
        <ele>84.7</ele>
        <time>2020-02-08T09:25:19Z</time>
      </trkpt>
      <trkpt lat="48.20675" lon="3.26436">
        <ele>85.8</ele>
        <time>2020-02-08T09:25:26Z</time>
      </trkpt>
      <trkpt lat="48.20684" lon="3.26427">
        <ele>87.8</ele>
        <time>2020-02-08T09:25:33Z</time>
      </trkpt>
      <trkpt lat="48.20686" lon="3.26426">
        <ele>87.9</ele>
        <time>2020-02-08T09:25:34Z</time>
      </trkpt>
      <trkpt lat="48.20688" lon="3.26425">
        <ele>87.9</ele>
        <time>2020-02-08T09:25:35Z</time>
      </trkpt>
      <trkpt lat="48.20689" lon="3.26424">
        <ele>88.1</ele>
        <time>2020-02-08T09:25:36Z</time>
      </trkpt>
      <trkpt lat="48.2069" lon="3.26423">
        <ele>88.4</ele>
        <time>2020-02-08T09:25:37Z</time>
      </trkpt>
      <trkpt lat="48.20691" lon="3.26422">
        <ele>88.6</ele>
        <time>2020-02-08T09:25:38Z</time>
      </trkpt>
      <trkpt lat="48.20693" lon="3.26421">
        <ele>88.6</ele>
        <time>2020-02-08T09:25:39Z</time>
      </trkpt>
      <trkpt lat="48.20695" lon="3.2642">
        <ele>88.7</ele>
        <time>2020-02-08T09:25:40Z</time>
      </trkpt>
      <trkpt lat="48.20701" lon="3.26415">
        <ele>89.7</ele>
        <time>2020-02-08T09:25:44Z</time>
      </trkpt>
      <trkpt lat="48.20703" lon="3.26414">
        <ele>89.8</ele>
        <time>2020-02-08T09:25:45Z</time>
      </trkpt>
      <trkpt lat="48.20704" lon="3.26412">
        <ele>90.2</ele>
        <time>2020-02-08T09:25:46Z</time>
      </trkpt>
      <trkpt lat="48.20706" lon="3.26411">
        <ele>90.3</ele>
        <time>2020-02-08T09:25:47Z</time>
      </trkpt>
      <trkpt lat="48.20708" lon="3.2641">
        <ele>90.3</ele>
        <time>2020-02-08T09:25:48Z</time>
      </trkpt>
      <trkpt lat="48.20725" lon="3.26405">
        <ele>90.4</ele>
        <time>2020-02-08T09:25:57Z</time>
      </trkpt>
      <trkpt lat="48.20739" lon="3.26401">
        <ele>91.9</ele>
        <time>2020-02-08T09:26:05Z</time>
      </trkpt>
      <trkpt lat="48.20756" lon="3.26396">
        <ele>93</ele>
        <time>2020-02-08T09:26:13Z</time>
      </trkpt>
      <trkpt lat="48.20771" lon="3.26392">
        <ele>93.6</ele>
        <time>2020-02-08T09:26:21Z</time>
      </trkpt>
      <trkpt lat="48.20785" lon="3.26388">
        <ele>94.9</ele>
        <time>2020-02-08T09:26:28Z</time>
      </trkpt>
      <trkpt lat="48.20807" lon="3.26387">
        <ele>94.6</ele>
        <time>2020-02-08T09:26:38Z</time>
      </trkpt>
      <trkpt lat="48.20826" lon="3.26387">
        <ele>95.3</ele>
        <time>2020-02-08T09:26:46Z</time>
      </trkpt>
      <trkpt lat="48.20844" lon="3.26381">
        <ele>97.1</ele>
        <time>2020-02-08T09:26:54Z</time>
      </trkpt>
      <trkpt lat="48.20864" lon="3.26368">
        <ele>99</ele>
        <time>2020-02-08T09:27:03Z</time>
      </trkpt>
      <trkpt lat="48.2088" lon="3.26358">
        <ele>98.8</ele>
        <time>2020-02-08T09:27:11Z</time>
      </trkpt>
      <trkpt lat="48.20897" lon="3.26349">
        <ele>98.7</ele>
        <time>2020-02-08T09:27:19Z</time>
      </trkpt>
      <trkpt lat="48.20918" lon="3.26346">
        <ele>98.4</ele>
        <time>2020-02-08T09:27:27Z</time>
      </trkpt>
      <trkpt lat="48.20938" lon="3.26345">
        <ele>99.3</ele>
        <time>2020-02-08T09:27:35Z</time>
      </trkpt>
      <trkpt lat="48.20957" lon="3.26348">
        <ele>100.2</ele>
        <time>2020-02-08T09:27:43Z</time>
      </trkpt>
      <trkpt lat="48.20984" lon="3.26357">
        <ele>101.7</ele>
        <time>2020-02-08T09:27:55Z</time>
      </trkpt>
      <trkpt lat="48.20997" lon="3.26361">
        <ele>102.6</ele>
        <time>2020-02-08T09:28:01Z</time>
      </trkpt>
      <trkpt lat="48.20999" lon="3.26361">
        <ele>102.9</ele>
        <time>2020-02-08T09:28:02Z</time>
      </trkpt>
      <trkpt lat="48.21" lon="3.26361">
        <ele>103</ele>
        <time>2020-02-08T09:28:03Z</time>
      </trkpt>
      <trkpt lat="48.21002" lon="3.26362">
        <ele>103.4</ele>
        <time>2020-02-08T09:28:04Z</time>
      </trkpt>
      <trkpt lat="48.21004" lon="3.26362">
        <ele>103.9</ele>
        <time>2020-02-08T09:28:05Z</time>
      </trkpt>
      <trkpt lat="48.21005" lon="3.26363">
        <ele>104</ele>
        <time>2020-02-08T09:28:06Z</time>
      </trkpt>
      <trkpt lat="48.21008" lon="3.26363">
        <ele>104.7</ele>
        <time>2020-02-08T09:28:07Z</time>
      </trkpt>
      <trkpt lat="48.21017" lon="3.26371">
        <ele>105.4</ele>
        <time>2020-02-08T09:28:12Z</time>
      </trkpt>
      <trkpt lat="48.21031" lon="3.26374">
        <ele>107.8</ele>
        <time>2020-02-08T09:28:20Z</time>
      </trkpt>
      <trkpt lat="48.21044" lon="3.26378">
        <ele>109.1</ele>
        <time>2020-02-08T09:28:27Z</time>
      </trkpt>
      <trkpt lat="48.21052" lon="3.26378">
        <ele>110.5</ele>
        <time>2020-02-08T09:28:33Z</time>
      </trkpt>
      <trkpt lat="48.21056" lon="3.26377">
        <ele>111.5</ele>
        <time>2020-02-08T09:28:40Z</time>
      </trkpt>
      <trkpt lat="48.21062" lon="3.26375">
        <ele>112.6</ele>
        <time>2020-02-08T09:28:49Z</time>
      </trkpt>
      <trkpt lat="48.21064" lon="3.26373">
        <ele>113.2</ele>
        <time>2020-02-08T09:28:52Z</time>
      </trkpt>
      <trkpt lat="48.21065" lon="3.26372">
        <ele>113.5</ele>
        <time>2020-02-08T09:28:53Z</time>
      </trkpt>
      <trkpt lat="48.21066" lon="3.26371">
        <ele>113.8</ele>
        <time>2020-02-08T09:28:54Z</time>
      </trkpt>
      <trkpt lat="48.21067" lon="3.2637">
        <ele>114.1</ele>
        <time>2020-02-08T09:28:55Z</time>
      </trkpt>
      <trkpt lat="48.21068" lon="3.26369">
        <ele>114.4</ele>
        <time>2020-02-08T09:28:56Z</time>
      </trkpt>
      <trkpt lat="48.21069" lon="3.26368">
        <ele>114.6</ele>
        <time>2020-02-08T09:28:57Z</time>
      </trkpt>
      <trkpt lat="48.2107" lon="3.26366">
        <ele>115</ele>
        <time>2020-02-08T09:29:00Z</time>
      </trkpt>
      <trkpt lat="48.21071" lon="3.26364">
        <ele>115.5</ele>
        <time>2020-02-08T09:29:01Z</time>
      </trkpt>
      <trkpt lat="48.21072" lon="3.26363">
        <ele>115.7</ele>
        <time>2020-02-08T09:29:02Z</time>
      </trkpt>
      <trkpt lat="48.21073" lon="3.26362">
        <ele>115.8</ele>
        <time>2020-02-08T09:29:03Z</time>
      </trkpt>
      <trkpt lat="48.21074" lon="3.2636">
        <ele>116.1</ele>
        <time>2020-02-08T09:29:04Z</time>
      </trkpt>
      <trkpt lat="48.21075" lon="3.26357">
        <ele>116.3</ele>
        <time>2020-02-08T09:29:05Z</time>
      </trkpt>
      <trkpt lat="48.21081" lon="3.26348">
        <ele>116.6</ele>
        <time>2020-02-08T09:29:11Z</time>
      </trkpt>
      <trkpt lat="48.21082" lon="3.26347">
        <ele>116.6</ele>
        <time>2020-02-08T09:29:12Z</time>
      </trkpt>
      <trkpt lat="48.21083" lon="3.26346">
        <ele>116.6</ele>
        <time>2020-02-08T09:29:13Z</time>
      </trkpt>
      <trkpt lat="48.21085" lon="3.26337">
        <ele>116.7</ele>
        <time>2020-02-08T09:29:29Z</time>
      </trkpt>
      <trkpt lat="48.21083" lon="3.26336">
        <ele>116.9</ele>
        <time>2020-02-08T09:29:30Z</time>
      </trkpt>
      <trkpt lat="48.21081" lon="3.26334">
        <ele>117.3</ele>
        <time>2020-02-08T09:29:31Z</time>
      </trkpt>
      <trkpt lat="48.21079" lon="3.26331">
        <ele>117.8</ele>
        <time>2020-02-08T09:29:32Z</time>
      </trkpt>
      <trkpt lat="48.21069" lon="3.26315">
        <ele>120</ele>
        <time>2020-02-08T09:29:39Z</time>
      </trkpt>
      <trkpt lat="48.21062" lon="3.26305">
        <ele>121.3</ele>
        <time>2020-02-08T09:29:44Z</time>
      </trkpt>
      <trkpt lat="48.21061" lon="3.26304">
        <ele>121.5</ele>
        <time>2020-02-08T09:29:45Z</time>
      </trkpt>
      <trkpt lat="48.21048" lon="3.26287">
        <ele>123.7</ele>
        <time>2020-02-08T09:29:55Z</time>
      </trkpt>
      <trkpt lat="48.21037" lon="3.26277">
        <ele>125.7</ele>
        <time>2020-02-08T09:30:03Z</time>
      </trkpt>
      <trkpt lat="48.2102" lon="3.26263">
        <ele>127.8</ele>
        <time>2020-02-08T09:30:14Z</time>
      </trkpt>
      <trkpt lat="48.21001" lon="3.26248">
        <ele>131</ele>
        <time>2020-02-08T09:30:25Z</time>
      </trkpt>
      <trkpt lat="48.2099" lon="3.26238">
        <ele>130.9</ele>
        <time>2020-02-08T09:30:32Z</time>
      </trkpt>
      <trkpt lat="48.20976" lon="3.26222">
        <ele>133.7</ele>
        <time>2020-02-08T09:30:41Z</time>
      </trkpt>
      <trkpt lat="48.20958" lon="3.26201">
        <ele>134.8</ele>
        <time>2020-02-08T09:30:52Z</time>
      </trkpt>
      <trkpt lat="48.20943" lon="3.26183">
        <ele>137.4</ele>
        <time>2020-02-08T09:31:02Z</time>
      </trkpt>
      <trkpt lat="48.20931" lon="3.26172">
        <ele>138.3</ele>
        <time>2020-02-08T09:31:09Z</time>
      </trkpt>
      <trkpt lat="48.20918" lon="3.26161">
        <ele>140.6</ele>
        <time>2020-02-08T09:31:17Z</time>
      </trkpt>
      <trkpt lat="48.209" lon="3.26149">
        <ele>142.7</ele>
        <time>2020-02-08T09:31:26Z</time>
      </trkpt>
      <trkpt lat="48.20883" lon="3.26141">
        <ele>144.1</ele>
        <time>2020-02-08T09:31:33Z</time>
      </trkpt>
      <trkpt lat="48.20853" lon="3.26137">
        <ele>144.5</ele>
        <time>2020-02-08T09:31:43Z</time>
      </trkpt>
      <trkpt lat="48.20831" lon="3.2613">
        <ele>146.6</ele>
        <time>2020-02-08T09:31:52Z</time>
      </trkpt>
      <trkpt lat="48.20812" lon="3.26116">
        <ele>149.6</ele>
        <time>2020-02-08T09:32:01Z</time>
      </trkpt>
      <trkpt lat="48.20796" lon="3.26102">
        <ele>151.4</ele>
        <time>2020-02-08T09:32:09Z</time>
      </trkpt>
      <trkpt lat="48.20777" lon="3.26086">
        <ele>152.8</ele>
        <time>2020-02-08T09:32:18Z</time>
      </trkpt>
      <trkpt lat="48.20768" lon="3.26077">
        <ele>153.2</ele>
        <time>2020-02-08T09:32:22Z</time>
      </trkpt>
      <trkpt lat="48.20766" lon="3.26074">
        <ele>153.2</ele>
        <time>2020-02-08T09:32:23Z</time>
      </trkpt>
      <trkpt lat="48.20739" lon="3.26045">
        <ele>153.8</ele>
        <time>2020-02-08T09:32:33Z</time>
      </trkpt>
      <trkpt lat="48.20729" lon="3.26034">
        <ele>153.8</ele>
        <time>2020-02-08T09:32:36Z</time>
      </trkpt>
      <trkpt lat="48.20698" lon="3.25999">
        <ele>151.8</ele>
        <time>2020-02-08T09:32:44Z</time>
      </trkpt>
      <trkpt lat="48.20688" lon="3.25989">
        <ele>151.7</ele>
        <time>2020-02-08T09:32:46Z</time>
      </trkpt>
      <trkpt lat="48.20652" lon="3.25968">
        <ele>152.8</ele>
        <time>2020-02-08T09:32:53Z</time>
      </trkpt>
      <trkpt lat="48.2062" lon="3.25958">
        <ele>153.7</ele>
        <time>2020-02-08T09:33:00Z</time>
      </trkpt>
      <trkpt lat="48.20582" lon="3.25954">
        <ele>155.4</ele>
        <time>2020-02-08T09:33:09Z</time>
      </trkpt>
      <trkpt lat="48.20546" lon="3.25956">
        <ele>157.4</ele>
        <time>2020-02-08T09:33:18Z</time>
      </trkpt>
      <trkpt lat="48.20514" lon="3.25956">
        <ele>158.7</ele>
        <time>2020-02-08T09:33:26Z</time>
      </trkpt>
      <trkpt lat="48.20483" lon="3.25954">
        <ele>159.2</ele>
        <time>2020-02-08T09:33:34Z</time>
      </trkpt>
      <trkpt lat="48.20475" lon="3.25954">
        <ele>159.3</ele>
        <time>2020-02-08T09:33:36Z</time>
      </trkpt>
      <trkpt lat="48.20471" lon="3.25953">
        <ele>159.3</ele>
        <time>2020-02-08T09:33:37Z</time>
      </trkpt>
      <trkpt lat="48.20467" lon="3.25952">
        <ele>159.3</ele>
        <time>2020-02-08T09:33:38Z</time>
      </trkpt>
      <trkpt lat="48.20436" lon="3.25945">
        <ele>159.3</ele>
        <time>2020-02-08T09:33:45Z</time>
      </trkpt>
      <trkpt lat="48.20392" lon="3.25928">
        <ele>158.7</ele>
        <time>2020-02-08T09:33:54Z</time>
      </trkpt>
      <trkpt lat="48.2037" lon="3.25917">
        <ele>159</ele>
        <time>2020-02-08T09:33:58Z</time>
      </trkpt>
      <trkpt lat="48.20365" lon="3.25914">
        <ele>159.1</ele>
        <time>2020-02-08T09:33:59Z</time>
      </trkpt>
      <trkpt lat="48.20314" lon="3.25885">
        <ele>160</ele>
        <time>2020-02-08T09:34:10Z</time>
      </trkpt>
      <trkpt lat="48.20269" lon="3.25864">
        <ele>160.9</ele>
        <time>2020-02-08T09:34:20Z</time>
      </trkpt>
      <trkpt lat="48.20219" lon="3.25852">
        <ele>162</ele>
        <time>2020-02-08T09:34:31Z</time>
      </trkpt>
      <trkpt lat="48.20179" lon="3.25839">
        <ele>163.1</ele>
        <time>2020-02-08T09:34:40Z</time>
      </trkpt>
      <trkpt lat="48.20131" lon="3.25824">
        <ele>164.2</ele>
        <time>2020-02-08T09:34:51Z</time>
      </trkpt>
      <trkpt lat="48.20082" lon="3.25814">
        <ele>164</ele>
        <time>2020-02-08T09:35:02Z</time>
      </trkpt>
      <trkpt lat="48.20077" lon="3.25813">
        <ele>164.2</ele>
        <time>2020-02-08T09:35:03Z</time>
      </trkpt>
      <trkpt lat="48.2004" lon="3.25794">
        <ele>165.1</ele>
        <time>2020-02-08T09:35:11Z</time>
      </trkpt>
      <trkpt lat="48.20004" lon="3.25767">
        <ele>166</ele>
        <time>2020-02-08T09:35:20Z</time>
      </trkpt>
      <trkpt lat="48.19984" lon="3.25753">
        <ele>166</ele>
        <time>2020-02-08T09:35:25Z</time>
      </trkpt>
      <trkpt lat="48.19944" lon="3.25725">
        <ele>167</ele>
        <time>2020-02-08T09:35:35Z</time>
      </trkpt>
      <trkpt lat="48.1991" lon="3.25697">
        <ele>168.3</ele>
        <time>2020-02-08T09:35:44Z</time>
      </trkpt>
      <trkpt lat="48.19879" lon="3.25671">
        <ele>169.7</ele>
        <time>2020-02-08T09:35:53Z</time>
      </trkpt>
      <trkpt lat="48.19852" lon="3.25648">
        <ele>170.5</ele>
        <time>2020-02-08T09:36:01Z</time>
      </trkpt>
      <trkpt lat="48.19849" lon="3.25645">
        <ele>170.6</ele>
        <time>2020-02-08T09:36:02Z</time>
      </trkpt>
      <trkpt lat="48.19816" lon="3.25605">
        <ele>170.1</ele>
        <time>2020-02-08T09:36:11Z</time>
      </trkpt>
      <trkpt lat="48.19787" lon="3.25573">
        <ele>170.9</ele>
        <time>2020-02-08T09:36:19Z</time>
      </trkpt>
      <trkpt lat="48.19783" lon="3.2557">
        <ele>170.9</ele>
        <time>2020-02-08T09:36:20Z</time>
      </trkpt>
      <trkpt lat="48.19779" lon="3.25566">
        <ele>171</ele>
        <time>2020-02-08T09:36:21Z</time>
      </trkpt>
      <trkpt lat="48.19768" lon="3.25556">
        <ele>171</ele>
        <time>2020-02-08T09:36:24Z</time>
      </trkpt>
      <trkpt lat="48.19727" lon="3.25531">
        <ele>171</ele>
        <time>2020-02-08T09:36:34Z</time>
      </trkpt>
      <trkpt lat="48.197" lon="3.25521">
        <ele>171</ele>
        <time>2020-02-08T09:36:40Z</time>
      </trkpt>
      <trkpt lat="48.19683" lon="3.2551">
        <ele>171</ele>
        <time>2020-02-08T09:36:45Z</time>
      </trkpt>
      <trkpt lat="48.19662" lon="3.25484">
        <ele>171</ele>
        <time>2020-02-08T09:36:53Z</time>
      </trkpt>
      <trkpt lat="48.19647" lon="3.25466">
        <ele>171</ele>
        <time>2020-02-08T09:36:59Z</time>
      </trkpt>
      <trkpt lat="48.19631" lon="3.25441">
        <ele>171.4</ele>
        <time>2020-02-08T09:37:07Z</time>
      </trkpt>
      <trkpt lat="48.19614" lon="3.25431">
        <ele>171.9</ele>
        <time>2020-02-08T09:37:14Z</time>
      </trkpt>
      <trkpt lat="48.19602" lon="3.25423">
        <ele>171.7</ele>
        <time>2020-02-08T09:37:19Z</time>
      </trkpt>
      <trkpt lat="48.19584" lon="3.25406">
        <ele>171.4</ele>
        <time>2020-02-08T09:37:26Z</time>
      </trkpt>
      <trkpt lat="48.19559" lon="3.25383">
        <ele>171.1</ele>
        <time>2020-02-08T09:37:33Z</time>
      </trkpt>
      <trkpt lat="48.19556" lon="3.2538">
        <ele>171</ele>
        <time>2020-02-08T09:37:34Z</time>
      </trkpt>
      <trkpt lat="48.19525" lon="3.25352">
        <ele>170.3</ele>
        <time>2020-02-08T09:37:42Z</time>
      </trkpt>
      <trkpt lat="48.19502" lon="3.25332">
        <ele>170.1</ele>
        <time>2020-02-08T09:37:48Z</time>
      </trkpt>
      <trkpt lat="48.19475" lon="3.25308">
        <ele>169.9</ele>
        <time>2020-02-08T09:37:56Z</time>
      </trkpt>
      <trkpt lat="48.19438" lon="3.25273">
        <ele>169.1</ele>
        <time>2020-02-08T09:38:07Z</time>
      </trkpt>
      <trkpt lat="48.19406" lon="3.25248">
        <ele>168.7</ele>
        <time>2020-02-08T09:38:15Z</time>
      </trkpt>
      <trkpt lat="48.19369" lon="3.2522">
        <ele>168.4</ele>
        <time>2020-02-08T09:38:24Z</time>
      </trkpt>
      <trkpt lat="48.19348" lon="3.25202">
        <ele>168.9</ele>
        <time>2020-02-08T09:38:31Z</time>
      </trkpt>
      <trkpt lat="48.19322" lon="3.25179">
        <ele>169.6</ele>
        <time>2020-02-08T09:38:40Z</time>
      </trkpt>
      <trkpt lat="48.19292" lon="3.25149">
        <ele>169.8</ele>
        <time>2020-02-08T09:38:50Z</time>
      </trkpt>
      <trkpt lat="48.19269" lon="3.25129">
        <ele>169.8</ele>
        <time>2020-02-08T09:38:57Z</time>
      </trkpt>
      <trkpt lat="48.19242" lon="3.25107">
        <ele>169.8</ele>
        <time>2020-02-08T09:39:05Z</time>
      </trkpt>
      <trkpt lat="48.19219" lon="3.25085">
        <ele>169.8</ele>
        <time>2020-02-08T09:39:12Z</time>
      </trkpt>
      <trkpt lat="48.19196" lon="3.25068">
        <ele>169.1</ele>
        <time>2020-02-08T09:39:19Z</time>
      </trkpt>
      <trkpt lat="48.19188" lon="3.25058">
        <ele>169</ele>
        <time>2020-02-08T09:39:22Z</time>
      </trkpt>
      <trkpt lat="48.19187" lon="3.25054">
        <ele>169.1</ele>
        <time>2020-02-08T09:39:23Z</time>
      </trkpt>
      <trkpt lat="48.19188" lon="3.25049">
        <ele>169.2</ele>
        <time>2020-02-08T09:39:24Z</time>
      </trkpt>
      <trkpt lat="48.19189" lon="3.25044">
        <ele>169.4</ele>
        <time>2020-02-08T09:39:25Z</time>
      </trkpt>
      <trkpt lat="48.19191" lon="3.25039">
        <ele>169.6</ele>
        <time>2020-02-08T09:39:26Z</time>
      </trkpt>
      <trkpt lat="48.19192" lon="3.25034">
        <ele>169.8</ele>
        <time>2020-02-08T09:39:27Z</time>
      </trkpt>
      <trkpt lat="48.19193" lon="3.25029">
        <ele>170</ele>
        <time>2020-02-08T09:39:28Z</time>
      </trkpt>
      <trkpt lat="48.19194" lon="3.25024">
        <ele>170</ele>
        <time>2020-02-08T09:39:29Z</time>
      </trkpt>
      <trkpt lat="48.192" lon="3.25002">
        <ele>170</ele>
        <time>2020-02-08T09:39:33Z</time>
      </trkpt>
      <trkpt lat="48.19202" lon="3.24996">
        <ele>170</ele>
        <time>2020-02-08T09:39:34Z</time>
      </trkpt>
      <trkpt lat="48.19216" lon="3.2493">
        <ele>170</ele>
        <time>2020-02-08T09:39:44Z</time>
      </trkpt>
      <trkpt lat="48.19221" lon="3.24901">
        <ele>169.5</ele>
        <time>2020-02-08T09:39:48Z</time>
      </trkpt>
      <trkpt lat="48.19226" lon="3.24861">
        <ele>169</ele>
        <time>2020-02-08T09:39:53Z</time>
      </trkpt>
      <trkpt lat="48.19234" lon="3.24797">
        <ele>168.3</ele>
        <time>2020-02-08T09:40:00Z</time>
      </trkpt>
      <trkpt lat="48.19243" lon="3.24739">
        <ele>166.2</ele>
        <time>2020-02-08T09:40:06Z</time>
      </trkpt>
      <trkpt lat="48.19251" lon="3.24686">
        <ele>164.7</ele>
        <time>2020-02-08T09:40:11Z</time>
      </trkpt>
      <trkpt lat="48.1925" lon="3.24675">
        <ele>164.3</ele>
        <time>2020-02-08T09:40:12Z</time>
      </trkpt>
      <trkpt lat="48.19243" lon="3.24613">
        <ele>162.3</ele>
        <time>2020-02-08T09:40:18Z</time>
      </trkpt>
      <trkpt lat="48.19239" lon="3.24578">
        <ele>160.6</ele>
        <time>2020-02-08T09:40:22Z</time>
      </trkpt>
      <trkpt lat="48.19237" lon="3.24571">
        <ele>160.5</ele>
        <time>2020-02-08T09:40:23Z</time>
      </trkpt>
      <trkpt lat="48.19234" lon="3.24565">
        <ele>160.5</ele>
        <time>2020-02-08T09:40:24Z</time>
      </trkpt>
      <trkpt lat="48.1923" lon="3.24559">
        <ele>160.6</ele>
        <time>2020-02-08T09:40:25Z</time>
      </trkpt>
      <trkpt lat="48.19226" lon="3.24556">
        <ele>160.7</ele>
        <time>2020-02-08T09:40:26Z</time>
      </trkpt>
      <trkpt lat="48.19222" lon="3.24553">
        <ele>161</ele>
        <time>2020-02-08T09:40:27Z</time>
      </trkpt>
      <trkpt lat="48.19202" lon="3.24532">
        <ele>162.5</ele>
        <time>2020-02-08T09:40:34Z</time>
      </trkpt>
      <trkpt lat="48.19179" lon="3.2451">
        <ele>165</ele>
        <time>2020-02-08T09:40:42Z</time>
      </trkpt>
      <trkpt lat="48.19155" lon="3.24511">
        <ele>166.8</ele>
        <time>2020-02-08T09:40:49Z</time>
      </trkpt>
      <trkpt lat="48.1914" lon="3.24526">
        <ele>167.9</ele>
        <time>2020-02-08T09:40:55Z</time>
      </trkpt>
      <trkpt lat="48.19127" lon="3.24555">
        <ele>168.4</ele>
        <time>2020-02-08T09:41:02Z</time>
      </trkpt>
      <trkpt lat="48.19106" lon="3.24574">
        <ele>169.3</ele>
        <time>2020-02-08T09:41:09Z</time>
      </trkpt>
      <trkpt lat="48.19077" lon="3.24579">
        <ele>170.9</ele>
        <time>2020-02-08T09:41:17Z</time>
      </trkpt>
      <trkpt lat="48.19046" lon="3.24581">
        <ele>171</ele>
        <time>2020-02-08T09:41:25Z</time>
      </trkpt>
      <trkpt lat="48.19005" lon="3.24581">
        <ele>171</ele>
        <time>2020-02-08T09:41:34Z</time>
      </trkpt>
      <trkpt lat="48.18965" lon="3.24579">
        <ele>169.8</ele>
        <time>2020-02-08T09:41:42Z</time>
      </trkpt>
      <trkpt lat="48.18919" lon="3.24584">
        <ele>169</ele>
        <time>2020-02-08T09:41:50Z</time>
      </trkpt>
      <trkpt lat="48.18904" lon="3.24588">
        <ele>169</ele>
        <time>2020-02-08T09:41:53Z</time>
      </trkpt>
      <trkpt lat="48.189" lon="3.24591">
        <ele>169</ele>
        <time>2020-02-08T09:41:54Z</time>
      </trkpt>
      <trkpt lat="48.1888" lon="3.24606">
        <ele>169.3</ele>
        <time>2020-02-08T09:42:01Z</time>
      </trkpt>
      <trkpt lat="48.1888" lon="3.24606">
        <ele>169.3</ele>
        <time>2020-02-08T09:42:02Z</time>
      </trkpt>
      <trkpt lat="48.18883" lon="3.24604">
        <ele>169.2</ele>
        <time>2020-02-08T09:42:05Z</time>
      </trkpt>
      <trkpt lat="48.18884" lon="3.24605">
        <ele>169.1</ele>
        <time>2020-02-08T09:42:11Z</time>
      </trkpt>
      <trkpt lat="48.18883" lon="3.24605">
        <ele>169.2</ele>
        <time>2020-02-08T09:42:18Z</time>
      </trkpt>
      <trkpt lat="48.18881" lon="3.24605">
        <ele>169.2</ele>
        <time>2020-02-08T09:42:19Z</time>
      </trkpt>
      <trkpt lat="48.1888" lon="3.24606">
        <ele>169.3</ele>
        <time>2020-02-08T09:42:20Z</time>
      </trkpt>
      <trkpt lat="48.18879" lon="3.24607">
        <ele>169.3</ele>
        <time>2020-02-08T09:42:21Z</time>
      </trkpt>
      <trkpt lat="48.18877" lon="3.24608">
        <ele>169.4</ele>
        <time>2020-02-08T09:42:22Z</time>
      </trkpt>
      <trkpt lat="48.18876" lon="3.2461">
        <ele>169.4</ele>
        <time>2020-02-08T09:42:23Z</time>
      </trkpt>
      <trkpt lat="48.18874" lon="3.24613">
        <ele>169.6</ele>
        <time>2020-02-08T09:42:24Z</time>
      </trkpt>
      <trkpt lat="48.18857" lon="3.24627">
        <ele>170</ele>
        <time>2020-02-08T09:42:30Z</time>
      </trkpt>
      <trkpt lat="48.18849" lon="3.24632">
        <ele>170</ele>
        <time>2020-02-08T09:42:32Z</time>
      </trkpt>
      <trkpt lat="48.18845" lon="3.24635">
        <ele>170</ele>
        <time>2020-02-08T09:42:33Z</time>
      </trkpt>
      <trkpt lat="48.18841" lon="3.24639">
        <ele>170</ele>
        <time>2020-02-08T09:42:34Z</time>
      </trkpt>
      <trkpt lat="48.18839" lon="3.24643">
        <ele>170</ele>
        <time>2020-02-08T09:42:35Z</time>
      </trkpt>
      <trkpt lat="48.18836" lon="3.24647">
        <ele>170</ele>
        <time>2020-02-08T09:42:36Z</time>
      </trkpt>
      <trkpt lat="48.18833" lon="3.24652">
        <ele>170</ele>
        <time>2020-02-08T09:42:37Z</time>
      </trkpt>
      <trkpt lat="48.18822" lon="3.24665">
        <ele>170</ele>
        <time>2020-02-08T09:42:40Z</time>
      </trkpt>
      <trkpt lat="48.18817" lon="3.24669">
        <ele>170.1</ele>
        <time>2020-02-08T09:42:41Z</time>
      </trkpt>
      <trkpt lat="48.18791" lon="3.24685">
        <ele>170.3</ele>
        <time>2020-02-08T09:42:47Z</time>
      </trkpt>
      <trkpt lat="48.18764" lon="3.24695">
        <ele>170</ele>
        <time>2020-02-08T09:42:53Z</time>
      </trkpt>
      <trkpt lat="48.18741" lon="3.2469">
        <ele>170.3</ele>
        <time>2020-02-08T09:43:00Z</time>
      </trkpt>
      <trkpt lat="48.1873" lon="3.24696">
        <ele>170.7</ele>
        <time>2020-02-08T09:43:06Z</time>
      </trkpt>
      <trkpt lat="48.18715" lon="3.24714">
        <ele>171</ele>
        <time>2020-02-08T09:43:15Z</time>
      </trkpt>
      <trkpt lat="48.18698" lon="3.24726">
        <ele>171</ele>
        <time>2020-02-08T09:43:22Z</time>
      </trkpt>
      <trkpt lat="48.1867" lon="3.24739">
        <ele>171</ele>
        <time>2020-02-08T09:43:29Z</time>
      </trkpt>
      <trkpt lat="48.18638" lon="3.24753">
        <ele>170</ele>
        <time>2020-02-08T09:43:36Z</time>
      </trkpt>
      <trkpt lat="48.1863" lon="3.2476">
        <ele>170.1</ele>
        <time>2020-02-08T09:43:38Z</time>
      </trkpt>
      <trkpt lat="48.18628" lon="3.24766">
        <ele>170.2</ele>
        <time>2020-02-08T09:43:39Z</time>
      </trkpt>
      <trkpt lat="48.18627" lon="3.24771">
        <ele>170.3</ele>
        <time>2020-02-08T09:43:40Z</time>
      </trkpt>
      <trkpt lat="48.18627" lon="3.24777">
        <ele>170.4</ele>
        <time>2020-02-08T09:43:41Z</time>
      </trkpt>
      <trkpt lat="48.18627" lon="3.24784">
        <ele>170.4</ele>
        <time>2020-02-08T09:43:42Z</time>
      </trkpt>
      <trkpt lat="48.18628" lon="3.24791">
        <ele>170.4</ele>
        <time>2020-02-08T09:43:43Z</time>
      </trkpt>
      <trkpt lat="48.1863" lon="3.24798">
        <ele>170.3</ele>
        <time>2020-02-08T09:43:44Z</time>
      </trkpt>
      <trkpt lat="48.18631" lon="3.24804">
        <ele>170.3</ele>
        <time>2020-02-08T09:43:45Z</time>
      </trkpt>
      <trkpt lat="48.1864" lon="3.24847">
        <ele>170.5</ele>
        <time>2020-02-08T09:43:52Z</time>
      </trkpt>
      <trkpt lat="48.18639" lon="3.24852">
        <ele>170.7</ele>
        <time>2020-02-08T09:43:53Z</time>
      </trkpt>
      <trkpt lat="48.1863" lon="3.24858">
        <ele>170.9</ele>
        <time>2020-02-08T09:43:56Z</time>
      </trkpt>
      <trkpt lat="48.18609" lon="3.24863">
        <ele>171.1</ele>
        <time>2020-02-08T09:44:01Z</time>
      </trkpt>
      <trkpt lat="48.18576" lon="3.24866">
        <ele>171.2</ele>
        <time>2020-02-08T09:44:09Z</time>
      </trkpt>
      <trkpt lat="48.18554" lon="3.24869">
        <ele>171.7</ele>
        <time>2020-02-08T09:44:16Z</time>
      </trkpt>
      <trkpt lat="48.18538" lon="3.24877">
        <ele>171.4</ele>
        <time>2020-02-08T09:44:22Z</time>
      </trkpt>
      <trkpt lat="48.18512" lon="3.24883">
        <ele>171.7</ele>
        <time>2020-02-08T09:44:31Z</time>
      </trkpt>
      <trkpt lat="48.1849" lon="3.24887">
        <ele>172</ele>
        <time>2020-02-08T09:44:39Z</time>
      </trkpt>
      <trkpt lat="48.18474" lon="3.24889">
        <ele>172</ele>
        <time>2020-02-08T09:44:45Z</time>
      </trkpt>
      <trkpt lat="48.18463" lon="3.24904">
        <ele>172</ele>
        <time>2020-02-08T09:44:51Z</time>
      </trkpt>
      <trkpt lat="48.18447" lon="3.24916">
        <ele>172</ele>
        <time>2020-02-08T09:44:57Z</time>
      </trkpt>
      <trkpt lat="48.18424" lon="3.24936">
        <ele>171.3</ele>
      </trkpt>
      <trkpt lat="48.18359" lon="3.24951">
        <ele>171.8</ele>
      </trkpt>
      <trkpt lat="48.18357" lon="3.25025">
        <ele>171</ele>
      </trkpt>
      <trkpt lat="48.18361" lon="3.25084">
        <ele>171</ele>
      </trkpt>
      <trkpt lat="48.18341" lon="3.25096">
        <ele>170.9</ele>
      </trkpt>
      <trkpt lat="48.18321" lon="3.25134">
        <ele>170.6</ele>
      </trkpt>
      <trkpt lat="48.18321" lon="3.25182">
        <ele>169.8</ele>
      </trkpt>
      <trkpt lat="48.18319" lon="3.25205">
        <ele>169.3</ele>
      </trkpt>
      <trkpt lat="48.18321" lon="3.25228">
        <ele>169</ele>
      </trkpt>
      <trkpt lat="48.18324" lon="3.25252">
        <ele>169</ele>
        <time>2020-02-08T09:46:52Z</time>
      </trkpt>
      <trkpt lat="48.18323" lon="3.25279">
        <ele>169</ele>
        <time>2020-02-08T09:46:58Z</time>
      </trkpt>
      <trkpt lat="48.18323" lon="3.25313">
        <ele>168</ele>
        <time>2020-02-08T09:47:05Z</time>
      </trkpt>
      <trkpt lat="48.18322" lon="3.25319">
        <ele>168</ele>
        <time>2020-02-08T09:47:06Z</time>
      </trkpt>
      <trkpt lat="48.18319" lon="3.25357">
        <ele>168</ele>
        <time>2020-02-08T09:47:13Z</time>
      </trkpt>
      <trkpt lat="48.18316" lon="3.25374">
        <ele>168</ele>
        <time>2020-02-08T09:47:16Z</time>
      </trkpt>
      <trkpt lat="48.18318" lon="3.25392">
        <ele>168.1</ele>
        <time>2020-02-08T09:47:20Z</time>
      </trkpt>
      <trkpt lat="48.18317" lon="3.25432">
        <ele>168.3</ele>
        <time>2020-02-08T09:47:29Z</time>
      </trkpt>
      <trkpt lat="48.18322" lon="3.2546">
        <ele>168</ele>
        <time>2020-02-08T09:47:36Z</time>
      </trkpt>
      <trkpt lat="48.18326" lon="3.25481">
        <ele>167.9</ele>
        <time>2020-02-08T09:47:43Z</time>
      </trkpt>
      <trkpt lat="48.18326" lon="3.25484">
        <ele>167.9</ele>
        <time>2020-02-08T09:47:49Z</time>
      </trkpt>
    </trkseg>
  </trk>
  <trk>
    <name><![CDATA[VTT14 Normal]]></name>
    <extensions>
      <line xmlns="http://www.topografix.com/GPX/gpx_style/0/2">
        <color>44ff00</color>
        <width>6</width>
      </line>
    </extensions>
    <trkseg>
      <trkpt lat="48.19775" lon="3.28399">
        <ele>74</ele>
      </trkpt>
      <trkpt lat="48.19776" lon="3.28399">
        <ele>74</ele>
      </trkpt>
      <trkpt lat="48.19775" lon="3.2836">
        <ele>74</ele>
      </trkpt>
      <trkpt lat="48.19772" lon="3.28342">
        <ele>74</ele>
      </trkpt>
      <trkpt lat="48.19771" lon="3.28332">
        <ele>74</ele>
      </trkpt>
      <trkpt lat="48.19737" lon="3.28339">
        <ele>74</ele>
      </trkpt>
      <trkpt lat="48.19736" lon="3.28328">
        <ele>74</ele>
      </trkpt>
      <trkpt lat="48.19733" lon="3.28296">
        <ele>74</ele>
      </trkpt>
      <trkpt lat="48.19732" lon="3.28289">
        <ele>74</ele>
      </trkpt>
      <trkpt lat="48.19731" lon="3.28259">
        <ele>74</ele>
      </trkpt>
      <trkpt lat="48.19724" lon="3.28212">
        <ele>73.1</ele>
      </trkpt>
      <trkpt lat="48.1972" lon="3.28175">
        <ele>73</ele>
      </trkpt>
      <trkpt lat="48.19718" lon="3.28151">
        <ele>73</ele>
      </trkpt>
      <trkpt lat="48.19713" lon="3.28065">
        <ele>72.8</ele>
      </trkpt>
      <trkpt lat="48.19713" lon="3.28057">
        <ele>72.7</ele>
      </trkpt>
      <trkpt lat="48.19709" lon="3.28019">
        <ele>72</ele>
      </trkpt>
      <trkpt lat="48.19709" lon="3.28017">
        <ele>72</ele>
      </trkpt>
      <trkpt lat="48.19709" lon="3.28014">
        <ele>72</ele>
      </trkpt>
      <trkpt lat="48.19708" lon="3.27977">
        <ele>71.6</ele>
      </trkpt>
      <trkpt lat="48.19709" lon="3.27939">
        <ele>70.9</ele>
      </trkpt>
      <trkpt lat="48.1971" lon="3.27868">
        <ele>70</ele>
      </trkpt>
      <trkpt lat="48.1971" lon="3.27831">
        <ele>69</ele>
      </trkpt>
      <trkpt lat="48.19711" lon="3.27793">
        <ele>68.4</ele>
      </trkpt>
      <trkpt lat="48.1971" lon="3.27786">
        <ele>68.4</ele>
      </trkpt>
      <trkpt lat="48.19708" lon="3.27782">
        <ele>68.5</ele>
      </trkpt>
      <trkpt lat="48.19708" lon="3.27775">
        <ele>68.5</ele>
      </trkpt>
      <trkpt lat="48.19708" lon="3.27771">
        <ele>68.5</ele>
      </trkpt>
      <trkpt lat="48.19708" lon="3.27766">
        <ele>68.5</ele>
      </trkpt>
      <trkpt lat="48.19714" lon="3.27725">
        <ele>68</ele>
      </trkpt>
      <trkpt lat="48.19715" lon="3.27721">
        <ele>68</ele>
      </trkpt>
      <trkpt lat="48.19715" lon="3.27716">
        <ele>68.2</ele>
      </trkpt>
      <trkpt lat="48.1972" lon="3.27692">
        <ele>68.9</ele>
      </trkpt>
      <trkpt lat="48.19714" lon="3.27686">
        <ele>68.7</ele>
      </trkpt>
      <trkpt lat="48.19715" lon="3.2768">
        <ele>68.7</ele>
      </trkpt>
      <trkpt lat="48.19716" lon="3.27673">
        <ele>68.8</ele>
      </trkpt>
      <trkpt lat="48.19717" lon="3.27668">
        <ele>68.8</ele>
      </trkpt>
      <trkpt lat="48.19718" lon="3.27662">
        <ele>67.9</ele>
      </trkpt>
      <trkpt lat="48.19721" lon="3.27664">
        <ele>68.4</ele>
      </trkpt>
      <trkpt lat="48.19724" lon="3.27662">
        <ele>67.9</ele>
      </trkpt>
      <trkpt lat="48.19726" lon="3.27661">
        <ele>67.7</ele>
      </trkpt>
      <trkpt lat="48.19731" lon="3.27663">
        <ele>68</ele>
      </trkpt>
      <trkpt lat="48.19746" lon="3.27562">
        <ele>67.5</ele>
      </trkpt>
      <trkpt lat="48.19747" lon="3.27553">
        <ele>68.7</ele>
      </trkpt>
      <trkpt lat="48.1975" lon="3.27533">
        <ele>69</ele>
      </trkpt>
      <trkpt lat="48.19752" lon="3.27517">
        <ele>68.9</ele>
      </trkpt>
      <trkpt lat="48.19754" lon="3.27495">
        <ele>68.5</ele>
      </trkpt>
      <trkpt lat="48.19759" lon="3.27458">
        <ele>67.5</ele>
      </trkpt>
      <trkpt lat="48.19762" lon="3.27433">
        <ele>67.7</ele>
      </trkpt>
      <trkpt lat="48.19762" lon="3.27426">
        <ele>67.9</ele>
      </trkpt>
      <trkpt lat="48.19766" lon="3.27398">
        <ele>66.5</ele>
      </trkpt>
      <trkpt lat="48.19766" lon="3.2739">
        <ele>65.8</ele>
      </trkpt>
      <trkpt lat="48.19775" lon="3.2732">
        <ele>66.7</ele>
      </trkpt>
      <trkpt lat="48.19776" lon="3.27315">
        <ele>67.1</ele>
      </trkpt>
      <trkpt lat="48.19777" lon="3.27307">
        <ele>67.8</ele>
      </trkpt>
      <trkpt lat="48.19778" lon="3.27305">
        <ele>68</ele>
      </trkpt>
      <trkpt lat="48.19781" lon="3.27283">
        <ele>67.2</ele>
      </trkpt>
      <trkpt lat="48.19785" lon="3.27253">
        <ele>66.1</ele>
      </trkpt>
      <trkpt lat="48.19788" lon="3.27259">
        <ele>66.3</ele>
      </trkpt>
      <trkpt lat="48.19789" lon="3.27247">
        <ele>66</ele>
      </trkpt>
      <trkpt lat="48.1979" lon="3.27231">
        <ele>66</ele>
      </trkpt>
      <trkpt lat="48.19792" lon="3.27223">
        <ele>66</ele>
      </trkpt>
      <trkpt lat="48.19793" lon="3.27217">
        <ele>66</ele>
      </trkpt>
      <trkpt lat="48.19794" lon="3.27207">
        <ele>66</ele>
      </trkpt>
      <trkpt lat="48.19805" lon="3.27119">
        <ele>66</ele>
      </trkpt>
      <trkpt lat="48.19807" lon="3.27109">
        <ele>66</ele>
      </trkpt>
      <trkpt lat="48.19808" lon="3.27095">
        <ele>66</ele>
      </trkpt>
      <trkpt lat="48.1981" lon="3.27079">
        <ele>66.1</ele>
      </trkpt>
      <trkpt lat="48.1981" lon="3.27075">
        <ele>66.3</ele>
      </trkpt>
      <trkpt lat="48.19821" lon="3.26985">
        <ele>67</ele>
      </trkpt>
      <trkpt lat="48.19823" lon="3.26968">
        <ele>67</ele>
      </trkpt>
      <trkpt lat="48.19824" lon="3.26961">
        <ele>67</ele>
      </trkpt>
      <trkpt lat="48.19829" lon="3.26917">
        <ele>66.7</ele>
      </trkpt>
      <trkpt lat="48.1983" lon="3.26905">
        <ele>66.8</ele>
      </trkpt>
      <trkpt lat="48.19831" lon="3.26886">
        <ele>66.9</ele>
      </trkpt>
      <trkpt lat="48.19832" lon="3.26864">
        <ele>67</ele>
      </trkpt>
      <trkpt lat="48.19832" lon="3.26862">
        <ele>67</ele>
      </trkpt>
      <trkpt lat="48.19831" lon="3.2685">
        <ele>66.9</ele>
      </trkpt>
      <trkpt lat="48.19828" lon="3.26853">
        <ele>66.9</ele>
      </trkpt>
      <trkpt lat="48.19826" lon="3.26841">
        <ele>66.9</ele>
      </trkpt>
      <trkpt lat="48.19825" lon="3.26837">
        <ele>67</ele>
      </trkpt>
      <trkpt lat="48.19818" lon="3.26823">
        <ele>67.2</ele>
      </trkpt>
      <trkpt lat="48.1982" lon="3.2682">
        <ele>67.2</ele>
      </trkpt>
      <trkpt lat="48.19818" lon="3.26818">
        <ele>67.2</ele>
      </trkpt>
      <trkpt lat="48.19814" lon="3.26813">
        <ele>67.2</ele>
      </trkpt>
      <trkpt lat="48.19813" lon="3.26812">
        <ele>67.2</ele>
      </trkpt>
      <trkpt lat="48.19802" lon="3.26805">
        <ele>67</ele>
      </trkpt>
      <trkpt lat="48.19794" lon="3.26807">
        <ele>67</ele>
      </trkpt>
      <trkpt lat="48.19792" lon="3.26807">
        <ele>67</ele>
      </trkpt>
      <trkpt lat="48.19779" lon="3.2681">
        <ele>67</ele>
      </trkpt>
      <trkpt lat="48.19777" lon="3.2681">
        <ele>67</ele>
      </trkpt>
      <trkpt lat="48.19772" lon="3.26811">
        <ele>67</ele>
      </trkpt>
      <trkpt lat="48.19741" lon="3.26817">
        <ele>67.2</ele>
      </trkpt>
      <trkpt lat="48.19734" lon="3.26818">
        <ele>67.3</ele>
      </trkpt>
      <trkpt lat="48.19679" lon="3.26828">
        <ele>66.6</ele>
      </trkpt>
      <trkpt lat="48.19665" lon="3.2683">
        <ele>66.1</ele>
      </trkpt>
      <trkpt lat="48.1966" lon="3.26831">
        <ele>66.1</ele>
      </trkpt>
      <trkpt lat="48.19654" lon="3.26833">
        <ele>66</ele>
      </trkpt>
      <trkpt lat="48.19649" lon="3.26831">
        <ele>66</ele>
      </trkpt>
      <trkpt lat="48.19644" lon="3.26825">
        <ele>66.1</ele>
      </trkpt>
      <trkpt lat="48.19642" lon="3.26829">
        <ele>66</ele>
      </trkpt>
      <trkpt lat="48.19629" lon="3.26785">
        <ele>67.7</ele>
      </trkpt>
      <trkpt lat="48.19609" lon="3.26715">
        <ele>65.9</ele>
      </trkpt>
      <trkpt lat="48.1959" lon="3.26665">
        <ele>66.5</ele>
      </trkpt>
      <trkpt lat="48.19586" lon="3.26654">
        <ele>66.6</ele>
      </trkpt>
      <trkpt lat="48.19585" lon="3.26641">
        <ele>67</ele>
      </trkpt>
      <trkpt lat="48.19579" lon="3.26642">
        <ele>67</ele>
      </trkpt>
      <trkpt lat="48.19575" lon="3.26648">
        <ele>67</ele>
      </trkpt>
      <trkpt lat="48.19573" lon="3.26649">
        <ele>67</ele>
        <extensions>
          <visugpx:TrkExtension xmlns:visugpx="https://www.visugpx.com/editgpx/">
            <visugpx:node>1</visugpx:node>
            </visugpx:TrkExtension>
        </extensions>
      </trkpt>
      <trkpt lat="48.19573" lon="3.26649">
        <ele>67</ele>
      </trkpt>
      <trkpt lat="48.19575" lon="3.26648">
        <ele>67</ele>
      </trkpt>
      <trkpt lat="48.19579" lon="3.26642">
        <ele>67</ele>
      </trkpt>
      <trkpt lat="48.19585" lon="3.26641">
        <ele>67</ele>
      </trkpt>
      <trkpt lat="48.19583" lon="3.26627">
        <ele>67.4</ele>
      </trkpt>
      <trkpt lat="48.19588" lon="3.26619">
        <ele>67.6</ele>
      </trkpt>
      <trkpt lat="48.1959" lon="3.26611">
        <ele>67.8</ele>
      </trkpt>
      <trkpt lat="48.19589" lon="3.26597">
        <ele>67.8</ele>
      </trkpt>
      <trkpt lat="48.19584" lon="3.26585">
        <ele>68</ele>
      </trkpt>
      <trkpt lat="48.19579" lon="3.2658">
        <ele>68</ele>
      </trkpt>
      <trkpt lat="48.19573" lon="3.26578">
        <ele>68</ele>
      </trkpt>
      <trkpt lat="48.1957" lon="3.26568">
        <ele>68</ele>
      </trkpt>
      <trkpt lat="48.19559" lon="3.26524">
        <ele>68.9</ele>
      </trkpt>
      <trkpt lat="48.19556" lon="3.26513">
        <ele>69</ele>
      </trkpt>
      <trkpt lat="48.19554" lon="3.26499">
        <ele>69</ele>
      </trkpt>
      <trkpt lat="48.19554" lon="3.26493">
        <ele>69.3</ele>
      </trkpt>
      <trkpt lat="48.19553" lon="3.26424">
        <ele>70.7</ele>
      </trkpt>
      <trkpt lat="48.19553" lon="3.26399">
        <ele>71.6</ele>
      </trkpt>
      <trkpt lat="48.19554" lon="3.26318">
        <ele>74.4</ele>
      </trkpt>
      <trkpt lat="48.19548" lon="3.26223">
        <ele>78</ele>
      </trkpt>
      <trkpt lat="48.19546" lon="3.26213">
        <ele>78.5</ele>
      </trkpt>
      <trkpt lat="48.19532" lon="3.26209">
        <ele>78.5</ele>
      </trkpt>
      <trkpt lat="48.19501" lon="3.26207">
        <ele>78.1</ele>
      </trkpt>
      <trkpt lat="48.19471" lon="3.26213">
        <ele>77.3</ele>
      </trkpt>
      <trkpt lat="48.19451" lon="3.26219">
        <ele>76.5</ele>
      </trkpt>
      <trkpt lat="48.19444" lon="3.26222">
        <ele>76</ele>
      </trkpt>
      <trkpt lat="48.19395" lon="3.26238">
        <ele>74.2</ele>
      </trkpt>
      <trkpt lat="48.1937" lon="3.26241">
        <ele>73.5</ele>
      </trkpt>
      <trkpt lat="48.19324" lon="3.26241">
        <ele>73.2</ele>
      </trkpt>
      <trkpt lat="48.19301" lon="3.26235">
        <ele>73.5</ele>
      </trkpt>
      <trkpt lat="48.19259" lon="3.26213">
        <ele>74</ele>
      </trkpt>
      <trkpt lat="48.19223" lon="3.26199">
        <ele>74.4</ele>
      </trkpt>
      <trkpt lat="48.1918" lon="3.26187">
        <ele>76.5</ele>
      </trkpt>
      <trkpt lat="48.19135" lon="3.2617">
        <ele>77.8</ele>
      </trkpt>
      <trkpt lat="48.19071" lon="3.2615">
        <ele>80.9</ele>
      </trkpt>
      <trkpt lat="48.19039" lon="3.26156">
        <ele>80.6</ele>
      </trkpt>
      <trkpt lat="48.1901" lon="3.26165">
        <ele>79.2</ele>
      </trkpt>
      <trkpt lat="48.18992" lon="3.26164">
        <ele>79</ele>
      </trkpt>
      <trkpt lat="48.18976" lon="3.26158">
        <ele>78.8</ele>
      </trkpt>
      <trkpt lat="48.18972" lon="3.26152">
        <ele>79.1</ele>
      </trkpt>
      <trkpt lat="48.18956" lon="3.26134">
        <ele>81.2</ele>
      </trkpt>
      <trkpt lat="48.1895" lon="3.26123">
        <ele>82.1</ele>
      </trkpt>
      <trkpt lat="48.18939" lon="3.26086">
        <ele>84.4</ele>
      </trkpt>
      <trkpt lat="48.18918" lon="3.26006">
        <ele>88.9</ele>
      </trkpt>
      <trkpt lat="48.18867" lon="3.25884">
        <ele>98.8</ele>
      </trkpt>
      <trkpt lat="48.1882" lon="3.25793">
        <ele>107.7</ele>
      </trkpt>
      <trkpt lat="48.18712" lon="3.25622">
        <ele>128.4</ele>
      </trkpt>
      <trkpt lat="48.18565" lon="3.25455">
        <ele>155.1</ele>
      </trkpt>
      <trkpt lat="48.18454" lon="3.25376">
        <ele>164.3</ele>
      </trkpt>
      <trkpt lat="48.184" lon="3.2541">
        <ele>166.2</ele>
        <extensions>
          <visugpx:TrkExtension xmlns:visugpx="https://www.visugpx.com/editgpx/">
            <visugpx:node>2</visugpx:node>
            </visugpx:TrkExtension>
        </extensions>
      </trkpt>
    </trkseg>
  </trk>
  <trk>
    <name><![CDATA[Zone de Tir]]></name>
    <extensions>
      <line xmlns="http://www.topografix.com/GPX/gpx_style/0/2">
        <color>0000FF</color>
        <width>4</width>
      </line>
    </extensions>
    <trkseg>
      <trkpt lat="48.15007" lon="3.32472">
        <ele>104.5</ele>
      </trkpt>
      <trkpt lat="48.15007" lon="3.32468">
        <ele>104.4</ele>
      </trkpt>
      <trkpt lat="48.15005" lon="3.32494">
        <ele>105</ele>
      </trkpt>
      <trkpt lat="48.15" lon="3.32493">
        <ele>103.8</ele>
      </trkpt>
      <trkpt lat="48.14991" lon="3.32495">
        <ele>102.8</ele>
      </trkpt>
      <trkpt lat="48.14994" lon="3.32455">
        <ele>101.7</ele>
      </trkpt>
      <trkpt lat="48.15007" lon="3.32459">
        <ele>103.8</ele>
        <extensions>
          <visugpx:TrkExtension xmlns:visugpx="https://www.visugpx.com/editgpx/">
            <visugpx:node>1</visugpx:node>
            </visugpx:TrkExtension>
        </extensions>
      </trkpt>
    </trkseg>
  </trk>
  <trk>
    <name><![CDATA[Boucle pénalité]]></name>
    <extensions>
      <line xmlns="http://www.topografix.com/GPX/gpx_style/0/2">
        <color>ff0000</color>
        <width>4</width>
      </line>
    </extensions>
    <trkseg>
      <trkpt lat="48.14993" lon="3.32566">
        <ele>109.1</ele>
        <time>2023-12-22T08:27:24Z</time>
      </trkpt>
      <trkpt lat="48.14993" lon="3.32566">
        <ele>109.1</ele>
        <time>2023-12-22T08:27:25Z</time>
      </trkpt>
      <trkpt lat="48.14992" lon="3.3257">
        <ele>109.3</ele>
        <time>2023-12-22T08:27:31Z</time>
      </trkpt>
      <trkpt lat="48.14988" lon="3.32585">
        <ele>110.2</ele>
        <time>2023-12-22T08:27:39Z</time>
      </trkpt>
      <trkpt lat="48.14985" lon="3.3259">
        <ele>110.7</ele>
        <time>2023-12-22T08:27:43Z</time>
      </trkpt>
      <trkpt lat="48.14984" lon="3.32601">
        <ele>111.8</ele>
        <time>2023-12-22T08:27:50Z</time>
      </trkpt>
      <trkpt lat="48.14985" lon="3.32603">
        <ele>112.1</ele>
      </trkpt>
      <trkpt lat="48.14989" lon="3.32609">
        <ele>112.8</ele>
        <time>2023-12-22T08:27:57Z</time>
      </trkpt>
      <trkpt lat="48.14993" lon="3.3261">
        <ele>112.9</ele>
        <time>2023-12-22T08:28:01Z</time>
      </trkpt>
      <trkpt lat="48.14996" lon="3.32608">
        <ele>112.7</ele>
        <time>2023-12-22T08:28:05Z</time>
      </trkpt>
      <trkpt lat="48.14997" lon="3.32601">
        <ele>112.2</ele>
        <time>2023-12-22T08:28:10Z</time>
      </trkpt>
      <trkpt lat="48.14996" lon="3.32592">
        <ele>111.5</ele>
        <time>2023-12-22T08:28:15Z</time>
      </trkpt>
      <trkpt lat="48.14997" lon="3.32579">
        <ele>110.4</ele>
        <time>2023-12-22T08:28:23Z</time>
      </trkpt>
      <trkpt lat="48.14997" lon="3.32576">
        <ele>110.2</ele>
        <time>2023-12-22T08:28:25Z</time>
      </trkpt>
      <trkpt lat="48.14994" lon="3.32567">
        <ele>109.3</ele>
        <time>2023-12-22T08:28:34Z</time>
        <extensions>
          <visugpx:TrkExtension xmlns:visugpx="https://www.visugpx.com/editgpx/">
            <visugpx:node>1</visugpx:node>
            </visugpx:TrkExtension>
        </extensions>
      </trkpt>
    </trkseg>
  </trk>
  <trk>
    <name><![CDATA[VTT14 B2]]></name>
    <extensions>
      <line xmlns="http://www.topografix.com/GPX/gpx_style/0/2">
        <color>ff000d</color>
        <width>5</width>
      </line>
    </extensions>
    <trkseg>
      <trkpt lat="48.19908" lon="3.25699">
        <ele>168.4</ele>
        <time>2020-02-08T11:07:53Z</time>
        <extensions>
          <visugpx:TrkExtension xmlns:visugpx="https://www.visugpx.com/editgpx/">
            <visugpx:node>1</visugpx:node>
            </visugpx:TrkExtension>
        </extensions>
      </trkpt>
      <trkpt lat="48.1991" lon="3.25694">
        <ele>168.2</ele>
        <time>2020-02-08T11:07:45Z</time>
      </trkpt>
      <trkpt lat="48.19913" lon="3.25689">
        <ele>168</ele>
        <time>2020-02-08T11:07:40Z</time>
      </trkpt>
      <trkpt lat="48.19915" lon="3.25685">
        <ele>167.7</ele>
        <time>2020-02-08T11:07:33Z</time>
      </trkpt>
      <trkpt lat="48.19915" lon="3.25682">
        <ele>167.6</ele>
        <time>2020-02-08T11:07:27Z</time>
      </trkpt>
      <trkpt lat="48.19917" lon="3.25681">
        <ele>167.5</ele>
        <time>2020-02-08T11:07:18Z</time>
      </trkpt>
      <trkpt lat="48.19922" lon="3.2568">
        <ele>167.1</ele>
        <time>2020-02-08T11:07:12Z</time>
      </trkpt>
      <trkpt lat="48.19928" lon="3.25677">
        <ele>166.6</ele>
        <time>2020-02-08T11:07:05Z</time>
      </trkpt>
      <trkpt lat="48.1993" lon="3.25675">
        <ele>166.3</ele>
        <time>2020-02-08T11:07:02Z</time>
      </trkpt>
      <trkpt lat="48.19934" lon="3.25668">
        <ele>165.8</ele>
        <time>2020-02-08T11:06:55Z</time>
      </trkpt>
      <trkpt lat="48.19942" lon="3.25665">
        <ele>165.1</ele>
        <time>2020-02-08T11:06:49Z</time>
      </trkpt>
      <trkpt lat="48.19943" lon="3.25661">
        <ele>164.9</ele>
        <time>2020-02-08T11:06:44Z</time>
      </trkpt>
      <trkpt lat="48.19943" lon="3.25648">
        <ele>164.4</ele>
        <time>2020-02-08T11:06:35Z</time>
      </trkpt>
      <trkpt lat="48.19942" lon="3.2564">
        <ele>164.2</ele>
        <time>2020-02-08T11:06:31Z</time>
      </trkpt>
      <trkpt lat="48.19943" lon="3.25623">
        <ele>163</ele>
        <time>2020-02-08T11:06:22Z</time>
      </trkpt>
      <trkpt lat="48.19945" lon="3.25617">
        <ele>162.4</ele>
        <time>2020-02-08T11:06:18Z</time>
      </trkpt>
      <trkpt lat="48.19946" lon="3.25611">
        <ele>161.9</ele>
        <time>2020-02-08T11:06:15Z</time>
      </trkpt>
      <trkpt lat="48.19942" lon="3.25602">
        <ele>161.9</ele>
        <time>2020-02-08T11:06:10Z</time>
      </trkpt>
      <trkpt lat="48.19942" lon="3.25594">
        <ele>161.6</ele>
        <time>2020-02-08T11:06:06Z</time>
      </trkpt>
      <trkpt lat="48.19944" lon="3.25585">
        <ele>161.1</ele>
        <time>2020-02-08T11:06:01Z</time>
      </trkpt>
      <trkpt lat="48.19945" lon="3.25581">
        <ele>160.9</ele>
        <time>2020-02-08T11:05:59Z</time>
      </trkpt>
      <trkpt lat="48.19949" lon="3.25571">
        <ele>160.2</ele>
        <time>2020-02-08T11:05:53Z</time>
      </trkpt>
      <trkpt lat="48.19951" lon="3.25567">
        <ele>159.8</ele>
        <time>2020-02-08T11:05:50Z</time>
      </trkpt>
      <trkpt lat="48.19952" lon="3.25563">
        <ele>159.5</ele>
        <time>2020-02-08T11:05:43Z</time>
      </trkpt>
      <trkpt lat="48.19953" lon="3.25554">
        <ele>159</ele>
        <time>2020-02-08T11:05:37Z</time>
      </trkpt>
      <trkpt lat="48.19954" lon="3.25545">
        <ele>158.2</ele>
        <time>2020-02-08T11:05:30Z</time>
      </trkpt>
      <trkpt lat="48.19954" lon="3.25541">
        <ele>157.9</ele>
        <time>2020-02-08T11:05:27Z</time>
      </trkpt>
      <trkpt lat="48.19953" lon="3.2553">
        <ele>157.2</ele>
        <time>2020-02-08T11:05:19Z</time>
      </trkpt>
      <trkpt lat="48.19954" lon="3.25525">
        <ele>156.8</ele>
        <time>2020-02-08T11:05:15Z</time>
      </trkpt>
      <trkpt lat="48.19957" lon="3.2552">
        <ele>156.2</ele>
        <time>2020-02-08T11:05:08Z</time>
      </trkpt>
      <trkpt lat="48.19961" lon="3.25516">
        <ele>155.5</ele>
        <time>2020-02-08T11:05:02Z</time>
      </trkpt>
      <trkpt lat="48.19964" lon="3.25515">
        <ele>155.1</ele>
        <time>2020-02-08T11:04:55Z</time>
      </trkpt>
      <trkpt lat="48.19968" lon="3.25512">
        <ele>154.4</ele>
        <time>2020-02-08T11:04:46Z</time>
      </trkpt>
      <trkpt lat="48.19968" lon="3.25507">
        <ele>154.1</ele>
        <time>2020-02-08T11:04:37Z</time>
      </trkpt>
      <trkpt lat="48.19969" lon="3.25493">
        <ele>152.9</ele>
        <time>2020-02-08T11:04:30Z</time>
      </trkpt>
      <trkpt lat="48.19966" lon="3.25483">
        <ele>152.5</ele>
        <time>2020-02-08T11:04:25Z</time>
      </trkpt>
      <trkpt lat="48.1996" lon="3.25468">
        <ele>152.1</ele>
        <time>2020-02-08T11:04:19Z</time>
      </trkpt>
      <trkpt lat="48.19948" lon="3.25449">
        <ele>152.7</ele>
        <time>2020-02-08T11:04:12Z</time>
      </trkpt>
      <trkpt lat="48.19948" lon="3.25433">
        <ele>151.7</ele>
        <time>2020-02-08T11:04:06Z</time>
      </trkpt>
      <trkpt lat="48.19933" lon="3.25408">
        <ele>151.4</ele>
        <time>2020-02-08T11:03:58Z</time>
      </trkpt>
      <trkpt lat="48.19929" lon="3.254">
        <ele>151.2</ele>
        <time>2020-02-08T11:03:55Z</time>
      </trkpt>
      <trkpt lat="48.19926" lon="3.25393">
        <ele>151</ele>
        <time>2020-02-08T11:03:51Z</time>
      </trkpt>
      <trkpt lat="48.19921" lon="3.25382">
        <ele>150.9</ele>
        <time>2020-02-08T11:03:43Z</time>
      </trkpt>
      <trkpt lat="48.19915" lon="3.25374">
        <ele>151.2</ele>
        <time>2020-02-08T11:03:36Z</time>
      </trkpt>
      <trkpt lat="48.1991" lon="3.25364">
        <ele>151.2</ele>
        <time>2020-02-08T11:03:28Z</time>
      </trkpt>
      <trkpt lat="48.19908" lon="3.25362">
        <ele>151.3</ele>
        <time>2020-02-08T11:03:23Z</time>
      </trkpt>
      <trkpt lat="48.19908" lon="3.25352">
        <ele>150.5</ele>
        <time>2020-02-08T11:03:14Z</time>
      </trkpt>
      <trkpt lat="48.19909" lon="3.25344">
        <ele>149.7</ele>
        <time>2020-02-08T11:03:06Z</time>
      </trkpt>
      <trkpt lat="48.19909" lon="3.25335">
        <ele>149</ele>
        <time>2020-02-08T11:02:57Z</time>
      </trkpt>
      <trkpt lat="48.19902" lon="3.25334">
        <ele>149.6</ele>
        <time>2020-02-08T11:02:52Z</time>
      </trkpt>
      <trkpt lat="48.19901" lon="3.25333">
        <ele>149.7</ele>
        <time>2020-02-08T11:02:51Z</time>
      </trkpt>
      <trkpt lat="48.19898" lon="3.25327">
        <ele>149.3</ele>
        <time>2020-02-08T11:02:44Z</time>
      </trkpt>
      <trkpt lat="48.19899" lon="3.25325">
        <ele>149</ele>
        <time>2020-02-08T11:02:36Z</time>
      </trkpt>
      <trkpt lat="48.19898" lon="3.25323">
        <ele>148.9</ele>
        <time>2020-02-08T11:02:30Z</time>
      </trkpt>
      <trkpt lat="48.19896" lon="3.25313">
        <ele>148</ele>
        <time>2020-02-08T11:02:23Z</time>
      </trkpt>
      <trkpt lat="48.19896" lon="3.2531">
        <ele>147.7</ele>
        <time>2020-02-08T11:02:16Z</time>
      </trkpt>
      <trkpt lat="48.19894" lon="3.25302">
        <ele>147.1</ele>
        <time>2020-02-08T11:02:12Z</time>
      </trkpt>
      <trkpt lat="48.19893" lon="3.253">
        <ele>147</ele>
        <time>2020-02-08T11:02:09Z</time>
      </trkpt>
      <trkpt lat="48.19898" lon="3.25296">
        <ele>146</ele>
        <time>2020-02-08T11:02:02Z</time>
      </trkpt>
      <trkpt lat="48.19903" lon="3.2529">
        <ele>144.8</ele>
        <time>2020-02-08T11:01:54Z</time>
      </trkpt>
      <trkpt lat="48.19908" lon="3.25283">
        <ele>143.5</ele>
        <time>2020-02-08T11:01:46Z</time>
      </trkpt>
      <trkpt lat="48.19913" lon="3.25279">
        <ele>142.5</ele>
        <time>2020-02-08T11:01:39Z</time>
      </trkpt>
      <trkpt lat="48.19919" lon="3.25275">
        <ele>141.4</ele>
        <time>2020-02-08T11:01:30Z</time>
      </trkpt>
      <trkpt lat="48.19925" lon="3.25273">
        <ele>140.3</ele>
        <time>2020-02-08T11:01:22Z</time>
      </trkpt>
      <trkpt lat="48.19925" lon="3.25273">
        <ele>140.3</ele>
        <time>2020-02-08T11:01:20Z</time>
      </trkpt>
      <trkpt lat="48.19925" lon="3.25273">
        <ele>140.3</ele>
        <time>2020-02-08T11:01:19Z</time>
      </trkpt>
      <trkpt lat="48.19933" lon="3.25276">
        <ele>139.5</ele>
        <time>2020-02-08T11:01:11Z</time>
      </trkpt>
      <trkpt lat="48.19936" lon="3.25278">
        <ele>139.2</ele>
        <time>2020-02-08T11:01:09Z</time>
      </trkpt>
      <trkpt lat="48.19938" lon="3.25281">
        <ele>139.2</ele>
        <time>2020-02-08T11:01:07Z</time>
      </trkpt>
      <trkpt lat="48.19943" lon="3.25288">
        <ele>139</ele>
        <time>2020-02-08T11:01:00Z</time>
      </trkpt>
      <trkpt lat="48.19948" lon="3.25295">
        <ele>138.9</ele>
        <time>2020-02-08T11:00:53Z</time>
      </trkpt>
      <trkpt lat="48.1995" lon="3.25297">
        <ele>138.8</ele>
        <time>2020-02-08T11:00:48Z</time>
      </trkpt>
      <trkpt lat="48.19951" lon="3.25295">
        <ele>138.5</ele>
        <time>2020-02-08T11:00:46Z</time>
      </trkpt>
      <trkpt lat="48.19953" lon="3.25278">
        <ele>137.1</ele>
        <time>2020-02-08T11:00:38Z</time>
      </trkpt>
      <trkpt lat="48.19952" lon="3.25274">
        <ele>136.9</ele>
        <time>2020-02-08T11:00:36Z</time>
      </trkpt>
      <trkpt lat="48.19949" lon="3.25267">
        <ele>136.7</ele>
        <time>2020-02-08T11:00:33Z</time>
      </trkpt>
      <trkpt lat="48.19947" lon="3.25262">
        <ele>136.5</ele>
        <time>2020-02-08T11:00:31Z</time>
      </trkpt>
      <trkpt lat="48.19939" lon="3.25252">
        <ele>136.7</ele>
        <time>2020-02-08T11:00:26Z</time>
      </trkpt>
      <trkpt lat="48.19931" lon="3.25242">
        <ele>136.9</ele>
        <time>2020-02-08T11:00:19Z</time>
      </trkpt>
      <trkpt lat="48.19928" lon="3.2524">
        <ele>137.1</ele>
        <time>2020-02-08T11:00:16Z</time>
      </trkpt>
      <trkpt lat="48.19927" lon="3.25236">
        <ele>136.9</ele>
        <time>2020-02-08T11:00:14Z</time>
      </trkpt>
      <trkpt lat="48.19923" lon="3.25232">
        <ele>137</ele>
        <time>2020-02-08T11:00:10Z</time>
      </trkpt>
      <trkpt lat="48.19923" lon="3.25229">
        <ele>136.8</ele>
        <time>2020-02-08T11:00:06Z</time>
      </trkpt>
      <trkpt lat="48.19926" lon="3.25223">
        <ele>136</ele>
        <time>2020-02-08T11:00:00Z</time>
      </trkpt>
      <trkpt lat="48.19936" lon="3.25223">
        <ele>135</ele>
        <time>2020-02-08T10:59:53Z</time>
      </trkpt>
      <trkpt lat="48.19939" lon="3.25226">
        <ele>134.9</ele>
        <time>2020-02-08T10:59:51Z</time>
      </trkpt>
      <trkpt lat="48.19942" lon="3.25233">
        <ele>135</ele>
        <time>2020-02-08T10:59:47Z</time>
      </trkpt>
      <trkpt lat="48.19945" lon="3.25239">
        <ele>135.1</ele>
        <time>2020-02-08T10:59:42Z</time>
      </trkpt>
      <trkpt lat="48.19948" lon="3.25238">
        <ele>134.6</ele>
        <time>2020-02-08T10:59:39Z</time>
      </trkpt>
      <trkpt lat="48.19949" lon="3.25231">
        <ele>134</ele>
        <time>2020-02-08T10:59:33Z</time>
      </trkpt>
      <trkpt lat="48.19947" lon="3.25225">
        <ele>133.8</ele>
        <time>2020-02-08T10:59:26Z</time>
      </trkpt>
      <trkpt lat="48.19945" lon="3.25222">
        <ele>133.9</ele>
        <time>2020-02-08T10:59:19Z</time>
      </trkpt>
      <trkpt lat="48.19943" lon="3.25219">
        <ele>133.8</ele>
        <time>2020-02-08T10:59:12Z</time>
      </trkpt>
      <trkpt lat="48.19943" lon="3.25213">
        <ele>133.2</ele>
        <time>2020-02-08T10:59:03Z</time>
      </trkpt>
      <trkpt lat="48.19948" lon="3.2521">
        <ele>132.2</ele>
        <time>2020-02-08T10:58:56Z</time>
      </trkpt>
      <trkpt lat="48.19951" lon="3.25208">
        <ele>131.6</ele>
        <time>2020-02-08T10:58:53Z</time>
      </trkpt>
      <trkpt lat="48.19957" lon="3.25201">
        <ele>130.2</ele>
        <time>2020-02-08T10:58:46Z</time>
      </trkpt>
      <trkpt lat="48.1996" lon="3.25201">
        <ele>129.9</ele>
        <time>2020-02-08T10:58:44Z</time>
      </trkpt>
      <trkpt lat="48.19974" lon="3.25216">
        <ele>129.4</ele>
        <time>2020-02-08T10:58:37Z</time>
      </trkpt>
      <trkpt lat="48.19974" lon="3.25224">
        <ele>129.9</ele>
        <time>2020-02-08T10:58:35Z</time>
      </trkpt>
      <trkpt lat="48.19977" lon="3.25236">
        <ele>130.5</ele>
        <time>2020-02-08T10:58:30Z</time>
      </trkpt>
      <trkpt lat="48.19983" lon="3.25246">
        <ele>130.5</ele>
        <time>2020-02-08T10:58:24Z</time>
      </trkpt>
      <trkpt lat="48.19986" lon="3.2525">
        <ele>130.5</ele>
        <time>2020-02-08T10:58:22Z</time>
      </trkpt>
      <trkpt lat="48.19991" lon="3.25262">
        <ele>131</ele>
        <time>2020-02-08T10:58:15Z</time>
      </trkpt>
      <trkpt lat="48.19991" lon="3.25277">
        <ele>132.2</ele>
        <time>2020-02-08T10:58:11Z</time>
      </trkpt>
      <trkpt lat="48.19993" lon="3.25291">
        <ele>133</ele>
        <time>2020-02-08T10:58:05Z</time>
      </trkpt>
      <trkpt lat="48.19997" lon="3.25298">
        <ele>132.9</ele>
        <time>2020-02-08T10:57:59Z</time>
      </trkpt>
      <trkpt lat="48.20001" lon="3.25305">
        <ele>132.8</ele>
        <time>2020-02-08T10:57:51Z</time>
      </trkpt>
      <trkpt lat="48.20005" lon="3.253">
        <ele>131.9</ele>
        <time>2020-02-08T10:57:47Z</time>
      </trkpt>
      <trkpt lat="48.20008" lon="3.25284">
        <ele>130.3</ele>
        <time>2020-02-08T10:57:38Z</time>
      </trkpt>
      <trkpt lat="48.20008" lon="3.25279">
        <ele>129.9</ele>
        <time>2020-02-08T10:57:35Z</time>
      </trkpt>
      <trkpt lat="48.20009" lon="3.25268">
        <ele>129</ele>
        <time>2020-02-08T10:57:28Z</time>
      </trkpt>
      <trkpt lat="48.20008" lon="3.25254">
        <ele>128.1</ele>
        <time>2020-02-08T10:57:19Z</time>
      </trkpt>
      <trkpt lat="48.20006" lon="3.2525">
        <ele>128.1</ele>
        <time>2020-02-08T10:57:13Z</time>
      </trkpt>
      <trkpt lat="48.20007" lon="3.25247">
        <ele>127.8</ele>
        <time>2020-02-08T10:57:10Z</time>
      </trkpt>
      <trkpt lat="48.20014" lon="3.25247">
        <ele>126.8</ele>
        <time>2020-02-08T10:57:03Z</time>
      </trkpt>
      <trkpt lat="48.20016" lon="3.25246">
        <ele>126.4</ele>
        <time>2020-02-08T10:57:01Z</time>
      </trkpt>
      <trkpt lat="48.20022" lon="3.25246">
        <ele>125.5</ele>
        <time>2020-02-08T10:56:54Z</time>
      </trkpt>
      <trkpt lat="48.20024" lon="3.25246">
        <ele>125.3</ele>
        <time>2020-02-08T10:56:53Z</time>
      </trkpt>
      <trkpt lat="48.20032" lon="3.25243">
        <ele>123.8</ele>
        <time>2020-02-08T10:56:46Z</time>
      </trkpt>
      <trkpt lat="48.20034" lon="3.25237">
        <ele>123</ele>
        <time>2020-02-08T10:56:42Z</time>
      </trkpt>
      <trkpt lat="48.20032" lon="3.2523">
        <ele>122.9</ele>
        <time>2020-02-08T10:56:37Z</time>
      </trkpt>
      <trkpt lat="48.2003" lon="3.25216">
        <ele>122.2</ele>
        <time>2020-02-08T10:56:29Z</time>
      </trkpt>
      <trkpt lat="48.20028" lon="3.25208">
        <ele>121.9</ele>
        <time>2020-02-08T10:56:24Z</time>
      </trkpt>
      <trkpt lat="48.20025" lon="3.25198">
        <ele>121.7</ele>
        <time>2020-02-08T10:56:19Z</time>
      </trkpt>
      <trkpt lat="48.20023" lon="3.25186">
        <ele>121</ele>
        <time>2020-02-08T10:56:13Z</time>
      </trkpt>
      <trkpt lat="48.20017" lon="3.25166">
        <ele>120.1</ele>
        <time>2020-02-08T10:56:03Z</time>
      </trkpt>
      <trkpt lat="48.20012" lon="3.25154">
        <ele>119.8</ele>
        <time>2020-02-08T10:55:57Z</time>
      </trkpt>
      <trkpt lat="48.20008" lon="3.25149">
        <ele>119.9</ele>
        <time>2020-02-08T10:55:52Z</time>
      </trkpt>
      <trkpt lat="48.20006" lon="3.25144">
        <ele>119.7</ele>
        <time>2020-02-08T10:55:47Z</time>
      </trkpt>
      <trkpt lat="48.20005" lon="3.25139">
        <ele>119.5</ele>
        <time>2020-02-08T10:55:44Z</time>
      </trkpt>
      <trkpt lat="48.20006" lon="3.25137">
        <ele>119.2</ele>
        <time>2020-02-08T10:55:43Z</time>
      </trkpt>
      <trkpt lat="48.20006" lon="3.25128">
        <ele>118.6</ele>
        <time>2020-02-08T10:55:37Z</time>
      </trkpt>
      <trkpt lat="48.20004" lon="3.25126">
        <ele>118.6</ele>
        <time>2020-02-08T10:55:24Z</time>
      </trkpt>
      <trkpt lat="48.20003" lon="3.25121">
        <ele>118.4</ele>
        <time>2020-02-08T10:55:16Z</time>
      </trkpt>
      <trkpt lat="48.20002" lon="3.25112">
        <ele>117.8</ele>
        <time>2020-02-08T10:55:09Z</time>
      </trkpt>
      <trkpt lat="48.19864" lon="3.24568">
        <ele>102.8</ele>
      </trkpt>
      <trkpt lat="48.19838" lon="3.24517">
        <ele>103.8</ele>
      </trkpt>
      <trkpt lat="48.19799" lon="3.24509">
        <ele>105.2</ele>
      </trkpt>
      <trkpt lat="48.19642" lon="3.24695">
        <ele>137.7</ele>
      </trkpt>
      <trkpt lat="48.19517" lon="3.24813">
        <ele>156</ele>
      </trkpt>
      <trkpt lat="48.19343" lon="3.2453">
        <ele>154.7</ele>
      </trkpt>
      <trkpt lat="48.19327" lon="3.24556">
        <ele>156.2</ele>
      </trkpt>
      <trkpt lat="48.19273" lon="3.2456">
        <ele>158.3</ele>
      </trkpt>
      <trkpt lat="48.1925" lon="3.24631">
        <ele>162.7</ele>
        <time>2020-02-08T10:55:01Z</time>
      </trkpt>
    </trkseg>
  </trk>
  <trk>
    <name><![CDATA[K12]]></name>
    <extensions>
      <line xmlns="http://www.topografix.com/GPX/gpx_style/0/2">
        <color>ff00f7</color>
        <width>4</width>
      </line>
    </extensions>
    <trkseg>
      <trkpt lat="48.18652" lon="3.27087">
        <ele>66</ele>
        <time>2022-05-14T13:21:26.000Z</time>
        <extensions>
          <gpxtpx:TrackPointExtension xmlns:gpxtpx="http://www.garmin.com/xmlschemas/TrackPointExtension/v1">
            <gpxtpx:hr>134</gpxtpx:hr>
          </gpxtpx:TrackPointExtension>
        </extensions>
      </trkpt>
      <trkpt lat="48.18656" lon="3.27081">
        <ele>65.9</ele>
        <time>2022-05-14T13:21:29.000Z</time>
        <extensions>
          <gpxtpx:TrackPointExtension xmlns:gpxtpx="http://www.garmin.com/xmlschemas/TrackPointExtension/v1">
            <gpxtpx:hr>134</gpxtpx:hr>
          </gpxtpx:TrackPointExtension>
        </extensions>
      </trkpt>
      <trkpt lat="48.18657" lon="3.27073">
        <ele>65.8</ele>
        <time>2022-05-14T13:21:32.000Z</time>
        <extensions>
          <gpxtpx:TrackPointExtension xmlns:gpxtpx="http://www.garmin.com/xmlschemas/TrackPointExtension/v1">
            <gpxtpx:hr>134</gpxtpx:hr>
          </gpxtpx:TrackPointExtension>
        </extensions>
      </trkpt>
      <trkpt lat="48.18657" lon="3.2705">
        <ele>65.3</ele>
        <time>2022-05-14T13:21:41.000Z</time>
        <extensions>
          <gpxtpx:TrackPointExtension xmlns:gpxtpx="http://www.garmin.com/xmlschemas/TrackPointExtension/v1">
            <gpxtpx:hr>135</gpxtpx:hr>
          </gpxtpx:TrackPointExtension>
        </extensions>
      </trkpt>
      <trkpt lat="48.18658" lon="3.2703">
        <ele>65.3</ele>
        <time>2022-05-14T13:21:48.000Z</time>
        <extensions>
          <gpxtpx:TrackPointExtension xmlns:gpxtpx="http://www.garmin.com/xmlschemas/TrackPointExtension/v1">
            <gpxtpx:hr>137</gpxtpx:hr>
          </gpxtpx:TrackPointExtension>
        </extensions>
      </trkpt>
      <trkpt lat="48.18663" lon="3.27008">
        <ele>65.1</ele>
        <time>2022-05-14T13:21:55.000Z</time>
        <extensions>
          <gpxtpx:TrackPointExtension xmlns:gpxtpx="http://www.garmin.com/xmlschemas/TrackPointExtension/v1">
            <gpxtpx:hr>138</gpxtpx:hr>
          </gpxtpx:TrackPointExtension>
        </extensions>
      </trkpt>
      <trkpt lat="48.18674" lon="3.26993">
        <ele>65.6</ele>
        <time>2022-05-14T13:22:01.000Z</time>
        <extensions>
          <gpxtpx:TrackPointExtension xmlns:gpxtpx="http://www.garmin.com/xmlschemas/TrackPointExtension/v1">
            <gpxtpx:hr>136</gpxtpx:hr>
          </gpxtpx:TrackPointExtension>
        </extensions>
      </trkpt>
      <trkpt lat="48.18676" lon="3.2699">
        <ele>65.7</ele>
        <time>2022-05-14T13:22:02.000Z</time>
        <extensions>
          <gpxtpx:TrackPointExtension xmlns:gpxtpx="http://www.garmin.com/xmlschemas/TrackPointExtension/v1">
            <gpxtpx:hr>135</gpxtpx:hr>
          </gpxtpx:TrackPointExtension>
        </extensions>
      </trkpt>
      <trkpt lat="48.18683" lon="3.26976">
        <ele>65.8</ele>
        <time>2022-05-14T13:22:07.000Z</time>
        <extensions>
          <gpxtpx:TrackPointExtension xmlns:gpxtpx="http://www.garmin.com/xmlschemas/TrackPointExtension/v1">
            <gpxtpx:hr>133</gpxtpx:hr>
          </gpxtpx:TrackPointExtension>
        </extensions>
      </trkpt>
      <trkpt lat="48.1869" lon="3.26961">
        <ele>65.3</ele>
        <time>2022-05-14T13:22:12.000Z</time>
        <extensions>
          <gpxtpx:TrackPointExtension xmlns:gpxtpx="http://www.garmin.com/xmlschemas/TrackPointExtension/v1">
            <gpxtpx:hr>133</gpxtpx:hr>
          </gpxtpx:TrackPointExtension>
        </extensions>
      </trkpt>
      <trkpt lat="48.18691" lon="3.26942">
        <ele>65.2</ele>
        <time>2022-05-14T13:22:17.000Z</time>
        <extensions>
          <gpxtpx:TrackPointExtension xmlns:gpxtpx="http://www.garmin.com/xmlschemas/TrackPointExtension/v1">
            <gpxtpx:hr>134</gpxtpx:hr>
          </gpxtpx:TrackPointExtension>
        </extensions>
      </trkpt>
      <trkpt lat="48.18698" lon="3.2693">
        <ele>65.5</ele>
        <time>2022-05-14T13:22:24.000Z</time>
        <extensions>
          <gpxtpx:TrackPointExtension xmlns:gpxtpx="http://www.garmin.com/xmlschemas/TrackPointExtension/v1">
            <gpxtpx:hr>136</gpxtpx:hr>
          </gpxtpx:TrackPointExtension>
        </extensions>
      </trkpt>
      <trkpt lat="48.18704" lon="3.26918">
        <ele>65.6</ele>
        <time>2022-05-14T13:22:30.000Z</time>
        <extensions>
          <gpxtpx:TrackPointExtension xmlns:gpxtpx="http://www.garmin.com/xmlschemas/TrackPointExtension/v1">
            <gpxtpx:hr>136</gpxtpx:hr>
          </gpxtpx:TrackPointExtension>
        </extensions>
      </trkpt>
      <trkpt lat="48.18709" lon="3.26907">
        <ele>65.5</ele>
        <time>2022-05-14T13:22:35.000Z</time>
        <extensions>
          <gpxtpx:TrackPointExtension xmlns:gpxtpx="http://www.garmin.com/xmlschemas/TrackPointExtension/v1">
            <gpxtpx:hr>134</gpxtpx:hr>
          </gpxtpx:TrackPointExtension>
        </extensions>
      </trkpt>
      <trkpt lat="48.1871" lon="3.26901">
        <ele>65.4</ele>
        <time>2022-05-14T13:22:37.000Z</time>
        <extensions>
          <gpxtpx:TrackPointExtension xmlns:gpxtpx="http://www.garmin.com/xmlschemas/TrackPointExtension/v1">
            <gpxtpx:hr>133</gpxtpx:hr>
          </gpxtpx:TrackPointExtension>
        </extensions>
      </trkpt>
      <trkpt lat="48.18713" lon="3.26881">
        <ele>65.3</ele>
        <time>2022-05-14T13:22:42.000Z</time>
        <extensions>
          <gpxtpx:TrackPointExtension xmlns:gpxtpx="http://www.garmin.com/xmlschemas/TrackPointExtension/v1">
            <gpxtpx:hr>132</gpxtpx:hr>
          </gpxtpx:TrackPointExtension>
        </extensions>
      </trkpt>
      <trkpt lat="48.18718" lon="3.26873">
        <ele>65.2</ele>
        <time>2022-05-14T13:22:45.000Z</time>
        <extensions>
          <gpxtpx:TrackPointExtension xmlns:gpxtpx="http://www.garmin.com/xmlschemas/TrackPointExtension/v1">
            <gpxtpx:hr>130</gpxtpx:hr>
          </gpxtpx:TrackPointExtension>
        </extensions>
      </trkpt>
      <trkpt lat="48.18719" lon="3.2687">
        <ele>65.1</ele>
        <time>2022-05-14T13:22:46.000Z</time>
        <extensions>
          <gpxtpx:TrackPointExtension xmlns:gpxtpx="http://www.garmin.com/xmlschemas/TrackPointExtension/v1">
            <gpxtpx:hr>130</gpxtpx:hr>
          </gpxtpx:TrackPointExtension>
        </extensions>
      </trkpt>
      <trkpt lat="48.18721" lon="3.26863">
        <ele>65</ele>
        <time>2022-05-14T13:22:48.000Z</time>
        <extensions>
          <gpxtpx:TrackPointExtension xmlns:gpxtpx="http://www.garmin.com/xmlschemas/TrackPointExtension/v1">
            <gpxtpx:hr>128</gpxtpx:hr>
          </gpxtpx:TrackPointExtension>
        </extensions>
      </trkpt>
      <trkpt lat="48.18724" lon="3.26857">
        <ele>65.1</ele>
        <time>2022-05-14T13:22:50.000Z</time>
        <extensions>
          <gpxtpx:TrackPointExtension xmlns:gpxtpx="http://www.garmin.com/xmlschemas/TrackPointExtension/v1">
            <gpxtpx:hr>128</gpxtpx:hr>
          </gpxtpx:TrackPointExtension>
        </extensions>
      </trkpt>
      <trkpt lat="48.18734" lon="3.26836">
        <ele>65.5</ele>
        <time>2022-05-14T13:22:56.000Z</time>
        <extensions>
          <gpxtpx:TrackPointExtension xmlns:gpxtpx="http://www.garmin.com/xmlschemas/TrackPointExtension/v1">
            <gpxtpx:hr>131</gpxtpx:hr>
          </gpxtpx:TrackPointExtension>
        </extensions>
      </trkpt>
      <trkpt lat="48.18736" lon="3.26828">
        <ele>65.4</ele>
        <time>2022-05-14T13:22:58.000Z</time>
        <extensions>
          <gpxtpx:TrackPointExtension xmlns:gpxtpx="http://www.garmin.com/xmlschemas/TrackPointExtension/v1">
            <gpxtpx:hr>134</gpxtpx:hr>
          </gpxtpx:TrackPointExtension>
        </extensions>
      </trkpt>
      <trkpt lat="48.18741" lon="3.26816">
        <ele>65.1</ele>
        <time>2022-05-14T13:23:01.000Z</time>
        <extensions>
          <gpxtpx:TrackPointExtension xmlns:gpxtpx="http://www.garmin.com/xmlschemas/TrackPointExtension/v1">
            <gpxtpx:hr>136</gpxtpx:hr>
          </gpxtpx:TrackPointExtension>
        </extensions>
      </trkpt>
      <trkpt lat="48.18745" lon="3.26808">
        <ele>65</ele>
        <time>2022-05-14T13:23:04.000Z</time>
        <extensions>
          <gpxtpx:TrackPointExtension xmlns:gpxtpx="http://www.garmin.com/xmlschemas/TrackPointExtension/v1">
            <gpxtpx:hr>135</gpxtpx:hr>
          </gpxtpx:TrackPointExtension>
        </extensions>
      </trkpt>
      <trkpt lat="48.18748" lon="3.26801">
        <ele>65</ele>
        <time>2022-05-14T13:23:07.000Z</time>
        <extensions>
          <gpxtpx:TrackPointExtension xmlns:gpxtpx="http://www.garmin.com/xmlschemas/TrackPointExtension/v1">
            <gpxtpx:hr>136</gpxtpx:hr>
          </gpxtpx:TrackPointExtension>
        </extensions>
      </trkpt>
      <trkpt lat="48.18757" lon="3.2679">
        <ele>65</ele>
        <time>2022-05-14T13:23:14.000Z</time>
        <extensions>
          <gpxtpx:TrackPointExtension xmlns:gpxtpx="http://www.garmin.com/xmlschemas/TrackPointExtension/v1">
            <gpxtpx:hr>135</gpxtpx:hr>
          </gpxtpx:TrackPointExtension>
        </extensions>
      </trkpt>
      <trkpt lat="48.18765" lon="3.26783">
        <ele>65</ele>
        <time>2022-05-14T13:23:19.000Z</time>
        <extensions>
          <gpxtpx:TrackPointExtension xmlns:gpxtpx="http://www.garmin.com/xmlschemas/TrackPointExtension/v1">
            <gpxtpx:hr>138</gpxtpx:hr>
          </gpxtpx:TrackPointExtension>
        </extensions>
      </trkpt>
      <trkpt lat="48.18769" lon="3.2678">
        <ele>65</ele>
        <time>2022-05-14T13:23:21.000Z</time>
        <extensions>
          <gpxtpx:TrackPointExtension xmlns:gpxtpx="http://www.garmin.com/xmlschemas/TrackPointExtension/v1">
            <gpxtpx:hr>139</gpxtpx:hr>
          </gpxtpx:TrackPointExtension>
        </extensions>
      </trkpt>
      <trkpt lat="48.18776" lon="3.26767">
        <ele>64.6</ele>
        <time>2022-05-14T13:23:27.000Z</time>
        <extensions>
          <gpxtpx:TrackPointExtension xmlns:gpxtpx="http://www.garmin.com/xmlschemas/TrackPointExtension/v1">
            <gpxtpx:hr>139</gpxtpx:hr>
          </gpxtpx:TrackPointExtension>
        </extensions>
      </trkpt>
      <trkpt lat="48.18778" lon="3.26763">
        <ele>64.5</ele>
        <time>2022-05-14T13:23:28.000Z</time>
        <extensions>
          <gpxtpx:TrackPointExtension xmlns:gpxtpx="http://www.garmin.com/xmlschemas/TrackPointExtension/v1">
            <gpxtpx:hr>139</gpxtpx:hr>
          </gpxtpx:TrackPointExtension>
        </extensions>
      </trkpt>
      <trkpt lat="48.18789" lon="3.26747">
        <ele>64.1</ele>
        <time>2022-05-14T13:23:35.000Z</time>
        <extensions>
          <gpxtpx:TrackPointExtension xmlns:gpxtpx="http://www.garmin.com/xmlschemas/TrackPointExtension/v1">
            <gpxtpx:hr>137</gpxtpx:hr>
          </gpxtpx:TrackPointExtension>
        </extensions>
      </trkpt>
      <trkpt lat="48.18802" lon="3.26743">
        <ele>64.3</ele>
        <time>2022-05-14T13:23:42.000Z</time>
        <extensions>
          <gpxtpx:TrackPointExtension xmlns:gpxtpx="http://www.garmin.com/xmlschemas/TrackPointExtension/v1">
            <gpxtpx:hr>136</gpxtpx:hr>
          </gpxtpx:TrackPointExtension>
        </extensions>
      </trkpt>
      <trkpt lat="48.18811" lon="3.26751">
        <ele>64.2</ele>
        <time>2022-05-14T13:23:49.000Z</time>
        <extensions>
          <gpxtpx:TrackPointExtension xmlns:gpxtpx="http://www.garmin.com/xmlschemas/TrackPointExtension/v1">
            <gpxtpx:hr>135</gpxtpx:hr>
          </gpxtpx:TrackPointExtension>
        </extensions>
      </trkpt>
      <trkpt lat="48.18815" lon="3.26755">
        <ele>64.5</ele>
        <time>2022-05-14T13:23:54.000Z</time>
        <extensions>
          <gpxtpx:TrackPointExtension xmlns:gpxtpx="http://www.garmin.com/xmlschemas/TrackPointExtension/v1">
            <gpxtpx:hr>133</gpxtpx:hr>
          </gpxtpx:TrackPointExtension>
        </extensions>
      </trkpt>
      <trkpt lat="48.18825" lon="3.26764">
        <ele>64.9</ele>
        <time>2022-05-14T13:24:01.000Z</time>
        <extensions>
          <gpxtpx:TrackPointExtension xmlns:gpxtpx="http://www.garmin.com/xmlschemas/TrackPointExtension/v1">
            <gpxtpx:hr>132</gpxtpx:hr>
          </gpxtpx:TrackPointExtension>
        </extensions>
      </trkpt>
      <trkpt lat="48.18836" lon="3.26776">
        <ele>65</ele>
        <time>2022-05-14T13:24:07.000Z</time>
        <extensions>
          <gpxtpx:TrackPointExtension xmlns:gpxtpx="http://www.garmin.com/xmlschemas/TrackPointExtension/v1">
            <gpxtpx:hr>132</gpxtpx:hr>
          </gpxtpx:TrackPointExtension>
        </extensions>
      </trkpt>
      <trkpt lat="48.18839" lon="3.26781">
        <ele>65</ele>
        <time>2022-05-14T13:24:09.000Z</time>
        <extensions>
          <gpxtpx:TrackPointExtension xmlns:gpxtpx="http://www.garmin.com/xmlschemas/TrackPointExtension/v1">
            <gpxtpx:hr>133</gpxtpx:hr>
          </gpxtpx:TrackPointExtension>
        </extensions>
      </trkpt>
      <trkpt lat="48.18843" lon="3.26789">
        <ele>65</ele>
        <time>2022-05-14T13:24:12.000Z</time>
        <extensions>
          <gpxtpx:TrackPointExtension xmlns:gpxtpx="http://www.garmin.com/xmlschemas/TrackPointExtension/v1">
            <gpxtpx:hr>134</gpxtpx:hr>
          </gpxtpx:TrackPointExtension>
        </extensions>
      </trkpt>
      <trkpt lat="48.18852" lon="3.26799">
        <ele>65</ele>
        <time>2022-05-14T13:24:17.000Z</time>
        <extensions>
          <gpxtpx:TrackPointExtension xmlns:gpxtpx="http://www.garmin.com/xmlschemas/TrackPointExtension/v1">
            <gpxtpx:hr>135</gpxtpx:hr>
          </gpxtpx:TrackPointExtension>
        </extensions>
      </trkpt>
      <trkpt lat="48.18865" lon="3.26813">
        <ele>65</ele>
        <time>2022-05-14T13:24:23.000Z</time>
        <extensions>
          <gpxtpx:TrackPointExtension xmlns:gpxtpx="http://www.garmin.com/xmlschemas/TrackPointExtension/v1">
            <gpxtpx:hr>135</gpxtpx:hr>
          </gpxtpx:TrackPointExtension>
        </extensions>
      </trkpt>
      <trkpt lat="48.18867" lon="3.26816">
        <ele>65</ele>
        <time>2022-05-14T13:24:24.000Z</time>
        <extensions>
          <gpxtpx:TrackPointExtension xmlns:gpxtpx="http://www.garmin.com/xmlschemas/TrackPointExtension/v1">
            <gpxtpx:hr>135</gpxtpx:hr>
          </gpxtpx:TrackPointExtension>
        </extensions>
      </trkpt>
      <trkpt lat="48.1887" lon="3.2682">
        <ele>65</ele>
        <time>2022-05-14T13:24:26.000Z</time>
        <extensions>
          <gpxtpx:TrackPointExtension xmlns:gpxtpx="http://www.garmin.com/xmlschemas/TrackPointExtension/v1">
            <gpxtpx:hr>132</gpxtpx:hr>
          </gpxtpx:TrackPointExtension>
        </extensions>
      </trkpt>
      <trkpt lat="48.18872" lon="3.26825">
        <ele>65</ele>
        <time>2022-05-14T13:24:28.000Z</time>
        <extensions>
          <gpxtpx:TrackPointExtension xmlns:gpxtpx="http://www.garmin.com/xmlschemas/TrackPointExtension/v1">
            <gpxtpx:hr>135</gpxtpx:hr>
          </gpxtpx:TrackPointExtension>
        </extensions>
      </trkpt>
      <trkpt lat="48.18883" lon="3.26844">
        <ele>65</ele>
        <time>2022-05-14T13:24:35.000Z</time>
        <extensions>
          <gpxtpx:TrackPointExtension xmlns:gpxtpx="http://www.garmin.com/xmlschemas/TrackPointExtension/v1">
            <gpxtpx:hr>134</gpxtpx:hr>
          </gpxtpx:TrackPointExtension>
        </extensions>
      </trkpt>
      <trkpt lat="48.18884" lon="3.26848">
        <ele>65</ele>
        <time>2022-05-14T13:24:37.000Z</time>
        <extensions>
          <gpxtpx:TrackPointExtension xmlns:gpxtpx="http://www.garmin.com/xmlschemas/TrackPointExtension/v1">
            <gpxtpx:hr>133</gpxtpx:hr>
          </gpxtpx:TrackPointExtension>
        </extensions>
      </trkpt>
      <trkpt lat="48.18891" lon="3.26858">
        <ele>65</ele>
        <time>2022-05-14T13:24:43.000Z</time>
        <extensions>
          <gpxtpx:TrackPointExtension xmlns:gpxtpx="http://www.garmin.com/xmlschemas/TrackPointExtension/v1">
            <gpxtpx:hr>133</gpxtpx:hr>
          </gpxtpx:TrackPointExtension>
        </extensions>
      </trkpt>
      <trkpt lat="48.18904" lon="3.26871">
        <ele>64.8</ele>
        <time>2022-05-14T13:24:50.000Z</time>
        <extensions>
          <gpxtpx:TrackPointExtension xmlns:gpxtpx="http://www.garmin.com/xmlschemas/TrackPointExtension/v1">
            <gpxtpx:hr>135</gpxtpx:hr>
          </gpxtpx:TrackPointExtension>
        </extensions>
      </trkpt>
      <trkpt lat="48.18912" lon="3.26883">
        <ele>64.3</ele>
        <time>2022-05-14T13:24:56.000Z</time>
        <extensions>
          <gpxtpx:TrackPointExtension xmlns:gpxtpx="http://www.garmin.com/xmlschemas/TrackPointExtension/v1">
            <gpxtpx:hr>136</gpxtpx:hr>
          </gpxtpx:TrackPointExtension>
        </extensions>
      </trkpt>
      <trkpt lat="48.18917" lon="3.2689">
        <ele>64.1</ele>
        <time>2022-05-14T13:24:59.000Z</time>
        <extensions>
          <gpxtpx:TrackPointExtension xmlns:gpxtpx="http://www.garmin.com/xmlschemas/TrackPointExtension/v1">
            <gpxtpx:hr>139</gpxtpx:hr>
          </gpxtpx:TrackPointExtension>
        </extensions>
      </trkpt>
      <trkpt lat="48.18921" lon="3.26896">
        <ele>64.4</ele>
        <time>2022-05-14T13:25:02.000Z</time>
        <extensions>
          <gpxtpx:TrackPointExtension xmlns:gpxtpx="http://www.garmin.com/xmlschemas/TrackPointExtension/v1">
            <gpxtpx:hr>140</gpxtpx:hr>
          </gpxtpx:TrackPointExtension>
        </extensions>
      </trkpt>
      <trkpt lat="48.18931" lon="3.26905">
        <ele>64.8</ele>
        <time>2022-05-14T13:25:09.000Z</time>
        <extensions>
          <gpxtpx:TrackPointExtension xmlns:gpxtpx="http://www.garmin.com/xmlschemas/TrackPointExtension/v1">
            <gpxtpx:hr>141</gpxtpx:hr>
          </gpxtpx:TrackPointExtension>
        </extensions>
      </trkpt>
      <trkpt lat="48.18943" lon="3.26921">
        <ele>64.9</ele>
        <time>2022-05-14T13:25:17.000Z</time>
        <extensions>
          <gpxtpx:TrackPointExtension xmlns:gpxtpx="http://www.garmin.com/xmlschemas/TrackPointExtension/v1">
            <gpxtpx:hr>140</gpxtpx:hr>
          </gpxtpx:TrackPointExtension>
        </extensions>
      </trkpt>
      <trkpt lat="48.1895" lon="3.26934">
        <ele>64.4</ele>
        <time>2022-05-14T13:25:22.000Z</time>
        <extensions>
          <gpxtpx:TrackPointExtension xmlns:gpxtpx="http://www.garmin.com/xmlschemas/TrackPointExtension/v1">
            <gpxtpx:hr>140</gpxtpx:hr>
          </gpxtpx:TrackPointExtension>
        </extensions>
      </trkpt>
      <trkpt lat="48.18951" lon="3.26936">
        <ele>64.4</ele>
        <time>2022-05-14T13:25:23.000Z</time>
        <extensions>
          <gpxtpx:TrackPointExtension xmlns:gpxtpx="http://www.garmin.com/xmlschemas/TrackPointExtension/v1">
            <gpxtpx:hr>139</gpxtpx:hr>
          </gpxtpx:TrackPointExtension>
        </extensions>
      </trkpt>
      <trkpt lat="48.18952" lon="3.26948">
        <ele>64.3</ele>
      </trkpt>
      <trkpt lat="48.18923" lon="3.27013">
        <ele>64.6</ele>
      </trkpt>
      <trkpt lat="48.18907" lon="3.27048">
        <ele>64.8</ele>
      </trkpt>
      <trkpt lat="48.18878" lon="3.27099">
        <ele>64.5</ele>
      </trkpt>
      <trkpt lat="48.18855" lon="3.27125">
        <ele>65</ele>
        <time>2022-05-14T13:30:33.000Z</time>
      </trkpt>
      <trkpt lat="48.18876" lon="3.27112">
        <ele>64.6</ele>
      </trkpt>
      <trkpt lat="48.18912" lon="3.27047">
        <ele>64.8</ele>
      </trkpt>
      <trkpt lat="48.18963" lon="3.2693">
        <ele>64.5</ele>
        <time>2022-05-14T13:30:39.000Z</time>
        <extensions>
          <gpxtpx:TrackPointExtension xmlns:gpxtpx="http://www.garmin.com/xmlschemas/TrackPointExtension/v1">
            <gpxtpx:hr>121</gpxtpx:hr>
          </gpxtpx:TrackPointExtension>
        </extensions>
      </trkpt>
      <trkpt lat="48.18978" lon="3.26915">
        <ele>64.4</ele>
        <time>2022-05-14T13:30:49.000Z</time>
        <extensions>
          <gpxtpx:TrackPointExtension xmlns:gpxtpx="http://www.garmin.com/xmlschemas/TrackPointExtension/v1">
            <gpxtpx:hr>123</gpxtpx:hr>
          </gpxtpx:TrackPointExtension>
        </extensions>
      </trkpt>
      <trkpt lat="48.18982" lon="3.2691">
        <ele>64.7</ele>
        <time>2022-05-14T13:30:52.000Z</time>
        <extensions>
          <gpxtpx:TrackPointExtension xmlns:gpxtpx="http://www.garmin.com/xmlschemas/TrackPointExtension/v1">
            <gpxtpx:hr>122</gpxtpx:hr>
          </gpxtpx:TrackPointExtension>
        </extensions>
      </trkpt>
      <trkpt lat="48.18987" lon="3.26906">
        <ele>64.8</ele>
        <time>2022-05-14T13:30:55.000Z</time>
        <extensions>
          <gpxtpx:TrackPointExtension xmlns:gpxtpx="http://www.garmin.com/xmlschemas/TrackPointExtension/v1">
            <gpxtpx:hr>120</gpxtpx:hr>
          </gpxtpx:TrackPointExtension>
        </extensions>
      </trkpt>
      <trkpt lat="48.18994" lon="3.269">
        <ele>64.8</ele>
        <time>2022-05-14T13:31:00.000Z</time>
        <extensions>
          <gpxtpx:TrackPointExtension xmlns:gpxtpx="http://www.garmin.com/xmlschemas/TrackPointExtension/v1">
            <gpxtpx:hr>119</gpxtpx:hr>
          </gpxtpx:TrackPointExtension>
        </extensions>
      </trkpt>
      <trkpt lat="48.19005" lon="3.26893">
        <ele>64.2</ele>
        <time>2022-05-14T13:31:07.000Z</time>
        <extensions>
          <gpxtpx:TrackPointExtension xmlns:gpxtpx="http://www.garmin.com/xmlschemas/TrackPointExtension/v1">
            <gpxtpx:hr>118</gpxtpx:hr>
          </gpxtpx:TrackPointExtension>
        </extensions>
      </trkpt>
      <trkpt lat="48.19012" lon="3.26896">
        <ele>64.3</ele>
        <time>2022-05-14T13:31:12.000Z</time>
        <extensions>
          <gpxtpx:TrackPointExtension xmlns:gpxtpx="http://www.garmin.com/xmlschemas/TrackPointExtension/v1">
            <gpxtpx:hr>121</gpxtpx:hr>
          </gpxtpx:TrackPointExtension>
        </extensions>
      </trkpt>
      <trkpt lat="48.19013" lon="3.26897">
        <ele>64.3</ele>
        <time>2022-05-14T13:31:13.000Z</time>
        <extensions>
          <gpxtpx:TrackPointExtension xmlns:gpxtpx="http://www.garmin.com/xmlschemas/TrackPointExtension/v1">
            <gpxtpx:hr>122</gpxtpx:hr>
          </gpxtpx:TrackPointExtension>
        </extensions>
      </trkpt>
      <trkpt lat="48.1902" lon="3.26902">
        <ele>64.3</ele>
        <time>2022-05-14T13:31:19.000Z</time>
        <extensions>
          <gpxtpx:TrackPointExtension xmlns:gpxtpx="http://www.garmin.com/xmlschemas/TrackPointExtension/v1">
            <gpxtpx:hr>122</gpxtpx:hr>
          </gpxtpx:TrackPointExtension>
        </extensions>
      </trkpt>
      <trkpt lat="48.19029" lon="3.26911">
        <ele>64</ele>
        <time>2022-05-14T13:31:26.000Z</time>
        <extensions>
          <gpxtpx:TrackPointExtension xmlns:gpxtpx="http://www.garmin.com/xmlschemas/TrackPointExtension/v1">
            <gpxtpx:hr>122</gpxtpx:hr>
          </gpxtpx:TrackPointExtension>
        </extensions>
      </trkpt>
      <trkpt lat="48.19031" lon="3.26913">
        <ele>64</ele>
        <time>2022-05-14T13:31:27.000Z</time>
        <extensions>
          <gpxtpx:TrackPointExtension xmlns:gpxtpx="http://www.garmin.com/xmlschemas/TrackPointExtension/v1">
            <gpxtpx:hr>122</gpxtpx:hr>
          </gpxtpx:TrackPointExtension>
        </extensions>
      </trkpt>
      <trkpt lat="48.19041" lon="3.26921">
        <ele>64</ele>
        <time>2022-05-14T13:31:34.000Z</time>
        <extensions>
          <gpxtpx:TrackPointExtension xmlns:gpxtpx="http://www.garmin.com/xmlschemas/TrackPointExtension/v1">
            <gpxtpx:hr>119</gpxtpx:hr>
          </gpxtpx:TrackPointExtension>
        </extensions>
      </trkpt>
      <trkpt lat="48.19045" lon="3.26923">
        <ele>64</ele>
        <time>2022-05-14T13:31:36.000Z</time>
        <extensions>
          <gpxtpx:TrackPointExtension xmlns:gpxtpx="http://www.garmin.com/xmlschemas/TrackPointExtension/v1">
            <gpxtpx:hr>121</gpxtpx:hr>
          </gpxtpx:TrackPointExtension>
        </extensions>
      </trkpt>
      <trkpt lat="48.19054" lon="3.26928">
        <ele>64</ele>
        <time>2022-05-14T13:31:41.000Z</time>
        <extensions>
          <gpxtpx:TrackPointExtension xmlns:gpxtpx="http://www.garmin.com/xmlschemas/TrackPointExtension/v1">
            <gpxtpx:hr>122</gpxtpx:hr>
          </gpxtpx:TrackPointExtension>
        </extensions>
      </trkpt>
      <trkpt lat="48.19061" lon="3.26932">
        <ele>64</ele>
        <time>2022-05-14T13:31:45.000Z</time>
        <extensions>
          <gpxtpx:TrackPointExtension xmlns:gpxtpx="http://www.garmin.com/xmlschemas/TrackPointExtension/v1">
            <gpxtpx:hr>124</gpxtpx:hr>
          </gpxtpx:TrackPointExtension>
        </extensions>
      </trkpt>
      <trkpt lat="48.19067" lon="3.26937">
        <ele>64</ele>
        <time>2022-05-14T13:31:49.000Z</time>
        <extensions>
          <gpxtpx:TrackPointExtension xmlns:gpxtpx="http://www.garmin.com/xmlschemas/TrackPointExtension/v1">
            <gpxtpx:hr>125</gpxtpx:hr>
          </gpxtpx:TrackPointExtension>
        </extensions>
      </trkpt>
      <trkpt lat="48.19074" lon="3.26942">
        <ele>64</ele>
        <time>2022-05-14T13:31:53.000Z</time>
        <extensions>
          <gpxtpx:TrackPointExtension xmlns:gpxtpx="http://www.garmin.com/xmlschemas/TrackPointExtension/v1">
            <gpxtpx:hr>125</gpxtpx:hr>
          </gpxtpx:TrackPointExtension>
        </extensions>
      </trkpt>
      <trkpt lat="48.19082" lon="3.26949">
        <ele>64</ele>
        <time>2022-05-14T13:31:58.000Z</time>
        <extensions>
          <gpxtpx:TrackPointExtension xmlns:gpxtpx="http://www.garmin.com/xmlschemas/TrackPointExtension/v1">
            <gpxtpx:hr>126</gpxtpx:hr>
          </gpxtpx:TrackPointExtension>
        </extensions>
      </trkpt>
      <trkpt lat="48.19089" lon="3.26958">
        <ele>64</ele>
        <time>2022-05-14T13:32:03.000Z</time>
        <extensions>
          <gpxtpx:TrackPointExtension xmlns:gpxtpx="http://www.garmin.com/xmlschemas/TrackPointExtension/v1">
            <gpxtpx:hr>125</gpxtpx:hr>
          </gpxtpx:TrackPointExtension>
        </extensions>
      </trkpt>
      <trkpt lat="48.19095" lon="3.26965">
        <ele>64</ele>
        <time>2022-05-14T13:32:07.000Z</time>
        <extensions>
          <gpxtpx:TrackPointExtension xmlns:gpxtpx="http://www.garmin.com/xmlschemas/TrackPointExtension/v1">
            <gpxtpx:hr>125</gpxtpx:hr>
          </gpxtpx:TrackPointExtension>
        </extensions>
      </trkpt>
      <trkpt lat="48.19099" lon="3.26967">
        <ele>64</ele>
        <time>2022-05-14T13:32:09.000Z</time>
        <extensions>
          <gpxtpx:TrackPointExtension xmlns:gpxtpx="http://www.garmin.com/xmlschemas/TrackPointExtension/v1">
            <gpxtpx:hr>125</gpxtpx:hr>
          </gpxtpx:TrackPointExtension>
        </extensions>
      </trkpt>
      <trkpt lat="48.19104" lon="3.26972">
        <ele>64</ele>
        <time>2022-05-14T13:32:12.000Z</time>
        <extensions>
          <gpxtpx:TrackPointExtension xmlns:gpxtpx="http://www.garmin.com/xmlschemas/TrackPointExtension/v1">
            <gpxtpx:hr>124</gpxtpx:hr>
          </gpxtpx:TrackPointExtension>
        </extensions>
      </trkpt>
      <trkpt lat="48.19111" lon="3.26979">
        <ele>64</ele>
        <time>2022-05-14T13:32:16.000Z</time>
        <extensions>
          <gpxtpx:TrackPointExtension xmlns:gpxtpx="http://www.garmin.com/xmlschemas/TrackPointExtension/v1">
            <gpxtpx:hr>124</gpxtpx:hr>
          </gpxtpx:TrackPointExtension>
        </extensions>
      </trkpt>
      <trkpt lat="48.19115" lon="3.26985">
        <ele>64</ele>
        <time>2022-05-14T13:32:20.000Z</time>
        <extensions>
          <gpxtpx:TrackPointExtension xmlns:gpxtpx="http://www.garmin.com/xmlschemas/TrackPointExtension/v1">
            <gpxtpx:hr>124</gpxtpx:hr>
          </gpxtpx:TrackPointExtension>
        </extensions>
      </trkpt>
      <trkpt lat="48.19121" lon="3.26991">
        <ele>64</ele>
        <time>2022-05-14T13:32:24.000Z</time>
        <extensions>
          <gpxtpx:TrackPointExtension xmlns:gpxtpx="http://www.garmin.com/xmlschemas/TrackPointExtension/v1">
            <gpxtpx:hr>126</gpxtpx:hr>
          </gpxtpx:TrackPointExtension>
        </extensions>
      </trkpt>
      <trkpt lat="48.19127" lon="3.26997">
        <ele>64</ele>
        <time>2022-05-14T13:32:28.000Z</time>
        <extensions>
          <gpxtpx:TrackPointExtension xmlns:gpxtpx="http://www.garmin.com/xmlschemas/TrackPointExtension/v1">
            <gpxtpx:hr>126</gpxtpx:hr>
          </gpxtpx:TrackPointExtension>
        </extensions>
      </trkpt>
      <trkpt lat="48.19133" lon="3.27004">
        <ele>64</ele>
        <time>2022-05-14T13:32:32.000Z</time>
        <extensions>
          <gpxtpx:TrackPointExtension xmlns:gpxtpx="http://www.garmin.com/xmlschemas/TrackPointExtension/v1">
            <gpxtpx:hr>125</gpxtpx:hr>
          </gpxtpx:TrackPointExtension>
        </extensions>
      </trkpt>
      <trkpt lat="48.19139" lon="3.27011">
        <ele>64</ele>
        <time>2022-05-14T13:32:36.000Z</time>
        <extensions>
          <gpxtpx:TrackPointExtension xmlns:gpxtpx="http://www.garmin.com/xmlschemas/TrackPointExtension/v1">
            <gpxtpx:hr>125</gpxtpx:hr>
          </gpxtpx:TrackPointExtension>
        </extensions>
      </trkpt>
      <trkpt lat="48.19148" lon="3.27019">
        <ele>64</ele>
        <time>2022-05-14T13:32:41.000Z</time>
        <extensions>
          <gpxtpx:TrackPointExtension xmlns:gpxtpx="http://www.garmin.com/xmlschemas/TrackPointExtension/v1">
            <gpxtpx:hr>124</gpxtpx:hr>
          </gpxtpx:TrackPointExtension>
        </extensions>
      </trkpt>
      <trkpt lat="48.19155" lon="3.27027">
        <ele>64</ele>
        <time>2022-05-14T13:32:46.000Z</time>
        <extensions>
          <gpxtpx:TrackPointExtension xmlns:gpxtpx="http://www.garmin.com/xmlschemas/TrackPointExtension/v1">
            <gpxtpx:hr>124</gpxtpx:hr>
          </gpxtpx:TrackPointExtension>
        </extensions>
      </trkpt>
      <trkpt lat="48.19165" lon="3.27036">
        <ele>64</ele>
        <time>2022-05-14T13:32:52.000Z</time>
        <extensions>
          <gpxtpx:TrackPointExtension xmlns:gpxtpx="http://www.garmin.com/xmlschemas/TrackPointExtension/v1">
            <gpxtpx:hr>125</gpxtpx:hr>
          </gpxtpx:TrackPointExtension>
        </extensions>
      </trkpt>
      <trkpt lat="48.19176" lon="3.27046">
        <ele>64</ele>
        <time>2022-05-14T13:32:58.000Z</time>
        <extensions>
          <gpxtpx:TrackPointExtension xmlns:gpxtpx="http://www.garmin.com/xmlschemas/TrackPointExtension/v1">
            <gpxtpx:hr>124</gpxtpx:hr>
          </gpxtpx:TrackPointExtension>
        </extensions>
      </trkpt>
      <trkpt lat="48.19183" lon="3.27054">
        <ele>64</ele>
        <time>2022-05-14T13:33:03.000Z</time>
        <extensions>
          <gpxtpx:TrackPointExtension xmlns:gpxtpx="http://www.garmin.com/xmlschemas/TrackPointExtension/v1">
            <gpxtpx:hr>122</gpxtpx:hr>
          </gpxtpx:TrackPointExtension>
        </extensions>
      </trkpt>
      <trkpt lat="48.19191" lon="3.2706">
        <ele>64</ele>
        <time>2022-05-14T13:33:08.000Z</time>
        <extensions>
          <gpxtpx:TrackPointExtension xmlns:gpxtpx="http://www.garmin.com/xmlschemas/TrackPointExtension/v1">
            <gpxtpx:hr>125</gpxtpx:hr>
          </gpxtpx:TrackPointExtension>
        </extensions>
      </trkpt>
      <trkpt lat="48.19193" lon="3.27061">
        <ele>64</ele>
        <time>2022-05-14T13:33:09.000Z</time>
        <extensions>
          <gpxtpx:TrackPointExtension xmlns:gpxtpx="http://www.garmin.com/xmlschemas/TrackPointExtension/v1">
            <gpxtpx:hr>126</gpxtpx:hr>
          </gpxtpx:TrackPointExtension>
        </extensions>
      </trkpt>
      <trkpt lat="48.192" lon="3.27067">
        <ele>64</ele>
        <time>2022-05-14T13:33:13.000Z</time>
        <extensions>
          <gpxtpx:TrackPointExtension xmlns:gpxtpx="http://www.garmin.com/xmlschemas/TrackPointExtension/v1">
            <gpxtpx:hr>129</gpxtpx:hr>
          </gpxtpx:TrackPointExtension>
        </extensions>
      </trkpt>
      <trkpt lat="48.19203" lon="3.27069">
        <ele>64</ele>
        <time>2022-05-14T13:33:15.000Z</time>
        <extensions>
          <gpxtpx:TrackPointExtension xmlns:gpxtpx="http://www.garmin.com/xmlschemas/TrackPointExtension/v1">
            <gpxtpx:hr>131</gpxtpx:hr>
          </gpxtpx:TrackPointExtension>
        </extensions>
      </trkpt>
      <trkpt lat="48.19214" lon="3.2708">
        <ele>64</ele>
        <time>2022-05-14T13:33:22.000Z</time>
        <extensions>
          <gpxtpx:TrackPointExtension xmlns:gpxtpx="http://www.garmin.com/xmlschemas/TrackPointExtension/v1">
            <gpxtpx:hr>128</gpxtpx:hr>
          </gpxtpx:TrackPointExtension>
        </extensions>
      </trkpt>
      <trkpt lat="48.19215" lon="3.27082">
        <ele>64</ele>
        <time>2022-05-14T13:33:23.000Z</time>
        <extensions>
          <gpxtpx:TrackPointExtension xmlns:gpxtpx="http://www.garmin.com/xmlschemas/TrackPointExtension/v1">
            <gpxtpx:hr>127</gpxtpx:hr>
          </gpxtpx:TrackPointExtension>
        </extensions>
      </trkpt>
      <trkpt lat="48.19218" lon="3.27086">
        <ele>64</ele>
        <time>2022-05-14T13:33:25.000Z</time>
        <extensions>
          <gpxtpx:TrackPointExtension xmlns:gpxtpx="http://www.garmin.com/xmlschemas/TrackPointExtension/v1">
            <gpxtpx:hr>131</gpxtpx:hr>
          </gpxtpx:TrackPointExtension>
        </extensions>
      </trkpt>
      <trkpt lat="48.19222" lon="3.27092">
        <ele>64</ele>
        <time>2022-05-14T13:33:28.000Z</time>
        <extensions>
          <gpxtpx:TrackPointExtension xmlns:gpxtpx="http://www.garmin.com/xmlschemas/TrackPointExtension/v1">
            <gpxtpx:hr>131</gpxtpx:hr>
          </gpxtpx:TrackPointExtension>
        </extensions>
      </trkpt>
      <trkpt lat="48.19225" lon="3.27095">
        <ele>64.1</ele>
        <time>2022-05-14T13:33:30.000Z</time>
        <extensions>
          <gpxtpx:TrackPointExtension xmlns:gpxtpx="http://www.garmin.com/xmlschemas/TrackPointExtension/v1">
            <gpxtpx:hr>129</gpxtpx:hr>
          </gpxtpx:TrackPointExtension>
        </extensions>
      </trkpt>
      <trkpt lat="48.19228" lon="3.27098">
        <ele>64.1</ele>
        <time>2022-05-14T13:33:32.000Z</time>
        <extensions>
          <gpxtpx:TrackPointExtension xmlns:gpxtpx="http://www.garmin.com/xmlschemas/TrackPointExtension/v1">
            <gpxtpx:hr>128</gpxtpx:hr>
          </gpxtpx:TrackPointExtension>
        </extensions>
      </trkpt>
      <trkpt lat="48.19233" lon="3.27103">
        <ele>64.1</ele>
        <time>2022-05-14T13:33:35.000Z</time>
        <extensions>
          <gpxtpx:TrackPointExtension xmlns:gpxtpx="http://www.garmin.com/xmlschemas/TrackPointExtension/v1">
            <gpxtpx:hr>128</gpxtpx:hr>
          </gpxtpx:TrackPointExtension>
        </extensions>
      </trkpt>
      <trkpt lat="48.19241" lon="3.27112">
        <ele>64</ele>
        <time>2022-05-14T13:33:40.000Z</time>
        <extensions>
          <gpxtpx:TrackPointExtension xmlns:gpxtpx="http://www.garmin.com/xmlschemas/TrackPointExtension/v1">
            <gpxtpx:hr>129</gpxtpx:hr>
          </gpxtpx:TrackPointExtension>
        </extensions>
      </trkpt>
      <trkpt lat="48.19252" lon="3.27122">
        <ele>64</ele>
        <time>2022-05-14T13:33:48.000Z</time>
        <extensions>
          <gpxtpx:TrackPointExtension xmlns:gpxtpx="http://www.garmin.com/xmlschemas/TrackPointExtension/v1">
            <gpxtpx:hr>130</gpxtpx:hr>
          </gpxtpx:TrackPointExtension>
        </extensions>
      </trkpt>
      <trkpt lat="48.19262" lon="3.27131">
        <ele>64.1</ele>
        <time>2022-05-14T13:33:54.000Z</time>
        <extensions>
          <gpxtpx:TrackPointExtension xmlns:gpxtpx="http://www.garmin.com/xmlschemas/TrackPointExtension/v1">
            <gpxtpx:hr>130</gpxtpx:hr>
          </gpxtpx:TrackPointExtension>
        </extensions>
      </trkpt>
      <trkpt lat="48.19268" lon="3.27137">
        <ele>64</ele>
        <time>2022-05-14T13:33:58.000Z</time>
        <extensions>
          <gpxtpx:TrackPointExtension xmlns:gpxtpx="http://www.garmin.com/xmlschemas/TrackPointExtension/v1">
            <gpxtpx:hr>129</gpxtpx:hr>
          </gpxtpx:TrackPointExtension>
        </extensions>
      </trkpt>
      <trkpt lat="48.19271" lon="3.27141">
        <ele>64</ele>
        <time>2022-05-14T13:34:00.000Z</time>
        <extensions>
          <gpxtpx:TrackPointExtension xmlns:gpxtpx="http://www.garmin.com/xmlschemas/TrackPointExtension/v1">
            <gpxtpx:hr>129</gpxtpx:hr>
          </gpxtpx:TrackPointExtension>
        </extensions>
      </trkpt>
      <trkpt lat="48.19272" lon="3.27143">
        <ele>64</ele>
        <time>2022-05-14T13:34:01.000Z</time>
        <extensions>
          <gpxtpx:TrackPointExtension xmlns:gpxtpx="http://www.garmin.com/xmlschemas/TrackPointExtension/v1">
            <gpxtpx:hr>129</gpxtpx:hr>
          </gpxtpx:TrackPointExtension>
        </extensions>
      </trkpt>
      <trkpt lat="48.19275" lon="3.27145">
        <ele>64</ele>
        <time>2022-05-14T13:34:03.000Z</time>
        <extensions>
          <gpxtpx:TrackPointExtension xmlns:gpxtpx="http://www.garmin.com/xmlschemas/TrackPointExtension/v1">
            <gpxtpx:hr>129</gpxtpx:hr>
          </gpxtpx:TrackPointExtension>
        </extensions>
      </trkpt>
      <trkpt lat="48.19276" lon="3.27146">
        <ele>64</ele>
        <time>2022-05-14T13:34:04.000Z</time>
        <extensions>
          <gpxtpx:TrackPointExtension xmlns:gpxtpx="http://www.garmin.com/xmlschemas/TrackPointExtension/v1">
            <gpxtpx:hr>129</gpxtpx:hr>
          </gpxtpx:TrackPointExtension>
        </extensions>
      </trkpt>
      <trkpt lat="48.19288" lon="3.27158">
        <ele>64.1</ele>
        <time>2022-05-14T13:34:11.000Z</time>
        <extensions>
          <gpxtpx:TrackPointExtension xmlns:gpxtpx="http://www.garmin.com/xmlschemas/TrackPointExtension/v1">
            <gpxtpx:hr>131</gpxtpx:hr>
          </gpxtpx:TrackPointExtension>
        </extensions>
      </trkpt>
      <trkpt lat="48.19289" lon="3.27159">
        <ele>64.1</ele>
        <time>2022-05-14T13:34:12.000Z</time>
        <extensions>
          <gpxtpx:TrackPointExtension xmlns:gpxtpx="http://www.garmin.com/xmlschemas/TrackPointExtension/v1">
            <gpxtpx:hr>134</gpxtpx:hr>
          </gpxtpx:TrackPointExtension>
        </extensions>
      </trkpt>
      <trkpt lat="48.19298" lon="3.27168">
        <ele>64</ele>
        <time>2022-05-14T13:34:18.000Z</time>
        <extensions>
          <gpxtpx:TrackPointExtension xmlns:gpxtpx="http://www.garmin.com/xmlschemas/TrackPointExtension/v1">
            <gpxtpx:hr>132</gpxtpx:hr>
          </gpxtpx:TrackPointExtension>
        </extensions>
      </trkpt>
      <trkpt lat="48.19307" lon="3.27178">
        <ele>64</ele>
        <time>2022-05-14T13:34:24.000Z</time>
        <extensions>
          <gpxtpx:TrackPointExtension xmlns:gpxtpx="http://www.garmin.com/xmlschemas/TrackPointExtension/v1">
            <gpxtpx:hr>133</gpxtpx:hr>
          </gpxtpx:TrackPointExtension>
        </extensions>
      </trkpt>
      <trkpt lat="48.19312" lon="3.27186">
        <ele>64.1</ele>
        <time>2022-05-14T13:34:28.000Z</time>
        <extensions>
          <gpxtpx:TrackPointExtension xmlns:gpxtpx="http://www.garmin.com/xmlschemas/TrackPointExtension/v1">
            <gpxtpx:hr>130</gpxtpx:hr>
          </gpxtpx:TrackPointExtension>
        </extensions>
      </trkpt>
      <trkpt lat="48.19313" lon="3.27188">
        <ele>64.1</ele>
        <time>2022-05-14T13:34:29.000Z</time>
        <extensions>
          <gpxtpx:TrackPointExtension xmlns:gpxtpx="http://www.garmin.com/xmlschemas/TrackPointExtension/v1">
            <gpxtpx:hr>134</gpxtpx:hr>
          </gpxtpx:TrackPointExtension>
        </extensions>
      </trkpt>
      <trkpt lat="48.19315" lon="3.2719">
        <ele>64.1</ele>
        <time>2022-05-14T13:34:30.000Z</time>
        <extensions>
          <gpxtpx:TrackPointExtension xmlns:gpxtpx="http://www.garmin.com/xmlschemas/TrackPointExtension/v1">
            <gpxtpx:hr>134</gpxtpx:hr>
          </gpxtpx:TrackPointExtension>
        </extensions>
      </trkpt>
      <trkpt lat="48.19318" lon="3.27193">
        <ele>64</ele>
        <time>2022-05-14T13:34:32.000Z</time>
        <extensions>
          <gpxtpx:TrackPointExtension xmlns:gpxtpx="http://www.garmin.com/xmlschemas/TrackPointExtension/v1">
            <gpxtpx:hr>137</gpxtpx:hr>
          </gpxtpx:TrackPointExtension>
        </extensions>
      </trkpt>
      <trkpt lat="48.1932" lon="3.27197">
        <ele>63.9</ele>
        <time>2022-05-14T13:34:34.000Z</time>
        <extensions>
          <gpxtpx:TrackPointExtension xmlns:gpxtpx="http://www.garmin.com/xmlschemas/TrackPointExtension/v1">
            <gpxtpx:hr>135</gpxtpx:hr>
          </gpxtpx:TrackPointExtension>
        </extensions>
      </trkpt>
      <trkpt lat="48.19326" lon="3.27204">
        <ele>63.7</ele>
        <time>2022-05-14T13:34:38.000Z</time>
        <extensions>
          <gpxtpx:TrackPointExtension xmlns:gpxtpx="http://www.garmin.com/xmlschemas/TrackPointExtension/v1">
            <gpxtpx:hr>135</gpxtpx:hr>
          </gpxtpx:TrackPointExtension>
        </extensions>
      </trkpt>
      <trkpt lat="48.19336" lon="3.27216">
        <ele>63.3</ele>
        <time>2022-05-14T13:34:45.000Z</time>
        <extensions>
          <gpxtpx:TrackPointExtension xmlns:gpxtpx="http://www.garmin.com/xmlschemas/TrackPointExtension/v1">
            <gpxtpx:hr>132</gpxtpx:hr>
          </gpxtpx:TrackPointExtension>
        </extensions>
      </trkpt>
      <trkpt lat="48.19338" lon="3.27218">
        <ele>63.3</ele>
        <time>2022-05-14T13:34:46.000Z</time>
        <extensions>
          <gpxtpx:TrackPointExtension xmlns:gpxtpx="http://www.garmin.com/xmlschemas/TrackPointExtension/v1">
            <gpxtpx:hr>132</gpxtpx:hr>
          </gpxtpx:TrackPointExtension>
        </extensions>
      </trkpt>
      <trkpt lat="48.19343" lon="3.27224">
        <ele>63.3</ele>
        <time>2022-05-14T13:34:50.000Z</time>
        <extensions>
          <gpxtpx:TrackPointExtension xmlns:gpxtpx="http://www.garmin.com/xmlschemas/TrackPointExtension/v1">
            <gpxtpx:hr>129</gpxtpx:hr>
          </gpxtpx:TrackPointExtension>
        </extensions>
      </trkpt>
      <trkpt lat="48.19345" lon="3.27226">
        <ele>63.4</ele>
        <time>2022-05-14T13:34:51.000Z</time>
        <extensions>
          <gpxtpx:TrackPointExtension xmlns:gpxtpx="http://www.garmin.com/xmlschemas/TrackPointExtension/v1">
            <gpxtpx:hr>130</gpxtpx:hr>
          </gpxtpx:TrackPointExtension>
        </extensions>
      </trkpt>
      <trkpt lat="48.19352" lon="3.27234">
        <ele>63.4</ele>
        <time>2022-05-14T13:34:56.000Z</time>
        <extensions>
          <gpxtpx:TrackPointExtension xmlns:gpxtpx="http://www.garmin.com/xmlschemas/TrackPointExtension/v1">
            <gpxtpx:hr>131</gpxtpx:hr>
          </gpxtpx:TrackPointExtension>
        </extensions>
      </trkpt>
      <trkpt lat="48.19356" lon="3.27238">
        <ele>63.4</ele>
        <time>2022-05-14T13:34:59.000Z</time>
        <extensions>
          <gpxtpx:TrackPointExtension xmlns:gpxtpx="http://www.garmin.com/xmlschemas/TrackPointExtension/v1">
            <gpxtpx:hr>134</gpxtpx:hr>
          </gpxtpx:TrackPointExtension>
        </extensions>
      </trkpt>
      <trkpt lat="48.19359" lon="3.27241">
        <ele>63.3</ele>
        <time>2022-05-14T13:35:01.000Z</time>
        <extensions>
          <gpxtpx:TrackPointExtension xmlns:gpxtpx="http://www.garmin.com/xmlschemas/TrackPointExtension/v1">
            <gpxtpx:hr>132</gpxtpx:hr>
          </gpxtpx:TrackPointExtension>
        </extensions>
      </trkpt>
      <trkpt lat="48.1936" lon="3.27243">
        <ele>63.2</ele>
        <time>2022-05-14T13:35:02.000Z</time>
        <extensions>
          <gpxtpx:TrackPointExtension xmlns:gpxtpx="http://www.garmin.com/xmlschemas/TrackPointExtension/v1">
            <gpxtpx:hr>131</gpxtpx:hr>
          </gpxtpx:TrackPointExtension>
        </extensions>
      </trkpt>
      <trkpt lat="48.19369" lon="3.27253">
        <ele>63.6</ele>
        <time>2022-05-14T13:35:08.000Z</time>
        <extensions>
          <gpxtpx:TrackPointExtension xmlns:gpxtpx="http://www.garmin.com/xmlschemas/TrackPointExtension/v1">
            <gpxtpx:hr>132</gpxtpx:hr>
          </gpxtpx:TrackPointExtension>
        </extensions>
      </trkpt>
      <trkpt lat="48.19375" lon="3.2726">
        <ele>64</ele>
        <time>2022-05-14T13:35:12.000Z</time>
        <extensions>
          <gpxtpx:TrackPointExtension xmlns:gpxtpx="http://www.garmin.com/xmlschemas/TrackPointExtension/v1">
            <gpxtpx:hr>130</gpxtpx:hr>
          </gpxtpx:TrackPointExtension>
        </extensions>
      </trkpt>
      <trkpt lat="48.19385" lon="3.27272">
        <ele>64.1</ele>
        <time>2022-05-14T13:35:18.000Z</time>
        <extensions>
          <gpxtpx:TrackPointExtension xmlns:gpxtpx="http://www.garmin.com/xmlschemas/TrackPointExtension/v1">
            <gpxtpx:hr>131</gpxtpx:hr>
          </gpxtpx:TrackPointExtension>
        </extensions>
      </trkpt>
      <trkpt lat="48.19394" lon="3.27281">
        <ele>64.2</ele>
        <time>2022-05-14T13:35:24.000Z</time>
        <extensions>
          <gpxtpx:TrackPointExtension xmlns:gpxtpx="http://www.garmin.com/xmlschemas/TrackPointExtension/v1">
            <gpxtpx:hr>128</gpxtpx:hr>
          </gpxtpx:TrackPointExtension>
        </extensions>
      </trkpt>
      <trkpt lat="48.19405" lon="3.27292">
        <ele>64.3</ele>
        <time>2022-05-14T13:35:31.000Z</time>
        <extensions>
          <gpxtpx:TrackPointExtension xmlns:gpxtpx="http://www.garmin.com/xmlschemas/TrackPointExtension/v1">
            <gpxtpx:hr>126</gpxtpx:hr>
          </gpxtpx:TrackPointExtension>
        </extensions>
      </trkpt>
      <trkpt lat="48.19408" lon="3.27295">
        <ele>64.3</ele>
        <time>2022-05-14T13:35:33.000Z</time>
        <extensions>
          <gpxtpx:TrackPointExtension xmlns:gpxtpx="http://www.garmin.com/xmlschemas/TrackPointExtension/v1">
            <gpxtpx:hr>126</gpxtpx:hr>
          </gpxtpx:TrackPointExtension>
        </extensions>
      </trkpt>
      <trkpt lat="48.19411" lon="3.27298">
        <ele>64.2</ele>
        <time>2022-05-14T13:35:35.000Z</time>
        <extensions>
          <gpxtpx:TrackPointExtension xmlns:gpxtpx="http://www.garmin.com/xmlschemas/TrackPointExtension/v1">
            <gpxtpx:hr>126</gpxtpx:hr>
          </gpxtpx:TrackPointExtension>
        </extensions>
      </trkpt>
      <trkpt lat="48.19414" lon="3.27302">
        <ele>64.1</ele>
        <time>2022-05-14T13:35:37.000Z</time>
        <extensions>
          <gpxtpx:TrackPointExtension xmlns:gpxtpx="http://www.garmin.com/xmlschemas/TrackPointExtension/v1">
            <gpxtpx:hr>126</gpxtpx:hr>
          </gpxtpx:TrackPointExtension>
        </extensions>
      </trkpt>
      <trkpt lat="48.19419" lon="3.27307">
        <ele>64</ele>
        <time>2022-05-14T13:35:40.000Z</time>
        <extensions>
          <gpxtpx:TrackPointExtension xmlns:gpxtpx="http://www.garmin.com/xmlschemas/TrackPointExtension/v1">
            <gpxtpx:hr>125</gpxtpx:hr>
          </gpxtpx:TrackPointExtension>
        </extensions>
      </trkpt>
      <trkpt lat="48.19421" lon="3.2731">
        <ele>64</ele>
        <time>2022-05-14T13:35:42.000Z</time>
        <extensions>
          <gpxtpx:TrackPointExtension xmlns:gpxtpx="http://www.garmin.com/xmlschemas/TrackPointExtension/v1">
            <gpxtpx:hr>125</gpxtpx:hr>
          </gpxtpx:TrackPointExtension>
        </extensions>
      </trkpt>
      <trkpt lat="48.19422" lon="3.27311">
        <ele>64</ele>
        <time>2022-05-14T13:35:43.000Z</time>
        <extensions>
          <gpxtpx:TrackPointExtension xmlns:gpxtpx="http://www.garmin.com/xmlschemas/TrackPointExtension/v1">
            <gpxtpx:hr>124</gpxtpx:hr>
          </gpxtpx:TrackPointExtension>
        </extensions>
      </trkpt>
      <trkpt lat="48.19427" lon="3.27316">
        <ele>63.9</ele>
        <time>2022-05-14T13:35:46.000Z</time>
        <extensions>
          <gpxtpx:TrackPointExtension xmlns:gpxtpx="http://www.garmin.com/xmlschemas/TrackPointExtension/v1">
            <gpxtpx:hr>128</gpxtpx:hr>
          </gpxtpx:TrackPointExtension>
        </extensions>
      </trkpt>
      <trkpt lat="48.19428" lon="3.27318">
        <ele>63.8</ele>
        <time>2022-05-14T13:35:47.000Z</time>
        <extensions>
          <gpxtpx:TrackPointExtension xmlns:gpxtpx="http://www.garmin.com/xmlschemas/TrackPointExtension/v1">
            <gpxtpx:hr>125</gpxtpx:hr>
          </gpxtpx:TrackPointExtension>
        </extensions>
      </trkpt>
      <trkpt lat="48.1943" lon="3.2732">
        <ele>63.8</ele>
        <time>2022-05-14T13:35:48.000Z</time>
        <extensions>
          <gpxtpx:TrackPointExtension xmlns:gpxtpx="http://www.garmin.com/xmlschemas/TrackPointExtension/v1">
            <gpxtpx:hr>124</gpxtpx:hr>
          </gpxtpx:TrackPointExtension>
        </extensions>
      </trkpt>
      <trkpt lat="48.19437" lon="3.27329">
        <ele>63.4</ele>
        <time>2022-05-14T13:35:53.000Z</time>
        <extensions>
          <gpxtpx:TrackPointExtension xmlns:gpxtpx="http://www.garmin.com/xmlschemas/TrackPointExtension/v1">
            <gpxtpx:hr>124</gpxtpx:hr>
          </gpxtpx:TrackPointExtension>
        </extensions>
      </trkpt>
      <trkpt lat="48.1944" lon="3.27333">
        <ele>63.2</ele>
        <time>2022-05-14T13:35:55.000Z</time>
        <extensions>
          <gpxtpx:TrackPointExtension xmlns:gpxtpx="http://www.garmin.com/xmlschemas/TrackPointExtension/v1">
            <gpxtpx:hr>124</gpxtpx:hr>
          </gpxtpx:TrackPointExtension>
        </extensions>
      </trkpt>
      <trkpt lat="48.19515" lon="3.27448">
        <ele>64</ele>
      </trkpt>
      <trkpt lat="48.19628" lon="3.27537">
        <ele>64</ele>
      </trkpt>
      <trkpt lat="48.19705" lon="3.27572">
        <ele>64.3</ele>
      </trkpt>
      <trkpt lat="48.19773" lon="3.276">
        <ele>64.3</ele>
      </trkpt>
      <trkpt lat="48.19817" lon="3.276">
        <ele>64</ele>
      </trkpt>
      <trkpt lat="48.19855" lon="3.27598">
        <ele>64</ele>
      </trkpt>
      <trkpt lat="48.19919" lon="3.27595">
        <ele>64</ele>
      </trkpt>
      <trkpt lat="48.19981" lon="3.27572">
        <ele>64</ele>
      </trkpt>
      <trkpt lat="48.20029" lon="3.27543">
        <ele>64</ele>
      </trkpt>
      <trkpt lat="48.20069" lon="3.27522">
        <ele>63.7</ele>
      </trkpt>
      <trkpt lat="48.20106" lon="3.27505">
        <ele>63.2</ele>
      </trkpt>
      <trkpt lat="48.20155" lon="3.27467">
        <ele>64.1</ele>
      </trkpt>
      <trkpt lat="48.20223" lon="3.27434">
        <ele>64</ele>
      </trkpt>
      <trkpt lat="48.20514" lon="3.27418">
        <ele>64</ele>
      </trkpt>
      <trkpt lat="48.20225" lon="3.27353">
        <ele>64</ele>
      </trkpt>
      <trkpt lat="48.20164" lon="3.27329">
        <ele>64.1</ele>
      </trkpt>
      <trkpt lat="48.20145" lon="3.27312">
        <ele>64.2</ele>
      </trkpt>
      <trkpt lat="48.2011" lon="3.2732">
        <ele>64.5</ele>
      </trkpt>
      <trkpt lat="48.20042" lon="3.27354">
        <ele>64</ele>
      </trkpt>
      <trkpt lat="48.19884" lon="3.27406">
        <ele>64.6</ele>
        <extensions>
          <visugpx:TrkExtension xmlns:visugpx="https://www.visugpx.com/editgpx/">
            <visugpx:node>1</visugpx:node>
            </visugpx:TrkExtension>
        </extensions>
      </trkpt>
    </trkseg>
  </trk>
  <trk>
    <name><![CDATA[CAP13]]></name>
    <extensions>
      <line xmlns="http://www.topografix.com/GPX/gpx_style/0/2">
        <color>fb041d</color>
        <width>4</width>
      </line>
    </extensions>
    <trkseg>
      <trkpt lat="48.19753" lon="3.28401">
        <ele>74</ele>
      </trkpt>
      <trkpt lat="48.19752" lon="3.28411">
        <ele>74</ele>
      </trkpt>
      <trkpt lat="48.19743" lon="3.28413">
        <ele>74</ele>
      </trkpt>
      <trkpt lat="48.19742" lon="3.28412">
        <ele>74</ele>
      </trkpt>
      <trkpt lat="48.19737" lon="3.28349">
        <ele>74</ele>
      </trkpt>
      <trkpt lat="48.19737" lon="3.28339">
        <ele>74</ele>
      </trkpt>
      <trkpt lat="48.19736" lon="3.28328">
        <ele>74</ele>
      </trkpt>
      <trkpt lat="48.19733" lon="3.28296">
        <ele>74</ele>
      </trkpt>
      <trkpt lat="48.19732" lon="3.28289">
        <ele>74</ele>
      </trkpt>
      <trkpt lat="48.19731" lon="3.28259">
        <ele>74</ele>
      </trkpt>
      <trkpt lat="48.19724" lon="3.28212">
        <ele>73.1</ele>
      </trkpt>
      <trkpt lat="48.1972" lon="3.28175">
        <ele>73</ele>
      </trkpt>
      <trkpt lat="48.19717" lon="3.28175">
        <ele>73</ele>
        <extensions>
          <visugpx:TrkExtension xmlns:visugpx="https://www.visugpx.com/editgpx/">
            <visugpx:node>1</visugpx:node>
            </visugpx:TrkExtension>
        </extensions>
      </trkpt>
      <trkpt lat="48.19632" lon="3.28172">
        <ele>73</ele>
      </trkpt>
      <trkpt lat="48.19628" lon="3.28172">
        <ele>73</ele>
      </trkpt>
      <trkpt lat="48.19626" lon="3.28172">
        <ele>73</ele>
      </trkpt>
      <trkpt lat="48.19607" lon="3.28174">
        <ele>72.9</ele>
      </trkpt>
      <trkpt lat="48.1959" lon="3.2817">
        <ele>72.2</ele>
        <extensions>
          <visugpx:TrkExtension xmlns:visugpx="https://www.visugpx.com/editgpx/">
            <visugpx:node>2</visugpx:node>
            </visugpx:TrkExtension>
        </extensions>
      </trkpt>
      <trkpt lat="48.19586" lon="3.28169">
        <ele>72.1</ele>
      </trkpt>
      <trkpt lat="48.19586" lon="3.2815">
        <ele>72.1</ele>
        <extensions>
          <visugpx:TrkExtension xmlns:visugpx="https://www.visugpx.com/editgpx/">
            <visugpx:node>3</visugpx:node>
            </visugpx:TrkExtension>
        </extensions>
      </trkpt>
      <trkpt lat="48.19554" lon="3.28146">
        <ele>73</ele>
      </trkpt>
      <trkpt lat="48.1955" lon="3.28045">
        <ele>71.8</ele>
      </trkpt>
      <trkpt lat="48.19486" lon="3.28043">
        <ele>72.5</ele>
      </trkpt>
      <trkpt lat="48.19508" lon="3.27682">
        <ele>67.7</ele>
        <extensions>
          <visugpx:TrkExtension xmlns:visugpx="https://www.visugpx.com/editgpx/">
            <visugpx:node>4</visugpx:node>
            </visugpx:TrkExtension>
        </extensions>
      </trkpt>
      <trkpt lat="48.1951" lon="3.27676">
        <ele>67.6</ele>
      </trkpt>
      <trkpt lat="48.19507" lon="3.27675">
        <ele>67.7</ele>
      </trkpt>
      <trkpt lat="48.19506" lon="3.27684">
        <ele>67.8</ele>
      </trkpt>
      <trkpt lat="48.1945" lon="3.2767">
        <ele>68.8</ele>
      </trkpt>
      <trkpt lat="48.19421" lon="3.27663">
        <ele>69</ele>
      </trkpt>
      <trkpt lat="48.19416" lon="3.27657">
        <ele>69</ele>
      </trkpt>
      <trkpt lat="48.19419" lon="3.27646">
        <ele>69</ele>
      </trkpt>
      <trkpt lat="48.1942" lon="3.27629">
        <ele>68.6</ele>
      </trkpt>
      <trkpt lat="48.19419" lon="3.27625">
        <ele>68.5</ele>
      </trkpt>
      <trkpt lat="48.19417" lon="3.27621">
        <ele>68.3</ele>
      </trkpt>
      <trkpt lat="48.19383" lon="3.27617">
        <ele>68.2</ele>
      </trkpt>
      <trkpt lat="48.19289" lon="3.27591">
        <ele>68.1</ele>
      </trkpt>
      <trkpt lat="48.19279" lon="3.27588">
        <ele>68</ele>
      </trkpt>
      <trkpt lat="48.19243" lon="3.27577">
        <ele>67.9</ele>
      </trkpt>
      <trkpt lat="48.19157" lon="3.27552">
        <ele>67</ele>
      </trkpt>
      <trkpt lat="48.19149" lon="3.27548">
        <ele>67</ele>
      </trkpt>
      <trkpt lat="48.19146" lon="3.27557">
        <ele>67</ele>
      </trkpt>
      <trkpt lat="48.19127" lon="3.27638">
        <ele>67.6</ele>
      </trkpt>
      <trkpt lat="48.1912" lon="3.27634">
        <ele>67.3</ele>
      </trkpt>
      <trkpt lat="48.19063" lon="3.27606">
        <ele>67</ele>
      </trkpt>
      <trkpt lat="48.18993" lon="3.27571">
        <ele>67</ele>
      </trkpt>
      <trkpt lat="48.18987" lon="3.27568">
        <ele>67</ele>
      </trkpt>
      <trkpt lat="48.18919" lon="3.2753">
        <ele>67</ele>
      </trkpt>
      <trkpt lat="48.18858" lon="3.27497">
        <ele>67</ele>
      </trkpt>
      <trkpt lat="48.18843" lon="3.27485">
        <ele>67</ele>
      </trkpt>
      <trkpt lat="48.18839" lon="3.27472">
        <ele>67</ele>
      </trkpt>
      <trkpt lat="48.18835" lon="3.27452">
        <ele>67</ele>
      </trkpt>
      <trkpt lat="48.18833" lon="3.27425">
        <ele>67</ele>
      </trkpt>
      <trkpt lat="48.18844" lon="3.27319">
        <ele>67</ele>
      </trkpt>
      <trkpt lat="48.18813" lon="3.27308">
        <ele>66.9</ele>
      </trkpt>
      <trkpt lat="48.18806" lon="3.27306">
        <ele>67</ele>
      </trkpt>
      <trkpt lat="48.18782" lon="3.27297">
        <ele>66.4</ele>
      </trkpt>
      <trkpt lat="48.18745" lon="3.27284">
        <ele>67</ele>
      </trkpt>
      <trkpt lat="48.18734" lon="3.2728">
        <ele>67</ele>
      </trkpt>
      <trkpt lat="48.18719" lon="3.27275">
        <ele>66.9</ele>
      </trkpt>
      <trkpt lat="48.18665" lon="3.27253">
        <ele>66</ele>
      </trkpt>
      <trkpt lat="48.18601" lon="3.2723">
        <ele>66</ele>
      </trkpt>
      <trkpt lat="48.18595" lon="3.27227">
        <ele>66</ele>
      </trkpt>
      <trkpt lat="48.1859" lon="3.27222">
        <ele>66</ele>
      </trkpt>
      <trkpt lat="48.18587" lon="3.27223">
        <ele>66</ele>
        <extensions>
          <visugpx:TrkExtension xmlns:visugpx="https://www.visugpx.com/editgpx/">
            <visugpx:node>5</visugpx:node>
            </visugpx:TrkExtension>
        </extensions>
      </trkpt>
      <trkpt lat="48.1859" lon="3.27222">
        <ele>66</ele>
      </trkpt>
      <trkpt lat="48.18626" lon="3.27114">
        <ele>66</ele>
      </trkpt>
      <trkpt lat="48.18634" lon="3.27083">
        <ele>66</ele>
        <extensions>
          <visugpx:TrkExtension xmlns:visugpx="https://www.visugpx.com/editgpx/">
            <visugpx:node>6</visugpx:node>
            </visugpx:TrkExtension>
        </extensions>
      </trkpt>
    </trkseg>
  </trk>
</gpx>